<?xml version='1.0' encoding='UTF-8'?><gpx version="1.1" creator="JPX - https://github.com/jenetics/jpx" xmlns="http://www.topografix.com/GPX/1/1"><trk><trkseg><trkpt lat="43.50468" lon="10.6202717"><ele>309.0</ele><time>2026-04-18T06:43:15.743Z</time></trkpt><trkpt lat="43.5046967" lon="10.6201667"><ele>309.0</ele><time>2026-04-18T06:44:25.75Z</time></trkpt><trkpt lat="43.5047833" lon="10.6200833"><ele>309.0</ele><time>2026-04-18T06:44:53.745Z</time></trkpt><trkpt lat="43.5048567" lon="10.6200067"><ele>309.0</ele><time>2026-04-18T06:44:54.742Z</time></trkpt><trkpt lat="43.504935" lon="10.6199117"><ele>309.0</ele><time>2026-04-18T06:44:55.751Z</time></trkpt><trkpt lat="43.5050033" lon="10.6198117"><ele>309.0</ele><time>2026-04-18T06:44:56.754Z</time></trkpt><trkpt lat="43.50505" lon="10.6197033"><ele>309.0</ele><time>2026-04-18T06:44:57.743Z</time></trkpt><trkpt lat="43.5050917" lon="10.6195917"><ele>309.0</ele><time>2026-04-18T06:44:58.742Z</time></trkpt><trkpt lat="43.5051367" lon="10.6194833"><ele>309.0</ele><time>2026-04-18T06:44:59.744Z</time></trkpt><trkpt lat="43.50519" lon="10.6193967"><ele>309.0</ele><time>2026-04-18T06:45:00.75Z</time></trkpt><trkpt lat="43.5052417" lon="10.6193333"><ele>309.0</ele><time>2026-04-18T06:45:01.741Z</time></trkpt><trkpt lat="43.5053" lon="10.6192933"><ele>309.59999999999997</ele><time>2026-04-18T06:45:02.746Z</time></trkpt><trkpt lat="43.505385" lon="10.6193067"><ele>310.2</ele><time>2026-04-18T06:45:03.74Z</time></trkpt><trkpt lat="43.5054767" lon="10.6193383"><ele>310.79999999999995</ele><time>2026-04-18T06:45:04.743Z</time></trkpt><trkpt lat="43.50557" lon="10.619375"><ele>311.4</ele><time>2026-04-18T06:45:05.745Z</time></trkpt><trkpt lat="43.5056583" lon="10.6194083"><ele>312.0</ele><time>2026-04-18T06:45:06.741Z</time></trkpt><trkpt lat="43.505745" lon="10.61943"><ele>309.6</ele><time>2026-04-18T06:45:07.745Z</time></trkpt><trkpt lat="43.5058367" lon="10.619435"><ele>307.2</ele><time>2026-04-18T06:45:08.745Z</time></trkpt><trkpt lat="43.5059367" lon="10.6194117"><ele>304.8</ele><time>2026-04-18T06:45:09.747Z</time></trkpt><trkpt lat="43.50604" lon="10.6193833"><ele>302.4</ele><time>2026-04-18T06:45:10.747Z</time></trkpt><trkpt lat="43.5061483" lon="10.6193517"><ele>300.0</ele><time>2026-04-18T06:45:11.741Z</time></trkpt><trkpt lat="43.5062517" lon="10.6193267"><ele>297.8</ele><time>2026-04-18T06:45:12.742Z</time></trkpt><trkpt lat="43.5063483" lon="10.6193133"><ele>295.6</ele><time>2026-04-18T06:45:13.746Z</time></trkpt><trkpt lat="43.5064433" lon="10.6193167"><ele>293.4</ele><time>2026-04-18T06:45:14.75Z</time></trkpt><trkpt lat="43.5065333" lon="10.6193217"><ele>291.2</ele><time>2026-04-18T06:45:15.745Z</time></trkpt><trkpt lat="43.5066217" lon="10.61931"><ele>289.0</ele><time>2026-04-18T06:45:16.747Z</time></trkpt><trkpt lat="43.5067133" lon="10.6192783"><ele>289.0</ele><time>2026-04-18T06:45:17.749Z</time></trkpt><trkpt lat="43.5068017" lon="10.6192383"><ele>289.0</ele><time>2026-04-18T06:45:18.745Z</time></trkpt><trkpt lat="43.506885" lon="10.6192"><ele>289.0</ele><time>2026-04-18T06:45:19.744Z</time></trkpt><trkpt lat="43.506955" lon="10.61914"><ele>289.0</ele><time>2026-04-18T06:45:20.743Z</time></trkpt><trkpt lat="43.5070183" lon="10.619065"><ele>289.0</ele><time>2026-04-18T06:45:21.741Z</time></trkpt><trkpt lat="43.5070833" lon="10.618985"><ele>289.0</ele><time>2026-04-18T06:45:22.745Z</time></trkpt><trkpt lat="43.5071533" lon="10.6189133"><ele>287.3333333333333</ele><time>2026-04-18T06:45:23.749Z</time></trkpt><trkpt lat="43.5072267" lon="10.61885"><ele>285.66666666666663</ele><time>2026-04-18T06:45:24.746Z</time></trkpt><trkpt lat="43.5073067" lon="10.6188"><ele>284.0</ele><time>2026-04-18T06:45:25.747Z</time></trkpt><trkpt lat="43.5073917" lon="10.6187633"><ele>282.3333333333333</ele><time>2026-04-18T06:45:26.747Z</time></trkpt><trkpt lat="43.5074817" lon="10.6187433"><ele>280.6666666666667</ele><time>2026-04-18T06:45:27.743Z</time></trkpt><trkpt lat="43.507565" lon="10.6187017"><ele>279.0</ele><time>2026-04-18T06:45:28.742Z</time></trkpt><trkpt lat="43.5076417" lon="10.6186533"><ele>279.0</ele><time>2026-04-18T06:45:29.743Z</time></trkpt><trkpt lat="43.5077117" lon="10.618595"><ele>279.0</ele><time>2026-04-18T06:45:30.749Z</time></trkpt><trkpt lat="43.5077717" lon="10.61855"><ele>279.0</ele><time>2026-04-18T06:45:31.746Z</time></trkpt><trkpt lat="43.5078267" lon="10.6184633"><ele>279.0</ele><time>2026-04-18T06:45:32.75Z</time></trkpt><trkpt lat="43.507875" lon="10.61838"><ele>279.0</ele><time>2026-04-18T06:45:33.745Z</time></trkpt><trkpt lat="43.5079283" lon="10.6182767"><ele>279.0</ele><time>2026-04-18T06:45:34.742Z</time></trkpt><trkpt lat="43.5079783" lon="10.6181517"><ele>279.0</ele><time>2026-04-18T06:45:35.746Z</time></trkpt><trkpt lat="43.508035" lon="10.6179967"><ele>279.0</ele><time>2026-04-18T06:45:36.742Z</time></trkpt><trkpt lat="43.5080967" lon="10.6178267"><ele>279.0</ele><time>2026-04-18T06:45:37.743Z</time></trkpt><trkpt lat="43.508155" lon="10.6176617"><ele>279.0</ele><time>2026-04-18T06:45:38.747Z</time></trkpt><trkpt lat="43.5082067" lon="10.6175167"><ele>281.0</ele><time>2026-04-18T06:45:39.742Z</time></trkpt><trkpt lat="43.508245" lon="10.6173917"><ele>283.0</ele><time>2026-04-18T06:45:40.746Z</time></trkpt><trkpt lat="43.5082917" lon="10.6172783"><ele>285.0</ele><time>2026-04-18T06:45:41.748Z</time></trkpt><trkpt lat="43.508355" lon="10.61716"><ele>287.0</ele><time>2026-04-18T06:45:42.745Z</time></trkpt><trkpt lat="43.5084433" lon="10.6170267"><ele>289.0</ele><time>2026-04-18T06:45:43.745Z</time></trkpt><trkpt lat="43.5085467" lon="10.6168883"><ele>289.75</ele><time>2026-04-18T06:45:44.744Z</time></trkpt><trkpt lat="43.5086483" lon="10.6167583"><ele>290.5</ele><time>2026-04-18T06:45:45.75Z</time></trkpt><trkpt lat="43.5087483" lon="10.6166417"><ele>291.25</ele><time>2026-04-18T06:45:46.744Z</time></trkpt><trkpt lat="43.5088283" lon="10.6165483"><ele>292.0</ele><time>2026-04-18T06:45:47.747Z</time></trkpt><trkpt lat="43.5088883" lon="10.6164783"><ele>292.0</ele><time>2026-04-18T06:45:48.743Z</time></trkpt><trkpt lat="43.5089717" lon="10.6163917"><ele>292.0</ele><time>2026-04-18T06:45:50.743Z</time></trkpt><trkpt lat="43.50905" lon="10.6164117"><ele>292.0</ele><time>2026-04-18T06:46:13.742Z</time></trkpt><trkpt lat="43.50911" lon="10.61651"><ele>292.0</ele><time>2026-04-18T06:46:15.766Z</time></trkpt><trkpt lat="43.5091633" lon="10.6166117"><ele>292.0</ele><time>2026-04-18T06:46:16.743Z</time></trkpt><trkpt lat="43.5092233" lon="10.6167117"><ele>292.0</ele><time>2026-04-18T06:46:17.746Z</time></trkpt><trkpt lat="43.5092833" lon="10.616805"><ele>292.0</ele><time>2026-04-18T06:46:18.743Z</time></trkpt><trkpt lat="43.5093433" lon="10.6169033"><ele>292.0</ele><time>2026-04-18T06:46:19.743Z</time></trkpt><trkpt lat="43.5094167" lon="10.6170133"><ele>292.0</ele><time>2026-04-18T06:46:20.742Z</time></trkpt><trkpt lat="43.509495" lon="10.6171717"><ele>292.0</ele><time>2026-04-18T06:46:21.744Z</time></trkpt><trkpt lat="43.509595" lon="10.617355"><ele>290.0</ele><time>2026-04-18T06:46:22.746Z</time></trkpt><trkpt lat="43.5097067" lon="10.6175567"><ele>288.0</ele><time>2026-04-18T06:46:23.747Z</time></trkpt><trkpt lat="43.5098033" lon="10.6177483"><ele>286.0</ele><time>2026-04-18T06:46:24.745Z</time></trkpt><trkpt lat="43.5098783" lon="10.6179233"><ele>285.40000000000003</ele><time>2026-04-18T06:46:25.741Z</time></trkpt><trkpt lat="43.5099333" lon="10.6180683"><ele>284.8</ele><time>2026-04-18T06:46:26.742Z</time></trkpt><trkpt lat="43.50998" lon="10.6182017"><ele>284.20000000000005</ele><time>2026-04-18T06:46:27.744Z</time></trkpt><trkpt lat="43.5100233" lon="10.618325"><ele>283.6</ele><time>2026-04-18T06:46:28.742Z</time></trkpt><trkpt lat="43.5100817" lon="10.6184367"><ele>283.0</ele><time>2026-04-18T06:46:29.742Z</time></trkpt><trkpt lat="43.51014" lon="10.6185267"><ele>283.0</ele><time>2026-04-18T06:46:30.747Z</time></trkpt><trkpt lat="43.5102117" lon="10.618605"><ele>283.0</ele><time>2026-04-18T06:46:31.743Z</time></trkpt><trkpt lat="43.510285" lon="10.61864"><ele>283.0</ele><time>2026-04-18T06:46:32.742Z</time></trkpt><trkpt lat="43.5103883" lon="10.61856"><ele>283.0</ele><time>2026-04-18T06:46:33.745Z</time></trkpt><trkpt lat="43.5105183" lon="10.6184317"><ele>283.0</ele><time>2026-04-18T06:46:34.745Z</time></trkpt><trkpt lat="43.5106583" lon="10.6183217"><ele>280.5</ele><time>2026-04-18T06:46:35.746Z</time></trkpt><trkpt lat="43.5107933" lon="10.618245"><ele>278.0</ele><time>2026-04-18T06:46:36.743Z</time></trkpt><trkpt lat="43.51094" lon="10.618215"><ele>275.5</ele><time>2026-04-18T06:46:37.746Z</time></trkpt><trkpt lat="43.511085" lon="10.6182217"><ele>273.0</ele><time>2026-04-18T06:46:38.75Z</time></trkpt><trkpt lat="43.5112333" lon="10.618245"><ele>270.75</ele><time>2026-04-18T06:46:39.743Z</time></trkpt><trkpt lat="43.5113667" lon="10.6182717"><ele>268.5</ele><time>2026-04-18T06:46:40.742Z</time></trkpt><trkpt lat="43.5115" lon="10.6183033"><ele>266.25</ele><time>2026-04-18T06:46:41.741Z</time></trkpt><trkpt lat="43.51163" lon="10.6183433"><ele>264.0</ele><time>2026-04-18T06:46:42.744Z</time></trkpt><trkpt lat="43.511755" lon="10.6184017"><ele>264.0</ele><time>2026-04-18T06:46:43.748Z</time></trkpt><trkpt lat="43.5118733" lon="10.6184783"><ele>264.0</ele><time>2026-04-18T06:46:44.744Z</time></trkpt><trkpt lat="43.51198" lon="10.61857"><ele>264.0</ele><time>2026-04-18T06:46:45.742Z</time></trkpt><trkpt lat="43.5120733" lon="10.6186617"><ele>264.0</ele><time>2026-04-18T06:46:46.742Z</time></trkpt><trkpt lat="43.5121717" lon="10.6187533"><ele>261.75</ele><time>2026-04-18T06:46:47.741Z</time></trkpt><trkpt lat="43.5122833" lon="10.618835"><ele>259.5</ele><time>2026-04-18T06:46:48.748Z</time></trkpt><trkpt lat="43.512405" lon="10.618915"><ele>257.25</ele><time>2026-04-18T06:46:49.743Z</time></trkpt><trkpt lat="43.512545" lon="10.6189883"><ele>255.0</ele><time>2026-04-18T06:46:50.745Z</time></trkpt><trkpt lat="43.51269" lon="10.6190583"><ele>255.0</ele><time>2026-04-18T06:46:51.749Z</time></trkpt><trkpt lat="43.5128233" lon="10.619125"><ele>255.0</ele><time>2026-04-18T06:46:52.746Z</time></trkpt><trkpt lat="43.5129667" lon="10.6191933"><ele>255.0</ele><time>2026-04-18T06:46:53.745Z</time></trkpt><trkpt lat="43.5131" lon="10.6192617"><ele>255.0</ele><time>2026-04-18T06:46:54.747Z</time></trkpt><trkpt lat="43.51323" lon="10.6193283"><ele>252.75</ele><time>2026-04-18T06:46:55.744Z</time></trkpt><trkpt lat="43.5133567" lon="10.6193933"><ele>250.5</ele><time>2026-04-18T06:46:56.746Z</time></trkpt><trkpt lat="43.5134817" lon="10.6194517"><ele>248.25</ele><time>2026-04-18T06:46:57.746Z</time></trkpt><trkpt lat="43.5136067" lon="10.619505"><ele>246.0</ele><time>2026-04-18T06:46:58.743Z</time></trkpt><trkpt lat="43.5137317" lon="10.619555"><ele>244.0</ele><time>2026-04-18T06:46:59.741Z</time></trkpt><trkpt lat="43.5138417" lon="10.619605"><ele>242.00000000000003</ele><time>2026-04-18T06:47:00.743Z</time></trkpt><trkpt lat="43.5139333" lon="10.6196517"><ele>240.00000000000003</ele><time>2026-04-18T06:47:01.742Z</time></trkpt><trkpt lat="43.5140133" lon="10.61971"><ele>238.0</ele><time>2026-04-18T06:47:02.742Z</time></trkpt><trkpt lat="43.514065" lon="10.6197967"><ele>236.0</ele><time>2026-04-18T06:47:03.744Z</time></trkpt><trkpt lat="43.514105" lon="10.6198967"><ele>236.0</ele><time>2026-04-18T06:47:04.744Z</time></trkpt><trkpt lat="43.5141067" lon="10.6200233"><ele>236.00000000000003</ele><time>2026-04-18T06:47:05.749Z</time></trkpt><trkpt lat="43.51409" lon="10.6201483"><ele>236.00000000000003</ele><time>2026-04-18T06:47:06.741Z</time></trkpt><trkpt lat="43.5140467" lon="10.6202783"><ele>236.0</ele><time>2026-04-18T06:47:07.741Z</time></trkpt><trkpt lat="43.5139733" lon="10.620405"><ele>236.0</ele><time>2026-04-18T06:47:08.746Z</time></trkpt><trkpt lat="43.5138967" lon="10.6205233"><ele>235.60000000000002</ele><time>2026-04-18T06:47:09.746Z</time></trkpt><trkpt lat="43.513815" lon="10.6206233"><ele>235.20000000000002</ele><time>2026-04-18T06:47:10.748Z</time></trkpt><trkpt lat="43.5137367" lon="10.6207217"><ele>234.79999999999998</ele><time>2026-04-18T06:47:11.742Z</time></trkpt><trkpt lat="43.5136583" lon="10.62082"><ele>234.39999999999998</ele><time>2026-04-18T06:47:12.744Z</time></trkpt><trkpt lat="43.5135867" lon="10.620915"><ele>234.0</ele><time>2026-04-18T06:47:13.742Z</time></trkpt><trkpt lat="43.513525" lon="10.6210133"><ele>234.0</ele><time>2026-04-18T06:47:14.745Z</time></trkpt><trkpt lat="43.51348" lon="10.6211183"><ele>233.99999999999997</ele><time>2026-04-18T06:47:15.745Z</time></trkpt><trkpt lat="43.5134517" lon="10.6212367"><ele>233.99999999999997</ele><time>2026-04-18T06:47:16.741Z</time></trkpt><trkpt lat="43.513445" lon="10.62136"><ele>234.0</ele><time>2026-04-18T06:47:17.74Z</time></trkpt><trkpt lat="43.5134967" lon="10.6214667"><ele>234.0</ele><time>2026-04-18T06:47:18.744Z</time></trkpt><trkpt lat="43.513565" lon="10.6215533"><ele>231.33333333333331</ele><time>2026-04-18T06:47:19.745Z</time></trkpt><trkpt lat="43.5136617" lon="10.6216167"><ele>228.66666666666666</ele><time>2026-04-18T06:47:20.742Z</time></trkpt><trkpt lat="43.5138233" lon="10.62166"><ele>226.0</ele><time>2026-04-18T06:47:21.744Z</time></trkpt><trkpt lat="43.514015" lon="10.6217417"><ele>224.5</ele><time>2026-04-18T06:47:22.744Z</time></trkpt><trkpt lat="43.5142267" lon="10.6218717"><ele>223.0</ele><time>2026-04-18T06:47:23.741Z</time></trkpt><trkpt lat="43.51446" lon="10.6220117"><ele>218.5</ele><time>2026-04-18T06:47:24.754Z</time></trkpt><trkpt lat="43.5147167" lon="10.622115"><ele>214.0</ele><time>2026-04-18T06:47:25.745Z</time></trkpt><trkpt lat="43.5150017" lon="10.6221783"><ele>214.0</ele><time>2026-04-18T06:47:26.744Z</time></trkpt><trkpt lat="43.515295" lon="10.6221967"><ele>214.0</ele><time>2026-04-18T06:47:27.744Z</time></trkpt><trkpt lat="43.5155617" lon="10.6222"><ele>211.0</ele><time>2026-04-18T06:47:28.742Z</time></trkpt><trkpt lat="43.5158033" lon="10.62221"><ele>208.0</ele><time>2026-04-18T06:47:29.743Z</time></trkpt><trkpt lat="43.5160133" lon="10.6222383"><ele>208.0</ele><time>2026-04-18T06:47:30.74Z</time></trkpt><trkpt lat="43.5162" lon="10.6222817"><ele>208.0</ele><time>2026-04-18T06:47:31.745Z</time></trkpt><trkpt lat="43.5163633" lon="10.6223717"><ele>208.0</ele><time>2026-04-18T06:47:32.741Z</time></trkpt><trkpt lat="43.5165" lon="10.6225117"><ele>206.33333333333331</ele><time>2026-04-18T06:47:33.744Z</time></trkpt><trkpt lat="43.51661" lon="10.6226733"><ele>204.66666666666669</ele><time>2026-04-18T06:47:34.747Z</time></trkpt><trkpt lat="43.51671" lon="10.622835"><ele>203.0</ele><time>2026-04-18T06:47:35.745Z</time></trkpt><trkpt lat="43.5167883" lon="10.623015"><ele>202.66666666666669</ele><time>2026-04-18T06:47:36.742Z</time></trkpt><trkpt lat="43.5168583" lon="10.6232117"><ele>202.33333333333331</ele><time>2026-04-18T06:47:37.744Z</time></trkpt><trkpt lat="43.5169167" lon="10.623415"><ele>202.0</ele><time>2026-04-18T06:47:38.743Z</time></trkpt><trkpt lat="43.51697" lon="10.6236117"><ele>201.75</ele><time>2026-04-18T06:47:39.744Z</time></trkpt><trkpt lat="43.5170367" lon="10.623795"><ele>201.5</ele><time>2026-04-18T06:47:40.745Z</time></trkpt><trkpt lat="43.5171183" lon="10.6239517"><ele>201.25</ele><time>2026-04-18T06:47:41.742Z</time></trkpt><trkpt lat="43.517235" lon="10.624065"><ele>201.0</ele><time>2026-04-18T06:47:42.742Z</time></trkpt><trkpt lat="43.517385" lon="10.6241367"><ele>198.0</ele><time>2026-04-18T06:47:43.742Z</time></trkpt><trkpt lat="43.5175667" lon="10.624175"><ele>195.0</ele><time>2026-04-18T06:47:44.744Z</time></trkpt><trkpt lat="43.5177483" lon="10.6242317"><ele>192.0</ele><time>2026-04-18T06:47:45.75Z</time></trkpt><trkpt lat="43.51793" lon="10.6242817"><ele>188.0</ele><time>2026-04-18T06:47:46.742Z</time></trkpt><trkpt lat="43.5181067" lon="10.6243367"><ele>184.0</ele><time>2026-04-18T06:47:47.742Z</time></trkpt><trkpt lat="43.5182767" lon="10.62439"><ele>180.0</ele><time>2026-04-18T06:47:48.748Z</time></trkpt><trkpt lat="43.5184433" lon="10.6244467"><ele>178.75</ele><time>2026-04-18T06:47:49.744Z</time></trkpt><trkpt lat="43.5186" lon="10.6244967"><ele>177.5</ele><time>2026-04-18T06:47:50.746Z</time></trkpt><trkpt lat="43.518745" lon="10.6245367"><ele>176.25</ele><time>2026-04-18T06:47:51.744Z</time></trkpt><trkpt lat="43.5188767" lon="10.6245783"><ele>175.0</ele><time>2026-04-18T06:47:52.741Z</time></trkpt><trkpt lat="43.5189967" lon="10.6246083"><ele>174.4</ele><time>2026-04-18T06:47:53.742Z</time></trkpt><trkpt lat="43.5191067" lon="10.624635"><ele>173.8</ele><time>2026-04-18T06:47:54.743Z</time></trkpt><trkpt lat="43.5192067" lon="10.6246617"><ele>173.2</ele><time>2026-04-18T06:47:55.742Z</time></trkpt><trkpt lat="43.51929" lon="10.62469"><ele>172.6</ele><time>2026-04-18T06:47:56.748Z</time></trkpt><trkpt lat="43.5193583" lon="10.6247183"><ele>172.0</ele><time>2026-04-18T06:47:57.739Z</time></trkpt><trkpt lat="43.5194417" lon="10.6247567"><ele>172.0</ele><time>2026-04-18T06:47:59.744Z</time></trkpt><trkpt lat="43.5195267" lon="10.6247833"><ele>172.0</ele><time>2026-04-18T06:48:02.745Z</time></trkpt><trkpt lat="43.519635" lon="10.6248133"><ele>172.0</ele><time>2026-04-18T06:48:04.746Z</time></trkpt><trkpt lat="43.5197017" lon="10.6248767"><ele>172.0</ele><time>2026-04-18T06:48:05.743Z</time></trkpt><trkpt lat="43.5197883" lon="10.6249483"><ele>172.0</ele><time>2026-04-18T06:48:06.743Z</time></trkpt><trkpt lat="43.51989" lon="10.6250533"><ele>170.25</ele><time>2026-04-18T06:48:07.741Z</time></trkpt><trkpt lat="43.52" lon="10.6251533"><ele>168.5</ele><time>2026-04-18T06:48:08.741Z</time></trkpt><trkpt lat="43.5201167" lon="10.6252483"><ele>166.75</ele><time>2026-04-18T06:48:09.741Z</time></trkpt><trkpt lat="43.520225" lon="10.6253433"><ele>165.0</ele><time>2026-04-18T06:48:10.741Z</time></trkpt><trkpt lat="43.5203317" lon="10.62543"><ele>164.2</ele><time>2026-04-18T06:48:11.747Z</time></trkpt><trkpt lat="43.5204333" lon="10.6254967"><ele>163.4</ele><time>2026-04-18T06:48:12.749Z</time></trkpt><trkpt lat="43.5205133" lon="10.6255867"><ele>162.60000000000002</ele><time>2026-04-18T06:48:13.743Z</time></trkpt><trkpt lat="43.5205833" lon="10.6257"><ele>161.8</ele><time>2026-04-18T06:48:14.745Z</time></trkpt><trkpt lat="43.520635" lon="10.62584"><ele>161.0</ele><time>2026-04-18T06:48:15.741Z</time></trkpt><trkpt lat="43.5206717" lon="10.6259867"><ele>161.0</ele><time>2026-04-18T06:48:16.748Z</time></trkpt><trkpt lat="43.520715" lon="10.62613"><ele>161.0</ele><time>2026-04-18T06:48:17.742Z</time></trkpt><trkpt lat="43.520785" lon="10.62625"><ele>161.0</ele><time>2026-04-18T06:48:18.743Z</time></trkpt><trkpt lat="43.5208883" lon="10.6263317"><ele>161.0</ele><time>2026-04-18T06:48:19.746Z</time></trkpt><trkpt lat="43.521005" lon="10.626395"><ele>161.0</ele><time>2026-04-18T06:48:20.745Z</time></trkpt><trkpt lat="43.52113" lon="10.6264617"><ele>161.0</ele><time>2026-04-18T06:48:21.743Z</time></trkpt><trkpt lat="43.5212567" lon="10.62654"><ele>161.0</ele><time>2026-04-18T06:48:22.743Z</time></trkpt><trkpt lat="43.5213867" lon="10.626625"><ele>161.0</ele><time>2026-04-18T06:48:23.746Z</time></trkpt><trkpt lat="43.5215367" lon="10.6267183"><ele>161.0</ele><time>2026-04-18T06:48:24.744Z</time></trkpt><trkpt lat="43.5216883" lon="10.6268017"><ele>161.0</ele><time>2026-04-18T06:48:25.748Z</time></trkpt><trkpt lat="43.5218333" lon="10.626875"><ele>161.0</ele><time>2026-04-18T06:48:26.747Z</time></trkpt><trkpt lat="43.5219817" lon="10.62694"><ele>159.66666666666666</ele><time>2026-04-18T06:48:27.741Z</time></trkpt><trkpt lat="43.52215" lon="10.6269983"><ele>158.33333333333334</ele><time>2026-04-18T06:48:28.742Z</time></trkpt><trkpt lat="43.5223267" lon="10.6270483"><ele>157.0</ele><time>2026-04-18T06:48:29.744Z</time></trkpt><trkpt lat="43.5225017" lon="10.6270983"><ele>157.0</ele><time>2026-04-18T06:48:30.748Z</time></trkpt><trkpt lat="43.52266" lon="10.62715"><ele>157.0</ele><time>2026-04-18T06:48:31.744Z</time></trkpt><trkpt lat="43.5228067" lon="10.6271933"><ele>157.0</ele><time>2026-04-18T06:48:32.746Z</time></trkpt><trkpt lat="43.5229367" lon="10.627235"><ele>157.0</ele><time>2026-04-18T06:48:33.743Z</time></trkpt><trkpt lat="43.5230483" lon="10.6272767"><ele>155.25</ele><time>2026-04-18T06:48:34.745Z</time></trkpt><trkpt lat="43.52315" lon="10.6273183"><ele>153.5</ele><time>2026-04-18T06:48:35.742Z</time></trkpt><trkpt lat="43.523245" lon="10.6273817"><ele>151.75</ele><time>2026-04-18T06:48:36.745Z</time></trkpt><trkpt lat="43.5233317" lon="10.6274967"><ele>150.0</ele><time>2026-04-18T06:48:37.742Z</time></trkpt><trkpt lat="43.523415" lon="10.62762"><ele>150.0</ele><time>2026-04-18T06:48:38.746Z</time></trkpt><trkpt lat="43.5235083" lon="10.6277167"><ele>150.0</ele><time>2026-04-18T06:48:39.742Z</time></trkpt><trkpt lat="43.5236167" lon="10.6277833"><ele>150.0</ele><time>2026-04-18T06:48:40.744Z</time></trkpt><trkpt lat="43.5237467" lon="10.6277917"><ele>150.0</ele><time>2026-04-18T06:48:41.746Z</time></trkpt><trkpt lat="43.52388" lon="10.6277833"><ele>148.4</ele><time>2026-04-18T06:48:42.742Z</time></trkpt><trkpt lat="43.5239933" lon="10.627785"><ele>146.8</ele><time>2026-04-18T06:48:43.747Z</time></trkpt><trkpt lat="43.5240917" lon="10.6277917"><ele>145.2</ele><time>2026-04-18T06:48:44.747Z</time></trkpt><trkpt lat="43.5241683" lon="10.6278033"><ele>143.6</ele><time>2026-04-18T06:48:45.746Z</time></trkpt><trkpt lat="43.52426" lon="10.6277867"><ele>142.0</ele><time>2026-04-18T06:48:47.745Z</time></trkpt><trkpt lat="43.5243283" lon="10.627655"><ele>142.0</ele><time>2026-04-18T06:48:49.743Z</time></trkpt><trkpt lat="43.52439" lon="10.627615"><ele>142.0</ele><time>2026-04-18T06:48:50.751Z</time></trkpt><trkpt lat="43.5244767" lon="10.627585"><ele>142.0</ele><time>2026-04-18T06:48:51.744Z</time></trkpt><trkpt lat="43.5245783" lon="10.6275683"><ele>142.0</ele><time>2026-04-18T06:48:52.741Z</time></trkpt><trkpt lat="43.5246783" lon="10.6275533"><ele>142.0</ele><time>2026-04-18T06:48:53.74Z</time></trkpt><trkpt lat="43.52477" lon="10.627535"><ele>141.6</ele><time>2026-04-18T06:48:54.743Z</time></trkpt><trkpt lat="43.5248617" lon="10.62753"><ele>141.2</ele><time>2026-04-18T06:48:55.745Z</time></trkpt><trkpt lat="43.5249533" lon="10.6275183"><ele>140.8</ele><time>2026-04-18T06:48:56.742Z</time></trkpt><trkpt lat="43.5250483" lon="10.6274833"><ele>140.4</ele><time>2026-04-18T06:48:57.742Z</time></trkpt><trkpt lat="43.5251383" lon="10.62746"><ele>140.0</ele><time>2026-04-18T06:48:58.746Z</time></trkpt><trkpt lat="43.5252267" lon="10.6274217"><ele>140.0</ele><time>2026-04-18T06:48:59.746Z</time></trkpt><trkpt lat="43.525325" lon="10.6273867"><ele>140.0</ele><time>2026-04-18T06:49:00.747Z</time></trkpt><trkpt lat="43.52542" lon="10.6273267"><ele>140.0</ele><time>2026-04-18T06:49:01.746Z</time></trkpt><trkpt lat="43.52551" lon="10.6272583"><ele>140.0</ele><time>2026-04-18T06:49:02.742Z</time></trkpt><trkpt lat="43.5255983" lon="10.627215"><ele>140.0</ele><time>2026-04-18T06:49:03.744Z</time></trkpt><trkpt lat="43.525675" lon="10.62716"><ele>140.0</ele><time>2026-04-18T06:49:04.746Z</time></trkpt><trkpt lat="43.52575" lon="10.6270933"><ele>140.0</ele><time>2026-04-18T06:49:05.749Z</time></trkpt><trkpt lat="43.5258333" lon="10.6270333"><ele>140.0</ele><time>2026-04-18T06:49:06.743Z</time></trkpt><trkpt lat="43.5259317" lon="10.626985"><ele>140.0</ele><time>2026-04-18T06:49:07.743Z</time></trkpt><trkpt lat="43.52605" lon="10.62695"><ele>140.0</ele><time>2026-04-18T06:49:08.745Z</time></trkpt><trkpt lat="43.5261717" lon="10.6269117"><ele>139.2</ele><time>2026-04-18T06:49:09.744Z</time></trkpt><trkpt lat="43.5262833" lon="10.6268817"><ele>138.4</ele><time>2026-04-18T06:49:10.746Z</time></trkpt><trkpt lat="43.5263833" lon="10.6268417"><ele>137.6</ele><time>2026-04-18T06:49:11.742Z</time></trkpt><trkpt lat="43.5264783" lon="10.6268183"><ele>136.8</ele><time>2026-04-18T06:49:12.744Z</time></trkpt><trkpt lat="43.5265667" lon="10.6267917"><ele>136.0</ele><time>2026-04-18T06:49:13.745Z</time></trkpt><trkpt lat="43.5266467" lon="10.626775"><ele>136.0</ele><time>2026-04-18T06:49:14.74Z</time></trkpt><trkpt lat="43.5267283" lon="10.6267633"><ele>136.0</ele><time>2026-04-18T06:49:15.741Z</time></trkpt><trkpt lat="43.52681" lon="10.6267517"><ele>136.0</ele><time>2026-04-18T06:49:16.744Z</time></trkpt><trkpt lat="43.5268867" lon="10.626725"><ele>136.0</ele><time>2026-04-18T06:49:17.742Z</time></trkpt><trkpt lat="43.5269533" lon="10.6266917"><ele>136.0</ele><time>2026-04-18T06:49:18.742Z</time></trkpt><trkpt lat="43.5270183" lon="10.6266533"><ele>136.0</ele><time>2026-04-18T06:49:19.746Z</time></trkpt><trkpt lat="43.5270867" lon="10.6266083"><ele>134.83333333333334</ele><time>2026-04-18T06:49:20.743Z</time></trkpt><trkpt lat="43.52715" lon="10.6265383"><ele>133.66666666666669</ele><time>2026-04-18T06:49:21.742Z</time></trkpt><trkpt lat="43.5272117" lon="10.6264767"><ele>132.5</ele><time>2026-04-18T06:49:22.745Z</time></trkpt><trkpt lat="43.5272633" lon="10.6264217"><ele>131.33333333333334</ele><time>2026-04-18T06:49:23.743Z</time></trkpt><trkpt lat="43.52734" lon="10.626345"><ele>130.16666666666666</ele><time>2026-04-18T06:49:25.749Z</time></trkpt><trkpt lat="43.5274117" lon="10.626315"><ele>129.0</ele><time>2026-04-18T06:49:27.745Z</time></trkpt><trkpt lat="43.5275067" lon="10.6262917"><ele>129.0</ele><time>2026-04-18T06:49:30.746Z</time></trkpt><trkpt lat="43.527585" lon="10.6262833"><ele>129.0</ele><time>2026-04-18T06:49:32.75Z</time></trkpt><trkpt lat="43.5276817" lon="10.62629"><ele>129.0</ele><time>2026-04-18T06:49:34.744Z</time></trkpt><trkpt lat="43.5277883" lon="10.6262917"><ele>129.0</ele><time>2026-04-18T06:49:36.746Z</time></trkpt><trkpt lat="43.5279183" lon="10.626285"><ele>129.0</ele><time>2026-04-18T06:49:38.746Z</time></trkpt><trkpt lat="43.528005" lon="10.6263033"><ele>128.0</ele><time>2026-04-18T06:49:39.742Z</time></trkpt><trkpt lat="43.5281" lon="10.6263067"><ele>127.0</ele><time>2026-04-18T06:49:40.747Z</time></trkpt><trkpt lat="43.5281883" lon="10.6263083"><ele>126.0</ele><time>2026-04-18T06:49:41.741Z</time></trkpt><trkpt lat="43.5282633" lon="10.626295"><ele>125.0</ele><time>2026-04-18T06:49:42.745Z</time></trkpt><trkpt lat="43.5283367" lon="10.6262817"><ele>124.0</ele><time>2026-04-18T06:49:43.743Z</time></trkpt><trkpt lat="43.528405" lon="10.626285"><ele>123.0</ele><time>2026-04-18T06:49:44.746Z</time></trkpt><trkpt lat="43.5284683" lon="10.6262983"><ele>123.0</ele><time>2026-04-18T06:49:45.744Z</time></trkpt><trkpt lat="43.5285383" lon="10.626335"><ele>123.0</ele><time>2026-04-18T06:49:46.74Z</time></trkpt><trkpt lat="43.5286133" lon="10.62635"><ele>123.0</ele><time>2026-04-18T06:49:47.744Z</time></trkpt><trkpt lat="43.5286967" lon="10.6263783"><ele>123.0</ele><time>2026-04-18T06:49:48.743Z</time></trkpt><trkpt lat="43.52878" lon="10.6264067"><ele>123.0</ele><time>2026-04-18T06:49:49.74Z</time></trkpt><trkpt lat="43.5288567" lon="10.6264317"><ele>123.0</ele><time>2026-04-18T06:49:50.744Z</time></trkpt><trkpt lat="43.5289317" lon="10.6264333"><ele>123.16666666666667</ele><time>2026-04-18T06:49:51.742Z</time></trkpt><trkpt lat="43.5290117" lon="10.62641"><ele>123.33333333333334</ele><time>2026-04-18T06:49:52.741Z</time></trkpt><trkpt lat="43.52909" lon="10.626375"><ele>123.5</ele><time>2026-04-18T06:49:53.744Z</time></trkpt><trkpt lat="43.529165" lon="10.62633"><ele>123.66666666666667</ele><time>2026-04-18T06:49:54.747Z</time></trkpt><trkpt lat="43.5292367" lon="10.6262917"><ele>123.83333333333334</ele><time>2026-04-18T06:49:55.748Z</time></trkpt><trkpt lat="43.5293083" lon="10.6262633"><ele>124.0</ele><time>2026-04-18T06:49:56.747Z</time></trkpt><trkpt lat="43.52939" lon="10.6262517"><ele>124.0</ele><time>2026-04-18T06:49:57.743Z</time></trkpt><trkpt lat="43.529495" lon="10.6262833"><ele>124.0</ele><time>2026-04-18T06:49:58.743Z</time></trkpt><trkpt lat="43.5296017" lon="10.6262683"><ele>124.0</ele><time>2026-04-18T06:49:59.741Z</time></trkpt><trkpt lat="43.5297067" lon="10.6262367"><ele>124.0</ele><time>2026-04-18T06:50:00.745Z</time></trkpt><trkpt lat="43.5298" lon="10.6262017"><ele>124.0</ele><time>2026-04-18T06:50:01.749Z</time></trkpt><trkpt lat="43.5298983" lon="10.626175"><ele>123.16666666666667</ele><time>2026-04-18T06:50:02.742Z</time></trkpt><trkpt lat="43.5299883" lon="10.626145"><ele>122.33333333333334</ele><time>2026-04-18T06:50:03.746Z</time></trkpt><trkpt lat="43.5300717" lon="10.6261183"><ele>121.5</ele><time>2026-04-18T06:50:04.746Z</time></trkpt><trkpt lat="43.5301517" lon="10.6261067"><ele>120.66666666666666</ele><time>2026-04-18T06:50:05.75Z</time></trkpt><trkpt lat="43.5302317" lon="10.626105"><ele>119.83333333333333</ele><time>2026-04-18T06:50:06.749Z</time></trkpt><trkpt lat="43.53032" lon="10.6261217"><ele>119.0</ele><time>2026-04-18T06:50:07.745Z</time></trkpt><trkpt lat="43.5304183" lon="10.62612"><ele>119.0</ele><time>2026-04-18T06:50:08.742Z</time></trkpt><trkpt lat="43.5305283" lon="10.6261333"><ele>119.0</ele><time>2026-04-18T06:50:09.743Z</time></trkpt><trkpt lat="43.5306383" lon="10.6261417"><ele>119.0</ele><time>2026-04-18T06:50:10.744Z</time></trkpt><trkpt lat="43.53074" lon="10.6261567"><ele>119.0</ele><time>2026-04-18T06:50:11.746Z</time></trkpt><trkpt lat="43.5308333" lon="10.6261633"><ele>119.0</ele><time>2026-04-18T06:50:12.746Z</time></trkpt><trkpt lat="43.530935" lon="10.6261717"><ele>118.66666666666666</ele><time>2026-04-18T06:50:13.746Z</time></trkpt><trkpt lat="43.5310283" lon="10.62617"><ele>118.33333333333333</ele><time>2026-04-18T06:50:14.744Z</time></trkpt><trkpt lat="43.5311167" lon="10.6261883"><ele>118.0</ele><time>2026-04-18T06:50:15.743Z</time></trkpt><trkpt lat="43.5312017" lon="10.62621"><ele>117.66666666666666</ele><time>2026-04-18T06:50:16.746Z</time></trkpt><trkpt lat="43.5312867" lon="10.6262467"><ele>117.33333333333333</ele><time>2026-04-18T06:50:17.744Z</time></trkpt><trkpt lat="43.531375" lon="10.6262667"><ele>117.0</ele><time>2026-04-18T06:50:18.742Z</time></trkpt><trkpt lat="43.5314567" lon="10.626305"><ele>118.6</ele><time>2026-04-18T06:50:19.744Z</time></trkpt><trkpt lat="43.5315517" lon="10.6263267"><ele>120.19999999999999</ele><time>2026-04-18T06:50:20.745Z</time></trkpt><trkpt lat="43.5316517" lon="10.6263417"><ele>121.8</ele><time>2026-04-18T06:50:21.745Z</time></trkpt><trkpt lat="43.5317567" lon="10.6263567"><ele>123.4</ele><time>2026-04-18T06:50:22.744Z</time></trkpt><trkpt lat="43.5318617" lon="10.6263767"><ele>125.0</ele><time>2026-04-18T06:50:23.746Z</time></trkpt><trkpt lat="43.5319567" lon="10.6264033"><ele>124.99999999999999</ele><time>2026-04-18T06:50:24.745Z</time></trkpt><trkpt lat="43.5320367" lon="10.62645"><ele>125.0</ele><time>2026-04-18T06:50:25.742Z</time></trkpt><trkpt lat="43.5321133" lon="10.6264917"><ele>125.0</ele><time>2026-04-18T06:50:26.751Z</time></trkpt><trkpt lat="43.5322" lon="10.6264983"><ele>125.0</ele><time>2026-04-18T06:50:27.745Z</time></trkpt><trkpt lat="43.532275" lon="10.6265017"><ele>124.99999999999999</ele><time>2026-04-18T06:50:28.742Z</time></trkpt><trkpt lat="43.5323617" lon="10.6265633"><ele>125.0</ele><time>2026-04-18T06:50:30.747Z</time></trkpt><trkpt lat="43.5324417" lon="10.6265983"><ele>124.99999999999999</ele><time>2026-04-18T06:50:33.743Z</time></trkpt><trkpt lat="43.5324917" lon="10.6267"><ele>125.0</ele><time>2026-04-18T06:50:36.746Z</time></trkpt><trkpt lat="43.5325483" lon="10.6267533"><ele>125.0</ele><time>2026-04-18T06:50:41.748Z</time></trkpt><trkpt lat="43.5326067" lon="10.6268033"><ele>125.0</ele><time>2026-04-18T06:50:43.742Z</time></trkpt><trkpt lat="43.53267" lon="10.62685"><ele>124.99999999999999</ele><time>2026-04-18T06:50:45.744Z</time></trkpt><trkpt lat="43.532745" lon="10.6268733"><ele>125.0</ele><time>2026-04-18T06:50:47.746Z</time></trkpt><trkpt lat="43.5328217" lon="10.6268833"><ele>124.99999999999999</ele><time>2026-04-18T06:50:49.741Z</time></trkpt><trkpt lat="43.5329067" lon="10.6268933"><ele>125.0</ele><time>2026-04-18T06:50:52.74Z</time></trkpt><trkpt lat="43.5329967" lon="10.626945"><ele>125.0</ele><time>2026-04-18T06:50:54.743Z</time></trkpt><trkpt lat="43.5330967" lon="10.6269783"><ele>125.0</ele><time>2026-04-18T06:50:56.743Z</time></trkpt><trkpt lat="43.53317" lon="10.62699"><ele>124.99999999999999</ele><time>2026-04-18T06:50:57.742Z</time></trkpt><trkpt lat="43.5332483" lon="10.6269883"><ele>125.0</ele><time>2026-04-18T06:50:58.742Z</time></trkpt><trkpt lat="43.53332" lon="10.6269867"><ele>124.6</ele><time>2026-04-18T06:50:59.746Z</time></trkpt><trkpt lat="43.533435" lon="10.6269717"><ele>124.2</ele><time>2026-04-18T06:51:01.745Z</time></trkpt><trkpt lat="43.5335583" lon="10.6269283"><ele>123.80000000000001</ele><time>2026-04-18T06:51:03.742Z</time></trkpt><trkpt lat="43.5336633" lon="10.6268533"><ele>123.4</ele><time>2026-04-18T06:51:05.746Z</time></trkpt><trkpt lat="43.53372" lon="10.626805"><ele>123.0</ele><time>2026-04-18T06:51:06.745Z</time></trkpt><trkpt lat="43.5337883" lon="10.62675"><ele>123.0</ele><time>2026-04-18T06:51:07.743Z</time></trkpt><trkpt lat="43.5338533" lon="10.6266983"><ele>123.00000000000001</ele><time>2026-04-18T06:51:08.746Z</time></trkpt><trkpt lat="43.533915" lon="10.62666"><ele>123.00000000000001</ele><time>2026-04-18T06:51:09.745Z</time></trkpt><trkpt lat="43.5340117" lon="10.62658"><ele>123.0</ele><time>2026-04-18T06:51:11.742Z</time></trkpt><trkpt lat="43.5340767" lon="10.626485"><ele>123.0</ele><time>2026-04-18T06:51:13.742Z</time></trkpt><trkpt lat="43.5341517" lon="10.6263733"><ele>123.00000000000001</ele><time>2026-04-18T06:51:15.753Z</time></trkpt><trkpt lat="43.5341917" lon="10.6262967"><ele>123.0</ele><time>2026-04-18T06:51:16.744Z</time></trkpt><trkpt lat="43.5342367" lon="10.62622"><ele>123.00000000000001</ele><time>2026-04-18T06:51:17.748Z</time></trkpt><trkpt lat="43.534275" lon="10.62614"><ele>123.00000000000001</ele><time>2026-04-18T06:51:18.749Z</time></trkpt><trkpt lat="43.5343183" lon="10.626065"><ele>123.0</ele><time>2026-04-18T06:51:19.743Z</time></trkpt><trkpt lat="43.534355" lon="10.6259933"><ele>123.00000000000001</ele><time>2026-04-18T06:51:20.751Z</time></trkpt><trkpt lat="43.534395" lon="10.6259233"><ele>123.00000000000001</ele><time>2026-04-18T06:51:21.743Z</time></trkpt><trkpt lat="43.53444" lon="10.6258517"><ele>122.57142857142858</ele><time>2026-04-18T06:51:22.746Z</time></trkpt><trkpt lat="43.53448" lon="10.6257817"><ele>122.14285714285714</ele><time>2026-04-18T06:51:23.745Z</time></trkpt><trkpt lat="43.5345233" lon="10.6257183"><ele>121.71428571428572</ele><time>2026-04-18T06:51:24.744Z</time></trkpt><trkpt lat="43.53458" lon="10.6256667"><ele>121.28571428571429</ele><time>2026-04-18T06:51:25.745Z</time></trkpt><trkpt lat="43.534645" lon="10.62561"><ele>120.85714285714286</ele><time>2026-04-18T06:51:26.748Z</time></trkpt><trkpt lat="43.5347183" lon="10.6255533"><ele>120.42857142857143</ele><time>2026-04-18T06:51:27.746Z</time></trkpt><trkpt lat="43.534785" lon="10.6254983"><ele>120.0</ele><time>2026-04-18T06:51:28.743Z</time></trkpt><trkpt lat="43.534855" lon="10.6254567"><ele>119.28571428571429</ele><time>2026-04-18T06:51:29.741Z</time></trkpt><trkpt lat="43.534925" lon="10.6254167"><ele>118.57142857142856</ele><time>2026-04-18T06:51:30.74Z</time></trkpt><trkpt lat="43.5349917" lon="10.6253683"><ele>117.85714285714285</ele><time>2026-04-18T06:51:31.742Z</time></trkpt><trkpt lat="43.535055" lon="10.6253267"><ele>117.14285714285714</ele><time>2026-04-18T06:51:32.744Z</time></trkpt><trkpt lat="43.5351217" lon="10.6252817"><ele>116.42857142857142</ele><time>2026-04-18T06:51:33.745Z</time></trkpt><trkpt lat="43.5351867" lon="10.625245"><ele>115.7142857142857</ele><time>2026-04-18T06:51:34.74Z</time></trkpt><trkpt lat="43.5352483" lon="10.6251933"><ele>114.99999999999999</ele><time>2026-04-18T06:51:35.748Z</time></trkpt><trkpt lat="43.5353117" lon="10.6251433"><ele>114.85714285714283</ele><time>2026-04-18T06:51:36.742Z</time></trkpt><trkpt lat="43.5353783" lon="10.625105"><ele>114.71428571428571</ele><time>2026-04-18T06:51:37.741Z</time></trkpt><trkpt lat="43.5354433" lon="10.6250583"><ele>114.57142857142856</ele><time>2026-04-18T06:51:38.748Z</time></trkpt><trkpt lat="43.53551" lon="10.6250217"><ele>114.42857142857142</ele><time>2026-04-18T06:51:39.745Z</time></trkpt><trkpt lat="43.535575" lon="10.624985"><ele>114.28571428571428</ele><time>2026-04-18T06:51:40.745Z</time></trkpt><trkpt lat="43.5356517" lon="10.6249667"><ele>114.14285714285714</ele><time>2026-04-18T06:51:41.743Z</time></trkpt><trkpt lat="43.5357183" lon="10.6249333"><ele>114.0</ele><time>2026-04-18T06:51:42.74Z</time></trkpt><trkpt lat="43.5357883" lon="10.6249233"><ele>113.16666666666667</ele><time>2026-04-18T06:51:43.742Z</time></trkpt><trkpt lat="43.5358583" lon="10.624905"><ele>112.33333333333334</ele><time>2026-04-18T06:51:44.742Z</time></trkpt><trkpt lat="43.5359333" lon="10.6248917"><ele>111.5</ele><time>2026-04-18T06:51:45.742Z</time></trkpt><trkpt lat="43.5360083" lon="10.6248983"><ele>110.66666666666667</ele><time>2026-04-18T06:51:46.744Z</time></trkpt><trkpt lat="43.5360867" lon="10.62493"><ele>109.83333333333334</ele><time>2026-04-18T06:51:47.749Z</time></trkpt><trkpt lat="43.5361567" lon="10.62497"><ele>109.0</ele><time>2026-04-18T06:51:48.742Z</time></trkpt><trkpt lat="43.53623" lon="10.6249917"><ele>108.0</ele><time>2026-04-18T06:51:49.745Z</time></trkpt><trkpt lat="43.5363217" lon="10.6250083"><ele>107.0</ele><time>2026-04-18T06:51:50.746Z</time></trkpt><trkpt lat="43.53643" lon="10.6250267"><ele>106.0</ele><time>2026-04-18T06:51:51.744Z</time></trkpt><trkpt lat="43.5365417" lon="10.6250333"><ele>105.0</ele><time>2026-04-18T06:51:52.743Z</time></trkpt><trkpt lat="43.53664" lon="10.6250533"><ele>104.0</ele><time>2026-04-18T06:51:53.743Z</time></trkpt><trkpt lat="43.5367333" lon="10.6250717"><ele>103.99999999999999</ele><time>2026-04-18T06:51:54.746Z</time></trkpt><trkpt lat="43.5368233" lon="10.6251167"><ele>104.0</ele><time>2026-04-18T06:51:55.748Z</time></trkpt><trkpt lat="43.53691" lon="10.62515"><ele>104.0</ele><time>2026-04-18T06:51:56.742Z</time></trkpt><trkpt lat="43.5369933" lon="10.6251767"><ele>104.0</ele><time>2026-04-18T06:51:57.744Z</time></trkpt><trkpt lat="43.5370733" lon="10.6251967"><ele>103.99999999999999</ele><time>2026-04-18T06:51:58.748Z</time></trkpt><trkpt lat="43.53715" lon="10.62522"><ele>104.0</ele><time>2026-04-18T06:51:59.746Z</time></trkpt><trkpt lat="43.5372333" lon="10.62525"><ele>103.16666666666666</ele><time>2026-04-18T06:52:00.749Z</time></trkpt><trkpt lat="43.5373167" lon="10.625265"><ele>102.33333333333333</ele><time>2026-04-18T06:52:01.745Z</time></trkpt><trkpt lat="43.5374083" lon="10.6252883"><ele>101.5</ele><time>2026-04-18T06:52:02.745Z</time></trkpt><trkpt lat="43.537505" lon="10.6253133"><ele>100.66666666666666</ele><time>2026-04-18T06:52:03.744Z</time></trkpt><trkpt lat="43.5375917" lon="10.625345"><ele>99.83333333333333</ele><time>2026-04-18T06:52:04.744Z</time></trkpt><trkpt lat="43.5376683" lon="10.62538"><ele>99.0</ele><time>2026-04-18T06:52:05.744Z</time></trkpt><trkpt lat="43.5377383" lon="10.62541"><ele>99.4</ele><time>2026-04-18T06:52:06.747Z</time></trkpt><trkpt lat="43.537835" lon="10.6254367"><ele>99.80000000000001</ele><time>2026-04-18T06:52:08.751Z</time></trkpt><trkpt lat="43.5379383" lon="10.625625"><ele>100.19999999999999</ele><time>2026-04-18T06:53:33.418Z</time></trkpt><trkpt lat="43.537875" lon="10.6255533"><ele>100.6</ele><time>2026-04-18T06:54:03.745Z</time></trkpt><trkpt lat="43.537885" lon="10.6254333"><ele>101.0</ele><time>2026-04-18T06:54:04.741Z</time></trkpt><trkpt lat="43.5379567" lon="10.6254367"><ele>101.0</ele><time>2026-04-18T07:10:36.755Z</time></trkpt><trkpt lat="43.5380767" lon="10.6254417"><ele>101.0</ele><time>2026-04-18T07:10:38.744Z</time></trkpt><trkpt lat="43.53814" lon="10.6254383"><ele>101.0</ele><time>2026-04-18T07:10:39.747Z</time></trkpt><trkpt lat="43.5382617" lon="10.6253917"><ele>101.0</ele><time>2026-04-18T07:10:41.747Z</time></trkpt><trkpt lat="43.5383233" lon="10.6253433"><ele>101.0</ele><time>2026-04-18T07:10:42.749Z</time></trkpt><trkpt lat="43.53839" lon="10.6252883"><ele>101.16666666666666</ele><time>2026-04-18T07:10:43.742Z</time></trkpt><trkpt lat="43.538455" lon="10.6252233"><ele>101.33333333333333</ele><time>2026-04-18T07:10:44.746Z</time></trkpt><trkpt lat="43.5385117" lon="10.625155"><ele>101.5</ele><time>2026-04-18T07:10:45.744Z</time></trkpt><trkpt lat="43.5385617" lon="10.6250817"><ele>101.66666666666666</ele><time>2026-04-18T07:10:46.749Z</time></trkpt><trkpt lat="43.5386183" lon="10.6250133"><ele>101.83333333333333</ele><time>2026-04-18T07:10:47.745Z</time></trkpt><trkpt lat="43.5386717" lon="10.624935"><ele>102.0</ele><time>2026-04-18T07:10:48.743Z</time></trkpt><trkpt lat="43.538725" lon="10.62486"><ele>103.14285714285714</ele><time>2026-04-18T07:10:49.756Z</time></trkpt><trkpt lat="43.5387767" lon="10.6247817"><ele>104.28571428571429</ele><time>2026-04-18T07:10:50.747Z</time></trkpt><trkpt lat="43.5388283" lon="10.6247083"><ele>105.42857142857142</ele><time>2026-04-18T07:10:51.749Z</time></trkpt><trkpt lat="43.5388783" lon="10.624635"><ele>106.57142857142857</ele><time>2026-04-18T07:10:52.748Z</time></trkpt><trkpt lat="43.5389283" lon="10.6245617"><ele>107.71428571428571</ele><time>2026-04-18T07:10:53.749Z</time></trkpt><trkpt lat="43.5389817" lon="10.6244917"><ele>108.85714285714285</ele><time>2026-04-18T07:10:54.752Z</time></trkpt><trkpt lat="43.539035" lon="10.624425"><ele>110.0</ele><time>2026-04-18T07:10:55.746Z</time></trkpt><trkpt lat="43.53908" lon="10.6243583"><ele>109.99999999999999</ele><time>2026-04-18T07:10:56.747Z</time></trkpt><trkpt lat="43.5391583" lon="10.62426"><ele>110.0</ele><time>2026-04-18T07:10:58.744Z</time></trkpt><trkpt lat="43.5392117" lon="10.6241617"><ele>110.0</ele><time>2026-04-18T07:11:00.743Z</time></trkpt><trkpt lat="43.53926" lon="10.6240667"><ele>110.0</ele><time>2026-04-18T07:11:02.746Z</time></trkpt><trkpt lat="43.5392917" lon="10.6239833"><ele>109.99999999999999</ele><time>2026-04-18T07:11:04.749Z</time></trkpt><trkpt lat="43.53925" lon="10.623895"><ele>110.0</ele><time>2026-04-18T07:11:13.743Z</time></trkpt><trkpt lat="43.5392167" lon="10.6238"><ele>109.99999999999999</ele><time>2026-04-18T07:11:16.744Z</time></trkpt><trkpt lat="43.5392967" lon="10.623745"><ele>110.0</ele><time>2026-04-18T07:11:21.747Z</time></trkpt><trkpt lat="43.5393767" lon="10.6237283"><ele>110.0</ele><time>2026-04-18T07:11:23.749Z</time></trkpt><trkpt lat="43.5394583" lon="10.6237717"><ele>110.0</ele><time>2026-04-18T07:11:25.742Z</time></trkpt><trkpt lat="43.539515" lon="10.623825"><ele>109.99999999999999</ele><time>2026-04-18T07:11:27.744Z</time></trkpt><trkpt lat="43.539575" lon="10.62393"><ele>110.0</ele><time>2026-04-18T07:13:12.744Z</time></trkpt><trkpt lat="43.5396367" lon="10.623995"><ele>110.4</ele><time>2026-04-18T07:13:14.743Z</time></trkpt><trkpt lat="43.5397017" lon="10.6240583"><ele>110.8</ele><time>2026-04-18T07:13:16.74Z</time></trkpt><trkpt lat="43.5397717" lon="10.6241583"><ele>111.19999999999999</ele><time>2026-04-18T07:13:18.746Z</time></trkpt><trkpt lat="43.539845" lon="10.6242683"><ele>111.6</ele><time>2026-04-18T07:13:20.742Z</time></trkpt><trkpt lat="43.5399233" lon="10.6243833"><ele>112.0</ele><time>2026-04-18T07:13:22.742Z</time></trkpt><trkpt lat="43.5400217" lon="10.624495"><ele>112.0</ele><time>2026-04-18T07:13:24.748Z</time></trkpt><trkpt lat="43.5400783" lon="10.624545"><ele>112.0</ele><time>2026-04-18T07:13:25.743Z</time></trkpt><trkpt lat="43.5401317" lon="10.6246033"><ele>112.0</ele><time>2026-04-18T07:13:26.75Z</time></trkpt><trkpt lat="43.5401883" lon="10.6246583"><ele>112.0</ele><time>2026-04-18T07:13:27.742Z</time></trkpt><trkpt lat="43.5402367" lon="10.6247217"><ele>112.0</ele><time>2026-04-18T07:13:28.746Z</time></trkpt><trkpt lat="43.5402817" lon="10.6247867"><ele>112.0</ele><time>2026-04-18T07:13:29.744Z</time></trkpt><trkpt lat="43.5403283" lon="10.6249267"><ele>112.0</ele><time>2026-04-18T07:13:31.742Z</time></trkpt><trkpt lat="43.540335" lon="10.625015"><ele>112.0</ele><time>2026-04-18T07:13:32.743Z</time></trkpt><trkpt lat="43.5403417" lon="10.6251833"><ele>111.99999999999999</ele><time>2026-04-18T07:13:34.748Z</time></trkpt><trkpt lat="43.540365" lon="10.6253417"><ele>111.99999999999999</ele><time>2026-04-18T07:13:36.744Z</time></trkpt><trkpt lat="43.54042" lon="10.6254717"><ele>112.0</ele><time>2026-04-18T07:13:38.746Z</time></trkpt><trkpt lat="43.5404717" lon="10.6255883"><ele>112.0</ele><time>2026-04-18T07:13:40.743Z</time></trkpt><trkpt lat="43.54049" lon="10.6256933"><ele>111.00000000000001</ele><time>2026-04-18T07:13:42.745Z</time></trkpt><trkpt lat="43.54048" lon="10.6258"><ele>110.0</ele><time>2026-04-18T07:13:46.741Z</time></trkpt><trkpt lat="43.5404217" lon="10.6258667"><ele>109.0</ele><time>2026-04-18T07:13:48.744Z</time></trkpt><trkpt lat="43.5403183" lon="10.6259517"><ele>108.0</ele><time>2026-04-18T07:13:50.743Z</time></trkpt><trkpt lat="43.54026" lon="10.6260017"><ele>107.00000000000001</ele><time>2026-04-18T07:13:51.745Z</time></trkpt><trkpt lat="43.540195" lon="10.6260417"><ele>106.0</ele><time>2026-04-18T07:13:52.746Z</time></trkpt><trkpt lat="43.540135" lon="10.6260833"><ele>103.8</ele><time>2026-04-18T07:13:53.744Z</time></trkpt><trkpt lat="43.5400633" lon="10.626185"><ele>101.6</ele><time>2026-04-18T07:13:55.747Z</time></trkpt><trkpt lat="43.5400733" lon="10.6263183"><ele>99.4</ele><time>2026-04-18T07:13:57.745Z</time></trkpt><trkpt lat="43.5401233" lon="10.626405"><ele>97.2</ele><time>2026-04-18T07:13:58.741Z</time></trkpt><trkpt lat="43.5401717" lon="10.626505"><ele>95.0</ele><time>2026-04-18T07:13:59.748Z</time></trkpt><trkpt lat="43.5402167" lon="10.6266133"><ele>95.0</ele><time>2026-04-18T07:14:00.747Z</time></trkpt><trkpt lat="43.5402633" lon="10.6267217"><ele>95.0</ele><time>2026-04-18T07:14:01.744Z</time></trkpt><trkpt lat="43.540315" lon="10.6268283"><ele>95.0</ele><time>2026-04-18T07:14:02.744Z</time></trkpt><trkpt lat="43.5403633" lon="10.6269433"><ele>95.0</ele><time>2026-04-18T07:14:03.749Z</time></trkpt><trkpt lat="43.540415" lon="10.6270633"><ele>95.0</ele><time>2026-04-18T07:14:04.742Z</time></trkpt><trkpt lat="43.5404717" lon="10.6271767"><ele>93.2</ele><time>2026-04-18T07:14:05.745Z</time></trkpt><trkpt lat="43.5405183" lon="10.6272967"><ele>91.4</ele><time>2026-04-18T07:14:06.746Z</time></trkpt><trkpt lat="43.5405717" lon="10.6274067"><ele>89.6</ele><time>2026-04-18T07:14:07.75Z</time></trkpt><trkpt lat="43.5406183" lon="10.6275217"><ele>87.8</ele><time>2026-04-18T07:14:08.748Z</time></trkpt><trkpt lat="43.5406667" lon="10.627635"><ele>86.0</ele><time>2026-04-18T07:14:09.747Z</time></trkpt><trkpt lat="43.5407133" lon="10.6277467"><ele>84.66666666666667</ele><time>2026-04-18T07:14:10.748Z</time></trkpt><trkpt lat="43.5407633" lon="10.6278533"><ele>83.33333333333334</ele><time>2026-04-18T07:14:11.745Z</time></trkpt><trkpt lat="43.540805" lon="10.6279683"><ele>82.0</ele><time>2026-04-18T07:14:12.743Z</time></trkpt><trkpt lat="43.5408633" lon="10.628055"><ele>80.66666666666667</ele><time>2026-04-18T07:14:13.745Z</time></trkpt><trkpt lat="43.540925" lon="10.6281267"><ele>79.33333333333333</ele><time>2026-04-18T07:14:14.744Z</time></trkpt><trkpt lat="43.5409667" lon="10.6282333"><ele>78.0</ele><time>2026-04-18T07:14:15.742Z</time></trkpt><trkpt lat="43.5410033" lon="10.6283467"><ele>78.0</ele><time>2026-04-18T07:14:16.744Z</time></trkpt><trkpt lat="43.5410433" lon="10.6284617"><ele>78.0</ele><time>2026-04-18T07:14:17.746Z</time></trkpt><trkpt lat="43.5410867" lon="10.62857"><ele>78.0</ele><time>2026-04-18T07:14:18.744Z</time></trkpt><trkpt lat="43.5411483" lon="10.628655"><ele>78.0</ele><time>2026-04-18T07:14:19.753Z</time></trkpt><trkpt lat="43.5412" lon="10.6287583"><ele>78.0</ele><time>2026-04-18T07:14:20.75Z</time></trkpt><trkpt lat="43.541255" lon="10.628855"><ele>78.0</ele><time>2026-04-18T07:14:21.748Z</time></trkpt><trkpt lat="43.5413067" lon="10.6289633"><ele>75.4</ele><time>2026-04-18T07:14:22.746Z</time></trkpt><trkpt lat="43.541365" lon="10.6290717"><ele>72.8</ele><time>2026-04-18T07:14:23.744Z</time></trkpt><trkpt lat="43.5414133" lon="10.6291883"><ele>70.2</ele><time>2026-04-18T07:14:24.745Z</time></trkpt><trkpt lat="43.5414683" lon="10.6293017"><ele>67.6</ele><time>2026-04-18T07:14:25.743Z</time></trkpt><trkpt lat="43.5415217" lon="10.629415"><ele>65.0</ele><time>2026-04-18T07:14:26.745Z</time></trkpt><trkpt lat="43.54157" lon="10.629515"><ele>63.833333333333336</ele><time>2026-04-18T07:14:27.745Z</time></trkpt><trkpt lat="43.54161" lon="10.6296033"><ele>62.66666666666667</ele><time>2026-04-18T07:14:28.742Z</time></trkpt><trkpt lat="43.54164" lon="10.6296883"><ele>61.5</ele><time>2026-04-18T07:14:29.748Z</time></trkpt><trkpt lat="43.5416783" lon="10.6298233"><ele>60.33333333333333</ele><time>2026-04-18T07:14:31.751Z</time></trkpt><trkpt lat="43.5417083" lon="10.6299217"><ele>59.166666666666664</ele><time>2026-04-18T07:14:33.751Z</time></trkpt><trkpt lat="43.5416533" lon="10.630045"><ele>58.0</ele><time>2026-04-18T07:14:36.743Z</time></trkpt><trkpt lat="43.5416017" lon="10.6301333"><ele>58.0</ele><time>2026-04-18T07:14:37.746Z</time></trkpt><trkpt lat="43.5415183" lon="10.6302817"><ele>58.0</ele><time>2026-04-18T07:14:38.749Z</time></trkpt><trkpt lat="43.5414367" lon="10.630485"><ele>58.0</ele><time>2026-04-18T07:14:39.747Z</time></trkpt><trkpt lat="43.541345" lon="10.6307"><ele>56.33333333333333</ele><time>2026-04-18T07:14:40.748Z</time></trkpt><trkpt lat="43.5412467" lon="10.630925"><ele>54.66666666666667</ele><time>2026-04-18T07:14:41.744Z</time></trkpt><trkpt lat="43.5411533" lon="10.6311333"><ele>53.0</ele><time>2026-04-18T07:14:42.743Z</time></trkpt><trkpt lat="43.5410617" lon="10.6313483"><ele>53.0</ele><time>2026-04-18T07:14:43.745Z</time></trkpt><trkpt lat="43.5409767" lon="10.631565"><ele>53.0</ele><time>2026-04-18T07:14:44.746Z</time></trkpt><trkpt lat="43.5408817" lon="10.63178"><ele>53.0</ele><time>2026-04-18T07:14:45.742Z</time></trkpt><trkpt lat="43.5407667" lon="10.631995"><ele>53.333333333333336</ele><time>2026-04-18T07:14:46.74Z</time></trkpt><trkpt lat="43.5406533" lon="10.63223"><ele>53.66666666666667</ele><time>2026-04-18T07:14:47.741Z</time></trkpt><trkpt lat="43.5405567" lon="10.632445"><ele>54.0</ele><time>2026-04-18T07:14:48.744Z</time></trkpt><trkpt lat="43.54045" lon="10.6326517"><ele>56.0</ele><time>2026-04-18T07:14:49.747Z</time></trkpt><trkpt lat="43.5403367" lon="10.6328567"><ele>58.0</ele><time>2026-04-18T07:14:50.747Z</time></trkpt><trkpt lat="43.5402467" lon="10.6330317"><ele>60.0</ele><time>2026-04-18T07:14:51.755Z</time></trkpt><trkpt lat="43.54016" lon="10.633205"><ele>60.0</ele><time>2026-04-18T07:14:52.741Z</time></trkpt><trkpt lat="43.5400933" lon="10.6333567"><ele>60.0</ele><time>2026-04-18T07:14:53.74Z</time></trkpt><trkpt lat="43.540045" lon="10.6335017"><ele>60.0</ele><time>2026-04-18T07:14:54.74Z</time></trkpt><trkpt lat="43.5400017" lon="10.6336317"><ele>60.0</ele><time>2026-04-18T07:14:55.743Z</time></trkpt><trkpt lat="43.5399433" lon="10.6337683"><ele>59.0</ele><time>2026-04-18T07:14:56.745Z</time></trkpt><trkpt lat="43.53987" lon="10.6338983"><ele>58.0</ele><time>2026-04-18T07:14:57.748Z</time></trkpt><trkpt lat="43.5397933" lon="10.6340283"><ele>57.0</ele><time>2026-04-18T07:14:58.743Z</time></trkpt><trkpt lat="43.5397167" lon="10.6341683"><ele>56.0</ele><time>2026-04-18T07:14:59.746Z</time></trkpt><trkpt lat="43.5396433" lon="10.6342817"><ele>56.0</ele><time>2026-04-18T07:15:00.744Z</time></trkpt><trkpt lat="43.5395617" lon="10.63444"><ele>56.0</ele><time>2026-04-18T07:15:01.748Z</time></trkpt><trkpt lat="43.53948" lon="10.6346133"><ele>56.0</ele><time>2026-04-18T07:15:02.745Z</time></trkpt><trkpt lat="43.5394" lon="10.6347533"><ele>56.0</ele><time>2026-04-18T07:15:03.744Z</time></trkpt><trkpt lat="43.5393383" lon="10.63489"><ele>56.0</ele><time>2026-04-18T07:15:04.744Z</time></trkpt><trkpt lat="43.5392833" lon="10.6349717"><ele>55.99999999999999</ele><time>2026-04-18T07:15:05.743Z</time></trkpt><trkpt lat="43.5392067" lon="10.63508"><ele>55.99999999999999</ele><time>2026-04-18T07:15:07.742Z</time></trkpt><trkpt lat="43.5391167" lon="10.6352017"><ele>56.0</ele><time>2026-04-18T07:15:09.743Z</time></trkpt><trkpt lat="43.53906" lon="10.63527"><ele>56.0</ele><time>2026-04-18T07:15:10.748Z</time></trkpt><trkpt lat="43.53901" lon="10.6353417"><ele>56.0</ele><time>2026-04-18T07:15:11.744Z</time></trkpt><trkpt lat="43.5389617" lon="10.635435"><ele>55.99999999999999</ele><time>2026-04-18T07:15:12.746Z</time></trkpt><trkpt lat="43.5389117" lon="10.6355517"><ele>55.99999999999999</ele><time>2026-04-18T07:15:13.74Z</time></trkpt><trkpt lat="43.5388633" lon="10.6356583"><ele>56.0</ele><time>2026-04-18T07:15:14.744Z</time></trkpt><trkpt lat="43.5387967" lon="10.6357433"><ele>56.0</ele><time>2026-04-18T07:15:15.74Z</time></trkpt><trkpt lat="43.53872" lon="10.6358233"><ele>56.599999999999994</ele><time>2026-04-18T07:15:16.743Z</time></trkpt><trkpt lat="43.5386533" lon="10.6359017"><ele>57.199999999999996</ele><time>2026-04-18T07:15:17.741Z</time></trkpt><trkpt lat="43.538605" lon="10.63599"><ele>57.800000000000004</ele><time>2026-04-18T07:15:18.743Z</time></trkpt><trkpt lat="43.5385767" lon="10.63612"><ele>58.400000000000006</ele><time>2026-04-18T07:15:19.744Z</time></trkpt><trkpt lat="43.5385367" lon="10.63624"><ele>59.0</ele><time>2026-04-18T07:15:20.745Z</time></trkpt><trkpt lat="43.5384983" lon="10.63635"><ele>59.0</ele><time>2026-04-18T07:15:21.742Z</time></trkpt><trkpt lat="43.53848" lon="10.63651"><ele>59.00000000000001</ele><time>2026-04-18T07:15:22.744Z</time></trkpt><trkpt lat="43.5384417" lon="10.636655"><ele>59.00000000000001</ele><time>2026-04-18T07:15:23.746Z</time></trkpt><trkpt lat="43.5384" lon="10.6367817"><ele>59.0</ele><time>2026-04-18T07:15:24.747Z</time></trkpt><trkpt lat="43.5383633" lon="10.6368767"><ele>59.0</ele><time>2026-04-18T07:15:25.751Z</time></trkpt><trkpt lat="43.5383567" lon="10.6369667"><ele>58.2</ele><time>2026-04-18T07:15:26.747Z</time></trkpt><trkpt lat="43.5383683" lon="10.6370567"><ele>57.400000000000006</ele><time>2026-04-18T07:15:27.745Z</time></trkpt><trkpt lat="43.5383917" lon="10.6371467"><ele>56.6</ele><time>2026-04-18T07:15:28.744Z</time></trkpt><trkpt lat="43.53845" lon="10.6372367"><ele>55.8</ele><time>2026-04-18T07:15:29.743Z</time></trkpt><trkpt lat="43.53855" lon="10.63733"><ele>55.0</ele><time>2026-04-18T07:15:30.744Z</time></trkpt><trkpt lat="43.53864" lon="10.6374267"><ele>54.0</ele><time>2026-04-18T07:15:31.746Z</time></trkpt><trkpt lat="43.5387317" lon="10.6375217"><ele>53.0</ele><time>2026-04-18T07:15:32.746Z</time></trkpt><trkpt lat="43.5388233" lon="10.6376333"><ele>52.0</ele><time>2026-04-18T07:15:33.742Z</time></trkpt><trkpt lat="43.5389333" lon="10.6377567"><ele>51.0</ele><time>2026-04-18T07:15:34.742Z</time></trkpt><trkpt lat="43.5390417" lon="10.637895"><ele>51.0</ele><time>2026-04-18T07:15:35.743Z</time></trkpt><trkpt lat="43.53915" lon="10.6380183"><ele>51.0</ele><time>2026-04-18T07:15:36.744Z</time></trkpt><trkpt lat="43.53925" lon="10.6381433"><ele>51.0</ele><time>2026-04-18T07:15:37.743Z</time></trkpt><trkpt lat="43.53935" lon="10.6382517"><ele>51.0</ele><time>2026-04-18T07:15:38.742Z</time></trkpt><trkpt lat="43.5394517" lon="10.6383617"><ele>51.0</ele><time>2026-04-18T07:15:39.743Z</time></trkpt><trkpt lat="43.5395533" lon="10.638455"><ele>51.0</ele><time>2026-04-18T07:15:40.742Z</time></trkpt><trkpt lat="43.5396467" lon="10.6385583"><ele>51.0</ele><time>2026-04-18T07:15:41.746Z</time></trkpt><trkpt lat="43.5397483" lon="10.6386667"><ele>51.0</ele><time>2026-04-18T07:15:42.748Z</time></trkpt><trkpt lat="43.5398383" lon="10.63882"><ele>51.66666666666667</ele><time>2026-04-18T07:15:43.747Z</time></trkpt><trkpt lat="43.5399483" lon="10.6389883"><ele>52.333333333333336</ele><time>2026-04-18T07:15:44.747Z</time></trkpt><trkpt lat="43.54008" lon="10.6391683"><ele>53.0</ele><time>2026-04-18T07:15:45.75Z</time></trkpt><trkpt lat="43.5402183" lon="10.6393383"><ele>53.333333333333336</ele><time>2026-04-18T07:15:46.746Z</time></trkpt><trkpt lat="43.5403467" lon="10.6394967"><ele>53.66666666666667</ele><time>2026-04-18T07:15:47.75Z</time></trkpt><trkpt lat="43.5404633" lon="10.6396483"><ele>54.0</ele><time>2026-04-18T07:15:48.743Z</time></trkpt><trkpt lat="43.5405617" lon="10.6397783"><ele>54.400000000000006</ele><time>2026-04-18T07:15:49.743Z</time></trkpt><trkpt lat="43.540635" lon="10.63988"><ele>54.800000000000004</ele><time>2026-04-18T07:15:50.745Z</time></trkpt><trkpt lat="43.54069" lon="10.639955"><ele>55.199999999999996</ele><time>2026-04-18T07:15:51.743Z</time></trkpt><trkpt lat="43.5407567" lon="10.64007"><ele>55.599999999999994</ele><time>2026-04-18T07:15:53.751Z</time></trkpt><trkpt lat="43.54078" lon="10.6401533"><ele>56.0</ele><time>2026-04-18T07:15:55.743Z</time></trkpt><trkpt lat="43.5407483" lon="10.64028"><ele>56.199999999999996</ele><time>2026-04-18T07:16:15.743Z</time></trkpt><trkpt lat="43.5406967" lon="10.64037"><ele>56.39999999999999</ele><time>2026-04-18T07:16:16.741Z</time></trkpt><trkpt lat="43.5406433" lon="10.64047"><ele>56.6</ele><time>2026-04-18T07:16:17.748Z</time></trkpt><trkpt lat="43.5405867" lon="10.6405833"><ele>56.8</ele><time>2026-04-18T07:16:18.743Z</time></trkpt><trkpt lat="43.5405167" lon="10.6407183"><ele>57.0</ele><time>2026-04-18T07:16:19.744Z</time></trkpt><trkpt lat="43.540435" lon="10.6408733"><ele>56.66666666666667</ele><time>2026-04-18T07:16:20.745Z</time></trkpt><trkpt lat="43.540345" lon="10.6410433"><ele>56.333333333333336</ele><time>2026-04-18T07:16:21.745Z</time></trkpt><trkpt lat="43.5402467" lon="10.6412183"><ele>56.0</ele><time>2026-04-18T07:16:22.743Z</time></trkpt><trkpt lat="43.5401467" lon="10.6414033"><ele>56.66666666666667</ele><time>2026-04-18T07:16:23.743Z</time></trkpt><trkpt lat="43.5400417" lon="10.6415767"><ele>57.33333333333333</ele><time>2026-04-18T07:16:24.745Z</time></trkpt><trkpt lat="43.53993" lon="10.641735"><ele>58.0</ele><time>2026-04-18T07:16:25.745Z</time></trkpt><trkpt lat="43.539815" lon="10.6419017"><ele>58.0</ele><time>2026-04-18T07:16:26.749Z</time></trkpt><trkpt lat="43.5396867" lon="10.64208"><ele>58.0</ele><time>2026-04-18T07:16:27.746Z</time></trkpt><trkpt lat="43.5395417" lon="10.6422617"><ele>58.0</ele><time>2026-04-18T07:16:28.741Z</time></trkpt><trkpt lat="43.539405" lon="10.6424483"><ele>58.0</ele><time>2026-04-18T07:16:29.744Z</time></trkpt><trkpt lat="43.5392717" lon="10.6426283"><ele>58.0</ele><time>2026-04-18T07:16:30.744Z</time></trkpt><trkpt lat="43.5391383" lon="10.6428133"><ele>58.0</ele><time>2026-04-18T07:16:31.748Z</time></trkpt><trkpt lat="43.5390067" lon="10.64301"><ele>60.33333333333333</ele><time>2026-04-18T07:16:32.747Z</time></trkpt><trkpt lat="43.53887" lon="10.64321"><ele>62.66666666666667</ele><time>2026-04-18T07:16:33.747Z</time></trkpt><trkpt lat="43.5387433" lon="10.6434317"><ele>65.0</ele><time>2026-04-18T07:16:34.743Z</time></trkpt><trkpt lat="43.53862" lon="10.6436733"><ele>65.0</ele><time>2026-04-18T07:16:35.745Z</time></trkpt><trkpt lat="43.5384983" lon="10.643915"><ele>65.0</ele><time>2026-04-18T07:16:36.745Z</time></trkpt><trkpt lat="43.5383883" lon="10.644145"><ele>65.0</ele><time>2026-04-18T07:16:37.746Z</time></trkpt><trkpt lat="43.538285" lon="10.64437"><ele>67.33333333333334</ele><time>2026-04-18T07:16:38.745Z</time></trkpt><trkpt lat="43.538185" lon="10.6445817"><ele>69.66666666666667</ele><time>2026-04-18T07:16:39.745Z</time></trkpt><trkpt lat="43.538085" lon="10.64479"><ele>72.0</ele><time>2026-04-18T07:16:40.746Z</time></trkpt><trkpt lat="43.5379933" lon="10.645"><ele>72.0</ele><time>2026-04-18T07:16:41.743Z</time></trkpt><trkpt lat="43.5379317" lon="10.645225"><ele>72.0</ele><time>2026-04-18T07:16:42.743Z</time></trkpt><trkpt lat="43.5378833" lon="10.6454367"><ele>72.0</ele><time>2026-04-18T07:16:43.744Z</time></trkpt><trkpt lat="43.53784" lon="10.6456467"><ele>70.33333333333333</ele><time>2026-04-18T07:16:44.74Z</time></trkpt><trkpt lat="43.53778" lon="10.645845"><ele>68.66666666666666</ele><time>2026-04-18T07:16:45.743Z</time></trkpt><trkpt lat="43.537695" lon="10.6460267"><ele>67.0</ele><time>2026-04-18T07:16:46.741Z</time></trkpt><trkpt lat="43.5375833" lon="10.64618"><ele>67.0</ele><time>2026-04-18T07:16:47.741Z</time></trkpt><trkpt lat="43.537455" lon="10.6463067"><ele>67.0</ele><time>2026-04-18T07:16:48.742Z</time></trkpt><trkpt lat="43.537315" lon="10.6463917"><ele>67.0</ele><time>2026-04-18T07:16:49.749Z</time></trkpt><trkpt lat="43.53717" lon="10.6464433"><ele>66.66666666666666</ele><time>2026-04-18T07:16:50.742Z</time></trkpt><trkpt lat="43.5370183" lon="10.6464767"><ele>66.33333333333333</ele><time>2026-04-18T07:16:51.743Z</time></trkpt><trkpt lat="43.5368633" lon="10.646465"><ele>66.0</ele><time>2026-04-18T07:16:52.742Z</time></trkpt><trkpt lat="43.5367" lon="10.6464183"><ele>66.0</ele><time>2026-04-18T07:16:53.745Z</time></trkpt><trkpt lat="43.5365317" lon="10.646355"><ele>66.0</ele><time>2026-04-18T07:16:54.749Z</time></trkpt><trkpt lat="43.5363683" lon="10.646285"><ele>66.0</ele><time>2026-04-18T07:16:55.747Z</time></trkpt><trkpt lat="43.53621" lon="10.646235"><ele>66.33333333333333</ele><time>2026-04-18T07:16:56.744Z</time></trkpt><trkpt lat="43.5360533" lon="10.6462233"><ele>66.66666666666666</ele><time>2026-04-18T07:16:57.746Z</time></trkpt><trkpt lat="43.5358967" lon="10.6462433"><ele>67.0</ele><time>2026-04-18T07:16:58.746Z</time></trkpt><trkpt lat="43.5357333" lon="10.6462933"><ele>67.0</ele><time>2026-04-18T07:16:59.74Z</time></trkpt><trkpt lat="43.53557" lon="10.64635"><ele>67.0</ele><time>2026-04-18T07:17:00.743Z</time></trkpt><trkpt lat="43.5354033" lon="10.6464117"><ele>67.0</ele><time>2026-04-18T07:17:01.742Z</time></trkpt><trkpt lat="43.535235" lon="10.6464733"><ele>66.33333333333333</ele><time>2026-04-18T07:17:02.745Z</time></trkpt><trkpt lat="43.5350633" lon="10.6465317"><ele>65.66666666666667</ele><time>2026-04-18T07:17:03.744Z</time></trkpt><trkpt lat="43.53489" lon="10.646595"><ele>65.0</ele><time>2026-04-18T07:17:04.743Z</time></trkpt><trkpt lat="43.534715" lon="10.6466617"><ele>64.0</ele><time>2026-04-18T07:17:05.743Z</time></trkpt><trkpt lat="43.5345383" lon="10.64672"><ele>63.0</ele><time>2026-04-18T07:17:06.748Z</time></trkpt><trkpt lat="43.5343583" lon="10.646785"><ele>62.0</ele><time>2026-04-18T07:17:07.747Z</time></trkpt><trkpt lat="43.534175" lon="10.6468433"><ele>62.0</ele><time>2026-04-18T07:17:08.743Z</time></trkpt><trkpt lat="43.5339867" lon="10.646895"><ele>62.0</ele><time>2026-04-18T07:17:09.744Z</time></trkpt><trkpt lat="43.5337967" lon="10.646955"><ele>62.0</ele><time>2026-04-18T07:17:10.742Z</time></trkpt><trkpt lat="43.5336" lon="10.6470117"><ele>63.0</ele><time>2026-04-18T07:17:11.741Z</time></trkpt><trkpt lat="43.533395" lon="10.6470667"><ele>64.0</ele><time>2026-04-18T07:17:12.748Z</time></trkpt><trkpt lat="43.533185" lon="10.6471017"><ele>65.0</ele><time>2026-04-18T07:17:13.744Z</time></trkpt><trkpt lat="43.5329833" lon="10.6471183"><ele>65.33333333333334</ele><time>2026-04-18T07:17:14.744Z</time></trkpt><trkpt lat="43.5327917" lon="10.6471283"><ele>65.66666666666667</ele><time>2026-04-18T07:17:15.743Z</time></trkpt><trkpt lat="43.5326083" lon="10.647135"><ele>66.0</ele><time>2026-04-18T07:17:16.744Z</time></trkpt><trkpt lat="43.5324283" lon="10.64716"><ele>66.0</ele><time>2026-04-18T07:17:17.743Z</time></trkpt><trkpt lat="43.5322467" lon="10.6472"><ele>66.0</ele><time>2026-04-18T07:17:18.747Z</time></trkpt><trkpt lat="43.5320667" lon="10.64727"><ele>66.0</ele><time>2026-04-18T07:17:19.742Z</time></trkpt><trkpt lat="43.5318983" lon="10.6473583"><ele>64.66666666666667</ele><time>2026-04-18T07:17:20.746Z</time></trkpt><trkpt lat="43.5317517" lon="10.6474567"><ele>63.333333333333336</ele><time>2026-04-18T07:17:21.742Z</time></trkpt><trkpt lat="43.5316217" lon="10.6475783"><ele>62.0</ele><time>2026-04-18T07:17:22.745Z</time></trkpt><trkpt lat="43.5315133" lon="10.6477467"><ele>62.333333333333336</ele><time>2026-04-18T07:17:23.743Z</time></trkpt><trkpt lat="43.5314117" lon="10.6479433"><ele>62.66666666666667</ele><time>2026-04-18T07:17:24.743Z</time></trkpt><trkpt lat="43.5312917" lon="10.64813"><ele>63.0</ele><time>2026-04-18T07:17:25.746Z</time></trkpt><trkpt lat="43.5311367" lon="10.6482967"><ele>63.0</ele><time>2026-04-18T07:17:26.744Z</time></trkpt><trkpt lat="43.530975" lon="10.6484483"><ele>63.0</ele><time>2026-04-18T07:17:27.742Z</time></trkpt><trkpt lat="43.5308217" lon="10.6485917"><ele>63.0</ele><time>2026-04-18T07:17:28.746Z</time></trkpt><trkpt lat="43.5306783" lon="10.6487167"><ele>63.66666666666667</ele><time>2026-04-18T07:17:29.741Z</time></trkpt><trkpt lat="43.5305383" lon="10.6488217"><ele>64.33333333333334</ele><time>2026-04-18T07:17:30.739Z</time></trkpt><trkpt lat="43.5303933" lon="10.6488867"><ele>65.0</ele><time>2026-04-18T07:17:31.742Z</time></trkpt><trkpt lat="43.5302367" lon="10.6488967"><ele>64.66666666666667</ele><time>2026-04-18T07:17:32.745Z</time></trkpt><trkpt lat="43.5300683" lon="10.648855"><ele>64.33333333333333</ele><time>2026-04-18T07:17:33.744Z</time></trkpt><trkpt lat="43.5298967" lon="10.648755"><ele>64.0</ele><time>2026-04-18T07:17:34.741Z</time></trkpt><trkpt lat="43.5297283" lon="10.648625"><ele>64.0</ele><time>2026-04-18T07:17:35.742Z</time></trkpt><trkpt lat="43.5295667" lon="10.648505"><ele>64.0</ele><time>2026-04-18T07:17:36.749Z</time></trkpt><trkpt lat="43.5294167" lon="10.6483583"><ele>64.0</ele><time>2026-04-18T07:17:37.744Z</time></trkpt><trkpt lat="43.5292567" lon="10.6482067"><ele>63.0</ele><time>2026-04-18T07:17:38.748Z</time></trkpt><trkpt lat="43.5290933" lon="10.6480383"><ele>62.0</ele><time>2026-04-18T07:17:39.743Z</time></trkpt><trkpt lat="43.5289267" lon="10.6478767"><ele>61.0</ele><time>2026-04-18T07:17:40.742Z</time></trkpt><trkpt lat="43.5287617" lon="10.647735"><ele>62.666666666666664</ele><time>2026-04-18T07:17:41.745Z</time></trkpt><trkpt lat="43.5285933" lon="10.6476117"><ele>64.33333333333333</ele><time>2026-04-18T07:17:42.743Z</time></trkpt><trkpt lat="43.5284217" lon="10.6475033"><ele>66.0</ele><time>2026-04-18T07:17:43.744Z</time></trkpt><trkpt lat="43.528245" lon="10.6474117"><ele>66.0</ele><time>2026-04-18T07:17:44.745Z</time></trkpt><trkpt lat="43.528065" lon="10.64734"><ele>66.0</ele><time>2026-04-18T07:17:45.746Z</time></trkpt><trkpt lat="43.52788" lon="10.6473017"><ele>66.0</ele><time>2026-04-18T07:17:46.744Z</time></trkpt><trkpt lat="43.5276917" lon="10.6472883"><ele>67.0</ele><time>2026-04-18T07:17:47.747Z</time></trkpt><trkpt lat="43.5275" lon="10.64728"><ele>68.0</ele><time>2026-04-18T07:17:48.742Z</time></trkpt><trkpt lat="43.52731" lon="10.6472983"><ele>69.0</ele><time>2026-04-18T07:17:49.744Z</time></trkpt><trkpt lat="43.52713" lon="10.6473333"><ele>67.66666666666667</ele><time>2026-04-18T07:17:50.745Z</time></trkpt><trkpt lat="43.52696" lon="10.6473767"><ele>66.33333333333334</ele><time>2026-04-18T07:17:51.744Z</time></trkpt><trkpt lat="43.5268" lon="10.6474333"><ele>65.0</ele><time>2026-04-18T07:17:52.744Z</time></trkpt><trkpt lat="43.5266517" lon="10.6475067"><ele>65.0</ele><time>2026-04-18T07:17:53.744Z</time></trkpt><trkpt lat="43.5265183" lon="10.6475917"><ele>65.0</ele><time>2026-04-18T07:17:54.75Z</time></trkpt><trkpt lat="43.5264" lon="10.647685"><ele>65.0</ele><time>2026-04-18T07:17:55.742Z</time></trkpt><trkpt lat="43.5262917" lon="10.64777"><ele>65.0</ele><time>2026-04-18T07:17:56.744Z</time></trkpt><trkpt lat="43.526195" lon="10.647855"><ele>64.66666666666667</ele><time>2026-04-18T07:17:57.742Z</time></trkpt><trkpt lat="43.526115" lon="10.6479483"><ele>64.33333333333334</ele><time>2026-04-18T07:17:58.745Z</time></trkpt><trkpt lat="43.5260467" lon="10.648025"><ele>64.0</ele><time>2026-04-18T07:17:59.745Z</time></trkpt><trkpt lat="43.5259983" lon="10.6481033"><ele>63.66666666666667</ele><time>2026-04-18T07:18:00.742Z</time></trkpt><trkpt lat="43.525975" lon="10.6481967"><ele>63.333333333333336</ele><time>2026-04-18T07:18:01.742Z</time></trkpt><trkpt lat="43.525975" lon="10.6482967"><ele>63.0</ele><time>2026-04-18T07:18:02.744Z</time></trkpt><trkpt lat="43.5259917" lon="10.6484067"><ele>63.0</ele><time>2026-04-18T07:18:03.74Z</time></trkpt><trkpt lat="43.5260267" lon="10.64854"><ele>63.0</ele><time>2026-04-18T07:18:04.741Z</time></trkpt><trkpt lat="43.5260617" lon="10.6486833"><ele>63.0</ele><time>2026-04-18T07:18:05.741Z</time></trkpt><trkpt lat="43.526075" lon="10.6488317"><ele>63.0</ele><time>2026-04-18T07:18:06.742Z</time></trkpt><trkpt lat="43.5260867" lon="10.6489517"><ele>63.0</ele><time>2026-04-18T07:18:07.742Z</time></trkpt><trkpt lat="43.5260917" lon="10.6490633"><ele>64.6</ele><time>2026-04-18T07:18:08.744Z</time></trkpt><trkpt lat="43.5260883" lon="10.6491583"><ele>66.19999999999999</ele><time>2026-04-18T07:18:09.745Z</time></trkpt><trkpt lat="43.5260333" lon="10.6492717"><ele>67.8</ele><time>2026-04-18T07:18:11.742Z</time></trkpt><trkpt lat="43.52591" lon="10.649225"><ele>69.39999999999999</ele><time>2026-04-18T07:18:13.741Z</time></trkpt><trkpt lat="43.52583" lon="10.649145"><ele>71.0</ele><time>2026-04-18T07:18:14.743Z</time></trkpt><trkpt lat="43.525735" lon="10.6490467"><ele>71.0</ele><time>2026-04-18T07:18:15.742Z</time></trkpt><trkpt lat="43.52562" lon="10.6489483"><ele>71.0</ele><time>2026-04-18T07:18:16.741Z</time></trkpt><trkpt lat="43.525495" lon="10.6488483"><ele>71.0</ele><time>2026-04-18T07:18:17.743Z</time></trkpt><trkpt lat="43.5253917" lon="10.6487333"><ele>71.0</ele><time>2026-04-18T07:18:18.74Z</time></trkpt><trkpt lat="43.52531" lon="10.6486367"><ele>69.83333333333334</ele><time>2026-04-18T07:18:19.744Z</time></trkpt><trkpt lat="43.5252467" lon="10.648545"><ele>68.66666666666667</ele><time>2026-04-18T07:18:20.747Z</time></trkpt><trkpt lat="43.5251783" lon="10.6484917"><ele>67.5</ele><time>2026-04-18T07:18:21.741Z</time></trkpt><trkpt lat="43.5251" lon="10.6484683"><ele>66.33333333333333</ele><time>2026-04-18T07:18:22.745Z</time></trkpt><trkpt lat="43.52503" lon="10.6484667"><ele>65.16666666666666</ele><time>2026-04-18T07:18:23.741Z</time></trkpt><trkpt lat="43.524965" lon="10.648515"><ele>64.0</ele><time>2026-04-18T07:18:24.746Z</time></trkpt><trkpt lat="43.5249167" lon="10.6485933"><ele>65.2</ele><time>2026-04-18T07:18:25.745Z</time></trkpt><trkpt lat="43.5248967" lon="10.6487083"><ele>66.4</ele><time>2026-04-18T07:18:26.744Z</time></trkpt><trkpt lat="43.5249017" lon="10.6488433"><ele>67.6</ele><time>2026-04-18T07:18:27.742Z</time></trkpt><trkpt lat="43.52493" lon="10.6489983"><ele>68.8</ele><time>2026-04-18T07:18:28.743Z</time></trkpt><trkpt lat="43.524995" lon="10.6491633"><ele>70.0</ele><time>2026-04-18T07:18:29.746Z</time></trkpt><trkpt lat="43.5250733" lon="10.64936"><ele>70.33333333333333</ele><time>2026-04-18T07:18:30.742Z</time></trkpt><trkpt lat="43.525195" lon="10.6495"><ele>70.66666666666667</ele><time>2026-04-18T07:18:31.751Z</time></trkpt><trkpt lat="43.5252517" lon="10.6497433"><ele>71.0</ele><time>2026-04-18T07:18:32.744Z</time></trkpt><trkpt lat="43.52532" lon="10.64992"><ele>72.2</ele><time>2026-04-18T07:18:33.74Z</time></trkpt><trkpt lat="43.5254" lon="10.6500383"><ele>73.39999999999999</ele><time>2026-04-18T07:18:34.742Z</time></trkpt><trkpt lat="43.525475" lon="10.65014"><ele>74.6</ele><time>2026-04-18T07:18:35.743Z</time></trkpt><trkpt lat="43.5255633" lon="10.6502183"><ele>75.8</ele><time>2026-04-18T07:18:36.741Z</time></trkpt><trkpt lat="43.5256517" lon="10.65026"><ele>77.0</ele><time>2026-04-18T07:18:37.743Z</time></trkpt><trkpt lat="43.5257483" lon="10.6502933"><ele>77.8</ele><time>2026-04-18T07:18:38.744Z</time></trkpt><trkpt lat="43.5258483" lon="10.6503517"><ele>78.6</ele><time>2026-04-18T07:18:39.744Z</time></trkpt><trkpt lat="43.5259433" lon="10.6504283"><ele>79.39999999999999</ele><time>2026-04-18T07:18:40.741Z</time></trkpt><trkpt lat="43.52602" lon="10.65051"><ele>80.2</ele><time>2026-04-18T07:18:41.745Z</time></trkpt><trkpt lat="43.5260783" lon="10.6506167"><ele>81.0</ele><time>2026-04-18T07:18:42.742Z</time></trkpt><trkpt lat="43.5261233" lon="10.650725"><ele>81.0</ele><time>2026-04-18T07:18:43.749Z</time></trkpt><trkpt lat="43.5261667" lon="10.650845"><ele>81.0</ele><time>2026-04-18T07:18:44.744Z</time></trkpt><trkpt lat="43.5262067" lon="10.6509767"><ele>81.0</ele><time>2026-04-18T07:18:45.744Z</time></trkpt><trkpt lat="43.526275" lon="10.6510833"><ele>81.0</ele><time>2026-04-18T07:18:46.741Z</time></trkpt><trkpt lat="43.5263667" lon="10.65118"><ele>81.0</ele><time>2026-04-18T07:18:47.742Z</time></trkpt><trkpt lat="43.52645" lon="10.65127"><ele>82.75</ele><time>2026-04-18T07:18:48.742Z</time></trkpt><trkpt lat="43.5265217" lon="10.651395"><ele>84.5</ele><time>2026-04-18T07:18:49.741Z</time></trkpt><trkpt lat="43.5265867" lon="10.6515317"><ele>86.25</ele><time>2026-04-18T07:18:50.743Z</time></trkpt><trkpt lat="43.5266383" lon="10.651675"><ele>88.0</ele><time>2026-04-18T07:18:51.744Z</time></trkpt><trkpt lat="43.526675" lon="10.6518283"><ele>88.2</ele><time>2026-04-18T07:18:52.741Z</time></trkpt><trkpt lat="43.5266933" lon="10.65199"><ele>88.4</ele><time>2026-04-18T07:18:53.741Z</time></trkpt><trkpt lat="43.5267017" lon="10.652145"><ele>88.60000000000001</ele><time>2026-04-18T07:18:54.743Z</time></trkpt><trkpt lat="43.52672" lon="10.6522917"><ele>88.80000000000001</ele><time>2026-04-18T07:18:55.744Z</time></trkpt><trkpt lat="43.5267483" lon="10.65243"><ele>89.0</ele><time>2026-04-18T07:18:56.743Z</time></trkpt><trkpt lat="43.526785" lon="10.6525683"><ele>89.0</ele><time>2026-04-18T07:18:57.744Z</time></trkpt><trkpt lat="43.5268467" lon="10.6526983"><ele>89.0</ele><time>2026-04-18T07:18:58.742Z</time></trkpt><trkpt lat="43.526925" lon="10.65281"><ele>89.0</ele><time>2026-04-18T07:18:59.742Z</time></trkpt><trkpt lat="43.5270133" lon="10.652925"><ele>89.0</ele><time>2026-04-18T07:19:00.746Z</time></trkpt><trkpt lat="43.5271133" lon="10.653005"><ele>90.4</ele><time>2026-04-18T07:19:01.742Z</time></trkpt><trkpt lat="43.527205" lon="10.65308"><ele>91.80000000000001</ele><time>2026-04-18T07:19:02.749Z</time></trkpt><trkpt lat="43.5272933" lon="10.6531433"><ele>93.19999999999999</ele><time>2026-04-18T07:19:03.742Z</time></trkpt><trkpt lat="43.5273867" lon="10.65318"><ele>94.6</ele><time>2026-04-18T07:19:04.741Z</time></trkpt><trkpt lat="43.5274933" lon="10.6531833"><ele>96.0</ele><time>2026-04-18T07:19:05.743Z</time></trkpt><trkpt lat="43.527615" lon="10.65316"><ele>96.0</ele><time>2026-04-18T07:19:06.742Z</time></trkpt><trkpt lat="43.52774" lon="10.6531433"><ele>96.0</ele><time>2026-04-18T07:19:07.745Z</time></trkpt><trkpt lat="43.52786" lon="10.6531333"><ele>96.0</ele><time>2026-04-18T07:19:08.743Z</time></trkpt><trkpt lat="43.5279733" lon="10.6531283"><ele>96.0</ele><time>2026-04-18T07:19:09.745Z</time></trkpt><trkpt lat="43.5280833" lon="10.6531433"><ele>97.5</ele><time>2026-04-18T07:19:10.741Z</time></trkpt><trkpt lat="43.5281883" lon="10.6531917"><ele>99.0</ele><time>2026-04-18T07:19:11.745Z</time></trkpt><trkpt lat="43.5283267" lon="10.6532783"><ele>100.5</ele><time>2026-04-18T07:19:12.742Z</time></trkpt><trkpt lat="43.5284717" lon="10.653385"><ele>102.0</ele><time>2026-04-18T07:19:13.743Z</time></trkpt><trkpt lat="43.5286217" lon="10.6534983"><ele>100.66666666666666</ele><time>2026-04-18T07:19:14.745Z</time></trkpt><trkpt lat="43.52878" lon="10.6535867"><ele>99.33333333333333</ele><time>2026-04-18T07:19:15.746Z</time></trkpt><trkpt lat="43.5289083" lon="10.65371"><ele>98.0</ele><time>2026-04-18T07:19:16.744Z</time></trkpt><trkpt lat="43.5290183" lon="10.653845"><ele>101.33333333333333</ele><time>2026-04-18T07:19:17.742Z</time></trkpt><trkpt lat="43.5290967" lon="10.65406"><ele>104.66666666666666</ele><time>2026-04-18T07:19:18.744Z</time></trkpt><trkpt lat="43.5291867" lon="10.6542267"><ele>108.0</ele><time>2026-04-18T07:19:19.74Z</time></trkpt><trkpt lat="43.5292933" lon="10.654355"><ele>108.75</ele><time>2026-04-18T07:19:20.744Z</time></trkpt><trkpt lat="43.5293617" lon="10.6545333"><ele>109.5</ele><time>2026-04-18T07:19:21.745Z</time></trkpt><trkpt lat="43.52943" lon="10.6546667"><ele>110.25</ele><time>2026-04-18T07:19:22.744Z</time></trkpt><trkpt lat="43.529485" lon="10.6547983"><ele>111.0</ele><time>2026-04-18T07:19:23.743Z</time></trkpt><trkpt lat="43.5295417" lon="10.6549133"><ele>110.25</ele><time>2026-04-18T07:19:24.746Z</time></trkpt><trkpt lat="43.5295833" lon="10.6550483"><ele>109.5</ele><time>2026-04-18T07:19:25.743Z</time></trkpt><trkpt lat="43.5295933" lon="10.6552133"><ele>108.75</ele><time>2026-04-18T07:19:26.742Z</time></trkpt><trkpt lat="43.5295917" lon="10.6554033"><ele>108.0</ele><time>2026-04-18T07:19:27.742Z</time></trkpt><trkpt lat="43.5296" lon="10.655595"><ele>110.33333333333334</ele><time>2026-04-18T07:19:28.745Z</time></trkpt><trkpt lat="43.5296583" lon="10.6557867"><ele>112.66666666666667</ele><time>2026-04-18T07:19:29.742Z</time></trkpt><trkpt lat="43.5297367" lon="10.65598"><ele>115.0</ele><time>2026-04-18T07:19:30.743Z</time></trkpt><trkpt lat="43.5298067" lon="10.6561483"><ele>117.0</ele><time>2026-04-18T07:19:31.748Z</time></trkpt><trkpt lat="43.529865" lon="10.656295"><ele>119.0</ele><time>2026-04-18T07:19:32.747Z</time></trkpt><trkpt lat="43.5299067" lon="10.6564467"><ele>121.0</ele><time>2026-04-18T07:19:33.747Z</time></trkpt><trkpt lat="43.5299333" lon="10.65661"><ele>123.0</ele><time>2026-04-18T07:19:34.741Z</time></trkpt><trkpt lat="43.52994" lon="10.6567733"><ele>123.0</ele><time>2026-04-18T07:19:35.745Z</time></trkpt><trkpt lat="43.5299533" lon="10.656915"><ele>123.00000000000001</ele><time>2026-04-18T07:19:36.744Z</time></trkpt><trkpt lat="43.52998" lon="10.6570333"><ele>123.00000000000001</ele><time>2026-04-18T07:19:37.748Z</time></trkpt><trkpt lat="43.530035" lon="10.6571267"><ele>123.0</ele><time>2026-04-18T07:19:38.747Z</time></trkpt><trkpt lat="43.5300833" lon="10.657215"><ele>123.0</ele><time>2026-04-18T07:19:39.747Z</time></trkpt><trkpt lat="43.5301633" lon="10.65727"><ele>122.5</ele><time>2026-04-18T07:19:40.746Z</time></trkpt><trkpt lat="43.5302917" lon="10.6573"><ele>122.0</ele><time>2026-04-18T07:19:41.744Z</time></trkpt><trkpt lat="43.5304133" lon="10.6573733"><ele>121.5</ele><time>2026-04-18T07:19:42.742Z</time></trkpt><trkpt lat="43.53054" lon="10.65743"><ele>121.0</ele><time>2026-04-18T07:19:43.744Z</time></trkpt><trkpt lat="43.5306467" lon="10.6574867"><ele>124.5</ele><time>2026-04-18T07:19:44.745Z</time></trkpt><trkpt lat="43.53075" lon="10.6575133"><ele>128.0</ele><time>2026-04-18T07:19:45.741Z</time></trkpt><trkpt lat="43.5308567" lon="10.6575467"><ele>131.5</ele><time>2026-04-18T07:19:46.745Z</time></trkpt><trkpt lat="43.5309783" lon="10.65754"><ele>135.0</ele><time>2026-04-18T07:19:47.744Z</time></trkpt><trkpt lat="43.5311067" lon="10.657465"><ele>137.2</ele><time>2026-04-18T07:19:48.746Z</time></trkpt><trkpt lat="43.531235" lon="10.6574083"><ele>139.4</ele><time>2026-04-18T07:19:49.744Z</time></trkpt><trkpt lat="43.531335" lon="10.6573383"><ele>141.6</ele><time>2026-04-18T07:19:50.75Z</time></trkpt><trkpt lat="43.5314267" lon="10.6573167"><ele>143.8</ele><time>2026-04-18T07:19:51.744Z</time></trkpt><trkpt lat="43.5315067" lon="10.6573083"><ele>146.0</ele><time>2026-04-18T07:19:52.744Z</time></trkpt><trkpt lat="43.5315933" lon="10.657305"><ele>146.0</ele><time>2026-04-18T07:19:53.745Z</time></trkpt><trkpt lat="43.531715" lon="10.657405"><ele>146.0</ele><time>2026-04-18T07:19:54.741Z</time></trkpt><trkpt lat="43.531855" lon="10.6575317"><ele>146.0</ele><time>2026-04-18T07:19:55.743Z</time></trkpt><trkpt lat="43.5319867" lon="10.6576183"><ele>144.6</ele><time>2026-04-18T07:19:56.74Z</time></trkpt><trkpt lat="43.5321083" lon="10.6576733"><ele>143.2</ele><time>2026-04-18T07:19:57.743Z</time></trkpt><trkpt lat="43.532215" lon="10.6577117"><ele>141.8</ele><time>2026-04-18T07:19:58.743Z</time></trkpt><trkpt lat="43.53231" lon="10.657745"><ele>140.4</ele><time>2026-04-18T07:19:59.743Z</time></trkpt><trkpt lat="43.532385" lon="10.6577783"><ele>139.0</ele><time>2026-04-18T07:20:00.745Z</time></trkpt><trkpt lat="43.53245" lon="10.6578183"><ele>141.33333333333334</ele><time>2026-04-18T07:20:01.746Z</time></trkpt><trkpt lat="43.5324967" lon="10.6578833"><ele>143.66666666666669</ele><time>2026-04-18T07:20:02.743Z</time></trkpt><trkpt lat="43.532515" lon="10.6579717"><ele>146.0</ele><time>2026-04-18T07:20:03.746Z</time></trkpt><trkpt lat="43.5324983" lon="10.6580617"><ele>148.33333333333334</ele><time>2026-04-18T07:20:04.743Z</time></trkpt><trkpt lat="43.5324383" lon="10.6581383"><ele>150.66666666666666</ele><time>2026-04-18T07:20:05.742Z</time></trkpt><trkpt lat="43.5323567" lon="10.65818"><ele>153.0</ele><time>2026-04-18T07:20:06.746Z</time></trkpt><trkpt lat="43.5322667" lon="10.6581717"><ele>153.0</ele><time>2026-04-18T07:20:07.745Z</time></trkpt><trkpt lat="43.53218" lon="10.6581317"><ele>153.0</ele><time>2026-04-18T07:20:08.743Z</time></trkpt><trkpt lat="43.5320917" lon="10.6580733"><ele>153.0</ele><time>2026-04-18T07:20:09.742Z</time></trkpt><trkpt lat="43.5320083" lon="10.65801"><ele>153.0</ele><time>2026-04-18T07:20:10.742Z</time></trkpt><trkpt lat="43.5319217" lon="10.6579583"><ele>153.0</ele><time>2026-04-18T07:20:11.741Z</time></trkpt><trkpt lat="43.5318367" lon="10.657925"><ele>154.20000000000002</ele><time>2026-04-18T07:20:12.742Z</time></trkpt><trkpt lat="43.5317617" lon="10.65791"><ele>155.4</ele><time>2026-04-18T07:20:13.743Z</time></trkpt><trkpt lat="43.53169" lon="10.65792"><ele>156.60000000000002</ele><time>2026-04-18T07:20:14.745Z</time></trkpt><trkpt lat="43.5316067" lon="10.6580317"><ele>157.8</ele><time>2026-04-18T07:20:16.742Z</time></trkpt><trkpt lat="43.5316183" lon="10.658205"><ele>159.0</ele><time>2026-04-18T07:20:18.746Z</time></trkpt><trkpt lat="43.5316517" lon="10.6582883"><ele>159.0</ele><time>2026-04-18T07:20:19.748Z</time></trkpt><trkpt lat="43.531735" lon="10.658365"><ele>159.0</ele><time>2026-04-18T07:20:20.745Z</time></trkpt><trkpt lat="43.5318633" lon="10.65847"><ele>159.0</ele><time>2026-04-18T07:20:21.746Z</time></trkpt><trkpt lat="43.5319733" lon="10.6586383"><ele>159.0</ele><time>2026-04-18T07:20:22.741Z</time></trkpt><trkpt lat="43.53206" lon="10.6588267"><ele>159.66666666666666</ele><time>2026-04-18T07:20:23.745Z</time></trkpt><trkpt lat="43.5321483" lon="10.6590233"><ele>160.33333333333331</ele><time>2026-04-18T07:20:24.742Z</time></trkpt><trkpt lat="43.5322533" lon="10.659225"><ele>161.0</ele><time>2026-04-18T07:20:25.745Z</time></trkpt><trkpt lat="43.5323833" lon="10.6594317"><ele>165.0</ele><time>2026-04-18T07:20:26.743Z</time></trkpt><trkpt lat="43.532515" lon="10.6596467"><ele>169.0</ele><time>2026-04-18T07:20:27.747Z</time></trkpt><trkpt lat="43.532645" lon="10.6598483"><ele>173.0</ele><time>2026-04-18T07:20:28.743Z</time></trkpt><trkpt lat="43.532755" lon="10.6600367"><ele>173.0</ele><time>2026-04-18T07:20:29.747Z</time></trkpt><trkpt lat="43.5328717" lon="10.6601967"><ele>173.0</ele><time>2026-04-18T07:20:30.749Z</time></trkpt><trkpt lat="43.5329717" lon="10.6603617"><ele>173.0</ele><time>2026-04-18T07:20:31.749Z</time></trkpt><trkpt lat="43.5330733" lon="10.6605167"><ele>172.0</ele><time>2026-04-18T07:20:32.747Z</time></trkpt><trkpt lat="43.5331717" lon="10.6606617"><ele>171.0</ele><time>2026-04-18T07:20:33.744Z</time></trkpt><trkpt lat="43.5332717" lon="10.6607783"><ele>170.0</ele><time>2026-04-18T07:20:34.744Z</time></trkpt><trkpt lat="43.53337" lon="10.6608633"><ele>169.0</ele><time>2026-04-18T07:20:35.741Z</time></trkpt><trkpt lat="43.5334517" lon="10.6609383"><ele>169.0</ele><time>2026-04-18T07:20:36.744Z</time></trkpt><trkpt lat="43.5335117" lon="10.6609983"><ele>169.0</ele><time>2026-04-18T07:20:37.744Z</time></trkpt><trkpt lat="43.5335967" lon="10.6610617"><ele>169.0</ele><time>2026-04-18T07:20:39.748Z</time></trkpt><trkpt lat="43.5336883" lon="10.661105"><ele>169.0</ele><time>2026-04-18T07:20:41.747Z</time></trkpt><trkpt lat="43.5337717" lon="10.6611367"><ele>169.0</ele><time>2026-04-18T07:20:42.742Z</time></trkpt><trkpt lat="43.5338767" lon="10.6611567"><ele>168.0</ele><time>2026-04-18T07:20:43.744Z</time></trkpt><trkpt lat="43.5339783" lon="10.6611733"><ele>167.0</ele><time>2026-04-18T07:20:44.747Z</time></trkpt><trkpt lat="43.534065" lon="10.66119"><ele>166.0</ele><time>2026-04-18T07:20:45.744Z</time></trkpt><trkpt lat="43.5341317" lon="10.6612117"><ele>165.0</ele><time>2026-04-18T07:20:46.747Z</time></trkpt><trkpt lat="43.5342117" lon="10.661275"><ele>164.0</ele><time>2026-04-18T07:20:48.742Z</time></trkpt><trkpt lat="43.5342133" lon="10.6614"><ele>163.0</ele><time>2026-04-18T07:20:50.745Z</time></trkpt><trkpt lat="43.5341933" lon="10.6614867"><ele>163.0</ele><time>2026-04-18T07:20:51.746Z</time></trkpt><trkpt lat="43.5341483" lon="10.6616033"><ele>163.0</ele><time>2026-04-18T07:20:52.751Z</time></trkpt><trkpt lat="43.5340967" lon="10.6617417"><ele>163.0</ele><time>2026-04-18T07:20:53.745Z</time></trkpt><trkpt lat="43.534045" lon="10.661895"><ele>163.0</ele><time>2026-04-18T07:20:54.745Z</time></trkpt><trkpt lat="43.533995" lon="10.6620667"><ele>161.0</ele><time>2026-04-18T07:20:55.748Z</time></trkpt><trkpt lat="43.533935" lon="10.6622533"><ele>159.0</ele><time>2026-04-18T07:20:56.746Z</time></trkpt><trkpt lat="43.53387" lon="10.6624533"><ele>157.0</ele><time>2026-04-18T07:20:57.741Z</time></trkpt><trkpt lat="43.533795" lon="10.6626633"><ele>162.0</ele><time>2026-04-18T07:20:58.75Z</time></trkpt><trkpt lat="43.5337183" lon="10.6629033"><ele>167.0</ele><time>2026-04-18T07:20:59.749Z</time></trkpt><trkpt lat="43.5336567" lon="10.66316"><ele>172.0</ele><time>2026-04-18T07:21:00.744Z</time></trkpt><trkpt lat="43.5336017" lon="10.6633933"><ele>172.0</ele><time>2026-04-18T07:21:01.744Z</time></trkpt><trkpt lat="43.5335617" lon="10.6636117"><ele>172.0</ele><time>2026-04-18T07:21:02.744Z</time></trkpt><trkpt lat="43.5335317" lon="10.6638183"><ele>172.0</ele><time>2026-04-18T07:21:03.742Z</time></trkpt><trkpt lat="43.5335067" lon="10.6640083"><ele>170.6</ele><time>2026-04-18T07:21:04.744Z</time></trkpt><trkpt lat="43.53348" lon="10.66417"><ele>169.2</ele><time>2026-04-18T07:21:05.743Z</time></trkpt><trkpt lat="43.5334583" lon="10.6643117"><ele>167.8</ele><time>2026-04-18T07:21:06.741Z</time></trkpt><trkpt lat="43.53344" lon="10.66445"><ele>166.4</ele><time>2026-04-18T07:21:07.747Z</time></trkpt><trkpt lat="43.5333917" lon="10.6645783"><ele>165.0</ele><time>2026-04-18T07:21:08.747Z</time></trkpt><trkpt lat="43.533315" lon="10.6647067"><ele>162.5</ele><time>2026-04-18T07:21:09.745Z</time></trkpt><trkpt lat="43.5332133" lon="10.6648233"><ele>160.0</ele><time>2026-04-18T07:21:10.743Z</time></trkpt><trkpt lat="43.5331033" lon="10.6649233"><ele>157.5</ele><time>2026-04-18T07:21:11.746Z</time></trkpt><trkpt lat="43.5329867" lon="10.665005"><ele>155.0</ele><time>2026-04-18T07:21:12.743Z</time></trkpt><trkpt lat="43.5328617" lon="10.6650517"><ele>154.5</ele><time>2026-04-18T07:21:13.743Z</time></trkpt><trkpt lat="43.5327233" lon="10.6650433"><ele>154.0</ele><time>2026-04-18T07:21:14.746Z</time></trkpt><trkpt lat="43.532585" lon="10.6650017"><ele>153.5</ele><time>2026-04-18T07:21:15.746Z</time></trkpt><trkpt lat="43.53245" lon="10.66497"><ele>153.0</ele><time>2026-04-18T07:21:16.744Z</time></trkpt><trkpt lat="43.5323233" lon="10.6649767"><ele>153.0</ele><time>2026-04-18T07:21:17.742Z</time></trkpt><trkpt lat="43.5322067" lon="10.6650417"><ele>153.0</ele><time>2026-04-18T07:21:18.742Z</time></trkpt><trkpt lat="43.5321" lon="10.6651583"><ele>153.0</ele><time>2026-04-18T07:21:19.744Z</time></trkpt><trkpt lat="43.532" lon="10.6653217"><ele>153.0</ele><time>2026-04-18T07:21:20.748Z</time></trkpt><trkpt lat="43.5318983" lon="10.6655333"><ele>151.0</ele><time>2026-04-18T07:21:21.743Z</time></trkpt><trkpt lat="43.531795" lon="10.66577"><ele>149.0</ele><time>2026-04-18T07:21:22.744Z</time></trkpt><trkpt lat="43.53169" lon="10.6659967"><ele>147.0</ele><time>2026-04-18T07:21:23.751Z</time></trkpt><trkpt lat="43.53159" lon="10.6662117"><ele>147.0</ele><time>2026-04-18T07:21:24.744Z</time></trkpt><trkpt lat="43.53148" lon="10.6664067"><ele>147.0</ele><time>2026-04-18T07:21:25.743Z</time></trkpt><trkpt lat="43.531365" lon="10.66659"><ele>147.0</ele><time>2026-04-18T07:21:26.744Z</time></trkpt><trkpt lat="43.53126" lon="10.6667667"><ele>148.0</ele><time>2026-04-18T07:21:27.745Z</time></trkpt><trkpt lat="43.5311617" lon="10.66694"><ele>149.0</ele><time>2026-04-18T07:21:28.743Z</time></trkpt><trkpt lat="43.5310533" lon="10.66709"><ele>150.0</ele><time>2026-04-18T07:21:29.746Z</time></trkpt><trkpt lat="43.5309417" lon="10.6672517"><ele>153.0</ele><time>2026-04-18T07:21:30.742Z</time></trkpt><trkpt lat="43.5308333" lon="10.66744"><ele>156.0</ele><time>2026-04-18T07:21:31.743Z</time></trkpt><trkpt lat="43.5306967" lon="10.6676033"><ele>159.0</ele><time>2026-04-18T07:21:32.747Z</time></trkpt><trkpt lat="43.5305533" lon="10.66772"><ele>160.0</ele><time>2026-04-18T07:21:33.745Z</time></trkpt><trkpt lat="43.5304383" lon="10.6678217"><ele>161.0</ele><time>2026-04-18T07:21:34.743Z</time></trkpt><trkpt lat="43.5303417" lon="10.6679217"><ele>162.0</ele><time>2026-04-18T07:21:35.746Z</time></trkpt><trkpt lat="43.530255" lon="10.6680233"><ele>163.0</ele><time>2026-04-18T07:21:36.747Z</time></trkpt><trkpt lat="43.5301667" lon="10.6681733"><ele>163.0</ele><time>2026-04-18T07:21:37.744Z</time></trkpt><trkpt lat="43.530065" lon="10.6683483"><ele>163.0</ele><time>2026-04-18T07:21:38.744Z</time></trkpt><trkpt lat="43.529945" lon="10.6685167"><ele>163.0</ele><time>2026-04-18T07:21:39.742Z</time></trkpt><trkpt lat="43.5298367" lon="10.6687067"><ele>162.33333333333334</ele><time>2026-04-18T07:21:40.744Z</time></trkpt><trkpt lat="43.529725" lon="10.6688683"><ele>161.66666666666666</ele><time>2026-04-18T07:21:41.746Z</time></trkpt><trkpt lat="43.5296167" lon="10.669025"><ele>161.0</ele><time>2026-04-18T07:21:42.745Z</time></trkpt><trkpt lat="43.529505" lon="10.6691617"><ele>161.0</ele><time>2026-04-18T07:21:43.745Z</time></trkpt><trkpt lat="43.5293933" lon="10.66929"><ele>161.0</ele><time>2026-04-18T07:21:44.751Z</time></trkpt><trkpt lat="43.5292883" lon="10.6694167"><ele>161.0</ele><time>2026-04-18T07:21:45.746Z</time></trkpt><trkpt lat="43.5291867" lon="10.66953"><ele>161.0</ele><time>2026-04-18T07:21:46.746Z</time></trkpt><trkpt lat="43.5290767" lon="10.6696417"><ele>161.5</ele><time>2026-04-18T07:21:47.744Z</time></trkpt><trkpt lat="43.5289633" lon="10.6697433"><ele>162.0</ele><time>2026-04-18T07:21:48.743Z</time></trkpt><trkpt lat="43.5288533" lon="10.6698667"><ele>162.5</ele><time>2026-04-18T07:21:49.745Z</time></trkpt><trkpt lat="43.52874" lon="10.6699933"><ele>163.0</ele><time>2026-04-18T07:21:50.746Z</time></trkpt><trkpt lat="43.5286233" lon="10.6701267"><ele>162.33333333333334</ele><time>2026-04-18T07:21:51.743Z</time></trkpt><trkpt lat="43.5285" lon="10.6702667"><ele>161.66666666666666</ele><time>2026-04-18T07:21:52.741Z</time></trkpt><trkpt lat="43.5283833" lon="10.6704183"><ele>161.0</ele><time>2026-04-18T07:21:53.745Z</time></trkpt><trkpt lat="43.5282683" lon="10.6705767"><ele>161.0</ele><time>2026-04-18T07:21:54.743Z</time></trkpt><trkpt lat="43.5281483" lon="10.6707317"><ele>161.0</ele><time>2026-04-18T07:21:55.75Z</time></trkpt><trkpt lat="43.52803" lon="10.6708783"><ele>161.0</ele><time>2026-04-18T07:21:56.749Z</time></trkpt><trkpt lat="43.5279083" lon="10.671025"><ele>162.66666666666666</ele><time>2026-04-18T07:21:57.742Z</time></trkpt><trkpt lat="43.5277867" lon="10.6711783"><ele>164.33333333333334</ele><time>2026-04-18T07:21:58.741Z</time></trkpt><trkpt lat="43.52767" lon="10.6713367"><ele>166.0</ele><time>2026-04-18T07:21:59.743Z</time></trkpt><trkpt lat="43.5275617" lon="10.6715067"><ele>166.0</ele><time>2026-04-18T07:22:00.743Z</time></trkpt><trkpt lat="43.5274633" lon="10.6716917"><ele>166.0</ele><time>2026-04-18T07:22:01.744Z</time></trkpt><trkpt lat="43.5273817" lon="10.6718867"><ele>166.0</ele><time>2026-04-18T07:22:02.744Z</time></trkpt><trkpt lat="43.5273017" lon="10.6720733"><ele>167.25</ele><time>2026-04-18T07:22:03.743Z</time></trkpt><trkpt lat="43.5272117" lon="10.6722283"><ele>168.5</ele><time>2026-04-18T07:22:04.742Z</time></trkpt><trkpt lat="43.527115" lon="10.672355"><ele>169.75</ele><time>2026-04-18T07:22:05.744Z</time></trkpt><trkpt lat="43.5270033" lon="10.6724467"><ele>171.0</ele><time>2026-04-18T07:22:06.741Z</time></trkpt><trkpt lat="43.52688" lon="10.672495"><ele>171.0</ele><time>2026-04-18T07:22:07.741Z</time></trkpt><trkpt lat="43.526745" lon="10.6724933"><ele>171.0</ele><time>2026-04-18T07:22:08.747Z</time></trkpt><trkpt lat="43.5266167" lon="10.6724683"><ele>171.0</ele><time>2026-04-18T07:22:09.741Z</time></trkpt><trkpt lat="43.5264783" lon="10.6724683"><ele>171.0</ele><time>2026-04-18T07:22:10.744Z</time></trkpt><trkpt lat="43.526355" lon="10.6724933"><ele>171.0</ele><time>2026-04-18T07:22:11.746Z</time></trkpt><trkpt lat="43.526235" lon="10.6725533"><ele>171.0</ele><time>2026-04-18T07:22:12.743Z</time></trkpt><trkpt lat="43.5261233" lon="10.6726317"><ele>171.0</ele><time>2026-04-18T07:22:13.744Z</time></trkpt><trkpt lat="43.5260333" lon="10.6727333"><ele>171.0</ele><time>2026-04-18T07:22:14.744Z</time></trkpt><trkpt lat="43.52595" lon="10.67285"><ele>170.75</ele><time>2026-04-18T07:22:15.744Z</time></trkpt><trkpt lat="43.5258867" lon="10.6729983"><ele>170.5</ele><time>2026-04-18T07:22:16.743Z</time></trkpt><trkpt lat="43.5258483" lon="10.67318"><ele>170.25</ele><time>2026-04-18T07:22:17.742Z</time></trkpt><trkpt lat="43.5258383" lon="10.6733767"><ele>170.0</ele><time>2026-04-18T07:22:18.741Z</time></trkpt><trkpt lat="43.52582" lon="10.6735783"><ele>172.0</ele><time>2026-04-18T07:22:19.744Z</time></trkpt><trkpt lat="43.5257767" lon="10.6737783"><ele>174.0</ele><time>2026-04-18T07:22:20.743Z</time></trkpt><trkpt lat="43.5257417" lon="10.6739767"><ele>176.0</ele><time>2026-04-18T07:22:21.741Z</time></trkpt><trkpt lat="43.5257117" lon="10.6741767"><ele>178.0</ele><time>2026-04-18T07:22:22.742Z</time></trkpt><trkpt lat="43.5256817" lon="10.674375"><ele>179.25</ele><time>2026-04-18T07:22:23.746Z</time></trkpt><trkpt lat="43.525655" lon="10.67458"><ele>180.5</ele><time>2026-04-18T07:22:24.742Z</time></trkpt><trkpt lat="43.5256467" lon="10.6747917"><ele>181.75</ele><time>2026-04-18T07:22:25.741Z</time></trkpt><trkpt lat="43.52562" lon="10.67498"><ele>183.0</ele><time>2026-04-18T07:22:26.744Z</time></trkpt><trkpt lat="43.52559" lon="10.6751583"><ele>183.25</ele><time>2026-04-18T07:22:27.744Z</time></trkpt><trkpt lat="43.5255583" lon="10.6753283"><ele>183.5</ele><time>2026-04-18T07:22:28.745Z</time></trkpt><trkpt lat="43.5255083" lon="10.6754867"><ele>183.75</ele><time>2026-04-18T07:22:29.742Z</time></trkpt><trkpt lat="43.5254583" lon="10.67563"><ele>184.0</ele><time>2026-04-18T07:22:30.741Z</time></trkpt><trkpt lat="43.525405" lon="10.6757533"><ele>183.79999999999998</ele><time>2026-04-18T07:22:31.747Z</time></trkpt><trkpt lat="43.5253367" lon="10.6758567"><ele>183.6</ele><time>2026-04-18T07:22:32.745Z</time></trkpt><trkpt lat="43.5252767" lon="10.6759617"><ele>183.4</ele><time>2026-04-18T07:22:33.746Z</time></trkpt><trkpt lat="43.52519" lon="10.676035"><ele>183.2</ele><time>2026-04-18T07:22:34.743Z</time></trkpt><trkpt lat="43.5251033" lon="10.6761017"><ele>183.0</ele><time>2026-04-18T07:22:35.741Z</time></trkpt><trkpt lat="43.52502" lon="10.6761783"><ele>182.83333333333334</ele><time>2026-04-18T07:22:36.741Z</time></trkpt><trkpt lat="43.524935" lon="10.6762483"><ele>182.66666666666666</ele><time>2026-04-18T07:22:37.746Z</time></trkpt><trkpt lat="43.5248683" lon="10.6763167"><ele>182.5</ele><time>2026-04-18T07:22:38.744Z</time></trkpt><trkpt lat="43.5248167" lon="10.6763917"><ele>182.33333333333331</ele><time>2026-04-18T07:22:39.745Z</time></trkpt><trkpt lat="43.52477" lon="10.67646"><ele>182.16666666666666</ele><time>2026-04-18T07:22:40.744Z</time></trkpt><trkpt lat="43.5247233" lon="10.6765183"><ele>182.0</ele><time>2026-04-18T07:22:41.744Z</time></trkpt><trkpt lat="43.52465" lon="10.67663"><ele>182.0</ele><time>2026-04-18T07:22:43.745Z</time></trkpt><trkpt lat="43.5246" lon="10.6767367"><ele>182.0</ele><time>2026-04-18T07:22:45.741Z</time></trkpt><trkpt lat="43.5245833" lon="10.6768283"><ele>182.0</ele><time>2026-04-18T07:22:47.744Z</time></trkpt><trkpt lat="43.5245517" lon="10.6769167"><ele>182.0</ele><time>2026-04-18T07:22:50.748Z</time></trkpt><trkpt lat="43.5245183" lon="10.6769917"><ele>182.0</ele><time>2026-04-18T07:22:52.745Z</time></trkpt><trkpt lat="43.52449" lon="10.677095"><ele>182.0</ele><time>2026-04-18T07:22:55.744Z</time></trkpt><trkpt lat="43.5244733" lon="10.67718"><ele>182.0</ele><time>2026-04-18T07:22:58.741Z</time></trkpt><trkpt lat="43.524525" lon="10.6772583"><ele>180.83333333333331</ele><time>2026-04-18T07:23:01.743Z</time></trkpt><trkpt lat="43.5246133" lon="10.6772967"><ele>179.66666666666666</ele><time>2026-04-18T07:23:14.748Z</time></trkpt><trkpt lat="43.5246667" lon="10.67738"><ele>178.5</ele><time>2026-04-18T07:23:16.751Z</time></trkpt><trkpt lat="43.524715" lon="10.677495"><ele>177.33333333333334</ele><time>2026-04-18T07:23:18.759Z</time></trkpt><trkpt lat="43.52474" lon="10.6776433"><ele>176.16666666666669</ele><time>2026-04-18T07:23:20.742Z</time></trkpt><trkpt lat="43.5247383" lon="10.6777367"><ele>175.0</ele><time>2026-04-18T07:23:21.744Z</time></trkpt><trkpt lat="43.5247417" lon="10.6778567"><ele>174.25</ele><time>2026-04-18T07:23:22.741Z</time></trkpt><trkpt lat="43.5247483" lon="10.6779967"><ele>173.5</ele><time>2026-04-18T07:23:23.743Z</time></trkpt><trkpt lat="43.52474" lon="10.6781583"><ele>172.75</ele><time>2026-04-18T07:23:24.744Z</time></trkpt><trkpt lat="43.5247417" lon="10.6783217"><ele>172.0</ele><time>2026-04-18T07:23:25.743Z</time></trkpt><trkpt lat="43.52476" lon="10.67848"><ele>173.75</ele><time>2026-04-18T07:23:26.745Z</time></trkpt><trkpt lat="43.5247683" lon="10.6786317"><ele>175.5</ele><time>2026-04-18T07:23:27.744Z</time></trkpt><trkpt lat="43.5248" lon="10.6787883"><ele>177.25</ele><time>2026-04-18T07:23:28.745Z</time></trkpt><trkpt lat="43.5248367" lon="10.6789467"><ele>179.0</ele><time>2026-04-18T07:23:29.745Z</time></trkpt><trkpt lat="43.5248567" lon="10.67911"><ele>179.0</ele><time>2026-04-18T07:23:30.741Z</time></trkpt><trkpt lat="43.5248583" lon="10.6792767"><ele>179.0</ele><time>2026-04-18T07:23:31.743Z</time></trkpt><trkpt lat="43.5248483" lon="10.67944"><ele>179.0</ele><time>2026-04-18T07:23:32.74Z</time></trkpt><trkpt lat="43.524825" lon="10.6795967"><ele>179.0</ele><time>2026-04-18T07:23:33.746Z</time></trkpt><trkpt lat="43.5248067" lon="10.67974"><ele>179.75</ele><time>2026-04-18T07:23:34.744Z</time></trkpt><trkpt lat="43.5248067" lon="10.6799017"><ele>180.5</ele><time>2026-04-18T07:23:35.744Z</time></trkpt><trkpt lat="43.5248383" lon="10.6800733"><ele>181.25</ele><time>2026-04-18T07:23:36.744Z</time></trkpt><trkpt lat="43.5248883" lon="10.6802633"><ele>182.0</ele><time>2026-04-18T07:23:37.742Z</time></trkpt><trkpt lat="43.5249333" lon="10.680465"><ele>179.66666666666666</ele><time>2026-04-18T07:23:38.745Z</time></trkpt><trkpt lat="43.5249667" lon="10.6806767"><ele>177.33333333333334</ele><time>2026-04-18T07:23:39.744Z</time></trkpt><trkpt lat="43.52497" lon="10.6809133"><ele>175.0</ele><time>2026-04-18T07:23:40.741Z</time></trkpt><trkpt lat="43.524965" lon="10.68116"><ele>174.0</ele><time>2026-04-18T07:23:41.741Z</time></trkpt><trkpt lat="43.5249633" lon="10.6813933"><ele>173.0</ele><time>2026-04-18T07:23:42.743Z</time></trkpt><trkpt lat="43.5249617" lon="10.6816083"><ele>172.0</ele><time>2026-04-18T07:23:43.747Z</time></trkpt><trkpt lat="43.5249617" lon="10.6818017"><ele>171.6</ele><time>2026-04-18T07:23:44.744Z</time></trkpt><trkpt lat="43.5249683" lon="10.6819783"><ele>171.2</ele><time>2026-04-18T07:23:45.741Z</time></trkpt><trkpt lat="43.5249583" lon="10.68214"><ele>170.8</ele><time>2026-04-18T07:23:46.739Z</time></trkpt><trkpt lat="43.52496" lon="10.6822883"><ele>170.4</ele><time>2026-04-18T07:23:47.746Z</time></trkpt><trkpt lat="43.5249867" lon="10.682415"><ele>170.0</ele><time>2026-04-18T07:23:48.749Z</time></trkpt><trkpt lat="43.525035" lon="10.6825183"><ele>170.0</ele><time>2026-04-18T07:23:49.741Z</time></trkpt><trkpt lat="43.5251033" lon="10.682605"><ele>170.0</ele><time>2026-04-18T07:23:50.745Z</time></trkpt><trkpt lat="43.5252117" lon="10.6826367"><ele>170.0</ele><time>2026-04-18T07:23:51.745Z</time></trkpt><trkpt lat="43.5253317" lon="10.682655"><ele>170.0</ele><time>2026-04-18T07:23:52.744Z</time></trkpt><trkpt lat="43.52542" lon="10.682725"><ele>170.0</ele><time>2026-04-18T07:23:53.749Z</time></trkpt><trkpt lat="43.52549" lon="10.6828467"><ele>168.8</ele><time>2026-04-18T07:23:54.741Z</time></trkpt><trkpt lat="43.52555" lon="10.68298"><ele>167.6</ele><time>2026-04-18T07:23:55.746Z</time></trkpt><trkpt lat="43.52559" lon="10.6830983"><ele>166.39999999999998</ele><time>2026-04-18T07:23:56.744Z</time></trkpt><trkpt lat="43.5256117" lon="10.6832017"><ele>165.2</ele><time>2026-04-18T07:23:57.743Z</time></trkpt><trkpt lat="43.5255883" lon="10.683345"><ele>164.0</ele><time>2026-04-18T07:23:59.743Z</time></trkpt><trkpt lat="43.52551" lon="10.6834383"><ele>163.99999999999997</ele><time>2026-04-18T07:24:01.744Z</time></trkpt><trkpt lat="43.5254533" lon="10.6834817"><ele>164.0</ele><time>2026-04-18T07:24:02.743Z</time></trkpt><trkpt lat="43.5253917" lon="10.683525"><ele>164.0</ele><time>2026-04-18T07:24:03.741Z</time></trkpt><trkpt lat="43.5253317" lon="10.683575"><ele>164.0</ele><time>2026-04-18T07:24:04.744Z</time></trkpt><trkpt lat="43.52527" lon="10.6836267"><ele>164.0</ele><time>2026-04-18T07:24:05.745Z</time></trkpt><trkpt lat="43.5252083" lon="10.6836767"><ele>163.99999999999997</ele><time>2026-04-18T07:24:06.743Z</time></trkpt><trkpt lat="43.5251483" lon="10.6837267"><ele>164.0</ele><time>2026-04-18T07:24:07.748Z</time></trkpt><trkpt lat="43.5250917" lon="10.6837833"><ele>161.79999999999998</ele><time>2026-04-18T07:24:08.746Z</time></trkpt><trkpt lat="43.5250383" lon="10.683835"><ele>159.6</ele><time>2026-04-18T07:24:09.742Z</time></trkpt><trkpt lat="43.524965" lon="10.68394"><ele>157.4</ele><time>2026-04-18T07:24:11.743Z</time></trkpt><trkpt lat="43.52488" lon="10.68396"><ele>155.2</ele><time>2026-04-18T07:24:19.747Z</time></trkpt><trkpt lat="43.5247467" lon="10.6839167"><ele>153.0</ele><time>2026-04-18T07:24:21.744Z</time></trkpt><trkpt lat="43.5246833" lon="10.68389"><ele>153.0</ele><time>2026-04-18T07:24:22.749Z</time></trkpt><trkpt lat="43.5245817" lon="10.6839567"><ele>153.0</ele><time>2026-04-18T07:24:24.748Z</time></trkpt><trkpt lat="43.52454" lon="10.6840633"><ele>153.0</ele><time>2026-04-18T07:24:25.744Z</time></trkpt><trkpt lat="43.524515" lon="10.6842"><ele>153.0</ele><time>2026-04-18T07:24:26.742Z</time></trkpt><trkpt lat="43.52452" lon="10.684315"><ele>153.0</ele><time>2026-04-18T07:24:27.744Z</time></trkpt><trkpt lat="43.5245283" lon="10.6844233"><ele>151.0</ele><time>2026-04-18T07:24:28.742Z</time></trkpt><trkpt lat="43.524585" lon="10.6845117"><ele>149.0</ele><time>2026-04-18T07:24:29.743Z</time></trkpt><trkpt lat="43.52468" lon="10.6845683"><ele>147.0</ele><time>2026-04-18T07:24:30.742Z</time></trkpt><trkpt lat="43.52483" lon="10.684585"><ele>145.0</ele><time>2026-04-18T07:24:31.747Z</time></trkpt><trkpt lat="43.5249683" lon="10.6846033"><ele>145.0</ele><time>2026-04-18T07:24:32.746Z</time></trkpt><trkpt lat="43.5250733" lon="10.684685"><ele>145.0</ele><time>2026-04-18T07:24:33.742Z</time></trkpt><trkpt lat="43.52516" lon="10.684795"><ele>145.0</ele><time>2026-04-18T07:24:34.743Z</time></trkpt><trkpt lat="43.5252217" lon="10.684935"><ele>145.0</ele><time>2026-04-18T07:24:35.749Z</time></trkpt><trkpt lat="43.5252733" lon="10.685095"><ele>146.33333333333334</ele><time>2026-04-18T07:24:36.746Z</time></trkpt><trkpt lat="43.5253133" lon="10.6852767"><ele>147.66666666666666</ele><time>2026-04-18T07:24:37.746Z</time></trkpt><trkpt lat="43.5253717" lon="10.6855"><ele>149.0</ele><time>2026-04-18T07:24:38.746Z</time></trkpt><trkpt lat="43.52542" lon="10.6857367"><ele>149.0</ele><time>2026-04-18T07:24:39.746Z</time></trkpt><trkpt lat="43.52548" lon="10.6859633"><ele>149.0</ele><time>2026-04-18T07:24:40.744Z</time></trkpt><trkpt lat="43.525525" lon="10.6861883"><ele>149.0</ele><time>2026-04-18T07:24:41.749Z</time></trkpt><trkpt lat="43.525545" lon="10.6864083"><ele>146.0</ele><time>2026-04-18T07:24:42.743Z</time></trkpt><trkpt lat="43.5255467" lon="10.6866267"><ele>143.0</ele><time>2026-04-18T07:24:43.745Z</time></trkpt><trkpt lat="43.5255383" lon="10.68683"><ele>140.0</ele><time>2026-04-18T07:24:44.746Z</time></trkpt><trkpt lat="43.525525" lon="10.6870217"><ele>137.0</ele><time>2026-04-18T07:24:45.741Z</time></trkpt><trkpt lat="43.52548" lon="10.6871967"><ele>135.25</ele><time>2026-04-18T07:24:46.745Z</time></trkpt><trkpt lat="43.525425" lon="10.6873717"><ele>133.5</ele><time>2026-04-18T07:24:47.752Z</time></trkpt><trkpt lat="43.5253683" lon="10.687555"><ele>131.75</ele><time>2026-04-18T07:24:48.746Z</time></trkpt><trkpt lat="43.525315" lon="10.68774"><ele>130.0</ele><time>2026-04-18T07:24:49.749Z</time></trkpt><trkpt lat="43.525275" lon="10.68793"><ele>127.75</ele><time>2026-04-18T07:24:50.746Z</time></trkpt><trkpt lat="43.5252383" lon="10.688115"><ele>125.5</ele><time>2026-04-18T07:24:51.742Z</time></trkpt><trkpt lat="43.5252" lon="10.688295"><ele>123.25</ele><time>2026-04-18T07:24:52.747Z</time></trkpt><trkpt lat="43.525175" lon="10.6884867"><ele>121.0</ele><time>2026-04-18T07:24:53.742Z</time></trkpt><trkpt lat="43.525155" lon="10.6886817"><ele>120.75</ele><time>2026-04-18T07:24:54.749Z</time></trkpt><trkpt lat="43.5251317" lon="10.688875"><ele>120.5</ele><time>2026-04-18T07:24:55.743Z</time></trkpt><trkpt lat="43.5251133" lon="10.6890767"><ele>120.25</ele><time>2026-04-18T07:24:56.747Z</time></trkpt><trkpt lat="43.5250817" lon="10.6892767"><ele>120.0</ele><time>2026-04-18T07:24:57.746Z</time></trkpt><trkpt lat="43.5250517" lon="10.6894733"><ele>120.0</ele><time>2026-04-18T07:24:58.745Z</time></trkpt><trkpt lat="43.5250133" lon="10.6896767"><ele>120.0</ele><time>2026-04-18T07:24:59.743Z</time></trkpt><trkpt lat="43.52499" lon="10.6898767"><ele>120.0</ele><time>2026-04-18T07:25:00.742Z</time></trkpt><trkpt lat="43.5249883" lon="10.6900733"><ele>120.0</ele><time>2026-04-18T07:25:01.743Z</time></trkpt><trkpt lat="43.5249867" lon="10.6902783"><ele>118.66666666666666</ele><time>2026-04-18T07:25:02.743Z</time></trkpt><trkpt lat="43.52503" lon="10.69048"><ele>117.33333333333333</ele><time>2026-04-18T07:25:03.743Z</time></trkpt><trkpt lat="43.5250467" lon="10.690685"><ele>116.0</ele><time>2026-04-18T07:25:04.741Z</time></trkpt><trkpt lat="43.5250667" lon="10.6908917"><ele>114.0</ele><time>2026-04-18T07:25:05.741Z</time></trkpt><trkpt lat="43.525085" lon="10.6911067"><ele>112.0</ele><time>2026-04-18T07:25:06.743Z</time></trkpt><trkpt lat="43.5251233" lon="10.6913167"><ele>110.0</ele><time>2026-04-18T07:25:07.744Z</time></trkpt><trkpt lat="43.5251567" lon="10.6915283"><ele>110.0</ele><time>2026-04-18T07:25:08.747Z</time></trkpt><trkpt lat="43.52521" lon="10.69172"><ele>110.0</ele><time>2026-04-18T07:25:09.743Z</time></trkpt><trkpt lat="43.5252667" lon="10.6919083"><ele>110.0</ele><time>2026-04-18T07:25:10.743Z</time></trkpt><trkpt lat="43.5253033" lon="10.6921167"><ele>109.66666666666666</ele><time>2026-04-18T07:25:11.744Z</time></trkpt><trkpt lat="43.5253433" lon="10.6923433"><ele>109.33333333333334</ele><time>2026-04-18T07:25:12.743Z</time></trkpt><trkpt lat="43.5253867" lon="10.6925733"><ele>109.0</ele><time>2026-04-18T07:25:13.745Z</time></trkpt><trkpt lat="43.5254033" lon="10.6928017"><ele>109.0</ele><time>2026-04-18T07:25:14.744Z</time></trkpt><trkpt lat="43.52541" lon="10.6930133"><ele>109.0</ele><time>2026-04-18T07:25:15.744Z</time></trkpt><trkpt lat="43.5254083" lon="10.69321"><ele>109.0</ele><time>2026-04-18T07:25:16.742Z</time></trkpt><trkpt lat="43.5254333" lon="10.6933967"><ele>109.0</ele><time>2026-04-18T07:25:17.742Z</time></trkpt><trkpt lat="43.5254983" lon="10.6935767"><ele>108.33333333333334</ele><time>2026-04-18T07:25:18.742Z</time></trkpt><trkpt lat="43.5255717" lon="10.6937567"><ele>107.66666666666666</ele><time>2026-04-18T07:25:19.743Z</time></trkpt><trkpt lat="43.5256567" lon="10.693935"><ele>107.0</ele><time>2026-04-18T07:25:20.744Z</time></trkpt><trkpt lat="43.52573" lon="10.6941167"><ele>107.0</ele><time>2026-04-18T07:25:21.744Z</time></trkpt><trkpt lat="43.5257867" lon="10.694305"><ele>107.0</ele><time>2026-04-18T07:25:22.744Z</time></trkpt><trkpt lat="43.525825" lon="10.69449"><ele>107.0</ele><time>2026-04-18T07:25:23.744Z</time></trkpt><trkpt lat="43.5258317" lon="10.69469"><ele>107.0</ele><time>2026-04-18T07:25:24.746Z</time></trkpt><trkpt lat="43.525835" lon="10.6948767"><ele>106.5</ele><time>2026-04-18T07:25:25.743Z</time></trkpt><trkpt lat="43.5258183" lon="10.6950383"><ele>106.0</ele><time>2026-04-18T07:25:26.748Z</time></trkpt><trkpt lat="43.525755" lon="10.69518"><ele>105.5</ele><time>2026-04-18T07:25:27.743Z</time></trkpt><trkpt lat="43.5256733" lon="10.6953033"><ele>105.0</ele><time>2026-04-18T07:25:28.745Z</time></trkpt><trkpt lat="43.5256117" lon="10.69544"><ele>103.75</ele><time>2026-04-18T07:25:29.743Z</time></trkpt><trkpt lat="43.5256133" lon="10.6956033"><ele>102.5</ele><time>2026-04-18T07:25:30.747Z</time></trkpt><trkpt lat="43.5256483" lon="10.6957767"><ele>101.25</ele><time>2026-04-18T07:25:31.746Z</time></trkpt><trkpt lat="43.52571" lon="10.695945"><ele>100.0</ele><time>2026-04-18T07:25:32.746Z</time></trkpt><trkpt lat="43.52574" lon="10.6961317"><ele>98.75</ele><time>2026-04-18T07:25:33.745Z</time></trkpt><trkpt lat="43.52574" lon="10.6963367"><ele>97.5</ele><time>2026-04-18T07:25:34.744Z</time></trkpt><trkpt lat="43.5257117" lon="10.6965467"><ele>96.25</ele><time>2026-04-18T07:25:35.744Z</time></trkpt><trkpt lat="43.5256817" lon="10.6967433"><ele>95.0</ele><time>2026-04-18T07:25:36.742Z</time></trkpt><trkpt lat="43.5256517" lon="10.6969283"><ele>94.5</ele><time>2026-04-18T07:25:37.743Z</time></trkpt><trkpt lat="43.52561" lon="10.6971083"><ele>94.0</ele><time>2026-04-18T07:25:38.742Z</time></trkpt><trkpt lat="43.5255317" lon="10.6972633"><ele>93.5</ele><time>2026-04-18T07:25:39.741Z</time></trkpt><trkpt lat="43.5254583" lon="10.697415"><ele>93.0</ele><time>2026-04-18T07:25:40.743Z</time></trkpt><trkpt lat="43.5254017" lon="10.69758"><ele>92.0</ele><time>2026-04-18T07:25:41.741Z</time></trkpt><trkpt lat="43.5253867" lon="10.6977667"><ele>91.0</ele><time>2026-04-18T07:25:42.742Z</time></trkpt><trkpt lat="43.5254017" lon="10.6979667"><ele>90.0</ele><time>2026-04-18T07:25:43.743Z</time></trkpt><trkpt lat="43.525435" lon="10.69817"><ele>89.0</ele><time>2026-04-18T07:25:44.749Z</time></trkpt><trkpt lat="43.52548" lon="10.6983633"><ele>89.0</ele><time>2026-04-18T07:25:45.742Z</time></trkpt><trkpt lat="43.5255133" lon="10.698555"><ele>89.0</ele><time>2026-04-18T07:25:46.748Z</time></trkpt><trkpt lat="43.5255067" lon="10.69875"><ele>89.0</ele><time>2026-04-18T07:25:47.747Z</time></trkpt><trkpt lat="43.5254767" lon="10.698955"><ele>89.0</ele><time>2026-04-18T07:25:48.742Z</time></trkpt><trkpt lat="43.52541" lon="10.6991417"><ele>83.0</ele><time>2026-04-18T07:25:49.758Z</time></trkpt><trkpt lat="43.5253433" lon="10.6993017"><ele>77.0</ele><time>2026-04-18T07:25:50.748Z</time></trkpt><trkpt lat="43.525285" lon="10.6994383"><ele>71.0</ele><time>2026-04-18T07:25:51.748Z</time></trkpt><trkpt lat="43.5252583" lon="10.69959"><ele>65.0</ele><time>2026-04-18T07:25:52.743Z</time></trkpt><trkpt lat="43.5252933" lon="10.6997567"><ele>65.33333333333334</ele><time>2026-04-18T07:25:53.748Z</time></trkpt><trkpt lat="43.52534" lon="10.699945"><ele>65.66666666666667</ele><time>2026-04-18T07:25:54.745Z</time></trkpt><trkpt lat="43.5253933" lon="10.70016"><ele>66.0</ele><time>2026-04-18T07:25:55.751Z</time></trkpt><trkpt lat="43.5254783" lon="10.7003917"><ele>66.0</ele><time>2026-04-18T07:25:56.75Z</time></trkpt><trkpt lat="43.52557" lon="10.700615"><ele>66.0</ele><time>2026-04-18T07:25:57.746Z</time></trkpt><trkpt lat="43.525645" lon="10.700825"><ele>66.0</ele><time>2026-04-18T07:25:58.746Z</time></trkpt><trkpt lat="43.5256967" lon="10.7010417"><ele>64.0</ele><time>2026-04-18T07:25:59.747Z</time></trkpt><trkpt lat="43.5257133" lon="10.7012617"><ele>62.0</ele><time>2026-04-18T07:26:00.748Z</time></trkpt><trkpt lat="43.5257167" lon="10.7014733"><ele>60.0</ele><time>2026-04-18T07:26:01.743Z</time></trkpt><trkpt lat="43.5257167" lon="10.7016733"><ele>60.0</ele><time>2026-04-18T07:26:02.748Z</time></trkpt><trkpt lat="43.5257283" lon="10.7018633"><ele>60.0</ele><time>2026-04-18T07:26:03.744Z</time></trkpt><trkpt lat="43.5257583" lon="10.7020467"><ele>60.0</ele><time>2026-04-18T07:26:04.746Z</time></trkpt><trkpt lat="43.5258083" lon="10.7022067"><ele>60.0</ele><time>2026-04-18T07:26:05.745Z</time></trkpt><trkpt lat="43.525865" lon="10.7023417"><ele>59.4</ele><time>2026-04-18T07:26:06.746Z</time></trkpt><trkpt lat="43.5259017" lon="10.70246"><ele>58.8</ele><time>2026-04-18T07:26:07.743Z</time></trkpt><trkpt lat="43.5259183" lon="10.7025517"><ele>58.2</ele><time>2026-04-18T07:26:08.747Z</time></trkpt><trkpt lat="43.5259517" lon="10.7026633"><ele>57.6</ele><time>2026-04-18T07:26:10.743Z</time></trkpt><trkpt lat="43.526075" lon="10.70266"><ele>57.0</ele><time>2026-04-18T07:26:20.753Z</time></trkpt><trkpt lat="43.5261833" lon="10.7025767"><ele>56.75</ele><time>2026-04-18T07:26:21.742Z</time></trkpt><trkpt lat="43.5262933" lon="10.7024867"><ele>56.5</ele><time>2026-04-18T07:26:22.746Z</time></trkpt><trkpt lat="43.5264117" lon="10.702405"><ele>56.25</ele><time>2026-04-18T07:26:23.74Z</time></trkpt><trkpt lat="43.526545" lon="10.70233"><ele>56.0</ele><time>2026-04-18T07:26:24.742Z</time></trkpt><trkpt lat="43.5266933" lon="10.7022933"><ele>56.0</ele><time>2026-04-18T07:26:25.745Z</time></trkpt><trkpt lat="43.5268617" lon="10.70228"><ele>56.0</ele><time>2026-04-18T07:26:26.746Z</time></trkpt><trkpt lat="43.5270367" lon="10.7022767"><ele>56.0</ele><time>2026-04-18T07:26:27.747Z</time></trkpt><trkpt lat="43.5272167" lon="10.7022683"><ele>56.0</ele><time>2026-04-18T07:26:28.745Z</time></trkpt><trkpt lat="43.5274033" lon="10.7022683"><ele>56.0</ele><time>2026-04-18T07:26:29.75Z</time></trkpt><trkpt lat="43.5275917" lon="10.7022567"><ele>56.0</ele><time>2026-04-18T07:26:30.746Z</time></trkpt><trkpt lat="43.527795" lon="10.70224"><ele>56.66666666666667</ele><time>2026-04-18T07:26:31.746Z</time></trkpt><trkpt lat="43.5280067" lon="10.7022267"><ele>57.33333333333333</ele><time>2026-04-18T07:26:32.749Z</time></trkpt><trkpt lat="43.52822" lon="10.7022183"><ele>58.0</ele><time>2026-04-18T07:26:33.743Z</time></trkpt><trkpt lat="43.52844" lon="10.70221"><ele>58.0</ele><time>2026-04-18T07:26:34.745Z</time></trkpt><trkpt lat="43.52866" lon="10.702215"><ele>58.0</ele><time>2026-04-18T07:26:35.746Z</time></trkpt><trkpt lat="43.5288733" lon="10.7022033"><ele>58.0</ele><time>2026-04-18T07:26:36.747Z</time></trkpt><trkpt lat="43.5290817" lon="10.702195"><ele>57.0</ele><time>2026-04-18T07:26:37.753Z</time></trkpt><trkpt lat="43.5292817" lon="10.7021767"><ele>56.0</ele><time>2026-04-18T07:26:38.744Z</time></trkpt><trkpt lat="43.52948" lon="10.7021517"><ele>55.0</ele><time>2026-04-18T07:26:39.743Z</time></trkpt><trkpt lat="43.5296783" lon="10.70212"><ele>54.666666666666664</ele><time>2026-04-18T07:26:40.743Z</time></trkpt><trkpt lat="43.5298767" lon="10.7020933"><ele>54.33333333333333</ele><time>2026-04-18T07:26:41.745Z</time></trkpt><trkpt lat="43.5300717" lon="10.7020633"><ele>54.0</ele><time>2026-04-18T07:26:42.749Z</time></trkpt><trkpt lat="43.53027" lon="10.7020383"><ele>54.33333333333333</ele><time>2026-04-18T07:26:43.744Z</time></trkpt><trkpt lat="43.5304717" lon="10.7020167"><ele>54.666666666666664</ele><time>2026-04-18T07:26:44.747Z</time></trkpt><trkpt lat="43.530675" lon="10.7019867"><ele>55.0</ele><time>2026-04-18T07:26:45.742Z</time></trkpt><trkpt lat="43.53088" lon="10.7019583"><ele>55.0</ele><time>2026-04-18T07:26:46.743Z</time></trkpt><trkpt lat="43.5310817" lon="10.70193"><ele>55.0</ele><time>2026-04-18T07:26:47.745Z</time></trkpt><trkpt lat="43.5312883" lon="10.7018983"><ele>55.0</ele><time>2026-04-18T07:26:48.747Z</time></trkpt><trkpt lat="43.5314867" lon="10.7018583"><ele>55.0</ele><time>2026-04-18T07:26:49.746Z</time></trkpt><trkpt lat="43.5316783" lon="10.7018167"><ele>55.0</ele><time>2026-04-18T07:26:50.749Z</time></trkpt><trkpt lat="43.5318683" lon="10.7017833"><ele>55.0</ele><time>2026-04-18T07:26:51.744Z</time></trkpt><trkpt lat="43.5320583" lon="10.7017383"><ele>55.0</ele><time>2026-04-18T07:26:52.747Z</time></trkpt><trkpt lat="43.5322517" lon="10.7016983"><ele>55.0</ele><time>2026-04-18T07:26:53.752Z</time></trkpt><trkpt lat="43.5324433" lon="10.70166"><ele>55.0</ele><time>2026-04-18T07:26:54.746Z</time></trkpt><trkpt lat="43.5326333" lon="10.701635"><ele>55.0</ele><time>2026-04-18T07:26:55.744Z</time></trkpt><trkpt lat="43.5328217" lon="10.7015933"><ele>55.0</ele><time>2026-04-18T07:26:56.748Z</time></trkpt><trkpt lat="43.53301" lon="10.701545"><ele>55.0</ele><time>2026-04-18T07:26:57.746Z</time></trkpt><trkpt lat="43.533195" lon="10.7015117"><ele>55.33333333333333</ele><time>2026-04-18T07:26:58.746Z</time></trkpt><trkpt lat="43.5333767" lon="10.7014717"><ele>55.66666666666667</ele><time>2026-04-18T07:26:59.746Z</time></trkpt><trkpt lat="43.5335517" lon="10.701425"><ele>56.0</ele><time>2026-04-18T07:27:00.748Z</time></trkpt><trkpt lat="43.5337233" lon="10.7014"><ele>56.66666666666667</ele><time>2026-04-18T07:27:01.746Z</time></trkpt><trkpt lat="43.5338917" lon="10.7013667"><ele>57.33333333333333</ele><time>2026-04-18T07:27:02.749Z</time></trkpt><trkpt lat="43.5340567" lon="10.7013333"><ele>58.0</ele><time>2026-04-18T07:27:03.747Z</time></trkpt><trkpt lat="43.5342183" lon="10.7013067"><ele>58.0</ele><time>2026-04-18T07:27:04.743Z</time></trkpt><trkpt lat="43.5343783" lon="10.7012733"><ele>58.0</ele><time>2026-04-18T07:27:05.744Z</time></trkpt><trkpt lat="43.5345367" lon="10.7012433"><ele>58.0</ele><time>2026-04-18T07:27:06.746Z</time></trkpt><trkpt lat="43.5346917" lon="10.7012217"><ele>57.5</ele><time>2026-04-18T07:27:07.747Z</time></trkpt><trkpt lat="43.53484" lon="10.7011883"><ele>57.0</ele><time>2026-04-18T07:27:08.749Z</time></trkpt><trkpt lat="43.534985" lon="10.7011633"><ele>56.5</ele><time>2026-04-18T07:27:09.746Z</time></trkpt><trkpt lat="43.5351317" lon="10.7011417"><ele>56.0</ele><time>2026-04-18T07:27:10.747Z</time></trkpt><trkpt lat="43.53528" lon="10.7011183"><ele>56.25</ele><time>2026-04-18T07:27:11.744Z</time></trkpt><trkpt lat="43.5354267" lon="10.7010833"><ele>56.5</ele><time>2026-04-18T07:27:12.746Z</time></trkpt><trkpt lat="43.53557" lon="10.70105"><ele>56.75</ele><time>2026-04-18T07:27:13.747Z</time></trkpt><trkpt lat="43.5357033" lon="10.7010233"><ele>57.0</ele><time>2026-04-18T07:27:14.751Z</time></trkpt><trkpt lat="43.5358233" lon="10.701"><ele>57.0</ele><time>2026-04-18T07:27:15.746Z</time></trkpt><trkpt lat="43.5359233" lon="10.70097"><ele>57.0</ele><time>2026-04-18T07:27:16.745Z</time></trkpt><trkpt lat="43.53601" lon="10.7009483"><ele>57.0</ele><time>2026-04-18T07:27:17.746Z</time></trkpt><trkpt lat="43.5360933" lon="10.7009233"><ele>57.0</ele><time>2026-04-18T07:27:18.745Z</time></trkpt><trkpt lat="43.5361883" lon="10.7009067"><ele>57.0</ele><time>2026-04-18T07:27:19.745Z</time></trkpt><trkpt lat="43.536295" lon="10.7008983"><ele>56.5</ele><time>2026-04-18T07:27:20.742Z</time></trkpt><trkpt lat="43.5364083" lon="10.7008683"><ele>56.0</ele><time>2026-04-18T07:27:21.748Z</time></trkpt><trkpt lat="43.5365317" lon="10.7008383"><ele>55.5</ele><time>2026-04-18T07:27:22.748Z</time></trkpt><trkpt lat="43.536655" lon="10.7008033"><ele>55.0</ele><time>2026-04-18T07:27:23.743Z</time></trkpt><trkpt lat="43.536775" lon="10.7007617"><ele>55.0</ele><time>2026-04-18T07:27:24.75Z</time></trkpt><trkpt lat="43.5368917" lon="10.7007367"><ele>55.0</ele><time>2026-04-18T07:27:25.745Z</time></trkpt><trkpt lat="43.5369983" lon="10.7007083"><ele>55.0</ele><time>2026-04-18T07:27:26.749Z</time></trkpt><trkpt lat="43.537105" lon="10.7006833"><ele>55.0</ele><time>2026-04-18T07:27:27.748Z</time></trkpt><trkpt lat="43.5372067" lon="10.7006583"><ele>55.0</ele><time>2026-04-18T07:27:28.747Z</time></trkpt><trkpt lat="43.5373033" lon="10.7006433"><ele>55.4</ele><time>2026-04-18T07:27:29.743Z</time></trkpt><trkpt lat="43.5373967" lon="10.7006217"><ele>55.8</ele><time>2026-04-18T07:27:30.742Z</time></trkpt><trkpt lat="43.53749" lon="10.700605"><ele>56.2</ele><time>2026-04-18T07:27:31.744Z</time></trkpt><trkpt lat="43.53759" lon="10.70058"><ele>56.6</ele><time>2026-04-18T07:27:32.748Z</time></trkpt><trkpt lat="43.5376983" lon="10.7005633"><ele>57.0</ele><time>2026-04-18T07:27:33.743Z</time></trkpt><trkpt lat="43.53782" lon="10.7005433"><ele>57.0</ele><time>2026-04-18T07:27:34.741Z</time></trkpt><trkpt lat="43.5379533" lon="10.7005333"><ele>57.0</ele><time>2026-04-18T07:27:35.747Z</time></trkpt><trkpt lat="43.538095" lon="10.7005183"><ele>57.0</ele><time>2026-04-18T07:27:36.742Z</time></trkpt><trkpt lat="43.5382533" lon="10.7005067"><ele>57.0</ele><time>2026-04-18T07:27:37.744Z</time></trkpt><trkpt lat="43.5384233" lon="10.700485"><ele>57.0</ele><time>2026-04-18T07:27:38.747Z</time></trkpt><trkpt lat="43.538595" lon="10.7004567"><ele>57.0</ele><time>2026-04-18T07:27:39.741Z</time></trkpt><trkpt lat="43.5387667" lon="10.70043"><ele>57.0</ele><time>2026-04-18T07:27:40.749Z</time></trkpt><trkpt lat="43.5389367" lon="10.7004083"><ele>56.66666666666667</ele><time>2026-04-18T07:27:41.743Z</time></trkpt><trkpt lat="43.5390983" lon="10.7003933"><ele>56.333333333333336</ele><time>2026-04-18T07:27:42.749Z</time></trkpt><trkpt lat="43.5392467" lon="10.7003683"><ele>56.0</ele><time>2026-04-18T07:27:43.743Z</time></trkpt><trkpt lat="43.539385" lon="10.7003617"><ele>56.0</ele><time>2026-04-18T07:27:44.743Z</time></trkpt><trkpt lat="43.539515" lon="10.70035"><ele>56.0</ele><time>2026-04-18T07:27:45.74Z</time></trkpt><trkpt lat="43.5396383" lon="10.7003383"><ele>56.0</ele><time>2026-04-18T07:27:46.746Z</time></trkpt><trkpt lat="43.53976" lon="10.7003233"><ele>56.0</ele><time>2026-04-18T07:27:47.744Z</time></trkpt><trkpt lat="43.5398783" lon="10.7003083"><ele>56.25</ele><time>2026-04-18T07:27:48.744Z</time></trkpt><trkpt lat="43.539995" lon="10.7002933"><ele>56.5</ele><time>2026-04-18T07:27:49.744Z</time></trkpt><trkpt lat="43.5401117" lon="10.7002683"><ele>56.75</ele><time>2026-04-18T07:27:50.743Z</time></trkpt><trkpt lat="43.5402333" lon="10.70025"><ele>57.0</ele><time>2026-04-18T07:27:51.746Z</time></trkpt><trkpt lat="43.54036" lon="10.7002267"><ele>57.25</ele><time>2026-04-18T07:27:52.745Z</time></trkpt><trkpt lat="43.540495" lon="10.7001983"><ele>57.5</ele><time>2026-04-18T07:27:53.741Z</time></trkpt><trkpt lat="43.54064" lon="10.7001833"><ele>57.75</ele><time>2026-04-18T07:27:54.742Z</time></trkpt><trkpt lat="43.5407833" lon="10.7001633"><ele>58.0</ele><time>2026-04-18T07:27:55.745Z</time></trkpt><trkpt lat="43.5409217" lon="10.70015"><ele>58.0</ele><time>2026-04-18T07:27:56.744Z</time></trkpt><trkpt lat="43.5410467" lon="10.7001317"><ele>58.0</ele><time>2026-04-18T07:27:57.748Z</time></trkpt><trkpt lat="43.5411667" lon="10.7001183"><ele>58.0</ele><time>2026-04-18T07:27:58.742Z</time></trkpt><trkpt lat="43.5412733" lon="10.7000967"><ele>58.0</ele><time>2026-04-18T07:27:59.742Z</time></trkpt><trkpt lat="43.5413717" lon="10.700085"><ele>57.71428571428572</ele><time>2026-04-18T07:28:00.741Z</time></trkpt><trkpt lat="43.5414583" lon="10.7000817"><ele>57.42857142857143</ele><time>2026-04-18T07:28:01.743Z</time></trkpt><trkpt lat="43.5415333" lon="10.7000817"><ele>57.142857142857146</ele><time>2026-04-18T07:28:02.747Z</time></trkpt><trkpt lat="43.5415967" lon="10.7000917"><ele>56.85714285714286</ele><time>2026-04-18T07:28:03.745Z</time></trkpt><trkpt lat="43.5416533" lon="10.7001317"><ele>56.57142857142857</ele><time>2026-04-18T07:28:04.747Z</time></trkpt><trkpt lat="43.5417" lon="10.7002133"><ele>56.285714285714285</ele><time>2026-04-18T07:28:05.744Z</time></trkpt><trkpt lat="43.5417283" lon="10.70032"><ele>56.0</ele><time>2026-04-18T07:28:06.744Z</time></trkpt><trkpt lat="43.5417333" lon="10.70047"><ele>56.0</ele><time>2026-04-18T07:28:07.744Z</time></trkpt><trkpt lat="43.5417517" lon="10.7006267"><ele>56.0</ele><time>2026-04-18T07:28:08.744Z</time></trkpt><trkpt lat="43.5417833" lon="10.7007967"><ele>56.0</ele><time>2026-04-18T07:28:09.742Z</time></trkpt><trkpt lat="43.5418017" lon="10.7009683"><ele>56.0</ele><time>2026-04-18T07:28:10.745Z</time></trkpt><trkpt lat="43.541835" lon="10.7011267"><ele>55.599999999999994</ele><time>2026-04-18T07:28:11.744Z</time></trkpt><trkpt lat="43.541865" lon="10.7012767"><ele>55.199999999999996</ele><time>2026-04-18T07:28:12.739Z</time></trkpt><trkpt lat="43.5418867" lon="10.7014167"><ele>54.800000000000004</ele><time>2026-04-18T07:28:13.743Z</time></trkpt><trkpt lat="43.5419" lon="10.701545"><ele>54.400000000000006</ele><time>2026-04-18T07:28:14.743Z</time></trkpt><trkpt lat="43.5419117" lon="10.7016617"><ele>54.0</ele><time>2026-04-18T07:28:15.741Z</time></trkpt><trkpt lat="43.5419283" lon="10.7017667"><ele>54.0</ele><time>2026-04-18T07:28:16.74Z</time></trkpt><trkpt lat="43.5419467" lon="10.7018733"><ele>54.0</ele><time>2026-04-18T07:28:17.743Z</time></trkpt><trkpt lat="43.5419567" lon="10.7019817"><ele>54.0</ele><time>2026-04-18T07:28:18.746Z</time></trkpt><trkpt lat="43.5419717" lon="10.7020883"><ele>54.0</ele><time>2026-04-18T07:28:19.745Z</time></trkpt><trkpt lat="43.5419867" lon="10.7021917"><ele>54.0</ele><time>2026-04-18T07:28:20.746Z</time></trkpt><trkpt lat="43.5420017" lon="10.7023117"><ele>54.0</ele><time>2026-04-18T07:28:21.747Z</time></trkpt><trkpt lat="43.542025" lon="10.7024383"><ele>54.0</ele><time>2026-04-18T07:28:22.744Z</time></trkpt><trkpt lat="43.5420483" lon="10.70258"><ele>54.00000000000001</ele><time>2026-04-18T07:28:23.747Z</time></trkpt><trkpt lat="43.542075" lon="10.7027233"><ele>54.00000000000001</ele><time>2026-04-18T07:28:24.745Z</time></trkpt><trkpt lat="43.542095" lon="10.7028633"><ele>54.0</ele><time>2026-04-18T07:28:25.746Z</time></trkpt><trkpt lat="43.5421083" lon="10.703"><ele>54.0</ele><time>2026-04-18T07:28:26.751Z</time></trkpt><trkpt lat="43.5421233" lon="10.7031283"><ele>53.5</ele><time>2026-04-18T07:28:27.744Z</time></trkpt><trkpt lat="43.5421383" lon="10.7032417"><ele>53.0</ele><time>2026-04-18T07:28:28.742Z</time></trkpt><trkpt lat="43.5421517" lon="10.7033383"><ele>52.5</ele><time>2026-04-18T07:28:29.748Z</time></trkpt><trkpt lat="43.5421617" lon="10.7034283"><ele>52.0</ele><time>2026-04-18T07:28:30.741Z</time></trkpt><trkpt lat="43.54218" lon="10.7036"><ele>51.5</ele><time>2026-04-18T07:28:32.745Z</time></trkpt><trkpt lat="43.5421933" lon="10.703695"><ele>51.0</ele><time>2026-04-18T07:28:33.741Z</time></trkpt><trkpt lat="43.54221" lon="10.70379"><ele>51.0</ele><time>2026-04-18T07:28:34.742Z</time></trkpt><trkpt lat="43.5422217" lon="10.7038867"><ele>51.0</ele><time>2026-04-18T07:28:35.747Z</time></trkpt><trkpt lat="43.5422367" lon="10.7039917"><ele>51.0</ele><time>2026-04-18T07:28:36.741Z</time></trkpt><trkpt lat="43.5422517" lon="10.7041067"><ele>51.0</ele><time>2026-04-18T07:28:37.742Z</time></trkpt><trkpt lat="43.5422683" lon="10.70423"><ele>51.0</ele><time>2026-04-18T07:28:38.746Z</time></trkpt><trkpt lat="43.5422933" lon="10.7043633"><ele>51.0</ele><time>2026-04-18T07:28:39.747Z</time></trkpt><trkpt lat="43.5423133" lon="10.7045117"><ele>50.5</ele><time>2026-04-18T07:28:40.743Z</time></trkpt><trkpt lat="43.5423433" lon="10.7046783"><ele>50.0</ele><time>2026-04-18T07:28:41.743Z</time></trkpt><trkpt lat="43.5423667" lon="10.70486"><ele>49.5</ele><time>2026-04-18T07:28:42.743Z</time></trkpt><trkpt lat="43.542395" lon="10.7050417"><ele>49.0</ele><time>2026-04-18T07:28:43.739Z</time></trkpt><trkpt lat="43.5424183" lon="10.7052167"><ele>49.25</ele><time>2026-04-18T07:28:44.745Z</time></trkpt><trkpt lat="43.5424483" lon="10.7053833"><ele>49.5</ele><time>2026-04-18T07:28:45.741Z</time></trkpt><trkpt lat="43.54247" lon="10.705545"><ele>49.75</ele><time>2026-04-18T07:28:46.74Z</time></trkpt><trkpt lat="43.5424917" lon="10.7057017"><ele>50.0</ele><time>2026-04-18T07:28:47.743Z</time></trkpt><trkpt lat="43.5425117" lon="10.705855"><ele>50.0</ele><time>2026-04-18T07:28:48.745Z</time></trkpt><trkpt lat="43.54253" lon="10.7060067"><ele>50.0</ele><time>2026-04-18T07:28:49.744Z</time></trkpt><trkpt lat="43.54255" lon="10.7061583"><ele>50.0</ele><time>2026-04-18T07:28:50.745Z</time></trkpt><trkpt lat="43.5425733" lon="10.706305"><ele>50.0</ele><time>2026-04-18T07:28:51.747Z</time></trkpt><trkpt lat="43.5425917" lon="10.7064467"><ele>50.0</ele><time>2026-04-18T07:28:52.746Z</time></trkpt><trkpt lat="43.5426067" lon="10.706585"><ele>50.25</ele><time>2026-04-18T07:28:53.749Z</time></trkpt><trkpt lat="43.542615" lon="10.7067267"><ele>50.5</ele><time>2026-04-18T07:28:54.744Z</time></trkpt><trkpt lat="43.5426217" lon="10.70689"><ele>50.75</ele><time>2026-04-18T07:28:55.743Z</time></trkpt><trkpt lat="43.5426533" lon="10.7070867"><ele>51.0</ele><time>2026-04-18T07:28:56.745Z</time></trkpt><trkpt lat="43.5426917" lon="10.707305"><ele>50.33333333333333</ele><time>2026-04-18T07:28:57.745Z</time></trkpt><trkpt lat="43.5427067" lon="10.7075333"><ele>49.666666666666664</ele><time>2026-04-18T07:28:58.744Z</time></trkpt><trkpt lat="43.5427333" lon="10.7077517"><ele>49.0</ele><time>2026-04-18T07:28:59.745Z</time></trkpt><trkpt lat="43.5427517" lon="10.7079533"><ele>49.0</ele><time>2026-04-18T07:29:00.743Z</time></trkpt><trkpt lat="43.5427767" lon="10.70814"><ele>49.0</ele><time>2026-04-18T07:29:01.741Z</time></trkpt><trkpt lat="43.5428083" lon="10.7083217"><ele>49.0</ele><time>2026-04-18T07:29:02.747Z</time></trkpt><trkpt lat="43.5428367" lon="10.7085017"><ele>49.0</ele><time>2026-04-18T07:29:03.743Z</time></trkpt><trkpt lat="43.542865" lon="10.7086883"><ele>49.0</ele><time>2026-04-18T07:29:04.744Z</time></trkpt><trkpt lat="43.5428933" lon="10.7088783"><ele>49.0</ele><time>2026-04-18T07:29:05.743Z</time></trkpt><trkpt lat="43.5429233" lon="10.70907"><ele>49.0</ele><time>2026-04-18T07:29:06.745Z</time></trkpt><trkpt lat="43.5429567" lon="10.7092633"><ele>49.0</ele><time>2026-04-18T07:29:07.744Z</time></trkpt><trkpt lat="43.5429783" lon="10.7094533"><ele>48.75</ele><time>2026-04-18T07:29:08.745Z</time></trkpt><trkpt lat="43.543005" lon="10.7096433"><ele>48.5</ele><time>2026-04-18T07:29:09.743Z</time></trkpt><trkpt lat="43.5430367" lon="10.70983"><ele>48.25</ele><time>2026-04-18T07:29:10.747Z</time></trkpt><trkpt lat="43.5430667" lon="10.7100083"><ele>48.0</ele><time>2026-04-18T07:29:11.751Z</time></trkpt><trkpt lat="43.5430867" lon="10.710185"><ele>47.25</ele><time>2026-04-18T07:29:12.748Z</time></trkpt><trkpt lat="43.5431083" lon="10.7103567"><ele>46.5</ele><time>2026-04-18T07:29:13.747Z</time></trkpt><trkpt lat="43.5431283" lon="10.7105233"><ele>45.75</ele><time>2026-04-18T07:29:14.745Z</time></trkpt><trkpt lat="43.5431467" lon="10.7106917"><ele>45.0</ele><time>2026-04-18T07:29:15.745Z</time></trkpt><trkpt lat="43.5431717" lon="10.7108683"><ele>45.0</ele><time>2026-04-18T07:29:16.744Z</time></trkpt><trkpt lat="43.5431917" lon="10.7110583"><ele>45.0</ele><time>2026-04-18T07:29:17.745Z</time></trkpt><trkpt lat="43.54322" lon="10.7112533"><ele>45.0</ele><time>2026-04-18T07:29:18.742Z</time></trkpt><trkpt lat="43.5432367" lon="10.7114583"><ele>45.0</ele><time>2026-04-18T07:29:19.748Z</time></trkpt><trkpt lat="43.543265" lon="10.7116617"><ele>44.333333333333336</ele><time>2026-04-18T07:29:20.752Z</time></trkpt><trkpt lat="43.5432967" lon="10.7118667"><ele>43.66666666666667</ele><time>2026-04-18T07:29:21.742Z</time></trkpt><trkpt lat="43.5433133" lon="10.712075"><ele>43.0</ele><time>2026-04-18T07:29:22.745Z</time></trkpt><trkpt lat="43.5433433" lon="10.7122733"><ele>43.0</ele><time>2026-04-18T07:29:23.742Z</time></trkpt><trkpt lat="43.5433633" lon="10.712465"><ele>43.0</ele><time>2026-04-18T07:29:24.742Z</time></trkpt><trkpt lat="43.543385" lon="10.7126567"><ele>43.0</ele><time>2026-04-18T07:29:25.742Z</time></trkpt><trkpt lat="43.5434083" lon="10.7128483"><ele>43.0</ele><time>2026-04-18T07:29:26.742Z</time></trkpt><trkpt lat="43.5434333" lon="10.7130433"><ele>42.75</ele><time>2026-04-18T07:29:27.744Z</time></trkpt><trkpt lat="43.5434733" lon="10.71324"><ele>42.5</ele><time>2026-04-18T07:29:28.743Z</time></trkpt><trkpt lat="43.543505" lon="10.71344"><ele>42.25</ele><time>2026-04-18T07:29:29.744Z</time></trkpt><trkpt lat="43.54353" lon="10.7136383"><ele>42.0</ele><time>2026-04-18T07:29:30.744Z</time></trkpt><trkpt lat="43.5435583" lon="10.7138233"><ele>41.75</ele><time>2026-04-18T07:29:31.743Z</time></trkpt><trkpt lat="43.543585" lon="10.714"><ele>41.5</ele><time>2026-04-18T07:29:32.743Z</time></trkpt><trkpt lat="43.5436033" lon="10.7141667"><ele>41.25</ele><time>2026-04-18T07:29:33.744Z</time></trkpt><trkpt lat="43.5436233" lon="10.7143267"><ele>41.0</ele><time>2026-04-18T07:29:34.742Z</time></trkpt><trkpt lat="43.543645" lon="10.7144783"><ele>41.83333333333333</ele><time>2026-04-18T07:29:35.743Z</time></trkpt><trkpt lat="43.5436683" lon="10.7146183"><ele>42.666666666666664</ele><time>2026-04-18T07:29:36.745Z</time></trkpt><trkpt lat="43.5436967" lon="10.7147467"><ele>43.5</ele><time>2026-04-18T07:29:37.743Z</time></trkpt><trkpt lat="43.5437333" lon="10.7148583"><ele>44.333333333333336</ele><time>2026-04-18T07:29:38.746Z</time></trkpt><trkpt lat="43.5437633" lon="10.7149617"><ele>45.16666666666667</ele><time>2026-04-18T07:29:39.743Z</time></trkpt><trkpt lat="43.54378" lon="10.7150467"><ele>46.0</ele><time>2026-04-18T07:29:40.744Z</time></trkpt><trkpt lat="43.54376" lon="10.7151333"><ele>46.0</ele><time>2026-04-18T07:29:42.748Z</time></trkpt><trkpt lat="43.5436883" lon="10.7150967"><ele>46.0</ele><time>2026-04-18T07:29:44.742Z</time></trkpt><trkpt lat="43.54361" lon="10.7149033"><ele>46.0</ele><time>2026-04-18T07:29:46.741Z</time></trkpt><trkpt lat="43.5435817" lon="10.71474"><ele>46.0</ele><time>2026-04-18T07:29:47.749Z</time></trkpt><trkpt lat="43.5435333" lon="10.7145883"><ele>46.0</ele><time>2026-04-18T07:29:48.744Z</time></trkpt><trkpt lat="43.5434817" lon="10.71446"><ele>46.0</ele><time>2026-04-18T07:29:49.74Z</time></trkpt><trkpt lat="43.5434383" lon="10.71434"><ele>46.0</ele><time>2026-04-18T07:29:50.743Z</time></trkpt><trkpt lat="43.5433867" lon="10.7142333"><ele>46.0</ele><time>2026-04-18T07:29:51.742Z</time></trkpt><trkpt lat="43.5433167" lon="10.7141583"><ele>46.0</ele><time>2026-04-18T07:29:52.748Z</time></trkpt><trkpt lat="43.5432333" lon="10.714095"><ele>44.75</ele><time>2026-04-18T07:29:53.74Z</time></trkpt><trkpt lat="43.5431317" lon="10.7140567"><ele>43.5</ele><time>2026-04-18T07:29:54.744Z</time></trkpt><trkpt lat="43.543005" lon="10.7140683"><ele>42.25</ele><time>2026-04-18T07:29:55.743Z</time></trkpt><trkpt lat="43.54286" lon="10.7140817"><ele>41.0</ele><time>2026-04-18T07:29:56.743Z</time></trkpt><trkpt lat="43.5426983" lon="10.7141017"><ele>41.0</ele><time>2026-04-18T07:29:57.742Z</time></trkpt><trkpt lat="43.54253" lon="10.714085"><ele>41.0</ele><time>2026-04-18T07:29:58.748Z</time></trkpt><trkpt lat="43.5423567" lon="10.7140683"><ele>41.0</ele><time>2026-04-18T07:29:59.744Z</time></trkpt><trkpt lat="43.5421917" lon="10.7141033"><ele>40.666666666666664</ele><time>2026-04-18T07:30:00.749Z</time></trkpt><trkpt lat="43.54202" lon="10.714155"><ele>40.333333333333336</ele><time>2026-04-18T07:30:01.747Z</time></trkpt><trkpt lat="43.5418467" lon="10.7141967"><ele>40.0</ele><time>2026-04-18T07:30:02.751Z</time></trkpt><trkpt lat="43.5416817" lon="10.714245"><ele>40.0</ele><time>2026-04-18T07:30:03.745Z</time></trkpt><trkpt lat="43.5415333" lon="10.7143233"><ele>40.0</ele><time>2026-04-18T07:30:04.745Z</time></trkpt><trkpt lat="43.5413933" lon="10.7143917"><ele>40.0</ele><time>2026-04-18T07:30:05.74Z</time></trkpt><trkpt lat="43.5412567" lon="10.7144283"><ele>40.0</ele><time>2026-04-18T07:30:06.747Z</time></trkpt><trkpt lat="43.5411217" lon="10.71447"><ele>41.5</ele><time>2026-04-18T07:30:07.742Z</time></trkpt><trkpt lat="43.5409633" lon="10.71457"><ele>43.0</ele><time>2026-04-18T07:30:08.742Z</time></trkpt><trkpt lat="43.5408333" lon="10.714555"><ele>44.5</ele><time>2026-04-18T07:30:09.747Z</time></trkpt><trkpt lat="43.5407017" lon="10.7145683"><ele>46.0</ele><time>2026-04-18T07:30:10.747Z</time></trkpt><trkpt lat="43.54057" lon="10.7146083"><ele>46.0</ele><time>2026-04-18T07:30:11.744Z</time></trkpt><trkpt lat="43.5404433" lon="10.7146383"><ele>46.0</ele><time>2026-04-18T07:30:12.743Z</time></trkpt><trkpt lat="43.5403333" lon="10.7146233"><ele>46.0</ele><time>2026-04-18T07:30:13.742Z</time></trkpt><trkpt lat="43.540245" lon="10.71461"><ele>46.0</ele><time>2026-04-18T07:30:14.746Z</time></trkpt><trkpt lat="43.540175" lon="10.7145817"><ele>46.0</ele><time>2026-04-18T07:30:15.743Z</time></trkpt><trkpt lat="43.54005" lon="10.7145467"><ele>47.0</ele><time>2026-04-18T07:30:17.743Z</time></trkpt><trkpt lat="43.53993" lon="10.714535"><ele>48.0</ele><time>2026-04-18T07:30:19.746Z</time></trkpt><trkpt lat="43.539835" lon="10.714515"><ele>49.0</ele><time>2026-04-18T07:30:21.743Z</time></trkpt><trkpt lat="43.5397433" lon="10.7144783"><ele>50.0</ele><time>2026-04-18T07:30:23.744Z</time></trkpt><trkpt lat="43.5396283" lon="10.71449"><ele>51.0</ele><time>2026-04-18T07:30:25.742Z</time></trkpt><trkpt lat="43.53952" lon="10.7145267"><ele>51.0</ele><time>2026-04-18T07:30:27.747Z</time></trkpt><trkpt lat="43.539415" lon="10.7146317"><ele>51.0</ele><time>2026-04-18T07:30:29.747Z</time></trkpt><trkpt lat="43.53936" lon="10.7146967"><ele>51.0</ele><time>2026-04-18T07:30:30.748Z</time></trkpt><trkpt lat="43.53931" lon="10.7147833"><ele>51.0</ele><time>2026-04-18T07:30:31.744Z</time></trkpt><trkpt lat="43.5392783" lon="10.7148667"><ele>51.0</ele><time>2026-04-18T07:30:32.75Z</time></trkpt><trkpt lat="43.5391883" lon="10.71495"><ele>51.0</ele><time>2026-04-18T07:30:34.745Z</time></trkpt><trkpt lat="43.5391067" lon="10.7148667"><ele>51.0</ele><time>2026-04-18T07:30:36.747Z</time></trkpt><trkpt lat="43.5390667" lon="10.7147217"><ele>51.0</ele><time>2026-04-18T07:30:38.746Z</time></trkpt><trkpt lat="43.539045" lon="10.714635"><ele>51.0</ele><time>2026-04-18T07:30:39.747Z</time></trkpt><trkpt lat="43.539015" lon="10.714545"><ele>51.0</ele><time>2026-04-18T07:30:40.743Z</time></trkpt><trkpt lat="43.5389933" lon="10.71446"><ele>51.0</ele><time>2026-04-18T07:30:41.746Z</time></trkpt><trkpt lat="43.53892" lon="10.7143783"><ele>49.4</ele><time>2026-04-18T07:30:42.742Z</time></trkpt><trkpt lat="43.538845" lon="10.7143133"><ele>47.8</ele><time>2026-04-18T07:30:43.743Z</time></trkpt><trkpt lat="43.5387917" lon="10.714255"><ele>46.199999999999996</ele><time>2026-04-18T07:30:44.746Z</time></trkpt><trkpt lat="43.5387167" lon="10.7142233"><ele>44.599999999999994</ele><time>2026-04-18T07:30:45.745Z</time></trkpt><trkpt lat="43.53863" lon="10.7141367"><ele>43.0</ele><time>2026-04-18T07:30:47.746Z</time></trkpt><trkpt lat="43.5385367" lon="10.714035"><ele>43.0</ele><time>2026-04-18T07:30:49.742Z</time></trkpt><trkpt lat="43.5384617" lon="10.713995"><ele>43.0</ele><time>2026-04-18T07:30:50.744Z</time></trkpt><trkpt lat="43.5384" lon="10.7139267"><ele>43.0</ele><time>2026-04-18T07:30:51.75Z</time></trkpt><trkpt lat="43.5383367" lon="10.7138417"><ele>43.0</ele><time>2026-04-18T07:30:52.742Z</time></trkpt><trkpt lat="43.5382833" lon="10.713765"><ele>43.0</ele><time>2026-04-18T07:30:53.743Z</time></trkpt><trkpt lat="43.5382517" lon="10.7136867"><ele>43.0</ele><time>2026-04-18T07:30:54.747Z</time></trkpt><trkpt lat="43.5382333" lon="10.7135267"><ele>42.833333333333336</ele><time>2026-04-18T07:30:56.743Z</time></trkpt><trkpt lat="43.538265" lon="10.7133817"><ele>42.66666666666667</ele><time>2026-04-18T07:30:58.743Z</time></trkpt><trkpt lat="43.5382833" lon="10.7132717"><ele>42.5</ele><time>2026-04-18T07:31:00.747Z</time></trkpt><trkpt lat="43.5382367" lon="10.7131867"><ele>42.333333333333336</ele><time>2026-04-18T07:31:02.747Z</time></trkpt><trkpt lat="43.5381617" lon="10.713115"><ele>42.166666666666664</ele><time>2026-04-18T07:31:04.744Z</time></trkpt><trkpt lat="43.5380933" lon="10.7130717"><ele>42.0</ele><time>2026-04-18T07:31:06.747Z</time></trkpt><trkpt lat="43.5380367" lon="10.7130267"><ele>42.0</ele><time>2026-04-18T07:31:08.746Z</time></trkpt><trkpt lat="43.53797" lon="10.712975"><ele>42.0</ele><time>2026-04-18T07:31:10.745Z</time></trkpt><trkpt lat="43.537895" lon="10.7128883"><ele>42.0</ele><time>2026-04-18T07:31:12.743Z</time></trkpt><trkpt lat="43.537815" lon="10.7127817"><ele>42.0</ele><time>2026-04-18T07:31:14.745Z</time></trkpt><trkpt lat="43.5377367" lon="10.7126817"><ele>42.0</ele><time>2026-04-18T07:31:16.741Z</time></trkpt><trkpt lat="43.5376333" lon="10.712595"><ele>42.0</ele><time>2026-04-18T07:31:18.743Z</time></trkpt><trkpt lat="43.5375783" lon="10.71254"><ele>42.0</ele><time>2026-04-18T07:31:19.743Z</time></trkpt><trkpt lat="43.5375217" lon="10.7124783"><ele>42.0</ele><time>2026-04-18T07:31:20.744Z</time></trkpt><trkpt lat="43.5374633" lon="10.7124067"><ele>42.0</ele><time>2026-04-18T07:31:21.744Z</time></trkpt><trkpt lat="43.537405" lon="10.71233"><ele>42.0</ele><time>2026-04-18T07:31:22.743Z</time></trkpt><trkpt lat="43.5373383" lon="10.7122667"><ele>42.0</ele><time>2026-04-18T07:31:23.744Z</time></trkpt><trkpt lat="43.5372783" lon="10.7121933"><ele>42.0</ele><time>2026-04-18T07:31:24.744Z</time></trkpt><trkpt lat="43.5372017" lon="10.7121283"><ele>42.0</ele><time>2026-04-18T07:31:25.745Z</time></trkpt><trkpt lat="43.53712" lon="10.7120483"><ele>42.0</ele><time>2026-04-18T07:31:26.744Z</time></trkpt><trkpt lat="43.5370367" lon="10.7119683"><ele>42.0</ele><time>2026-04-18T07:31:27.743Z</time></trkpt><trkpt lat="43.5369517" lon="10.7119017"><ele>42.0</ele><time>2026-04-18T07:31:28.741Z</time></trkpt><trkpt lat="43.5368633" lon="10.71187"><ele>42.0</ele><time>2026-04-18T07:31:29.743Z</time></trkpt><trkpt lat="43.5367733" lon="10.7118367"><ele>42.0</ele><time>2026-04-18T07:31:30.744Z</time></trkpt><trkpt lat="43.5366767" lon="10.711815"><ele>42.0</ele><time>2026-04-18T07:31:31.746Z</time></trkpt><trkpt lat="43.5365817" lon="10.7118033"><ele>42.0</ele><time>2026-04-18T07:31:32.747Z</time></trkpt><trkpt lat="43.5364933" lon="10.7117833"><ele>42.0</ele><time>2026-04-18T07:31:33.742Z</time></trkpt><trkpt lat="43.536415" lon="10.7117817"><ele>42.0</ele><time>2026-04-18T07:31:34.745Z</time></trkpt><trkpt lat="43.5363467" lon="10.7117717"><ele>42.0</ele><time>2026-04-18T07:31:35.748Z</time></trkpt><trkpt lat="43.536235" lon="10.7117433"><ele>42.0</ele><time>2026-04-18T07:31:37.744Z</time></trkpt><trkpt lat="43.536125" lon="10.711735"><ele>42.0</ele><time>2026-04-18T07:31:39.747Z</time></trkpt><trkpt lat="43.5360067" lon="10.7117317"><ele>42.0</ele><time>2026-04-18T07:31:41.745Z</time></trkpt><trkpt lat="43.5358917" lon="10.7117183"><ele>41.8</ele><time>2026-04-18T07:31:43.743Z</time></trkpt><trkpt lat="43.5357783" lon="10.7116933"><ele>41.6</ele><time>2026-04-18T07:31:45.744Z</time></trkpt><trkpt lat="43.5356833" lon="10.71166"><ele>41.4</ele><time>2026-04-18T07:31:47.754Z</time></trkpt><trkpt lat="43.535595" lon="10.7116167"><ele>41.199999999999996</ele><time>2026-04-18T07:31:49.744Z</time></trkpt><trkpt lat="43.5354983" lon="10.7115683"><ele>41.0</ele><time>2026-04-18T07:31:51.742Z</time></trkpt><trkpt lat="43.5354017" lon="10.711495"><ele>41.199999999999996</ele><time>2026-04-18T07:31:53.743Z</time></trkpt><trkpt lat="43.5353" lon="10.7114533"><ele>41.4</ele><time>2026-04-18T07:31:55.754Z</time></trkpt><trkpt lat="43.5351933" lon="10.7114067"><ele>41.6</ele><time>2026-04-18T07:31:57.747Z</time></trkpt><trkpt lat="43.5350967" lon="10.711355"><ele>41.8</ele><time>2026-04-18T07:31:59.743Z</time></trkpt><trkpt lat="43.5350117" lon="10.7113117"><ele>42.0</ele><time>2026-04-18T07:32:01.744Z</time></trkpt><trkpt lat="43.5349183" lon="10.711255"><ele>42.0</ele><time>2026-04-18T07:32:03.75Z</time></trkpt><trkpt lat="43.5348217" lon="10.7112133"><ele>42.0</ele><time>2026-04-18T07:32:05.746Z</time></trkpt><trkpt lat="43.5347483" lon="10.7111983"><ele>42.0</ele><time>2026-04-18T07:32:07.745Z</time></trkpt><trkpt lat="43.5346617" lon="10.7111467"><ele>42.0</ele><time>2026-04-18T07:32:09.748Z</time></trkpt><trkpt lat="43.53457" lon="10.71109"><ele>42.0</ele><time>2026-04-18T07:32:11.743Z</time></trkpt><trkpt lat="43.53451" lon="10.71106"><ele>42.0</ele><time>2026-04-18T07:32:12.744Z</time></trkpt><trkpt lat="43.534445" lon="10.711015"><ele>42.0</ele><time>2026-04-18T07:32:13.743Z</time></trkpt><trkpt lat="43.53439" lon="10.7109533"><ele>42.0</ele><time>2026-04-18T07:32:14.746Z</time></trkpt><trkpt lat="43.5343" lon="10.7108717"><ele>42.0</ele><time>2026-04-18T07:32:16.743Z</time></trkpt><trkpt lat="43.53422" lon="10.7109083"><ele>42.0</ele><time>2026-04-18T07:32:18.747Z</time></trkpt><trkpt lat="43.5341683" lon="10.7110733"><ele>42.0</ele><time>2026-04-18T07:32:20.745Z</time></trkpt><trkpt lat="43.5341467" lon="10.71123"><ele>41.8</ele><time>2026-04-18T07:32:21.744Z</time></trkpt><trkpt lat="43.534105" lon="10.7113917"><ele>41.6</ele><time>2026-04-18T07:32:22.747Z</time></trkpt><trkpt lat="43.5340533" lon="10.71153"><ele>41.4</ele><time>2026-04-18T07:32:23.752Z</time></trkpt><trkpt lat="43.5340133" lon="10.7116367"><ele>41.199999999999996</ele><time>2026-04-18T07:32:24.744Z</time></trkpt><trkpt lat="43.533985" lon="10.71172"><ele>41.0</ele><time>2026-04-18T07:32:25.744Z</time></trkpt><trkpt lat="43.5338633" lon="10.7117617"><ele>41.0</ele><time>2026-04-18T07:32:27.744Z</time></trkpt><trkpt lat="43.533765" lon="10.71177"><ele>41.0</ele><time>2026-04-18T07:32:28.754Z</time></trkpt><trkpt lat="43.533645" lon="10.7118017"><ele>41.0</ele><time>2026-04-18T07:32:29.744Z</time></trkpt><trkpt lat="43.5334933" lon="10.7118617"><ele>41.0</ele><time>2026-04-18T07:32:30.744Z</time></trkpt><trkpt lat="43.5333183" lon="10.7119217"><ele>42.0</ele><time>2026-04-18T07:32:31.747Z</time></trkpt><trkpt lat="43.5331467" lon="10.7120133"><ele>43.0</ele><time>2026-04-18T07:32:32.746Z</time></trkpt><trkpt lat="43.532975" lon="10.7121083"><ele>44.0</ele><time>2026-04-18T07:32:33.746Z</time></trkpt><trkpt lat="43.5327783" lon="10.712165"><ele>44.0</ele><time>2026-04-18T07:32:34.743Z</time></trkpt><trkpt lat="43.5325867" lon="10.7122217"><ele>44.0</ele><time>2026-04-18T07:32:35.745Z</time></trkpt><trkpt lat="43.5324433" lon="10.7123567"><ele>44.0</ele><time>2026-04-18T07:32:36.744Z</time></trkpt><trkpt lat="43.5322483" lon="10.7124283"><ele>44.0</ele><time>2026-04-18T07:32:37.747Z</time></trkpt><trkpt lat="43.5320567" lon="10.71248"><ele>44.0</ele><time>2026-04-18T07:32:38.742Z</time></trkpt><trkpt lat="43.5318717" lon="10.71253"><ele>44.0</ele><time>2026-04-18T07:32:39.744Z</time></trkpt><trkpt lat="43.5317017" lon="10.7125917"><ele>44.0</ele><time>2026-04-18T07:32:40.744Z</time></trkpt><trkpt lat="43.5315433" lon="10.7126417"><ele>44.0</ele><time>2026-04-18T07:32:41.742Z</time></trkpt><trkpt lat="43.5313933" lon="10.71271"><ele>44.0</ele><time>2026-04-18T07:32:42.742Z</time></trkpt><trkpt lat="43.5312367" lon="10.71274"><ele>43.75</ele><time>2026-04-18T07:32:43.747Z</time></trkpt><trkpt lat="43.53111" lon="10.7127967"><ele>43.5</ele><time>2026-04-18T07:32:44.747Z</time></trkpt><trkpt lat="43.5309733" lon="10.7128483"><ele>43.25</ele><time>2026-04-18T07:32:45.748Z</time></trkpt><trkpt lat="43.53086" lon="10.7129367"><ele>43.0</ele><time>2026-04-18T07:32:46.743Z</time></trkpt><trkpt lat="43.5307033" lon="10.712975"><ele>43.0</ele><time>2026-04-18T07:32:47.747Z</time></trkpt><trkpt lat="43.5305733" lon="10.7130317"><ele>43.0</ele><time>2026-04-18T07:32:48.742Z</time></trkpt><trkpt lat="43.5304433" lon="10.71306"><ele>43.0</ele><time>2026-04-18T07:32:49.744Z</time></trkpt><trkpt lat="43.53033" lon="10.7131083"><ele>43.0</ele><time>2026-04-18T07:32:50.743Z</time></trkpt><trkpt lat="43.53023" lon="10.71315"><ele>43.2</ele><time>2026-04-18T07:32:51.745Z</time></trkpt><trkpt lat="43.5301433" lon="10.7131783"><ele>43.4</ele><time>2026-04-18T07:32:52.743Z</time></trkpt><trkpt lat="43.53006" lon="10.71322"><ele>43.6</ele><time>2026-04-18T07:32:53.748Z</time></trkpt><trkpt lat="43.529965" lon="10.71325"><ele>43.800000000000004</ele><time>2026-04-18T07:32:54.748Z</time></trkpt><trkpt lat="43.5298817" lon="10.7133017"><ele>44.0</ele><time>2026-04-18T07:32:55.746Z</time></trkpt><trkpt lat="43.5298" lon="10.71334"><ele>44.0</ele><time>2026-04-18T07:32:56.747Z</time></trkpt><trkpt lat="43.529715" lon="10.7133783"><ele>44.0</ele><time>2026-04-18T07:32:57.744Z</time></trkpt><trkpt lat="43.5296133" lon="10.7134267"><ele>44.0</ele><time>2026-04-18T07:32:58.744Z</time></trkpt><trkpt lat="43.5295033" lon="10.71348"><ele>44.0</ele><time>2026-04-18T07:32:59.742Z</time></trkpt><trkpt lat="43.5293933" lon="10.7135133"><ele>44.0</ele><time>2026-04-18T07:33:00.749Z</time></trkpt><trkpt lat="43.5292867" lon="10.7135667"><ele>43.75</ele><time>2026-04-18T07:33:01.743Z</time></trkpt><trkpt lat="43.5291733" lon="10.7136283"><ele>43.5</ele><time>2026-04-18T07:33:02.746Z</time></trkpt><trkpt lat="43.5290433" lon="10.7136717"><ele>43.25</ele><time>2026-04-18T07:33:03.744Z</time></trkpt><trkpt lat="43.5288983" lon="10.713715"><ele>43.0</ele><time>2026-04-18T07:33:04.745Z</time></trkpt><trkpt lat="43.5287567" lon="10.7137783"><ele>43.5</ele><time>2026-04-18T07:33:05.743Z</time></trkpt><trkpt lat="43.5286267" lon="10.7138383"><ele>44.0</ele><time>2026-04-18T07:33:06.744Z</time></trkpt><trkpt lat="43.5285033" lon="10.7138733"><ele>44.5</ele><time>2026-04-18T07:33:07.743Z</time></trkpt><trkpt lat="43.52839" lon="10.713925"><ele>45.0</ele><time>2026-04-18T07:33:08.743Z</time></trkpt><trkpt lat="43.5282733" lon="10.71396"><ele>45.0</ele><time>2026-04-18T07:33:09.745Z</time></trkpt><trkpt lat="43.528155" lon="10.71401"><ele>45.0</ele><time>2026-04-18T07:33:10.741Z</time></trkpt><trkpt lat="43.52802" lon="10.71404"><ele>45.0</ele><time>2026-04-18T07:33:11.744Z</time></trkpt><trkpt lat="43.52789" lon="10.714105"><ele>45.0</ele><time>2026-04-18T07:33:12.745Z</time></trkpt><trkpt lat="43.527735" lon="10.7141567"><ele>45.0</ele><time>2026-04-18T07:33:13.744Z</time></trkpt><trkpt lat="43.5275533" lon="10.7142017"><ele>45.0</ele><time>2026-04-18T07:33:14.742Z</time></trkpt><trkpt lat="43.5273567" lon="10.7142717"><ele>45.0</ele><time>2026-04-18T07:33:15.746Z</time></trkpt><trkpt lat="43.5271467" lon="10.7143483"><ele>47.33333333333333</ele><time>2026-04-18T07:33:16.741Z</time></trkpt><trkpt lat="43.5269433" lon="10.71442"><ele>49.666666666666664</ele><time>2026-04-18T07:33:17.745Z</time></trkpt><trkpt lat="43.5267583" lon="10.7144917"><ele>52.0</ele><time>2026-04-18T07:33:18.746Z</time></trkpt><trkpt lat="43.5266017" lon="10.7145933"><ele>52.0</ele><time>2026-04-18T07:33:19.744Z</time></trkpt><trkpt lat="43.5264433" lon="10.7146583"><ele>52.0</ele><time>2026-04-18T07:33:20.751Z</time></trkpt><trkpt lat="43.5262883" lon="10.7147333"><ele>52.0</ele><time>2026-04-18T07:33:21.743Z</time></trkpt><trkpt lat="43.5261383" lon="10.7147883"><ele>50.5</ele><time>2026-04-18T07:33:22.748Z</time></trkpt><trkpt lat="43.52599" lon="10.7148617"><ele>49.0</ele><time>2026-04-18T07:33:23.743Z</time></trkpt><trkpt lat="43.5258583" lon="10.7149283"><ele>47.5</ele><time>2026-04-18T07:33:24.743Z</time></trkpt><trkpt lat="43.5257217" lon="10.7149733"><ele>46.0</ele><time>2026-04-18T07:33:25.747Z</time></trkpt><trkpt lat="43.525585" lon="10.7150033"><ele>46.0</ele><time>2026-04-18T07:33:26.744Z</time></trkpt><trkpt lat="43.5254533" lon="10.7150517"><ele>46.0</ele><time>2026-04-18T07:33:27.747Z</time></trkpt><trkpt lat="43.5253267" lon="10.7150967"><ele>46.0</ele><time>2026-04-18T07:33:28.744Z</time></trkpt><trkpt lat="43.5252083" lon="10.715145"><ele>46.0</ele><time>2026-04-18T07:33:29.746Z</time></trkpt><trkpt lat="43.5251" lon="10.7152017"><ele>46.333333333333336</ele><time>2026-04-18T07:33:30.751Z</time></trkpt><trkpt lat="43.525" lon="10.71525"><ele>46.66666666666667</ele><time>2026-04-18T07:33:31.744Z</time></trkpt><trkpt lat="43.52491" lon="10.71529"><ele>47.0</ele><time>2026-04-18T07:33:32.742Z</time></trkpt><trkpt lat="43.524835" lon="10.7153217"><ele>47.333333333333336</ele><time>2026-04-18T07:33:33.746Z</time></trkpt><trkpt lat="43.5247717" lon="10.7153383"><ele>47.666666666666664</ele><time>2026-04-18T07:33:34.75Z</time></trkpt><trkpt lat="43.5246917" lon="10.7154067"><ele>48.0</ele><time>2026-04-18T07:33:36.743Z</time></trkpt><trkpt lat="43.5246733" lon="10.715495"><ele>48.0</ele><time>2026-04-18T07:33:38.746Z</time></trkpt><trkpt lat="43.524625" lon="10.71557"><ele>48.0</ele><time>2026-04-18T07:33:40.741Z</time></trkpt><trkpt lat="43.5246033" lon="10.7156517"><ele>48.0</ele><time>2026-04-18T07:33:41.743Z</time></trkpt><trkpt lat="43.524595" lon="10.7157767"><ele>48.0</ele><time>2026-04-18T07:33:42.742Z</time></trkpt><trkpt lat="43.5245667" lon="10.71595"><ele>48.0</ele><time>2026-04-18T07:33:43.741Z</time></trkpt><trkpt lat="43.5245483" lon="10.71616"><ele>47.0</ele><time>2026-04-18T07:33:44.742Z</time></trkpt><trkpt lat="43.5245483" lon="10.7163583"><ele>46.0</ele><time>2026-04-18T07:33:45.744Z</time></trkpt><trkpt lat="43.5245267" lon="10.7165617"><ele>45.0</ele><time>2026-04-18T07:33:46.741Z</time></trkpt><trkpt lat="43.52451" lon="10.7167433"><ele>44.0</ele><time>2026-04-18T07:33:47.74Z</time></trkpt><trkpt lat="43.52447" lon="10.7169467"><ele>44.0</ele><time>2026-04-18T07:33:48.739Z</time></trkpt><trkpt lat="43.5243983" lon="10.7171633"><ele>44.0</ele><time>2026-04-18T07:33:49.744Z</time></trkpt><trkpt lat="43.52435" lon="10.7173667"><ele>44.0</ele><time>2026-04-18T07:33:50.745Z</time></trkpt><trkpt lat="43.5242183" lon="10.7175883"><ele>45.0</ele><time>2026-04-18T07:33:51.74Z</time></trkpt><trkpt lat="43.5241567" lon="10.7177917"><ele>46.0</ele><time>2026-04-18T07:33:52.751Z</time></trkpt><trkpt lat="43.52412" lon="10.7180083"><ele>47.0</ele><time>2026-04-18T07:33:53.742Z</time></trkpt><trkpt lat="43.5241133" lon="10.7182"><ele>47.0</ele><time>2026-04-18T07:33:54.742Z</time></trkpt><trkpt lat="43.5240217" lon="10.7184183"><ele>47.0</ele><time>2026-04-18T07:33:55.742Z</time></trkpt><trkpt lat="43.5239767" lon="10.7186233"><ele>47.0</ele><time>2026-04-18T07:33:56.742Z</time></trkpt><trkpt lat="43.52394" lon="10.7188433"><ele>47.33333333333333</ele><time>2026-04-18T07:33:57.745Z</time></trkpt><trkpt lat="43.5238417" lon="10.719045"><ele>47.666666666666664</ele><time>2026-04-18T07:33:58.744Z</time></trkpt><trkpt lat="43.5237817" lon="10.7192533"><ele>48.0</ele><time>2026-04-18T07:33:59.744Z</time></trkpt><trkpt lat="43.5237617" lon="10.7194717"><ele>47.25</ele><time>2026-04-18T07:34:00.748Z</time></trkpt><trkpt lat="43.523705" lon="10.7196567"><ele>46.5</ele><time>2026-04-18T07:34:01.746Z</time></trkpt><trkpt lat="43.5236367" lon="10.7198233"><ele>45.75</ele><time>2026-04-18T07:34:02.748Z</time></trkpt><trkpt lat="43.5235583" lon="10.72001"><ele>45.0</ele><time>2026-04-18T07:34:03.742Z</time></trkpt><trkpt lat="43.5234783" lon="10.7201917"><ele>45.25</ele><time>2026-04-18T07:34:04.747Z</time></trkpt><trkpt lat="43.523415" lon="10.7203517"><ele>45.5</ele><time>2026-04-18T07:34:05.743Z</time></trkpt><trkpt lat="43.5233617" lon="10.7205383"><ele>45.75</ele><time>2026-04-18T07:34:06.741Z</time></trkpt><trkpt lat="43.52332" lon="10.7207417"><ele>46.0</ele><time>2026-04-18T07:34:07.743Z</time></trkpt><trkpt lat="43.523275" lon="10.7209367"><ele>46.0</ele><time>2026-04-18T07:34:08.744Z</time></trkpt><trkpt lat="43.5232233" lon="10.721125"><ele>46.0</ele><time>2026-04-18T07:34:09.744Z</time></trkpt><trkpt lat="43.5231683" lon="10.721305"><ele>46.0</ele><time>2026-04-18T07:34:10.745Z</time></trkpt><trkpt lat="43.52311" lon="10.721475"><ele>46.0</ele><time>2026-04-18T07:34:11.743Z</time></trkpt><trkpt lat="43.523045" lon="10.7216317"><ele>46.0</ele><time>2026-04-18T07:34:12.743Z</time></trkpt><trkpt lat="43.52296" lon="10.7217983"><ele>46.0</ele><time>2026-04-18T07:34:13.744Z</time></trkpt><trkpt lat="43.5228717" lon="10.72196"><ele>46.0</ele><time>2026-04-18T07:34:14.742Z</time></trkpt><trkpt lat="43.5227833" lon="10.72211"><ele>46.0</ele><time>2026-04-18T07:34:15.743Z</time></trkpt><trkpt lat="43.5226933" lon="10.7222333"><ele>46.75</ele><time>2026-04-18T07:34:16.745Z</time></trkpt><trkpt lat="43.5226" lon="10.7223517"><ele>47.5</ele><time>2026-04-18T07:34:17.741Z</time></trkpt><trkpt lat="43.5224867" lon="10.722475"><ele>48.25</ele><time>2026-04-18T07:34:18.741Z</time></trkpt><trkpt lat="43.52236" lon="10.722615"><ele>49.0</ele><time>2026-04-18T07:34:19.743Z</time></trkpt><trkpt lat="43.5222233" lon="10.7227567"><ele>49.0</ele><time>2026-04-18T07:34:20.746Z</time></trkpt><trkpt lat="43.5220967" lon="10.7228817"><ele>49.0</ele><time>2026-04-18T07:34:21.739Z</time></trkpt><trkpt lat="43.5219717" lon="10.7229867"><ele>49.0</ele><time>2026-04-18T07:34:22.744Z</time></trkpt><trkpt lat="43.52185" lon="10.723085"><ele>49.0</ele><time>2026-04-18T07:34:23.743Z</time></trkpt><trkpt lat="43.5217417" lon="10.7231867"><ele>49.0</ele><time>2026-04-18T07:34:24.746Z</time></trkpt><trkpt lat="43.5216433" lon="10.723295"><ele>49.0</ele><time>2026-04-18T07:34:25.745Z</time></trkpt><trkpt lat="43.5215467" lon="10.7234017"><ele>49.0</ele><time>2026-04-18T07:34:26.744Z</time></trkpt><trkpt lat="43.521455" lon="10.723525"><ele>49.0</ele><time>2026-04-18T07:34:27.745Z</time></trkpt><trkpt lat="43.5213617" lon="10.72366"><ele>49.0</ele><time>2026-04-18T07:34:28.742Z</time></trkpt><trkpt lat="43.5212767" lon="10.7238"><ele>49.0</ele><time>2026-04-18T07:34:29.743Z</time></trkpt><trkpt lat="43.5211967" lon="10.7239383"><ele>49.0</ele><time>2026-04-18T07:34:30.766Z</time></trkpt><trkpt lat="43.52112" lon="10.7240783"><ele>49.0</ele><time>2026-04-18T07:34:31.749Z</time></trkpt><trkpt lat="43.5210333" lon="10.7242217"><ele>48.800000000000004</ele><time>2026-04-18T07:34:32.744Z</time></trkpt><trkpt lat="43.5209433" lon="10.7243617"><ele>48.6</ele><time>2026-04-18T07:34:33.746Z</time></trkpt><trkpt lat="43.5208633" lon="10.7244817"><ele>48.4</ele><time>2026-04-18T07:34:34.746Z</time></trkpt><trkpt lat="43.5208083" lon="10.7245883"><ele>48.2</ele><time>2026-04-18T07:34:35.744Z</time></trkpt><trkpt lat="43.520765" lon="10.7246883"><ele>48.0</ele><time>2026-04-18T07:34:36.74Z</time></trkpt><trkpt lat="43.5207433" lon="10.7248"><ele>48.0</ele><time>2026-04-18T07:34:37.742Z</time></trkpt><trkpt lat="43.5207367" lon="10.7249233"><ele>48.0</ele><time>2026-04-18T07:34:38.744Z</time></trkpt><trkpt lat="43.5207533" lon="10.7250967"><ele>48.0</ele><time>2026-04-18T07:34:39.743Z</time></trkpt><trkpt lat="43.52077" lon="10.725275"><ele>48.0</ele><time>2026-04-18T07:34:40.744Z</time></trkpt><trkpt lat="43.5207867" lon="10.7254567"><ele>48.25</ele><time>2026-04-18T07:34:41.745Z</time></trkpt><trkpt lat="43.5208217" lon="10.7256517"><ele>48.5</ele><time>2026-04-18T07:34:42.745Z</time></trkpt><trkpt lat="43.5208633" lon="10.725835"><ele>48.75</ele><time>2026-04-18T07:34:43.746Z</time></trkpt><trkpt lat="43.52091" lon="10.726"><ele>49.0</ele><time>2026-04-18T07:34:44.749Z</time></trkpt><trkpt lat="43.520945" lon="10.7261317"><ele>49.33333333333333</ele><time>2026-04-18T07:34:45.743Z</time></trkpt><trkpt lat="43.52097" lon="10.7262317"><ele>49.666666666666664</ele><time>2026-04-18T07:34:46.742Z</time></trkpt><trkpt lat="43.5209467" lon="10.7263617"><ele>50.0</ele><time>2026-04-18T07:34:48.748Z</time></trkpt><trkpt lat="43.52089" lon="10.7264167"><ele>50.33333333333333</ele><time>2026-04-18T07:34:49.744Z</time></trkpt><trkpt lat="43.52081" lon="10.72648"><ele>50.666666666666664</ele><time>2026-04-18T07:34:50.745Z</time></trkpt><trkpt lat="43.5207283" lon="10.72654"><ele>51.0</ele><time>2026-04-18T07:34:51.74Z</time></trkpt><trkpt lat="43.520645" lon="10.7265933"><ele>51.0</ele><time>2026-04-18T07:34:52.741Z</time></trkpt><trkpt lat="43.5205417" lon="10.7266433"><ele>51.0</ele><time>2026-04-18T07:34:53.742Z</time></trkpt><trkpt lat="43.5204383" lon="10.7267083"><ele>51.0</ele><time>2026-04-18T07:34:54.741Z</time></trkpt><trkpt lat="43.52034" lon="10.7267833"><ele>51.0</ele><time>2026-04-18T07:34:55.74Z</time></trkpt><trkpt lat="43.5202383" lon="10.7268667"><ele>51.0</ele><time>2026-04-18T07:34:56.746Z</time></trkpt><trkpt lat="43.5201417" lon="10.7269517"><ele>51.0</ele><time>2026-04-18T07:34:57.742Z</time></trkpt><trkpt lat="43.5200467" lon="10.7270383"><ele>51.0</ele><time>2026-04-18T07:34:58.743Z</time></trkpt><trkpt lat="43.51996" lon="10.727115"><ele>51.0</ele><time>2026-04-18T07:34:59.748Z</time></trkpt><trkpt lat="43.5198783" lon="10.7271833"><ele>51.0</ele><time>2026-04-18T07:35:00.742Z</time></trkpt><trkpt lat="43.519805" lon="10.7272517"><ele>51.0</ele><time>2026-04-18T07:35:01.743Z</time></trkpt><trkpt lat="43.519745" lon="10.7273217"><ele>51.0</ele><time>2026-04-18T07:35:02.744Z</time></trkpt><trkpt lat="43.5196783" lon="10.7274467"><ele>51.0</ele><time>2026-04-18T07:35:04.741Z</time></trkpt><trkpt lat="43.5196533" lon="10.7276017"><ele>51.0</ele><time>2026-04-18T07:35:06.742Z</time></trkpt><trkpt lat="43.519635" lon="10.7277667"><ele>51.0</ele><time>2026-04-18T07:35:08.744Z</time></trkpt><trkpt lat="43.5196383" lon="10.7278583"><ele>52.0</ele><time>2026-04-18T07:35:09.743Z</time></trkpt><trkpt lat="43.5196267" lon="10.7279583"><ele>53.0</ele><time>2026-04-18T07:35:10.742Z</time></trkpt><trkpt lat="43.5196417" lon="10.72809"><ele>53.99999999999999</ele><time>2026-04-18T07:35:11.745Z</time></trkpt><trkpt lat="43.5196483" lon="10.7282433"><ele>55.0</ele><time>2026-04-18T07:35:12.743Z</time></trkpt><trkpt lat="43.5196283" lon="10.728385"><ele>56.0</ele><time>2026-04-18T07:35:13.749Z</time></trkpt><trkpt lat="43.519605" lon="10.72851"><ele>56.66666666666667</ele><time>2026-04-18T07:35:14.744Z</time></trkpt><trkpt lat="43.5195917" lon="10.7286317"><ele>57.333333333333336</ele><time>2026-04-18T07:35:15.744Z</time></trkpt><trkpt lat="43.5195983" lon="10.7287417"><ele>58.0</ele><time>2026-04-18T07:35:16.743Z</time></trkpt><trkpt lat="43.5196067" lon="10.728855"><ele>58.66666666666667</ele><time>2026-04-18T07:35:17.745Z</time></trkpt><trkpt lat="43.519615" lon="10.72897"><ele>59.333333333333336</ele><time>2026-04-18T07:35:18.746Z</time></trkpt><trkpt lat="43.5196217" lon="10.729095"><ele>60.0</ele><time>2026-04-18T07:35:19.742Z</time></trkpt><trkpt lat="43.5196467" lon="10.7292067"><ele>60.0</ele><time>2026-04-18T07:35:20.742Z</time></trkpt><trkpt lat="43.5196583" lon="10.72932"><ele>60.0</ele><time>2026-04-18T07:35:21.744Z</time></trkpt><trkpt lat="43.51967" lon="10.7294317"><ele>60.0</ele><time>2026-04-18T07:35:22.749Z</time></trkpt><trkpt lat="43.5197017" lon="10.729525"><ele>60.0</ele><time>2026-04-18T07:35:23.743Z</time></trkpt><trkpt lat="43.5196983" lon="10.7296217"><ele>60.0</ele><time>2026-04-18T07:35:24.742Z</time></trkpt><trkpt lat="43.5196883" lon="10.7297083"><ele>60.0</ele><time>2026-04-18T07:35:25.742Z</time></trkpt><trkpt lat="43.5196683" lon="10.729795"><ele>60.0</ele><time>2026-04-18T07:35:26.743Z</time></trkpt><trkpt lat="43.519655" lon="10.7298883"><ele>60.333333333333336</ele><time>2026-04-18T07:35:27.743Z</time></trkpt><trkpt lat="43.51964" lon="10.7299833"><ele>60.66666666666667</ele><time>2026-04-18T07:35:28.746Z</time></trkpt><trkpt lat="43.51961" lon="10.7300867"><ele>61.0</ele><time>2026-04-18T07:35:29.744Z</time></trkpt><trkpt lat="43.519595" lon="10.7301833"><ele>61.333333333333336</ele><time>2026-04-18T07:35:30.749Z</time></trkpt><trkpt lat="43.5195783" lon="10.7302683"><ele>61.66666666666667</ele><time>2026-04-18T07:35:31.745Z</time></trkpt><trkpt lat="43.5195933" lon="10.7304217"><ele>62.0</ele><time>2026-04-18T07:35:33.745Z</time></trkpt><trkpt lat="43.5195917" lon="10.7305233"><ele>62.833333333333336</ele><time>2026-04-18T07:35:34.743Z</time></trkpt><trkpt lat="43.5195667" lon="10.7306217"><ele>63.66666666666667</ele><time>2026-04-18T07:35:35.743Z</time></trkpt><trkpt lat="43.5195967" lon="10.73073"><ele>64.5</ele><time>2026-04-18T07:35:36.744Z</time></trkpt><trkpt lat="43.5196267" lon="10.7308467"><ele>65.33333333333333</ele><time>2026-04-18T07:35:37.743Z</time></trkpt><trkpt lat="43.5196333" lon="10.7309583"><ele>66.16666666666666</ele><time>2026-04-18T07:35:38.744Z</time></trkpt><trkpt lat="43.51964" lon="10.7310767"><ele>67.0</ele><time>2026-04-18T07:35:39.747Z</time></trkpt><trkpt lat="43.5196483" lon="10.7311983"><ele>69.4</ele><time>2026-04-18T07:35:40.742Z</time></trkpt><trkpt lat="43.5196467" lon="10.7313"><ele>71.80000000000001</ele><time>2026-04-18T07:35:41.742Z</time></trkpt><trkpt lat="43.51964" lon="10.73145"><ele>74.2</ele><time>2026-04-18T07:35:43.742Z</time></trkpt><trkpt lat="43.5196667" lon="10.7316033"><ele>76.60000000000001</ele><time>2026-04-18T07:35:45.742Z</time></trkpt><trkpt lat="43.5197167" lon="10.731755"><ele>79.0</ele><time>2026-04-18T07:35:47.741Z</time></trkpt><trkpt lat="43.5197567" lon="10.7319117"><ele>80.16666666666666</ele><time>2026-04-18T07:35:49.745Z</time></trkpt><trkpt lat="43.5197783" lon="10.7319933"><ele>81.33333333333333</ele><time>2026-04-18T07:35:50.743Z</time></trkpt><trkpt lat="43.519815" lon="10.7320917"><ele>82.5</ele><time>2026-04-18T07:35:51.742Z</time></trkpt><trkpt lat="43.519845" lon="10.7321917"><ele>83.66666666666667</ele><time>2026-04-18T07:35:52.746Z</time></trkpt><trkpt lat="43.5198617" lon="10.7322867"><ele>84.83333333333334</ele><time>2026-04-18T07:35:53.744Z</time></trkpt><trkpt lat="43.5198583" lon="10.7323933"><ele>86.0</ele><time>2026-04-18T07:35:54.741Z</time></trkpt><trkpt lat="43.5198617" lon="10.7325033"><ele>86.0</ele><time>2026-04-18T07:35:55.743Z</time></trkpt><trkpt lat="43.5198617" lon="10.7326167"><ele>86.0</ele><time>2026-04-18T07:35:56.746Z</time></trkpt><trkpt lat="43.5198483" lon="10.7327333"><ele>86.0</ele><time>2026-04-18T07:35:57.749Z</time></trkpt><trkpt lat="43.5198333" lon="10.7328417"><ele>86.0</ele><time>2026-04-18T07:35:58.746Z</time></trkpt><trkpt lat="43.519845" lon="10.73295"><ele>86.0</ele><time>2026-04-18T07:35:59.744Z</time></trkpt><trkpt lat="43.51985" lon="10.7330617"><ele>86.0</ele><time>2026-04-18T07:36:00.751Z</time></trkpt><trkpt lat="43.51986" lon="10.7332"><ele>88.0</ele><time>2026-04-18T07:36:01.747Z</time></trkpt><trkpt lat="43.5198683" lon="10.733345"><ele>90.0</ele><time>2026-04-18T07:36:02.747Z</time></trkpt><trkpt lat="43.51986" lon="10.7334783"><ele>92.0</ele><time>2026-04-18T07:36:03.743Z</time></trkpt><trkpt lat="43.5198717" lon="10.7335983"><ele>94.0</ele><time>2026-04-18T07:36:04.742Z</time></trkpt><trkpt lat="43.51984" lon="10.7337133"><ele>96.0</ele><time>2026-04-18T07:36:05.742Z</time></trkpt><trkpt lat="43.5198383" lon="10.733835"><ele>96.4</ele><time>2026-04-18T07:36:06.745Z</time></trkpt><trkpt lat="43.5198267" lon="10.7339583"><ele>96.8</ele><time>2026-04-18T07:36:07.745Z</time></trkpt><trkpt lat="43.5198167" lon="10.73407"><ele>97.2</ele><time>2026-04-18T07:36:08.749Z</time></trkpt><trkpt lat="43.519815" lon="10.734165"><ele>97.60000000000001</ele><time>2026-04-18T07:36:09.745Z</time></trkpt><trkpt lat="43.5198267" lon="10.734315"><ele>98.0</ele><time>2026-04-18T07:36:11.745Z</time></trkpt><trkpt lat="43.5199217" lon="10.734395"><ele>97.99999999999999</ele><time>2026-04-18T07:36:13.744Z</time></trkpt><trkpt lat="43.51998" lon="10.73443"><ele>98.0</ele><time>2026-04-18T07:36:14.746Z</time></trkpt><trkpt lat="43.5200367" lon="10.7344683"><ele>98.0</ele><time>2026-04-18T07:36:15.744Z</time></trkpt><trkpt lat="43.52014" lon="10.7345583"><ele>98.0</ele><time>2026-04-18T07:36:17.74Z</time></trkpt><trkpt lat="43.5202" lon="10.7346167"><ele>97.99999999999999</ele><time>2026-04-18T07:36:18.742Z</time></trkpt><trkpt lat="43.5202783" lon="10.7346833"><ele>98.0</ele><time>2026-04-18T07:36:19.745Z</time></trkpt><trkpt lat="43.520375" lon="10.7347667"><ele>100.33333333333333</ele><time>2026-04-18T07:36:20.747Z</time></trkpt><trkpt lat="43.5204617" lon="10.734845"><ele>102.66666666666666</ele><time>2026-04-18T07:36:21.746Z</time></trkpt><trkpt lat="43.520545" lon="10.73492"><ele>105.0</ele><time>2026-04-18T07:36:22.746Z</time></trkpt><trkpt lat="43.520615" lon="10.7349833"><ele>107.33333333333334</ele><time>2026-04-18T07:36:23.748Z</time></trkpt><trkpt lat="43.52067" lon="10.73506"><ele>109.66666666666667</ele><time>2026-04-18T07:36:24.746Z</time></trkpt><trkpt lat="43.5207083" lon="10.7351433"><ele>112.0</ele><time>2026-04-18T07:36:25.745Z</time></trkpt><trkpt lat="43.5207483" lon="10.7353"><ele>112.50000000000001</ele><time>2026-04-18T07:36:27.743Z</time></trkpt><trkpt lat="43.5208033" lon="10.73545"><ele>113.0</ele><time>2026-04-18T07:36:29.742Z</time></trkpt><trkpt lat="43.5208467" lon="10.735515"><ele>113.5</ele><time>2026-04-18T07:36:30.743Z</time></trkpt><trkpt lat="43.5208933" lon="10.735575"><ele>114.0</ele><time>2026-04-18T07:36:31.744Z</time></trkpt><trkpt lat="43.5209383" lon="10.7356367"><ele>114.50000000000001</ele><time>2026-04-18T07:36:32.747Z</time></trkpt><trkpt lat="43.520985" lon="10.7357"><ele>115.0</ele><time>2026-04-18T07:36:33.743Z</time></trkpt><trkpt lat="43.5210767" lon="10.735825"><ele>114.99999999999999</ele><time>2026-04-18T07:36:35.742Z</time></trkpt><trkpt lat="43.5211283" lon="10.7358767"><ele>115.0</ele><time>2026-04-18T07:36:36.743Z</time></trkpt><trkpt lat="43.5211867" lon="10.7359317"><ele>114.99999999999999</ele><time>2026-04-18T07:36:37.743Z</time></trkpt><trkpt lat="43.521245" lon="10.735995"><ele>114.99999999999999</ele><time>2026-04-18T07:36:38.746Z</time></trkpt><trkpt lat="43.5213083" lon="10.7360467"><ele>115.0</ele><time>2026-04-18T07:36:39.743Z</time></trkpt><trkpt lat="43.5213667" lon="10.7361117"><ele>114.99999999999999</ele><time>2026-04-18T07:36:40.742Z</time></trkpt><trkpt lat="43.5214317" lon="10.7361667"><ele>114.99999999999999</ele><time>2026-04-18T07:36:41.745Z</time></trkpt><trkpt lat="43.5214883" lon="10.7362533"><ele>118.16666666666667</ele><time>2026-04-18T07:36:42.744Z</time></trkpt><trkpt lat="43.52155" lon="10.7363367"><ele>121.33333333333334</ele><time>2026-04-18T07:36:43.747Z</time></trkpt><trkpt lat="43.5216033" lon="10.7364267"><ele>124.5</ele><time>2026-04-18T07:36:44.745Z</time></trkpt><trkpt lat="43.521665" lon="10.7364783"><ele>127.66666666666666</ele><time>2026-04-18T07:36:45.742Z</time></trkpt><trkpt lat="43.5217117" lon="10.7365467"><ele>130.83333333333331</ele><time>2026-04-18T07:36:46.748Z</time></trkpt><trkpt lat="43.5217567" lon="10.7366217"><ele>134.0</ele><time>2026-04-18T07:36:47.745Z</time></trkpt><trkpt lat="43.5218117" lon="10.736705"><ele>134.0</ele><time>2026-04-18T07:36:48.742Z</time></trkpt><trkpt lat="43.5218717" lon="10.7368083"><ele>134.0</ele><time>2026-04-18T07:36:49.749Z</time></trkpt><trkpt lat="43.521935" lon="10.7369017"><ele>134.0</ele><time>2026-04-18T07:36:50.747Z</time></trkpt><trkpt lat="43.52199" lon="10.73698"><ele>134.0</ele><time>2026-04-18T07:36:51.746Z</time></trkpt><trkpt lat="43.5220417" lon="10.7370417"><ele>134.0</ele><time>2026-04-18T07:36:52.746Z</time></trkpt><trkpt lat="43.5221117" lon="10.7371117"><ele>134.0</ele><time>2026-04-18T07:36:54.751Z</time></trkpt><trkpt lat="43.52212" lon="10.737205"><ele>133.66666666666666</ele><time>2026-04-18T07:41:47.747Z</time></trkpt><trkpt lat="43.5220917" lon="10.7373767"><ele>133.33333333333331</ele><time>2026-04-18T07:41:49.744Z</time></trkpt><trkpt lat="43.52207" lon="10.7374717"><ele>133.0</ele><time>2026-04-18T07:41:50.743Z</time></trkpt><trkpt lat="43.5220517" lon="10.7375783"><ele>132.66666666666666</ele><time>2026-04-18T07:41:51.744Z</time></trkpt><trkpt lat="43.52202" lon="10.7376783"><ele>132.33333333333334</ele><time>2026-04-18T07:41:52.746Z</time></trkpt><trkpt lat="43.5219817" lon="10.7377783"><ele>132.0</ele><time>2026-04-18T07:41:53.742Z</time></trkpt><trkpt lat="43.521935" lon="10.7378767"><ele>134.0</ele><time>2026-04-18T07:41:54.747Z</time></trkpt><trkpt lat="43.521875" lon="10.7379483"><ele>136.0</ele><time>2026-04-18T07:41:55.744Z</time></trkpt><trkpt lat="43.52182" lon="10.7380083"><ele>138.0</ele><time>2026-04-18T07:41:56.743Z</time></trkpt><trkpt lat="43.5217733" lon="10.7380733"><ele>140.0</ele><time>2026-04-18T07:41:57.744Z</time></trkpt><trkpt lat="43.5217417" lon="10.73815"><ele>142.0</ele><time>2026-04-18T07:41:58.743Z</time></trkpt><trkpt lat="43.521735" lon="10.73824"><ele>144.0</ele><time>2026-04-18T07:41:59.748Z</time></trkpt><trkpt lat="43.52174" lon="10.73841"><ele>144.0</ele><time>2026-04-18T07:42:01.743Z</time></trkpt><trkpt lat="43.5217517" lon="10.7385033"><ele>144.0</ele><time>2026-04-18T07:42:02.743Z</time></trkpt><trkpt lat="43.5217733" lon="10.7386033"><ele>144.0</ele><time>2026-04-18T07:42:03.746Z</time></trkpt><trkpt lat="43.5217983" lon="10.73871"><ele>144.0</ele><time>2026-04-18T07:42:04.743Z</time></trkpt><trkpt lat="43.521825" lon="10.7388133"><ele>144.0</ele><time>2026-04-18T07:42:05.747Z</time></trkpt><trkpt lat="43.52185" lon="10.73892"><ele>144.0</ele><time>2026-04-18T07:42:06.74Z</time></trkpt><trkpt lat="43.5218833" lon="10.7390267"><ele>144.00000000000003</ele><time>2026-04-18T07:42:07.745Z</time></trkpt><trkpt lat="43.5219217" lon="10.739125"><ele>144.0</ele><time>2026-04-18T07:42:08.745Z</time></trkpt><trkpt lat="43.5219517" lon="10.7392217"><ele>144.0</ele><time>2026-04-18T07:42:09.746Z</time></trkpt><trkpt lat="43.52198" lon="10.7393067"><ele>144.0</ele><time>2026-04-18T07:42:10.743Z</time></trkpt><trkpt lat="43.5220117" lon="10.739385"><ele>144.0</ele><time>2026-04-18T07:42:11.743Z</time></trkpt><trkpt lat="43.522045" lon="10.739465"><ele>144.00000000000003</ele><time>2026-04-18T07:42:12.743Z</time></trkpt><trkpt lat="43.5220733" lon="10.7395533"><ele>144.0</ele><time>2026-04-18T07:42:13.744Z</time></trkpt><trkpt lat="43.5221017" lon="10.739635"><ele>145.71428571428572</ele><time>2026-04-18T07:42:14.745Z</time></trkpt><trkpt lat="43.5221283" lon="10.7397167"><ele>147.42857142857144</ele><time>2026-04-18T07:42:15.746Z</time></trkpt><trkpt lat="43.5221567" lon="10.7398033"><ele>149.14285714285717</ele><time>2026-04-18T07:42:16.742Z</time></trkpt><trkpt lat="43.5221817" lon="10.73989"><ele>150.85714285714286</ele><time>2026-04-18T07:42:17.745Z</time></trkpt><trkpt lat="43.5222117" lon="10.73998"><ele>152.57142857142856</ele><time>2026-04-18T07:42:18.744Z</time></trkpt><trkpt lat="43.5222483" lon="10.7400667"><ele>154.2857142857143</ele><time>2026-04-18T07:42:19.743Z</time></trkpt><trkpt lat="43.5222867" lon="10.7401583"><ele>156.0</ele><time>2026-04-18T07:42:20.744Z</time></trkpt><trkpt lat="43.5223217" lon="10.7402483"><ele>156.57142857142858</ele><time>2026-04-18T07:42:21.746Z</time></trkpt><trkpt lat="43.5223583" lon="10.7403417"><ele>157.14285714285714</ele><time>2026-04-18T07:42:22.742Z</time></trkpt><trkpt lat="43.5223917" lon="10.7404383"><ele>157.71428571428572</ele><time>2026-04-18T07:42:23.74Z</time></trkpt><trkpt lat="43.52243" lon="10.74053"><ele>158.28571428571428</ele><time>2026-04-18T07:42:24.74Z</time></trkpt><trkpt lat="43.5224683" lon="10.7406217"><ele>158.85714285714286</ele><time>2026-04-18T07:42:25.742Z</time></trkpt><trkpt lat="43.5225083" lon="10.7407067"><ele>159.42857142857142</ele><time>2026-04-18T07:42:26.746Z</time></trkpt><trkpt lat="43.522545" lon="10.7407833"><ele>160.0</ele><time>2026-04-18T07:42:27.744Z</time></trkpt><trkpt lat="43.5226067" lon="10.740925"><ele>159.8</ele><time>2026-04-18T07:42:29.742Z</time></trkpt><trkpt lat="43.5226717" lon="10.7410667"><ele>159.6</ele><time>2026-04-18T07:42:31.742Z</time></trkpt><trkpt lat="43.5227117" lon="10.7411383"><ele>159.4</ele><time>2026-04-18T07:42:32.741Z</time></trkpt><trkpt lat="43.52276" lon="10.7412017"><ele>159.2</ele><time>2026-04-18T07:42:33.744Z</time></trkpt><trkpt lat="43.52284" lon="10.7413283"><ele>159.0</ele><time>2026-04-18T07:42:35.744Z</time></trkpt><trkpt lat="43.52293" lon="10.741425"><ele>159.0</ele><time>2026-04-18T07:42:37.745Z</time></trkpt><trkpt lat="43.5230333" lon="10.7415183"><ele>159.0</ele><time>2026-04-18T07:42:39.745Z</time></trkpt><trkpt lat="43.5230883" lon="10.741565"><ele>159.0</ele><time>2026-04-18T07:42:40.742Z</time></trkpt><trkpt lat="43.5231367" lon="10.7416217"><ele>159.0</ele><time>2026-04-18T07:42:41.743Z</time></trkpt><trkpt lat="43.5231883" lon="10.741675"><ele>159.0</ele><time>2026-04-18T07:42:42.742Z</time></trkpt><trkpt lat="43.5232383" lon="10.7417383"><ele>159.0</ele><time>2026-04-18T07:42:43.743Z</time></trkpt><trkpt lat="43.5232917" lon="10.7417933"><ele>159.0</ele><time>2026-04-18T07:42:44.746Z</time></trkpt><trkpt lat="43.5233467" lon="10.74185"><ele>159.0</ele><time>2026-04-18T07:42:45.743Z</time></trkpt><trkpt lat="43.5234017" lon="10.7419033"><ele>159.0</ele><time>2026-04-18T07:42:46.743Z</time></trkpt><trkpt lat="43.52346" lon="10.7419533"><ele>159.0</ele><time>2026-04-18T07:42:47.74Z</time></trkpt><trkpt lat="43.523525" lon="10.7419917"><ele>159.0</ele><time>2026-04-18T07:42:48.746Z</time></trkpt><trkpt lat="43.5236" lon="10.7420083"><ele>159.0</ele><time>2026-04-18T07:42:49.745Z</time></trkpt><trkpt lat="43.52367" lon="10.7420117"><ele>159.0</ele><time>2026-04-18T07:42:50.746Z</time></trkpt><trkpt lat="43.5237333" lon="10.74201"><ele>159.6</ele><time>2026-04-18T07:42:51.746Z</time></trkpt><trkpt lat="43.5238417" lon="10.7419917"><ele>160.2</ele><time>2026-04-18T07:42:53.744Z</time></trkpt><trkpt lat="43.52395" lon="10.7419733"><ele>160.79999999999998</ele><time>2026-04-18T07:42:55.742Z</time></trkpt><trkpt lat="43.5240683" lon="10.74193"><ele>161.4</ele><time>2026-04-18T07:42:57.743Z</time></trkpt><trkpt lat="43.5241317" lon="10.7419083"><ele>162.0</ele><time>2026-04-18T07:42:58.746Z</time></trkpt><trkpt lat="43.5241933" lon="10.741885"><ele>162.42857142857144</ele><time>2026-04-18T07:42:59.747Z</time></trkpt><trkpt lat="43.5242567" lon="10.7418617"><ele>162.85714285714286</ele><time>2026-04-18T07:43:00.744Z</time></trkpt><trkpt lat="43.5243183" lon="10.741835"><ele>163.28571428571428</ele><time>2026-04-18T07:43:01.745Z</time></trkpt><trkpt lat="43.52438" lon="10.7418017"><ele>163.71428571428572</ele><time>2026-04-18T07:43:02.75Z</time></trkpt><trkpt lat="43.5244483" lon="10.7417833"><ele>164.14285714285714</ele><time>2026-04-18T07:43:03.752Z</time></trkpt><trkpt lat="43.52452" lon="10.7417767"><ele>164.57142857142858</ele><time>2026-04-18T07:43:04.742Z</time></trkpt><trkpt lat="43.5246017" lon="10.7417833"><ele>165.0</ele><time>2026-04-18T07:43:05.745Z</time></trkpt><trkpt lat="43.52468" lon="10.7417867"><ele>166.00000000000003</ele><time>2026-04-18T07:43:06.748Z</time></trkpt><trkpt lat="43.524755" lon="10.7418"><ele>167.0</ele><time>2026-04-18T07:43:07.745Z</time></trkpt><trkpt lat="43.5248283" lon="10.7418183"><ele>168.0</ele><time>2026-04-18T07:43:08.746Z</time></trkpt><trkpt lat="43.5248983" lon="10.7418317"><ele>169.0</ele><time>2026-04-18T07:43:09.747Z</time></trkpt><trkpt lat="43.5249717" lon="10.7418367"><ele>170.0</ele><time>2026-04-18T07:43:10.75Z</time></trkpt><trkpt lat="43.5250417" lon="10.74183"><ele>171.00000000000003</ele><time>2026-04-18T07:43:11.746Z</time></trkpt><trkpt lat="43.5251083" lon="10.741815"><ele>172.0</ele><time>2026-04-18T07:43:12.744Z</time></trkpt><trkpt lat="43.5251783" lon="10.7417967"><ele>172.00000000000003</ele><time>2026-04-18T07:43:13.747Z</time></trkpt><trkpt lat="43.525245" lon="10.7417717"><ele>172.0</ele><time>2026-04-18T07:43:14.745Z</time></trkpt><trkpt lat="43.5253133" lon="10.7417417"><ele>172.0</ele><time>2026-04-18T07:43:15.742Z</time></trkpt><trkpt lat="43.5253817" lon="10.741715"><ele>172.0</ele><time>2026-04-18T07:43:16.746Z</time></trkpt><trkpt lat="43.5254483" lon="10.741675"><ele>172.0</ele><time>2026-04-18T07:43:17.752Z</time></trkpt><trkpt lat="43.5255183" lon="10.741625"><ele>172.00000000000003</ele><time>2026-04-18T07:43:18.745Z</time></trkpt><trkpt lat="43.5255867" lon="10.7415717"><ele>172.0</ele><time>2026-04-18T07:43:19.748Z</time></trkpt><trkpt lat="43.5256517" lon="10.74152"><ele>171.5</ele><time>2026-04-18T07:43:20.744Z</time></trkpt><trkpt lat="43.5257083" lon="10.7414683"><ele>171.0</ele><time>2026-04-18T07:43:21.743Z</time></trkpt><trkpt lat="43.5258083" lon="10.7413817"><ele>170.5</ele><time>2026-04-18T07:43:23.745Z</time></trkpt><trkpt lat="43.5258917" lon="10.7413117"><ele>170.0</ele><time>2026-04-18T07:43:25.743Z</time></trkpt><trkpt lat="43.5259433" lon="10.7412433"><ele>169.5</ele><time>2026-04-18T07:43:44.751Z</time></trkpt><trkpt lat="43.52601" lon="10.7413283"><ele>169.0</ele><time>2026-04-18T07:44:06.746Z</time></trkpt><trkpt lat="43.52607" lon="10.7414767"><ele>169.0</ele><time>2026-04-18T07:44:08.742Z</time></trkpt><trkpt lat="43.526125" lon="10.74156"><ele>169.0</ele><time>2026-04-18T07:44:09.743Z</time></trkpt><trkpt lat="43.5261867" lon="10.741635"><ele>169.0</ele><time>2026-04-18T07:44:10.742Z</time></trkpt><trkpt lat="43.5262617" lon="10.7417067"><ele>169.0</ele><time>2026-04-18T07:44:11.745Z</time></trkpt><trkpt lat="43.52633" lon="10.7418067"><ele>169.0</ele><time>2026-04-18T07:44:12.743Z</time></trkpt><trkpt lat="43.52641" lon="10.7419183"><ele>169.5</ele><time>2026-04-18T07:44:13.742Z</time></trkpt><trkpt lat="43.5264967" lon="10.74206"><ele>170.0</ele><time>2026-04-18T07:44:14.746Z</time></trkpt><trkpt lat="43.5265933" lon="10.742195"><ele>170.5</ele><time>2026-04-18T07:44:15.743Z</time></trkpt><trkpt lat="43.526685" lon="10.7423283"><ele>171.0</ele><time>2026-04-18T07:44:16.747Z</time></trkpt><trkpt lat="43.5267717" lon="10.7424567"><ele>171.0</ele><time>2026-04-18T07:44:17.741Z</time></trkpt><trkpt lat="43.5268533" lon="10.7425817"><ele>171.0</ele><time>2026-04-18T07:44:18.743Z</time></trkpt><trkpt lat="43.5269233" lon="10.7427217"><ele>171.0</ele><time>2026-04-18T07:44:19.751Z</time></trkpt><trkpt lat="43.5269883" lon="10.7428717"><ele>171.0</ele><time>2026-04-18T07:44:20.744Z</time></trkpt><trkpt lat="43.5270333" lon="10.7430483"><ele>171.0</ele><time>2026-04-18T07:44:21.746Z</time></trkpt><trkpt lat="43.5270917" lon="10.7432117"><ele>171.0</ele><time>2026-04-18T07:44:22.752Z</time></trkpt><trkpt lat="43.527135" lon="10.7433717"><ele>171.0</ele><time>2026-04-18T07:44:23.748Z</time></trkpt><trkpt lat="43.5271783" lon="10.743515"><ele>171.0</ele><time>2026-04-18T07:44:24.745Z</time></trkpt><trkpt lat="43.5272017" lon="10.7436533"><ele>171.0</ele><time>2026-04-18T07:44:25.745Z</time></trkpt><trkpt lat="43.5272233" lon="10.7437683"><ele>171.0</ele><time>2026-04-18T07:44:26.747Z</time></trkpt><trkpt lat="43.5272483" lon="10.7438783"><ele>171.0</ele><time>2026-04-18T07:44:27.744Z</time></trkpt><trkpt lat="43.52728" lon="10.743975"><ele>171.0</ele><time>2026-04-18T07:44:28.743Z</time></trkpt><trkpt lat="43.527315" lon="10.7440567"><ele>171.0</ele><time>2026-04-18T07:44:29.745Z</time></trkpt><trkpt lat="43.5273683" lon="10.7441367"><ele>171.0</ele><time>2026-04-18T07:44:30.744Z</time></trkpt><trkpt lat="43.52742" lon="10.7442033"><ele>171.0</ele><time>2026-04-18T07:44:31.742Z</time></trkpt><trkpt lat="43.5274967" lon="10.7442483"><ele>171.0</ele><time>2026-04-18T07:44:32.743Z</time></trkpt><trkpt lat="43.527575" lon="10.7442717"><ele>171.0</ele><time>2026-04-18T07:44:33.741Z</time></trkpt><trkpt lat="43.5276483" lon="10.7443167"><ele>171.0</ele><time>2026-04-18T07:44:34.744Z</time></trkpt><trkpt lat="43.527715" lon="10.7443483"><ele>171.0</ele><time>2026-04-18T07:44:35.741Z</time></trkpt><trkpt lat="43.527775" lon="10.7443833"><ele>171.0</ele><time>2026-04-18T07:44:36.746Z</time></trkpt><trkpt lat="43.5278383" lon="10.7444283"><ele>170.0</ele><time>2026-04-18T07:44:37.752Z</time></trkpt><trkpt lat="43.5279683" lon="10.744505"><ele>169.0</ele><time>2026-04-18T07:44:39.745Z</time></trkpt><trkpt lat="43.5280283" lon="10.7445683"><ele>168.0</ele><time>2026-04-18T07:44:40.746Z</time></trkpt><trkpt lat="43.5280933" lon="10.7446333"><ele>167.0</ele><time>2026-04-18T07:44:41.747Z</time></trkpt><trkpt lat="43.5281533" lon="10.74469"><ele>166.0</ele><time>2026-04-18T07:44:42.754Z</time></trkpt><trkpt lat="43.5281917" lon="10.7447833"><ele>165.0</ele><time>2026-04-18T07:44:43.743Z</time></trkpt><trkpt lat="43.5282333" lon="10.7448717"><ele>165.0</ele><time>2026-04-18T07:44:44.743Z</time></trkpt><trkpt lat="43.528275" lon="10.7449683"><ele>165.0</ele><time>2026-04-18T07:44:45.746Z</time></trkpt><trkpt lat="43.5283217" lon="10.74506"><ele>165.0</ele><time>2026-04-18T07:44:46.743Z</time></trkpt><trkpt lat="43.5283683" lon="10.7452133"><ele>165.0</ele><time>2026-04-18T07:44:48.742Z</time></trkpt><trkpt lat="43.5284267" lon="10.7453267"><ele>165.0</ele><time>2026-04-18T07:44:50.742Z</time></trkpt><trkpt lat="43.5284767" lon="10.745405"><ele>165.00000000000003</ele><time>2026-04-18T07:44:53.748Z</time></trkpt><trkpt lat="43.528545" lon="10.7454117"><ele>165.0</ele><time>2026-04-18T07:44:57.744Z</time></trkpt><trkpt lat="43.5285733" lon="10.7453333"><ele>165.0</ele><time>2026-04-18T07:45:00.745Z</time></trkpt><trkpt lat="43.5286483" lon="10.74529"><ele>165.0</ele><time>2026-04-18T07:45:04.742Z</time></trkpt><trkpt lat="43.5287133" lon="10.7452833"><ele>165.0</ele><time>2026-04-18T07:45:06.745Z</time></trkpt><trkpt lat="43.5288067" lon="10.7452467"><ele>165.00000000000003</ele><time>2026-04-18T07:45:09.744Z</time></trkpt><trkpt lat="43.528875" lon="10.7452333"><ele>165.0</ele><time>2026-04-18T07:45:11.748Z</time></trkpt><trkpt lat="43.528955" lon="10.7452167"><ele>165.0</ele><time>2026-04-18T07:45:13.744Z</time></trkpt><trkpt lat="43.5290433" lon="10.745215"><ele>165.0</ele><time>2026-04-18T07:45:15.742Z</time></trkpt><trkpt lat="43.52913" lon="10.7452083"><ele>165.0</ele><time>2026-04-18T07:45:17.745Z</time></trkpt><trkpt lat="43.52921" lon="10.745175"><ele>165.0</ele><time>2026-04-18T07:45:19.746Z</time></trkpt><trkpt lat="43.5292917" lon="10.745145"><ele>165.0</ele><time>2026-04-18T07:45:21.743Z</time></trkpt><trkpt lat="43.5293717" lon="10.74514"><ele>165.0</ele><time>2026-04-18T07:45:24.75Z</time></trkpt><trkpt lat="43.5294367" lon="10.745165"><ele>165.0</ele><time>2026-04-18T07:45:27.746Z</time></trkpt><trkpt lat="43.529505" lon="10.745215"><ele>165.0</ele><time>2026-04-18T07:45:29.744Z</time></trkpt><trkpt lat="43.5296033" lon="10.7452817"><ele>165.0</ele><time>2026-04-18T07:45:31.745Z</time></trkpt><trkpt lat="43.5297" lon="10.745325"><ele>165.0</ele><time>2026-04-18T07:45:33.745Z</time></trkpt><trkpt lat="43.5297767" lon="10.745325"><ele>165.0</ele><time>2026-04-18T07:45:35.745Z</time></trkpt><trkpt lat="43.5299033" lon="10.7452817"><ele>163.4</ele><time>2026-04-18T07:45:37.748Z</time></trkpt><trkpt lat="43.5299967" lon="10.7452317"><ele>161.8</ele><time>2026-04-18T07:45:38.755Z</time></trkpt><trkpt lat="43.5301033" lon="10.74514"><ele>160.2</ele><time>2026-04-18T07:45:39.745Z</time></trkpt><trkpt lat="43.5301917" lon="10.7450583"><ele>158.6</ele><time>2026-04-18T07:45:40.745Z</time></trkpt><trkpt lat="43.5302733" lon="10.74497"><ele>157.0</ele><time>2026-04-18T07:45:41.746Z</time></trkpt><trkpt lat="43.530355" lon="10.7448983"><ele>156.79999999999998</ele><time>2026-04-18T07:45:42.744Z</time></trkpt><trkpt lat="43.530445" lon="10.7448217"><ele>156.6</ele><time>2026-04-18T07:45:43.747Z</time></trkpt><trkpt lat="43.53054" lon="10.74476"><ele>156.39999999999998</ele><time>2026-04-18T07:45:44.751Z</time></trkpt><trkpt lat="43.530625" lon="10.7447067"><ele>156.2</ele><time>2026-04-18T07:45:45.747Z</time></trkpt><trkpt lat="43.53071" lon="10.744635"><ele>156.0</ele><time>2026-04-18T07:45:46.751Z</time></trkpt><trkpt lat="43.530785" lon="10.74458"><ele>156.0</ele><time>2026-04-18T07:45:47.748Z</time></trkpt><trkpt lat="43.5308483" lon="10.7444983"><ele>156.0</ele><time>2026-04-18T07:45:48.746Z</time></trkpt><trkpt lat="43.5309017" lon="10.7443917"><ele>156.0</ele><time>2026-04-18T07:45:49.744Z</time></trkpt><trkpt lat="43.530945" lon="10.74427"><ele>156.0</ele><time>2026-04-18T07:45:50.743Z</time></trkpt><trkpt lat="43.5309417" lon="10.7441033"><ele>156.0</ele><time>2026-04-18T07:45:51.742Z</time></trkpt><trkpt lat="43.5309433" lon="10.7439583"><ele>156.0</ele><time>2026-04-18T07:45:52.746Z</time></trkpt><trkpt lat="43.5309383" lon="10.743815"><ele>156.0</ele><time>2026-04-18T07:45:53.743Z</time></trkpt><trkpt lat="43.5309317" lon="10.74366"><ele>156.0</ele><time>2026-04-18T07:45:54.748Z</time></trkpt><trkpt lat="43.5308967" lon="10.7435017"><ele>156.0</ele><time>2026-04-18T07:45:55.745Z</time></trkpt><trkpt lat="43.5308667" lon="10.7433467"><ele>157.0</ele><time>2026-04-18T07:45:56.752Z</time></trkpt><trkpt lat="43.530855" lon="10.7432133"><ele>158.0</ele><time>2026-04-18T07:45:57.748Z</time></trkpt><trkpt lat="43.530825" lon="10.7430867"><ele>159.0</ele><time>2026-04-18T07:45:58.748Z</time></trkpt><trkpt lat="43.53082" lon="10.7429767"><ele>160.0</ele><time>2026-04-18T07:45:59.748Z</time></trkpt><trkpt lat="43.5308417" lon="10.7428633"><ele>161.0</ele><time>2026-04-18T07:46:00.747Z</time></trkpt><trkpt lat="43.530855" lon="10.74276"><ele>162.0</ele><time>2026-04-18T07:46:01.746Z</time></trkpt><trkpt lat="43.5308867" lon="10.742625"><ele>162.8</ele><time>2026-04-18T07:46:03.744Z</time></trkpt><trkpt lat="43.530885" lon="10.7424533"><ele>163.6</ele><time>2026-04-18T07:46:05.743Z</time></trkpt><trkpt lat="43.5308767" lon="10.7423383"><ele>164.4</ele><time>2026-04-18T07:46:06.751Z</time></trkpt><trkpt lat="43.5308433" lon="10.7422017"><ele>165.20000000000002</ele><time>2026-04-18T07:46:07.749Z</time></trkpt><trkpt lat="43.5308167" lon="10.7420533"><ele>166.0</ele><time>2026-04-18T07:46:08.749Z</time></trkpt><trkpt lat="43.5307717" lon="10.7419117"><ele>166.5</ele><time>2026-04-18T07:46:09.746Z</time></trkpt><trkpt lat="43.5307367" lon="10.7417933"><ele>167.0</ele><time>2026-04-18T07:46:10.748Z</time></trkpt><trkpt lat="43.530715" lon="10.7416967"><ele>167.5</ele><time>2026-04-18T07:46:11.74Z</time></trkpt><trkpt lat="43.5307083" lon="10.74161"><ele>168.0</ele><time>2026-04-18T07:46:12.744Z</time></trkpt><trkpt lat="43.530695" lon="10.741465"><ele>168.5</ele><time>2026-04-18T07:46:14.75Z</time></trkpt><trkpt lat="43.5306917" lon="10.74131"><ele>169.0</ele><time>2026-04-18T07:46:16.746Z</time></trkpt><trkpt lat="43.53072" lon="10.74123"><ele>169.0</ele><time>2026-04-18T07:46:17.745Z</time></trkpt><trkpt lat="43.5307533" lon="10.7411433"><ele>169.0</ele><time>2026-04-18T07:46:18.746Z</time></trkpt><trkpt lat="43.5308017" lon="10.7410467"><ele>169.0</ele><time>2026-04-18T07:46:19.743Z</time></trkpt><trkpt lat="43.53086" lon="10.740865"><ele>169.0</ele><time>2026-04-18T07:46:21.745Z</time></trkpt><trkpt lat="43.5308917" lon="10.7407583"><ele>169.0</ele><time>2026-04-18T07:46:22.75Z</time></trkpt><trkpt lat="43.5309317" lon="10.7406417"><ele>169.0</ele><time>2026-04-18T07:46:23.743Z</time></trkpt><trkpt lat="43.53095" lon="10.740525"><ele>169.0</ele><time>2026-04-18T07:46:24.751Z</time></trkpt><trkpt lat="43.530975" lon="10.74042"><ele>169.0</ele><time>2026-04-18T07:46:25.743Z</time></trkpt><trkpt lat="43.5310033" lon="10.7403133"><ele>169.0</ele><time>2026-04-18T07:46:26.752Z</time></trkpt><trkpt lat="43.53102" lon="10.74022"><ele>169.0</ele><time>2026-04-18T07:46:27.745Z</time></trkpt><trkpt lat="43.53106" lon="10.7401283"><ele>169.0</ele><time>2026-04-18T07:46:28.748Z</time></trkpt><trkpt lat="43.5310717" lon="10.7400367"><ele>169.0</ele><time>2026-04-18T07:46:29.749Z</time></trkpt><trkpt lat="43.5311083" lon="10.7399467"><ele>169.0</ele><time>2026-04-18T07:46:30.743Z</time></trkpt><trkpt lat="43.5311383" lon="10.7398667"><ele>169.0</ele><time>2026-04-18T07:46:31.743Z</time></trkpt><trkpt lat="43.53118" lon="10.7397917"><ele>169.0</ele><time>2026-04-18T07:46:32.743Z</time></trkpt><trkpt lat="43.531205" lon="10.7397067"><ele>169.0</ele><time>2026-04-18T07:46:33.747Z</time></trkpt><trkpt lat="43.5312683" lon="10.739565"><ele>169.0</ele><time>2026-04-18T07:46:35.75Z</time></trkpt><trkpt lat="43.531325" lon="10.739495"><ele>166.79999999999998</ele><time>2026-04-18T07:46:36.744Z</time></trkpt><trkpt lat="43.5314067" lon="10.7394233"><ele>164.6</ele><time>2026-04-18T07:46:37.749Z</time></trkpt><trkpt lat="43.5314817" lon="10.739335"><ele>162.4</ele><time>2026-04-18T07:46:38.744Z</time></trkpt><trkpt lat="43.531555" lon="10.7392467"><ele>160.2</ele><time>2026-04-18T07:46:39.744Z</time></trkpt><trkpt lat="43.5316317" lon="10.7391733"><ele>158.0</ele><time>2026-04-18T07:46:40.744Z</time></trkpt><trkpt lat="43.5317" lon="10.7390917"><ele>158.0</ele><time>2026-04-18T07:46:41.743Z</time></trkpt><trkpt lat="43.531795" lon="10.7390217"><ele>158.0</ele><time>2026-04-18T07:46:42.742Z</time></trkpt><trkpt lat="43.5318833" lon="10.7389617"><ele>158.0</ele><time>2026-04-18T07:46:43.743Z</time></trkpt><trkpt lat="43.5319667" lon="10.738895"><ele>158.0</ele><time>2026-04-18T07:46:44.746Z</time></trkpt><trkpt lat="43.5320533" lon="10.7388367"><ele>158.0</ele><time>2026-04-18T07:46:45.743Z</time></trkpt><trkpt lat="43.5321333" lon="10.7387767"><ele>156.5</ele><time>2026-04-18T07:46:46.743Z</time></trkpt><trkpt lat="43.5322183" lon="10.7387117"><ele>155.0</ele><time>2026-04-18T07:46:47.741Z</time></trkpt><trkpt lat="43.532315" lon="10.738655"><ele>153.5</ele><time>2026-04-18T07:46:48.746Z</time></trkpt><trkpt lat="43.5324267" lon="10.738595"><ele>152.0</ele><time>2026-04-18T07:46:49.746Z</time></trkpt><trkpt lat="43.5325417" lon="10.7385133"><ele>152.0</ele><time>2026-04-18T07:46:50.747Z</time></trkpt><trkpt lat="43.53266" lon="10.7384333"><ele>152.0</ele><time>2026-04-18T07:46:51.745Z</time></trkpt><trkpt lat="43.5327667" lon="10.7383567"><ele>152.0</ele><time>2026-04-18T07:46:52.746Z</time></trkpt><trkpt lat="43.5328667" lon="10.7382833"><ele>152.0</ele><time>2026-04-18T07:46:53.747Z</time></trkpt><trkpt lat="43.5329617" lon="10.738195"><ele>151.2</ele><time>2026-04-18T07:46:54.744Z</time></trkpt><trkpt lat="43.5330567" lon="10.738105"><ele>150.39999999999998</ele><time>2026-04-18T07:46:55.742Z</time></trkpt><trkpt lat="43.533145" lon="10.7380117"><ele>149.60000000000002</ele><time>2026-04-18T07:46:56.743Z</time></trkpt><trkpt lat="43.5332267" lon="10.737915"><ele>148.8</ele><time>2026-04-18T07:46:57.747Z</time></trkpt><trkpt lat="43.5333067" lon="10.73783"><ele>148.0</ele><time>2026-04-18T07:46:58.742Z</time></trkpt><trkpt lat="43.53339" lon="10.7377583"><ele>147.83333333333334</ele><time>2026-04-18T07:46:59.743Z</time></trkpt><trkpt lat="43.5334767" lon="10.73771"><ele>147.66666666666669</ele><time>2026-04-18T07:47:00.744Z</time></trkpt><trkpt lat="43.533555" lon="10.737675"><ele>147.5</ele><time>2026-04-18T07:47:01.741Z</time></trkpt><trkpt lat="43.533635" lon="10.737645"><ele>147.33333333333334</ele><time>2026-04-18T07:47:02.744Z</time></trkpt><trkpt lat="43.533715" lon="10.7376083"><ele>147.16666666666666</ele><time>2026-04-18T07:47:03.742Z</time></trkpt><trkpt lat="43.5337933" lon="10.7375783"><ele>147.0</ele><time>2026-04-18T07:47:04.743Z</time></trkpt><trkpt lat="43.53387" lon="10.7375367"><ele>146.4</ele><time>2026-04-18T07:47:05.745Z</time></trkpt><trkpt lat="43.5339533" lon="10.7374917"><ele>145.79999999999998</ele><time>2026-04-18T07:47:06.745Z</time></trkpt><trkpt lat="43.53404" lon="10.7374367"><ele>145.2</ele><time>2026-04-18T07:47:07.742Z</time></trkpt><trkpt lat="43.53413" lon="10.73739"><ele>144.6</ele><time>2026-04-18T07:47:08.743Z</time></trkpt><trkpt lat="43.5342233" lon="10.7373383"><ele>144.0</ele><time>2026-04-18T07:47:09.741Z</time></trkpt><trkpt lat="43.5343217" lon="10.7372817"><ele>144.0</ele><time>2026-04-18T07:47:10.741Z</time></trkpt><trkpt lat="43.5344267" lon="10.73724"><ele>144.0</ele><time>2026-04-18T07:47:11.745Z</time></trkpt><trkpt lat="43.5345333" lon="10.7371717"><ele>144.0</ele><time>2026-04-18T07:47:12.747Z</time></trkpt><trkpt lat="43.5346383" lon="10.7371133"><ele>144.0</ele><time>2026-04-18T07:47:13.743Z</time></trkpt><trkpt lat="43.534745" lon="10.7370617"><ele>142.75</ele><time>2026-04-18T07:47:14.743Z</time></trkpt><trkpt lat="43.53485" lon="10.73699"><ele>141.5</ele><time>2026-04-18T07:47:15.745Z</time></trkpt><trkpt lat="43.5349483" lon="10.7369183"><ele>140.25</ele><time>2026-04-18T07:47:16.742Z</time></trkpt><trkpt lat="43.5350417" lon="10.7368383"><ele>139.0</ele><time>2026-04-18T07:47:17.743Z</time></trkpt><trkpt lat="43.5351367" lon="10.7367517"><ele>138.8</ele><time>2026-04-18T07:47:18.744Z</time></trkpt><trkpt lat="43.5352283" lon="10.73666"><ele>138.60000000000002</ele><time>2026-04-18T07:47:19.747Z</time></trkpt><trkpt lat="43.5353217" lon="10.7365767"><ele>138.4</ele><time>2026-04-18T07:47:20.749Z</time></trkpt><trkpt lat="43.535405" lon="10.7364867"><ele>138.20000000000002</ele><time>2026-04-18T07:47:21.748Z</time></trkpt><trkpt lat="43.5354917" lon="10.73641"><ele>138.0</ele><time>2026-04-18T07:47:22.742Z</time></trkpt><trkpt lat="43.5355767" lon="10.7363283"><ele>137.6</ele><time>2026-04-18T07:47:23.745Z</time></trkpt><trkpt lat="43.53566" lon="10.7362467"><ele>137.20000000000002</ele><time>2026-04-18T07:47:24.745Z</time></trkpt><trkpt lat="43.5357483" lon="10.73618"><ele>136.8</ele><time>2026-04-18T07:47:25.742Z</time></trkpt><trkpt lat="43.5358217" lon="10.7360817"><ele>136.4</ele><time>2026-04-18T07:47:26.755Z</time></trkpt><trkpt lat="43.5359017" lon="10.7360183"><ele>136.0</ele><time>2026-04-18T07:47:27.744Z</time></trkpt><trkpt lat="43.5359717" lon="10.7359417"><ele>135.33333333333334</ele><time>2026-04-18T07:47:28.743Z</time></trkpt><trkpt lat="43.5360383" lon="10.7358817"><ele>134.66666666666669</ele><time>2026-04-18T07:47:29.744Z</time></trkpt><trkpt lat="43.5361083" lon="10.7358383"><ele>134.0</ele><time>2026-04-18T07:47:30.745Z</time></trkpt><trkpt lat="43.5361733" lon="10.7357933"><ele>133.33333333333334</ele><time>2026-04-18T07:47:31.744Z</time></trkpt><trkpt lat="43.536235" lon="10.73574"><ele>132.66666666666666</ele><time>2026-04-18T07:47:32.745Z</time></trkpt><trkpt lat="43.5362917" lon="10.7356833"><ele>132.0</ele><time>2026-04-18T07:47:33.743Z</time></trkpt><trkpt lat="43.5363583" lon="10.735615"><ele>131.0</ele><time>2026-04-18T07:47:34.743Z</time></trkpt><trkpt lat="43.5364333" lon="10.7355333"><ele>130.0</ele><time>2026-04-18T07:47:35.742Z</time></trkpt><trkpt lat="43.5365133" lon="10.73547"><ele>129.0</ele><time>2026-04-18T07:47:36.744Z</time></trkpt><trkpt lat="43.536585" lon="10.7354033"><ele>128.0</ele><time>2026-04-18T07:47:37.746Z</time></trkpt><trkpt lat="43.5366467" lon="10.7353367"><ele>127.0</ele><time>2026-04-18T07:47:38.748Z</time></trkpt><trkpt lat="43.536705" lon="10.7352817"><ele>126.0</ele><time>2026-04-18T07:47:39.743Z</time></trkpt><trkpt lat="43.536765" lon="10.7352283"><ele>125.33333333333333</ele><time>2026-04-18T07:47:40.742Z</time></trkpt><trkpt lat="43.5368233" lon="10.73517"><ele>124.66666666666666</ele><time>2026-04-18T07:47:41.745Z</time></trkpt><trkpt lat="43.5368883" lon="10.7351117"><ele>124.0</ele><time>2026-04-18T07:47:42.744Z</time></trkpt><trkpt lat="43.5369517" lon="10.73504"><ele>123.33333333333333</ele><time>2026-04-18T07:47:43.745Z</time></trkpt><trkpt lat="43.537015" lon="10.73498"><ele>122.66666666666666</ele><time>2026-04-18T07:47:44.748Z</time></trkpt><trkpt lat="43.5370767" lon="10.7349217"><ele>122.0</ele><time>2026-04-18T07:47:45.744Z</time></trkpt><trkpt lat="43.537135" lon="10.7348667"><ele>121.99999999999999</ele><time>2026-04-18T07:47:46.745Z</time></trkpt><trkpt lat="43.5371967" lon="10.7348217"><ele>122.0</ele><time>2026-04-18T07:47:47.742Z</time></trkpt><trkpt lat="43.5372583" lon="10.73477"><ele>122.0</ele><time>2026-04-18T07:47:48.742Z</time></trkpt><trkpt lat="43.5373167" lon="10.73471"><ele>122.0</ele><time>2026-04-18T07:47:49.744Z</time></trkpt><trkpt lat="43.53738" lon="10.7346467"><ele>121.99999999999999</ele><time>2026-04-18T07:47:50.751Z</time></trkpt><trkpt lat="43.5374433" lon="10.7345717"><ele>122.0</ele><time>2026-04-18T07:47:51.743Z</time></trkpt><trkpt lat="43.5375067" lon="10.734505"><ele>122.0</ele><time>2026-04-18T07:47:52.746Z</time></trkpt><trkpt lat="43.537565" lon="10.7344367"><ele>121.99999999999999</ele><time>2026-04-18T07:47:53.749Z</time></trkpt><trkpt lat="43.5376167" lon="10.7343633"><ele>121.99999999999999</ele><time>2026-04-18T07:47:54.744Z</time></trkpt><trkpt lat="43.5376617" lon="10.7342933"><ele>122.0</ele><time>2026-04-18T07:47:55.748Z</time></trkpt><trkpt lat="43.5377233" lon="10.7341533"><ele>122.0</ele><time>2026-04-18T07:47:57.747Z</time></trkpt><trkpt lat="43.537755" lon="10.7339867"><ele>120.49999999999999</ele><time>2026-04-18T07:47:59.744Z</time></trkpt><trkpt lat="43.5377683" lon="10.73388"><ele>119.0</ele><time>2026-04-18T07:48:00.747Z</time></trkpt><trkpt lat="43.537785" lon="10.7337517"><ele>117.5</ele><time>2026-04-18T07:48:01.745Z</time></trkpt><trkpt lat="43.5377983" lon="10.7336267"><ele>116.0</ele><time>2026-04-18T07:48:02.743Z</time></trkpt><trkpt lat="43.5378" lon="10.7335017"><ele>114.49999999999999</ele><time>2026-04-18T07:48:03.747Z</time></trkpt><trkpt lat="43.5377967" lon="10.7333717"><ele>113.0</ele><time>2026-04-18T07:48:04.744Z</time></trkpt><trkpt lat="43.5377783" lon="10.7332333"><ele>111.4</ele><time>2026-04-18T07:48:05.743Z</time></trkpt><trkpt lat="43.5377533" lon="10.7330967"><ele>109.80000000000001</ele><time>2026-04-18T07:48:06.747Z</time></trkpt><trkpt lat="43.5377433" lon="10.73296"><ele>108.2</ele><time>2026-04-18T07:48:07.743Z</time></trkpt><trkpt lat="43.53773" lon="10.7328317"><ele>106.6</ele><time>2026-04-18T07:48:08.745Z</time></trkpt><trkpt lat="43.5377333" lon="10.7327017"><ele>105.0</ele><time>2026-04-18T07:48:09.744Z</time></trkpt><trkpt lat="43.5377433" lon="10.732575"><ele>104.0</ele><time>2026-04-18T07:48:10.743Z</time></trkpt><trkpt lat="43.537755" lon="10.732455"><ele>103.0</ele><time>2026-04-18T07:48:11.744Z</time></trkpt><trkpt lat="43.5377667" lon="10.73234"><ele>102.0</ele><time>2026-04-18T07:48:12.748Z</time></trkpt><trkpt lat="43.53779" lon="10.73223"><ele>101.0</ele><time>2026-04-18T07:48:13.745Z</time></trkpt><trkpt lat="43.537815" lon="10.732115"><ele>100.0</ele><time>2026-04-18T07:48:14.748Z</time></trkpt><trkpt lat="43.5378367" lon="10.7320083"><ele>99.0</ele><time>2026-04-18T07:48:15.745Z</time></trkpt><trkpt lat="43.537895" lon="10.7319067"><ele>99.80000000000001</ele><time>2026-04-18T07:48:16.745Z</time></trkpt><trkpt lat="43.53794" lon="10.7318033"><ele>100.60000000000001</ele><time>2026-04-18T07:48:17.745Z</time></trkpt><trkpt lat="43.53799" lon="10.7317"><ele>101.4</ele><time>2026-04-18T07:48:18.744Z</time></trkpt><trkpt lat="43.5380617" lon="10.7316267"><ele>102.2</ele><time>2026-04-18T07:48:19.747Z</time></trkpt><trkpt lat="43.5381467" lon="10.73156"><ele>103.0</ele><time>2026-04-18T07:48:20.745Z</time></trkpt><trkpt lat="43.538255" lon="10.7314933"><ele>103.0</ele><time>2026-04-18T07:48:21.744Z</time></trkpt><trkpt lat="43.5383683" lon="10.7314333"><ele>103.0</ele><time>2026-04-18T07:48:22.741Z</time></trkpt><trkpt lat="43.5384733" lon="10.7313617"><ele>103.0</ele><time>2026-04-18T07:48:23.746Z</time></trkpt><trkpt lat="43.5385767" lon="10.73129"><ele>103.0</ele><time>2026-04-18T07:48:24.744Z</time></trkpt><trkpt lat="43.5386717" lon="10.7312117"><ele>103.60000000000001</ele><time>2026-04-18T07:48:25.743Z</time></trkpt><trkpt lat="43.5387717" lon="10.73115"><ele>104.2</ele><time>2026-04-18T07:48:26.751Z</time></trkpt><trkpt lat="43.53886" lon="10.7310833"><ele>104.8</ele><time>2026-04-18T07:48:27.751Z</time></trkpt><trkpt lat="43.5389533" lon="10.7310133"><ele>105.4</ele><time>2026-04-18T07:48:28.747Z</time></trkpt><trkpt lat="43.5390383" lon="10.730935"><ele>106.0</ele><time>2026-04-18T07:48:29.743Z</time></trkpt><trkpt lat="43.5391167" lon="10.730845"><ele>103.19999999999999</ele><time>2026-04-18T07:48:30.744Z</time></trkpt><trkpt lat="43.5391983" lon="10.7307483"><ele>100.39999999999999</ele><time>2026-04-18T07:48:31.746Z</time></trkpt><trkpt lat="43.5392733" lon="10.7306383"><ele>97.6</ele><time>2026-04-18T07:48:32.744Z</time></trkpt><trkpt lat="43.5393417" lon="10.730525"><ele>94.8</ele><time>2026-04-18T07:48:33.745Z</time></trkpt><trkpt lat="43.5394017" lon="10.7304133"><ele>92.0</ele><time>2026-04-18T07:48:34.746Z</time></trkpt><trkpt lat="43.5394733" lon="10.7303083"><ele>90.16666666666667</ele><time>2026-04-18T07:48:35.751Z</time></trkpt><trkpt lat="43.5395167" lon="10.7301967"><ele>88.33333333333334</ele><time>2026-04-18T07:48:36.748Z</time></trkpt><trkpt lat="43.5395867" lon="10.7301033"><ele>86.5</ele><time>2026-04-18T07:48:37.751Z</time></trkpt><trkpt lat="43.53964" lon="10.730005"><ele>84.66666666666667</ele><time>2026-04-18T07:48:38.746Z</time></trkpt><trkpt lat="43.5396767" lon="10.7299083"><ele>82.83333333333333</ele><time>2026-04-18T07:48:39.746Z</time></trkpt><trkpt lat="43.5397083" lon="10.7298283"><ele>81.0</ele><time>2026-04-18T07:48:40.756Z</time></trkpt><trkpt lat="43.5397683" lon="10.7297867"><ele>80.57142857142857</ele><time>2026-04-18T07:48:41.752Z</time></trkpt><trkpt lat="43.5398383" lon="10.7297617"><ele>80.14285714285714</ele><time>2026-04-18T07:48:42.744Z</time></trkpt><trkpt lat="43.5398967" lon="10.7297283"><ele>79.71428571428572</ele><time>2026-04-18T07:48:43.744Z</time></trkpt><trkpt lat="43.5399567" lon="10.7296917"><ele>79.28571428571428</ele><time>2026-04-18T07:48:44.746Z</time></trkpt><trkpt lat="43.5400283" lon="10.729665"><ele>78.85714285714285</ele><time>2026-04-18T07:48:45.748Z</time></trkpt><trkpt lat="43.5401017" lon="10.7296233"><ele>78.42857142857143</ele><time>2026-04-18T07:48:46.747Z</time></trkpt><trkpt lat="43.5401783" lon="10.7295783"><ele>78.0</ele><time>2026-04-18T07:48:47.745Z</time></trkpt><trkpt lat="43.540255" lon="10.7295317"><ele>78.0</ele><time>2026-04-18T07:48:48.75Z</time></trkpt><trkpt lat="43.5403317" lon="10.7294917"><ele>78.0</ele><time>2026-04-18T07:48:49.748Z</time></trkpt><trkpt lat="43.5404083" lon="10.7294767"><ele>78.0</ele><time>2026-04-18T07:48:50.747Z</time></trkpt><trkpt lat="43.5404883" lon="10.7294683"><ele>78.0</ele><time>2026-04-18T07:48:51.749Z</time></trkpt><trkpt lat="43.54055" lon="10.7294333"><ele>78.0</ele><time>2026-04-18T07:48:52.751Z</time></trkpt><trkpt lat="43.54066" lon="10.729405"><ele>78.0</ele><time>2026-04-18T07:48:54.751Z</time></trkpt><trkpt lat="43.5407467" lon="10.7293617"><ele>76.0</ele><time>2026-04-18T07:48:56.751Z</time></trkpt><trkpt lat="43.54083" lon="10.729255"><ele>74.0</ele><time>2026-04-18T07:48:58.743Z</time></trkpt><trkpt lat="43.54091" lon="10.72911"><ele>72.0</ele><time>2026-04-18T07:49:00.746Z</time></trkpt><trkpt lat="43.54094" lon="10.7290183"><ele>70.0</ele><time>2026-04-18T07:49:01.744Z</time></trkpt><trkpt lat="43.5409733" lon="10.72892"><ele>68.0</ele><time>2026-04-18T07:49:02.743Z</time></trkpt><trkpt lat="43.5410133" lon="10.728805"><ele>68.0</ele><time>2026-04-18T07:49:03.748Z</time></trkpt><trkpt lat="43.5410533" lon="10.7287033"><ele>68.0</ele><time>2026-04-18T07:49:04.744Z</time></trkpt><trkpt lat="43.5410833" lon="10.7285783"><ele>68.0</ele><time>2026-04-18T07:49:05.745Z</time></trkpt><trkpt lat="43.54112" lon="10.728455"><ele>68.0</ele><time>2026-04-18T07:49:06.744Z</time></trkpt><trkpt lat="43.5411583" lon="10.7283233"><ele>68.0</ele><time>2026-04-18T07:49:07.749Z</time></trkpt><trkpt lat="43.5412067" lon="10.7281917"><ele>66.2</ele><time>2026-04-18T07:49:08.749Z</time></trkpt><trkpt lat="43.5412433" lon="10.7280667"><ele>64.4</ele><time>2026-04-18T07:49:09.742Z</time></trkpt><trkpt lat="43.541275" lon="10.7279483"><ele>62.60000000000001</ele><time>2026-04-18T07:49:10.742Z</time></trkpt><trkpt lat="43.5413017" lon="10.7278217"><ele>60.800000000000004</ele><time>2026-04-18T07:49:11.747Z</time></trkpt><trkpt lat="43.5413267" lon="10.727675"><ele>59.0</ele><time>2026-04-18T07:49:12.748Z</time></trkpt><trkpt lat="43.5413367" lon="10.7275317"><ele>58.6</ele><time>2026-04-18T07:49:13.745Z</time></trkpt><trkpt lat="43.54137" lon="10.7274083"><ele>58.2</ele><time>2026-04-18T07:49:14.747Z</time></trkpt><trkpt lat="43.5413933" lon="10.7272817"><ele>57.800000000000004</ele><time>2026-04-18T07:49:15.748Z</time></trkpt><trkpt lat="43.5414367" lon="10.7271567"><ele>57.400000000000006</ele><time>2026-04-18T07:49:16.743Z</time></trkpt><trkpt lat="43.5415083" lon="10.7270533"><ele>57.0</ele><time>2026-04-18T07:49:17.742Z</time></trkpt><trkpt lat="43.54157" lon="10.7269317"><ele>57.5</ele><time>2026-04-18T07:49:18.742Z</time></trkpt><trkpt lat="43.5416433" lon="10.7268167"><ele>58.0</ele><time>2026-04-18T07:49:19.745Z</time></trkpt><trkpt lat="43.541725" lon="10.726685"><ele>58.5</ele><time>2026-04-18T07:49:20.745Z</time></trkpt><trkpt lat="43.5418017" lon="10.72655"><ele>59.0</ele><time>2026-04-18T07:49:21.746Z</time></trkpt><trkpt lat="43.5418717" lon="10.7264283"><ele>59.0</ele><time>2026-04-18T07:49:22.742Z</time></trkpt><trkpt lat="43.5419283" lon="10.7262933"><ele>59.00000000000001</ele><time>2026-04-18T07:49:23.744Z</time></trkpt><trkpt lat="43.5419883" lon="10.726175"><ele>59.00000000000001</ele><time>2026-04-18T07:49:24.743Z</time></trkpt><trkpt lat="43.5420533" lon="10.7260617"><ele>59.0</ele><time>2026-04-18T07:49:25.746Z</time></trkpt><trkpt lat="43.5421333" lon="10.7259383"><ele>59.0</ele><time>2026-04-18T07:49:26.742Z</time></trkpt><trkpt lat="43.542215" lon="10.7258233"><ele>60.400000000000006</ele><time>2026-04-18T07:49:27.743Z</time></trkpt><trkpt lat="43.5422883" lon="10.725725"><ele>61.800000000000004</ele><time>2026-04-18T07:49:28.742Z</time></trkpt><trkpt lat="43.5423617" lon="10.725655"><ele>63.199999999999996</ele><time>2026-04-18T07:49:29.745Z</time></trkpt><trkpt lat="43.54242" lon="10.7255967"><ele>64.6</ele><time>2026-04-18T07:49:30.747Z</time></trkpt><trkpt lat="43.5425417" lon="10.7255733"><ele>66.0</ele><time>2026-04-18T07:49:32.743Z</time></trkpt><trkpt lat="43.542605" lon="10.72559"><ele>66.0</ele><time>2026-04-18T07:49:33.744Z</time></trkpt><trkpt lat="43.5426733" lon="10.7255833"><ele>66.0</ele><time>2026-04-18T07:49:34.75Z</time></trkpt><trkpt lat="43.542735" lon="10.7255467"><ele>66.0</ele><time>2026-04-18T07:49:35.753Z</time></trkpt><trkpt lat="43.5427967" lon="10.7254867"><ele>66.0</ele><time>2026-04-18T07:49:36.745Z</time></trkpt><trkpt lat="43.54283" lon="10.7253817"><ele>66.0</ele><time>2026-04-18T07:49:37.747Z</time></trkpt><trkpt lat="43.5428767" lon="10.7252817"><ele>66.0</ele><time>2026-04-18T07:49:38.745Z</time></trkpt><trkpt lat="43.5429083" lon="10.7251667"><ele>70.83333333333333</ele><time>2026-04-18T07:49:39.746Z</time></trkpt><trkpt lat="43.5429383" lon="10.7250467"><ele>75.66666666666667</ele><time>2026-04-18T07:49:40.746Z</time></trkpt><trkpt lat="43.542965" lon="10.72492"><ele>80.5</ele><time>2026-04-18T07:49:41.745Z</time></trkpt><trkpt lat="43.5429917" lon="10.724805"><ele>85.33333333333334</ele><time>2026-04-18T07:49:42.747Z</time></trkpt><trkpt lat="43.5430133" lon="10.7247033"><ele>90.16666666666667</ele><time>2026-04-18T07:49:43.741Z</time></trkpt><trkpt lat="43.5430517" lon="10.7246183"><ele>95.0</ele><time>2026-04-18T07:49:44.749Z</time></trkpt><trkpt lat="43.5431067" lon="10.7245483"><ele>95.0</ele><time>2026-04-18T07:49:45.755Z</time></trkpt><trkpt lat="43.5431633" lon="10.7244783"><ele>95.0</ele><time>2026-04-18T07:49:46.753Z</time></trkpt><trkpt lat="43.5432383" lon="10.724425"><ele>95.0</ele><time>2026-04-18T07:49:47.75Z</time></trkpt><trkpt lat="43.5433283" lon="10.7243833"><ele>95.0</ele><time>2026-04-18T07:49:48.747Z</time></trkpt><trkpt lat="43.5433983" lon="10.7243033"><ele>95.0</ele><time>2026-04-18T07:49:49.741Z</time></trkpt><trkpt lat="43.5434417" lon="10.7241967"><ele>95.0</ele><time>2026-04-18T07:49:50.746Z</time></trkpt><trkpt lat="43.5435" lon="10.72408"><ele>95.75</ele><time>2026-04-18T07:49:51.742Z</time></trkpt><trkpt lat="43.5435567" lon="10.723945"><ele>96.5</ele><time>2026-04-18T07:49:52.743Z</time></trkpt><trkpt lat="43.54363" lon="10.7238133"><ele>97.25</ele><time>2026-04-18T07:49:53.743Z</time></trkpt><trkpt lat="43.5437333" lon="10.7236917"><ele>98.0</ele><time>2026-04-18T07:49:54.745Z</time></trkpt><trkpt lat="43.5438317" lon="10.7235817"><ele>101.80000000000001</ele><time>2026-04-18T07:49:55.745Z</time></trkpt><trkpt lat="43.5439" lon="10.7234683"><ele>105.6</ele><time>2026-04-18T07:49:56.748Z</time></trkpt><trkpt lat="43.543965" lon="10.72337"><ele>109.39999999999999</ele><time>2026-04-18T07:49:57.747Z</time></trkpt><trkpt lat="43.544015" lon="10.7232667"><ele>113.19999999999999</ele><time>2026-04-18T07:49:58.746Z</time></trkpt><trkpt lat="43.54406" lon="10.7231517"><ele>117.0</ele><time>2026-04-18T07:49:59.744Z</time></trkpt><trkpt lat="43.5440783" lon="10.7230183"><ele>117.0</ele><time>2026-04-18T07:50:00.746Z</time></trkpt><trkpt lat="43.5441083" lon="10.7228933"><ele>116.99999999999999</ele><time>2026-04-18T07:50:01.749Z</time></trkpt><trkpt lat="43.5441517" lon="10.7227633"><ele>116.99999999999999</ele><time>2026-04-18T07:50:02.749Z</time></trkpt><trkpt lat="43.544205" lon="10.7226417"><ele>117.0</ele><time>2026-04-18T07:50:03.744Z</time></trkpt><trkpt lat="43.5442617" lon="10.7225183"><ele>117.0</ele><time>2026-04-18T07:50:04.756Z</time></trkpt><trkpt lat="43.5443267" lon="10.7223967"><ele>116.39999999999999</ele><time>2026-04-18T07:50:05.742Z</time></trkpt><trkpt lat="43.5443933" lon="10.722285"><ele>115.79999999999998</ele><time>2026-04-18T07:50:06.743Z</time></trkpt><trkpt lat="43.544445" lon="10.7221767"><ele>115.2</ele><time>2026-04-18T07:50:07.742Z</time></trkpt><trkpt lat="43.5445" lon="10.72208"><ele>114.6</ele><time>2026-04-18T07:50:08.742Z</time></trkpt><trkpt lat="43.54457" lon="10.7219883"><ele>114.0</ele><time>2026-04-18T07:50:09.739Z</time></trkpt><trkpt lat="43.5446333" lon="10.7218917"><ele>115.2</ele><time>2026-04-18T07:50:10.744Z</time></trkpt><trkpt lat="43.5447083" lon="10.72181"><ele>116.4</ele><time>2026-04-18T07:50:11.746Z</time></trkpt><trkpt lat="43.544775" lon="10.7217267"><ele>117.6</ele><time>2026-04-18T07:50:12.749Z</time></trkpt><trkpt lat="43.5448617" lon="10.7216567"><ele>118.8</ele><time>2026-04-18T07:50:13.744Z</time></trkpt><trkpt lat="43.5449733" lon="10.7216017"><ele>120.0</ele><time>2026-04-18T07:50:14.742Z</time></trkpt><trkpt lat="43.5450983" lon="10.7215567"><ele>120.0</ele><time>2026-04-18T07:50:15.741Z</time></trkpt><trkpt lat="43.5452217" lon="10.7214883"><ele>120.0</ele><time>2026-04-18T07:50:16.744Z</time></trkpt><trkpt lat="43.5453417" lon="10.7214283"><ele>120.0</ele><time>2026-04-18T07:50:17.745Z</time></trkpt><trkpt lat="43.5454483" lon="10.7213617"><ele>120.0</ele><time>2026-04-18T07:50:18.743Z</time></trkpt><trkpt lat="43.5455483" lon="10.7213067"><ele>119.5</ele><time>2026-04-18T07:50:19.747Z</time></trkpt><trkpt lat="43.54563" lon="10.72126"><ele>119.0</ele><time>2026-04-18T07:50:20.752Z</time></trkpt><trkpt lat="43.5456933" lon="10.72123"><ele>118.5</ele><time>2026-04-18T07:50:21.745Z</time></trkpt><trkpt lat="43.545775" lon="10.721175"><ele>118.0</ele><time>2026-04-18T07:50:23.743Z</time></trkpt><trkpt lat="43.5457583" lon="10.7210483"><ele>117.5</ele><time>2026-04-18T07:50:26.749Z</time></trkpt><trkpt lat="43.5456617" lon="10.72098"><ele>117.0</ele><time>2026-04-18T07:50:28.744Z</time></trkpt><trkpt lat="43.5455533" lon="10.7208783"><ele>117.66666666666667</ele><time>2026-04-18T07:50:30.745Z</time></trkpt><trkpt lat="43.54548" lon="10.72083"><ele>118.33333333333334</ele><time>2026-04-18T07:50:31.749Z</time></trkpt><trkpt lat="43.5454" lon="10.72078"><ele>119.0</ele><time>2026-04-18T07:50:32.746Z</time></trkpt><trkpt lat="43.5453183" lon="10.7207583"><ele>119.66666666666667</ele><time>2026-04-18T07:50:33.745Z</time></trkpt><trkpt lat="43.5452367" lon="10.720735"><ele>120.33333333333334</ele><time>2026-04-18T07:50:34.745Z</time></trkpt><trkpt lat="43.545165" lon="10.7207017"><ele>121.0</ele><time>2026-04-18T07:50:35.746Z</time></trkpt><trkpt lat="43.545105" lon="10.7206667"><ele>121.00000000000001</ele><time>2026-04-18T07:50:36.742Z</time></trkpt><trkpt lat="43.5450583" lon="10.7205983"><ele>121.0</ele><time>2026-04-18T07:50:38.75Z</time></trkpt><trkpt lat="43.5450367" lon="10.7204767"><ele>121.0</ele><time>2026-04-18T07:50:51.747Z</time></trkpt><trkpt lat="43.54505" lon="10.7203767"><ele>121.0</ele><time>2026-04-18T07:50:52.743Z</time></trkpt><trkpt lat="43.5450867" lon="10.7202667"><ele>121.00000000000001</ele><time>2026-04-18T07:50:53.745Z</time></trkpt><trkpt lat="43.5451467" lon="10.7201533"><ele>121.0</ele><time>2026-04-18T07:50:54.746Z</time></trkpt><trkpt lat="43.5452283" lon="10.72004"><ele>120.5</ele><time>2026-04-18T07:50:55.746Z</time></trkpt><trkpt lat="43.5453133" lon="10.7199367"><ele>120.0</ele><time>2026-04-18T07:50:56.743Z</time></trkpt><trkpt lat="43.5454017" lon="10.7198333"><ele>119.5</ele><time>2026-04-18T07:50:57.744Z</time></trkpt><trkpt lat="43.5455033" lon="10.7197517"><ele>119.0</ele><time>2026-04-18T07:50:58.744Z</time></trkpt><trkpt lat="43.54561" lon="10.7196867"><ele>119.0</ele><time>2026-04-18T07:50:59.75Z</time></trkpt><trkpt lat="43.545725" lon="10.71963"><ele>119.0</ele><time>2026-04-18T07:51:00.748Z</time></trkpt><trkpt lat="43.545845" lon="10.7195767"><ele>119.0</ele><time>2026-04-18T07:51:01.746Z</time></trkpt><trkpt lat="43.5459683" lon="10.7195317"><ele>119.0</ele><time>2026-04-18T07:51:02.749Z</time></trkpt><trkpt lat="43.546085" lon="10.7194717"><ele>119.0</ele><time>2026-04-18T07:51:03.745Z</time></trkpt><trkpt lat="43.5462033" lon="10.7194217"><ele>119.0</ele><time>2026-04-18T07:51:04.742Z</time></trkpt><trkpt lat="43.5463183" lon="10.719385"><ele>119.0</ele><time>2026-04-18T07:51:05.746Z</time></trkpt><trkpt lat="43.54643" lon="10.7193517"><ele>119.0</ele><time>2026-04-18T07:51:06.743Z</time></trkpt><trkpt lat="43.54653" lon="10.7193233"><ele>117.2</ele><time>2026-04-18T07:51:07.746Z</time></trkpt><trkpt lat="43.5466333" lon="10.7193133"><ele>115.4</ele><time>2026-04-18T07:51:08.741Z</time></trkpt><trkpt lat="43.5467383" lon="10.71932"><ele>113.6</ele><time>2026-04-18T07:51:09.749Z</time></trkpt><trkpt lat="43.5468517" lon="10.7193233"><ele>111.8</ele><time>2026-04-18T07:51:10.743Z</time></trkpt><trkpt lat="43.54697" lon="10.7193083"><ele>110.0</ele><time>2026-04-18T07:51:11.746Z</time></trkpt><trkpt lat="43.5470967" lon="10.719295"><ele>109.5</ele><time>2026-04-18T07:51:12.743Z</time></trkpt><trkpt lat="43.5472333" lon="10.7192967"><ele>109.0</ele><time>2026-04-18T07:51:13.745Z</time></trkpt><trkpt lat="43.5473783" lon="10.71929"><ele>108.5</ele><time>2026-04-18T07:51:14.745Z</time></trkpt><trkpt lat="43.547525" lon="10.7192833"><ele>108.0</ele><time>2026-04-18T07:51:15.743Z</time></trkpt><trkpt lat="43.5476783" lon="10.7192867"><ele>108.0</ele><time>2026-04-18T07:51:16.74Z</time></trkpt><trkpt lat="43.5478367" lon="10.71928"><ele>108.0</ele><time>2026-04-18T07:51:17.746Z</time></trkpt><trkpt lat="43.5479967" lon="10.719275"><ele>108.0</ele><time>2026-04-18T07:51:18.744Z</time></trkpt><trkpt lat="43.54816" lon="10.719275"><ele>110.0</ele><time>2026-04-18T07:51:19.746Z</time></trkpt><trkpt lat="43.5483217" lon="10.7192767"><ele>112.0</ele><time>2026-04-18T07:51:20.744Z</time></trkpt><trkpt lat="43.548485" lon="10.7192817"><ele>114.0</ele><time>2026-04-18T07:51:21.741Z</time></trkpt><trkpt lat="43.54864" lon="10.7192783"><ele>114.5</ele><time>2026-04-18T07:51:22.747Z</time></trkpt><trkpt lat="43.5487883" lon="10.7192917"><ele>115.0</ele><time>2026-04-18T07:51:23.748Z</time></trkpt><trkpt lat="43.548935" lon="10.7193317"><ele>115.5</ele><time>2026-04-18T07:51:24.746Z</time></trkpt><trkpt lat="43.54907" lon="10.71939"><ele>116.0</ele><time>2026-04-18T07:51:25.743Z</time></trkpt><trkpt lat="43.549195" lon="10.7194583"><ele>121.5</ele><time>2026-04-18T07:51:26.75Z</time></trkpt><trkpt lat="43.5493" lon="10.7195383"><ele>127.0</ele><time>2026-04-18T07:51:27.742Z</time></trkpt><trkpt lat="43.5493767" lon="10.7196517"><ele>132.5</ele><time>2026-04-18T07:51:28.741Z</time></trkpt><trkpt lat="43.549445" lon="10.71977"><ele>138.0</ele><time>2026-04-18T07:51:29.748Z</time></trkpt><trkpt lat="43.549515" lon="10.719885"><ele>136.0</ele><time>2026-04-18T07:51:30.746Z</time></trkpt><trkpt lat="43.5495783" lon="10.7199983"><ele>134.0</ele><time>2026-04-18T07:51:31.747Z</time></trkpt><trkpt lat="43.5496367" lon="10.720115"><ele>132.0</ele><time>2026-04-18T07:51:32.745Z</time></trkpt><trkpt lat="43.5496817" lon="10.7202483"><ele>130.0</ele><time>2026-04-18T07:51:33.741Z</time></trkpt><trkpt lat="43.549695" lon="10.7204117"><ele>128.0</ele><time>2026-04-18T07:51:34.745Z</time></trkpt><trkpt lat="43.549685" lon="10.72059"><ele>128.0</ele><time>2026-04-18T07:51:35.742Z</time></trkpt><trkpt lat="43.5496733" lon="10.72077"><ele>128.0</ele><time>2026-04-18T07:51:36.746Z</time></trkpt><trkpt lat="43.549665" lon="10.7209467"><ele>128.0</ele><time>2026-04-18T07:51:37.741Z</time></trkpt><trkpt lat="43.5496533" lon="10.7211083"><ele>128.0</ele><time>2026-04-18T07:51:38.744Z</time></trkpt><trkpt lat="43.5496433" lon="10.7212483"><ele>129.0</ele><time>2026-04-18T07:51:39.743Z</time></trkpt><trkpt lat="43.5496217" lon="10.72135"><ele>130.0</ele><time>2026-04-18T07:51:40.741Z</time></trkpt><trkpt lat="43.5495917" lon="10.7214267"><ele>131.0</ele><time>2026-04-18T07:51:41.742Z</time></trkpt><trkpt lat="43.5495883" lon="10.721585"><ele>132.0</ele><time>2026-04-18T07:51:43.747Z</time></trkpt><trkpt lat="43.5495983" lon="10.7216833"><ele>133.0</ele><time>2026-04-18T07:51:44.748Z</time></trkpt><trkpt lat="43.5496167" lon="10.7217917"><ele>134.0</ele><time>2026-04-18T07:51:45.751Z</time></trkpt><trkpt lat="43.5496467" lon="10.7219"><ele>134.4</ele><time>2026-04-18T07:51:46.745Z</time></trkpt><trkpt lat="43.5496917" lon="10.7220167"><ele>134.8</ele><time>2026-04-18T07:51:47.746Z</time></trkpt><trkpt lat="43.5497333" lon="10.7221367"><ele>135.2</ele><time>2026-04-18T07:51:48.749Z</time></trkpt><trkpt lat="43.5497717" lon="10.722255"><ele>135.6</ele><time>2026-04-18T07:51:49.746Z</time></trkpt><trkpt lat="43.5498067" lon="10.7223783"><ele>136.0</ele><time>2026-04-18T07:51:50.747Z</time></trkpt><trkpt lat="43.5498317" lon="10.7225167"><ele>136.0</ele><time>2026-04-18T07:51:51.743Z</time></trkpt><trkpt lat="43.5498433" lon="10.7226683"><ele>136.0</ele><time>2026-04-18T07:51:52.75Z</time></trkpt><trkpt lat="43.54985" lon="10.7228267"><ele>136.0</ele><time>2026-04-18T07:51:53.753Z</time></trkpt><trkpt lat="43.54987" lon="10.72299"><ele>136.0</ele><time>2026-04-18T07:51:54.748Z</time></trkpt><trkpt lat="43.5499117" lon="10.72315"><ele>135.25</ele><time>2026-04-18T07:51:55.744Z</time></trkpt><trkpt lat="43.549955" lon="10.7233083"><ele>134.5</ele><time>2026-04-18T07:51:56.747Z</time></trkpt><trkpt lat="43.54999" lon="10.7234617"><ele>133.75</ele><time>2026-04-18T07:51:57.748Z</time></trkpt><trkpt lat="43.550025" lon="10.7236267"><ele>133.0</ele><time>2026-04-18T07:51:58.742Z</time></trkpt><trkpt lat="43.550065" lon="10.7238"><ele>131.6</ele><time>2026-04-18T07:51:59.744Z</time></trkpt><trkpt lat="43.5501233" lon="10.7239567"><ele>130.20000000000002</ele><time>2026-04-18T07:52:00.744Z</time></trkpt><trkpt lat="43.5501917" lon="10.72409"><ele>128.8</ele><time>2026-04-18T07:52:01.744Z</time></trkpt><trkpt lat="43.5502567" lon="10.72419"><ele>127.4</ele><time>2026-04-18T07:52:02.744Z</time></trkpt><trkpt lat="43.5503433" lon="10.7242733"><ele>126.0</ele><time>2026-04-18T07:52:03.744Z</time></trkpt><trkpt lat="43.5504483" lon="10.7243283"><ele>126.0</ele><time>2026-04-18T07:52:04.75Z</time></trkpt><trkpt lat="43.5505617" lon="10.7243583"><ele>126.0</ele><time>2026-04-18T07:52:05.743Z</time></trkpt><trkpt lat="43.5507133" lon="10.72439"><ele>126.0</ele><time>2026-04-18T07:52:06.746Z</time></trkpt><trkpt lat="43.5508667" lon="10.72441"><ele>126.0</ele><time>2026-04-18T07:52:07.752Z</time></trkpt><trkpt lat="43.5510217" lon="10.724435"><ele>118.33333333333334</ele><time>2026-04-18T07:52:08.75Z</time></trkpt><trkpt lat="43.5511767" lon="10.7244767"><ele>110.66666666666667</ele><time>2026-04-18T07:52:09.748Z</time></trkpt><trkpt lat="43.551335" lon="10.7245333"><ele>103.0</ele><time>2026-04-18T07:52:10.745Z</time></trkpt><trkpt lat="43.551495" lon="10.7245817"><ele>102.33333333333334</ele><time>2026-04-18T07:52:11.742Z</time></trkpt><trkpt lat="43.551675" lon="10.724625"><ele>101.66666666666666</ele><time>2026-04-18T07:52:12.748Z</time></trkpt><trkpt lat="43.551875" lon="10.7246517"><ele>101.0</ele><time>2026-04-18T07:52:13.741Z</time></trkpt><trkpt lat="43.5520767" lon="10.7246483"><ele>99.0</ele><time>2026-04-18T07:52:14.748Z</time></trkpt><trkpt lat="43.5522767" lon="10.7246283"><ele>97.0</ele><time>2026-04-18T07:52:15.741Z</time></trkpt><trkpt lat="43.552475" lon="10.7246217"><ele>95.0</ele><time>2026-04-18T07:52:16.748Z</time></trkpt><trkpt lat="43.5526667" lon="10.7246333"><ele>95.0</ele><time>2026-04-18T07:52:17.749Z</time></trkpt><trkpt lat="43.5528567" lon="10.72466"><ele>95.0</ele><time>2026-04-18T07:52:18.749Z</time></trkpt><trkpt lat="43.5530533" lon="10.724705"><ele>95.0</ele><time>2026-04-18T07:52:19.744Z</time></trkpt><trkpt lat="43.5532433" lon="10.7247533"><ele>92.0</ele><time>2026-04-18T07:52:20.749Z</time></trkpt><trkpt lat="43.5534317" lon="10.7247967"><ele>89.0</ele><time>2026-04-18T07:52:21.751Z</time></trkpt><trkpt lat="43.55362" lon="10.7248417"><ele>86.0</ele><time>2026-04-18T07:52:22.743Z</time></trkpt><trkpt lat="43.55381" lon="10.724875"><ele>84.33333333333334</ele><time>2026-04-18T07:52:23.747Z</time></trkpt><trkpt lat="43.554" lon="10.7249083"><ele>82.66666666666667</ele><time>2026-04-18T07:52:24.746Z</time></trkpt><trkpt lat="43.55419" lon="10.724935"><ele>81.0</ele><time>2026-04-18T07:52:25.745Z</time></trkpt><trkpt lat="43.5543817" lon="10.72495"><ele>78.0</ele><time>2026-04-18T07:52:26.756Z</time></trkpt><trkpt lat="43.5545833" lon="10.7249517"><ele>75.0</ele><time>2026-04-18T07:52:27.746Z</time></trkpt><trkpt lat="43.5547833" lon="10.72494"><ele>72.0</ele><time>2026-04-18T07:52:28.752Z</time></trkpt><trkpt lat="43.5549817" lon="10.72492"><ele>72.0</ele><time>2026-04-18T07:52:29.748Z</time></trkpt><trkpt lat="43.5551767" lon="10.72491"><ele>72.0</ele><time>2026-04-18T07:52:30.748Z</time></trkpt><trkpt lat="43.5553667" lon="10.7249067"><ele>72.0</ele><time>2026-04-18T07:52:31.747Z</time></trkpt><trkpt lat="43.5555533" lon="10.7249117"><ele>70.33333333333333</ele><time>2026-04-18T07:52:32.75Z</time></trkpt><trkpt lat="43.5557333" lon="10.7249283"><ele>68.66666666666666</ele><time>2026-04-18T07:52:33.747Z</time></trkpt><trkpt lat="43.5559117" lon="10.7249567"><ele>67.0</ele><time>2026-04-18T07:52:34.746Z</time></trkpt><trkpt lat="43.5560983" lon="10.725005"><ele>66.33333333333333</ele><time>2026-04-18T07:52:35.747Z</time></trkpt><trkpt lat="43.556295" lon="10.7250717"><ele>65.66666666666667</ele><time>2026-04-18T07:52:36.746Z</time></trkpt><trkpt lat="43.5564933" lon="10.72514"><ele>65.0</ele><time>2026-04-18T07:52:37.746Z</time></trkpt><trkpt lat="43.556685" lon="10.7252067"><ele>60.66666666666667</ele><time>2026-04-18T07:52:38.752Z</time></trkpt><trkpt lat="43.5568717" lon="10.7252783"><ele>56.33333333333333</ele><time>2026-04-18T07:52:39.748Z</time></trkpt><trkpt lat="43.557055" lon="10.725375"><ele>52.0</ele><time>2026-04-18T07:52:40.746Z</time></trkpt><trkpt lat="43.5572367" lon="10.725505"><ele>51.0</ele><time>2026-04-18T07:52:41.745Z</time></trkpt><trkpt lat="43.5574133" lon="10.72569"><ele>50.0</ele><time>2026-04-18T07:52:42.746Z</time></trkpt><trkpt lat="43.5575767" lon="10.725915"><ele>49.333333333333336</ele><time>2026-04-18T07:52:43.746Z</time></trkpt><trkpt lat="43.557725" lon="10.7261483"><ele>48.66666666666667</ele><time>2026-04-18T07:52:44.749Z</time></trkpt><trkpt lat="43.5578667" lon="10.7263733"><ele>48.0</ele><time>2026-04-18T07:52:45.748Z</time></trkpt><trkpt lat="43.5580033" lon="10.7265917"><ele>47.666666666666664</ele><time>2026-04-18T07:52:46.742Z</time></trkpt><trkpt lat="43.558135" lon="10.7268"><ele>47.33333333333333</ele><time>2026-04-18T07:52:47.754Z</time></trkpt><trkpt lat="43.558265" lon="10.72701"><ele>47.0</ele><time>2026-04-18T07:52:48.75Z</time></trkpt><trkpt lat="43.5583967" lon="10.7272183"><ele>47.0</ele><time>2026-04-18T07:52:49.745Z</time></trkpt><trkpt lat="43.5585317" lon="10.72743"><ele>47.0</ele><time>2026-04-18T07:52:50.747Z</time></trkpt><trkpt lat="43.55867" lon="10.727645"><ele>47.0</ele><time>2026-04-18T07:52:51.749Z</time></trkpt><trkpt lat="43.55881" lon="10.727865"><ele>47.0</ele><time>2026-04-18T07:52:52.742Z</time></trkpt><trkpt lat="43.55895" lon="10.7280867"><ele>47.0</ele><time>2026-04-18T07:52:53.742Z</time></trkpt><trkpt lat="43.5590883" lon="10.728305"><ele>47.0</ele><time>2026-04-18T07:52:54.748Z</time></trkpt><trkpt lat="43.5592183" lon="10.7285183"><ele>47.666666666666664</ele><time>2026-04-18T07:52:55.748Z</time></trkpt><trkpt lat="43.559345" lon="10.728715"><ele>48.33333333333333</ele><time>2026-04-18T07:52:56.745Z</time></trkpt><trkpt lat="43.5594533" lon="10.72891"><ele>49.0</ele><time>2026-04-18T07:52:57.75Z</time></trkpt><trkpt lat="43.5595633" lon="10.7290833"><ele>47.666666666666664</ele><time>2026-04-18T07:52:58.748Z</time></trkpt><trkpt lat="43.5596683" lon="10.7292517"><ele>46.33333333333333</ele><time>2026-04-18T07:52:59.746Z</time></trkpt><trkpt lat="43.5597783" lon="10.7294167"><ele>45.0</ele><time>2026-04-18T07:53:00.742Z</time></trkpt><trkpt lat="43.5598833" lon="10.7295833"><ele>45.0</ele><time>2026-04-18T07:53:01.748Z</time></trkpt><trkpt lat="43.5599933" lon="10.729755"><ele>45.0</ele><time>2026-04-18T07:53:02.743Z</time></trkpt><trkpt lat="43.5601067" lon="10.7299267"><ele>45.0</ele><time>2026-04-18T07:53:03.745Z</time></trkpt><trkpt lat="43.560205" lon="10.7301167"><ele>45.0</ele><time>2026-04-18T07:53:04.741Z</time></trkpt><trkpt lat="43.5603217" lon="10.73029"><ele>45.0</ele><time>2026-04-18T07:53:05.747Z</time></trkpt><trkpt lat="43.5604417" lon="10.7304767"><ele>45.0</ele><time>2026-04-18T07:53:06.744Z</time></trkpt><trkpt lat="43.5605617" lon="10.7306617"><ele>45.0</ele><time>2026-04-18T07:53:07.747Z</time></trkpt><trkpt lat="43.5606867" lon="10.73085"><ele>45.0</ele><time>2026-04-18T07:53:08.748Z</time></trkpt><trkpt lat="43.56082" lon="10.7310367"><ele>45.0</ele><time>2026-04-18T07:53:09.756Z</time></trkpt><trkpt lat="43.560945" lon="10.7312317"><ele>44.666666666666664</ele><time>2026-04-18T07:53:10.747Z</time></trkpt><trkpt lat="43.5610717" lon="10.73143"><ele>44.33333333333333</ele><time>2026-04-18T07:53:11.743Z</time></trkpt><trkpt lat="43.5611983" lon="10.7316317"><ele>44.0</ele><time>2026-04-18T07:53:12.749Z</time></trkpt><trkpt lat="43.561325" lon="10.7318467"><ele>44.33333333333333</ele><time>2026-04-18T07:53:13.756Z</time></trkpt><trkpt lat="43.5614533" lon="10.7320567"><ele>44.666666666666664</ele><time>2026-04-18T07:53:14.75Z</time></trkpt><trkpt lat="43.5615833" lon="10.732265"><ele>45.0</ele><time>2026-04-18T07:53:15.744Z</time></trkpt><trkpt lat="43.56171" lon="10.7324767"><ele>45.0</ele><time>2026-04-18T07:53:16.744Z</time></trkpt><trkpt lat="43.56184" lon="10.7326867"><ele>45.0</ele><time>2026-04-18T07:53:17.748Z</time></trkpt><trkpt lat="43.5619717" lon="10.7328967"><ele>45.0</ele><time>2026-04-18T07:53:18.749Z</time></trkpt><trkpt lat="43.5621017" lon="10.73311"><ele>45.666666666666664</ele><time>2026-04-18T07:53:19.751Z</time></trkpt><trkpt lat="43.5622317" lon="10.733325"><ele>46.33333333333333</ele><time>2026-04-18T07:53:20.748Z</time></trkpt><trkpt lat="43.5623633" lon="10.73354"><ele>47.0</ele><time>2026-04-18T07:53:21.746Z</time></trkpt><trkpt lat="43.562495" lon="10.73376"><ele>47.0</ele><time>2026-04-18T07:53:22.746Z</time></trkpt><trkpt lat="43.5626283" lon="10.7339783"><ele>47.0</ele><time>2026-04-18T07:53:23.744Z</time></trkpt><trkpt lat="43.562765" lon="10.7341917"><ele>47.0</ele><time>2026-04-18T07:53:24.747Z</time></trkpt><trkpt lat="43.5628933" lon="10.7344117"><ele>47.33333333333333</ele><time>2026-04-18T07:53:25.744Z</time></trkpt><trkpt lat="43.5630217" lon="10.734635"><ele>47.666666666666664</ele><time>2026-04-18T07:53:26.747Z</time></trkpt><trkpt lat="43.5631383" lon="10.7348683"><ele>48.0</ele><time>2026-04-18T07:53:27.753Z</time></trkpt><trkpt lat="43.5632467" lon="10.73511"><ele>47.666666666666664</ele><time>2026-04-18T07:53:28.742Z</time></trkpt><trkpt lat="43.5633433" lon="10.7353617"><ele>47.33333333333333</ele><time>2026-04-18T07:53:29.75Z</time></trkpt><trkpt lat="43.5634417" lon="10.7356133"><ele>47.0</ele><time>2026-04-18T07:53:30.75Z</time></trkpt><trkpt lat="43.5635433" lon="10.735865"><ele>47.33333333333333</ele><time>2026-04-18T07:53:31.745Z</time></trkpt><trkpt lat="43.563655" lon="10.7361117"><ele>47.666666666666664</ele><time>2026-04-18T07:53:32.754Z</time></trkpt><trkpt lat="43.56376" lon="10.7363567"><ele>48.0</ele><time>2026-04-18T07:53:33.745Z</time></trkpt><trkpt lat="43.5638733" lon="10.7365967"><ele>48.0</ele><time>2026-04-18T07:53:34.752Z</time></trkpt><trkpt lat="43.5639767" lon="10.73684"><ele>48.0</ele><time>2026-04-18T07:53:35.75Z</time></trkpt><trkpt lat="43.5640783" lon="10.7370717"><ele>48.0</ele><time>2026-04-18T07:53:36.754Z</time></trkpt><trkpt lat="43.564175" lon="10.7372883"><ele>48.0</ele><time>2026-04-18T07:53:37.752Z</time></trkpt><trkpt lat="43.5642633" lon="10.7374983"><ele>48.0</ele><time>2026-04-18T07:53:38.759Z</time></trkpt><trkpt lat="43.5643583" lon="10.73769"><ele>48.0</ele><time>2026-04-18T07:53:39.745Z</time></trkpt><trkpt lat="43.564435" lon="10.7378783"><ele>48.0</ele><time>2026-04-18T07:53:40.741Z</time></trkpt><trkpt lat="43.564505" lon="10.7380667"><ele>48.0</ele><time>2026-04-18T07:53:41.745Z</time></trkpt><trkpt lat="43.5645733" lon="10.73825"><ele>48.0</ele><time>2026-04-18T07:53:42.744Z</time></trkpt><trkpt lat="43.5646533" lon="10.7384333"><ele>48.75</ele><time>2026-04-18T07:53:43.744Z</time></trkpt><trkpt lat="43.5647433" lon="10.738605"><ele>49.5</ele><time>2026-04-18T07:53:44.749Z</time></trkpt><trkpt lat="43.5648333" lon="10.7387583"><ele>50.25</ele><time>2026-04-18T07:53:45.743Z</time></trkpt><trkpt lat="43.5649167" lon="10.738885"><ele>51.0</ele><time>2026-04-18T07:53:46.746Z</time></trkpt><trkpt lat="43.5649883" lon="10.7390017"><ele>51.0</ele><time>2026-04-18T07:53:47.75Z</time></trkpt><trkpt lat="43.565035" lon="10.7391133"><ele>51.0</ele><time>2026-04-18T07:53:48.75Z</time></trkpt><trkpt lat="43.56506" lon="10.739225"><ele>51.0</ele><time>2026-04-18T07:53:49.746Z</time></trkpt><trkpt lat="43.5650617" lon="10.7393433"><ele>51.0</ele><time>2026-04-18T07:53:50.747Z</time></trkpt><trkpt lat="43.5650383" lon="10.7394717"><ele>51.0</ele><time>2026-04-18T07:53:51.745Z</time></trkpt><trkpt lat="43.5649633" lon="10.7396117"><ele>51.5</ele><time>2026-04-18T07:53:52.746Z</time></trkpt><trkpt lat="43.5648683" lon="10.73975"><ele>52.0</ele><time>2026-04-18T07:53:53.749Z</time></trkpt><trkpt lat="43.56478" lon="10.7399083"><ele>52.5</ele><time>2026-04-18T07:53:54.746Z</time></trkpt><trkpt lat="43.56468" lon="10.7400833"><ele>53.0</ele><time>2026-04-18T07:53:55.745Z</time></trkpt><trkpt lat="43.56458" lon="10.7402767"><ele>52.333333333333336</ele><time>2026-04-18T07:53:56.748Z</time></trkpt><trkpt lat="43.5644733" lon="10.7404917"><ele>51.66666666666667</ele><time>2026-04-18T07:53:57.742Z</time></trkpt><trkpt lat="43.5643583" lon="10.7407117"><ele>51.0</ele><time>2026-04-18T07:53:58.75Z</time></trkpt><trkpt lat="43.5642333" lon="10.740925"><ele>53.0</ele><time>2026-04-18T07:53:59.745Z</time></trkpt><trkpt lat="43.5641083" lon="10.7411483"><ele>55.0</ele><time>2026-04-18T07:54:00.745Z</time></trkpt><trkpt lat="43.56398" lon="10.7413733"><ele>57.0</ele><time>2026-04-18T07:54:01.741Z</time></trkpt><trkpt lat="43.5638483" lon="10.7415983"><ele>57.0</ele><time>2026-04-18T07:54:02.74Z</time></trkpt><trkpt lat="43.563725" lon="10.7418217"><ele>57.0</ele><time>2026-04-18T07:54:03.749Z</time></trkpt><trkpt lat="43.5636067" lon="10.74203"><ele>57.0</ele><time>2026-04-18T07:54:04.744Z</time></trkpt><trkpt lat="43.5634917" lon="10.7422267"><ele>57.33333333333333</ele><time>2026-04-18T07:54:05.75Z</time></trkpt><trkpt lat="43.56339" lon="10.742425"><ele>57.666666666666664</ele><time>2026-04-18T07:54:06.749Z</time></trkpt><trkpt lat="43.5632783" lon="10.74261"><ele>58.0</ele><time>2026-04-18T07:54:07.743Z</time></trkpt><trkpt lat="43.56317" lon="10.7428"><ele>58.0</ele><time>2026-04-18T07:54:08.744Z</time></trkpt><trkpt lat="43.5630633" lon="10.742995"><ele>58.0</ele><time>2026-04-18T07:54:09.745Z</time></trkpt><trkpt lat="43.5629533" lon="10.74319"><ele>58.0</ele><time>2026-04-18T07:54:10.741Z</time></trkpt><trkpt lat="43.56284" lon="10.7433833"><ele>57.0</ele><time>2026-04-18T07:54:11.743Z</time></trkpt><trkpt lat="43.5627267" lon="10.7435833"><ele>56.0</ele><time>2026-04-18T07:54:12.742Z</time></trkpt><trkpt lat="43.562615" lon="10.7437883"><ele>55.0</ele><time>2026-04-18T07:54:13.748Z</time></trkpt><trkpt lat="43.562505" lon="10.7440067"><ele>55.0</ele><time>2026-04-18T07:54:14.745Z</time></trkpt><trkpt lat="43.5624017" lon="10.744245"><ele>55.0</ele><time>2026-04-18T07:54:15.745Z</time></trkpt><trkpt lat="43.562315" lon="10.744515"><ele>55.0</ele><time>2026-04-18T07:54:16.74Z</time></trkpt><trkpt lat="43.562245" lon="10.7448133"><ele>56.5</ele><time>2026-04-18T07:54:17.747Z</time></trkpt><trkpt lat="43.5621817" lon="10.74513"><ele>58.0</ele><time>2026-04-18T07:54:18.748Z</time></trkpt><trkpt lat="43.5621383" lon="10.7454583"><ele>58.0</ele><time>2026-04-18T07:54:19.747Z</time></trkpt><trkpt lat="43.5621217" lon="10.74579"><ele>58.0</ele><time>2026-04-18T07:54:20.747Z</time></trkpt><trkpt lat="43.5621133" lon="10.74611"><ele>56.666666666666664</ele><time>2026-04-18T07:54:21.747Z</time></trkpt><trkpt lat="43.562125" lon="10.7464183"><ele>55.33333333333333</ele><time>2026-04-18T07:54:22.742Z</time></trkpt><trkpt lat="43.5621567" lon="10.7467117"><ele>54.0</ele><time>2026-04-18T07:54:23.752Z</time></trkpt><trkpt lat="43.5622017" lon="10.74699"><ele>53.66666666666667</ele><time>2026-04-18T07:54:24.744Z</time></trkpt><trkpt lat="43.5622633" lon="10.747255"><ele>53.333333333333336</ele><time>2026-04-18T07:54:25.742Z</time></trkpt><trkpt lat="43.5623383" lon="10.7475"><ele>53.0</ele><time>2026-04-18T07:54:26.744Z</time></trkpt><trkpt lat="43.56242" lon="10.7477417"><ele>53.0</ele><time>2026-04-18T07:54:27.744Z</time></trkpt><trkpt lat="43.5625067" lon="10.747985"><ele>53.0</ele><time>2026-04-18T07:54:28.74Z</time></trkpt><trkpt lat="43.5625983" lon="10.748235"><ele>53.0</ele><time>2026-04-18T07:54:29.748Z</time></trkpt><trkpt lat="43.56269" lon="10.7484967"><ele>52.66666666666667</ele><time>2026-04-18T07:54:30.742Z</time></trkpt><trkpt lat="43.562775" lon="10.7487717"><ele>52.33333333333333</ele><time>2026-04-18T07:54:31.742Z</time></trkpt><trkpt lat="43.56287" lon="10.7490583"><ele>52.0</ele><time>2026-04-18T07:54:32.75Z</time></trkpt><trkpt lat="43.5629717" lon="10.7493517"><ele>54.5</ele><time>2026-04-18T07:54:33.749Z</time></trkpt><trkpt lat="43.5630817" lon="10.7496433"><ele>57.0</ele><time>2026-04-18T07:54:34.744Z</time></trkpt><trkpt lat="43.5631833" lon="10.7499433"><ele>55.0</ele><time>2026-04-18T07:54:35.742Z</time></trkpt><trkpt lat="43.5632867" lon="10.75024"><ele>53.0</ele><time>2026-04-18T07:54:36.749Z</time></trkpt><trkpt lat="43.5633883" lon="10.7505367"><ele>53.0</ele><time>2026-04-18T07:54:37.742Z</time></trkpt><trkpt lat="43.5634883" lon="10.7508317"><ele>53.0</ele><time>2026-04-18T07:54:38.742Z</time></trkpt><trkpt lat="43.5635867" lon="10.751125"><ele>53.0</ele><time>2026-04-18T07:54:39.741Z</time></trkpt><trkpt lat="43.563685" lon="10.7514183"><ele>53.0</ele><time>2026-04-18T07:54:40.739Z</time></trkpt><trkpt lat="43.5637867" lon="10.7517083"><ele>55.333333333333336</ele><time>2026-04-18T07:54:41.745Z</time></trkpt><trkpt lat="43.5638817" lon="10.751995"><ele>57.66666666666667</ele><time>2026-04-18T07:54:42.746Z</time></trkpt><trkpt lat="43.56397" lon="10.752265"><ele>60.0</ele><time>2026-04-18T07:54:43.744Z</time></trkpt><trkpt lat="43.5640633" lon="10.7525267"><ele>58.0</ele><time>2026-04-18T07:54:44.746Z</time></trkpt><trkpt lat="43.5641633" lon="10.752785"><ele>56.0</ele><time>2026-04-18T07:54:45.748Z</time></trkpt><trkpt lat="43.5642833" lon="10.753035"><ele>54.0</ele><time>2026-04-18T07:54:46.751Z</time></trkpt><trkpt lat="43.5644133" lon="10.75328"><ele>55.0</ele><time>2026-04-18T07:54:47.747Z</time></trkpt><trkpt lat="43.564565" lon="10.7535067"><ele>56.0</ele><time>2026-04-18T07:54:48.746Z</time></trkpt><trkpt lat="43.5647383" lon="10.753705"><ele>57.0</ele><time>2026-04-18T07:54:49.748Z</time></trkpt><trkpt lat="43.564925" lon="10.7538917"><ele>57.0</ele><time>2026-04-18T07:54:50.75Z</time></trkpt><trkpt lat="43.565125" lon="10.7540633"><ele>57.0</ele><time>2026-04-18T07:54:51.744Z</time></trkpt><trkpt lat="43.5653283" lon="10.7542433"><ele>56.5</ele><time>2026-04-18T07:54:52.743Z</time></trkpt><trkpt lat="43.5655367" lon="10.7544283"><ele>56.0</ele><time>2026-04-18T07:54:53.742Z</time></trkpt><trkpt lat="43.56576" lon="10.754605"><ele>56.0</ele><time>2026-04-18T07:54:54.744Z</time></trkpt><trkpt lat="43.5659817" lon="10.7548017"><ele>56.0</ele><time>2026-04-18T07:54:55.743Z</time></trkpt><trkpt lat="43.5662133" lon="10.7549933"><ele>57.0</ele><time>2026-04-18T07:54:56.744Z</time></trkpt><trkpt lat="43.5664467" lon="10.7551833"><ele>58.0</ele><time>2026-04-18T07:54:57.745Z</time></trkpt><trkpt lat="43.5666783" lon="10.755375"><ele>58.0</ele><time>2026-04-18T07:54:58.741Z</time></trkpt><trkpt lat="43.56691" lon="10.7555683"><ele>58.0</ele><time>2026-04-18T07:54:59.743Z</time></trkpt><trkpt lat="43.5671433" lon="10.7557567"><ele>58.0</ele><time>2026-04-18T07:55:00.745Z</time></trkpt><trkpt lat="43.5673767" lon="10.7559467"><ele>58.0</ele><time>2026-04-18T07:55:01.746Z</time></trkpt><trkpt lat="43.5676117" lon="10.7561333"><ele>58.5</ele><time>2026-04-18T07:55:02.741Z</time></trkpt><trkpt lat="43.5678433" lon="10.756325"><ele>59.0</ele><time>2026-04-18T07:55:03.743Z</time></trkpt><trkpt lat="43.5680767" lon="10.7565233"><ele>59.0</ele><time>2026-04-18T07:55:04.743Z</time></trkpt><trkpt lat="43.5683117" lon="10.7567183"><ele>59.0</ele><time>2026-04-18T07:55:05.749Z</time></trkpt><trkpt lat="43.568545" lon="10.7569183"><ele>58.0</ele><time>2026-04-18T07:55:06.746Z</time></trkpt><trkpt lat="43.5687867" lon="10.7571"><ele>57.0</ele><time>2026-04-18T07:55:07.742Z</time></trkpt><trkpt lat="43.569025" lon="10.757295"><ele>57.0</ele><time>2026-04-18T07:55:08.75Z</time></trkpt><trkpt lat="43.5692683" lon="10.757485"><ele>57.0</ele><time>2026-04-18T07:55:09.745Z</time></trkpt><trkpt lat="43.569505" lon="10.7576833"><ele>58.5</ele><time>2026-04-18T07:55:10.745Z</time></trkpt><trkpt lat="43.5697367" lon="10.75788"><ele>60.0</ele><time>2026-04-18T07:55:11.744Z</time></trkpt><trkpt lat="43.56996" lon="10.7580733"><ele>60.0</ele><time>2026-04-18T07:55:12.74Z</time></trkpt><trkpt lat="43.57017" lon="10.75825"><ele>60.0</ele><time>2026-04-18T07:55:13.741Z</time></trkpt><trkpt lat="43.570365" lon="10.7584017"><ele>59.33333333333333</ele><time>2026-04-18T07:55:14.741Z</time></trkpt><trkpt lat="43.5705283" lon="10.75854"><ele>58.666666666666664</ele><time>2026-04-18T07:55:15.742Z</time></trkpt><trkpt lat="43.5706717" lon="10.75866"><ele>58.0</ele><time>2026-04-18T07:55:16.743Z</time></trkpt><trkpt lat="43.5707967" lon="10.758755"><ele>57.99999999999999</ele><time>2026-04-18T07:55:17.741Z</time></trkpt><trkpt lat="43.5708883" lon="10.7588483"><ele>58.0</ele><time>2026-04-18T07:55:18.743Z</time></trkpt><trkpt lat="43.5709567" lon="10.758915"><ele>58.0</ele><time>2026-04-18T07:55:19.741Z</time></trkpt><trkpt lat="43.5710117" lon="10.7589617"><ele>58.0</ele><time>2026-04-18T07:55:20.749Z</time></trkpt><trkpt lat="43.5709983" lon="10.7588717"><ele>57.99999999999999</ele><time>2026-04-18T07:55:24.757Z</time></trkpt><trkpt lat="43.5709117" lon="10.7588267"><ele>58.0</ele><time>2026-04-18T07:55:25.745Z</time></trkpt><trkpt lat="43.570825" lon="10.75877"><ele>58.0</ele><time>2026-04-18T07:55:26.746Z</time></trkpt><trkpt lat="43.5707533" lon="10.7586867"><ele>58.0</ele><time>2026-04-18T07:55:27.743Z</time></trkpt><trkpt lat="43.57064" lon="10.75858"><ele>58.0</ele><time>2026-04-18T07:55:28.742Z</time></trkpt><trkpt lat="43.570485" lon="10.7584733"><ele>58.0</ele><time>2026-04-18T07:55:29.743Z</time></trkpt><trkpt lat="43.570325" lon="10.7583233"><ele>58.666666666666664</ele><time>2026-04-18T07:55:30.742Z</time></trkpt><trkpt lat="43.57015" lon="10.7581767"><ele>59.33333333333333</ele><time>2026-04-18T07:55:31.742Z</time></trkpt><trkpt lat="43.5699817" lon="10.75803"><ele>60.0</ele><time>2026-04-18T07:55:32.746Z</time></trkpt><trkpt lat="43.5698183" lon="10.7578983"><ele>60.0</ele><time>2026-04-18T07:55:33.742Z</time></trkpt><trkpt lat="43.569665" lon="10.7577783"><ele>60.0</ele><time>2026-04-18T07:55:34.743Z</time></trkpt><trkpt lat="43.5695367" lon="10.7576733"><ele>60.0</ele><time>2026-04-18T07:55:35.746Z</time></trkpt><trkpt lat="43.569445" lon="10.7575917"><ele>60.0</ele><time>2026-04-18T07:55:36.744Z</time></trkpt><trkpt lat="43.56938" lon="10.7575433"><ele>59.4</ele><time>2026-04-18T07:55:37.745Z</time></trkpt><trkpt lat="43.5692933" lon="10.7575433"><ele>58.8</ele><time>2026-04-18T07:55:39.748Z</time></trkpt><trkpt lat="43.5692267" lon="10.7576083"><ele>58.2</ele><time>2026-04-18T07:55:41.746Z</time></trkpt><trkpt lat="43.5691417" lon="10.7577333"><ele>57.6</ele><time>2026-04-18T07:55:43.742Z</time></trkpt><trkpt lat="43.569105" lon="10.7578217"><ele>57.0</ele><time>2026-04-18T07:55:44.743Z</time></trkpt><trkpt lat="43.569065" lon="10.7579233"><ele>57.0</ele><time>2026-04-18T07:55:45.743Z</time></trkpt><trkpt lat="43.56901" lon="10.75804"><ele>57.0</ele><time>2026-04-18T07:55:46.751Z</time></trkpt><trkpt lat="43.5689467" lon="10.75817"><ele>57.0</ele><time>2026-04-18T07:55:47.74Z</time></trkpt><trkpt lat="43.5688767" lon="10.7583"><ele>57.0</ele><time>2026-04-18T07:55:48.741Z</time></trkpt><trkpt lat="43.5688167" lon="10.7584283"><ele>57.0</ele><time>2026-04-18T07:55:49.744Z</time></trkpt><trkpt lat="43.5687617" lon="10.7585533"><ele>57.0</ele><time>2026-04-18T07:55:50.744Z</time></trkpt><trkpt lat="43.5687017" lon="10.7586733"><ele>57.0</ele><time>2026-04-18T07:55:51.745Z</time></trkpt><trkpt lat="43.5686317" lon="10.7587767"><ele>57.0</ele><time>2026-04-18T07:55:52.742Z</time></trkpt><trkpt lat="43.5685583" lon="10.75887"><ele>57.0</ele><time>2026-04-18T07:55:53.749Z</time></trkpt><trkpt lat="43.5684833" lon="10.758955"><ele>57.0</ele><time>2026-04-18T07:55:54.746Z</time></trkpt><trkpt lat="43.5684117" lon="10.7590417"><ele>56.333333333333336</ele><time>2026-04-18T07:55:55.744Z</time></trkpt><trkpt lat="43.5683467" lon="10.75913"><ele>55.66666666666667</ele><time>2026-04-18T07:55:56.744Z</time></trkpt><trkpt lat="43.5682933" lon="10.7592233"><ele>55.0</ele><time>2026-04-18T07:55:57.741Z</time></trkpt><trkpt lat="43.568255" lon="10.7593183"><ele>54.333333333333336</ele><time>2026-04-18T07:55:58.747Z</time></trkpt><trkpt lat="43.5682233" lon="10.7594083"><ele>53.66666666666667</ele><time>2026-04-18T07:55:59.745Z</time></trkpt><trkpt lat="43.5681633" lon="10.7595033"><ele>53.0</ele><time>2026-04-18T07:56:01.739Z</time></trkpt><trkpt lat="43.56809" lon="10.7594783"><ele>53.00000000000001</ele><time>2026-04-18T07:56:04.744Z</time></trkpt><trkpt lat="43.5680033" lon="10.7594783"><ele>53.0</ele><time>2026-04-18T07:56:06.741Z</time></trkpt><trkpt lat="43.5679117" lon="10.7594833"><ele>53.0</ele><time>2026-04-18T07:56:08.743Z</time></trkpt><trkpt lat="43.5678333" lon="10.75949"><ele>53.0</ele><time>2026-04-18T07:56:10.742Z</time></trkpt><trkpt lat="43.5677583" lon="10.7595217"><ele>53.00000000000001</ele><time>2026-04-18T07:56:12.746Z</time></trkpt><trkpt lat="43.567675" lon="10.75953"><ele>53.0</ele><time>2026-04-18T07:56:17.744Z</time></trkpt><trkpt lat="43.567585" lon="10.7595583"><ele>54.4</ele><time>2026-04-18T07:56:20.743Z</time></trkpt><trkpt lat="43.56749" lon="10.759645"><ele>55.8</ele><time>2026-04-18T07:56:39.745Z</time></trkpt><trkpt lat="43.5674267" lon="10.7597067"><ele>57.2</ele><time>2026-04-18T07:56:40.743Z</time></trkpt><trkpt lat="43.5673467" lon="10.7597867"><ele>58.6</ele><time>2026-04-18T07:56:41.744Z</time></trkpt><trkpt lat="43.5672567" lon="10.7598667"><ele>60.0</ele><time>2026-04-18T07:56:42.746Z</time></trkpt><trkpt lat="43.5671517" lon="10.759935"><ele>60.0</ele><time>2026-04-18T07:56:43.746Z</time></trkpt><trkpt lat="43.5670633" lon="10.760015"><ele>60.0</ele><time>2026-04-18T07:56:44.746Z</time></trkpt><trkpt lat="43.5669833" lon="10.7600867"><ele>60.0</ele><time>2026-04-18T07:56:45.743Z</time></trkpt><trkpt lat="43.56691" lon="10.760145"><ele>60.0</ele><time>2026-04-18T07:56:46.742Z</time></trkpt><trkpt lat="43.5668367" lon="10.7601867"><ele>60.0</ele><time>2026-04-18T07:56:47.742Z</time></trkpt><trkpt lat="43.566775" lon="10.7602467"><ele>60.0</ele><time>2026-04-18T07:56:48.742Z</time></trkpt><trkpt lat="43.5667167" lon="10.7603067"><ele>61.57142857142857</ele><time>2026-04-18T07:56:49.743Z</time></trkpt><trkpt lat="43.5666517" lon="10.760375"><ele>63.14285714285714</ele><time>2026-04-18T07:56:50.751Z</time></trkpt><trkpt lat="43.56659" lon="10.7604283"><ele>64.71428571428571</ele><time>2026-04-18T07:56:51.748Z</time></trkpt><trkpt lat="43.5665383" lon="10.7604917"><ele>66.28571428571428</ele><time>2026-04-18T07:56:52.745Z</time></trkpt><trkpt lat="43.5664883" lon="10.7605533"><ele>67.85714285714285</ele><time>2026-04-18T07:56:53.743Z</time></trkpt><trkpt lat="43.5664383" lon="10.76062"><ele>69.42857142857143</ele><time>2026-04-18T07:56:54.744Z</time></trkpt><trkpt lat="43.56639" lon="10.7606917"><ele>71.0</ele><time>2026-04-18T07:56:55.744Z</time></trkpt><trkpt lat="43.566345" lon="10.7607617"><ele>71.0</ele><time>2026-04-18T07:56:56.745Z</time></trkpt><trkpt lat="43.5663" lon="10.760835"><ele>71.0</ele><time>2026-04-18T07:56:57.742Z</time></trkpt><trkpt lat="43.5662583" lon="10.7609117"><ele>71.0</ele><time>2026-04-18T07:56:58.742Z</time></trkpt><trkpt lat="43.5662217" lon="10.7609967"><ele>71.0</ele><time>2026-04-18T07:56:59.743Z</time></trkpt><trkpt lat="43.5661983" lon="10.7610983"><ele>71.0</ele><time>2026-04-18T07:57:00.744Z</time></trkpt><trkpt lat="43.5661917" lon="10.761205"><ele>71.0</ele><time>2026-04-18T07:57:01.742Z</time></trkpt><trkpt lat="43.566205" lon="10.7613217"><ele>71.8</ele><time>2026-04-18T07:57:02.745Z</time></trkpt><trkpt lat="43.5662283" lon="10.7614483"><ele>72.6</ele><time>2026-04-18T07:57:03.742Z</time></trkpt><trkpt lat="43.56623" lon="10.761575"><ele>73.4</ele><time>2026-04-18T07:57:04.743Z</time></trkpt><trkpt lat="43.5662167" lon="10.761705"><ele>74.2</ele><time>2026-04-18T07:57:05.742Z</time></trkpt><trkpt lat="43.5661983" lon="10.7618417"><ele>75.0</ele><time>2026-04-18T07:57:06.745Z</time></trkpt><trkpt lat="43.5661867" lon="10.7619717"><ele>71.4</ele><time>2026-04-18T07:57:07.742Z</time></trkpt><trkpt lat="43.566165" lon="10.7620933"><ele>67.8</ele><time>2026-04-18T07:57:08.743Z</time></trkpt><trkpt lat="43.5661317" lon="10.7622067"><ele>64.2</ele><time>2026-04-18T07:57:09.743Z</time></trkpt><trkpt lat="43.5661" lon="10.76232"><ele>60.6</ele><time>2026-04-18T07:57:10.745Z</time></trkpt><trkpt lat="43.566075" lon="10.7624367"><ele>57.0</ele><time>2026-04-18T07:57:11.747Z</time></trkpt><trkpt lat="43.5660567" lon="10.7625667"><ele>57.0</ele><time>2026-04-18T07:57:12.75Z</time></trkpt><trkpt lat="43.5660533" lon="10.7627183"><ele>57.0</ele><time>2026-04-18T07:57:13.746Z</time></trkpt><trkpt lat="43.5660433" lon="10.7628817"><ele>57.0</ele><time>2026-04-18T07:57:14.743Z</time></trkpt><trkpt lat="43.566055" lon="10.763065"><ele>57.0</ele><time>2026-04-18T07:57:15.742Z</time></trkpt><trkpt lat="43.566065" lon="10.7632683"><ele>57.0</ele><time>2026-04-18T07:57:16.742Z</time></trkpt><trkpt lat="43.5660717" lon="10.7634667"><ele>57.0</ele><time>2026-04-18T07:57:17.74Z</time></trkpt><trkpt lat="43.5660917" lon="10.76366"><ele>57.0</ele><time>2026-04-18T07:57:18.742Z</time></trkpt><trkpt lat="43.5660917" lon="10.7638383"><ele>57.0</ele><time>2026-04-18T07:57:19.741Z</time></trkpt><trkpt lat="43.5661067" lon="10.7640033"><ele>57.2</ele><time>2026-04-18T07:57:20.745Z</time></trkpt><trkpt lat="43.5661033" lon="10.7641383"><ele>57.400000000000006</ele><time>2026-04-18T07:57:21.743Z</time></trkpt><trkpt lat="43.5661167" lon="10.7642467"><ele>57.599999999999994</ele><time>2026-04-18T07:57:22.747Z</time></trkpt><trkpt lat="43.5661233" lon="10.7644033"><ele>57.8</ele><time>2026-04-18T07:57:24.743Z</time></trkpt><trkpt lat="43.566125" lon="10.76451"><ele>58.0</ele><time>2026-04-18T07:57:25.741Z</time></trkpt><trkpt lat="43.56615" lon="10.7646567"><ele>58.25</ele><time>2026-04-18T07:57:26.743Z</time></trkpt><trkpt lat="43.566175" lon="10.7648183"><ele>58.5</ele><time>2026-04-18T07:57:27.743Z</time></trkpt><trkpt lat="43.56622" lon="10.7649733"><ele>58.75</ele><time>2026-04-18T07:57:28.741Z</time></trkpt><trkpt lat="43.56627" lon="10.7651217"><ele>59.0</ele><time>2026-04-18T07:57:29.75Z</time></trkpt><trkpt lat="43.5663233" lon="10.7652783"><ele>62.25</ele><time>2026-04-18T07:57:30.744Z</time></trkpt><trkpt lat="43.5663583" lon="10.7654417"><ele>65.5</ele><time>2026-04-18T07:57:31.745Z</time></trkpt><trkpt lat="43.566385" lon="10.7656117"><ele>68.75</ele><time>2026-04-18T07:57:32.75Z</time></trkpt><trkpt lat="43.5663983" lon="10.7658083"><ele>72.0</ele><time>2026-04-18T07:57:33.746Z</time></trkpt><trkpt lat="43.5663767" lon="10.7660383"><ele>72.0</ele><time>2026-04-18T07:57:34.742Z</time></trkpt><trkpt lat="43.5663917" lon="10.7662883"><ele>72.0</ele><time>2026-04-18T07:57:35.749Z</time></trkpt><trkpt lat="43.566375" lon="10.7665117"><ele>72.0</ele><time>2026-04-18T07:57:36.752Z</time></trkpt><trkpt lat="43.5663883" lon="10.7667267"><ele>72.25</ele><time>2026-04-18T07:57:37.743Z</time></trkpt><trkpt lat="43.5663717" lon="10.7669283"><ele>72.5</ele><time>2026-04-18T07:57:38.745Z</time></trkpt><trkpt lat="43.5663667" lon="10.7671267"><ele>72.75</ele><time>2026-04-18T07:57:39.746Z</time></trkpt><trkpt lat="43.566375" lon="10.7673067"><ele>73.0</ele><time>2026-04-18T07:57:40.743Z</time></trkpt><trkpt lat="43.5663817" lon="10.76747"><ele>73.0</ele><time>2026-04-18T07:57:41.742Z</time></trkpt><trkpt lat="43.5663883" lon="10.7676183"><ele>73.0</ele><time>2026-04-18T07:57:42.741Z</time></trkpt><trkpt lat="43.5663933" lon="10.76775"><ele>73.0</ele><time>2026-04-18T07:57:43.745Z</time></trkpt><trkpt lat="43.566385" lon="10.7678567"><ele>73.0</ele><time>2026-04-18T07:57:44.745Z</time></trkpt><trkpt lat="43.5663833" lon="10.7679567"><ele>73.0</ele><time>2026-04-18T07:57:45.742Z</time></trkpt><trkpt lat="43.566395" lon="10.768065"><ele>73.0</ele><time>2026-04-18T07:57:46.75Z</time></trkpt><trkpt lat="43.5664133" lon="10.7681783"><ele>72.8</ele><time>2026-04-18T07:57:47.744Z</time></trkpt><trkpt lat="43.566445" lon="10.7682983"><ele>72.6</ele><time>2026-04-18T07:57:48.743Z</time></trkpt><trkpt lat="43.56649" lon="10.7684133"><ele>72.4</ele><time>2026-04-18T07:57:49.748Z</time></trkpt><trkpt lat="43.5665117" lon="10.7685333"><ele>72.2</ele><time>2026-04-18T07:57:50.742Z</time></trkpt><trkpt lat="43.566525" lon="10.768665"><ele>72.0</ele><time>2026-04-18T07:57:51.748Z</time></trkpt><trkpt lat="43.566525" lon="10.7688267"><ele>72.0</ele><time>2026-04-18T07:57:52.745Z</time></trkpt><trkpt lat="43.5665233" lon="10.7690117"><ele>72.0</ele><time>2026-04-18T07:57:53.747Z</time></trkpt><trkpt lat="43.5665283" lon="10.7691983"><ele>72.0</ele><time>2026-04-18T07:57:54.748Z</time></trkpt><trkpt lat="43.5665383" lon="10.769365"><ele>72.0</ele><time>2026-04-18T07:57:55.749Z</time></trkpt><trkpt lat="43.5665567" lon="10.76952"><ele>71.83333333333333</ele><time>2026-04-18T07:57:56.747Z</time></trkpt><trkpt lat="43.566555" lon="10.769665"><ele>71.66666666666667</ele><time>2026-04-18T07:57:57.745Z</time></trkpt><trkpt lat="43.5665683" lon="10.7697867"><ele>71.5</ele><time>2026-04-18T07:57:58.747Z</time></trkpt><trkpt lat="43.5665667" lon="10.7699133"><ele>71.33333333333334</ele><time>2026-04-18T07:58:00.742Z</time></trkpt><trkpt lat="43.5666283" lon="10.76989"><ele>71.16666666666667</ele><time>2026-04-18T07:58:04.745Z</time></trkpt><trkpt lat="43.5666133" lon="10.7697817"><ele>71.0</ele><time>2026-04-18T07:58:07.743Z</time></trkpt><trkpt lat="43.56658" lon="10.769655"><ele>71.0</ele><time>2026-04-18T07:58:10.749Z</time></trkpt><trkpt lat="43.566585" lon="10.7695433"><ele>71.0</ele><time>2026-04-18T07:58:12.745Z</time></trkpt><trkpt lat="43.5665817" lon="10.7694433"><ele>71.0</ele><time>2026-04-18T07:58:14.747Z</time></trkpt><trkpt lat="43.5665783" lon="10.769325"><ele>71.0</ele><time>2026-04-18T07:58:16.747Z</time></trkpt><trkpt lat="43.5665517" lon="10.7692117"><ele>71.0</ele><time>2026-04-18T07:58:18.745Z</time></trkpt><trkpt lat="43.5665517" lon="10.7690783"><ele>71.0</ele><time>2026-04-18T07:58:20.744Z</time></trkpt><trkpt lat="43.5665483" lon="10.7689617"><ele>71.2</ele><time>2026-04-18T07:58:22.746Z</time></trkpt><trkpt lat="43.56654" lon="10.768795"><ele>71.39999999999999</ele><time>2026-04-18T07:58:24.742Z</time></trkpt><trkpt lat="43.56654" lon="10.7686367"><ele>71.6</ele><time>2026-04-18T07:58:26.745Z</time></trkpt><trkpt lat="43.5665217" lon="10.7684883"><ele>71.8</ele><time>2026-04-18T07:58:28.751Z</time></trkpt><trkpt lat="43.5664817" lon="10.768355"><ele>72.0</ele><time>2026-04-18T07:58:30.746Z</time></trkpt><trkpt lat="43.5664333" lon="10.768235"><ele>72.66666666666667</ele><time>2026-04-18T07:58:32.746Z</time></trkpt><trkpt lat="43.5663967" lon="10.7681017"><ele>73.33333333333333</ele><time>2026-04-18T07:58:34.743Z</time></trkpt><trkpt lat="43.5663833" lon="10.767985"><ele>74.0</ele><time>2026-04-18T07:58:36.746Z</time></trkpt><trkpt lat="43.5664533" lon="10.7679733"><ele>74.66666666666666</ele><time>2026-04-18T07:58:41.744Z</time></trkpt><trkpt lat="43.566455" lon="10.768075"><ele>75.33333333333333</ele><time>2026-04-18T07:58:56.744Z</time></trkpt><trkpt lat="43.5664933" lon="10.7681783"><ele>76.0</ele><time>2026-04-18T07:58:58.745Z</time></trkpt><trkpt lat="43.5665567" lon="10.76833"><ele>76.0</ele><time>2026-04-18T07:59:00.749Z</time></trkpt><trkpt lat="43.5666033" lon="10.7683983"><ele>76.0</ele><time>2026-04-18T07:59:01.746Z</time></trkpt><trkpt lat="43.56666" lon="10.76847"><ele>76.0</ele><time>2026-04-18T07:59:02.749Z</time></trkpt><trkpt lat="43.5667017" lon="10.7685633"><ele>76.0</ele><time>2026-04-18T07:59:03.744Z</time></trkpt><trkpt lat="43.5667433" lon="10.7686417"><ele>76.0</ele><time>2026-04-18T07:59:04.75Z</time></trkpt><trkpt lat="43.566805" lon="10.7687883"><ele>76.0</ele><time>2026-04-18T07:59:06.744Z</time></trkpt><trkpt lat="43.566825" lon="10.768875"><ele>75.42857142857143</ele><time>2026-04-18T07:59:07.746Z</time></trkpt><trkpt lat="43.5668617" lon="10.7689533"><ele>74.85714285714286</ele><time>2026-04-18T07:59:08.746Z</time></trkpt><trkpt lat="43.5669" lon="10.769025"><ele>74.28571428571429</ele><time>2026-04-18T07:59:09.756Z</time></trkpt><trkpt lat="43.5669617" lon="10.7690717"><ele>73.71428571428572</ele><time>2026-04-18T07:59:10.744Z</time></trkpt><trkpt lat="43.56703" lon="10.7691067"><ele>73.14285714285714</ele><time>2026-04-18T07:59:11.746Z</time></trkpt><trkpt lat="43.5670767" lon="10.7691717"><ele>72.57142857142858</ele><time>2026-04-18T07:59:12.745Z</time></trkpt><trkpt lat="43.5671267" lon="10.7692433"><ele>72.0</ele><time>2026-04-18T07:59:13.746Z</time></trkpt><trkpt lat="43.5671733" lon="10.7693433"><ele>75.83333333333333</ele><time>2026-04-18T07:59:15.749Z</time></trkpt><trkpt lat="43.5672867" lon="10.76938"><ele>79.66666666666667</ele><time>2026-04-18T07:59:21.744Z</time></trkpt><trkpt lat="43.5673683" lon="10.76939"><ele>83.5</ele><time>2026-04-18T07:59:22.745Z</time></trkpt><trkpt lat="43.5674467" lon="10.769375"><ele>87.33333333333334</ele><time>2026-04-18T07:59:23.746Z</time></trkpt><trkpt lat="43.5675333" lon="10.7693783"><ele>91.16666666666667</ele><time>2026-04-18T07:59:24.742Z</time></trkpt><trkpt lat="43.5676117" lon="10.7693833"><ele>95.0</ele><time>2026-04-18T07:59:25.747Z</time></trkpt><trkpt lat="43.5676833" lon="10.7694"><ele>95.0</ele><time>2026-04-18T07:59:26.748Z</time></trkpt><trkpt lat="43.5677583" lon="10.7694167"><ele>95.0</ele><time>2026-04-18T07:59:27.745Z</time></trkpt><trkpt lat="43.5678383" lon="10.7693983"><ele>95.0</ele><time>2026-04-18T07:59:28.744Z</time></trkpt><trkpt lat="43.5679333" lon="10.7694533"><ele>95.0</ele><time>2026-04-18T07:59:29.749Z</time></trkpt><trkpt lat="43.5680233" lon="10.7694917"><ele>95.0</ele><time>2026-04-18T07:59:30.749Z</time></trkpt><trkpt lat="43.5681017" lon="10.7695233"><ele>95.0</ele><time>2026-04-18T07:59:31.748Z</time></trkpt><trkpt lat="43.56817" lon="10.7695917"><ele>98.6</ele><time>2026-04-18T07:59:32.745Z</time></trkpt><trkpt lat="43.5682583" lon="10.7696267"><ele>102.2</ele><time>2026-04-18T07:59:33.743Z</time></trkpt><trkpt lat="43.5683317" lon="10.769675"><ele>105.80000000000001</ele><time>2026-04-18T07:59:34.741Z</time></trkpt><trkpt lat="43.5683867" lon="10.7697583"><ele>109.4</ele><time>2026-04-18T07:59:36.746Z</time></trkpt><trkpt lat="43.5683433" lon="10.769905"><ele>113.0</ele><time>2026-04-18T07:59:38.749Z</time></trkpt><trkpt lat="43.56832" lon="10.7700183"><ele>113.0</ele><time>2026-04-18T07:59:40.744Z</time></trkpt><trkpt lat="43.56827" lon="10.770125"><ele>113.00000000000001</ele><time>2026-04-18T07:59:41.747Z</time></trkpt><trkpt lat="43.5682233" lon="10.7702233"><ele>113.00000000000001</ele><time>2026-04-18T07:59:42.749Z</time></trkpt><trkpt lat="43.5681417" lon="10.770335"><ele>113.0</ele><time>2026-04-18T07:59:43.746Z</time></trkpt><trkpt lat="43.5680417" lon="10.7704483"><ele>113.0</ele><time>2026-04-18T07:59:44.744Z</time></trkpt><trkpt lat="43.56801" lon="10.7705683"><ele>113.16666666666666</ele><time>2026-04-18T07:59:45.746Z</time></trkpt><trkpt lat="43.5680267" lon="10.7706717"><ele>113.33333333333333</ele><time>2026-04-18T07:59:46.742Z</time></trkpt><trkpt lat="43.56794" lon="10.77082"><ele>113.5</ele><time>2026-04-18T07:59:47.742Z</time></trkpt><trkpt lat="43.5679" lon="10.770915"><ele>113.66666666666666</ele><time>2026-04-18T07:59:48.744Z</time></trkpt><trkpt lat="43.5678733" lon="10.77101"><ele>113.83333333333333</ele><time>2026-04-18T07:59:49.743Z</time></trkpt><trkpt lat="43.5678283" lon="10.7711033"><ele>114.0</ele><time>2026-04-18T07:59:50.746Z</time></trkpt><trkpt lat="43.5678" lon="10.771215"><ele>114.0</ele><time>2026-04-18T07:59:51.746Z</time></trkpt><trkpt lat="43.5677567" lon="10.7713283"><ele>114.0</ele><time>2026-04-18T07:59:52.743Z</time></trkpt><trkpt lat="43.5677333" lon="10.7714433"><ele>114.0</ele><time>2026-04-18T07:59:53.744Z</time></trkpt><trkpt lat="43.5677267" lon="10.7715383"><ele>114.0</ele><time>2026-04-18T07:59:54.746Z</time></trkpt><trkpt lat="43.5676967" lon="10.77171"><ele>114.0</ele><time>2026-04-18T07:59:56.743Z</time></trkpt><trkpt lat="43.5676767" lon="10.7718033"><ele>114.0</ele><time>2026-04-18T07:59:57.742Z</time></trkpt><trkpt lat="43.5676933" lon="10.771935"><ele>113.66666666666667</ele><time>2026-04-18T07:59:59.747Z</time></trkpt><trkpt lat="43.5677667" lon="10.7720267"><ele>113.33333333333334</ele><time>2026-04-18T08:00:01.747Z</time></trkpt><trkpt lat="43.5678117" lon="10.7721367"><ele>113.0</ele><time>2026-04-18T08:00:03.741Z</time></trkpt><trkpt lat="43.5678533" lon="10.7722383"><ele>112.66666666666667</ele><time>2026-04-18T08:00:30.745Z</time></trkpt><trkpt lat="43.56789" lon="10.7723383"><ele>112.33333333333334</ele><time>2026-04-18T08:00:31.747Z</time></trkpt><trkpt lat="43.5679267" lon="10.772415"><ele>112.0</ele><time>2026-04-18T08:00:32.745Z</time></trkpt><trkpt lat="43.567945" lon="10.7725783"><ele>113.66666666666667</ele><time>2026-04-18T08:00:34.743Z</time></trkpt><trkpt lat="43.5679667" lon="10.7727133"><ele>115.33333333333334</ele><time>2026-04-18T08:00:37.75Z</time></trkpt><trkpt lat="43.5679783" lon="10.7728033"><ele>117.0</ele><time>2026-04-18T08:00:38.75Z</time></trkpt><trkpt lat="43.5680033" lon="10.7728933"><ele>118.66666666666666</ele><time>2026-04-18T08:00:39.746Z</time></trkpt><trkpt lat="43.5680317" lon="10.7729783"><ele>120.33333333333333</ele><time>2026-04-18T08:00:40.745Z</time></trkpt><trkpt lat="43.56808" lon="10.7731517"><ele>122.0</ele><time>2026-04-18T08:00:42.742Z</time></trkpt><trkpt lat="43.5680867" lon="10.7733117"><ele>122.0</ele><time>2026-04-18T08:00:44.744Z</time></trkpt><trkpt lat="43.5680667" lon="10.7734683"><ele>121.99999999999999</ele><time>2026-04-18T08:00:46.747Z</time></trkpt><trkpt lat="43.56808" lon="10.7735633"><ele>121.99999999999999</ele><time>2026-04-18T08:00:47.745Z</time></trkpt><trkpt lat="43.5681083" lon="10.7736717"><ele>122.0</ele><time>2026-04-18T08:00:48.746Z</time></trkpt><trkpt lat="43.5681533" lon="10.773795"><ele>122.0</ele><time>2026-04-18T08:00:49.746Z</time></trkpt><trkpt lat="43.5682" lon="10.7739233"><ele>122.39999999999999</ele><time>2026-04-18T08:00:50.748Z</time></trkpt><trkpt lat="43.568245" lon="10.7740483"><ele>122.79999999999998</ele><time>2026-04-18T08:00:51.745Z</time></trkpt><trkpt lat="43.5682883" lon="10.774165"><ele>123.2</ele><time>2026-04-18T08:00:52.745Z</time></trkpt><trkpt lat="43.568325" lon="10.7742733"><ele>123.6</ele><time>2026-04-18T08:00:53.742Z</time></trkpt><trkpt lat="43.5683567" lon="10.7743817"><ele>124.0</ele><time>2026-04-18T08:00:54.742Z</time></trkpt><trkpt lat="43.5683917" lon="10.7745067"><ele>124.0</ele><time>2026-04-18T08:00:55.743Z</time></trkpt><trkpt lat="43.56843" lon="10.77467"><ele>124.0</ele><time>2026-04-18T08:00:56.744Z</time></trkpt><trkpt lat="43.56846" lon="10.7748417"><ele>124.0</ele><time>2026-04-18T08:00:57.746Z</time></trkpt><trkpt lat="43.5684833" lon="10.775005"><ele>124.0</ele><time>2026-04-18T08:00:58.746Z</time></trkpt><trkpt lat="43.5685033" lon="10.7751583"><ele>122.0</ele><time>2026-04-18T08:00:59.744Z</time></trkpt><trkpt lat="43.568525" lon="10.7753083"><ele>120.0</ele><time>2026-04-18T08:01:00.745Z</time></trkpt><trkpt lat="43.5685467" lon="10.7754583"><ele>118.0</ele><time>2026-04-18T08:01:01.745Z</time></trkpt><trkpt lat="43.56857" lon="10.7756017"><ele>116.0</ele><time>2026-04-18T08:01:02.745Z</time></trkpt><trkpt lat="43.568595" lon="10.7757467"><ele>114.0</ele><time>2026-04-18T08:01:03.744Z</time></trkpt><trkpt lat="43.5686133" lon="10.775895"><ele>114.5</ele><time>2026-04-18T08:01:04.746Z</time></trkpt><trkpt lat="43.5686367" lon="10.77605"><ele>115.0</ele><time>2026-04-18T08:01:05.745Z</time></trkpt><trkpt lat="43.5686583" lon="10.7762083"><ele>115.5</ele><time>2026-04-18T08:01:06.748Z</time></trkpt><trkpt lat="43.56868" lon="10.7763633"><ele>116.0</ele><time>2026-04-18T08:01:07.746Z</time></trkpt><trkpt lat="43.5686983" lon="10.7765133"><ele>116.0</ele><time>2026-04-18T08:01:08.747Z</time></trkpt><trkpt lat="43.5687167" lon="10.77667"><ele>116.0</ele><time>2026-04-18T08:01:09.749Z</time></trkpt><trkpt lat="43.56873" lon="10.776825"><ele>116.0</ele><time>2026-04-18T08:01:10.753Z</time></trkpt><trkpt lat="43.5687417" lon="10.77697"><ele>116.0</ele><time>2026-04-18T08:01:11.745Z</time></trkpt><trkpt lat="43.5687617" lon="10.7771033"><ele>116.0</ele><time>2026-04-18T08:01:12.744Z</time></trkpt><trkpt lat="43.5687867" lon="10.7772283"><ele>116.16666666666666</ele><time>2026-04-18T08:01:13.743Z</time></trkpt><trkpt lat="43.568815" lon="10.7773483"><ele>116.33333333333333</ele><time>2026-04-18T08:01:14.746Z</time></trkpt><trkpt lat="43.568845" lon="10.7774633"><ele>116.5</ele><time>2026-04-18T08:01:15.746Z</time></trkpt><trkpt lat="43.5688667" lon="10.7775767"><ele>116.66666666666666</ele><time>2026-04-18T08:01:16.743Z</time></trkpt><trkpt lat="43.5688717" lon="10.7776933"><ele>116.83333333333333</ele><time>2026-04-18T08:01:17.747Z</time></trkpt><trkpt lat="43.5688667" lon="10.7778183"><ele>117.0</ele><time>2026-04-18T08:01:18.744Z</time></trkpt><trkpt lat="43.568845" lon="10.7779433"><ele>116.6</ele><time>2026-04-18T08:01:19.747Z</time></trkpt><trkpt lat="43.5688233" lon="10.7780617"><ele>116.19999999999999</ele><time>2026-04-18T08:01:20.742Z</time></trkpt><trkpt lat="43.5687883" lon="10.77817"><ele>115.8</ele><time>2026-04-18T08:01:21.745Z</time></trkpt><trkpt lat="43.568745" lon="10.7782783"><ele>115.4</ele><time>2026-04-18T08:01:22.741Z</time></trkpt><trkpt lat="43.5686917" lon="10.7783867"><ele>115.0</ele><time>2026-04-18T08:01:23.744Z</time></trkpt><trkpt lat="43.5686233" lon="10.7784867"><ele>116.25</ele><time>2026-04-18T08:01:24.748Z</time></trkpt><trkpt lat="43.5685417" lon="10.778585"><ele>117.5</ele><time>2026-04-18T08:01:25.747Z</time></trkpt><trkpt lat="43.5684583" lon="10.7786833"><ele>118.75</ele><time>2026-04-18T08:01:26.743Z</time></trkpt><trkpt lat="43.568365" lon="10.7787867"><ele>120.0</ele><time>2026-04-18T08:01:27.742Z</time></trkpt><trkpt lat="43.5682683" lon="10.7788883"><ele>120.0</ele><time>2026-04-18T08:01:28.74Z</time></trkpt><trkpt lat="43.5681733" lon="10.77899"><ele>120.0</ele><time>2026-04-18T08:01:29.742Z</time></trkpt><trkpt lat="43.56809" lon="10.7790917"><ele>120.0</ele><time>2026-04-18T08:01:30.747Z</time></trkpt><trkpt lat="43.5680333" lon="10.779195"><ele>120.0</ele><time>2026-04-18T08:01:31.741Z</time></trkpt><trkpt lat="43.56799" lon="10.7793017"><ele>120.0</ele><time>2026-04-18T08:01:32.742Z</time></trkpt><trkpt lat="43.56796" lon="10.7794117"><ele>119.33333333333333</ele><time>2026-04-18T08:01:33.743Z</time></trkpt><trkpt lat="43.5679367" lon="10.7795217"><ele>118.66666666666666</ele><time>2026-04-18T08:01:34.744Z</time></trkpt><trkpt lat="43.5679117" lon="10.7796283"><ele>118.0</ele><time>2026-04-18T08:01:35.741Z</time></trkpt><trkpt lat="43.5678833" lon="10.77973"><ele>117.33333333333333</ele><time>2026-04-18T08:01:36.747Z</time></trkpt><trkpt lat="43.5678433" lon="10.7798317"><ele>116.66666666666666</ele><time>2026-04-18T08:01:37.75Z</time></trkpt><trkpt lat="43.5678083" lon="10.77993"><ele>116.0</ele><time>2026-04-18T08:01:38.748Z</time></trkpt><trkpt lat="43.5677833" lon="10.7800283"><ele>115.99999999999999</ele><time>2026-04-18T08:01:39.748Z</time></trkpt><trkpt lat="43.56777" lon="10.7801283"><ele>116.0</ele><time>2026-04-18T08:01:40.751Z</time></trkpt><trkpt lat="43.56775" lon="10.780225"><ele>116.0</ele><time>2026-04-18T08:01:41.747Z</time></trkpt><trkpt lat="43.5677267" lon="10.78034"><ele>116.0</ele><time>2026-04-18T08:01:42.744Z</time></trkpt><trkpt lat="43.567705" lon="10.780455"><ele>115.99999999999999</ele><time>2026-04-18T08:01:43.741Z</time></trkpt><trkpt lat="43.567705" lon="10.780565"><ele>116.0</ele><time>2026-04-18T08:01:44.745Z</time></trkpt><trkpt lat="43.5676767" lon="10.7806933"><ele>116.6</ele><time>2026-04-18T08:01:45.741Z</time></trkpt><trkpt lat="43.567645" lon="10.780825"><ele>117.19999999999999</ele><time>2026-04-18T08:01:46.745Z</time></trkpt><trkpt lat="43.5676233" lon="10.78096"><ele>117.80000000000001</ele><time>2026-04-18T08:01:47.742Z</time></trkpt><trkpt lat="43.5676" lon="10.7810817"><ele>118.4</ele><time>2026-04-18T08:01:48.743Z</time></trkpt><trkpt lat="43.5675833" lon="10.7811933"><ele>119.0</ele><time>2026-04-18T08:01:49.744Z</time></trkpt><trkpt lat="43.5675683" lon="10.7813"><ele>119.0</ele><time>2026-04-18T08:01:50.747Z</time></trkpt><trkpt lat="43.5675583" lon="10.7813967"><ele>119.0</ele><time>2026-04-18T08:01:51.742Z</time></trkpt><trkpt lat="43.567535" lon="10.781535"><ele>119.0</ele><time>2026-04-18T08:01:53.746Z</time></trkpt><trkpt lat="43.5675017" lon="10.7816167"><ele>119.0</ele><time>2026-04-18T08:01:55.743Z</time></trkpt><trkpt lat="43.5674133" lon="10.781755"><ele>119.0</ele><time>2026-04-18T08:01:57.748Z</time></trkpt><trkpt lat="43.5673433" lon="10.7818533"><ele>119.0</ele><time>2026-04-18T08:01:58.746Z</time></trkpt><trkpt lat="43.5672617" lon="10.7819617"><ele>119.0</ele><time>2026-04-18T08:01:59.744Z</time></trkpt><trkpt lat="43.5671933" lon="10.7820783"><ele>119.0</ele><time>2026-04-18T08:02:00.746Z</time></trkpt><trkpt lat="43.5671333" lon="10.7822117"><ele>119.0</ele><time>2026-04-18T08:02:01.751Z</time></trkpt><trkpt lat="43.5670717" lon="10.7823783"><ele>120.5</ele><time>2026-04-18T08:02:02.743Z</time></trkpt><trkpt lat="43.5670133" lon="10.7825733"><ele>122.0</ele><time>2026-04-18T08:02:03.747Z</time></trkpt><trkpt lat="43.56696" lon="10.7827517"><ele>123.5</ele><time>2026-04-18T08:02:04.748Z</time></trkpt><trkpt lat="43.5669167" lon="10.78291"><ele>125.0</ele><time>2026-04-18T08:02:05.744Z</time></trkpt><trkpt lat="43.566875" lon="10.7830617"><ele>125.4</ele><time>2026-04-18T08:02:06.743Z</time></trkpt><trkpt lat="43.56683" lon="10.78321"><ele>125.8</ele><time>2026-04-18T08:02:07.741Z</time></trkpt><trkpt lat="43.566785" lon="10.7833567"><ele>126.19999999999999</ele><time>2026-04-18T08:02:08.745Z</time></trkpt><trkpt lat="43.5667483" lon="10.7834867"><ele>126.6</ele><time>2026-04-18T08:02:09.748Z</time></trkpt><trkpt lat="43.5667133" lon="10.7836067"><ele>127.0</ele><time>2026-04-18T08:02:10.748Z</time></trkpt><trkpt lat="43.5666783" lon="10.7837233"><ele>127.39999999999999</ele><time>2026-04-18T08:02:11.744Z</time></trkpt><trkpt lat="43.5666333" lon="10.7838367"><ele>127.79999999999998</ele><time>2026-04-18T08:02:12.746Z</time></trkpt><trkpt lat="43.5665833" lon="10.78395"><ele>128.2</ele><time>2026-04-18T08:02:13.746Z</time></trkpt><trkpt lat="43.56653" lon="10.7840683"><ele>128.6</ele><time>2026-04-18T08:02:14.746Z</time></trkpt><trkpt lat="43.566475" lon="10.7841867"><ele>129.0</ele><time>2026-04-18T08:02:15.741Z</time></trkpt><trkpt lat="43.5664167" lon="10.7843"><ele>129.0</ele><time>2026-04-18T08:02:16.742Z</time></trkpt><trkpt lat="43.5663583" lon="10.7844133"><ele>129.0</ele><time>2026-04-18T08:02:17.746Z</time></trkpt><trkpt lat="43.5662967" lon="10.7845183"><ele>129.0</ele><time>2026-04-18T08:02:18.743Z</time></trkpt><trkpt lat="43.5662267" lon="10.7846133"><ele>129.0</ele><time>2026-04-18T08:02:19.747Z</time></trkpt><trkpt lat="43.56615" lon="10.7847017"><ele>129.0</ele><time>2026-04-18T08:02:20.747Z</time></trkpt><trkpt lat="43.56607" lon="10.7847767"><ele>130.0</ele><time>2026-04-18T08:02:21.744Z</time></trkpt><trkpt lat="43.565995" lon="10.7848367"><ele>131.0</ele><time>2026-04-18T08:02:22.747Z</time></trkpt><trkpt lat="43.5659267" lon="10.784875"><ele>132.0</ele><time>2026-04-18T08:02:23.742Z</time></trkpt><trkpt lat="43.5658333" lon="10.784955"><ele>133.0</ele><time>2026-04-18T08:02:25.742Z</time></trkpt><trkpt lat="43.565805" lon="10.7850433"><ele>134.0</ele><time>2026-04-18T08:02:27.741Z</time></trkpt><trkpt lat="43.5657867" lon="10.7851833"><ele>135.0</ele><time>2026-04-18T08:02:29.742Z</time></trkpt><trkpt lat="43.56576" lon="10.7853167"><ele>135.0</ele><time>2026-04-18T08:02:31.743Z</time></trkpt><trkpt lat="43.5657217" lon="10.78547"><ele>135.0</ele><time>2026-04-18T08:02:33.748Z</time></trkpt><trkpt lat="43.5656633" lon="10.7856183"><ele>135.0</ele><time>2026-04-18T08:02:35.746Z</time></trkpt><trkpt lat="43.5656317" lon="10.7856983"><ele>135.0</ele><time>2026-04-18T08:02:36.748Z</time></trkpt><trkpt lat="43.5656" lon="10.785775"><ele>135.0</ele><time>2026-04-18T08:02:37.744Z</time></trkpt><trkpt lat="43.56555" lon="10.78591"><ele>133.5</ele><time>2026-04-18T08:02:39.746Z</time></trkpt><trkpt lat="43.5655033" lon="10.7860267"><ele>132.0</ele><time>2026-04-18T08:02:41.74Z</time></trkpt><trkpt lat="43.565475" lon="10.7861517"><ele>130.5</ele><time>2026-04-18T08:02:43.74Z</time></trkpt><trkpt lat="43.5654583" lon="10.786255"><ele>129.0</ele><time>2026-04-18T08:02:45.742Z</time></trkpt><trkpt lat="43.5654283" lon="10.7863933"><ele>127.5</ele><time>2026-04-18T08:04:03.742Z</time></trkpt><trkpt lat="43.5654267" lon="10.786485"><ele>126.0</ele><time>2026-04-18T08:04:04.742Z</time></trkpt><trkpt lat="43.5654033" lon="10.7866517"><ele>126.0</ele><time>2026-04-18T08:04:06.74Z</time></trkpt><trkpt lat="43.5653917" lon="10.7867433"><ele>126.0</ele><time>2026-04-18T08:04:07.741Z</time></trkpt><trkpt lat="43.5653533" lon="10.7868317"><ele>126.0</ele><time>2026-04-18T08:04:08.743Z</time></trkpt><trkpt lat="43.5652933" lon="10.7869167"><ele>126.0</ele><time>2026-04-18T08:04:09.742Z</time></trkpt><trkpt lat="43.565235" lon="10.787005"><ele>126.0</ele><time>2026-04-18T08:04:10.743Z</time></trkpt><trkpt lat="43.5651617" lon="10.787065"><ele>126.0</ele><time>2026-04-18T08:04:11.74Z</time></trkpt><trkpt lat="43.5650933" lon="10.78713"><ele>127.8</ele><time>2026-04-18T08:04:12.743Z</time></trkpt><trkpt lat="43.5650317" lon="10.78721"><ele>129.6</ele><time>2026-04-18T08:04:13.74Z</time></trkpt><trkpt lat="43.5649733" lon="10.787285"><ele>131.4</ele><time>2026-04-18T08:04:14.745Z</time></trkpt><trkpt lat="43.56489" lon="10.7873683"><ele>133.2</ele><time>2026-04-18T08:04:16.744Z</time></trkpt><trkpt lat="43.5648517" lon="10.7875367"><ele>135.0</ele><time>2026-04-18T08:04:18.745Z</time></trkpt><trkpt lat="43.5648367" lon="10.7876633"><ele>135.2</ele><time>2026-04-18T08:04:19.747Z</time></trkpt><trkpt lat="43.5648083" lon="10.787795"><ele>135.4</ele><time>2026-04-18T08:04:20.741Z</time></trkpt><trkpt lat="43.564775" lon="10.7879283"><ele>135.6</ele><time>2026-04-18T08:04:21.743Z</time></trkpt><trkpt lat="43.5647183" lon="10.788055"><ele>135.8</ele><time>2026-04-18T08:04:22.744Z</time></trkpt><trkpt lat="43.5646783" lon="10.788165"><ele>136.0</ele><time>2026-04-18T08:04:23.744Z</time></trkpt><trkpt lat="43.5646417" lon="10.78826"><ele>136.0</ele><time>2026-04-18T08:04:24.744Z</time></trkpt><trkpt lat="43.5646" lon="10.7883483"><ele>136.0</ele><time>2026-04-18T08:04:25.745Z</time></trkpt><trkpt lat="43.5645683" lon="10.7884467"><ele>136.0</ele><time>2026-04-18T08:04:26.749Z</time></trkpt><trkpt lat="43.5645483" lon="10.78855"><ele>136.0</ele><time>2026-04-18T08:04:27.749Z</time></trkpt><trkpt lat="43.5645317" lon="10.7886633"><ele>136.0</ele><time>2026-04-18T08:04:28.745Z</time></trkpt><trkpt lat="43.564535" lon="10.7887933"><ele>136.0</ele><time>2026-04-18T08:04:29.742Z</time></trkpt><trkpt lat="43.5645517" lon="10.7889383"><ele>136.0</ele><time>2026-04-18T08:04:30.748Z</time></trkpt><trkpt lat="43.5645433" lon="10.78907"><ele>136.0</ele><time>2026-04-18T08:04:31.74Z</time></trkpt><trkpt lat="43.56452" lon="10.7892167"><ele>136.0</ele><time>2026-04-18T08:04:32.744Z</time></trkpt><trkpt lat="43.5644767" lon="10.7893717"><ele>136.0</ele><time>2026-04-18T08:04:33.741Z</time></trkpt><trkpt lat="43.56446" lon="10.7895283"><ele>136.0</ele><time>2026-04-18T08:04:34.742Z</time></trkpt><trkpt lat="43.5644333" lon="10.7896583"><ele>136.0</ele><time>2026-04-18T08:04:35.742Z</time></trkpt><trkpt lat="43.5644167" lon="10.7897767"><ele>136.0</ele><time>2026-04-18T08:04:36.747Z</time></trkpt><trkpt lat="43.5644017" lon="10.789895"><ele>136.0</ele><time>2026-04-18T08:04:37.744Z</time></trkpt><trkpt lat="43.5643733" lon="10.7900167"><ele>136.0</ele><time>2026-04-18T08:04:38.743Z</time></trkpt><trkpt lat="43.5643583" lon="10.7901567"><ele>136.0</ele><time>2026-04-18T08:04:39.744Z</time></trkpt><trkpt lat="43.5643233" lon="10.7903083"><ele>136.0</ele><time>2026-04-18T08:04:40.748Z</time></trkpt><trkpt lat="43.5642783" lon="10.7904717"><ele>136.0</ele><time>2026-04-18T08:04:41.75Z</time></trkpt><trkpt lat="43.56422" lon="10.7906217"><ele>136.0</ele><time>2026-04-18T08:04:42.742Z</time></trkpt><trkpt lat="43.564185" lon="10.7907583"><ele>136.0</ele><time>2026-04-18T08:04:43.744Z</time></trkpt><trkpt lat="43.5641517" lon="10.7908783"><ele>136.0</ele><time>2026-04-18T08:04:44.753Z</time></trkpt><trkpt lat="43.5641283" lon="10.790995"><ele>136.0</ele><time>2026-04-18T08:04:45.742Z</time></trkpt><trkpt lat="43.5641183" lon="10.79111"><ele>136.0</ele><time>2026-04-18T08:04:46.744Z</time></trkpt><trkpt lat="43.564125" lon="10.7912367"><ele>136.0</ele><time>2026-04-18T08:04:47.742Z</time></trkpt><trkpt lat="43.56412" lon="10.7913583"><ele>136.0</ele><time>2026-04-18T08:04:48.748Z</time></trkpt><trkpt lat="43.56411" lon="10.7914817"><ele>136.0</ele><time>2026-04-18T08:04:49.746Z</time></trkpt><trkpt lat="43.5640883" lon="10.7916117"><ele>136.0</ele><time>2026-04-18T08:04:50.744Z</time></trkpt><trkpt lat="43.5640617" lon="10.791735"><ele>136.0</ele><time>2026-04-18T08:04:51.749Z</time></trkpt><trkpt lat="43.56405" lon="10.7918467"><ele>136.0</ele><time>2026-04-18T08:04:52.746Z</time></trkpt><trkpt lat="43.5640417" lon="10.7919583"><ele>136.0</ele><time>2026-04-18T08:04:53.747Z</time></trkpt><trkpt lat="43.5640483" lon="10.792075"><ele>136.0</ele><time>2026-04-18T08:04:54.746Z</time></trkpt><trkpt lat="43.5640667" lon="10.7922117"><ele>136.0</ele><time>2026-04-18T08:04:55.743Z</time></trkpt><trkpt lat="43.564085" lon="10.7923583"><ele>137.16666666666669</ele><time>2026-04-18T08:04:56.749Z</time></trkpt><trkpt lat="43.5641" lon="10.792495"><ele>138.33333333333334</ele><time>2026-04-18T08:04:57.748Z</time></trkpt><trkpt lat="43.5641067" lon="10.792615"><ele>139.5</ele><time>2026-04-18T08:04:58.744Z</time></trkpt><trkpt lat="43.5641117" lon="10.7927167"><ele>140.66666666666666</ele><time>2026-04-18T08:04:59.745Z</time></trkpt><trkpt lat="43.5641217" lon="10.7928083"><ele>141.83333333333331</ele><time>2026-04-18T08:05:00.744Z</time></trkpt><trkpt lat="43.5641517" lon="10.7928967"><ele>143.0</ele><time>2026-04-18T08:05:01.741Z</time></trkpt><trkpt lat="43.5641883" lon="10.7929883"><ele>143.83333333333331</ele><time>2026-04-18T08:05:02.742Z</time></trkpt><trkpt lat="43.5642567" lon="10.7930717"><ele>144.66666666666666</ele><time>2026-04-18T08:05:03.745Z</time></trkpt><trkpt lat="43.5642917" lon="10.7931883"><ele>145.5</ele><time>2026-04-18T08:05:04.741Z</time></trkpt><trkpt lat="43.5643167" lon="10.7933"><ele>146.33333333333334</ele><time>2026-04-18T08:05:05.741Z</time></trkpt><trkpt lat="43.5643183" lon="10.7934067"><ele>147.16666666666669</ele><time>2026-04-18T08:05:06.744Z</time></trkpt><trkpt lat="43.5643233" lon="10.7935183"><ele>148.0</ele><time>2026-04-18T08:05:07.748Z</time></trkpt><trkpt lat="43.5643333" lon="10.79363"><ele>148.0</ele><time>2026-04-18T08:05:08.747Z</time></trkpt><trkpt lat="43.564345" lon="10.7937417"><ele>148.0</ele><time>2026-04-18T08:05:09.743Z</time></trkpt><trkpt lat="43.5643417" lon="10.7938567"><ele>148.0</ele><time>2026-04-18T08:05:10.743Z</time></trkpt><trkpt lat="43.5643333" lon="10.794005"><ele>148.0</ele><time>2026-04-18T08:05:11.745Z</time></trkpt><trkpt lat="43.5643233" lon="10.794175"><ele>148.0</ele><time>2026-04-18T08:05:12.746Z</time></trkpt><trkpt lat="43.564305" lon="10.7943517"><ele>148.20000000000002</ele><time>2026-04-18T08:05:13.747Z</time></trkpt><trkpt lat="43.5642867" lon="10.7945167"><ele>148.4</ele><time>2026-04-18T08:05:14.742Z</time></trkpt><trkpt lat="43.5642667" lon="10.79468"><ele>148.60000000000002</ele><time>2026-04-18T08:05:15.74Z</time></trkpt><trkpt lat="43.5642383" lon="10.7948267"><ele>148.8</ele><time>2026-04-18T08:05:16.743Z</time></trkpt><trkpt lat="43.564225" lon="10.7949583"><ele>149.0</ele><time>2026-04-18T08:05:17.744Z</time></trkpt><trkpt lat="43.564225" lon="10.7950783"><ele>149.6</ele><time>2026-04-18T08:05:18.742Z</time></trkpt><trkpt lat="43.564215" lon="10.7951817"><ele>150.2</ele><time>2026-04-18T08:05:19.743Z</time></trkpt><trkpt lat="43.5641717" lon="10.7952633"><ele>150.79999999999998</ele><time>2026-04-18T08:05:20.743Z</time></trkpt><trkpt lat="43.5641217" lon="10.7953433"><ele>151.4</ele><time>2026-04-18T08:05:21.741Z</time></trkpt><trkpt lat="43.5640567" lon="10.79545"><ele>152.0</ele><time>2026-04-18T08:05:22.756Z</time></trkpt><trkpt lat="43.563945" lon="10.7955567"><ele>152.0</ele><time>2026-04-18T08:05:23.744Z</time></trkpt><trkpt lat="43.5638183" lon="10.7956917"><ele>152.0</ele><time>2026-04-18T08:05:24.743Z</time></trkpt><trkpt lat="43.563685" lon="10.79581"><ele>152.0</ele><time>2026-04-18T08:05:25.751Z</time></trkpt><trkpt lat="43.5635567" lon="10.7959033"><ele>153.66666666666666</ele><time>2026-04-18T08:05:26.746Z</time></trkpt><trkpt lat="43.5634733" lon="10.795995"><ele>155.33333333333331</ele><time>2026-04-18T08:05:27.748Z</time></trkpt><trkpt lat="43.5633983" lon="10.796055"><ele>157.0</ele><time>2026-04-18T08:05:28.744Z</time></trkpt><trkpt lat="43.563355" lon="10.796145"><ele>158.66666666666666</ele><time>2026-04-18T08:05:29.748Z</time></trkpt><trkpt lat="43.5633267" lon="10.7962467"><ele>160.33333333333334</ele><time>2026-04-18T08:05:30.746Z</time></trkpt><trkpt lat="43.5633017" lon="10.7963533"><ele>162.0</ele><time>2026-04-18T08:05:31.745Z</time></trkpt><trkpt lat="43.5633183" lon="10.7964933"><ele>162.75</ele><time>2026-04-18T08:05:32.746Z</time></trkpt><trkpt lat="43.56336" lon="10.7966617"><ele>163.5</ele><time>2026-04-18T08:05:33.745Z</time></trkpt><trkpt lat="43.5633967" lon="10.7968667"><ele>164.25</ele><time>2026-04-18T08:05:34.739Z</time></trkpt><trkpt lat="43.563445" lon="10.7970867"><ele>165.0</ele><time>2026-04-18T08:05:35.742Z</time></trkpt><trkpt lat="43.56352" lon="10.7973"><ele>165.5</ele><time>2026-04-18T08:05:36.741Z</time></trkpt><trkpt lat="43.5635633" lon="10.7975083"><ele>166.0</ele><time>2026-04-18T08:05:37.745Z</time></trkpt><trkpt lat="43.5636167" lon="10.7977033"><ele>166.5</ele><time>2026-04-18T08:05:38.742Z</time></trkpt><trkpt lat="43.56369" lon="10.7978633"><ele>167.0</ele><time>2026-04-18T08:05:39.742Z</time></trkpt><trkpt lat="43.5637317" lon="10.7980067"><ele>168.16666666666666</ele><time>2026-04-18T08:05:40.745Z</time></trkpt><trkpt lat="43.5637867" lon="10.798145"><ele>169.33333333333331</ele><time>2026-04-18T08:05:41.749Z</time></trkpt><trkpt lat="43.5638017" lon="10.79827"><ele>170.5</ele><time>2026-04-18T08:05:42.744Z</time></trkpt><trkpt lat="43.5638167" lon="10.7983867"><ele>171.66666666666666</ele><time>2026-04-18T08:05:43.744Z</time></trkpt><trkpt lat="43.5638233" lon="10.7984983"><ele>172.83333333333334</ele><time>2026-04-18T08:05:44.746Z</time></trkpt><trkpt lat="43.5638217" lon="10.7985933"><ele>174.0</ele><time>2026-04-18T08:05:45.741Z</time></trkpt><trkpt lat="43.563815" lon="10.7986917"><ele>175.2</ele><time>2026-04-18T08:05:47.743Z</time></trkpt><trkpt lat="43.5638983" lon="10.79874"><ele>176.39999999999998</ele><time>2026-04-18T08:06:32.752Z</time></trkpt><trkpt lat="43.563895" lon="10.798855"><ele>177.6</ele><time>2026-04-18T08:06:35.752Z</time></trkpt><trkpt lat="43.56386" lon="10.7989733"><ele>178.8</ele><time>2026-04-18T08:06:37.741Z</time></trkpt><trkpt lat="43.5638217" lon="10.79913"><ele>180.0</ele><time>2026-04-18T08:06:39.745Z</time></trkpt><trkpt lat="43.56382" lon="10.7992883"><ele>181.0</ele><time>2026-04-18T08:06:41.74Z</time></trkpt><trkpt lat="43.563865" lon="10.7994517"><ele>182.0</ele><time>2026-04-18T08:06:43.743Z</time></trkpt><trkpt lat="43.5639067" lon="10.79953"><ele>183.0</ele><time>2026-04-18T08:06:44.75Z</time></trkpt><trkpt lat="43.5639467" lon="10.7996067"><ele>184.0</ele><time>2026-04-18T08:06:45.748Z</time></trkpt><trkpt lat="43.564005" lon="10.7997217"><ele>185.0</ele><time>2026-04-18T08:06:47.743Z</time></trkpt><trkpt lat="43.5640167" lon="10.7998533"><ele>185.0</ele><time>2026-04-18T08:06:50.745Z</time></trkpt><trkpt lat="43.5640833" lon="10.7999333"><ele>185.0</ele><time>2026-04-18T08:06:52.742Z</time></trkpt><trkpt lat="43.5641483" lon="10.7999767"><ele>185.0</ele><time>2026-04-18T08:06:53.74Z</time></trkpt><trkpt lat="43.5642383" lon="10.8000317"><ele>185.0</ele><time>2026-04-18T08:06:54.744Z</time></trkpt><trkpt lat="43.56435" lon="10.800085"><ele>185.0</ele><time>2026-04-18T08:06:55.748Z</time></trkpt><trkpt lat="43.56445" lon="10.8001483"><ele>184.0</ele><time>2026-04-18T08:06:56.745Z</time></trkpt><trkpt lat="43.564545" lon="10.8002083"><ele>183.0</ele><time>2026-04-18T08:06:57.744Z</time></trkpt><trkpt lat="43.5646367" lon="10.8002683"><ele>182.0</ele><time>2026-04-18T08:06:58.748Z</time></trkpt><trkpt lat="43.5647267" lon="10.8003167"><ele>181.0</ele><time>2026-04-18T08:06:59.745Z</time></trkpt><trkpt lat="43.5648117" lon="10.8003583"><ele>180.0</ele><time>2026-04-18T08:07:00.741Z</time></trkpt><trkpt lat="43.5649017" lon="10.8003967"><ele>180.0</ele><time>2026-04-18T08:07:01.743Z</time></trkpt><trkpt lat="43.5649933" lon="10.800415"><ele>180.0</ele><time>2026-04-18T08:07:02.742Z</time></trkpt><trkpt lat="43.5650867" lon="10.8004267"><ele>180.0</ele><time>2026-04-18T08:07:03.743Z</time></trkpt><trkpt lat="43.5651767" lon="10.8004267"><ele>180.0</ele><time>2026-04-18T08:07:04.746Z</time></trkpt><trkpt lat="43.5652617" lon="10.8004283"><ele>180.0</ele><time>2026-04-18T08:07:05.741Z</time></trkpt><trkpt lat="43.565345" lon="10.8004317"><ele>180.0</ele><time>2026-04-18T08:07:06.748Z</time></trkpt><trkpt lat="43.56543" lon="10.8004633"><ele>180.4</ele><time>2026-04-18T08:07:07.743Z</time></trkpt><trkpt lat="43.5655183" lon="10.800485"><ele>180.8</ele><time>2026-04-18T08:07:08.742Z</time></trkpt><trkpt lat="43.5656117" lon="10.8005383"><ele>181.2</ele><time>2026-04-18T08:07:09.744Z</time></trkpt><trkpt lat="43.565695" lon="10.8006167"><ele>181.6</ele><time>2026-04-18T08:07:10.743Z</time></trkpt><trkpt lat="43.5657717" lon="10.800745"><ele>182.0</ele><time>2026-04-18T08:07:11.742Z</time></trkpt><trkpt lat="43.565855" lon="10.800855"><ele>182.0</ele><time>2026-04-18T08:07:12.742Z</time></trkpt><trkpt lat="43.5659367" lon="10.8009333"><ele>182.0</ele><time>2026-04-18T08:07:13.742Z</time></trkpt><trkpt lat="43.56603" lon="10.801025"><ele>182.0</ele><time>2026-04-18T08:07:14.742Z</time></trkpt><trkpt lat="43.566165" lon="10.80113"><ele>182.0</ele><time>2026-04-18T08:07:15.747Z</time></trkpt><trkpt lat="43.5663267" lon="10.801255"><ele>182.33333333333331</ele><time>2026-04-18T08:07:16.75Z</time></trkpt><trkpt lat="43.56651" lon="10.8013767"><ele>182.66666666666666</ele><time>2026-04-18T08:07:17.742Z</time></trkpt><trkpt lat="43.5667" lon="10.8015"><ele>183.0</ele><time>2026-04-18T08:07:18.746Z</time></trkpt><trkpt lat="43.5668783" lon="10.8016133"><ele>183.0</ele><time>2026-04-18T08:07:19.749Z</time></trkpt><trkpt lat="43.56705" lon="10.8017167"><ele>183.0</ele><time>2026-04-18T08:07:20.747Z</time></trkpt><trkpt lat="43.5672133" lon="10.8017983"><ele>183.0</ele><time>2026-04-18T08:07:21.745Z</time></trkpt><trkpt lat="43.5673683" lon="10.8018617"><ele>183.0</ele><time>2026-04-18T08:07:22.751Z</time></trkpt><trkpt lat="43.56752" lon="10.8019017"><ele>183.0</ele><time>2026-04-18T08:07:23.742Z</time></trkpt><trkpt lat="43.567675" lon="10.801915"><ele>183.0</ele><time>2026-04-18T08:07:24.744Z</time></trkpt><trkpt lat="43.5678367" lon="10.80192"><ele>182.33333333333334</ele><time>2026-04-18T08:07:25.742Z</time></trkpt><trkpt lat="43.56801" lon="10.8019267"><ele>181.66666666666669</ele><time>2026-04-18T08:07:26.748Z</time></trkpt><trkpt lat="43.56818" lon="10.8019533"><ele>181.0</ele><time>2026-04-18T08:07:27.746Z</time></trkpt><trkpt lat="43.568335" lon="10.8019617"><ele>181.0</ele><time>2026-04-18T08:07:28.745Z</time></trkpt><trkpt lat="43.56849" lon="10.8019617"><ele>181.0</ele><time>2026-04-18T08:07:29.743Z</time></trkpt><trkpt lat="43.5686467" lon="10.80196"><ele>181.0</ele><time>2026-04-18T08:07:30.747Z</time></trkpt><trkpt lat="43.5687983" lon="10.8019717"><ele>184.25</ele><time>2026-04-18T08:07:31.745Z</time></trkpt><trkpt lat="43.568945" lon="10.801965"><ele>187.5</ele><time>2026-04-18T08:07:32.747Z</time></trkpt><trkpt lat="43.5690767" lon="10.8019283"><ele>190.75</ele><time>2026-04-18T08:07:33.746Z</time></trkpt><trkpt lat="43.5691867" lon="10.8018733"><ele>194.0</ele><time>2026-04-18T08:07:34.747Z</time></trkpt><trkpt lat="43.5692917" lon="10.8018467"><ele>194.0</ele><time>2026-04-18T08:07:35.748Z</time></trkpt><trkpt lat="43.5693883" lon="10.8018767"><ele>194.0</ele><time>2026-04-18T08:07:36.747Z</time></trkpt><trkpt lat="43.5694717" lon="10.8019433"><ele>194.0</ele><time>2026-04-18T08:07:37.743Z</time></trkpt><trkpt lat="43.56955" lon="10.8020467"><ele>194.0</ele><time>2026-04-18T08:07:38.743Z</time></trkpt><trkpt lat="43.56964" lon="10.8021717"><ele>194.0</ele><time>2026-04-18T08:07:39.742Z</time></trkpt><trkpt lat="43.56972" lon="10.8022933"><ele>196.75</ele><time>2026-04-18T08:07:40.743Z</time></trkpt><trkpt lat="43.5697783" lon="10.802435"><ele>199.5</ele><time>2026-04-18T08:07:41.742Z</time></trkpt><trkpt lat="43.5698383" lon="10.8025767"><ele>202.25</ele><time>2026-04-18T08:07:42.744Z</time></trkpt><trkpt lat="43.5699017" lon="10.80273"><ele>205.0</ele><time>2026-04-18T08:07:43.749Z</time></trkpt><trkpt lat="43.5699667" lon="10.802875"><ele>205.0</ele><time>2026-04-18T08:07:44.747Z</time></trkpt><trkpt lat="43.5700283" lon="10.8030117"><ele>205.0</ele><time>2026-04-18T08:07:45.745Z</time></trkpt><trkpt lat="43.570095" lon="10.8031367"><ele>205.0</ele><time>2026-04-18T08:07:46.744Z</time></trkpt><trkpt lat="43.5701817" lon="10.8032467"><ele>205.0</ele><time>2026-04-18T08:07:47.741Z</time></trkpt><trkpt lat="43.5703017" lon="10.8033367"><ele>204.0</ele><time>2026-04-18T08:07:48.745Z</time></trkpt><trkpt lat="43.5704483" lon="10.8034133"><ele>203.0</ele><time>2026-04-18T08:07:49.747Z</time></trkpt><trkpt lat="43.5706" lon="10.803485"><ele>202.0</ele><time>2026-04-18T08:07:50.744Z</time></trkpt><trkpt lat="43.57074" lon="10.803565"><ele>202.0</ele><time>2026-04-18T08:07:51.744Z</time></trkpt><trkpt lat="43.57086" lon="10.8036633"><ele>202.0</ele><time>2026-04-18T08:07:52.741Z</time></trkpt><trkpt lat="43.5709517" lon="10.8038017"><ele>202.0</ele><time>2026-04-18T08:07:53.743Z</time></trkpt><trkpt lat="43.57102" lon="10.8039667"><ele>202.0</ele><time>2026-04-18T08:07:54.746Z</time></trkpt><trkpt lat="43.5710667" lon="10.80414"><ele>202.0</ele><time>2026-04-18T08:07:55.743Z</time></trkpt><trkpt lat="43.5710917" lon="10.804325"><ele>202.0</ele><time>2026-04-18T08:07:56.747Z</time></trkpt><trkpt lat="43.5710933" lon="10.8045433"><ele>202.0</ele><time>2026-04-18T08:07:57.745Z</time></trkpt><trkpt lat="43.5710767" lon="10.8047867"><ele>198.66666666666666</ele><time>2026-04-18T08:07:58.745Z</time></trkpt><trkpt lat="43.571045" lon="10.8050367"><ele>195.33333333333331</ele><time>2026-04-18T08:07:59.745Z</time></trkpt><trkpt lat="43.5710183" lon="10.8052833"><ele>192.0</ele><time>2026-04-18T08:08:00.744Z</time></trkpt><trkpt lat="43.570995" lon="10.8055267"><ele>188.33333333333334</ele><time>2026-04-18T08:08:01.746Z</time></trkpt><trkpt lat="43.5709833" lon="10.8057667"><ele>184.66666666666669</ele><time>2026-04-18T08:08:02.744Z</time></trkpt><trkpt lat="43.570995" lon="10.806025"><ele>181.0</ele><time>2026-04-18T08:08:03.746Z</time></trkpt><trkpt lat="43.5710283" lon="10.80629"><ele>180.66666666666669</ele><time>2026-04-18T08:08:04.74Z</time></trkpt><trkpt lat="43.5710767" lon="10.806545"><ele>180.33333333333334</ele><time>2026-04-18T08:08:05.745Z</time></trkpt><trkpt lat="43.5711083" lon="10.8067717"><ele>180.0</ele><time>2026-04-18T08:08:06.746Z</time></trkpt><trkpt lat="43.5711367" lon="10.80697"><ele>180.0</ele><time>2026-04-18T08:08:07.747Z</time></trkpt><trkpt lat="43.57116" lon="10.8071467"><ele>180.0</ele><time>2026-04-18T08:08:08.746Z</time></trkpt><trkpt lat="43.571165" lon="10.807315"><ele>180.0</ele><time>2026-04-18T08:08:09.742Z</time></trkpt><trkpt lat="43.57114" lon="10.8074917"><ele>180.0</ele><time>2026-04-18T08:08:10.745Z</time></trkpt><trkpt lat="43.5710867" lon="10.8076733"><ele>178.66666666666666</ele><time>2026-04-18T08:08:11.749Z</time></trkpt><trkpt lat="43.57099" lon="10.80785"><ele>177.33333333333331</ele><time>2026-04-18T08:08:12.747Z</time></trkpt><trkpt lat="43.570865" lon="10.8080383"><ele>176.0</ele><time>2026-04-18T08:08:13.749Z</time></trkpt><trkpt lat="43.5707433" lon="10.8082233"><ele>176.0</ele><time>2026-04-18T08:08:14.747Z</time></trkpt><trkpt lat="43.5706317" lon="10.8084033"><ele>176.0</ele><time>2026-04-18T08:08:15.741Z</time></trkpt><trkpt lat="43.570535" lon="10.8085767"><ele>176.0</ele><time>2026-04-18T08:08:16.745Z</time></trkpt><trkpt lat="43.5704383" lon="10.8087117"><ele>174.5</ele><time>2026-04-18T08:08:17.747Z</time></trkpt><trkpt lat="43.5703333" lon="10.808795"><ele>173.0</ele><time>2026-04-18T08:08:18.742Z</time></trkpt><trkpt lat="43.570225" lon="10.8088417"><ele>171.5</ele><time>2026-04-18T08:08:19.742Z</time></trkpt><trkpt lat="43.5701033" lon="10.8088433"><ele>170.0</ele><time>2026-04-18T08:08:20.745Z</time></trkpt><trkpt lat="43.56999" lon="10.80881"><ele>170.0</ele><time>2026-04-18T08:08:21.742Z</time></trkpt><trkpt lat="43.56988" lon="10.8087317"><ele>170.0</ele><time>2026-04-18T08:08:22.746Z</time></trkpt><trkpt lat="43.569765" lon="10.8086667"><ele>170.0</ele><time>2026-04-18T08:08:23.744Z</time></trkpt><trkpt lat="43.5696383" lon="10.8086333"><ele>170.0</ele><time>2026-04-18T08:08:24.741Z</time></trkpt><trkpt lat="43.5695033" lon="10.808645"><ele>169.33333333333331</ele><time>2026-04-18T08:08:25.742Z</time></trkpt><trkpt lat="43.5693667" lon="10.80871"><ele>168.66666666666666</ele><time>2026-04-18T08:08:26.747Z</time></trkpt><trkpt lat="43.56923" lon="10.8088067"><ele>168.0</ele><time>2026-04-18T08:08:27.745Z</time></trkpt><trkpt lat="43.5691033" lon="10.8089433"><ele>168.0</ele><time>2026-04-18T08:08:28.745Z</time></trkpt><trkpt lat="43.56899" lon="10.8091017"><ele>168.0</ele><time>2026-04-18T08:08:29.745Z</time></trkpt><trkpt lat="43.5688967" lon="10.8092767"><ele>168.0</ele><time>2026-04-18T08:08:30.746Z</time></trkpt><trkpt lat="43.5688033" lon="10.8094283"><ele>168.25</ele><time>2026-04-18T08:08:31.75Z</time></trkpt><trkpt lat="43.5687083" lon="10.8095567"><ele>168.5</ele><time>2026-04-18T08:08:32.748Z</time></trkpt><trkpt lat="43.568625" lon="10.8096883"><ele>168.75</ele><time>2026-04-18T08:08:33.745Z</time></trkpt><trkpt lat="43.56854" lon="10.8097967"><ele>169.0</ele><time>2026-04-18T08:08:34.741Z</time></trkpt><trkpt lat="43.5684333" lon="10.80986"><ele>169.0</ele><time>2026-04-18T08:08:35.743Z</time></trkpt><trkpt lat="43.56831" lon="10.8098917"><ele>169.0</ele><time>2026-04-18T08:08:36.741Z</time></trkpt><trkpt lat="43.5681767" lon="10.8099133"><ele>169.0</ele><time>2026-04-18T08:08:37.741Z</time></trkpt><trkpt lat="43.56806" lon="10.8099933"><ele>169.0</ele><time>2026-04-18T08:08:38.744Z</time></trkpt><trkpt lat="43.567955" lon="10.810135"><ele>167.33333333333334</ele><time>2026-04-18T08:08:39.746Z</time></trkpt><trkpt lat="43.5678667" lon="10.810325"><ele>165.66666666666666</ele><time>2026-04-18T08:08:40.744Z</time></trkpt><trkpt lat="43.5677867" lon="10.8104983"><ele>164.0</ele><time>2026-04-18T08:08:41.748Z</time></trkpt><trkpt lat="43.5677417" lon="10.81068"><ele>164.75</ele><time>2026-04-18T08:08:42.746Z</time></trkpt><trkpt lat="43.5677317" lon="10.81086"><ele>165.5</ele><time>2026-04-18T08:08:43.741Z</time></trkpt><trkpt lat="43.567765" lon="10.8110517"><ele>166.25</ele><time>2026-04-18T08:08:44.749Z</time></trkpt><trkpt lat="43.56782" lon="10.8112617"><ele>167.0</ele><time>2026-04-18T08:08:45.742Z</time></trkpt><trkpt lat="43.56791" lon="10.8114983"><ele>167.0</ele><time>2026-04-18T08:08:46.745Z</time></trkpt><trkpt lat="43.5679783" lon="10.8117533"><ele>167.0</ele><time>2026-04-18T08:08:47.745Z</time></trkpt><trkpt lat="43.5680417" lon="10.8119983"><ele>167.0</ele><time>2026-04-18T08:08:48.746Z</time></trkpt><trkpt lat="43.5681" lon="10.812225"><ele>168.25</ele><time>2026-04-18T08:08:49.746Z</time></trkpt><trkpt lat="43.5681533" lon="10.8124283"><ele>169.5</ele><time>2026-04-18T08:08:50.744Z</time></trkpt><trkpt lat="43.5682" lon="10.8126133"><ele>170.75</ele><time>2026-04-18T08:08:51.743Z</time></trkpt><trkpt lat="43.5682217" lon="10.8127833"><ele>172.0</ele><time>2026-04-18T08:08:52.743Z</time></trkpt><trkpt lat="43.5682033" lon="10.8129467"><ele>172.0</ele><time>2026-04-18T08:08:53.74Z</time></trkpt><trkpt lat="43.5681433" lon="10.8131183"><ele>172.0</ele><time>2026-04-18T08:08:54.746Z</time></trkpt><trkpt lat="43.568065" lon="10.8132933"><ele>172.0</ele><time>2026-04-18T08:08:55.75Z</time></trkpt><trkpt lat="43.5680117" lon="10.8134883"><ele>172.0</ele><time>2026-04-18T08:08:56.745Z</time></trkpt><trkpt lat="43.5680067" lon="10.8137233"><ele>172.33333333333334</ele><time>2026-04-18T08:08:57.744Z</time></trkpt><trkpt lat="43.5680133" lon="10.81398"><ele>172.66666666666666</ele><time>2026-04-18T08:08:58.748Z</time></trkpt><trkpt lat="43.56802" lon="10.814255"><ele>173.0</ele><time>2026-04-18T08:08:59.75Z</time></trkpt><trkpt lat="43.5680483" lon="10.8145567"><ele>174.66666666666666</ele><time>2026-04-18T08:09:00.748Z</time></trkpt><trkpt lat="43.5680733" lon="10.8148533"><ele>176.33333333333334</ele><time>2026-04-18T08:09:01.748Z</time></trkpt><trkpt lat="43.56812" lon="10.8151317"><ele>178.0</ele><time>2026-04-18T08:09:02.749Z</time></trkpt><trkpt lat="43.5681767" lon="10.81539"><ele>178.0</ele><time>2026-04-18T08:09:03.749Z</time></trkpt><trkpt lat="43.568245" lon="10.8156333"><ele>178.0</ele><time>2026-04-18T08:09:04.747Z</time></trkpt><trkpt lat="43.568335" lon="10.8158733"><ele>178.0</ele><time>2026-04-18T08:09:05.747Z</time></trkpt><trkpt lat="43.5684383" lon="10.8161017"><ele>178.0</ele><time>2026-04-18T08:09:06.749Z</time></trkpt><trkpt lat="43.5685433" lon="10.81631"><ele>178.0</ele><time>2026-04-18T08:09:07.745Z</time></trkpt><trkpt lat="43.568645" lon="10.81651"><ele>178.0</ele><time>2026-04-18T08:09:08.745Z</time></trkpt><trkpt lat="43.5687417" lon="10.8167017"><ele>179.33333333333334</ele><time>2026-04-18T08:09:09.745Z</time></trkpt><trkpt lat="43.5688267" lon="10.8168917"><ele>180.66666666666666</ele><time>2026-04-18T08:09:10.745Z</time></trkpt><trkpt lat="43.5689033" lon="10.8170817"><ele>182.0</ele><time>2026-04-18T08:09:11.746Z</time></trkpt><trkpt lat="43.5689833" lon="10.817255"><ele>182.0</ele><time>2026-04-18T08:09:12.742Z</time></trkpt><trkpt lat="43.56905" lon="10.817435"><ele>182.0</ele><time>2026-04-18T08:09:13.745Z</time></trkpt><trkpt lat="43.5691267" lon="10.81761"><ele>182.0</ele><time>2026-04-18T08:09:14.742Z</time></trkpt><trkpt lat="43.5692067" lon="10.8177917"><ele>182.0</ele><time>2026-04-18T08:09:15.742Z</time></trkpt><trkpt lat="43.5692733" lon="10.8179717"><ele>179.5</ele><time>2026-04-18T08:09:16.741Z</time></trkpt><trkpt lat="43.5693433" lon="10.8181417"><ele>177.0</ele><time>2026-04-18T08:09:17.745Z</time></trkpt><trkpt lat="43.5694" lon="10.8182933"><ele>174.5</ele><time>2026-04-18T08:09:18.746Z</time></trkpt><trkpt lat="43.569455" lon="10.8184467"><ele>172.0</ele><time>2026-04-18T08:09:19.742Z</time></trkpt><trkpt lat="43.569485" lon="10.8186233"><ele>171.5</ele><time>2026-04-18T08:09:20.743Z</time></trkpt><trkpt lat="43.5694933" lon="10.8188067"><ele>171.0</ele><time>2026-04-18T08:09:21.74Z</time></trkpt><trkpt lat="43.5694833" lon="10.818985"><ele>170.5</ele><time>2026-04-18T08:09:22.742Z</time></trkpt><trkpt lat="43.5694517" lon="10.819155"><ele>170.0</ele><time>2026-04-18T08:09:23.742Z</time></trkpt><trkpt lat="43.5693867" lon="10.8193217"><ele>169.75</ele><time>2026-04-18T08:09:24.743Z</time></trkpt><trkpt lat="43.5693033" lon="10.8194917"><ele>169.5</ele><time>2026-04-18T08:09:25.741Z</time></trkpt><trkpt lat="43.5692233" lon="10.8196683"><ele>169.25</ele><time>2026-04-18T08:09:26.742Z</time></trkpt><trkpt lat="43.5691533" lon="10.81985"><ele>169.0</ele><time>2026-04-18T08:09:27.742Z</time></trkpt><trkpt lat="43.5690767" lon="10.8200217"><ele>167.25</ele><time>2026-04-18T08:09:28.747Z</time></trkpt><trkpt lat="43.5690083" lon="10.8201983"><ele>165.5</ele><time>2026-04-18T08:09:29.747Z</time></trkpt><trkpt lat="43.5689433" lon="10.8203583"><ele>163.75</ele><time>2026-04-18T08:09:30.742Z</time></trkpt><trkpt lat="43.568905" lon="10.8205267"><ele>162.0</ele><time>2026-04-18T08:09:31.759Z</time></trkpt><trkpt lat="43.5688967" lon="10.8207133"><ele>162.0</ele><time>2026-04-18T08:09:32.748Z</time></trkpt><trkpt lat="43.5689133" lon="10.8209133"><ele>162.0</ele><time>2026-04-18T08:09:33.743Z</time></trkpt><trkpt lat="43.5689367" lon="10.82113"><ele>162.0</ele><time>2026-04-18T08:09:34.743Z</time></trkpt><trkpt lat="43.56899" lon="10.8213567"><ele>159.0</ele><time>2026-04-18T08:09:35.745Z</time></trkpt><trkpt lat="43.5690383" lon="10.8215767"><ele>156.0</ele><time>2026-04-18T08:09:36.742Z</time></trkpt><trkpt lat="43.569065" lon="10.8217983"><ele>153.0</ele><time>2026-04-18T08:09:37.743Z</time></trkpt><trkpt lat="43.5690883" lon="10.822015"><ele>151.33333333333334</ele><time>2026-04-18T08:09:38.749Z</time></trkpt><trkpt lat="43.5690867" lon="10.8222333"><ele>149.66666666666669</ele><time>2026-04-18T08:09:39.745Z</time></trkpt><trkpt lat="43.56907" lon="10.82246"><ele>148.0</ele><time>2026-04-18T08:09:40.741Z</time></trkpt><trkpt lat="43.569055" lon="10.8226933"><ele>147.33333333333334</ele><time>2026-04-18T08:09:41.744Z</time></trkpt><trkpt lat="43.569035" lon="10.8229283"><ele>146.66666666666666</ele><time>2026-04-18T08:09:42.746Z</time></trkpt><trkpt lat="43.569015" lon="10.82316"><ele>146.0</ele><time>2026-04-18T08:09:43.749Z</time></trkpt><trkpt lat="43.568995" lon="10.8233817"><ele>144.33333333333331</ele><time>2026-04-18T08:09:44.746Z</time></trkpt><trkpt lat="43.5689717" lon="10.8235933"><ele>142.66666666666666</ele><time>2026-04-18T08:09:45.747Z</time></trkpt><trkpt lat="43.56895" lon="10.8238"><ele>141.0</ele><time>2026-04-18T08:09:46.745Z</time></trkpt><trkpt lat="43.5689167" lon="10.8239933"><ele>141.0</ele><time>2026-04-18T08:09:47.742Z</time></trkpt><trkpt lat="43.568885" lon="10.82418"><ele>141.0</ele><time>2026-04-18T08:09:48.742Z</time></trkpt><trkpt lat="43.5688517" lon="10.82435"><ele>141.0</ele><time>2026-04-18T08:09:49.747Z</time></trkpt><trkpt lat="43.5688317" lon="10.8245067"><ele>141.0</ele><time>2026-04-18T08:09:50.759Z</time></trkpt><trkpt lat="43.5688067" lon="10.82464"><ele>140.33333333333334</ele><time>2026-04-18T08:09:51.751Z</time></trkpt><trkpt lat="43.5687917" lon="10.8247533"><ele>139.66666666666666</ele><time>2026-04-18T08:09:52.747Z</time></trkpt><trkpt lat="43.568785" lon="10.8248517"><ele>139.0</ele><time>2026-04-18T08:09:53.741Z</time></trkpt><trkpt lat="43.5687433" lon="10.82499"><ele>138.33333333333331</ele><time>2026-04-18T08:09:55.744Z</time></trkpt><trkpt lat="43.5686433" lon="10.8250117"><ele>137.66666666666666</ele><time>2026-04-18T08:09:57.749Z</time></trkpt><trkpt lat="43.5686017" lon="10.8249417"><ele>137.0</ele><time>2026-04-18T08:09:58.744Z</time></trkpt><trkpt lat="43.56858" lon="10.824825"><ele>136.75</ele><time>2026-04-18T08:09:59.744Z</time></trkpt><trkpt lat="43.5685667" lon="10.8246933"><ele>136.5</ele><time>2026-04-18T08:10:00.74Z</time></trkpt><trkpt lat="43.5685483" lon="10.8245483"><ele>136.25</ele><time>2026-04-18T08:10:01.742Z</time></trkpt><trkpt lat="43.56853" lon="10.82438"><ele>136.0</ele><time>2026-04-18T08:10:02.745Z</time></trkpt><trkpt lat="43.5685" lon="10.82419"><ele>134.75</ele><time>2026-04-18T08:10:03.743Z</time></trkpt><trkpt lat="43.5684683" lon="10.8239917"><ele>133.5</ele><time>2026-04-18T08:10:04.744Z</time></trkpt><trkpt lat="43.5684467" lon="10.823795"><ele>132.25</ele><time>2026-04-18T08:10:05.743Z</time></trkpt><trkpt lat="43.5684217" lon="10.823605"><ele>131.0</ele><time>2026-04-18T08:10:06.746Z</time></trkpt><trkpt lat="43.5684017" lon="10.8234217"><ele>130.5</ele><time>2026-04-18T08:10:07.75Z</time></trkpt><trkpt lat="43.5683933" lon="10.82324"><ele>130.0</ele><time>2026-04-18T08:10:08.75Z</time></trkpt><trkpt lat="43.5683883" lon="10.8230767"><ele>129.5</ele><time>2026-04-18T08:10:09.744Z</time></trkpt><trkpt lat="43.568385" lon="10.8229283"><ele>129.0</ele><time>2026-04-18T08:10:10.745Z</time></trkpt><trkpt lat="43.5683733" lon="10.8227983"><ele>129.0</ele><time>2026-04-18T08:10:11.742Z</time></trkpt><trkpt lat="43.5683667" lon="10.822685"><ele>129.0</ele><time>2026-04-18T08:10:12.744Z</time></trkpt><trkpt lat="43.5683583" lon="10.82258"><ele>129.0</ele><time>2026-04-18T08:10:13.744Z</time></trkpt><trkpt lat="43.5683567" lon="10.8224867"><ele>129.0</ele><time>2026-04-18T08:10:14.752Z</time></trkpt><trkpt lat="43.56835" lon="10.822395"><ele>129.0</ele><time>2026-04-18T08:10:15.745Z</time></trkpt><trkpt lat="43.5683433" lon="10.822295"><ele>129.0</ele><time>2026-04-18T08:10:16.744Z</time></trkpt><trkpt lat="43.5683117" lon="10.8221833"><ele>129.2</ele><time>2026-04-18T08:10:17.746Z</time></trkpt><trkpt lat="43.5682617" lon="10.8220617"><ele>129.4</ele><time>2026-04-18T08:10:18.742Z</time></trkpt><trkpt lat="43.5681917" lon="10.8219517"><ele>129.6</ele><time>2026-04-18T08:10:19.745Z</time></trkpt><trkpt lat="43.5681017" lon="10.821885"><ele>129.8</ele><time>2026-04-18T08:10:20.746Z</time></trkpt><trkpt lat="43.5680083" lon="10.8218383"><ele>130.0</ele><time>2026-04-18T08:10:21.745Z</time></trkpt><trkpt lat="43.567915" lon="10.8218083"><ele>129.2</ele><time>2026-04-18T08:10:22.742Z</time></trkpt><trkpt lat="43.567825" lon="10.8217817"><ele>128.4</ele><time>2026-04-18T08:10:23.744Z</time></trkpt><trkpt lat="43.56773" lon="10.8217433"><ele>127.6</ele><time>2026-04-18T08:10:24.744Z</time></trkpt><trkpt lat="43.5676267" lon="10.821715"><ele>126.8</ele><time>2026-04-18T08:10:25.741Z</time></trkpt><trkpt lat="43.5675217" lon="10.8216817"><ele>126.0</ele><time>2026-04-18T08:10:26.744Z</time></trkpt><trkpt lat="43.567415" lon="10.8216533"><ele>126.0</ele><time>2026-04-18T08:10:27.74Z</time></trkpt><trkpt lat="43.5673083" lon="10.8216233"><ele>126.0</ele><time>2026-04-18T08:10:28.744Z</time></trkpt><trkpt lat="43.5671933" lon="10.8215867"><ele>126.0</ele><time>2026-04-18T08:10:29.743Z</time></trkpt><trkpt lat="43.5670617" lon="10.82154"><ele>126.0</ele><time>2026-04-18T08:10:30.745Z</time></trkpt><trkpt lat="43.5669233" lon="10.8214983"><ele>122.0</ele><time>2026-04-18T08:10:31.743Z</time></trkpt><trkpt lat="43.56679" lon="10.8214767"><ele>118.0</ele><time>2026-04-18T08:10:32.741Z</time></trkpt><trkpt lat="43.5666633" lon="10.8214367"><ele>114.0</ele><time>2026-04-18T08:10:33.743Z</time></trkpt><trkpt lat="43.56654" lon="10.8214"><ele>110.0</ele><time>2026-04-18T08:10:34.745Z</time></trkpt><trkpt lat="43.5664183" lon="10.8213467"><ele>110.0</ele><time>2026-04-18T08:10:35.742Z</time></trkpt><trkpt lat="43.5662983" lon="10.82131"><ele>110.0</ele><time>2026-04-18T08:10:36.742Z</time></trkpt><trkpt lat="43.5661817" lon="10.82128"><ele>110.0</ele><time>2026-04-18T08:10:37.743Z</time></trkpt><trkpt lat="43.5660667" lon="10.8212483"><ele>110.0</ele><time>2026-04-18T08:10:38.742Z</time></trkpt><trkpt lat="43.5659533" lon="10.8212133"><ele>107.25</ele><time>2026-04-18T08:10:39.743Z</time></trkpt><trkpt lat="43.565835" lon="10.8211633"><ele>104.5</ele><time>2026-04-18T08:10:40.743Z</time></trkpt><trkpt lat="43.5657117" lon="10.821105"><ele>101.75</ele><time>2026-04-18T08:10:41.74Z</time></trkpt><trkpt lat="43.5655783" lon="10.8210433"><ele>99.0</ele><time>2026-04-18T08:10:42.744Z</time></trkpt><trkpt lat="43.5654267" lon="10.8209933"><ele>99.0</ele><time>2026-04-18T08:10:43.743Z</time></trkpt><trkpt lat="43.5652733" lon="10.82087"><ele>99.0</ele><time>2026-04-18T08:10:44.743Z</time></trkpt><trkpt lat="43.5651083" lon="10.82076"><ele>99.0</ele><time>2026-04-18T08:10:45.741Z</time></trkpt><trkpt lat="43.5649533" lon="10.8205833"><ele>99.0</ele><time>2026-04-18T08:10:46.745Z</time></trkpt><trkpt lat="43.5648133" lon="10.8204083"><ele>99.0</ele><time>2026-04-18T08:10:47.743Z</time></trkpt><trkpt lat="43.5646867" lon="10.8202467"><ele>99.0</ele><time>2026-04-18T08:10:48.748Z</time></trkpt><trkpt lat="43.56457" lon="10.8200983"><ele>94.33333333333333</ele><time>2026-04-18T08:10:49.749Z</time></trkpt><trkpt lat="43.5644683" lon="10.8199383"><ele>89.66666666666666</ele><time>2026-04-18T08:10:50.75Z</time></trkpt><trkpt lat="43.5643783" lon="10.8197583"><ele>85.0</ele><time>2026-04-18T08:10:51.744Z</time></trkpt><trkpt lat="43.5642867" lon="10.8195767"><ele>85.0</ele><time>2026-04-18T08:10:52.747Z</time></trkpt><trkpt lat="43.5642017" lon="10.8193933"><ele>85.0</ele><time>2026-04-18T08:10:53.747Z</time></trkpt><trkpt lat="43.5641267" lon="10.81922"><ele>85.0</ele><time>2026-04-18T08:10:54.752Z</time></trkpt><trkpt lat="43.5640483" lon="10.8190733"><ele>85.0</ele><time>2026-04-18T08:10:55.745Z</time></trkpt><trkpt lat="43.5639817" lon="10.8189367"><ele>85.4</ele><time>2026-04-18T08:10:56.746Z</time></trkpt><trkpt lat="43.5639117" lon="10.81882"><ele>85.8</ele><time>2026-04-18T08:10:57.748Z</time></trkpt><trkpt lat="43.5638533" lon="10.8187183"><ele>86.19999999999999</ele><time>2026-04-18T08:10:58.746Z</time></trkpt><trkpt lat="43.5637817" lon="10.818645"><ele>86.6</ele><time>2026-04-18T08:10:59.749Z</time></trkpt><trkpt lat="43.5637083" lon="10.8185883"><ele>87.0</ele><time>2026-04-18T08:11:00.747Z</time></trkpt><trkpt lat="43.5636333" lon="10.81854"><ele>85.0</ele><time>2026-04-18T08:11:01.747Z</time></trkpt><trkpt lat="43.56353" lon="10.81854"><ele>83.0</ele><time>2026-04-18T08:11:02.746Z</time></trkpt><trkpt lat="43.56342" lon="10.818575"><ele>81.0</ele><time>2026-04-18T08:11:03.744Z</time></trkpt><trkpt lat="43.5632883" lon="10.81865"><ele>79.0</ele><time>2026-04-18T08:11:04.745Z</time></trkpt><trkpt lat="43.5631367" lon="10.8188067"><ele>79.0</ele><time>2026-04-18T08:11:05.746Z</time></trkpt><trkpt lat="43.563005" lon="10.8188917"><ele>79.0</ele><time>2026-04-18T08:11:06.742Z</time></trkpt><trkpt lat="43.5628717" lon="10.8189683"><ele>79.0</ele><time>2026-04-18T08:11:07.746Z</time></trkpt><trkpt lat="43.5627533" lon="10.8190433"><ele>79.0</ele><time>2026-04-18T08:11:08.745Z</time></trkpt><trkpt lat="43.562645" lon="10.8190667"><ele>80.25</ele><time>2026-04-18T08:11:09.744Z</time></trkpt><trkpt lat="43.5625367" lon="10.819165"><ele>81.5</ele><time>2026-04-18T08:11:10.742Z</time></trkpt><trkpt lat="43.5624267" lon="10.8192083"><ele>82.75</ele><time>2026-04-18T08:11:11.741Z</time></trkpt><trkpt lat="43.5623167" lon="10.8192217"><ele>84.0</ele><time>2026-04-18T08:11:12.743Z</time></trkpt><trkpt lat="43.5622067" lon="10.8192083"><ele>84.0</ele><time>2026-04-18T08:11:13.742Z</time></trkpt><trkpt lat="43.5620983" lon="10.8191517"><ele>84.0</ele><time>2026-04-18T08:11:14.747Z</time></trkpt><trkpt lat="43.5619933" lon="10.8190433"><ele>84.0</ele><time>2026-04-18T08:11:15.745Z</time></trkpt><trkpt lat="43.5618883" lon="10.8188783"><ele>84.0</ele><time>2026-04-18T08:11:16.742Z</time></trkpt><trkpt lat="43.561765" lon="10.8186867"><ele>83.33333333333333</ele><time>2026-04-18T08:11:17.747Z</time></trkpt><trkpt lat="43.56163" lon="10.8184667"><ele>82.66666666666666</ele><time>2026-04-18T08:11:18.744Z</time></trkpt><trkpt lat="43.5614883" lon="10.8182267"><ele>82.0</ele><time>2026-04-18T08:11:19.749Z</time></trkpt><trkpt lat="43.561355" lon="10.8179883"><ele>82.0</ele><time>2026-04-18T08:11:20.754Z</time></trkpt><trkpt lat="43.56123" lon="10.8177617"><ele>82.0</ele><time>2026-04-18T08:11:21.748Z</time></trkpt><trkpt lat="43.5611233" lon="10.8175433"><ele>82.0</ele><time>2026-04-18T08:11:22.743Z</time></trkpt><trkpt lat="43.561005" lon="10.81735"><ele>81.33333333333333</ele><time>2026-04-18T08:11:23.746Z</time></trkpt><trkpt lat="43.5608983" lon="10.8171533"><ele>80.66666666666667</ele><time>2026-04-18T08:11:24.744Z</time></trkpt><trkpt lat="43.5607783" lon="10.8169633"><ele>80.0</ele><time>2026-04-18T08:11:25.743Z</time></trkpt><trkpt lat="43.5606283" lon="10.8167917"><ele>80.0</ele><time>2026-04-18T08:11:26.743Z</time></trkpt><trkpt lat="43.5604667" lon="10.8166183"><ele>80.0</ele><time>2026-04-18T08:11:27.744Z</time></trkpt><trkpt lat="43.56031" lon="10.8164417"><ele>80.0</ele><time>2026-04-18T08:11:28.741Z</time></trkpt><trkpt lat="43.56016" lon="10.8162683"><ele>79.0</ele><time>2026-04-18T08:11:29.748Z</time></trkpt><trkpt lat="43.5600017" lon="10.816145"><ele>78.0</ele><time>2026-04-18T08:11:30.746Z</time></trkpt><trkpt lat="43.5598717" lon="10.816005"><ele>77.0</ele><time>2026-04-18T08:11:31.742Z</time></trkpt><trkpt lat="43.55975" lon="10.8158633"><ele>77.0</ele><time>2026-04-18T08:11:32.745Z</time></trkpt><trkpt lat="43.55962" lon="10.81578"><ele>77.0</ele><time>2026-04-18T08:11:33.741Z</time></trkpt><trkpt lat="43.5594883" lon="10.8157167"><ele>77.0</ele><time>2026-04-18T08:11:34.742Z</time></trkpt><trkpt lat="43.5593417" lon="10.81567"><ele>77.0</ele><time>2026-04-18T08:11:35.741Z</time></trkpt><trkpt lat="43.5591733" lon="10.8156283"><ele>78.0</ele><time>2026-04-18T08:11:36.744Z</time></trkpt><trkpt lat="43.55898" lon="10.8155967"><ele>79.0</ele><time>2026-04-18T08:11:37.743Z</time></trkpt><trkpt lat="43.558765" lon="10.81554"><ele>80.0</ele><time>2026-04-18T08:11:38.746Z</time></trkpt><trkpt lat="43.5585533" lon="10.815465"><ele>80.0</ele><time>2026-04-18T08:11:39.75Z</time></trkpt><trkpt lat="43.55835" lon="10.8154133"><ele>80.0</ele><time>2026-04-18T08:11:40.743Z</time></trkpt><trkpt lat="43.55816" lon="10.8153583"><ele>80.0</ele><time>2026-04-18T08:11:41.746Z</time></trkpt><trkpt lat="43.5579767" lon="10.8153217"><ele>79.0</ele><time>2026-04-18T08:11:42.744Z</time></trkpt><trkpt lat="43.5577917" lon="10.81527"><ele>78.0</ele><time>2026-04-18T08:11:43.747Z</time></trkpt><trkpt lat="43.5576083" lon="10.815205"><ele>77.0</ele><time>2026-04-18T08:11:44.744Z</time></trkpt><trkpt lat="43.5574267" lon="10.8151533"><ele>77.0</ele><time>2026-04-18T08:11:45.742Z</time></trkpt><trkpt lat="43.5572533" lon="10.81513"><ele>77.0</ele><time>2026-04-18T08:11:46.746Z</time></trkpt><trkpt lat="43.5570867" lon="10.81512"><ele>77.0</ele><time>2026-04-18T08:11:47.744Z</time></trkpt><trkpt lat="43.5569133" lon="10.81515"><ele>78.33333333333334</ele><time>2026-04-18T08:11:48.745Z</time></trkpt><trkpt lat="43.5567233" lon="10.815155"><ele>79.66666666666667</ele><time>2026-04-18T08:11:49.742Z</time></trkpt><trkpt lat="43.556525" lon="10.8152233"><ele>81.0</ele><time>2026-04-18T08:11:50.748Z</time></trkpt><trkpt lat="43.5563133" lon="10.8153017"><ele>83.66666666666667</ele><time>2026-04-18T08:11:51.746Z</time></trkpt><trkpt lat="43.5561117" lon="10.815395"><ele>86.33333333333334</ele><time>2026-04-18T08:11:52.744Z</time></trkpt><trkpt lat="43.5559183" lon="10.8154367"><ele>89.0</ele><time>2026-04-18T08:11:53.742Z</time></trkpt><trkpt lat="43.5557617" lon="10.81551"><ele>89.0</ele><time>2026-04-18T08:11:54.743Z</time></trkpt><trkpt lat="43.55562" lon="10.8155783"><ele>89.0</ele><time>2026-04-18T08:11:55.742Z</time></trkpt><trkpt lat="43.55549" lon="10.8156617"><ele>89.0</ele><time>2026-04-18T08:11:56.743Z</time></trkpt><trkpt lat="43.555375" lon="10.8157917"><ele>89.0</ele><time>2026-04-18T08:11:57.743Z</time></trkpt><trkpt lat="43.5552667" lon="10.81597"><ele>91.66666666666667</ele><time>2026-04-18T08:11:58.744Z</time></trkpt><trkpt lat="43.55516" lon="10.8161867"><ele>94.33333333333334</ele><time>2026-04-18T08:11:59.742Z</time></trkpt><trkpt lat="43.5550183" lon="10.81638"><ele>97.0</ele><time>2026-04-18T08:12:00.742Z</time></trkpt><trkpt lat="43.5549" lon="10.8166317"><ele>99.0</ele><time>2026-04-18T08:12:01.747Z</time></trkpt><trkpt lat="43.5547583" lon="10.816885"><ele>101.0</ele><time>2026-04-18T08:12:02.741Z</time></trkpt><trkpt lat="43.55463" lon="10.817165"><ele>102.0</ele><time>2026-04-18T08:12:03.746Z</time></trkpt><trkpt lat="43.5544633" lon="10.8174183"><ele>103.0</ele><time>2026-04-18T08:12:04.743Z</time></trkpt><trkpt lat="43.5543033" lon="10.8176917"><ele>106.0</ele><time>2026-04-18T08:12:05.746Z</time></trkpt><trkpt lat="43.55414" lon="10.817975"><ele>109.0</ele><time>2026-04-18T08:12:06.747Z</time></trkpt><trkpt lat="43.5539733" lon="10.8182617"><ele>111.0</ele><time>2026-04-18T08:12:07.747Z</time></trkpt><trkpt lat="43.5538233" lon="10.8185417"><ele>113.0</ele><time>2026-04-18T08:12:08.746Z</time></trkpt><trkpt lat="43.5536633" lon="10.8187917"><ele>114.5</ele><time>2026-04-18T08:12:09.746Z</time></trkpt><trkpt lat="43.55353" lon="10.819055"><ele>116.0</ele><time>2026-04-18T08:12:10.745Z</time></trkpt><trkpt lat="43.5533967" lon="10.8193067"><ele>119.0</ele><time>2026-04-18T08:12:11.747Z</time></trkpt><trkpt lat="43.5532583" lon="10.8195517"><ele>122.0</ele><time>2026-04-18T08:12:12.745Z</time></trkpt><trkpt lat="43.5531117" lon="10.8197883"><ele>122.0</ele><time>2026-04-18T08:12:13.745Z</time></trkpt><trkpt lat="43.5529717" lon="10.8200233"><ele>122.0</ele><time>2026-04-18T08:12:14.75Z</time></trkpt><trkpt lat="43.5528283" lon="10.82026"><ele>122.0</ele><time>2026-04-18T08:12:15.745Z</time></trkpt><trkpt lat="43.5527083" lon="10.8205133"><ele>123.33333333333333</ele><time>2026-04-18T08:12:16.747Z</time></trkpt><trkpt lat="43.5525717" lon="10.8207583"><ele>124.66666666666666</ele><time>2026-04-18T08:12:17.749Z</time></trkpt><trkpt lat="43.5524467" lon="10.8209933"><ele>126.0</ele><time>2026-04-18T08:12:18.746Z</time></trkpt><trkpt lat="43.552345" lon="10.8212233"><ele>127.66666666666666</ele><time>2026-04-18T08:12:19.746Z</time></trkpt><trkpt lat="43.5522417" lon="10.8214267"><ele>129.33333333333331</ele><time>2026-04-18T08:12:20.75Z</time></trkpt><trkpt lat="43.5521517" lon="10.8216183"><ele>131.0</ele><time>2026-04-18T08:12:21.744Z</time></trkpt><trkpt lat="43.55206" lon="10.8218067"><ele>133.0</ele><time>2026-04-18T08:12:22.749Z</time></trkpt><trkpt lat="43.5519583" lon="10.8219933"><ele>135.0</ele><time>2026-04-18T08:12:23.748Z</time></trkpt><trkpt lat="43.5518617" lon="10.822185"><ele>137.0</ele><time>2026-04-18T08:12:24.752Z</time></trkpt><trkpt lat="43.551765" lon="10.8223633"><ele>137.0</ele><time>2026-04-18T08:12:25.743Z</time></trkpt><trkpt lat="43.55167" lon="10.8225167"><ele>137.0</ele><time>2026-04-18T08:12:26.746Z</time></trkpt><trkpt lat="43.5515833" lon="10.82265"><ele>137.0</ele><time>2026-04-18T08:12:27.746Z</time></trkpt><trkpt lat="43.551505" lon="10.8227717"><ele>137.0</ele><time>2026-04-18T08:12:28.742Z</time></trkpt><trkpt lat="43.5514067" lon="10.82285"><ele>139.5</ele><time>2026-04-18T08:12:29.748Z</time></trkpt><trkpt lat="43.5513067" lon="10.822895"><ele>142.0</ele><time>2026-04-18T08:12:30.742Z</time></trkpt><trkpt lat="43.5512017" lon="10.8229083"><ele>144.5</ele><time>2026-04-18T08:12:31.741Z</time></trkpt><trkpt lat="43.5510667" lon="10.8229"><ele>147.0</ele><time>2026-04-18T08:12:32.744Z</time></trkpt><trkpt lat="43.5509317" lon="10.8229183"><ele>147.0</ele><time>2026-04-18T08:12:33.749Z</time></trkpt><trkpt lat="43.5507683" lon="10.8229083"><ele>147.0</ele><time>2026-04-18T08:12:34.745Z</time></trkpt><trkpt lat="43.55058" lon="10.82286"><ele>147.0</ele><time>2026-04-18T08:12:35.743Z</time></trkpt><trkpt lat="43.55036" lon="10.8228017"><ele>148.5</ele><time>2026-04-18T08:12:36.745Z</time></trkpt><trkpt lat="43.5501283" lon="10.8227533"><ele>150.0</ele><time>2026-04-18T08:12:37.749Z</time></trkpt><trkpt lat="43.5498833" lon="10.8227067"><ele>150.0</ele><time>2026-04-18T08:12:38.746Z</time></trkpt><trkpt lat="43.549645" lon="10.8226617"><ele>150.0</ele><time>2026-04-18T08:12:39.744Z</time></trkpt><trkpt lat="43.54943" lon="10.8226117"><ele>148.33333333333334</ele><time>2026-04-18T08:12:40.749Z</time></trkpt><trkpt lat="43.5492417" lon="10.8225417"><ele>146.66666666666669</ele><time>2026-04-18T08:12:41.747Z</time></trkpt><trkpt lat="43.5490733" lon="10.82249"><ele>145.0</ele><time>2026-04-18T08:12:42.744Z</time></trkpt><trkpt lat="43.5489233" lon="10.8224467"><ele>145.0</ele><time>2026-04-18T08:12:43.75Z</time></trkpt><trkpt lat="43.5487917" lon="10.822375"><ele>145.0</ele><time>2026-04-18T08:12:44.743Z</time></trkpt><trkpt lat="43.548665" lon="10.8223217"><ele>145.0</ele><time>2026-04-18T08:12:45.745Z</time></trkpt><trkpt lat="43.5485467" lon="10.822245"><ele>145.0</ele><time>2026-04-18T08:12:46.744Z</time></trkpt><trkpt lat="43.548435" lon="10.822125"><ele>145.5</ele><time>2026-04-18T08:12:47.743Z</time></trkpt><trkpt lat="43.5483267" lon="10.8220133"><ele>146.0</ele><time>2026-04-18T08:12:48.748Z</time></trkpt><trkpt lat="43.5482367" lon="10.82189"><ele>146.5</ele><time>2026-04-18T08:12:49.744Z</time></trkpt><trkpt lat="43.5481417" lon="10.8217667"><ele>147.0</ele><time>2026-04-18T08:12:50.744Z</time></trkpt><trkpt lat="43.548045" lon="10.821645"><ele>147.0</ele><time>2026-04-18T08:12:51.746Z</time></trkpt><trkpt lat="43.5479667" lon="10.8215383"><ele>147.0</ele><time>2026-04-18T08:12:52.746Z</time></trkpt><trkpt lat="43.5479133" lon="10.8214483"><ele>147.0</ele><time>2026-04-18T08:12:53.745Z</time></trkpt><trkpt lat="43.5478483" lon="10.8213583"><ele>147.0</ele><time>2026-04-18T08:12:55.742Z</time></trkpt><trkpt lat="43.54779" lon="10.821425"><ele>147.0</ele><time>2026-04-18T08:12:59.748Z</time></trkpt><trkpt lat="43.5477917" lon="10.8215483"><ele>146.2</ele><time>2026-04-18T08:13:14.747Z</time></trkpt><trkpt lat="43.5477933" lon="10.82142"><ele>145.39999999999998</ele><time>2026-04-18T08:13:25.741Z</time></trkpt><trkpt lat="43.5477533" lon="10.8212717"><ele>144.60000000000002</ele><time>2026-04-18T08:13:27.741Z</time></trkpt><trkpt lat="43.5477067" lon="10.82119"><ele>143.8</ele><time>2026-04-18T08:13:28.742Z</time></trkpt><trkpt lat="43.5476517" lon="10.8211"><ele>143.0</ele><time>2026-04-18T08:13:29.744Z</time></trkpt><trkpt lat="43.5475667" lon="10.8209967"><ele>143.20000000000002</ele><time>2026-04-18T08:13:30.743Z</time></trkpt><trkpt lat="43.5474933" lon="10.8208833"><ele>143.4</ele><time>2026-04-18T08:13:31.747Z</time></trkpt><trkpt lat="43.5474233" lon="10.8207767"><ele>143.60000000000002</ele><time>2026-04-18T08:13:32.744Z</time></trkpt><trkpt lat="43.547355" lon="10.8206833"><ele>143.8</ele><time>2026-04-18T08:13:33.742Z</time></trkpt><trkpt lat="43.5472917" lon="10.8206017"><ele>144.0</ele><time>2026-04-18T08:13:34.743Z</time></trkpt><trkpt lat="43.5472383" lon="10.8205283"><ele>144.0</ele><time>2026-04-18T08:13:35.742Z</time></trkpt><trkpt lat="43.5471867" lon="10.820465"><ele>144.0</ele><time>2026-04-18T08:13:36.75Z</time></trkpt><trkpt lat="43.5471367" lon="10.8204117"><ele>144.0</ele><time>2026-04-18T08:13:37.744Z</time></trkpt><trkpt lat="43.5470183" lon="10.8203783"><ele>144.0</ele><time>2026-04-18T08:13:39.744Z</time></trkpt><trkpt lat="43.5469017" lon="10.820465"><ele>144.0</ele><time>2026-04-18T08:13:41.745Z</time></trkpt><trkpt lat="43.5468517" lon="10.8205467"><ele>141.0</ele><time>2026-04-18T08:13:42.744Z</time></trkpt><trkpt lat="43.5468117" lon="10.8206517"><ele>138.0</ele><time>2026-04-18T08:13:43.74Z</time></trkpt><trkpt lat="43.5467833" lon="10.8207883"><ele>135.0</ele><time>2026-04-18T08:13:44.741Z</time></trkpt><trkpt lat="43.5467567" lon="10.8209383"><ele>132.0</ele><time>2026-04-18T08:13:45.741Z</time></trkpt><trkpt lat="43.54672" lon="10.8210933"><ele>129.0</ele><time>2026-04-18T08:13:46.741Z</time></trkpt><trkpt lat="43.5466767" lon="10.8212483"><ele>128.5</ele><time>2026-04-18T08:13:47.742Z</time></trkpt><trkpt lat="43.5466367" lon="10.8214017"><ele>128.0</ele><time>2026-04-18T08:13:48.745Z</time></trkpt><trkpt lat="43.546605" lon="10.8215583"><ele>127.5</ele><time>2026-04-18T08:13:49.742Z</time></trkpt><trkpt lat="43.54657" lon="10.8217133"><ele>127.0</ele><time>2026-04-18T08:13:50.743Z</time></trkpt><trkpt lat="43.5465283" lon="10.82186"><ele>126.39999999999999</ele><time>2026-04-18T08:13:51.741Z</time></trkpt><trkpt lat="43.5464983" lon="10.8220017"><ele>125.79999999999998</ele><time>2026-04-18T08:13:52.743Z</time></trkpt><trkpt lat="43.5464717" lon="10.82214"><ele>125.2</ele><time>2026-04-18T08:13:53.742Z</time></trkpt><trkpt lat="43.54644" lon="10.8222633"><ele>124.6</ele><time>2026-04-18T08:13:54.74Z</time></trkpt><trkpt lat="43.54641" lon="10.82238"><ele>124.0</ele><time>2026-04-18T08:13:55.742Z</time></trkpt><trkpt lat="43.546385" lon="10.8224917"><ele>124.00000000000001</ele><time>2026-04-18T08:13:56.744Z</time></trkpt><trkpt lat="43.5463567" lon="10.8225867"><ele>124.0</ele><time>2026-04-18T08:13:57.748Z</time></trkpt><trkpt lat="43.5463317" lon="10.8226767"><ele>124.0</ele><time>2026-04-18T08:13:58.743Z</time></trkpt><trkpt lat="43.5463067" lon="10.8227583"><ele>124.0</ele><time>2026-04-18T08:13:59.746Z</time></trkpt><trkpt lat="43.5462633" lon="10.8228233"><ele>124.00000000000001</ele><time>2026-04-18T08:14:00.744Z</time></trkpt><trkpt lat="43.5461483" lon="10.822865"><ele>124.0</ele><time>2026-04-18T08:14:02.747Z</time></trkpt><trkpt lat="43.5460817" lon="10.82284"><ele>120.5</ele><time>2026-04-18T08:14:03.743Z</time></trkpt><trkpt lat="43.54601" lon="10.82277"><ele>117.0</ele><time>2026-04-18T08:14:04.743Z</time></trkpt><trkpt lat="43.5459367" lon="10.8226733"><ele>113.5</ele><time>2026-04-18T08:14:05.744Z</time></trkpt><trkpt lat="43.5458683" lon="10.82251"><ele>110.0</ele><time>2026-04-18T08:14:06.742Z</time></trkpt><trkpt lat="43.5458017" lon="10.82233"><ele>110.0</ele><time>2026-04-18T08:14:07.743Z</time></trkpt><trkpt lat="43.545735" lon="10.82215"><ele>110.0</ele><time>2026-04-18T08:14:08.748Z</time></trkpt><trkpt lat="43.54568" lon="10.8219583"><ele>110.0</ele><time>2026-04-18T08:14:09.744Z</time></trkpt><trkpt lat="43.54563" lon="10.8217467"><ele>110.0</ele><time>2026-04-18T08:14:10.745Z</time></trkpt><trkpt lat="43.545595" lon="10.8215333"><ele>110.0</ele><time>2026-04-18T08:14:11.742Z</time></trkpt><trkpt lat="43.5455567" lon="10.8213283"><ele>110.0</ele><time>2026-04-18T08:14:12.746Z</time></trkpt><trkpt lat="43.5455167" lon="10.8211433"><ele>109.75</ele><time>2026-04-18T08:14:13.745Z</time></trkpt><trkpt lat="43.5454817" lon="10.820975"><ele>109.5</ele><time>2026-04-18T08:14:14.743Z</time></trkpt><trkpt lat="43.5454517" lon="10.820815"><ele>109.25</ele><time>2026-04-18T08:14:15.742Z</time></trkpt><trkpt lat="43.5454217" lon="10.8206567"><ele>109.0</ele><time>2026-04-18T08:14:16.744Z</time></trkpt><trkpt lat="43.5453767" lon="10.8205"><ele>106.0</ele><time>2026-04-18T08:14:17.739Z</time></trkpt><trkpt lat="43.545315" lon="10.8203483"><ele>103.0</ele><time>2026-04-18T08:14:18.747Z</time></trkpt><trkpt lat="43.5452267" lon="10.8202167"><ele>100.0</ele><time>2026-04-18T08:14:19.743Z</time></trkpt><trkpt lat="43.545125" lon="10.8201033"><ele>97.0</ele><time>2026-04-18T08:14:20.75Z</time></trkpt><trkpt lat="43.54503" lon="10.8199667"><ele>97.0</ele><time>2026-04-18T08:14:21.747Z</time></trkpt><trkpt lat="43.5449283" lon="10.8198467"><ele>97.0</ele><time>2026-04-18T08:14:22.741Z</time></trkpt><trkpt lat="43.5448483" lon="10.8196967"><ele>97.0</ele><time>2026-04-18T08:14:23.751Z</time></trkpt><trkpt lat="43.544775" lon="10.81955"><ele>97.0</ele><time>2026-04-18T08:14:24.743Z</time></trkpt><trkpt lat="43.544715" lon="10.8194033"><ele>98.0</ele><time>2026-04-18T08:14:25.744Z</time></trkpt><trkpt lat="43.5446733" lon="10.819225"><ele>99.0</ele><time>2026-04-18T08:14:26.742Z</time></trkpt><trkpt lat="43.5446467" lon="10.8190017"><ele>100.0</ele><time>2026-04-18T08:14:27.743Z</time></trkpt><trkpt lat="43.5445933" lon="10.8187467"><ele>98.66666666666667</ele><time>2026-04-18T08:14:28.742Z</time></trkpt><trkpt lat="43.544555" lon="10.8184583"><ele>97.33333333333334</ele><time>2026-04-18T08:14:29.745Z</time></trkpt><trkpt lat="43.5445183" lon="10.8181783"><ele>96.0</ele><time>2026-04-18T08:14:30.742Z</time></trkpt><trkpt lat="43.5444833" lon="10.8179217"><ele>92.75</ele><time>2026-04-18T08:14:31.748Z</time></trkpt><trkpt lat="43.5444533" lon="10.8176933"><ele>89.5</ele><time>2026-04-18T08:14:32.748Z</time></trkpt><trkpt lat="43.5444317" lon="10.81749"><ele>86.25</ele><time>2026-04-18T08:14:33.744Z</time></trkpt><trkpt lat="43.5444083" lon="10.8173217"><ele>83.0</ele><time>2026-04-18T08:14:34.743Z</time></trkpt><trkpt lat="43.5443817" lon="10.8171767"><ele>83.0</ele><time>2026-04-18T08:14:35.74Z</time></trkpt><trkpt lat="43.5443617" lon="10.817035"><ele>83.0</ele><time>2026-04-18T08:14:36.742Z</time></trkpt><trkpt lat="43.54432" lon="10.8169233"><ele>83.0</ele><time>2026-04-18T08:14:37.741Z</time></trkpt><trkpt lat="43.5442533" lon="10.8168417"><ele>83.0</ele><time>2026-04-18T08:14:38.747Z</time></trkpt><trkpt lat="43.5441767" lon="10.816785"><ele>83.0</ele><time>2026-04-18T08:14:39.744Z</time></trkpt><trkpt lat="43.5440833" lon="10.8167567"><ele>83.0</ele><time>2026-04-18T08:14:40.743Z</time></trkpt><trkpt lat="43.5439783" lon="10.8167617"><ele>83.0</ele><time>2026-04-18T08:14:41.748Z</time></trkpt><trkpt lat="43.5438683" lon="10.816795"><ele>83.0</ele><time>2026-04-18T08:14:42.744Z</time></trkpt><trkpt lat="43.5437283" lon="10.8168567"><ele>83.0</ele><time>2026-04-18T08:14:43.74Z</time></trkpt><trkpt lat="43.5435517" lon="10.8169383"><ele>82.0</ele><time>2026-04-18T08:14:44.742Z</time></trkpt><trkpt lat="43.5433717" lon="10.81702"><ele>81.0</ele><time>2026-04-18T08:14:45.743Z</time></trkpt><trkpt lat="43.543205" lon="10.8170917"><ele>80.0</ele><time>2026-04-18T08:14:46.746Z</time></trkpt><trkpt lat="43.5430667" lon="10.81715"><ele>80.0</ele><time>2026-04-18T08:14:47.749Z</time></trkpt><trkpt lat="43.5429533" lon="10.8172133"><ele>80.0</ele><time>2026-04-18T08:14:48.743Z</time></trkpt><trkpt lat="43.5428583" lon="10.8172967"><ele>80.0</ele><time>2026-04-18T08:14:49.74Z</time></trkpt><trkpt lat="43.5427767" lon="10.817395"><ele>80.0</ele><time>2026-04-18T08:14:50.743Z</time></trkpt><trkpt lat="43.542715" lon="10.8175267"><ele>83.0</ele><time>2026-04-18T08:14:51.743Z</time></trkpt><trkpt lat="43.542675" lon="10.8176883"><ele>86.0</ele><time>2026-04-18T08:14:52.751Z</time></trkpt><trkpt lat="43.5426483" lon="10.817875"><ele>89.0</ele><time>2026-04-18T08:14:53.75Z</time></trkpt><trkpt lat="43.5426333" lon="10.8180967"><ele>92.0</ele><time>2026-04-18T08:14:54.74Z</time></trkpt><trkpt lat="43.5426233" lon="10.8183483"><ele>93.66666666666667</ele><time>2026-04-18T08:14:55.749Z</time></trkpt><trkpt lat="43.5426083" lon="10.81863"><ele>95.33333333333334</ele><time>2026-04-18T08:14:56.745Z</time></trkpt><trkpt lat="43.54259" lon="10.8189383"><ele>97.0</ele><time>2026-04-18T08:14:57.749Z</time></trkpt><trkpt lat="43.5425667" lon="10.81925"><ele>98.33333333333334</ele><time>2026-04-18T08:14:58.747Z</time></trkpt><trkpt lat="43.5425383" lon="10.8195367"><ele>99.66666666666666</ele><time>2026-04-18T08:14:59.747Z</time></trkpt><trkpt lat="43.5425033" lon="10.8198033"><ele>101.0</ele><time>2026-04-18T08:15:00.747Z</time></trkpt><trkpt lat="43.5424583" lon="10.8200667"><ele>102.0</ele><time>2026-04-18T08:15:01.748Z</time></trkpt><trkpt lat="43.54241" lon="10.82032"><ele>103.0</ele><time>2026-04-18T08:15:02.743Z</time></trkpt><trkpt lat="43.5423533" lon="10.8205533"><ele>104.0</ele><time>2026-04-18T08:15:03.741Z</time></trkpt><trkpt lat="43.5422967" lon="10.8207633"><ele>104.0</ele><time>2026-04-18T08:15:04.743Z</time></trkpt><trkpt lat="43.542235" lon="10.8209567"><ele>104.0</ele><time>2026-04-18T08:15:05.744Z</time></trkpt><trkpt lat="43.5421617" lon="10.8211367"><ele>104.0</ele><time>2026-04-18T08:15:06.744Z</time></trkpt><trkpt lat="43.5420717" lon="10.821315"><ele>109.33333333333333</ele><time>2026-04-18T08:15:07.742Z</time></trkpt><trkpt lat="43.5419783" lon="10.8214883"><ele>114.66666666666666</ele><time>2026-04-18T08:15:08.745Z</time></trkpt><trkpt lat="43.54189" lon="10.8216583"><ele>120.0</ele><time>2026-04-18T08:15:09.739Z</time></trkpt><trkpt lat="43.541825" lon="10.8218417"><ele>120.5</ele><time>2026-04-18T08:15:10.744Z</time></trkpt><trkpt lat="43.54179" lon="10.8220333"><ele>121.0</ele><time>2026-04-18T08:15:11.742Z</time></trkpt><trkpt lat="43.5417767" lon="10.822235"><ele>121.5</ele><time>2026-04-18T08:15:12.751Z</time></trkpt><trkpt lat="43.5417767" lon="10.8224367"><ele>122.0</ele><time>2026-04-18T08:15:13.745Z</time></trkpt><trkpt lat="43.5417717" lon="10.8226233"><ele>123.0</ele><time>2026-04-18T08:15:14.746Z</time></trkpt><trkpt lat="43.54175" lon="10.8228067"><ele>124.0</ele><time>2026-04-18T08:15:15.743Z</time></trkpt><trkpt lat="43.54171" lon="10.8230067"><ele>125.0</ele><time>2026-04-18T08:15:16.741Z</time></trkpt><trkpt lat="43.541655" lon="10.82323"><ele>125.0</ele><time>2026-04-18T08:15:17.748Z</time></trkpt><trkpt lat="43.5415817" lon="10.8234717"><ele>125.0</ele><time>2026-04-18T08:15:18.745Z</time></trkpt><trkpt lat="43.5415" lon="10.823735"><ele>125.0</ele><time>2026-04-18T08:15:19.746Z</time></trkpt><trkpt lat="43.5414117" lon="10.8240183"><ele>125.0</ele><time>2026-04-18T08:15:20.747Z</time></trkpt><trkpt lat="43.5413217" lon="10.8243033"><ele>125.0</ele><time>2026-04-18T08:15:21.747Z</time></trkpt><trkpt lat="43.5412317" lon="10.8245783"><ele>125.0</ele><time>2026-04-18T08:15:22.746Z</time></trkpt><trkpt lat="43.5411433" lon="10.824865"><ele>133.0</ele><time>2026-04-18T08:15:23.746Z</time></trkpt><trkpt lat="43.541055" lon="10.8251683"><ele>141.0</ele><time>2026-04-18T08:15:24.745Z</time></trkpt><trkpt lat="43.5409667" lon="10.82549"><ele>141.0</ele><time>2026-04-18T08:15:25.743Z</time></trkpt><trkpt lat="43.5408783" lon="10.82581"><ele>141.0</ele><time>2026-04-18T08:15:26.747Z</time></trkpt><trkpt lat="43.5408017" lon="10.8261017"><ele>141.0</ele><time>2026-04-18T08:15:27.747Z</time></trkpt><trkpt lat="43.5407317" lon="10.8263683"><ele>141.0</ele><time>2026-04-18T08:15:28.744Z</time></trkpt><trkpt lat="43.5406683" lon="10.826615"><ele>141.0</ele><time>2026-04-18T08:15:29.743Z</time></trkpt><trkpt lat="43.540605" lon="10.8268483"><ele>141.0</ele><time>2026-04-18T08:15:30.746Z</time></trkpt><trkpt lat="43.54054" lon="10.8270733"><ele>141.0</ele><time>2026-04-18T08:15:31.743Z</time></trkpt><trkpt lat="43.54046" lon="10.8273"><ele>141.0</ele><time>2026-04-18T08:15:32.746Z</time></trkpt><trkpt lat="43.54037" lon="10.8275183"><ele>143.5</ele><time>2026-04-18T08:15:33.745Z</time></trkpt><trkpt lat="43.5402783" lon="10.8277067"><ele>146.0</ele><time>2026-04-18T08:15:34.743Z</time></trkpt><trkpt lat="43.5401933" lon="10.8278583"><ele>148.5</ele><time>2026-04-18T08:15:35.743Z</time></trkpt><trkpt lat="43.5401267" lon="10.8279767"><ele>151.0</ele><time>2026-04-18T08:15:36.742Z</time></trkpt><trkpt lat="43.540075" lon="10.828065"><ele>151.0</ele><time>2026-04-18T08:15:37.744Z</time></trkpt><trkpt lat="43.5400183" lon="10.82818"><ele>151.0</ele><time>2026-04-18T08:15:39.747Z</time></trkpt><trkpt lat="43.5399967" lon="10.8282867"><ele>151.0</ele><time>2026-04-18T08:16:21.743Z</time></trkpt><trkpt lat="43.5400267" lon="10.8284333"><ele>151.0</ele><time>2026-04-18T08:16:23.747Z</time></trkpt><trkpt lat="43.5400383" lon="10.8285233"><ele>151.0</ele><time>2026-04-18T08:16:24.742Z</time></trkpt><trkpt lat="43.5400467" lon="10.828625"><ele>151.0</ele><time>2026-04-18T08:16:25.748Z</time></trkpt><trkpt lat="43.54006" lon="10.82873"><ele>151.16666666666669</ele><time>2026-04-18T08:16:26.749Z</time></trkpt><trkpt lat="43.5400783" lon="10.828845"><ele>151.33333333333334</ele><time>2026-04-18T08:16:27.746Z</time></trkpt><trkpt lat="43.540095" lon="10.8289633"><ele>151.5</ele><time>2026-04-18T08:16:28.744Z</time></trkpt><trkpt lat="43.5401083" lon="10.8290767"><ele>151.66666666666666</ele><time>2026-04-18T08:16:29.743Z</time></trkpt><trkpt lat="43.5401233" lon="10.8291883"><ele>151.83333333333331</ele><time>2026-04-18T08:16:30.742Z</time></trkpt><trkpt lat="43.5401367" lon="10.8293067"><ele>152.0</ele><time>2026-04-18T08:16:31.741Z</time></trkpt><trkpt lat="43.5401533" lon="10.829435"><ele>152.25</ele><time>2026-04-18T08:16:32.742Z</time></trkpt><trkpt lat="43.5401717" lon="10.829575"><ele>152.5</ele><time>2026-04-18T08:16:33.743Z</time></trkpt><trkpt lat="43.54019" lon="10.829725"><ele>152.75</ele><time>2026-04-18T08:16:34.744Z</time></trkpt><trkpt lat="43.5402033" lon="10.82988"><ele>153.0</ele><time>2026-04-18T08:16:35.744Z</time></trkpt><trkpt lat="43.54022" lon="10.8300483"><ele>154.0</ele><time>2026-04-18T08:16:36.746Z</time></trkpt><trkpt lat="43.5402317" lon="10.8302267"><ele>155.0</ele><time>2026-04-18T08:16:37.744Z</time></trkpt><trkpt lat="43.5402367" lon="10.8304183"><ele>156.0</ele><time>2026-04-18T08:16:38.745Z</time></trkpt><trkpt lat="43.5402333" lon="10.830625"><ele>157.0</ele><time>2026-04-18T08:16:39.743Z</time></trkpt><trkpt lat="43.5402267" lon="10.8308383"><ele>158.66666666666669</ele><time>2026-04-18T08:16:40.741Z</time></trkpt><trkpt lat="43.540215" lon="10.8310517"><ele>160.33333333333334</ele><time>2026-04-18T08:16:41.742Z</time></trkpt><trkpt lat="43.5402067" lon="10.8312617"><ele>162.0</ele><time>2026-04-18T08:16:42.741Z</time></trkpt><trkpt lat="43.5402" lon="10.831465"><ele>162.0</ele><time>2026-04-18T08:16:43.745Z</time></trkpt><trkpt lat="43.54019" lon="10.8316667"><ele>162.0</ele><time>2026-04-18T08:16:44.742Z</time></trkpt><trkpt lat="43.5401867" lon="10.8318683"><ele>162.0</ele><time>2026-04-18T08:16:45.742Z</time></trkpt><trkpt lat="43.54019" lon="10.8320533"><ele>162.0</ele><time>2026-04-18T08:16:46.749Z</time></trkpt><trkpt lat="43.5402083" lon="10.8322267"><ele>162.25</ele><time>2026-04-18T08:16:47.743Z</time></trkpt><trkpt lat="43.5402367" lon="10.8324017"><ele>162.5</ele><time>2026-04-18T08:16:48.747Z</time></trkpt><trkpt lat="43.54027" lon="10.832575"><ele>162.75</ele><time>2026-04-18T08:16:49.747Z</time></trkpt><trkpt lat="43.5403" lon="10.8327383"><ele>163.0</ele><time>2026-04-18T08:16:50.749Z</time></trkpt><trkpt lat="43.5403283" lon="10.8329033"><ele>163.0</ele><time>2026-04-18T08:16:51.745Z</time></trkpt><trkpt lat="43.540345" lon="10.8330817"><ele>163.0</ele><time>2026-04-18T08:16:52.747Z</time></trkpt><trkpt lat="43.54035" lon="10.83329"><ele>163.0</ele><time>2026-04-18T08:16:53.747Z</time></trkpt><trkpt lat="43.54035" lon="10.83352"><ele>163.0</ele><time>2026-04-18T08:16:54.748Z</time></trkpt><trkpt lat="43.540345" lon="10.833755"><ele>162.33333333333334</ele><time>2026-04-18T08:16:55.749Z</time></trkpt><trkpt lat="43.5403383" lon="10.8339783"><ele>161.66666666666666</ele><time>2026-04-18T08:16:56.75Z</time></trkpt><trkpt lat="43.54033" lon="10.8341933"><ele>161.0</ele><time>2026-04-18T08:16:57.748Z</time></trkpt><trkpt lat="43.5403233" lon="10.8344167"><ele>161.0</ele><time>2026-04-18T08:16:58.746Z</time></trkpt><trkpt lat="43.5403133" lon="10.8346467"><ele>161.0</ele><time>2026-04-18T08:16:59.745Z</time></trkpt><trkpt lat="43.5403017" lon="10.8348717"><ele>161.0</ele><time>2026-04-18T08:17:00.742Z</time></trkpt><trkpt lat="43.5402917" lon="10.8350867"><ele>160.75</ele><time>2026-04-18T08:17:01.747Z</time></trkpt><trkpt lat="43.5402817" lon="10.8352917"><ele>160.5</ele><time>2026-04-18T08:17:02.749Z</time></trkpt><trkpt lat="43.5402717" lon="10.83549"><ele>160.25</ele><time>2026-04-18T08:17:03.745Z</time></trkpt><trkpt lat="43.5402617" lon="10.83568"><ele>160.0</ele><time>2026-04-18T08:17:04.744Z</time></trkpt><trkpt lat="43.5402483" lon="10.8358583"><ele>159.25</ele><time>2026-04-18T08:17:05.746Z</time></trkpt><trkpt lat="43.54024" lon="10.836025"><ele>158.5</ele><time>2026-04-18T08:17:06.749Z</time></trkpt><trkpt lat="43.5402333" lon="10.8361817"><ele>157.75</ele><time>2026-04-18T08:17:07.746Z</time></trkpt><trkpt lat="43.5402267" lon="10.8363333"><ele>157.0</ele><time>2026-04-18T08:17:08.746Z</time></trkpt><trkpt lat="43.5402183" lon="10.8364783"><ele>157.0</ele><time>2026-04-18T08:17:09.747Z</time></trkpt><trkpt lat="43.5402117" lon="10.836615"><ele>157.0</ele><time>2026-04-18T08:17:10.742Z</time></trkpt><trkpt lat="43.5402117" lon="10.8367567"><ele>157.0</ele><time>2026-04-18T08:17:11.744Z</time></trkpt><trkpt lat="43.5402133" lon="10.8369"><ele>157.0</ele><time>2026-04-18T08:17:12.746Z</time></trkpt><trkpt lat="43.54022" lon="10.83704"><ele>157.0</ele><time>2026-04-18T08:17:13.745Z</time></trkpt><trkpt lat="43.54023" lon="10.8371733"><ele>157.0</ele><time>2026-04-18T08:17:14.743Z</time></trkpt><trkpt lat="43.5402433" lon="10.8373"><ele>157.0</ele><time>2026-04-18T08:17:15.745Z</time></trkpt><trkpt lat="43.5402617" lon="10.8374333"><ele>157.0</ele><time>2026-04-18T08:17:16.743Z</time></trkpt><trkpt lat="43.5402867" lon="10.8375833"><ele>157.0</ele><time>2026-04-18T08:17:17.746Z</time></trkpt><trkpt lat="43.540315" lon="10.8377517"><ele>157.0</ele><time>2026-04-18T08:17:18.742Z</time></trkpt><trkpt lat="43.5403467" lon="10.83793"><ele>157.5</ele><time>2026-04-18T08:17:19.749Z</time></trkpt><trkpt lat="43.5403783" lon="10.8381183"><ele>158.0</ele><time>2026-04-18T08:17:20.749Z</time></trkpt><trkpt lat="43.540415" lon="10.8383167"><ele>158.5</ele><time>2026-04-18T08:17:21.746Z</time></trkpt><trkpt lat="43.5404483" lon="10.8385217"><ele>159.0</ele><time>2026-04-18T08:17:22.746Z</time></trkpt><trkpt lat="43.54048" lon="10.8387317"><ele>161.25</ele><time>2026-04-18T08:17:23.746Z</time></trkpt><trkpt lat="43.5405167" lon="10.8389333"><ele>163.5</ele><time>2026-04-18T08:17:24.749Z</time></trkpt><trkpt lat="43.54055" lon="10.8391117"><ele>165.75</ele><time>2026-04-18T08:17:25.75Z</time></trkpt><trkpt lat="43.5405817" lon="10.8392683"><ele>168.0</ele><time>2026-04-18T08:17:26.744Z</time></trkpt><trkpt lat="43.5406083" lon="10.839405"><ele>169.16666666666666</ele><time>2026-04-18T08:17:27.743Z</time></trkpt><trkpt lat="43.5406333" lon="10.8395133"><ele>170.33333333333334</ele><time>2026-04-18T08:17:28.741Z</time></trkpt><trkpt lat="43.540655" lon="10.8396483"><ele>171.5</ele><time>2026-04-18T08:17:30.742Z</time></trkpt><trkpt lat="43.54055" lon="10.839655"><ele>172.66666666666669</ele><time>2026-04-18T08:17:33.745Z</time></trkpt><trkpt lat="43.540475" lon="10.8396117"><ele>173.83333333333334</ele><time>2026-04-18T08:17:34.748Z</time></trkpt><trkpt lat="43.5404" lon="10.8395833"><ele>175.0</ele><time>2026-04-18T08:17:35.748Z</time></trkpt><trkpt lat="43.5403267" lon="10.83957"><ele>175.2</ele><time>2026-04-18T08:17:36.744Z</time></trkpt><trkpt lat="43.5402633" lon="10.8395633"><ele>175.4</ele><time>2026-04-18T08:17:37.745Z</time></trkpt><trkpt lat="43.54014" lon="10.8395233"><ele>175.60000000000002</ele><time>2026-04-18T08:17:39.752Z</time></trkpt><trkpt lat="43.54007" lon="10.8394783"><ele>175.8</ele><time>2026-04-18T08:17:40.742Z</time></trkpt><trkpt lat="43.5399933" lon="10.8394117"><ele>176.0</ele><time>2026-04-18T08:17:41.741Z</time></trkpt><trkpt lat="43.5399033" lon="10.83934"><ele>174.8</ele><time>2026-04-18T08:17:42.745Z</time></trkpt><trkpt lat="43.5398117" lon="10.839265"><ele>173.60000000000002</ele><time>2026-04-18T08:17:43.744Z</time></trkpt><trkpt lat="43.5397283" lon="10.8391883"><ele>172.4</ele><time>2026-04-18T08:17:44.743Z</time></trkpt><trkpt lat="43.5396517" lon="10.839115"><ele>171.2</ele><time>2026-04-18T08:17:45.746Z</time></trkpt><trkpt lat="43.5395767" lon="10.8390467"><ele>170.0</ele><time>2026-04-18T08:17:46.743Z</time></trkpt><trkpt lat="43.5395017" lon="10.838985"><ele>169.83333333333331</ele><time>2026-04-18T08:17:47.743Z</time></trkpt><trkpt lat="43.53943" lon="10.8389217"><ele>169.66666666666666</ele><time>2026-04-18T08:17:48.744Z</time></trkpt><trkpt lat="43.5393533" lon="10.838865"><ele>169.5</ele><time>2026-04-18T08:17:49.744Z</time></trkpt><trkpt lat="43.53928" lon="10.8387933"><ele>169.33333333333334</ele><time>2026-04-18T08:17:50.747Z</time></trkpt><trkpt lat="43.539205" lon="10.8387383"><ele>169.16666666666669</ele><time>2026-04-18T08:17:51.745Z</time></trkpt><trkpt lat="43.5391383" lon="10.8386717"><ele>169.0</ele><time>2026-04-18T08:17:52.749Z</time></trkpt><trkpt lat="43.5390667" lon="10.8386"><ele>169.0</ele><time>2026-04-18T08:17:53.745Z</time></trkpt><trkpt lat="43.538995" lon="10.838515"><ele>169.0</ele><time>2026-04-18T08:17:54.742Z</time></trkpt><trkpt lat="43.5389167" lon="10.838445"><ele>169.0</ele><time>2026-04-18T08:17:55.745Z</time></trkpt><trkpt lat="43.5388367" lon="10.8383767"><ele>169.0</ele><time>2026-04-18T08:17:56.748Z</time></trkpt><trkpt lat="43.5387567" lon="10.8383133"><ele>169.0</ele><time>2026-04-18T08:17:57.741Z</time></trkpt><trkpt lat="43.5386817" lon="10.8382567"><ele>168.33333333333334</ele><time>2026-04-18T08:17:58.744Z</time></trkpt><trkpt lat="43.538605" lon="10.838195"><ele>167.66666666666669</ele><time>2026-04-18T08:17:59.745Z</time></trkpt><trkpt lat="43.5385267" lon="10.8381433"><ele>167.0</ele><time>2026-04-18T08:18:00.741Z</time></trkpt><trkpt lat="43.53845" lon="10.8381"><ele>166.33333333333334</ele><time>2026-04-18T08:18:01.742Z</time></trkpt><trkpt lat="43.5383833" lon="10.8380483"><ele>165.66666666666666</ele><time>2026-04-18T08:18:02.748Z</time></trkpt><trkpt lat="43.5383183" lon="10.838005"><ele>165.0</ele><time>2026-04-18T08:18:03.741Z</time></trkpt><trkpt lat="43.5382583" lon="10.8379733"><ele>165.0</ele><time>2026-04-18T08:18:04.74Z</time></trkpt><trkpt lat="43.5381617" lon="10.8378683"><ele>165.0</ele><time>2026-04-18T08:18:06.743Z</time></trkpt><trkpt lat="43.538095" lon="10.8378333"><ele>165.0</ele><time>2026-04-18T08:18:07.744Z</time></trkpt><trkpt lat="43.53802" lon="10.8377733"><ele>165.0</ele><time>2026-04-18T08:18:08.743Z</time></trkpt><trkpt lat="43.5379467" lon="10.837705"><ele>165.0</ele><time>2026-04-18T08:18:09.745Z</time></trkpt><trkpt lat="43.537875" lon="10.8376367"><ele>163.83333333333334</ele><time>2026-04-18T08:18:10.742Z</time></trkpt><trkpt lat="43.5378083" lon="10.8375683"><ele>162.66666666666666</ele><time>2026-04-18T08:18:11.743Z</time></trkpt><trkpt lat="43.5377467" lon="10.837515"><ele>161.5</ele><time>2026-04-18T08:18:12.746Z</time></trkpt><trkpt lat="43.5376867" lon="10.8374533"><ele>160.33333333333331</ele><time>2026-04-18T08:18:13.745Z</time></trkpt><trkpt lat="43.5376233" lon="10.8373983"><ele>159.16666666666666</ele><time>2026-04-18T08:18:14.755Z</time></trkpt><trkpt lat="43.5375433" lon="10.8373517"><ele>158.0</ele><time>2026-04-18T08:18:15.741Z</time></trkpt><trkpt lat="43.537445" lon="10.837305"><ele>158.0</ele><time>2026-04-18T08:18:16.743Z</time></trkpt><trkpt lat="43.5373417" lon="10.8372683"><ele>158.0</ele><time>2026-04-18T08:18:17.745Z</time></trkpt><trkpt lat="43.53724" lon="10.8372383"><ele>158.0</ele><time>2026-04-18T08:18:18.744Z</time></trkpt><trkpt lat="43.5371417" lon="10.83721"><ele>158.0</ele><time>2026-04-18T08:18:19.744Z</time></trkpt><trkpt lat="43.5370467" lon="10.837165"><ele>158.0</ele><time>2026-04-18T08:18:20.743Z</time></trkpt><trkpt lat="43.5369533" lon="10.8371133"><ele>157.75</ele><time>2026-04-18T08:18:21.741Z</time></trkpt><trkpt lat="43.536865" lon="10.8370233"><ele>157.5</ele><time>2026-04-18T08:18:22.744Z</time></trkpt><trkpt lat="43.5367583" lon="10.8369333"><ele>157.25</ele><time>2026-04-18T08:18:23.748Z</time></trkpt><trkpt lat="43.5366533" lon="10.8368517"><ele>157.0</ele><time>2026-04-18T08:18:24.744Z</time></trkpt><trkpt lat="43.5365517" lon="10.8367967"><ele>157.0</ele><time>2026-04-18T08:18:25.742Z</time></trkpt><trkpt lat="43.536465" lon="10.836705"><ele>157.0</ele><time>2026-04-18T08:18:26.743Z</time></trkpt><trkpt lat="43.536365" lon="10.836625"><ele>157.0</ele><time>2026-04-18T08:18:27.744Z</time></trkpt><trkpt lat="43.53628" lon="10.8365133"><ele>157.0</ele><time>2026-04-18T08:18:28.745Z</time></trkpt><trkpt lat="43.5361933" lon="10.83641"><ele>159.6</ele><time>2026-04-18T08:18:29.743Z</time></trkpt><trkpt lat="43.536115" lon="10.8363233"><ele>162.2</ele><time>2026-04-18T08:18:30.743Z</time></trkpt><trkpt lat="43.5360283" lon="10.8362733"><ele>164.8</ele><time>2026-04-18T08:18:31.745Z</time></trkpt><trkpt lat="43.5359433" lon="10.83624"><ele>167.4</ele><time>2026-04-18T08:18:32.743Z</time></trkpt><trkpt lat="43.5358617" lon="10.836185"><ele>170.0</ele><time>2026-04-18T08:18:33.742Z</time></trkpt><trkpt lat="43.535785" lon="10.836105"><ele>170.0</ele><time>2026-04-18T08:18:34.743Z</time></trkpt><trkpt lat="43.53571" lon="10.8359717"><ele>170.0</ele><time>2026-04-18T08:18:35.746Z</time></trkpt><trkpt lat="43.5356183" lon="10.835825"><ele>170.0</ele><time>2026-04-18T08:18:36.744Z</time></trkpt><trkpt lat="43.535525" lon="10.8356533"><ele>170.0</ele><time>2026-04-18T08:18:37.741Z</time></trkpt><trkpt lat="43.5354267" lon="10.8355133"><ele>171.8</ele><time>2026-04-18T08:18:38.744Z</time></trkpt><trkpt lat="43.5353233" lon="10.8354183"><ele>173.6</ele><time>2026-04-18T08:18:39.744Z</time></trkpt><trkpt lat="43.53523" lon="10.8353267"><ele>175.39999999999998</ele><time>2026-04-18T08:18:40.747Z</time></trkpt><trkpt lat="43.5351383" lon="10.8352717"><ele>177.2</ele><time>2026-04-18T08:18:41.741Z</time></trkpt><trkpt lat="43.5350567" lon="10.8352367"><ele>179.0</ele><time>2026-04-18T08:18:42.74Z</time></trkpt><trkpt lat="43.5349883" lon="10.83517"><ele>177.2</ele><time>2026-04-18T08:18:43.746Z</time></trkpt><trkpt lat="43.53492" lon="10.8350983"><ele>175.39999999999998</ele><time>2026-04-18T08:18:44.746Z</time></trkpt><trkpt lat="43.5348667" lon="10.8350133"><ele>173.6</ele><time>2026-04-18T08:18:45.747Z</time></trkpt><trkpt lat="43.53483" lon="10.8348917"><ele>171.8</ele><time>2026-04-18T08:18:46.743Z</time></trkpt><trkpt lat="43.534775" lon="10.8347533"><ele>170.0</ele><time>2026-04-18T08:18:47.741Z</time></trkpt><trkpt lat="43.5347133" lon="10.834625"><ele>170.0</ele><time>2026-04-18T08:18:48.743Z</time></trkpt><trkpt lat="43.5346517" lon="10.8345083"><ele>170.0</ele><time>2026-04-18T08:18:49.748Z</time></trkpt><trkpt lat="43.5345667" lon="10.8343917"><ele>170.0</ele><time>2026-04-18T08:18:50.746Z</time></trkpt><trkpt lat="43.53447" lon="10.8342733"><ele>170.0</ele><time>2026-04-18T08:18:51.746Z</time></trkpt><trkpt lat="43.5343867" lon="10.8341567"><ele>170.4</ele><time>2026-04-18T08:18:52.741Z</time></trkpt><trkpt lat="43.534295" lon="10.8340683"><ele>170.8</ele><time>2026-04-18T08:18:53.744Z</time></trkpt><trkpt lat="43.534205" lon="10.83399"><ele>171.2</ele><time>2026-04-18T08:18:54.745Z</time></trkpt><trkpt lat="43.5341333" lon="10.8339133"><ele>171.6</ele><time>2026-04-18T08:18:55.744Z</time></trkpt><trkpt lat="43.534055" lon="10.8338467"><ele>172.0</ele><time>2026-04-18T08:18:56.749Z</time></trkpt><trkpt lat="43.5339617" lon="10.8337833"><ele>172.0</ele><time>2026-04-18T08:18:57.742Z</time></trkpt><trkpt lat="43.533875" lon="10.8336933"><ele>172.0</ele><time>2026-04-18T08:18:58.746Z</time></trkpt><trkpt lat="43.533805" lon="10.833565"><ele>172.0</ele><time>2026-04-18T08:18:59.747Z</time></trkpt><trkpt lat="43.5337133" lon="10.8334283"><ele>172.0</ele><time>2026-04-18T08:19:00.744Z</time></trkpt><trkpt lat="43.5336317" lon="10.833285"><ele>171.25</ele><time>2026-04-18T08:19:01.745Z</time></trkpt><trkpt lat="43.5335483" lon="10.8331567"><ele>170.5</ele><time>2026-04-18T08:19:02.745Z</time></trkpt><trkpt lat="43.533475" lon="10.8330217"><ele>169.75</ele><time>2026-04-18T08:19:03.744Z</time></trkpt><trkpt lat="43.5334117" lon="10.83289"><ele>169.0</ele><time>2026-04-18T08:19:04.743Z</time></trkpt><trkpt lat="43.5333617" lon="10.8327517"><ele>169.25</ele><time>2026-04-18T08:19:05.746Z</time></trkpt><trkpt lat="43.53331" lon="10.8326083"><ele>169.5</ele><time>2026-04-18T08:19:06.744Z</time></trkpt><trkpt lat="43.5332483" lon="10.83248"><ele>169.75</ele><time>2026-04-18T08:19:07.742Z</time></trkpt><trkpt lat="43.5331783" lon="10.8323517"><ele>170.0</ele><time>2026-04-18T08:19:08.743Z</time></trkpt><trkpt lat="43.5330883" lon="10.83222"><ele>170.0</ele><time>2026-04-18T08:19:09.742Z</time></trkpt><trkpt lat="43.5329933" lon="10.832095"><ele>170.0</ele><time>2026-04-18T08:19:10.741Z</time></trkpt><trkpt lat="43.5329067" lon="10.83196"><ele>170.0</ele><time>2026-04-18T08:19:11.741Z</time></trkpt><trkpt lat="43.5328317" lon="10.83181"><ele>170.0</ele><time>2026-04-18T08:19:12.747Z</time></trkpt><trkpt lat="43.5327617" lon="10.8316617"><ele>170.0</ele><time>2026-04-18T08:19:13.742Z</time></trkpt><trkpt lat="43.53271" lon="10.83152"><ele>170.0</ele><time>2026-04-18T08:19:14.741Z</time></trkpt><trkpt lat="43.53265" lon="10.8314017"><ele>170.0</ele><time>2026-04-18T08:19:15.743Z</time></trkpt><trkpt lat="43.532585" lon="10.831285"><ele>170.0</ele><time>2026-04-18T08:19:16.742Z</time></trkpt><trkpt lat="43.5324967" lon="10.8311833"><ele>170.0</ele><time>2026-04-18T08:19:17.741Z</time></trkpt><trkpt lat="43.53241" lon="10.8310517"><ele>172.33333333333331</ele><time>2026-04-18T08:19:18.74Z</time></trkpt><trkpt lat="43.5322783" lon="10.8309617"><ele>174.66666666666666</ele><time>2026-04-18T08:19:19.74Z</time></trkpt><trkpt lat="43.53213" lon="10.83088"><ele>177.0</ele><time>2026-04-18T08:19:20.743Z</time></trkpt><trkpt lat="43.5319667" lon="10.830815"><ele>178.0</ele><time>2026-04-18T08:19:21.739Z</time></trkpt><trkpt lat="43.5318083" lon="10.830745"><ele>179.0</ele><time>2026-04-18T08:19:22.742Z</time></trkpt><trkpt lat="43.53169" lon="10.8306383"><ele>180.0</ele><time>2026-04-18T08:19:23.741Z</time></trkpt><trkpt lat="43.5315583" lon="10.8305983"><ele>181.0</ele><time>2026-04-18T08:19:24.756Z</time></trkpt><trkpt lat="43.5314517" lon="10.8305333"><ele>181.0</ele><time>2026-04-18T08:19:25.741Z</time></trkpt><trkpt lat="43.53135" lon="10.83049"><ele>181.0</ele><time>2026-04-18T08:19:26.747Z</time></trkpt><trkpt lat="43.531265" lon="10.83044"><ele>181.0</ele><time>2026-04-18T08:19:27.742Z</time></trkpt><trkpt lat="43.53119" lon="10.83039"><ele>181.0</ele><time>2026-04-18T08:19:28.741Z</time></trkpt><trkpt lat="43.5311183" lon="10.8303333"><ele>181.0</ele><time>2026-04-18T08:19:29.74Z</time></trkpt><trkpt lat="43.5310617" lon="10.8302483"><ele>181.0</ele><time>2026-04-18T08:19:30.743Z</time></trkpt><trkpt lat="43.5310117" lon="10.8301717"><ele>180.4</ele><time>2026-04-18T08:19:31.744Z</time></trkpt><trkpt lat="43.530985" lon="10.8300517"><ele>179.8</ele><time>2026-04-18T08:19:32.743Z</time></trkpt><trkpt lat="43.5309783" lon="10.8298917"><ele>179.20000000000002</ele><time>2026-04-18T08:19:33.753Z</time></trkpt><trkpt lat="43.530965" lon="10.8297467"><ele>178.60000000000002</ele><time>2026-04-18T08:19:34.745Z</time></trkpt><trkpt lat="43.5309567" lon="10.8296067"><ele>178.0</ele><time>2026-04-18T08:19:35.742Z</time></trkpt><trkpt lat="43.5309333" lon="10.8294783"><ele>178.0</ele><time>2026-04-18T08:19:36.742Z</time></trkpt><trkpt lat="43.530935" lon="10.8293367"><ele>178.0</ele><time>2026-04-18T08:19:37.74Z</time></trkpt><trkpt lat="43.5309117" lon="10.8292233"><ele>178.0</ele><time>2026-04-18T08:19:38.744Z</time></trkpt><trkpt lat="43.53089" lon="10.8291"><ele>178.0</ele><time>2026-04-18T08:19:39.742Z</time></trkpt><trkpt lat="43.5308517" lon="10.8289483"><ele>178.0</ele><time>2026-04-18T08:19:40.741Z</time></trkpt><trkpt lat="43.53079" lon="10.82881"><ele>177.60000000000002</ele><time>2026-04-18T08:19:41.741Z</time></trkpt><trkpt lat="43.5307233" lon="10.8286883"><ele>177.20000000000002</ele><time>2026-04-18T08:19:42.741Z</time></trkpt><trkpt lat="43.5306483" lon="10.8285833"><ele>176.8</ele><time>2026-04-18T08:19:43.747Z</time></trkpt><trkpt lat="43.5305767" lon="10.8284817"><ele>176.4</ele><time>2026-04-18T08:19:44.74Z</time></trkpt><trkpt lat="43.5305067" lon="10.82839"><ele>176.0</ele><time>2026-04-18T08:19:45.741Z</time></trkpt><trkpt lat="43.5304433" lon="10.82829"><ele>174.66666666666666</ele><time>2026-04-18T08:19:46.746Z</time></trkpt><trkpt lat="43.5303733" lon="10.8282017"><ele>173.33333333333331</ele><time>2026-04-18T08:19:47.74Z</time></trkpt><trkpt lat="43.530305" lon="10.8281233"><ele>172.0</ele><time>2026-04-18T08:19:48.746Z</time></trkpt><trkpt lat="43.5302417" lon="10.82805"><ele>170.66666666666666</ele><time>2026-04-18T08:19:49.749Z</time></trkpt><trkpt lat="43.5301817" lon="10.82798"><ele>169.33333333333334</ele><time>2026-04-18T08:19:50.742Z</time></trkpt><trkpt lat="43.5301217" lon="10.827915"><ele>168.0</ele><time>2026-04-18T08:19:51.741Z</time></trkpt><trkpt lat="43.5300867" lon="10.82784"><ele>168.0</ele><time>2026-04-18T08:19:52.738Z</time></trkpt><trkpt lat="43.530035" lon="10.8277533"><ele>168.0</ele><time>2026-04-18T08:19:54.74Z</time></trkpt><trkpt lat="43.5299733" lon="10.827665"><ele>168.0</ele><time>2026-04-18T08:19:57.74Z</time></trkpt><trkpt lat="43.529925" lon="10.8275867"><ele>168.0</ele><time>2026-04-18T08:19:59.742Z</time></trkpt><trkpt lat="43.52987" lon="10.827485"><ele>168.0</ele><time>2026-04-18T08:20:01.742Z</time></trkpt><trkpt lat="43.5298133" lon="10.82737"><ele>168.0</ele><time>2026-04-18T08:20:03.742Z</time></trkpt><trkpt lat="43.5297533" lon="10.8272367"><ele>168.0</ele><time>2026-04-18T08:20:05.741Z</time></trkpt><trkpt lat="43.529675" lon="10.8271017"><ele>168.0</ele><time>2026-04-18T08:20:07.742Z</time></trkpt><trkpt lat="43.5296383" lon="10.8270267"><ele>168.0</ele><time>2026-04-18T08:20:08.743Z</time></trkpt><trkpt lat="43.5295633" lon="10.82691"><ele>168.0</ele><time>2026-04-18T08:20:10.741Z</time></trkpt><trkpt lat="43.5294917" lon="10.8267867"><ele>168.0</ele><time>2026-04-18T08:20:12.742Z</time></trkpt><trkpt lat="43.529445" lon="10.826725"><ele>165.83333333333334</ele><time>2026-04-18T08:20:13.745Z</time></trkpt><trkpt lat="43.5293983" lon="10.82666"><ele>163.66666666666666</ele><time>2026-04-18T08:20:14.744Z</time></trkpt><trkpt lat="43.52935" lon="10.8265817"><ele>161.5</ele><time>2026-04-18T08:20:15.74Z</time></trkpt><trkpt lat="43.5293067" lon="10.8264867"><ele>159.33333333333331</ele><time>2026-04-18T08:20:16.745Z</time></trkpt><trkpt lat="43.5292583" lon="10.8263867"><ele>157.16666666666666</ele><time>2026-04-18T08:20:17.743Z</time></trkpt><trkpt lat="43.5292033" lon="10.8262883"><ele>155.0</ele><time>2026-04-18T08:20:18.744Z</time></trkpt><trkpt lat="43.5291517" lon="10.826185"><ele>155.0</ele><time>2026-04-18T08:20:19.749Z</time></trkpt><trkpt lat="43.5290967" lon="10.82608"><ele>155.0</ele><time>2026-04-18T08:20:20.747Z</time></trkpt><trkpt lat="43.5290433" lon="10.82598"><ele>155.0</ele><time>2026-04-18T08:20:21.748Z</time></trkpt><trkpt lat="43.528985" lon="10.8258833"><ele>155.0</ele><time>2026-04-18T08:20:22.744Z</time></trkpt><trkpt lat="43.5289367" lon="10.8257783"><ele>155.0</ele><time>2026-04-18T08:20:23.744Z</time></trkpt><trkpt lat="43.528895" lon="10.8256583"><ele>153.0</ele><time>2026-04-18T08:20:24.755Z</time></trkpt><trkpt lat="43.5288517" lon="10.82554"><ele>151.0</ele><time>2026-04-18T08:20:25.753Z</time></trkpt><trkpt lat="43.52882" lon="10.8254217"><ele>149.0</ele><time>2026-04-18T08:20:26.748Z</time></trkpt><trkpt lat="43.5287867" lon="10.82531"><ele>147.0</ele><time>2026-04-18T08:20:27.744Z</time></trkpt><trkpt lat="43.52877" lon="10.8252"><ele>145.0</ele><time>2026-04-18T08:20:28.742Z</time></trkpt><trkpt lat="43.5287567" lon="10.825105"><ele>143.0</ele><time>2026-04-18T08:20:29.741Z</time></trkpt><trkpt lat="43.5287383" lon="10.8249783"><ele>141.8</ele><time>2026-04-18T08:20:31.747Z</time></trkpt><trkpt lat="43.5287217" lon="10.82489"><ele>140.60000000000002</ele><time>2026-04-18T08:20:33.744Z</time></trkpt><trkpt lat="43.5286883" lon="10.8247517"><ele>139.39999999999998</ele><time>2026-04-18T08:20:35.743Z</time></trkpt><trkpt lat="43.5286583" lon="10.8245983"><ele>138.2</ele><time>2026-04-18T08:20:37.746Z</time></trkpt><trkpt lat="43.52863" lon="10.82445"><ele>137.0</ele><time>2026-04-18T08:20:39.742Z</time></trkpt><trkpt lat="43.5285917" lon="10.8243617"><ele>136.79999999999998</ele><time>2026-04-18T08:20:42.744Z</time></trkpt><trkpt lat="43.52856" lon="10.8242733"><ele>136.6</ele><time>2026-04-18T08:20:44.744Z</time></trkpt><trkpt lat="43.528535" lon="10.8241667"><ele>136.39999999999998</ele><time>2026-04-18T08:20:46.744Z</time></trkpt><trkpt lat="43.5285" lon="10.8240367"><ele>136.2</ele><time>2026-04-18T08:20:48.742Z</time></trkpt><trkpt lat="43.5284617" lon="10.8239183"><ele>136.0</ele><time>2026-04-18T08:20:50.745Z</time></trkpt><trkpt lat="43.5284167" lon="10.82378"><ele>136.0</ele><time>2026-04-18T08:20:52.742Z</time></trkpt><trkpt lat="43.5283733" lon="10.8236317"><ele>136.0</ele><time>2026-04-18T08:20:54.741Z</time></trkpt><trkpt lat="43.5283533" lon="10.8235417"><ele>136.0</ele><time>2026-04-18T08:20:55.744Z</time></trkpt><trkpt lat="43.5282983" lon="10.823425"><ele>136.0</ele><time>2026-04-18T08:20:56.742Z</time></trkpt><trkpt lat="43.52822" lon="10.823275"><ele>136.0</ele><time>2026-04-18T08:20:57.746Z</time></trkpt><trkpt lat="43.528165" lon="10.8231367"><ele>134.6</ele><time>2026-04-18T08:20:58.746Z</time></trkpt><trkpt lat="43.5280867" lon="10.823"><ele>133.2</ele><time>2026-04-18T08:20:59.746Z</time></trkpt><trkpt lat="43.5280517" lon="10.8228717"><ele>131.8</ele><time>2026-04-18T08:21:00.742Z</time></trkpt><trkpt lat="43.5279767" lon="10.8227733"><ele>130.4</ele><time>2026-04-18T08:21:01.748Z</time></trkpt><trkpt lat="43.52793" lon="10.8226833"><ele>129.0</ele><time>2026-04-18T08:21:02.747Z</time></trkpt><trkpt lat="43.52791" lon="10.8226"><ele>127.2</ele><time>2026-04-18T08:21:03.746Z</time></trkpt><trkpt lat="43.527875" lon="10.8224667"><ele>125.4</ele><time>2026-04-18T08:21:05.743Z</time></trkpt><trkpt lat="43.527865" lon="10.8223417"><ele>123.6</ele><time>2026-04-18T08:21:07.742Z</time></trkpt><trkpt lat="43.5278717" lon="10.8221983"><ele>121.8</ele><time>2026-04-18T08:21:09.744Z</time></trkpt><trkpt lat="43.52793" lon="10.8220667"><ele>120.0</ele><time>2026-04-18T08:21:11.742Z</time></trkpt><trkpt lat="43.5279933" lon="10.8219067"><ele>118.4</ele><time>2026-04-18T08:21:13.752Z</time></trkpt><trkpt lat="43.5279967" lon="10.82177"><ele>116.8</ele><time>2026-04-18T08:21:14.749Z</time></trkpt><trkpt lat="43.5279917" lon="10.8216083"><ele>115.19999999999999</ele><time>2026-04-18T08:21:15.742Z</time></trkpt><trkpt lat="43.5279833" lon="10.8214467"><ele>113.6</ele><time>2026-04-18T08:21:16.747Z</time></trkpt><trkpt lat="43.5279833" lon="10.8212967"><ele>112.0</ele><time>2026-04-18T08:21:17.744Z</time></trkpt><trkpt lat="43.5279467" lon="10.8211283"><ele>111.6</ele><time>2026-04-18T08:21:18.743Z</time></trkpt><trkpt lat="43.52791" lon="10.82097"><ele>111.19999999999999</ele><time>2026-04-18T08:21:19.748Z</time></trkpt><trkpt lat="43.52787" lon="10.8208267"><ele>110.8</ele><time>2026-04-18T08:21:20.744Z</time></trkpt><trkpt lat="43.5278333" lon="10.8207017"><ele>110.4</ele><time>2026-04-18T08:21:21.744Z</time></trkpt><trkpt lat="43.527795" lon="10.82059"><ele>110.0</ele><time>2026-04-18T08:21:22.743Z</time></trkpt><trkpt lat="43.527745" lon="10.82049"><ele>110.0</ele><time>2026-04-18T08:21:23.744Z</time></trkpt><trkpt lat="43.52766" lon="10.820425"><ele>110.0</ele><time>2026-04-18T08:21:24.741Z</time></trkpt><trkpt lat="43.52755" lon="10.8203967"><ele>110.0</ele><time>2026-04-18T08:21:25.741Z</time></trkpt><trkpt lat="43.5274483" lon="10.8203833"><ele>110.0</ele><time>2026-04-18T08:21:26.746Z</time></trkpt><trkpt lat="43.52736" lon="10.8203733"><ele>110.0</ele><time>2026-04-18T08:21:27.744Z</time></trkpt><trkpt lat="43.5272683" lon="10.8203583"><ele>109.99999999999999</ele><time>2026-04-18T08:21:28.745Z</time></trkpt><trkpt lat="43.5271833" lon="10.82032"><ele>110.0</ele><time>2026-04-18T08:21:29.744Z</time></trkpt><trkpt lat="43.5271067" lon="10.8202617"><ele>110.0</ele><time>2026-04-18T08:21:30.743Z</time></trkpt><trkpt lat="43.527045" lon="10.8201833"><ele>110.0</ele><time>2026-04-18T08:21:31.742Z</time></trkpt><trkpt lat="43.5270033" lon="10.8200817"><ele>109.99999999999999</ele><time>2026-04-18T08:21:32.751Z</time></trkpt><trkpt lat="43.52698" lon="10.8199667"><ele>110.0</ele><time>2026-04-18T08:21:33.747Z</time></trkpt><trkpt lat="43.5269967" lon="10.8198133"><ele>106.6</ele><time>2026-04-18T08:21:34.744Z</time></trkpt><trkpt lat="43.5270317" lon="10.8196517"><ele>103.2</ele><time>2026-04-18T08:21:35.747Z</time></trkpt><trkpt lat="43.5270467" lon="10.8195033"><ele>99.80000000000001</ele><time>2026-04-18T08:21:36.749Z</time></trkpt><trkpt lat="43.5270583" lon="10.8193567"><ele>96.4</ele><time>2026-04-18T08:21:37.743Z</time></trkpt><trkpt lat="43.52704" lon="10.8192233"><ele>93.0</ele><time>2026-04-18T08:21:38.744Z</time></trkpt><trkpt lat="43.527025" lon="10.8190983"><ele>92.2</ele><time>2026-04-18T08:21:39.742Z</time></trkpt><trkpt lat="43.5269817" lon="10.81898"><ele>91.4</ele><time>2026-04-18T08:21:40.746Z</time></trkpt><trkpt lat="43.5269317" lon="10.8188583"><ele>90.60000000000001</ele><time>2026-04-18T08:21:41.743Z</time></trkpt><trkpt lat="43.5268717" lon="10.818765"><ele>89.80000000000001</ele><time>2026-04-18T08:21:42.745Z</time></trkpt><trkpt lat="43.5268267" lon="10.8186833"><ele>89.0</ele><time>2026-04-18T08:21:43.741Z</time></trkpt><trkpt lat="43.5267783" lon="10.8185667"><ele>89.0</ele><time>2026-04-18T08:21:45.747Z</time></trkpt><trkpt lat="43.5268167" lon="10.818465"><ele>89.0</ele><time>2026-04-18T08:21:48.746Z</time></trkpt><trkpt lat="43.52688" lon="10.81838"><ele>89.0</ele><time>2026-04-18T08:21:51.743Z</time></trkpt><trkpt lat="43.526945" lon="10.8182667"><ele>89.0</ele><time>2026-04-18T08:21:53.748Z</time></trkpt><trkpt lat="43.527" lon="10.8181817"><ele>89.0</ele><time>2026-04-18T08:21:54.745Z</time></trkpt><trkpt lat="43.52706" lon="10.8180783"><ele>88.0</ele><time>2026-04-18T08:21:55.746Z</time></trkpt><trkpt lat="43.5271167" lon="10.8179533"><ele>87.0</ele><time>2026-04-18T08:21:56.745Z</time></trkpt><trkpt lat="43.527175" lon="10.817815"><ele>86.0</ele><time>2026-04-18T08:21:57.746Z</time></trkpt><trkpt lat="43.527235" lon="10.8177083"><ele>85.0</ele><time>2026-04-18T08:21:58.745Z</time></trkpt><trkpt lat="43.5273" lon="10.8176133"><ele>84.0</ele><time>2026-04-18T08:21:59.744Z</time></trkpt><trkpt lat="43.5273667" lon="10.817505"><ele>84.0</ele><time>2026-04-18T08:22:00.741Z</time></trkpt><trkpt lat="43.5274533" lon="10.8174067"><ele>84.0</ele><time>2026-04-18T08:22:01.743Z</time></trkpt><trkpt lat="43.5275533" lon="10.8172883"><ele>84.0</ele><time>2026-04-18T08:22:02.74Z</time></trkpt><trkpt lat="43.5276267" lon="10.8171717"><ele>84.0</ele><time>2026-04-18T08:22:03.746Z</time></trkpt><trkpt lat="43.5276933" lon="10.81708"><ele>84.0</ele><time>2026-04-18T08:22:04.742Z</time></trkpt><trkpt lat="43.5277667" lon="10.8169817"><ele>84.0</ele><time>2026-04-18T08:22:05.745Z</time></trkpt><trkpt lat="43.5278117" lon="10.8168233"><ele>84.0</ele><time>2026-04-18T08:22:06.743Z</time></trkpt><trkpt lat="43.5278667" lon="10.816645"><ele>84.0</ele><time>2026-04-18T08:22:07.744Z</time></trkpt><trkpt lat="43.5279283" lon="10.8164767"><ele>85.2</ele><time>2026-04-18T08:22:08.742Z</time></trkpt><trkpt lat="43.5279967" lon="10.8163317"><ele>86.4</ele><time>2026-04-18T08:22:09.743Z</time></trkpt><trkpt lat="43.528045" lon="10.8161967"><ele>87.6</ele><time>2026-04-18T08:22:10.742Z</time></trkpt><trkpt lat="43.5281" lon="10.8160783"><ele>88.8</ele><time>2026-04-18T08:22:11.743Z</time></trkpt><trkpt lat="43.5281817" lon="10.816005"><ele>90.0</ele><time>2026-04-18T08:22:12.743Z</time></trkpt><trkpt lat="43.5282733" lon="10.8159833"><ele>90.0</ele><time>2026-04-18T08:22:13.746Z</time></trkpt><trkpt lat="43.52838" lon="10.8160067"><ele>90.0</ele><time>2026-04-18T08:22:14.747Z</time></trkpt><trkpt lat="43.5285017" lon="10.8160383"><ele>90.0</ele><time>2026-04-18T08:22:15.744Z</time></trkpt><trkpt lat="43.52864" lon="10.8160517"><ele>90.0</ele><time>2026-04-18T08:22:16.745Z</time></trkpt><trkpt lat="43.5287733" lon="10.8160833"><ele>92.25</ele><time>2026-04-18T08:22:17.746Z</time></trkpt><trkpt lat="43.5288983" lon="10.8160967"><ele>94.5</ele><time>2026-04-18T08:22:18.743Z</time></trkpt><trkpt lat="43.5290233" lon="10.8160433"><ele>96.75</ele><time>2026-04-18T08:22:19.743Z</time></trkpt><trkpt lat="43.529165" lon="10.8159633"><ele>99.0</ele><time>2026-04-18T08:22:20.748Z</time></trkpt><trkpt lat="43.529315" lon="10.8158933"><ele>105.33333333333334</ele><time>2026-04-18T08:22:21.745Z</time></trkpt><trkpt lat="43.5294783" lon="10.81583"><ele>111.66666666666667</ele><time>2026-04-18T08:22:22.746Z</time></trkpt><trkpt lat="43.5296533" lon="10.815775"><ele>118.0</ele><time>2026-04-18T08:22:23.745Z</time></trkpt><trkpt lat="43.529815" lon="10.8157317"><ele>119.5</ele><time>2026-04-18T08:22:24.744Z</time></trkpt><trkpt lat="43.5299667" lon="10.8157017"><ele>121.0</ele><time>2026-04-18T08:22:25.742Z</time></trkpt><trkpt lat="43.5301133" lon="10.8156733"><ele>122.5</ele><time>2026-04-18T08:22:26.742Z</time></trkpt><trkpt lat="43.5302533" lon="10.8156467"><ele>124.0</ele><time>2026-04-18T08:22:27.743Z</time></trkpt><trkpt lat="43.5303767" lon="10.8156233"><ele>124.75</ele><time>2026-04-18T08:22:28.746Z</time></trkpt><trkpt lat="43.53049" lon="10.8155983"><ele>125.5</ele><time>2026-04-18T08:22:29.742Z</time></trkpt><trkpt lat="43.5306" lon="10.815575"><ele>126.25</ele><time>2026-04-18T08:22:30.741Z</time></trkpt><trkpt lat="43.5307167" lon="10.81557"><ele>127.0</ele><time>2026-04-18T08:22:31.744Z</time></trkpt><trkpt lat="43.530845" lon="10.8155933"><ele>127.0</ele><time>2026-04-18T08:22:32.748Z</time></trkpt><trkpt lat="43.53099" lon="10.8156467"><ele>127.0</ele><time>2026-04-18T08:22:33.744Z</time></trkpt><trkpt lat="43.5311433" lon="10.8157117"><ele>127.0</ele><time>2026-04-18T08:22:34.746Z</time></trkpt><trkpt lat="43.5312867" lon="10.81577"><ele>128.66666666666669</ele><time>2026-04-18T08:22:35.749Z</time></trkpt><trkpt lat="43.53142" lon="10.81581"><ele>130.33333333333334</ele><time>2026-04-18T08:22:36.744Z</time></trkpt><trkpt lat="43.531505" lon="10.8158033"><ele>132.0</ele><time>2026-04-18T08:22:37.512Z</time></trkpt><trkpt lat="43.531765" lon="10.8158417"><ele>132.0</ele><time>2026-04-18T08:22:39.749Z</time></trkpt><trkpt lat="43.5318783" lon="10.8158717"><ele>132.0</ele><time>2026-04-18T08:22:40.745Z</time></trkpt><trkpt lat="43.5319833" lon="10.8159083"><ele>132.0</ele><time>2026-04-18T08:22:41.741Z</time></trkpt><trkpt lat="43.5320767" lon="10.8159533"><ele>132.0</ele><time>2026-04-18T08:22:42.742Z</time></trkpt><trkpt lat="43.53216" lon="10.816015"><ele>132.0</ele><time>2026-04-18T08:22:43.745Z</time></trkpt><trkpt lat="43.53223" lon="10.8160833"><ele>133.0</ele><time>2026-04-18T08:22:44.745Z</time></trkpt><trkpt lat="43.532305" lon="10.8161467"><ele>134.0</ele><time>2026-04-18T08:22:45.742Z</time></trkpt><trkpt lat="43.5323833" lon="10.8162133"><ele>135.0</ele><time>2026-04-18T08:22:46.745Z</time></trkpt><trkpt lat="43.5324617" lon="10.8162717"><ele>136.0</ele><time>2026-04-18T08:22:47.747Z</time></trkpt><trkpt lat="43.532535" lon="10.8163133"><ele>137.0</ele><time>2026-04-18T08:22:48.743Z</time></trkpt><trkpt lat="43.5326083" lon="10.8163367"><ele>138.0</ele><time>2026-04-18T08:22:49.745Z</time></trkpt><trkpt lat="43.532685" lon="10.81635"><ele>138.0</ele><time>2026-04-18T08:22:50.743Z</time></trkpt><trkpt lat="43.5327633" lon="10.816365"><ele>138.0</ele><time>2026-04-18T08:22:51.748Z</time></trkpt><trkpt lat="43.5328433" lon="10.8163967"><ele>138.0</ele><time>2026-04-18T08:22:52.749Z</time></trkpt><trkpt lat="43.5329383" lon="10.8164533"><ele>138.0</ele><time>2026-04-18T08:22:53.742Z</time></trkpt><trkpt lat="43.5330533" lon="10.8165117"><ele>138.0</ele><time>2026-04-18T08:22:54.744Z</time></trkpt><trkpt lat="43.5331767" lon="10.8165633"><ele>137.8</ele><time>2026-04-18T08:22:55.747Z</time></trkpt><trkpt lat="43.5332883" lon="10.8166167"><ele>137.60000000000002</ele><time>2026-04-18T08:22:56.755Z</time></trkpt><trkpt lat="43.53339" lon="10.8166733"><ele>137.39999999999998</ele><time>2026-04-18T08:22:57.746Z</time></trkpt><trkpt lat="43.5334867" lon="10.8167183"><ele>137.2</ele><time>2026-04-18T08:22:58.745Z</time></trkpt><trkpt lat="43.5335833" lon="10.81675"><ele>137.0</ele><time>2026-04-18T08:22:59.741Z</time></trkpt><trkpt lat="43.533685" lon="10.81674"><ele>138.5</ele><time>2026-04-18T08:23:00.743Z</time></trkpt><trkpt lat="43.5337967" lon="10.8167083"><ele>140.0</ele><time>2026-04-18T08:23:01.75Z</time></trkpt><trkpt lat="43.5339167" lon="10.8166517"><ele>141.5</ele><time>2026-04-18T08:23:02.744Z</time></trkpt><trkpt lat="43.53404" lon="10.81661"><ele>143.0</ele><time>2026-04-18T08:23:03.744Z</time></trkpt><trkpt lat="43.5341783" lon="10.8166117"><ele>143.0</ele><time>2026-04-18T08:23:04.746Z</time></trkpt><trkpt lat="43.534335" lon="10.8166283"><ele>143.0</ele><time>2026-04-18T08:23:05.745Z</time></trkpt><trkpt lat="43.5345" lon="10.8166267"><ele>143.0</ele><time>2026-04-18T08:23:06.744Z</time></trkpt><trkpt lat="43.5346483" lon="10.81665"><ele>144.8</ele><time>2026-04-18T08:23:07.747Z</time></trkpt><trkpt lat="43.5347783" lon="10.8166633"><ele>146.60000000000002</ele><time>2026-04-18T08:23:08.747Z</time></trkpt><trkpt lat="43.5348883" lon="10.8166767"><ele>148.39999999999998</ele><time>2026-04-18T08:23:09.746Z</time></trkpt><trkpt lat="43.5349883" lon="10.8166767"><ele>150.2</ele><time>2026-04-18T08:23:10.742Z</time></trkpt><trkpt lat="43.5350767" lon="10.8166317"><ele>152.0</ele><time>2026-04-18T08:23:11.75Z</time></trkpt><trkpt lat="43.5351717" lon="10.8166033"><ele>152.0</ele><time>2026-04-18T08:23:12.747Z</time></trkpt><trkpt lat="43.535275" lon="10.8164917"><ele>152.0</ele><time>2026-04-18T08:23:13.746Z</time></trkpt><trkpt lat="43.535405" lon="10.816365"><ele>152.0</ele><time>2026-04-18T08:23:14.743Z</time></trkpt><trkpt lat="43.5355283" lon="10.8162583"><ele>152.0</ele><time>2026-04-18T08:23:15.743Z</time></trkpt><trkpt lat="43.53563" lon="10.8161483"><ele>155.0</ele><time>2026-04-18T08:23:16.743Z</time></trkpt><trkpt lat="43.535735" lon="10.8160817"><ele>158.0</ele><time>2026-04-18T08:23:17.748Z</time></trkpt><trkpt lat="43.53583" lon="10.815965"><ele>161.0</ele><time>2026-04-18T08:23:18.749Z</time></trkpt><trkpt lat="43.53593" lon="10.8158683"><ele>164.0</ele><time>2026-04-18T08:23:19.747Z</time></trkpt><trkpt lat="43.5360383" lon="10.8158"><ele>164.0</ele><time>2026-04-18T08:23:20.751Z</time></trkpt><trkpt lat="43.536135" lon="10.8157283"><ele>164.0</ele><time>2026-04-18T08:23:21.743Z</time></trkpt><trkpt lat="43.5362333" lon="10.8156733"><ele>164.0</ele><time>2026-04-18T08:23:22.744Z</time></trkpt><trkpt lat="43.536335" lon="10.81562"><ele>164.0</ele><time>2026-04-18T08:23:23.749Z</time></trkpt><trkpt lat="43.5364367" lon="10.8155867"><ele>164.0</ele><time>2026-04-18T08:23:24.746Z</time></trkpt><trkpt lat="43.5365383" lon="10.815555"><ele>165.33333333333331</ele><time>2026-04-18T08:23:25.744Z</time></trkpt><trkpt lat="43.53664" lon="10.8155467"><ele>166.66666666666666</ele><time>2026-04-18T08:23:26.741Z</time></trkpt><trkpt lat="43.5367333" lon="10.81557"><ele>168.0</ele><time>2026-04-18T08:23:27.748Z</time></trkpt><trkpt lat="43.5368233" lon="10.8155783"><ele>169.33333333333334</ele><time>2026-04-18T08:23:28.743Z</time></trkpt><trkpt lat="43.5369117" lon="10.8155767"><ele>170.66666666666669</ele><time>2026-04-18T08:23:29.746Z</time></trkpt><trkpt lat="43.5369817" lon="10.8155517"><ele>172.0</ele><time>2026-04-18T08:23:30.747Z</time></trkpt><trkpt lat="43.5370517" lon="10.81547"><ele>170.0</ele><time>2026-04-18T08:23:31.743Z</time></trkpt><trkpt lat="43.537115" lon="10.81539"><ele>168.0</ele><time>2026-04-18T08:23:32.743Z</time></trkpt><trkpt lat="43.5371633" lon="10.81529"><ele>166.0</ele><time>2026-04-18T08:23:33.748Z</time></trkpt><trkpt lat="43.5372033" lon="10.81519"><ele>164.0</ele><time>2026-04-18T08:23:34.748Z</time></trkpt><trkpt lat="43.5372583" lon="10.8150567"><ele>162.0</ele><time>2026-04-18T08:23:36.748Z</time></trkpt><trkpt lat="43.5372683" lon="10.8149283"><ele>161.6</ele><time>2026-04-18T08:23:38.747Z</time></trkpt><trkpt lat="43.5372617" lon="10.8148417"><ele>161.2</ele><time>2026-04-18T08:23:39.745Z</time></trkpt><trkpt lat="43.5372133" lon="10.814685"><ele>160.8</ele><time>2026-04-18T08:23:40.746Z</time></trkpt><trkpt lat="43.5371667" lon="10.8145183"><ele>160.4</ele><time>2026-04-18T08:23:41.745Z</time></trkpt><trkpt lat="43.5371533" lon="10.8143417"><ele>160.0</ele><time>2026-04-18T08:23:42.741Z</time></trkpt><trkpt lat="43.5371683" lon="10.8141567"><ele>162.33333333333334</ele><time>2026-04-18T08:23:43.746Z</time></trkpt><trkpt lat="43.537215" lon="10.8139667"><ele>164.66666666666666</ele><time>2026-04-18T08:23:44.747Z</time></trkpt><trkpt lat="43.5372967" lon="10.8137833"><ele>167.0</ele><time>2026-04-18T08:23:45.748Z</time></trkpt><trkpt lat="43.5373933" lon="10.8136167"><ele>169.5</ele><time>2026-04-18T08:23:46.746Z</time></trkpt><trkpt lat="43.5374667" lon="10.8134583"><ele>172.0</ele><time>2026-04-18T08:23:47.744Z</time></trkpt><trkpt lat="43.5375183" lon="10.8133067"><ele>174.5</ele><time>2026-04-18T08:23:48.742Z</time></trkpt><trkpt lat="43.5375483" lon="10.8131683"><ele>177.0</ele><time>2026-04-18T08:23:49.74Z</time></trkpt><trkpt lat="43.53755" lon="10.81303"><ele>177.0</ele><time>2026-04-18T08:23:50.742Z</time></trkpt><trkpt lat="43.537505" lon="10.8129083"><ele>177.0</ele><time>2026-04-18T08:23:51.74Z</time></trkpt><trkpt lat="43.5374067" lon="10.8127933"><ele>177.0</ele><time>2026-04-18T08:23:52.74Z</time></trkpt><trkpt lat="43.537325" lon="10.8126967"><ele>177.0</ele><time>2026-04-18T08:23:53.748Z</time></trkpt><trkpt lat="43.53724" lon="10.81257"><ele>176.33333333333334</ele><time>2026-04-18T08:23:54.744Z</time></trkpt><trkpt lat="43.537095" lon="10.8124433"><ele>175.66666666666669</ele><time>2026-04-18T08:23:55.744Z</time></trkpt><trkpt lat="43.536955" lon="10.8122983"><ele>175.0</ele><time>2026-04-18T08:23:56.74Z</time></trkpt><trkpt lat="43.536835" lon="10.81214"><ele>175.0</ele><time>2026-04-18T08:23:57.739Z</time></trkpt><trkpt lat="43.536735" lon="10.8119817"><ele>175.0</ele><time>2026-04-18T08:23:58.745Z</time></trkpt><trkpt lat="43.5366417" lon="10.8118317"><ele>175.0</ele><time>2026-04-18T08:23:59.748Z</time></trkpt><trkpt lat="43.536565" lon="10.8116717"><ele>175.0</ele><time>2026-04-18T08:24:00.744Z</time></trkpt><trkpt lat="43.5365083" lon="10.81151"><ele>173.5</ele><time>2026-04-18T08:24:01.744Z</time></trkpt><trkpt lat="43.5364683" lon="10.811345"><ele>172.0</ele><time>2026-04-18T08:24:02.744Z</time></trkpt><trkpt lat="43.5364467" lon="10.8111817"><ele>170.5</ele><time>2026-04-18T08:24:03.745Z</time></trkpt><trkpt lat="43.536435" lon="10.811015"><ele>169.0</ele><time>2026-04-18T08:24:04.743Z</time></trkpt><trkpt lat="43.5364333" lon="10.81085"><ele>168.5</ele><time>2026-04-18T08:24:05.744Z</time></trkpt><trkpt lat="43.5364383" lon="10.81069"><ele>168.0</ele><time>2026-04-18T08:24:06.741Z</time></trkpt><trkpt lat="43.53644" lon="10.81053"><ele>167.5</ele><time>2026-04-18T08:24:07.745Z</time></trkpt><trkpt lat="43.5364383" lon="10.810375"><ele>167.0</ele><time>2026-04-18T08:24:08.745Z</time></trkpt><trkpt lat="43.5364167" lon="10.810225"><ele>166.5</ele><time>2026-04-18T08:24:09.744Z</time></trkpt><trkpt lat="43.5363617" lon="10.8100867"><ele>166.0</ele><time>2026-04-18T08:24:10.742Z</time></trkpt><trkpt lat="43.53628" lon="10.8099767"><ele>165.5</ele><time>2026-04-18T08:24:11.743Z</time></trkpt><trkpt lat="43.5362017" lon="10.8098583"><ele>165.0</ele><time>2026-04-18T08:24:12.742Z</time></trkpt><trkpt lat="43.5361267" lon="10.809705"><ele>164.66666666666666</ele><time>2026-04-18T08:24:13.741Z</time></trkpt><trkpt lat="43.5360667" lon="10.8095117"><ele>164.33333333333331</ele><time>2026-04-18T08:24:14.742Z</time></trkpt><trkpt lat="43.536025" lon="10.8092917"><ele>164.0</ele><time>2026-04-18T08:24:15.744Z</time></trkpt><trkpt lat="43.5359967" lon="10.80908"><ele>164.0</ele><time>2026-04-18T08:24:16.744Z</time></trkpt><trkpt lat="43.5359867" lon="10.8088783"><ele>164.0</ele><time>2026-04-18T08:24:17.739Z</time></trkpt><trkpt lat="43.5360117" lon="10.808665"><ele>164.0</ele><time>2026-04-18T08:24:18.74Z</time></trkpt><trkpt lat="43.5360517" lon="10.8084467"><ele>163.0</ele><time>2026-04-18T08:24:19.75Z</time></trkpt><trkpt lat="43.5360933" lon="10.80821"><ele>162.0</ele><time>2026-04-18T08:24:20.743Z</time></trkpt><trkpt lat="43.5361133" lon="10.8079467"><ele>161.0</ele><time>2026-04-18T08:24:21.748Z</time></trkpt><trkpt lat="43.5361233" lon="10.8076817"><ele>161.66666666666666</ele><time>2026-04-18T08:24:22.741Z</time></trkpt><trkpt lat="43.5361167" lon="10.8074283"><ele>162.33333333333334</ele><time>2026-04-18T08:24:23.748Z</time></trkpt><trkpt lat="43.536105" lon="10.80719"><ele>163.0</ele><time>2026-04-18T08:24:24.742Z</time></trkpt><trkpt lat="43.5360817" lon="10.8069683"><ele>163.5</ele><time>2026-04-18T08:24:25.746Z</time></trkpt><trkpt lat="43.5360567" lon="10.8067633"><ele>164.0</ele><time>2026-04-18T08:24:26.746Z</time></trkpt><trkpt lat="43.536025" lon="10.8065717"><ele>164.5</ele><time>2026-04-18T08:24:27.744Z</time></trkpt><trkpt lat="43.5359983" lon="10.80639"><ele>165.0</ele><time>2026-04-18T08:24:28.752Z</time></trkpt><trkpt lat="43.5360017" lon="10.8062017"><ele>165.0</ele><time>2026-04-18T08:24:29.743Z</time></trkpt><trkpt lat="43.5360267" lon="10.806"><ele>165.0</ele><time>2026-04-18T08:24:30.741Z</time></trkpt><trkpt lat="43.5360533" lon="10.80579"><ele>165.0</ele><time>2026-04-18T08:24:31.744Z</time></trkpt><trkpt lat="43.536105" lon="10.8055717"><ele>164.66666666666666</ele><time>2026-04-18T08:24:32.748Z</time></trkpt><trkpt lat="43.5361767" lon="10.805345"><ele>164.33333333333331</ele><time>2026-04-18T08:24:33.747Z</time></trkpt><trkpt lat="43.536265" lon="10.8051083"><ele>164.0</ele><time>2026-04-18T08:24:34.747Z</time></trkpt><trkpt lat="43.536355" lon="10.8048767"><ele>164.0</ele><time>2026-04-18T08:24:35.743Z</time></trkpt><trkpt lat="43.5364367" lon="10.8046567"><ele>164.0</ele><time>2026-04-18T08:24:36.747Z</time></trkpt><trkpt lat="43.5365017" lon="10.8044283"><ele>164.0</ele><time>2026-04-18T08:24:37.745Z</time></trkpt><trkpt lat="43.5365583" lon="10.80419"><ele>162.0</ele><time>2026-04-18T08:24:38.747Z</time></trkpt><trkpt lat="43.5366067" lon="10.80395"><ele>160.0</ele><time>2026-04-18T08:24:39.747Z</time></trkpt><trkpt lat="43.5366367" lon="10.8036867"><ele>158.0</ele><time>2026-04-18T08:24:40.744Z</time></trkpt><trkpt lat="43.5366667" lon="10.8034183"><ele>157.33333333333331</ele><time>2026-04-18T08:24:41.745Z</time></trkpt><trkpt lat="43.5366917" lon="10.8031583"><ele>156.66666666666666</ele><time>2026-04-18T08:24:42.745Z</time></trkpt><trkpt lat="43.5367067" lon="10.8029117"><ele>156.0</ele><time>2026-04-18T08:24:43.744Z</time></trkpt><trkpt lat="43.5367067" lon="10.8026733"><ele>157.33333333333334</ele><time>2026-04-18T08:24:44.747Z</time></trkpt><trkpt lat="43.536715" lon="10.80245"><ele>158.66666666666669</ele><time>2026-04-18T08:24:45.747Z</time></trkpt><trkpt lat="43.536725" lon="10.80224"><ele>160.0</ele><time>2026-04-18T08:24:46.744Z</time></trkpt><trkpt lat="43.536755" lon="10.8020367"><ele>160.0</ele><time>2026-04-18T08:24:47.744Z</time></trkpt><trkpt lat="43.5368133" lon="10.8018467"><ele>160.0</ele><time>2026-04-18T08:24:48.75Z</time></trkpt><trkpt lat="43.5368933" lon="10.801665"><ele>160.0</ele><time>2026-04-18T08:24:49.746Z</time></trkpt><trkpt lat="43.5369767" lon="10.8015"><ele>160.0</ele><time>2026-04-18T08:24:50.746Z</time></trkpt><trkpt lat="43.5370833" lon="10.8013583"><ele>161.33333333333334</ele><time>2026-04-18T08:24:51.741Z</time></trkpt><trkpt lat="43.5372083" lon="10.801235"><ele>162.66666666666666</ele><time>2026-04-18T08:24:52.741Z</time></trkpt><trkpt lat="43.5373383" lon="10.8011233"><ele>164.0</ele><time>2026-04-18T08:24:53.743Z</time></trkpt><trkpt lat="43.53746" lon="10.801015"><ele>163.0</ele><time>2026-04-18T08:24:54.743Z</time></trkpt><trkpt lat="43.5375733" lon="10.8008983"><ele>162.0</ele><time>2026-04-18T08:24:55.745Z</time></trkpt><trkpt lat="43.5376833" lon="10.8007767"><ele>161.0</ele><time>2026-04-18T08:24:56.741Z</time></trkpt><trkpt lat="43.537795" lon="10.8006517"><ele>160.0</ele><time>2026-04-18T08:24:57.75Z</time></trkpt><trkpt lat="43.5378983" lon="10.8005017"><ele>160.0</ele><time>2026-04-18T08:24:58.745Z</time></trkpt><trkpt lat="43.5379933" lon="10.800335"><ele>160.0</ele><time>2026-04-18T08:24:59.746Z</time></trkpt><trkpt lat="43.5380817" lon="10.8001633"><ele>160.0</ele><time>2026-04-18T08:25:00.751Z</time></trkpt><trkpt lat="43.5381633" lon="10.79998"><ele>160.5</ele><time>2026-04-18T08:25:01.744Z</time></trkpt><trkpt lat="43.5382267" lon="10.79979"><ele>161.0</ele><time>2026-04-18T08:25:02.749Z</time></trkpt><trkpt lat="43.538295" lon="10.7996133"><ele>161.5</ele><time>2026-04-18T08:25:03.748Z</time></trkpt><trkpt lat="43.5383683" lon="10.7994383"><ele>162.0</ele><time>2026-04-18T08:25:04.747Z</time></trkpt><trkpt lat="43.5384433" lon="10.7992683"><ele>162.0</ele><time>2026-04-18T08:25:05.745Z</time></trkpt><trkpt lat="43.53851" lon="10.799095"><ele>162.0</ele><time>2026-04-18T08:25:06.752Z</time></trkpt><trkpt lat="43.5385533" lon="10.7989083"><ele>162.0</ele><time>2026-04-18T08:25:07.744Z</time></trkpt><trkpt lat="43.53856" lon="10.798705"><ele>162.0</ele><time>2026-04-18T08:25:08.741Z</time></trkpt><trkpt lat="43.5385533" lon="10.7984983"><ele>160.75</ele><time>2026-04-18T08:25:09.747Z</time></trkpt><trkpt lat="43.5385233" lon="10.7983"><ele>159.5</ele><time>2026-04-18T08:25:10.746Z</time></trkpt><trkpt lat="43.538485" lon="10.79811"><ele>158.25</ele><time>2026-04-18T08:25:11.746Z</time></trkpt><trkpt lat="43.5384483" lon="10.7979167"><ele>157.0</ele><time>2026-04-18T08:25:12.746Z</time></trkpt><trkpt lat="43.538425" lon="10.797715"><ele>158.0</ele><time>2026-04-18T08:25:13.743Z</time></trkpt><trkpt lat="43.5384017" lon="10.7975"><ele>159.0</ele><time>2026-04-18T08:25:14.742Z</time></trkpt><trkpt lat="43.5383767" lon="10.79728"><ele>160.0</ele><time>2026-04-18T08:25:15.747Z</time></trkpt><trkpt lat="43.53833" lon="10.7970617"><ele>160.0</ele><time>2026-04-18T08:25:16.749Z</time></trkpt><trkpt lat="43.5382783" lon="10.79685"><ele>160.0</ele><time>2026-04-18T08:25:17.743Z</time></trkpt><trkpt lat="43.538215" lon="10.79666"><ele>160.0</ele><time>2026-04-18T08:25:18.746Z</time></trkpt><trkpt lat="43.5381517" lon="10.7964867"><ele>162.0</ele><time>2026-04-18T08:25:19.744Z</time></trkpt><trkpt lat="43.5381167" lon="10.7963167"><ele>164.0</ele><time>2026-04-18T08:25:20.752Z</time></trkpt><trkpt lat="43.5381117" lon="10.7961417"><ele>166.0</ele><time>2026-04-18T08:25:21.745Z</time></trkpt><trkpt lat="43.5381533" lon="10.7959633"><ele>168.0</ele><time>2026-04-18T08:25:22.743Z</time></trkpt><trkpt lat="43.5381967" lon="10.7957883"><ele>169.4</ele><time>2026-04-18T08:25:23.744Z</time></trkpt><trkpt lat="43.5382333" lon="10.7956417"><ele>170.8</ele><time>2026-04-18T08:25:24.746Z</time></trkpt><trkpt lat="43.5383067" lon="10.7955333"><ele>172.2</ele><time>2026-04-18T08:25:25.742Z</time></trkpt><trkpt lat="43.538405" lon="10.795465"><ele>173.6</ele><time>2026-04-18T08:25:26.744Z</time></trkpt><trkpt lat="43.5385167" lon="10.7954133"><ele>175.0</ele><time>2026-04-18T08:25:27.751Z</time></trkpt><trkpt lat="43.53865" lon="10.7953717"><ele>176.0</ele><time>2026-04-18T08:25:28.741Z</time></trkpt><trkpt lat="43.5387617" lon="10.7952817"><ele>177.0</ele><time>2026-04-18T08:25:29.743Z</time></trkpt><trkpt lat="43.5388433" lon="10.7951533"><ele>178.0</ele><time>2026-04-18T08:25:30.743Z</time></trkpt><trkpt lat="43.5388967" lon="10.79499"><ele>179.0</ele><time>2026-04-18T08:25:31.743Z</time></trkpt><trkpt lat="43.5389367" lon="10.7948383"><ele>179.0</ele><time>2026-04-18T08:25:32.744Z</time></trkpt><trkpt lat="43.5389533" lon="10.7946767"><ele>179.0</ele><time>2026-04-18T08:25:33.75Z</time></trkpt><trkpt lat="43.5389667" lon="10.794525"><ele>179.0</ele><time>2026-04-18T08:25:34.747Z</time></trkpt><trkpt lat="43.5389917" lon="10.794385"><ele>179.0</ele><time>2026-04-18T08:25:35.743Z</time></trkpt><trkpt lat="43.5390267" lon="10.7942533"><ele>179.0</ele><time>2026-04-18T08:25:36.748Z</time></trkpt><trkpt lat="43.5390883" lon="10.79414"><ele>179.2</ele><time>2026-04-18T08:25:37.743Z</time></trkpt><trkpt lat="43.5391683" lon="10.7940383"><ele>179.39999999999998</ele><time>2026-04-18T08:25:38.752Z</time></trkpt><trkpt lat="43.53926" lon="10.7939433"><ele>179.6</ele><time>2026-04-18T08:25:39.744Z</time></trkpt><trkpt lat="43.5393533" lon="10.793855"><ele>179.8</ele><time>2026-04-18T08:25:40.747Z</time></trkpt><trkpt lat="43.5394333" lon="10.7937617"><ele>180.0</ele><time>2026-04-18T08:25:41.741Z</time></trkpt><trkpt lat="43.53951" lon="10.79367"><ele>180.16666666666666</ele><time>2026-04-18T08:25:42.744Z</time></trkpt><trkpt lat="43.539555" lon="10.7935533"><ele>180.33333333333334</ele><time>2026-04-18T08:25:43.745Z</time></trkpt><trkpt lat="43.5395783" lon="10.7934383"><ele>180.5</ele><time>2026-04-18T08:25:44.747Z</time></trkpt><trkpt lat="43.5395833" lon="10.793335"><ele>180.66666666666669</ele><time>2026-04-18T08:25:45.744Z</time></trkpt><trkpt lat="43.5395883" lon="10.793205"><ele>180.83333333333334</ele><time>2026-04-18T08:25:47.743Z</time></trkpt><trkpt lat="43.5395867" lon="10.7931117"><ele>181.0</ele><time>2026-04-18T08:25:49.745Z</time></trkpt><trkpt lat="43.5395933" lon="10.79302"><ele>181.0</ele><time>2026-04-18T08:25:51.741Z</time></trkpt><trkpt lat="43.5395417" lon="10.7929067"><ele>181.0</ele><time>2026-04-18T08:25:53.747Z</time></trkpt><trkpt lat="43.5394833" lon="10.7927483"><ele>181.0</ele><time>2026-04-18T08:25:55.743Z</time></trkpt><trkpt lat="43.539455" lon="10.79266"><ele>181.0</ele><time>2026-04-18T08:25:56.743Z</time></trkpt><trkpt lat="43.5394233" lon="10.7925667"><ele>181.0</ele><time>2026-04-18T08:25:57.74Z</time></trkpt><trkpt lat="43.539395" lon="10.7924667"><ele>181.0</ele><time>2026-04-18T08:25:58.744Z</time></trkpt><trkpt lat="43.539365" lon="10.7923783"><ele>181.0</ele><time>2026-04-18T08:25:59.744Z</time></trkpt><trkpt lat="43.5393217" lon="10.79229"><ele>181.0</ele><time>2026-04-18T08:26:00.744Z</time></trkpt><trkpt lat="43.5392783" lon="10.7922017"><ele>181.0</ele><time>2026-04-18T08:26:01.74Z</time></trkpt><trkpt lat="43.5392383" lon="10.79211"><ele>181.0</ele><time>2026-04-18T08:26:02.744Z</time></trkpt><trkpt lat="43.5392033" lon="10.7920167"><ele>181.0</ele><time>2026-04-18T08:26:03.741Z</time></trkpt><trkpt lat="43.5391633" lon="10.7919333"><ele>181.0</ele><time>2026-04-18T08:26:04.743Z</time></trkpt><trkpt lat="43.5391267" lon="10.7918567"><ele>181.0</ele><time>2026-04-18T08:26:05.746Z</time></trkpt><trkpt lat="43.53907" lon="10.791715"><ele>182.16666666666669</ele><time>2026-04-18T08:26:07.751Z</time></trkpt><trkpt lat="43.539065" lon="10.7916267"><ele>183.33333333333334</ele><time>2026-04-18T08:26:08.743Z</time></trkpt><trkpt lat="43.5390167" lon="10.791545"><ele>184.5</ele><time>2026-04-18T08:26:09.744Z</time></trkpt><trkpt lat="43.5389483" lon="10.7914583"><ele>185.66666666666666</ele><time>2026-04-18T08:26:10.741Z</time></trkpt><trkpt lat="43.5388717" lon="10.7913633"><ele>186.83333333333331</ele><time>2026-04-18T08:26:11.744Z</time></trkpt><trkpt lat="43.5388" lon="10.7912667"><ele>188.0</ele><time>2026-04-18T08:26:12.749Z</time></trkpt><trkpt lat="43.53873" lon="10.7911783"><ele>186.5</ele><time>2026-04-18T08:26:13.746Z</time></trkpt><trkpt lat="43.5386617" lon="10.7910917"><ele>185.0</ele><time>2026-04-18T08:26:14.746Z</time></trkpt><trkpt lat="43.5385983" lon="10.7910033"><ele>183.5</ele><time>2026-04-18T08:26:15.746Z</time></trkpt><trkpt lat="43.538545" lon="10.7909233"><ele>182.0</ele><time>2026-04-18T08:26:16.739Z</time></trkpt><trkpt lat="43.5384933" lon="10.79086"><ele>180.5</ele><time>2026-04-18T08:26:17.744Z</time></trkpt><trkpt lat="43.53843" lon="10.790815"><ele>179.0</ele><time>2026-04-18T08:26:18.75Z</time></trkpt><trkpt lat="43.5383483" lon="10.7907667"><ele>179.0</ele><time>2026-04-18T08:26:19.741Z</time></trkpt><trkpt lat="43.5382583" lon="10.7906983"><ele>179.0</ele><time>2026-04-18T08:26:20.743Z</time></trkpt><trkpt lat="43.538155" lon="10.7906383"><ele>179.0</ele><time>2026-04-18T08:26:21.744Z</time></trkpt><trkpt lat="43.5380333" lon="10.79059"><ele>179.0</ele><time>2026-04-18T08:26:22.744Z</time></trkpt><trkpt lat="43.5379" lon="10.7905667"><ele>178.5</ele><time>2026-04-18T08:26:23.741Z</time></trkpt><trkpt lat="43.537765" lon="10.790555"><ele>178.0</ele><time>2026-04-18T08:26:24.746Z</time></trkpt><trkpt lat="43.5376183" lon="10.7905633"><ele>177.5</ele><time>2026-04-18T08:26:25.744Z</time></trkpt><trkpt lat="43.537475" lon="10.79061"><ele>177.0</ele><time>2026-04-18T08:26:26.741Z</time></trkpt><trkpt lat="43.53734" lon="10.7906667"><ele>177.0</ele><time>2026-04-18T08:26:27.743Z</time></trkpt><trkpt lat="43.5372167" lon="10.7907217"><ele>177.0</ele><time>2026-04-18T08:26:28.747Z</time></trkpt><trkpt lat="43.5370833" lon="10.7907417"><ele>177.0</ele><time>2026-04-18T08:26:29.746Z</time></trkpt><trkpt lat="43.5369433" lon="10.790755"><ele>177.0</ele><time>2026-04-18T08:26:30.743Z</time></trkpt><trkpt lat="43.5367967" lon="10.7907767"><ele>177.5</ele><time>2026-04-18T08:26:31.741Z</time></trkpt><trkpt lat="43.5366417" lon="10.7907683"><ele>178.0</ele><time>2026-04-18T08:26:32.741Z</time></trkpt><trkpt lat="43.5364917" lon="10.7907633"><ele>178.5</ele><time>2026-04-18T08:26:33.743Z</time></trkpt><trkpt lat="43.536365" lon="10.79078"><ele>179.0</ele><time>2026-04-18T08:26:34.743Z</time></trkpt><trkpt lat="43.536255" lon="10.7908067"><ele>178.79999999999998</ele><time>2026-04-18T08:26:35.747Z</time></trkpt><trkpt lat="43.5361533" lon="10.7908233"><ele>178.6</ele><time>2026-04-18T08:26:36.743Z</time></trkpt><trkpt lat="43.5360517" lon="10.7908017"><ele>178.4</ele><time>2026-04-18T08:26:37.742Z</time></trkpt><trkpt lat="43.5359467" lon="10.7907533"><ele>178.2</ele><time>2026-04-18T08:26:38.747Z</time></trkpt><trkpt lat="43.5358417" lon="10.7906717"><ele>178.0</ele><time>2026-04-18T08:26:39.74Z</time></trkpt><trkpt lat="43.5357167" lon="10.7905567"><ele>178.0</ele><time>2026-04-18T08:26:40.742Z</time></trkpt><trkpt lat="43.5355633" lon="10.7904483"><ele>178.0</ele><time>2026-04-18T08:26:41.743Z</time></trkpt><trkpt lat="43.53539" lon="10.7903233"><ele>178.0</ele><time>2026-04-18T08:26:42.742Z</time></trkpt><trkpt lat="43.5352217" lon="10.79019"><ele>175.66666666666669</ele><time>2026-04-18T08:26:43.743Z</time></trkpt><trkpt lat="43.535065" lon="10.790055"><ele>173.33333333333334</ele><time>2026-04-18T08:26:44.742Z</time></trkpt><trkpt lat="43.5349267" lon="10.789945"><ele>171.0</ele><time>2026-04-18T08:26:45.747Z</time></trkpt><trkpt lat="43.5347833" lon="10.7898367"><ele>171.0</ele><time>2026-04-18T08:26:46.746Z</time></trkpt><trkpt lat="43.534645" lon="10.789745"><ele>171.0</ele><time>2026-04-18T08:26:47.745Z</time></trkpt><trkpt lat="43.5345133" lon="10.789655"><ele>171.0</ele><time>2026-04-18T08:26:48.747Z</time></trkpt><trkpt lat="43.534385" lon="10.7895867"><ele>171.0</ele><time>2026-04-18T08:26:49.743Z</time></trkpt><trkpt lat="43.5342583" lon="10.7895183"><ele>170.75</ele><time>2026-04-18T08:26:50.75Z</time></trkpt><trkpt lat="43.5341317" lon="10.7894483"><ele>170.5</ele><time>2026-04-18T08:26:51.742Z</time></trkpt><trkpt lat="43.5340017" lon="10.7893633"><ele>170.25</ele><time>2026-04-18T08:26:52.752Z</time></trkpt><trkpt lat="43.533865" lon="10.7892817"><ele>170.0</ele><time>2026-04-18T08:26:53.747Z</time></trkpt><trkpt lat="43.53372" lon="10.7891883"><ele>167.33333333333331</ele><time>2026-04-18T08:26:54.742Z</time></trkpt><trkpt lat="43.533575" lon="10.7890933"><ele>164.66666666666666</ele><time>2026-04-18T08:26:55.743Z</time></trkpt><trkpt lat="43.5334267" lon="10.7890183"><ele>162.0</ele><time>2026-04-18T08:26:56.744Z</time></trkpt><trkpt lat="43.53328" lon="10.788945"><ele>162.0</ele><time>2026-04-18T08:26:57.741Z</time></trkpt><trkpt lat="43.5331433" lon="10.7888583"><ele>162.0</ele><time>2026-04-18T08:26:58.741Z</time></trkpt><trkpt lat="43.532995" lon="10.7887983"><ele>162.0</ele><time>2026-04-18T08:26:59.745Z</time></trkpt><trkpt lat="43.5328667" lon="10.7887033"><ele>160.75</ele><time>2026-04-18T08:27:00.742Z</time></trkpt><trkpt lat="43.5327367" lon="10.7886217"><ele>159.5</ele><time>2026-04-18T08:27:01.745Z</time></trkpt><trkpt lat="43.532605" lon="10.78855"><ele>158.25</ele><time>2026-04-18T08:27:02.745Z</time></trkpt><trkpt lat="43.5324733" lon="10.78848"><ele>157.0</ele><time>2026-04-18T08:27:03.744Z</time></trkpt><trkpt lat="43.53235" lon="10.7884167"><ele>157.0</ele><time>2026-04-18T08:27:04.74Z</time></trkpt><trkpt lat="43.532235" lon="10.7883533"><ele>157.0</ele><time>2026-04-18T08:27:05.74Z</time></trkpt><trkpt lat="43.5321233" lon="10.7883017"><ele>157.0</ele><time>2026-04-18T08:27:06.744Z</time></trkpt><trkpt lat="43.5320317" lon="10.788235"><ele>157.0</ele><time>2026-04-18T08:27:07.748Z</time></trkpt><trkpt lat="43.5319483" lon="10.7881767"><ele>157.0</ele><time>2026-04-18T08:27:08.748Z</time></trkpt><trkpt lat="43.53188" lon="10.788125"><ele>156.2</ele><time>2026-04-18T08:27:09.743Z</time></trkpt><trkpt lat="43.531825" lon="10.788065"><ele>155.39999999999998</ele><time>2026-04-18T08:27:10.74Z</time></trkpt><trkpt lat="43.5317417" lon="10.7879383"><ele>154.60000000000002</ele><time>2026-04-18T08:27:12.741Z</time></trkpt><trkpt lat="43.5317067" lon="10.787845"><ele>153.8</ele><time>2026-04-18T08:27:13.741Z</time></trkpt><trkpt lat="43.531655" lon="10.78774"><ele>153.0</ele><time>2026-04-18T08:27:14.742Z</time></trkpt><trkpt lat="43.53159" lon="10.7876267"><ele>153.0</ele><time>2026-04-18T08:27:15.743Z</time></trkpt><trkpt lat="43.5315183" lon="10.7874833"><ele>153.0</ele><time>2026-04-18T08:27:16.741Z</time></trkpt><trkpt lat="43.5314083" lon="10.787355"><ele>153.0</ele><time>2026-04-18T08:27:17.741Z</time></trkpt><trkpt lat="43.531315" lon="10.7872033"><ele>153.0</ele><time>2026-04-18T08:27:18.743Z</time></trkpt><trkpt lat="43.5312333" lon="10.7870483"><ele>150.0</ele><time>2026-04-18T08:27:19.745Z</time></trkpt><trkpt lat="43.5311483" lon="10.7869033"><ele>147.0</ele><time>2026-04-18T08:27:20.747Z</time></trkpt><trkpt lat="43.5310583" lon="10.7867717"><ele>144.0</ele><time>2026-04-18T08:27:21.745Z</time></trkpt><trkpt lat="43.5309683" lon="10.786645"><ele>141.0</ele><time>2026-04-18T08:27:22.743Z</time></trkpt><trkpt lat="43.5308817" lon="10.7865233"><ele>141.0</ele><time>2026-04-18T08:27:23.75Z</time></trkpt><trkpt lat="43.5308083" lon="10.7864133"><ele>141.0</ele><time>2026-04-18T08:27:24.746Z</time></trkpt><trkpt lat="43.530745" lon="10.7863233"><ele>141.0</ele><time>2026-04-18T08:27:25.743Z</time></trkpt><trkpt lat="43.5306967" lon="10.7862483"><ele>141.0</ele><time>2026-04-18T08:27:26.746Z</time></trkpt><trkpt lat="43.5306567" lon="10.7861783"><ele>141.0</ele><time>2026-04-18T08:27:27.744Z</time></trkpt><trkpt lat="43.5306217" lon="10.7860167"><ele>141.6</ele><time>2026-04-18T08:27:29.747Z</time></trkpt><trkpt lat="43.530645" lon="10.78591"><ele>142.2</ele><time>2026-04-18T08:27:30.743Z</time></trkpt><trkpt lat="43.53069" lon="10.7857933"><ele>142.8</ele><time>2026-04-18T08:27:31.743Z</time></trkpt><trkpt lat="43.530735" lon="10.785675"><ele>143.4</ele><time>2026-04-18T08:27:32.748Z</time></trkpt><trkpt lat="43.5307783" lon="10.7855483"><ele>144.0</ele><time>2026-04-18T08:27:33.746Z</time></trkpt><trkpt lat="43.5308183" lon="10.785425"><ele>144.0</ele><time>2026-04-18T08:27:34.745Z</time></trkpt><trkpt lat="43.5308483" lon="10.7853167"><ele>144.0</ele><time>2026-04-18T08:27:35.742Z</time></trkpt><trkpt lat="43.53087" lon="10.785205"><ele>144.0</ele><time>2026-04-18T08:27:36.743Z</time></trkpt><trkpt lat="43.5308867" lon="10.7851067"><ele>144.0</ele><time>2026-04-18T08:27:37.742Z</time></trkpt><trkpt lat="43.5308633" lon="10.78498"><ele>144.0</ele><time>2026-04-18T08:27:38.748Z</time></trkpt><trkpt lat="43.5308417" lon="10.78486"><ele>144.0</ele><time>2026-04-18T08:27:39.747Z</time></trkpt><trkpt lat="43.5308183" lon="10.7847533"><ele>143.16666666666666</ele><time>2026-04-18T08:27:40.744Z</time></trkpt><trkpt lat="43.53078" lon="10.78465"><ele>142.33333333333334</ele><time>2026-04-18T08:27:41.746Z</time></trkpt><trkpt lat="43.530735" lon="10.784545"><ele>141.5</ele><time>2026-04-18T08:27:42.744Z</time></trkpt><trkpt lat="43.5307" lon="10.7844433"><ele>140.66666666666669</ele><time>2026-04-18T08:27:43.74Z</time></trkpt><trkpt lat="43.5306633" lon="10.7843567"><ele>139.83333333333334</ele><time>2026-04-18T08:27:44.74Z</time></trkpt><trkpt lat="43.5306333" lon="10.78428"><ele>139.0</ele><time>2026-04-18T08:27:45.747Z</time></trkpt><trkpt lat="43.5305633" lon="10.7841633"><ele>138.33333333333334</ele><time>2026-04-18T08:27:47.742Z</time></trkpt><trkpt lat="43.5304533" lon="10.78415"><ele>137.66666666666669</ele><time>2026-04-18T08:27:49.75Z</time></trkpt><trkpt lat="43.53039" lon="10.7841933"><ele>137.0</ele><time>2026-04-18T08:27:50.746Z</time></trkpt><trkpt lat="43.5303267" lon="10.7842683"><ele>136.33333333333334</ele><time>2026-04-18T08:27:51.752Z</time></trkpt><trkpt lat="43.5302617" lon="10.7843483"><ele>135.66666666666666</ele><time>2026-04-18T08:27:52.742Z</time></trkpt><trkpt lat="43.5301983" lon="10.7844267"><ele>135.0</ele><time>2026-04-18T08:27:53.752Z</time></trkpt><trkpt lat="43.5301383" lon="10.7844983"><ele>135.0</ele><time>2026-04-18T08:27:54.747Z</time></trkpt><trkpt lat="43.5300817" lon="10.7845583"><ele>135.0</ele><time>2026-04-18T08:27:55.742Z</time></trkpt><trkpt lat="43.53003" lon="10.78462"><ele>135.0</ele><time>2026-04-18T08:27:56.744Z</time></trkpt><trkpt lat="43.529975" lon="10.7846733"><ele>135.0</ele><time>2026-04-18T08:27:57.745Z</time></trkpt><trkpt lat="43.5298583" lon="10.78473"><ele>135.0</ele><time>2026-04-18T08:27:59.746Z</time></trkpt><trkpt lat="43.5297917" lon="10.7847467"><ele>135.0</ele><time>2026-04-18T08:28:00.745Z</time></trkpt><trkpt lat="43.5297217" lon="10.78476"><ele>135.0</ele><time>2026-04-18T08:28:01.741Z</time></trkpt><trkpt lat="43.529645" lon="10.7847683"><ele>135.0</ele><time>2026-04-18T08:28:02.743Z</time></trkpt><trkpt lat="43.5295667" lon="10.7847717"><ele>135.0</ele><time>2026-04-18T08:28:03.745Z</time></trkpt><trkpt lat="43.529485" lon="10.7847633"><ele>135.0</ele><time>2026-04-18T08:28:04.747Z</time></trkpt><trkpt lat="43.5294017" lon="10.7847467"><ele>135.0</ele><time>2026-04-18T08:28:05.748Z</time></trkpt><trkpt lat="43.5293183" lon="10.784735"><ele>135.0</ele><time>2026-04-18T08:28:06.746Z</time></trkpt><trkpt lat="43.529235" lon="10.784715"><ele>131.33333333333334</ele><time>2026-04-18T08:28:07.742Z</time></trkpt><trkpt lat="43.5291483" lon="10.7846983"><ele>127.66666666666666</ele><time>2026-04-18T08:28:08.744Z</time></trkpt><trkpt lat="43.529065" lon="10.78468"><ele>124.0</ele><time>2026-04-18T08:28:09.743Z</time></trkpt><trkpt lat="43.528985" lon="10.784665"><ele>120.33333333333333</ele><time>2026-04-18T08:28:10.747Z</time></trkpt><trkpt lat="43.528915" lon="10.7846483"><ele>116.66666666666666</ele><time>2026-04-18T08:28:11.745Z</time></trkpt><trkpt lat="43.5288433" lon="10.7846333"><ele>113.0</ele><time>2026-04-18T08:28:12.743Z</time></trkpt><trkpt lat="43.52877" lon="10.7846233"><ele>110.99999999999999</ele><time>2026-04-18T08:28:13.744Z</time></trkpt><trkpt lat="43.5286983" lon="10.784615"><ele>109.0</ele><time>2026-04-18T08:28:14.742Z</time></trkpt><trkpt lat="43.528635" lon="10.78461"><ele>107.0</ele><time>2026-04-18T08:28:15.742Z</time></trkpt><trkpt lat="43.5285317" lon="10.78462"><ele>105.0</ele><time>2026-04-18T08:28:17.742Z</time></trkpt><trkpt lat="43.5284683" lon="10.7846367"><ele>102.99999999999999</ele><time>2026-04-18T08:28:18.746Z</time></trkpt><trkpt lat="43.5283833" lon="10.78466"><ele>101.0</ele><time>2026-04-18T08:28:19.742Z</time></trkpt><trkpt lat="43.5282833" lon="10.7846967"><ele>101.0</ele><time>2026-04-18T08:28:20.747Z</time></trkpt><trkpt lat="43.52817" lon="10.7846933"><ele>101.0</ele><time>2026-04-18T08:28:21.747Z</time></trkpt><trkpt lat="43.52805" lon="10.7846717"><ele>101.0</ele><time>2026-04-18T08:28:22.748Z</time></trkpt><trkpt lat="43.527935" lon="10.7846483"><ele>101.0</ele><time>2026-04-18T08:28:23.75Z</time></trkpt><trkpt lat="43.5278217" lon="10.78464"><ele>98.6</ele><time>2026-04-18T08:28:24.749Z</time></trkpt><trkpt lat="43.527715" lon="10.784605"><ele>96.19999999999999</ele><time>2026-04-18T08:28:25.749Z</time></trkpt><trkpt lat="43.5276167" lon="10.784585"><ele>93.80000000000001</ele><time>2026-04-18T08:28:26.748Z</time></trkpt><trkpt lat="43.5275233" lon="10.7845667"><ele>91.4</ele><time>2026-04-18T08:28:27.748Z</time></trkpt><trkpt lat="43.5274383" lon="10.7845167"><ele>89.0</ele><time>2026-04-18T08:28:28.741Z</time></trkpt><trkpt lat="43.52736" lon="10.7844533"><ele>89.0</ele><time>2026-04-18T08:28:29.743Z</time></trkpt><trkpt lat="43.5272867" lon="10.78437"><ele>89.0</ele><time>2026-04-18T08:28:30.744Z</time></trkpt><trkpt lat="43.5272117" lon="10.7842533"><ele>89.0</ele><time>2026-04-18T08:28:31.744Z</time></trkpt><trkpt lat="43.527125" lon="10.7840933"><ele>89.0</ele><time>2026-04-18T08:28:32.749Z</time></trkpt><trkpt lat="43.527015" lon="10.7839417"><ele>89.5</ele><time>2026-04-18T08:28:33.744Z</time></trkpt><trkpt lat="43.52693" lon="10.7837783"><ele>90.0</ele><time>2026-04-18T08:28:34.742Z</time></trkpt><trkpt lat="43.5268433" lon="10.7836333"><ele>90.5</ele><time>2026-04-18T08:28:35.741Z</time></trkpt><trkpt lat="43.5267617" lon="10.7835083"><ele>91.0</ele><time>2026-04-18T08:28:36.743Z</time></trkpt><trkpt lat="43.5266933" lon="10.7833867"><ele>90.0</ele><time>2026-04-18T08:28:37.741Z</time></trkpt><trkpt lat="43.5266367" lon="10.7832567"><ele>89.0</ele><time>2026-04-18T08:28:38.741Z</time></trkpt><trkpt lat="43.5265783" lon="10.7831117"><ele>88.0</ele><time>2026-04-18T08:28:39.741Z</time></trkpt><trkpt lat="43.5265233" lon="10.7829083"><ele>87.0</ele><time>2026-04-18T08:28:40.742Z</time></trkpt><trkpt lat="43.5264467" lon="10.7826917"><ele>83.0</ele><time>2026-04-18T08:28:41.742Z</time></trkpt><trkpt lat="43.5263883" lon="10.7824667"><ele>79.0</ele><time>2026-04-18T08:28:42.747Z</time></trkpt><trkpt lat="43.526335" lon="10.7822467"><ele>75.0</ele><time>2026-04-18T08:28:43.742Z</time></trkpt><trkpt lat="43.5262783" lon="10.7820517"><ele>75.75</ele><time>2026-04-18T08:28:44.742Z</time></trkpt><trkpt lat="43.5262217" lon="10.78188"><ele>76.5</ele><time>2026-04-18T08:28:45.743Z</time></trkpt><trkpt lat="43.5261767" lon="10.7817133"><ele>77.25</ele><time>2026-04-18T08:28:46.742Z</time></trkpt><trkpt lat="43.5261367" lon="10.7815683"><ele>78.0</ele><time>2026-04-18T08:28:47.745Z</time></trkpt><trkpt lat="43.5260967" lon="10.7814483"><ele>76.2</ele><time>2026-04-18T08:28:48.745Z</time></trkpt><trkpt lat="43.5260617" lon="10.781355"><ele>74.4</ele><time>2026-04-18T08:28:49.745Z</time></trkpt><trkpt lat="43.5260117" lon="10.781225"><ele>72.60000000000001</ele><time>2026-04-18T08:28:51.742Z</time></trkpt><trkpt lat="43.5259283" lon="10.7812083"><ele>70.8</ele><time>2026-04-18T08:28:58.744Z</time></trkpt><trkpt lat="43.5258333" lon="10.7812867"><ele>69.0</ele><time>2026-04-18T08:29:00.743Z</time></trkpt><trkpt lat="43.525765" lon="10.7813633"><ele>69.0</ele><time>2026-04-18T08:29:01.74Z</time></trkpt><trkpt lat="43.5256783" lon="10.78144"><ele>69.0</ele><time>2026-04-18T08:29:02.743Z</time></trkpt><trkpt lat="43.52557" lon="10.781535"><ele>69.0</ele><time>2026-04-18T08:29:03.744Z</time></trkpt><trkpt lat="43.5254517" lon="10.7816483"><ele>69.0</ele><time>2026-04-18T08:29:04.746Z</time></trkpt><trkpt lat="43.5253217" lon="10.781765"><ele>69.66666666666667</ele><time>2026-04-18T08:29:05.747Z</time></trkpt><trkpt lat="43.5251783" lon="10.7819017"><ele>70.33333333333334</ele><time>2026-04-18T08:29:06.743Z</time></trkpt><trkpt lat="43.5250367" lon="10.7820433"><ele>71.0</ele><time>2026-04-18T08:29:07.745Z</time></trkpt><trkpt lat="43.5249033" lon="10.7821817"><ele>71.0</ele><time>2026-04-18T08:29:08.74Z</time></trkpt><trkpt lat="43.524775" lon="10.7823333"><ele>71.0</ele><time>2026-04-18T08:29:09.744Z</time></trkpt><trkpt lat="43.5246517" lon="10.7825217"><ele>71.0</ele><time>2026-04-18T08:29:10.748Z</time></trkpt><trkpt lat="43.5245417" lon="10.78276"><ele>69.0</ele><time>2026-04-18T08:29:11.74Z</time></trkpt><trkpt lat="43.5244333" lon="10.783005"><ele>67.0</ele><time>2026-04-18T08:29:12.741Z</time></trkpt><trkpt lat="43.5243383" lon="10.7832483"><ele>65.0</ele><time>2026-04-18T08:29:13.744Z</time></trkpt><trkpt lat="43.52424" lon="10.7834717"><ele>65.0</ele><time>2026-04-18T08:29:14.748Z</time></trkpt><trkpt lat="43.5241367" lon="10.783675"><ele>65.0</ele><time>2026-04-18T08:29:15.747Z</time></trkpt><trkpt lat="43.5240383" lon="10.7838717"><ele>65.0</ele><time>2026-04-18T08:29:16.742Z</time></trkpt><trkpt lat="43.5239517" lon="10.7840617"><ele>65.0</ele><time>2026-04-18T08:29:17.744Z</time></trkpt><trkpt lat="43.5238567" lon="10.7842317"><ele>65.0</ele><time>2026-04-18T08:29:18.742Z</time></trkpt><trkpt lat="43.5237467" lon="10.7843683"><ele>65.0</ele><time>2026-04-18T08:29:19.747Z</time></trkpt><trkpt lat="43.52362" lon="10.7844683"><ele>66.33333333333334</ele><time>2026-04-18T08:29:20.749Z</time></trkpt><trkpt lat="43.5234883" lon="10.7845517"><ele>67.66666666666667</ele><time>2026-04-18T08:29:21.745Z</time></trkpt><trkpt lat="43.5233433" lon="10.7846333"><ele>69.0</ele><time>2026-04-18T08:29:22.744Z</time></trkpt><trkpt lat="43.523195" lon="10.7847167"><ele>69.0</ele><time>2026-04-18T08:29:23.745Z</time></trkpt><trkpt lat="43.5230533" lon="10.784805"><ele>69.0</ele><time>2026-04-18T08:29:24.746Z</time></trkpt><trkpt lat="43.52292" lon="10.7848867"><ele>69.0</ele><time>2026-04-18T08:29:25.742Z</time></trkpt><trkpt lat="43.522795" lon="10.7849683"><ele>69.0</ele><time>2026-04-18T08:29:26.743Z</time></trkpt><trkpt lat="43.5226767" lon="10.7850317"><ele>69.0</ele><time>2026-04-18T08:29:27.746Z</time></trkpt><trkpt lat="43.5225783" lon="10.785105"><ele>69.0</ele><time>2026-04-18T08:29:28.744Z</time></trkpt><trkpt lat="43.5224917" lon="10.785155"><ele>69.0</ele><time>2026-04-18T08:29:29.746Z</time></trkpt><trkpt lat="43.5224267" lon="10.785205"><ele>69.0</ele><time>2026-04-18T08:29:30.742Z</time></trkpt><trkpt lat="43.522365" lon="10.7853117"><ele>69.0</ele><time>2026-04-18T08:29:32.742Z</time></trkpt><trkpt lat="43.5223967" lon="10.7854383"><ele>69.0</ele><time>2026-04-18T08:29:34.743Z</time></trkpt><trkpt lat="43.5224433" lon="10.7855117"><ele>69.0</ele><time>2026-04-18T08:29:35.745Z</time></trkpt><trkpt lat="43.522495" lon="10.78562"><ele>69.0</ele><time>2026-04-18T08:29:36.744Z</time></trkpt><trkpt lat="43.52254" lon="10.7857617"><ele>69.0</ele><time>2026-04-18T08:29:37.745Z</time></trkpt><trkpt lat="43.5225583" lon="10.7859367"><ele>69.0</ele><time>2026-04-18T08:29:38.744Z</time></trkpt><trkpt lat="43.5225667" lon="10.7861367"><ele>69.33333333333333</ele><time>2026-04-18T08:29:39.744Z</time></trkpt><trkpt lat="43.522585" lon="10.78635"><ele>69.66666666666666</ele><time>2026-04-18T08:29:40.744Z</time></trkpt><trkpt lat="43.5226033" lon="10.7865667"><ele>70.0</ele><time>2026-04-18T08:29:41.744Z</time></trkpt><trkpt lat="43.52258" lon="10.786795"><ele>70.66666666666666</ele><time>2026-04-18T08:29:42.749Z</time></trkpt><trkpt lat="43.5226367" lon="10.78707"><ele>71.33333333333333</ele><time>2026-04-18T08:29:43.743Z</time></trkpt><trkpt lat="43.5226317" lon="10.787355"><ele>72.0</ele><time>2026-04-18T08:29:44.751Z</time></trkpt><trkpt lat="43.522725" lon="10.7877"><ele>73.0</ele><time>2026-04-18T08:29:45.745Z</time></trkpt><trkpt lat="43.5227417" lon="10.78804"><ele>74.0</ele><time>2026-04-18T08:29:46.741Z</time></trkpt><trkpt lat="43.5228067" lon="10.7883667"><ele>76.0</ele><time>2026-04-18T08:29:47.743Z</time></trkpt><trkpt lat="43.5227967" lon="10.7886733"><ele>78.0</ele><time>2026-04-18T08:29:48.741Z</time></trkpt><trkpt lat="43.52287" lon="10.7889267"><ele>80.0</ele><time>2026-04-18T08:29:49.743Z</time></trkpt><trkpt lat="43.52292" lon="10.789155"><ele>82.5</ele><time>2026-04-18T08:29:50.748Z</time></trkpt><trkpt lat="43.5229583" lon="10.7893583"><ele>85.0</ele><time>2026-04-18T08:29:51.744Z</time></trkpt><trkpt lat="43.5229883" lon="10.7895383"><ele>87.5</ele><time>2026-04-18T08:29:52.743Z</time></trkpt><trkpt lat="43.523025" lon="10.7896933"><ele>90.0</ele><time>2026-04-18T08:29:53.744Z</time></trkpt><trkpt lat="43.523045" lon="10.789825"><ele>90.0</ele><time>2026-04-18T08:29:54.743Z</time></trkpt><trkpt lat="43.5230783" lon="10.7899333"><ele>90.0</ele><time>2026-04-18T08:29:55.745Z</time></trkpt><trkpt lat="43.5231067" lon="10.7900283"><ele>90.0</ele><time>2026-04-18T08:29:56.743Z</time></trkpt><trkpt lat="43.5231233" lon="10.7901283"><ele>90.0</ele><time>2026-04-18T08:29:57.746Z</time></trkpt><trkpt lat="43.5231367" lon="10.790245"><ele>90.0</ele><time>2026-04-18T08:29:58.744Z</time></trkpt><trkpt lat="43.5231517" lon="10.790395"><ele>90.0</ele><time>2026-04-18T08:29:59.744Z</time></trkpt><trkpt lat="43.52318" lon="10.7905717"><ele>90.75</ele><time>2026-04-18T08:30:00.752Z</time></trkpt><trkpt lat="43.5232067" lon="10.7907467"><ele>91.5</ele><time>2026-04-18T08:30:01.749Z</time></trkpt><trkpt lat="43.5232317" lon="10.7909033"><ele>92.25</ele><time>2026-04-18T08:30:02.744Z</time></trkpt><trkpt lat="43.5232717" lon="10.7910383"><ele>93.0</ele><time>2026-04-18T08:30:03.744Z</time></trkpt><trkpt lat="43.523325" lon="10.7911583"><ele>93.0</ele><time>2026-04-18T08:30:04.743Z</time></trkpt><trkpt lat="43.5233917" lon="10.79129"><ele>93.0</ele><time>2026-04-18T08:30:05.752Z</time></trkpt><trkpt lat="43.523465" lon="10.7914183"><ele>93.0</ele><time>2026-04-18T08:30:06.749Z</time></trkpt><trkpt lat="43.5235517" lon="10.79154"><ele>93.0</ele><time>2026-04-18T08:30:07.746Z</time></trkpt><trkpt lat="43.5236283" lon="10.7916633"><ele>93.0</ele><time>2026-04-18T08:30:08.747Z</time></trkpt><trkpt lat="43.5236683" lon="10.791795"><ele>93.0</ele><time>2026-04-18T08:30:09.745Z</time></trkpt><trkpt lat="43.5236883" lon="10.7919433"><ele>93.0</ele><time>2026-04-18T08:30:10.743Z</time></trkpt><trkpt lat="43.523685" lon="10.792105"><ele>93.0</ele><time>2026-04-18T08:30:11.744Z</time></trkpt><trkpt lat="43.52367" lon="10.79228"><ele>93.0</ele><time>2026-04-18T08:30:12.743Z</time></trkpt><trkpt lat="43.5236383" lon="10.7924733"><ele>93.0</ele><time>2026-04-18T08:30:13.741Z</time></trkpt><trkpt lat="43.5235933" lon="10.7926967"><ele>93.0</ele><time>2026-04-18T08:30:14.743Z</time></trkpt><trkpt lat="43.5235467" lon="10.7929417"><ele>94.0</ele><time>2026-04-18T08:30:15.742Z</time></trkpt><trkpt lat="43.5235133" lon="10.7932017"><ele>95.0</ele><time>2026-04-18T08:30:16.743Z</time></trkpt><trkpt lat="43.5234883" lon="10.7934817"><ele>96.0</ele><time>2026-04-18T08:30:17.743Z</time></trkpt><trkpt lat="43.5234967" lon="10.7937883"><ele>96.0</ele><time>2026-04-18T08:30:18.744Z</time></trkpt><trkpt lat="43.523465" lon="10.7940467"><ele>96.0</ele><time>2026-04-18T08:30:19.745Z</time></trkpt><trkpt lat="43.523455" lon="10.7943033"><ele>96.0</ele><time>2026-04-18T08:30:20.743Z</time></trkpt><trkpt lat="43.5234517" lon="10.7945333"><ele>96.0</ele><time>2026-04-18T08:30:21.741Z</time></trkpt><trkpt lat="43.523435" lon="10.794725"><ele>96.0</ele><time>2026-04-18T08:30:22.743Z</time></trkpt><trkpt lat="43.523415" lon="10.79489"><ele>96.0</ele><time>2026-04-18T08:30:23.745Z</time></trkpt><trkpt lat="43.5234183" lon="10.79505"><ele>96.0</ele><time>2026-04-18T08:30:24.741Z</time></trkpt><trkpt lat="43.5234633" lon="10.7952317"><ele>94.66666666666667</ele><time>2026-04-18T08:30:25.746Z</time></trkpt><trkpt lat="43.523515" lon="10.7954483"><ele>93.33333333333334</ele><time>2026-04-18T08:30:26.746Z</time></trkpt><trkpt lat="43.5235883" lon="10.7956783"><ele>92.0</ele><time>2026-04-18T08:30:27.742Z</time></trkpt><trkpt lat="43.523645" lon="10.7959167"><ele>93.0</ele><time>2026-04-18T08:30:28.744Z</time></trkpt><trkpt lat="43.5237267" lon="10.7961267"><ele>94.0</ele><time>2026-04-18T08:30:29.744Z</time></trkpt><trkpt lat="43.5237983" lon="10.7963417"><ele>95.0</ele><time>2026-04-18T08:30:30.743Z</time></trkpt><trkpt lat="43.5238667" lon="10.79658"><ele>94.66666666666667</ele><time>2026-04-18T08:30:31.741Z</time></trkpt><trkpt lat="43.5239033" lon="10.7968617"><ele>94.33333333333333</ele><time>2026-04-18T08:30:32.752Z</time></trkpt><trkpt lat="43.5239467" lon="10.7971583"><ele>94.0</ele><time>2026-04-18T08:30:33.748Z</time></trkpt><trkpt lat="43.5239783" lon="10.7974717"><ele>95.33333333333333</ele><time>2026-04-18T08:30:34.745Z</time></trkpt><trkpt lat="43.5240067" lon="10.797775"><ele>96.66666666666666</ele><time>2026-04-18T08:30:35.749Z</time></trkpt><trkpt lat="43.5240183" lon="10.7980767"><ele>98.0</ele><time>2026-04-18T08:30:36.747Z</time></trkpt><trkpt lat="43.5240883" lon="10.7983333"><ele>99.0</ele><time>2026-04-18T08:30:37.745Z</time></trkpt><trkpt lat="43.5241283" lon="10.79859"><ele>100.0</ele><time>2026-04-18T08:30:38.75Z</time></trkpt><trkpt lat="43.52416" lon="10.7988567"><ele>101.0</ele><time>2026-04-18T08:30:39.748Z</time></trkpt><trkpt lat="43.5242217" lon="10.7990533"><ele>101.0</ele><time>2026-04-18T08:30:40.745Z</time></trkpt><trkpt lat="43.524245" lon="10.7992833"><ele>101.0</ele><time>2026-04-18T08:30:41.746Z</time></trkpt><trkpt lat="43.5242683" lon="10.7994567"><ele>101.0</ele><time>2026-04-18T08:30:42.747Z</time></trkpt><trkpt lat="43.5242467" lon="10.7996433"><ele>101.0</ele><time>2026-04-18T08:30:43.746Z</time></trkpt><trkpt lat="43.52422" lon="10.799845"><ele>100.75</ele><time>2026-04-18T08:30:44.748Z</time></trkpt><trkpt lat="43.524205" lon="10.8000283"><ele>100.5</ele><time>2026-04-18T08:30:45.745Z</time></trkpt><trkpt lat="43.5241817" lon="10.8002283"><ele>100.25</ele><time>2026-04-18T08:30:46.742Z</time></trkpt><trkpt lat="43.5241617" lon="10.8004417"><ele>100.0</ele><time>2026-04-18T08:30:47.744Z</time></trkpt><trkpt lat="43.52418" lon="10.8006367"><ele>100.0</ele><time>2026-04-18T08:30:48.744Z</time></trkpt><trkpt lat="43.524195" lon="10.8008083"><ele>100.0</ele><time>2026-04-18T08:30:49.748Z</time></trkpt><trkpt lat="43.5241617" lon="10.8009767"><ele>100.0</ele><time>2026-04-18T08:30:50.743Z</time></trkpt><trkpt lat="43.5241" lon="10.80117"><ele>100.0</ele><time>2026-04-18T08:30:51.74Z</time></trkpt><trkpt lat="43.524035" lon="10.8013667"><ele>100.75</ele><time>2026-04-18T08:30:52.741Z</time></trkpt><trkpt lat="43.5239833" lon="10.8015267"><ele>101.5</ele><time>2026-04-18T08:30:53.746Z</time></trkpt><trkpt lat="43.5239067" lon="10.8016767"><ele>102.25</ele><time>2026-04-18T08:30:54.744Z</time></trkpt><trkpt lat="43.5238167" lon="10.8018133"><ele>103.0</ele><time>2026-04-18T08:30:55.75Z</time></trkpt><trkpt lat="43.52373" lon="10.8019417"><ele>103.0</ele><time>2026-04-18T08:30:56.743Z</time></trkpt><trkpt lat="43.5236567" lon="10.8020517"><ele>103.0</ele><time>2026-04-18T08:30:57.742Z</time></trkpt><trkpt lat="43.5234967" lon="10.80213"><ele>103.0</ele><time>2026-04-18T08:30:58.744Z</time></trkpt><trkpt lat="43.52335" lon="10.8021967"><ele>103.0</ele><time>2026-04-18T08:30:59.745Z</time></trkpt><trkpt lat="43.523245" lon="10.802275"><ele>103.0</ele><time>2026-04-18T08:31:00.747Z</time></trkpt><trkpt lat="43.5231367" lon="10.8023467"><ele>103.0</ele><time>2026-04-18T08:31:01.745Z</time></trkpt><trkpt lat="43.523065" lon="10.8024667"><ele>103.0</ele><time>2026-04-18T08:31:02.745Z</time></trkpt><trkpt lat="43.523" lon="10.8026117"><ele>103.0</ele><time>2026-04-18T08:31:03.742Z</time></trkpt><trkpt lat="43.522955" lon="10.802775"><ele>102.80000000000001</ele><time>2026-04-18T08:31:04.743Z</time></trkpt><trkpt lat="43.5229317" lon="10.80292"><ele>102.6</ele><time>2026-04-18T08:31:05.743Z</time></trkpt><trkpt lat="43.5229017" lon="10.8030567"><ele>102.4</ele><time>2026-04-18T08:31:06.743Z</time></trkpt><trkpt lat="43.5228883" lon="10.8031967"><ele>102.19999999999999</ele><time>2026-04-18T08:31:07.745Z</time></trkpt><trkpt lat="43.5228817" lon="10.8033417"><ele>102.0</ele><time>2026-04-18T08:31:08.75Z</time></trkpt><trkpt lat="43.52288" lon="10.803495"><ele>103.0</ele><time>2026-04-18T08:31:09.749Z</time></trkpt><trkpt lat="43.5229133" lon="10.8036417"><ele>104.0</ele><time>2026-04-18T08:31:10.743Z</time></trkpt><trkpt lat="43.5229517" lon="10.8037967"><ele>105.0</ele><time>2026-04-18T08:31:11.745Z</time></trkpt><trkpt lat="43.52302" lon="10.8039767"><ele>106.0</ele><time>2026-04-18T08:31:12.748Z</time></trkpt><trkpt lat="43.5231167" lon="10.80417"><ele>104.0</ele><time>2026-04-18T08:31:13.746Z</time></trkpt><trkpt lat="43.5232283" lon="10.8043917"><ele>102.0</ele><time>2026-04-18T08:31:14.754Z</time></trkpt><trkpt lat="43.5233583" lon="10.8045733"><ele>100.0</ele><time>2026-04-18T08:31:15.744Z</time></trkpt><trkpt lat="43.5234283" lon="10.8047917"><ele>100.0</ele><time>2026-04-18T08:31:16.743Z</time></trkpt><trkpt lat="43.523505" lon="10.8049867"><ele>100.0</ele><time>2026-04-18T08:31:17.743Z</time></trkpt><trkpt lat="43.5235733" lon="10.80519"><ele>100.0</ele><time>2026-04-18T08:31:18.741Z</time></trkpt><trkpt lat="43.5236317" lon="10.8053967"><ele>99.75</ele><time>2026-04-18T08:31:19.744Z</time></trkpt><trkpt lat="43.52366" lon="10.8056117"><ele>99.5</ele><time>2026-04-18T08:31:20.744Z</time></trkpt><trkpt lat="43.5237083" lon="10.8057867"><ele>99.25</ele><time>2026-04-18T08:31:21.743Z</time></trkpt><trkpt lat="43.5237533" lon="10.80594"><ele>99.0</ele><time>2026-04-18T08:31:22.743Z</time></trkpt><trkpt lat="43.5237933" lon="10.8060833"><ele>98.25</ele><time>2026-04-18T08:31:23.741Z</time></trkpt><trkpt lat="43.5238" lon="10.8062267"><ele>97.5</ele><time>2026-04-18T08:31:24.745Z</time></trkpt><trkpt lat="43.5237983" lon="10.80638"><ele>96.75</ele><time>2026-04-18T08:31:25.745Z</time></trkpt><trkpt lat="43.5237783" lon="10.8065467"><ele>96.0</ele><time>2026-04-18T08:31:26.745Z</time></trkpt><trkpt lat="43.5237333" lon="10.80673"><ele>95.0</ele><time>2026-04-18T08:31:27.744Z</time></trkpt><trkpt lat="43.5236917" lon="10.80693"><ele>94.0</ele><time>2026-04-18T08:31:28.75Z</time></trkpt><trkpt lat="43.5236817" lon="10.8071467"><ele>93.0</ele><time>2026-04-18T08:31:29.744Z</time></trkpt><trkpt lat="43.5237233" lon="10.8073533"><ele>94.0</ele><time>2026-04-18T08:31:30.748Z</time></trkpt><trkpt lat="43.5237583" lon="10.8075767"><ele>95.0</ele><time>2026-04-18T08:31:31.75Z</time></trkpt><trkpt lat="43.523825" lon="10.8077867"><ele>96.0</ele><time>2026-04-18T08:31:32.745Z</time></trkpt><trkpt lat="43.523915" lon="10.8079683"><ele>96.0</ele><time>2026-04-18T08:31:33.749Z</time></trkpt><trkpt lat="43.5240217" lon="10.8080683"><ele>96.0</ele><time>2026-04-18T08:31:34.746Z</time></trkpt><trkpt lat="43.5240783" lon="10.808235"><ele>96.0</ele><time>2026-04-18T08:31:35.752Z</time></trkpt><trkpt lat="43.5240833" lon="10.8084583"><ele>96.0</ele><time>2026-04-18T08:31:36.744Z</time></trkpt><trkpt lat="43.5240983" lon="10.8086267"><ele>97.0</ele><time>2026-04-18T08:31:37.748Z</time></trkpt><trkpt lat="43.524105" lon="10.8088033"><ele>98.0</ele><time>2026-04-18T08:31:38.75Z</time></trkpt><trkpt lat="43.52406" lon="10.809025"><ele>99.0</ele><time>2026-04-18T08:31:39.752Z</time></trkpt><trkpt lat="43.5240933" lon="10.8091633"><ele>100.0</ele><time>2026-04-18T08:31:40.747Z</time></trkpt><trkpt lat="43.5240867" lon="10.8093817"><ele>101.0</ele><time>2026-04-18T08:31:41.744Z</time></trkpt><trkpt lat="43.5241067" lon="10.80958"><ele>102.0</ele><time>2026-04-18T08:31:42.741Z</time></trkpt><trkpt lat="43.52412" lon="10.8098117"><ele>103.0</ele><time>2026-04-18T08:31:43.746Z</time></trkpt><trkpt lat="43.5241167" lon="10.8100317"><ele>103.25</ele><time>2026-04-18T08:31:44.748Z</time></trkpt><trkpt lat="43.5241333" lon="10.8102117"><ele>103.5</ele><time>2026-04-18T08:31:45.742Z</time></trkpt><trkpt lat="43.5240783" lon="10.810415"><ele>103.75</ele><time>2026-04-18T08:31:46.744Z</time></trkpt><trkpt lat="43.524025" lon="10.8106017"><ele>104.0</ele><time>2026-04-18T08:31:47.741Z</time></trkpt><trkpt lat="43.523975" lon="10.81078"><ele>104.0</ele><time>2026-04-18T08:31:48.746Z</time></trkpt><trkpt lat="43.5239733" lon="10.8109517"><ele>104.0</ele><time>2026-04-18T08:31:49.743Z</time></trkpt><trkpt lat="43.5239467" lon="10.8111217"><ele>104.0</ele><time>2026-04-18T08:31:50.744Z</time></trkpt><trkpt lat="43.523915" lon="10.8112817"><ele>104.0</ele><time>2026-04-18T08:31:51.742Z</time></trkpt><trkpt lat="43.523875" lon="10.81144"><ele>103.5</ele><time>2026-04-18T08:31:52.74Z</time></trkpt><trkpt lat="43.5238033" lon="10.8115833"><ele>103.0</ele><time>2026-04-18T08:31:53.74Z</time></trkpt><trkpt lat="43.5237117" lon="10.8117117"><ele>102.5</ele><time>2026-04-18T08:31:54.746Z</time></trkpt><trkpt lat="43.52362" lon="10.811845"><ele>102.0</ele><time>2026-04-18T08:31:55.742Z</time></trkpt><trkpt lat="43.5235133" lon="10.8119567"><ele>104.8</ele><time>2026-04-18T08:31:56.746Z</time></trkpt><trkpt lat="43.5234117" lon="10.812025"><ele>107.6</ele><time>2026-04-18T08:31:57.742Z</time></trkpt><trkpt lat="43.5233167" lon="10.812075"><ele>110.39999999999999</ele><time>2026-04-18T08:31:58.746Z</time></trkpt><trkpt lat="43.5232217" lon="10.8121267"><ele>113.19999999999999</ele><time>2026-04-18T08:31:59.744Z</time></trkpt><trkpt lat="43.523135" lon="10.812195"><ele>116.0</ele><time>2026-04-18T08:32:00.742Z</time></trkpt><trkpt lat="43.5230617" lon="10.8122583"><ele>116.0</ele><time>2026-04-18T08:32:01.744Z</time></trkpt><trkpt lat="43.5229933" lon="10.812335"><ele>116.0</ele><time>2026-04-18T08:32:02.743Z</time></trkpt><trkpt lat="43.5229233" lon="10.8124333"><ele>116.0</ele><time>2026-04-18T08:32:03.746Z</time></trkpt><trkpt lat="43.5228683" lon="10.8125833"><ele>116.0</ele><time>2026-04-18T08:32:04.741Z</time></trkpt><trkpt lat="43.5228133" lon="10.8127633"><ele>117.5</ele><time>2026-04-18T08:32:05.74Z</time></trkpt><trkpt lat="43.52277" lon="10.8129317"><ele>119.0</ele><time>2026-04-18T08:32:06.741Z</time></trkpt><trkpt lat="43.5227233" lon="10.813055"><ele>120.5</ele><time>2026-04-18T08:32:07.74Z</time></trkpt><trkpt lat="43.5226367" lon="10.8131567"><ele>122.0</ele><time>2026-04-18T08:32:08.743Z</time></trkpt><trkpt lat="43.5225467" lon="10.81325"><ele>122.0</ele><time>2026-04-18T08:32:09.744Z</time></trkpt><trkpt lat="43.5224267" lon="10.8133333"><ele>122.0</ele><time>2026-04-18T08:32:10.744Z</time></trkpt><trkpt lat="43.5223417" lon="10.81344"><ele>122.0</ele><time>2026-04-18T08:32:11.743Z</time></trkpt><trkpt lat="43.522235" lon="10.8135217"><ele>122.0</ele><time>2026-04-18T08:32:12.741Z</time></trkpt><trkpt lat="43.5220667" lon="10.8136883"><ele>123.5</ele><time>2026-04-18T08:32:14.748Z</time></trkpt><trkpt lat="43.52202" lon="10.8138167"><ele>125.0</ele><time>2026-04-18T08:32:15.743Z</time></trkpt><trkpt lat="43.5219717" lon="10.81399"><ele>126.5</ele><time>2026-04-18T08:32:16.742Z</time></trkpt><trkpt lat="43.5219217" lon="10.8141917"><ele>128.0</ele><time>2026-04-18T08:32:17.745Z</time></trkpt><trkpt lat="43.5218833" lon="10.8143867"><ele>128.0</ele><time>2026-04-18T08:32:18.746Z</time></trkpt><trkpt lat="43.52181" lon="10.81455"><ele>128.0</ele><time>2026-04-18T08:32:19.747Z</time></trkpt><trkpt lat="43.5217683" lon="10.814675"><ele>128.0</ele><time>2026-04-18T08:32:20.743Z</time></trkpt><trkpt lat="43.52173" lon="10.8147917"><ele>128.0</ele><time>2026-04-18T08:32:21.742Z</time></trkpt><trkpt lat="43.5217533" lon="10.8149267"><ele>128.0</ele><time>2026-04-18T08:32:22.748Z</time></trkpt><trkpt lat="43.5217267" lon="10.8150783"><ele>127.75</ele><time>2026-04-18T08:32:23.742Z</time></trkpt><trkpt lat="43.5217167" lon="10.8152533"><ele>127.5</ele><time>2026-04-18T08:32:24.746Z</time></trkpt><trkpt lat="43.5217167" lon="10.8154167"><ele>127.25</ele><time>2026-04-18T08:32:25.746Z</time></trkpt><trkpt lat="43.52171" lon="10.8155683"><ele>127.0</ele><time>2026-04-18T08:32:26.749Z</time></trkpt><trkpt lat="43.5217183" lon="10.81571"><ele>127.0</ele><time>2026-04-18T08:32:27.747Z</time></trkpt><trkpt lat="43.521745" lon="10.8158367"><ele>127.0</ele><time>2026-04-18T08:32:28.743Z</time></trkpt><trkpt lat="43.5217867" lon="10.81596"><ele>127.0</ele><time>2026-04-18T08:32:29.743Z</time></trkpt><trkpt lat="43.5218567" lon="10.8160883"><ele>120.0</ele><time>2026-04-18T08:32:30.747Z</time></trkpt><trkpt lat="43.5219267" lon="10.8162283"><ele>120.0</ele><time>2026-04-18T08:32:31.747Z</time></trkpt></trkseg><trkseg><trkpt lat="43.52195" lon="10.81749"><ele>123.0</ele><time>2026-04-18T08:44:23.746Z</time></trkpt><trkpt lat="43.5218917" lon="10.8176317"><ele>123.0</ele><time>2026-04-18T08:44:25.747Z</time></trkpt><trkpt lat="43.521865" lon="10.817715"><ele>123.0</ele><time>2026-04-18T08:44:26.749Z</time></trkpt><trkpt lat="43.5218383" lon="10.8178067"><ele>123.0</ele><time>2026-04-18T08:44:27.742Z</time></trkpt><trkpt lat="43.5217967" lon="10.8178967"><ele>123.0</ele><time>2026-04-18T08:44:28.745Z</time></trkpt><trkpt lat="43.5217483" lon="10.81798"><ele>123.0</ele><time>2026-04-18T08:44:29.745Z</time></trkpt><trkpt lat="43.5216933" lon="10.818055"><ele>123.5</ele><time>2026-04-18T08:44:30.742Z</time></trkpt><trkpt lat="43.5216383" lon="10.8181267"><ele>124.0</ele><time>2026-04-18T08:44:31.739Z</time></trkpt><trkpt lat="43.5215883" lon="10.81819"><ele>124.5</ele><time>2026-04-18T08:44:32.747Z</time></trkpt><trkpt lat="43.52152" lon="10.8182833"><ele>125.0</ele><time>2026-04-18T08:44:34.742Z</time></trkpt><trkpt lat="43.521465" lon="10.8183333"><ele>125.5</ele><time>2026-04-18T08:44:40.744Z</time></trkpt><trkpt lat="43.5214083" lon="10.8183917"><ele>126.0</ele><time>2026-04-18T08:44:45.745Z</time></trkpt><trkpt lat="43.521335" lon="10.8185183"><ele>126.0</ele><time>2026-04-18T08:46:21.743Z</time></trkpt><trkpt lat="43.5213017" lon="10.8186367"><ele>126.0</ele><time>2026-04-18T08:46:23.745Z</time></trkpt><trkpt lat="43.521285" lon="10.81877"><ele>126.0</ele><time>2026-04-18T08:46:25.75Z</time></trkpt><trkpt lat="43.5212983" lon="10.8189417"><ele>126.0</ele><time>2026-04-18T08:46:27.746Z</time></trkpt><trkpt lat="43.5213233" lon="10.81904"><ele>126.0</ele><time>2026-04-18T08:46:28.742Z</time></trkpt><trkpt lat="43.5213567" lon="10.819135"><ele>126.0</ele><time>2026-04-18T08:46:29.753Z</time></trkpt><trkpt lat="43.5213967" lon="10.8192283"><ele>126.0</ele><time>2026-04-18T08:46:30.75Z</time></trkpt><trkpt lat="43.5214283" lon="10.81933"><ele>126.0</ele><time>2026-04-18T08:46:31.744Z</time></trkpt><trkpt lat="43.5214483" lon="10.8194417"><ele>126.0</ele><time>2026-04-18T08:46:32.747Z</time></trkpt><trkpt lat="43.5214567" lon="10.8195617"><ele>126.0</ele><time>2026-04-18T08:46:33.745Z</time></trkpt><trkpt lat="43.521445" lon="10.8196917"><ele>126.0</ele><time>2026-04-18T08:46:34.745Z</time></trkpt><trkpt lat="43.5214183" lon="10.8198233"><ele>123.8</ele><time>2026-04-18T08:46:35.744Z</time></trkpt><trkpt lat="43.52138" lon="10.8199533"><ele>121.6</ele><time>2026-04-18T08:46:36.744Z</time></trkpt><trkpt lat="43.5213417" lon="10.8200833"><ele>119.4</ele><time>2026-04-18T08:46:37.741Z</time></trkpt><trkpt lat="43.5213167" lon="10.8202417"><ele>117.2</ele><time>2026-04-18T08:46:38.745Z</time></trkpt><trkpt lat="43.52131" lon="10.8204117"><ele>115.0</ele><time>2026-04-18T08:46:39.742Z</time></trkpt><trkpt lat="43.5213183" lon="10.8206083"><ele>113.0</ele><time>2026-04-18T08:46:40.742Z</time></trkpt><trkpt lat="43.5213283" lon="10.8208067"><ele>111.0</ele><time>2026-04-18T08:46:41.744Z</time></trkpt><trkpt lat="43.5213333" lon="10.8209833"><ele>109.0</ele><time>2026-04-18T08:46:42.748Z</time></trkpt><trkpt lat="43.5213417" lon="10.8211617"><ele>107.0</ele><time>2026-04-18T08:46:43.75Z</time></trkpt><trkpt lat="43.5213567" lon="10.821345"><ele>106.5</ele><time>2026-04-18T08:46:44.749Z</time></trkpt><trkpt lat="43.52137" lon="10.821525"><ele>106.0</ele><time>2026-04-18T08:46:45.742Z</time></trkpt><trkpt lat="43.521375" lon="10.821695"><ele>105.5</ele><time>2026-04-18T08:46:46.74Z</time></trkpt><trkpt lat="43.5213767" lon="10.8218617"><ele>105.0</ele><time>2026-04-18T08:46:47.741Z</time></trkpt><trkpt lat="43.52138" lon="10.822015"><ele>104.83333333333333</ele><time>2026-04-18T08:46:48.744Z</time></trkpt><trkpt lat="43.5213867" lon="10.8221583"><ele>104.66666666666666</ele><time>2026-04-18T08:46:49.746Z</time></trkpt><trkpt lat="43.521395" lon="10.822285"><ele>104.5</ele><time>2026-04-18T08:46:50.746Z</time></trkpt><trkpt lat="43.5214033" lon="10.82239"><ele>104.33333333333333</ele><time>2026-04-18T08:46:51.75Z</time></trkpt><trkpt lat="43.5214183" lon="10.8224767"><ele>104.16666666666666</ele><time>2026-04-18T08:46:52.745Z</time></trkpt><trkpt lat="43.5214483" lon="10.8225533"><ele>104.0</ele><time>2026-04-18T08:46:53.746Z</time></trkpt><trkpt lat="43.521495" lon="10.82262"><ele>103.85714285714285</ele><time>2026-04-18T08:46:54.746Z</time></trkpt><trkpt lat="43.5215533" lon="10.8226667"><ele>103.71428571428572</ele><time>2026-04-18T08:46:55.75Z</time></trkpt><trkpt lat="43.5216167" lon="10.8227"><ele>103.57142857142857</ele><time>2026-04-18T08:46:56.745Z</time></trkpt><trkpt lat="43.52168" lon="10.822745"><ele>103.42857142857142</ele><time>2026-04-18T08:46:57.747Z</time></trkpt><trkpt lat="43.5217417" lon="10.8228033"><ele>103.28571428571428</ele><time>2026-04-18T08:46:58.749Z</time></trkpt><trkpt lat="43.521795" lon="10.82288"><ele>103.14285714285714</ele><time>2026-04-18T08:46:59.744Z</time></trkpt><trkpt lat="43.521835" lon="10.8229783"><ele>103.0</ele><time>2026-04-18T08:47:00.748Z</time></trkpt><trkpt lat="43.5218683" lon="10.8231017"><ele>103.0</ele><time>2026-04-18T08:47:01.743Z</time></trkpt><trkpt lat="43.5219" lon="10.8232467"><ele>103.0</ele><time>2026-04-18T08:47:02.745Z</time></trkpt><trkpt lat="43.5219317" lon="10.8233867"><ele>103.0</ele><time>2026-04-18T08:47:03.744Z</time></trkpt><trkpt lat="43.5219617" lon="10.823515"><ele>103.0</ele><time>2026-04-18T08:47:04.745Z</time></trkpt><trkpt lat="43.521985" lon="10.823635"><ele>103.0</ele><time>2026-04-18T08:47:05.743Z</time></trkpt><trkpt lat="43.5219967" lon="10.8237467"><ele>103.0</ele><time>2026-04-18T08:47:06.741Z</time></trkpt><trkpt lat="43.5219917" lon="10.82386"><ele>103.0</ele><time>2026-04-18T08:47:07.743Z</time></trkpt><trkpt lat="43.52197" lon="10.8239783"><ele>103.0</ele><time>2026-04-18T08:47:08.75Z</time></trkpt><trkpt lat="43.5219383" lon="10.8241117"><ele>103.0</ele><time>2026-04-18T08:47:09.74Z</time></trkpt><trkpt lat="43.5219017" lon="10.8242433"><ele>103.0</ele><time>2026-04-18T08:47:10.745Z</time></trkpt><trkpt lat="43.5218817" lon="10.8243733"><ele>102.0</ele><time>2026-04-18T08:47:11.745Z</time></trkpt><trkpt lat="43.5218817" lon="10.8245083"><ele>101.0</ele><time>2026-04-18T08:47:12.745Z</time></trkpt><trkpt lat="43.521895" lon="10.8246767"><ele>100.0</ele><time>2026-04-18T08:47:13.742Z</time></trkpt><trkpt lat="43.5219167" lon="10.82486"><ele>99.0</ele><time>2026-04-18T08:47:14.745Z</time></trkpt><trkpt lat="43.5219417" lon="10.82503"><ele>98.0</ele><time>2026-04-18T08:47:15.747Z</time></trkpt><trkpt lat="43.521965" lon="10.8251833"><ele>97.0</ele><time>2026-04-18T08:47:16.743Z</time></trkpt><trkpt lat="43.521985" lon="10.825325"><ele>96.0</ele><time>2026-04-18T08:47:17.744Z</time></trkpt><trkpt lat="43.5220017" lon="10.8254617"><ele>95.0</ele><time>2026-04-18T08:47:18.743Z</time></trkpt><trkpt lat="43.5220083" lon="10.8256"><ele>94.0</ele><time>2026-04-18T08:47:19.743Z</time></trkpt><trkpt lat="43.522" lon="10.825745"><ele>94.0</ele><time>2026-04-18T08:47:20.745Z</time></trkpt><trkpt lat="43.5219817" lon="10.825915"><ele>94.0</ele><time>2026-04-18T08:47:21.747Z</time></trkpt><trkpt lat="43.5219667" lon="10.8260917"><ele>94.0</ele><time>2026-04-18T08:47:22.748Z</time></trkpt><trkpt lat="43.52196" lon="10.8262533"><ele>94.0</ele><time>2026-04-18T08:47:23.747Z</time></trkpt><trkpt lat="43.5219667" lon="10.82641"><ele>94.75</ele><time>2026-04-18T08:47:24.745Z</time></trkpt><trkpt lat="43.5219933" lon="10.82659"><ele>95.5</ele><time>2026-04-18T08:47:25.741Z</time></trkpt><trkpt lat="43.522035" lon="10.8267833"><ele>96.25</ele><time>2026-04-18T08:47:26.742Z</time></trkpt><trkpt lat="43.522075" lon="10.8269733"><ele>97.0</ele><time>2026-04-18T08:47:27.743Z</time></trkpt><trkpt lat="43.522115" lon="10.8271633"><ele>97.00000000000001</ele><time>2026-04-18T08:47:28.745Z</time></trkpt><trkpt lat="43.5221483" lon="10.8273333"><ele>97.0</ele><time>2026-04-18T08:47:29.746Z</time></trkpt><trkpt lat="43.522175" lon="10.8274683"><ele>97.0</ele><time>2026-04-18T08:47:30.745Z</time></trkpt><trkpt lat="43.522195" lon="10.8275733"><ele>97.0</ele><time>2026-04-18T08:47:31.748Z</time></trkpt><trkpt lat="43.5222133" lon="10.8276667"><ele>97.00000000000001</ele><time>2026-04-18T08:47:32.743Z</time></trkpt><trkpt lat="43.5222267" lon="10.8277517"><ele>97.0</ele><time>2026-04-18T08:47:33.744Z</time></trkpt><trkpt lat="43.5221917" lon="10.8278883"><ele>97.0</ele><time>2026-04-18T08:47:35.745Z</time></trkpt><trkpt lat="43.5221233" lon="10.8280083"><ele>97.0</ele><time>2026-04-18T08:47:37.744Z</time></trkpt><trkpt lat="43.522015" lon="10.8280983"><ele>97.0</ele><time>2026-04-18T08:47:39.747Z</time></trkpt><trkpt lat="43.52194" lon="10.8281183"><ele>97.0</ele><time>2026-04-18T08:47:40.742Z</time></trkpt><trkpt lat="43.5218517" lon="10.82813"><ele>97.0</ele><time>2026-04-18T08:47:41.745Z</time></trkpt><trkpt lat="43.521745" lon="10.8281333"><ele>100.25</ele><time>2026-04-18T08:47:42.745Z</time></trkpt><trkpt lat="43.5216267" lon="10.8281417"><ele>103.5</ele><time>2026-04-18T08:47:43.746Z</time></trkpt><trkpt lat="43.5215067" lon="10.8281533"><ele>106.75</ele><time>2026-04-18T08:47:44.747Z</time></trkpt><trkpt lat="43.5213883" lon="10.8281683"><ele>110.0</ele><time>2026-04-18T08:47:45.746Z</time></trkpt><trkpt lat="43.5212717" lon="10.8281767"><ele>113.25</ele><time>2026-04-18T08:47:46.741Z</time></trkpt><trkpt lat="43.5211583" lon="10.82818"><ele>116.5</ele><time>2026-04-18T08:47:47.741Z</time></trkpt><trkpt lat="43.5210467" lon="10.828185"><ele>119.75</ele><time>2026-04-18T08:47:48.743Z</time></trkpt><trkpt lat="43.520935" lon="10.8282017"><ele>123.0</ele><time>2026-04-18T08:47:49.744Z</time></trkpt><trkpt lat="43.5208267" lon="10.8282467"><ele>123.0</ele><time>2026-04-18T08:47:50.746Z</time></trkpt><trkpt lat="43.5207217" lon="10.82832"><ele>123.00000000000001</ele><time>2026-04-18T08:47:51.742Z</time></trkpt><trkpt lat="43.5206217" lon="10.8284017"><ele>123.00000000000001</ele><time>2026-04-18T08:47:52.751Z</time></trkpt><trkpt lat="43.5205317" lon="10.8284783"><ele>123.0</ele><time>2026-04-18T08:47:53.745Z</time></trkpt><trkpt lat="43.5204483" lon="10.828545"><ele>123.0</ele><time>2026-04-18T08:47:54.747Z</time></trkpt><trkpt lat="43.520365" lon="10.8286167"><ele>125.0</ele><time>2026-04-18T08:47:55.744Z</time></trkpt><trkpt lat="43.5202833" lon="10.8286617"><ele>127.0</ele><time>2026-04-18T08:47:56.837Z</time></trkpt><trkpt lat="43.5201617" lon="10.82875"><ele>129.0</ele><time>2026-04-18T08:47:58.032Z</time></trkpt><trkpt lat="43.5199767" lon="10.82885"><ele>131.0</ele><time>2026-04-18T08:47:59.749Z</time></trkpt><trkpt lat="43.5198433" lon="10.8289033"><ele>131.0</ele><time>2026-04-18T08:48:00.746Z</time></trkpt><trkpt lat="43.519695" lon="10.828955"><ele>131.0</ele><time>2026-04-18T08:48:01.747Z</time></trkpt><trkpt lat="43.5195533" lon="10.8289983"><ele>131.0</ele><time>2026-04-18T08:48:02.743Z</time></trkpt><trkpt lat="43.5194133" lon="10.8290433"><ele>131.0</ele><time>2026-04-18T08:48:03.744Z</time></trkpt><trkpt lat="43.5192733" lon="10.8290883"><ele>130.5</ele><time>2026-04-18T08:48:04.743Z</time></trkpt><trkpt lat="43.5191467" lon="10.829135"><ele>130.0</ele><time>2026-04-18T08:48:05.745Z</time></trkpt><trkpt lat="43.5190283" lon="10.8291883"><ele>129.5</ele><time>2026-04-18T08:48:06.744Z</time></trkpt><trkpt lat="43.51891" lon="10.8292483"><ele>129.0</ele><time>2026-04-18T08:48:07.743Z</time></trkpt><trkpt lat="43.5187817" lon="10.8293133"><ele>133.66666666666666</ele><time>2026-04-18T08:48:08.744Z</time></trkpt><trkpt lat="43.518645" lon="10.8294133"><ele>138.33333333333331</ele><time>2026-04-18T08:48:09.745Z</time></trkpt><trkpt lat="43.5185" lon="10.8294417"><ele>143.0</ele><time>2026-04-18T08:48:10.743Z</time></trkpt><trkpt lat="43.5183333" lon="10.8295367"><ele>143.0</ele><time>2026-04-18T08:48:11.747Z</time></trkpt><trkpt lat="43.5181783" lon="10.8296133"><ele>143.0</ele><time>2026-04-18T08:48:12.747Z</time></trkpt><trkpt lat="43.518045" lon="10.8296767"><ele>143.0</ele><time>2026-04-18T08:48:13.746Z</time></trkpt><trkpt lat="43.5179167" lon="10.8296867"><ele>143.0</ele><time>2026-04-18T08:48:14.748Z</time></trkpt><trkpt lat="43.5178" lon="10.829745"><ele>146.4</ele><time>2026-04-18T08:48:15.755Z</time></trkpt><trkpt lat="43.5176933" lon="10.8297583"><ele>149.8</ele><time>2026-04-18T08:48:16.742Z</time></trkpt><trkpt lat="43.51758" lon="10.8298283"><ele>153.2</ele><time>2026-04-18T08:48:17.747Z</time></trkpt><trkpt lat="43.5174817" lon="10.8298617"><ele>156.6</ele><time>2026-04-18T08:48:18.743Z</time></trkpt><trkpt lat="43.5174117" lon="10.829935"><ele>160.0</ele><time>2026-04-18T08:48:19.743Z</time></trkpt><trkpt lat="43.5173317" lon="10.829995"><ele>160.0</ele><time>2026-04-18T08:48:22.746Z</time></trkpt><trkpt lat="43.5173033" lon="10.830085"><ele>160.0</ele><time>2026-04-18T08:48:23.751Z</time></trkpt><trkpt lat="43.5172567" lon="10.830265"><ele>160.0</ele><time>2026-04-18T08:48:25.744Z</time></trkpt><trkpt lat="43.5172117" lon="10.83033"><ele>160.0</ele><time>2026-04-18T08:48:27.748Z</time></trkpt><trkpt lat="43.5171717" lon="10.8304433"><ele>160.0</ele><time>2026-04-18T08:48:36.75Z</time></trkpt><trkpt lat="43.5170967" lon="10.8305883"><ele>163.4</ele><time>2026-04-18T08:48:38.742Z</time></trkpt><trkpt lat="43.5170467" lon="10.830685"><ele>166.8</ele><time>2026-04-18T08:48:39.743Z</time></trkpt><trkpt lat="43.5169933" lon="10.8307883"><ele>170.2</ele><time>2026-04-18T08:48:40.748Z</time></trkpt><trkpt lat="43.516935" lon="10.830905"><ele>173.6</ele><time>2026-04-18T08:48:41.747Z</time></trkpt><trkpt lat="43.5168767" lon="10.8310333"><ele>177.0</ele><time>2026-04-18T08:48:42.748Z</time></trkpt><trkpt lat="43.5168167" lon="10.8311583"><ele>177.0</ele><time>2026-04-18T08:48:43.746Z</time></trkpt><trkpt lat="43.51676" lon="10.831275"><ele>177.0</ele><time>2026-04-18T08:48:44.746Z</time></trkpt><trkpt lat="43.5167017" lon="10.83139"><ele>177.0</ele><time>2026-04-18T08:48:45.743Z</time></trkpt><trkpt lat="43.5166383" lon="10.8315083"><ele>177.0</ele><time>2026-04-18T08:48:46.744Z</time></trkpt><trkpt lat="43.5165683" lon="10.8316267"><ele>177.0</ele><time>2026-04-18T08:48:47.745Z</time></trkpt><trkpt lat="43.5165067" lon="10.831735"><ele>176.33333333333334</ele><time>2026-04-18T08:48:48.745Z</time></trkpt><trkpt lat="43.51645" lon="10.8318133"><ele>175.66666666666666</ele><time>2026-04-18T08:48:49.746Z</time></trkpt><trkpt lat="43.5163383" lon="10.8318883"><ele>175.0</ele><time>2026-04-18T08:48:51.747Z</time></trkpt><trkpt lat="43.5162667" lon="10.8319067"><ele>174.33333333333331</ele><time>2026-04-18T08:48:52.75Z</time></trkpt><trkpt lat="43.5161867" lon="10.831915"><ele>173.66666666666666</ele><time>2026-04-18T08:48:53.746Z</time></trkpt><trkpt lat="43.5161117" lon="10.831915"><ele>173.0</ele><time>2026-04-18T08:48:54.746Z</time></trkpt><trkpt lat="43.515995" lon="10.83188"><ele>176.0</ele><time>2026-04-18T08:48:56.744Z</time></trkpt><trkpt lat="43.51589" lon="10.8317733"><ele>179.0</ele><time>2026-04-18T08:48:58.747Z</time></trkpt><trkpt lat="43.5158333" lon="10.8316933"><ele>182.0</ele><time>2026-04-18T08:48:59.743Z</time></trkpt><trkpt lat="43.5157667" lon="10.8316"><ele>185.0</ele><time>2026-04-18T08:49:00.744Z</time></trkpt><trkpt lat="43.515695" lon="10.831515"><ele>188.0</ele><time>2026-04-18T08:49:01.742Z</time></trkpt><trkpt lat="43.5156183" lon="10.831435"><ele>188.0</ele><time>2026-04-18T08:49:02.742Z</time></trkpt><trkpt lat="43.51554" lon="10.8313567"><ele>188.0</ele><time>2026-04-18T08:49:03.744Z</time></trkpt><trkpt lat="43.5154567" lon="10.831285"><ele>188.0</ele><time>2026-04-18T08:49:04.747Z</time></trkpt><trkpt lat="43.51538" lon="10.8312233"><ele>188.0</ele><time>2026-04-18T08:49:05.748Z</time></trkpt><trkpt lat="43.515305" lon="10.8311683"><ele>188.0</ele><time>2026-04-18T08:49:06.748Z</time></trkpt><trkpt lat="43.515225" lon="10.83111"><ele>187.4</ele><time>2026-04-18T08:49:07.746Z</time></trkpt><trkpt lat="43.515145" lon="10.831055"><ele>186.8</ele><time>2026-04-18T08:49:08.745Z</time></trkpt><trkpt lat="43.51506" lon="10.831005"><ele>186.2</ele><time>2026-04-18T08:49:09.744Z</time></trkpt><trkpt lat="43.51497" lon="10.83097"><ele>185.6</ele><time>2026-04-18T08:49:10.74Z</time></trkpt><trkpt lat="43.5148667" lon="10.8309483"><ele>185.0</ele><time>2026-04-18T08:49:11.743Z</time></trkpt><trkpt lat="43.514755" lon="10.8309367"><ele>186.0</ele><time>2026-04-18T08:49:12.742Z</time></trkpt><trkpt lat="43.5146283" lon="10.8309383"><ele>187.0</ele><time>2026-04-18T08:49:13.741Z</time></trkpt><trkpt lat="43.5144933" lon="10.8309517"><ele>188.0</ele><time>2026-04-18T08:49:14.751Z</time></trkpt><trkpt lat="43.5143617" lon="10.83098"><ele>189.0</ele><time>2026-04-18T08:49:15.749Z</time></trkpt><trkpt lat="43.5142367" lon="10.831005"><ele>189.0</ele><time>2026-04-18T08:49:16.744Z</time></trkpt><trkpt lat="43.514115" lon="10.8310183"><ele>189.0</ele><time>2026-04-18T08:49:17.743Z</time></trkpt><trkpt lat="43.5140017" lon="10.8310233"><ele>189.0</ele><time>2026-04-18T08:49:18.744Z</time></trkpt><trkpt lat="43.513895" lon="10.831025"><ele>189.0</ele><time>2026-04-18T08:49:19.744Z</time></trkpt><trkpt lat="43.5137933" lon="10.8310383"><ele>189.0</ele><time>2026-04-18T08:49:20.747Z</time></trkpt><trkpt lat="43.513695" lon="10.8310717"><ele>192.75</ele><time>2026-04-18T08:49:21.746Z</time></trkpt><trkpt lat="43.513585" lon="10.83114"><ele>196.5</ele><time>2026-04-18T08:49:22.743Z</time></trkpt><trkpt lat="43.5134467" lon="10.8311483"><ele>200.25</ele><time>2026-04-18T08:49:25.745Z</time></trkpt><trkpt lat="43.5133117" lon="10.8312533"><ele>204.0</ele><time>2026-04-18T08:49:26.751Z</time></trkpt><trkpt lat="43.5132" lon="10.8313683"><ele>204.0</ele><time>2026-04-18T08:49:27.747Z</time></trkpt><trkpt lat="43.5131017" lon="10.8315083"><ele>204.0</ele><time>2026-04-18T08:49:28.748Z</time></trkpt><trkpt lat="43.51304" lon="10.8316267"><ele>204.0</ele><time>2026-04-18T08:49:29.75Z</time></trkpt><trkpt lat="43.5129167" lon="10.8318033"><ele>204.0</ele><time>2026-04-18T08:49:30.743Z</time></trkpt><trkpt lat="43.51282" lon="10.831895"><ele>206.0</ele><time>2026-04-18T08:49:31.744Z</time></trkpt><trkpt lat="43.512705" lon="10.8320017"><ele>208.0</ele><time>2026-04-18T08:49:32.747Z</time></trkpt><trkpt lat="43.5126083" lon="10.83205"><ele>210.0</ele><time>2026-04-18T08:49:33.744Z</time></trkpt><trkpt lat="43.51243" lon="10.8321417"><ele>212.0</ele><time>2026-04-18T08:49:35.743Z</time></trkpt><trkpt lat="43.5123367" lon="10.8322033"><ele>212.0</ele><time>2026-04-18T08:49:36.746Z</time></trkpt><trkpt lat="43.51227" lon="10.8322433"><ele>212.0</ele><time>2026-04-18T08:49:37.743Z</time></trkpt><trkpt lat="43.5121783" lon="10.8323633"><ele>212.0</ele><time>2026-04-18T08:49:39.744Z</time></trkpt><trkpt lat="43.5120867" lon="10.8325067"><ele>212.0</ele><time>2026-04-18T08:49:40.742Z</time></trkpt><trkpt lat="43.51202" lon="10.83267"><ele>208.75</ele><time>2026-04-18T08:49:41.743Z</time></trkpt><trkpt lat="43.511965" lon="10.83283"><ele>205.5</ele><time>2026-04-18T08:49:42.745Z</time></trkpt><trkpt lat="43.5119017" lon="10.8329683"><ele>202.25</ele><time>2026-04-18T08:49:43.743Z</time></trkpt><trkpt lat="43.51184" lon="10.8331167"><ele>199.0</ele><time>2026-04-18T08:49:44.749Z</time></trkpt><trkpt lat="43.5117767" lon="10.8332417"><ele>199.0</ele><time>2026-04-18T08:49:45.746Z</time></trkpt><trkpt lat="43.5117133" lon="10.8333417"><ele>199.0</ele><time>2026-04-18T08:49:46.746Z</time></trkpt><trkpt lat="43.511615" lon="10.8334733"><ele>199.0</ele><time>2026-04-18T08:49:47.744Z</time></trkpt><trkpt lat="43.5115283" lon="10.83354"><ele>199.0</ele><time>2026-04-18T08:49:48.744Z</time></trkpt><trkpt lat="43.5113933" lon="10.83364"><ele>199.39999999999998</ele><time>2026-04-18T08:49:49.742Z</time></trkpt><trkpt lat="43.5113017" lon="10.83369"><ele>199.8</ele><time>2026-04-18T08:49:50.749Z</time></trkpt><trkpt lat="43.511165" lon="10.8338233"><ele>200.2</ele><time>2026-04-18T08:49:51.744Z</time></trkpt><trkpt lat="43.511115" lon="10.8338783"><ele>200.60000000000002</ele><time>2026-04-18T08:49:52.75Z</time></trkpt><trkpt lat="43.51107" lon="10.834015"><ele>201.0</ele><time>2026-04-18T08:49:54.74Z</time></trkpt><trkpt lat="43.51107" lon="10.8341067"><ele>201.0</ele><time>2026-04-18T08:49:55.742Z</time></trkpt><trkpt lat="43.511085" lon="10.8342267"><ele>201.0</ele><time>2026-04-18T08:49:56.743Z</time></trkpt><trkpt lat="43.5111067" lon="10.83433"><ele>201.0</ele><time>2026-04-18T08:49:57.741Z</time></trkpt><trkpt lat="43.5111233" lon="10.8344417"><ele>201.0</ele><time>2026-04-18T08:49:58.744Z</time></trkpt><trkpt lat="43.511145" lon="10.8345633"><ele>201.0</ele><time>2026-04-18T08:49:59.747Z</time></trkpt><trkpt lat="43.5111367" lon="10.8346983"><ele>201.0</ele><time>2026-04-18T08:50:00.749Z</time></trkpt><trkpt lat="43.511105" lon="10.834855"><ele>200.5</ele><time>2026-04-18T08:50:01.744Z</time></trkpt><trkpt lat="43.5110533" lon="10.83502"><ele>200.0</ele><time>2026-04-18T08:50:02.743Z</time></trkpt><trkpt lat="43.5109917" lon="10.8351767"><ele>199.5</ele><time>2026-04-18T08:50:03.745Z</time></trkpt><trkpt lat="43.51096" lon="10.8353"><ele>199.0</ele><time>2026-04-18T08:50:04.742Z</time></trkpt><trkpt lat="43.51091" lon="10.835485"><ele>196.33333333333331</ele><time>2026-04-18T08:50:05.748Z</time></trkpt><trkpt lat="43.5108683" lon="10.8357"><ele>193.66666666666666</ele><time>2026-04-18T08:50:06.745Z</time></trkpt><trkpt lat="43.5108517" lon="10.8358983"><ele>191.0</ele><time>2026-04-18T08:50:07.747Z</time></trkpt><trkpt lat="43.5108483" lon="10.8361033"><ele>190.0</ele><time>2026-04-18T08:50:08.745Z</time></trkpt><trkpt lat="43.5108467" lon="10.8363317"><ele>189.0</ele><time>2026-04-18T08:50:09.746Z</time></trkpt><trkpt lat="43.5108517" lon="10.83654"><ele>188.0</ele><time>2026-04-18T08:50:10.748Z</time></trkpt><trkpt lat="43.5108533" lon="10.83674"><ele>188.5</ele><time>2026-04-18T08:50:11.748Z</time></trkpt><trkpt lat="43.5108483" lon="10.8369433"><ele>189.0</ele><time>2026-04-18T08:50:12.748Z</time></trkpt><trkpt lat="43.5108483" lon="10.8371167"><ele>189.5</ele><time>2026-04-18T08:50:13.745Z</time></trkpt><trkpt lat="43.5108283" lon="10.8372633"><ele>190.0</ele><time>2026-04-18T08:50:14.746Z</time></trkpt><trkpt lat="43.5107833" lon="10.8373983"><ele>190.0</ele><time>2026-04-18T08:50:15.747Z</time></trkpt><trkpt lat="43.5107483" lon="10.8375583"><ele>190.0</ele><time>2026-04-18T08:50:16.743Z</time></trkpt><trkpt lat="43.51071" lon="10.8377233"><ele>190.0</ele><time>2026-04-18T08:50:17.744Z</time></trkpt><trkpt lat="43.5106867" lon="10.8378583"><ele>190.0</ele><time>2026-04-18T08:50:18.743Z</time></trkpt><trkpt lat="43.5106733" lon="10.8380133"><ele>190.25</ele><time>2026-04-18T08:50:19.745Z</time></trkpt><trkpt lat="43.5106933" lon="10.83814"><ele>190.5</ele><time>2026-04-18T08:50:20.742Z</time></trkpt><trkpt lat="43.5107083" lon="10.8382933"><ele>190.75</ele><time>2026-04-18T08:50:21.742Z</time></trkpt><trkpt lat="43.5107417" lon="10.8384633"><ele>191.0</ele><time>2026-04-18T08:50:22.746Z</time></trkpt><trkpt lat="43.510775" lon="10.8386167"><ele>190.20000000000002</ele><time>2026-04-18T08:50:23.746Z</time></trkpt><trkpt lat="43.5108" lon="10.8387567"><ele>189.4</ele><time>2026-04-18T08:50:24.741Z</time></trkpt><trkpt lat="43.5108067" lon="10.8388717"><ele>188.6</ele><time>2026-04-18T08:50:25.746Z</time></trkpt><trkpt lat="43.51079" lon="10.83901"><ele>187.8</ele><time>2026-04-18T08:50:26.747Z</time></trkpt><trkpt lat="43.51077" lon="10.8391567"><ele>187.0</ele><time>2026-04-18T08:50:27.751Z</time></trkpt><trkpt lat="43.5107417" lon="10.8392533"><ele>186.5</ele><time>2026-04-18T08:50:28.745Z</time></trkpt><trkpt lat="43.5107167" lon="10.8393533"><ele>186.0</ele><time>2026-04-18T08:50:29.746Z</time></trkpt><trkpt lat="43.5106883" lon="10.83945"><ele>185.5</ele><time>2026-04-18T08:50:30.751Z</time></trkpt><trkpt lat="43.5106683" lon="10.8395517"><ele>185.0</ele><time>2026-04-18T08:50:31.748Z</time></trkpt><trkpt lat="43.5106567" lon="10.839675"><ele>184.5</ele><time>2026-04-18T08:50:32.747Z</time></trkpt><trkpt lat="43.51065" lon="10.8398167"><ele>184.0</ele><time>2026-04-18T08:50:33.744Z</time></trkpt><trkpt lat="43.5106533" lon="10.8399333"><ele>184.0</ele><time>2026-04-18T08:50:34.75Z</time></trkpt><trkpt lat="43.510665" lon="10.840075"><ele>184.0</ele><time>2026-04-18T08:50:35.743Z</time></trkpt><trkpt lat="43.510685" lon="10.8401967"><ele>184.0</ele><time>2026-04-18T08:50:36.744Z</time></trkpt><trkpt lat="43.510715" lon="10.8403233"><ele>184.0</ele><time>2026-04-18T08:50:37.745Z</time></trkpt><trkpt lat="43.5107383" lon="10.8404417"><ele>184.0</ele><time>2026-04-18T08:50:38.744Z</time></trkpt><trkpt lat="43.5107617" lon="10.8405567"><ele>183.75</ele><time>2026-04-18T08:50:39.743Z</time></trkpt><trkpt lat="43.510775" lon="10.8406967"><ele>183.5</ele><time>2026-04-18T08:50:40.746Z</time></trkpt><trkpt lat="43.5107933" lon="10.8408617"><ele>183.25</ele><time>2026-04-18T08:50:41.744Z</time></trkpt><trkpt lat="43.5108083" lon="10.8410617"><ele>183.0</ele><time>2026-04-18T08:50:42.746Z</time></trkpt><trkpt lat="43.5108233" lon="10.841275"><ele>183.0</ele><time>2026-04-18T08:50:43.746Z</time></trkpt><trkpt lat="43.5108417" lon="10.84147"><ele>183.0</ele><time>2026-04-18T08:50:44.747Z</time></trkpt><trkpt lat="43.5108617" lon="10.8416467"><ele>183.0</ele><time>2026-04-18T08:50:45.743Z</time></trkpt><trkpt lat="43.5108867" lon="10.8418117"><ele>183.0</ele><time>2026-04-18T08:50:46.745Z</time></trkpt><trkpt lat="43.5109333" lon="10.841975"><ele>183.5</ele><time>2026-04-18T08:50:47.742Z</time></trkpt><trkpt lat="43.5109867" lon="10.8421217"><ele>184.0</ele><time>2026-04-18T08:50:48.741Z</time></trkpt><trkpt lat="43.5110267" lon="10.8422633"><ele>184.5</ele><time>2026-04-18T08:50:49.74Z</time></trkpt><trkpt lat="43.511065" lon="10.8424233"><ele>185.0</ele><time>2026-04-18T08:50:50.742Z</time></trkpt><trkpt lat="43.5110917" lon="10.842585"><ele>184.5</ele><time>2026-04-18T08:50:51.743Z</time></trkpt><trkpt lat="43.5111067" lon="10.8427567"><ele>184.0</ele><time>2026-04-18T08:50:52.75Z</time></trkpt><trkpt lat="43.5111" lon="10.8429283"><ele>183.5</ele><time>2026-04-18T08:50:53.745Z</time></trkpt><trkpt lat="43.511095" lon="10.843105"><ele>183.0</ele><time>2026-04-18T08:50:54.744Z</time></trkpt><trkpt lat="43.5110683" lon="10.8433083"><ele>182.0</ele><time>2026-04-18T08:50:55.747Z</time></trkpt><trkpt lat="43.511035" lon="10.8435117"><ele>181.0</ele><time>2026-04-18T08:50:56.744Z</time></trkpt><trkpt lat="43.5110017" lon="10.843705"><ele>180.0</ele><time>2026-04-18T08:50:57.74Z</time></trkpt><trkpt lat="43.51098" lon="10.8438983"><ele>179.0</ele><time>2026-04-18T08:50:58.742Z</time></trkpt><trkpt lat="43.510975" lon="10.8440967"><ele>179.0</ele><time>2026-04-18T08:50:59.742Z</time></trkpt><trkpt lat="43.510995" lon="10.844295"><ele>179.0</ele><time>2026-04-18T08:51:00.742Z</time></trkpt><trkpt lat="43.51102" lon="10.8445017"><ele>179.0</ele><time>2026-04-18T08:51:01.745Z</time></trkpt><trkpt lat="43.51106" lon="10.8446833"><ele>179.0</ele><time>2026-04-18T08:51:02.745Z</time></trkpt><trkpt lat="43.51111" lon="10.8448517"><ele>178.5</ele><time>2026-04-18T08:51:03.743Z</time></trkpt><trkpt lat="43.5111733" lon="10.8450083"><ele>178.0</ele><time>2026-04-18T08:51:04.746Z</time></trkpt><trkpt lat="43.5112483" lon="10.845135"><ele>177.5</ele><time>2026-04-18T08:51:05.746Z</time></trkpt><trkpt lat="43.5113183" lon="10.8452683"><ele>177.0</ele><time>2026-04-18T08:51:06.745Z</time></trkpt><trkpt lat="43.5113867" lon="10.84539"><ele>177.0</ele><time>2026-04-18T08:51:07.75Z</time></trkpt><trkpt lat="43.5114483" lon="10.8455"><ele>177.0</ele><time>2026-04-18T08:51:08.747Z</time></trkpt><trkpt lat="43.51151" lon="10.8455983"><ele>177.0</ele><time>2026-04-18T08:51:09.743Z</time></trkpt><trkpt lat="43.5115733" lon="10.845715"><ele>177.0</ele><time>2026-04-18T08:51:10.746Z</time></trkpt><trkpt lat="43.51163" lon="10.8458417"><ele>177.0</ele><time>2026-04-18T08:51:11.745Z</time></trkpt><trkpt lat="43.511675" lon="10.845985"><ele>177.5</ele><time>2026-04-18T08:51:12.74Z</time></trkpt><trkpt lat="43.5117" lon="10.8461317"><ele>178.0</ele><time>2026-04-18T08:51:13.743Z</time></trkpt><trkpt lat="43.5117017" lon="10.8462983"><ele>178.5</ele><time>2026-04-18T08:51:14.747Z</time></trkpt><trkpt lat="43.5116817" lon="10.8464767"><ele>179.0</ele><time>2026-04-18T08:51:15.744Z</time></trkpt><trkpt lat="43.5116583" lon="10.8466467"><ele>179.0</ele><time>2026-04-18T08:51:16.742Z</time></trkpt><trkpt lat="43.5116333" lon="10.8468033"><ele>179.0</ele><time>2026-04-18T08:51:17.743Z</time></trkpt><trkpt lat="43.5116217" lon="10.8469317"><ele>179.0</ele><time>2026-04-18T08:51:18.746Z</time></trkpt><trkpt lat="43.511605" lon="10.8470483"><ele>179.0</ele><time>2026-04-18T08:51:19.744Z</time></trkpt><trkpt lat="43.51159" lon="10.8471517"><ele>179.0</ele><time>2026-04-18T08:51:20.747Z</time></trkpt><trkpt lat="43.5115883" lon="10.8472617"><ele>179.00000000000003</ele><time>2026-04-18T08:51:21.748Z</time></trkpt><trkpt lat="43.511605" lon="10.84735"><ele>179.0</ele><time>2026-04-18T08:51:22.744Z</time></trkpt><trkpt lat="43.5116283" lon="10.847445"><ele>179.0</ele><time>2026-04-18T08:51:23.748Z</time></trkpt><trkpt lat="43.5116417" lon="10.84753"><ele>179.0</ele><time>2026-04-18T08:51:24.745Z</time></trkpt><trkpt lat="43.5116617" lon="10.847625"><ele>179.0</ele><time>2026-04-18T08:51:25.745Z</time></trkpt><trkpt lat="43.511665" lon="10.847735"><ele>179.00000000000003</ele><time>2026-04-18T08:51:26.748Z</time></trkpt><trkpt lat="43.5116733" lon="10.8478467"><ele>179.0</ele><time>2026-04-18T08:51:27.745Z</time></trkpt><trkpt lat="43.5116817" lon="10.8479517"><ele>179.0</ele><time>2026-04-18T08:51:28.743Z</time></trkpt><trkpt lat="43.511695" lon="10.8480583"><ele>179.0</ele><time>2026-04-18T08:51:29.744Z</time></trkpt><trkpt lat="43.5117033" lon="10.8481633"><ele>179.0</ele><time>2026-04-18T08:51:30.746Z</time></trkpt><trkpt lat="43.5117117" lon="10.8482517"><ele>179.0</ele><time>2026-04-18T08:51:31.749Z</time></trkpt><trkpt lat="43.51175" lon="10.8484033"><ele>179.0</ele><time>2026-04-18T08:51:33.744Z</time></trkpt><trkpt lat="43.5117833" lon="10.84852"><ele>179.0</ele><time>2026-04-18T08:51:34.742Z</time></trkpt><trkpt lat="43.5118167" lon="10.8486367"><ele>177.6</ele><time>2026-04-18T08:51:35.745Z</time></trkpt><trkpt lat="43.511855" lon="10.8487933"><ele>176.2</ele><time>2026-04-18T08:51:36.744Z</time></trkpt><trkpt lat="43.5119033" lon="10.8489117"><ele>174.79999999999998</ele><time>2026-04-18T08:51:37.741Z</time></trkpt><trkpt lat="43.5119433" lon="10.84903"><ele>173.39999999999998</ele><time>2026-04-18T08:51:38.744Z</time></trkpt><trkpt lat="43.512005" lon="10.8491383"><ele>172.0</ele><time>2026-04-18T08:51:39.747Z</time></trkpt><trkpt lat="43.51207" lon="10.8492617"><ele>172.2</ele><time>2026-04-18T08:51:40.751Z</time></trkpt><trkpt lat="43.512135" lon="10.8493683"><ele>172.39999999999998</ele><time>2026-04-18T08:51:41.744Z</time></trkpt><trkpt lat="43.5122017" lon="10.8494467"><ele>172.60000000000002</ele><time>2026-04-18T08:51:42.749Z</time></trkpt><trkpt lat="43.51227" lon="10.8495333"><ele>172.8</ele><time>2026-04-18T08:51:43.746Z</time></trkpt><trkpt lat="43.5123467" lon="10.8496883"><ele>173.0</ele><time>2026-04-18T08:51:44.748Z</time></trkpt><trkpt lat="43.5124317" lon="10.849805"><ele>173.0</ele><time>2026-04-18T08:51:45.745Z</time></trkpt><trkpt lat="43.5125117" lon="10.8499267"><ele>173.0</ele><time>2026-04-18T08:51:46.742Z</time></trkpt><trkpt lat="43.51259" lon="10.850035"><ele>173.0</ele><time>2026-04-18T08:51:47.75Z</time></trkpt><trkpt lat="43.5126717" lon="10.8501233"><ele>173.0</ele><time>2026-04-18T08:51:48.753Z</time></trkpt><trkpt lat="43.512745" lon="10.8502067"><ele>173.0</ele><time>2026-04-18T08:51:49.742Z</time></trkpt><trkpt lat="43.5128267" lon="10.8502767"><ele>172.5</ele><time>2026-04-18T08:51:50.745Z</time></trkpt><trkpt lat="43.5128933" lon="10.8503783"><ele>172.0</ele><time>2026-04-18T08:51:51.745Z</time></trkpt><trkpt lat="43.5129633" lon="10.8504683"><ele>171.5</ele><time>2026-04-18T08:51:52.746Z</time></trkpt><trkpt lat="43.5130167" lon="10.85055"><ele>171.0</ele><time>2026-04-18T08:51:53.748Z</time></trkpt><trkpt lat="43.5130633" lon="10.850645"><ele>170.5</ele><time>2026-04-18T08:51:54.747Z</time></trkpt><trkpt lat="43.513105" lon="10.8507217"><ele>170.0</ele><time>2026-04-18T08:51:55.746Z</time></trkpt><trkpt lat="43.513165" lon="10.8508333"><ele>171.0</ele><time>2026-04-18T08:51:57.747Z</time></trkpt><trkpt lat="43.5131233" lon="10.8510467"><ele>172.0</ele><time>2026-04-18T08:51:59.746Z</time></trkpt><trkpt lat="43.5130583" lon="10.851195"><ele>173.0</ele><time>2026-04-18T08:52:00.752Z</time></trkpt><trkpt lat="43.5130283" lon="10.8513517"><ele>174.0</ele><time>2026-04-18T08:52:01.748Z</time></trkpt><trkpt lat="43.5130233" lon="10.851535"><ele>174.0</ele><time>2026-04-18T08:52:02.751Z</time></trkpt><trkpt lat="43.5129783" lon="10.8517367"><ele>174.0</ele><time>2026-04-18T08:52:03.749Z</time></trkpt><trkpt lat="43.51295" lon="10.851925"><ele>174.0</ele><time>2026-04-18T08:52:04.745Z</time></trkpt><trkpt lat="43.5128983" lon="10.8520983"><ele>174.0</ele><time>2026-04-18T08:52:05.743Z</time></trkpt><trkpt lat="43.5128467" lon="10.8522517"><ele>174.0</ele><time>2026-04-18T08:52:06.742Z</time></trkpt><trkpt lat="43.5128033" lon="10.8523933"><ele>174.0</ele><time>2026-04-18T08:52:07.746Z</time></trkpt><trkpt lat="43.512735" lon="10.852515"><ele>174.0</ele><time>2026-04-18T08:52:08.743Z</time></trkpt><trkpt lat="43.5126733" lon="10.852615"><ele>174.0</ele><time>2026-04-18T08:52:09.752Z</time></trkpt><trkpt lat="43.5126017" lon="10.8526983"><ele>174.0</ele><time>2026-04-18T08:52:10.741Z</time></trkpt><trkpt lat="43.512505" lon="10.852755"><ele>174.2</ele><time>2026-04-18T08:52:11.742Z</time></trkpt><trkpt lat="43.51242" lon="10.8528117"><ele>174.39999999999998</ele><time>2026-04-18T08:52:12.752Z</time></trkpt><trkpt lat="43.5123633" lon="10.8528967"><ele>174.6</ele><time>2026-04-18T08:52:13.748Z</time></trkpt><trkpt lat="43.5123267" lon="10.85301"><ele>174.8</ele><time>2026-04-18T08:52:14.746Z</time></trkpt><trkpt lat="43.5123067" lon="10.8531617"><ele>175.0</ele><time>2026-04-18T08:52:15.748Z</time></trkpt><trkpt lat="43.5123017" lon="10.85334"><ele>175.0</ele><time>2026-04-18T08:52:16.743Z</time></trkpt><trkpt lat="43.512305" lon="10.8535183"><ele>175.0</ele><time>2026-04-18T08:52:17.745Z</time></trkpt><trkpt lat="43.5123" lon="10.8536783"><ele>175.0</ele><time>2026-04-18T08:52:18.746Z</time></trkpt><trkpt lat="43.5122883" lon="10.8538417"><ele>175.0</ele><time>2026-04-18T08:52:19.752Z</time></trkpt><trkpt lat="43.5122867" lon="10.8540083"><ele>175.0</ele><time>2026-04-18T08:52:20.747Z</time></trkpt><trkpt lat="43.5122683" lon="10.8541783"><ele>175.0</ele><time>2026-04-18T08:52:21.748Z</time></trkpt><trkpt lat="43.5122667" lon="10.8543567"><ele>175.0</ele><time>2026-04-18T08:52:22.745Z</time></trkpt><trkpt lat="43.5122483" lon="10.8545483"><ele>175.0</ele><time>2026-04-18T08:52:23.747Z</time></trkpt><trkpt lat="43.5122333" lon="10.854745"><ele>175.33333333333334</ele><time>2026-04-18T08:52:24.748Z</time></trkpt><trkpt lat="43.512235" lon="10.8549533"><ele>175.66666666666666</ele><time>2026-04-18T08:52:25.746Z</time></trkpt><trkpt lat="43.512215" lon="10.8551683"><ele>176.0</ele><time>2026-04-18T08:52:26.746Z</time></trkpt><trkpt lat="43.5121967" lon="10.8553783"><ele>176.25</ele><time>2026-04-18T08:52:27.746Z</time></trkpt><trkpt lat="43.5121733" lon="10.8555817"><ele>176.5</ele><time>2026-04-18T08:52:28.75Z</time></trkpt><trkpt lat="43.5121617" lon="10.8557867"><ele>176.75</ele><time>2026-04-18T08:52:29.743Z</time></trkpt><trkpt lat="43.5121417" lon="10.8559917"><ele>177.0</ele><time>2026-04-18T08:52:30.744Z</time></trkpt><trkpt lat="43.5121333" lon="10.8561883"><ele>177.5</ele><time>2026-04-18T08:52:31.746Z</time></trkpt><trkpt lat="43.5121133" lon="10.8563667"><ele>178.0</ele><time>2026-04-18T08:52:32.749Z</time></trkpt><trkpt lat="43.5120767" lon="10.856525"><ele>178.5</ele><time>2026-04-18T08:52:33.744Z</time></trkpt><trkpt lat="43.512055" lon="10.8566933"><ele>179.0</ele><time>2026-04-18T08:52:34.745Z</time></trkpt><trkpt lat="43.5120467" lon="10.8568717"><ele>179.5</ele><time>2026-04-18T08:52:35.75Z</time></trkpt><trkpt lat="43.512045" lon="10.85704"><ele>180.0</ele><time>2026-04-18T08:52:36.748Z</time></trkpt><trkpt lat="43.51205" lon="10.8571967"><ele>180.5</ele><time>2026-04-18T08:52:37.745Z</time></trkpt><trkpt lat="43.5120617" lon="10.8573417"><ele>181.0</ele><time>2026-04-18T08:52:38.744Z</time></trkpt><trkpt lat="43.512085" lon="10.8574883"><ele>181.4</ele><time>2026-04-18T08:52:39.742Z</time></trkpt><trkpt lat="43.5121183" lon="10.8576417"><ele>181.8</ele><time>2026-04-18T08:52:40.745Z</time></trkpt><trkpt lat="43.512155" lon="10.857785"><ele>182.20000000000002</ele><time>2026-04-18T08:52:41.74Z</time></trkpt><trkpt lat="43.512205" lon="10.8579183"><ele>182.60000000000002</ele><time>2026-04-18T08:52:42.745Z</time></trkpt><trkpt lat="43.5122467" lon="10.8580433"><ele>183.0</ele><time>2026-04-18T08:52:43.746Z</time></trkpt><trkpt lat="43.51228" lon="10.858165"><ele>183.0</ele><time>2026-04-18T08:52:44.745Z</time></trkpt><trkpt lat="43.5123283" lon="10.8582817"><ele>183.0</ele><time>2026-04-18T08:52:45.747Z</time></trkpt><trkpt lat="43.5123683" lon="10.8584"><ele>183.0</ele><time>2026-04-18T08:52:46.748Z</time></trkpt><trkpt lat="43.5124083" lon="10.8585217"><ele>183.0</ele><time>2026-04-18T08:52:47.751Z</time></trkpt><trkpt lat="43.5124517" lon="10.8586533"><ele>183.0</ele><time>2026-04-18T08:52:48.749Z</time></trkpt><trkpt lat="43.512505" lon="10.8587883"><ele>182.4</ele><time>2026-04-18T08:52:49.746Z</time></trkpt><trkpt lat="43.5125783" lon="10.8588983"><ele>181.8</ele><time>2026-04-18T08:52:50.748Z</time></trkpt><trkpt lat="43.5126517" lon="10.8589883"><ele>181.2</ele><time>2026-04-18T08:52:51.748Z</time></trkpt><trkpt lat="43.5127083" lon="10.8590817"><ele>180.6</ele><time>2026-04-18T08:52:52.747Z</time></trkpt><trkpt lat="43.5127717" lon="10.85919"><ele>180.0</ele><time>2026-04-18T08:52:53.745Z</time></trkpt><trkpt lat="43.51285" lon="10.859315"><ele>181.25</ele><time>2026-04-18T08:52:54.742Z</time></trkpt><trkpt lat="43.5129433" lon="10.859455"><ele>182.5</ele><time>2026-04-18T08:52:55.743Z</time></trkpt><trkpt lat="43.5130383" lon="10.8596"><ele>183.75</ele><time>2026-04-18T08:52:56.753Z</time></trkpt><trkpt lat="43.5131333" lon="10.8597167"><ele>185.0</ele><time>2026-04-18T08:52:57.747Z</time></trkpt><trkpt lat="43.5132233" lon="10.8598117"><ele>185.0</ele><time>2026-04-18T08:52:58.743Z</time></trkpt><trkpt lat="43.5133" lon="10.85995"><ele>185.0</ele><time>2026-04-18T08:52:59.747Z</time></trkpt><trkpt lat="43.513385" lon="10.8600933"><ele>185.0</ele><time>2026-04-18T08:53:00.745Z</time></trkpt><trkpt lat="43.5134717" lon="10.8602317"><ele>185.0</ele><time>2026-04-18T08:53:01.742Z</time></trkpt><trkpt lat="43.5135633" lon="10.860305"><ele>184.6</ele><time>2026-04-18T08:53:02.745Z</time></trkpt><trkpt lat="43.5136417" lon="10.8603917"><ele>184.2</ele><time>2026-04-18T08:53:03.741Z</time></trkpt><trkpt lat="43.5137167" lon="10.860485"><ele>183.8</ele><time>2026-04-18T08:53:04.743Z</time></trkpt><trkpt lat="43.5138033" lon="10.8605333"><ele>183.4</ele><time>2026-04-18T08:53:05.745Z</time></trkpt><trkpt lat="43.5138883" lon="10.86057"><ele>183.0</ele><time>2026-04-18T08:53:06.741Z</time></trkpt><trkpt lat="43.513975" lon="10.8606033"><ele>185.2</ele><time>2026-04-18T08:53:07.743Z</time></trkpt><trkpt lat="43.5140567" lon="10.860645"><ele>187.4</ele><time>2026-04-18T08:53:08.743Z</time></trkpt><trkpt lat="43.51413" lon="10.860705"><ele>189.6</ele><time>2026-04-18T08:53:09.746Z</time></trkpt><trkpt lat="43.5141933" lon="10.86079"><ele>191.79999999999998</ele><time>2026-04-18T08:53:10.747Z</time></trkpt><trkpt lat="43.5142467" lon="10.8608917"><ele>194.0</ele><time>2026-04-18T08:53:11.746Z</time></trkpt><trkpt lat="43.5142867" lon="10.86102"><ele>195.6</ele><time>2026-04-18T08:53:12.747Z</time></trkpt><trkpt lat="43.5143133" lon="10.8611733"><ele>197.2</ele><time>2026-04-18T08:53:13.747Z</time></trkpt><trkpt lat="43.51433" lon="10.86132"><ele>198.79999999999998</ele><time>2026-04-18T08:53:14.746Z</time></trkpt><trkpt lat="43.51436" lon="10.8614233"><ele>200.39999999999998</ele><time>2026-04-18T08:53:15.751Z</time></trkpt><trkpt lat="43.5143733" lon="10.8615133"><ele>202.0</ele><time>2026-04-18T08:53:16.749Z</time></trkpt><trkpt lat="43.5143767" lon="10.8616467"><ele>201.99999999999997</ele><time>2026-04-18T08:53:18.749Z</time></trkpt><trkpt lat="43.5143517" lon="10.86174"><ele>202.0</ele><time>2026-04-18T08:53:21.746Z</time></trkpt><trkpt lat="43.51427" lon="10.8618133"><ele>202.0</ele><time>2026-04-18T08:53:46.748Z</time></trkpt><trkpt lat="43.5142117" lon="10.8618617"><ele>202.0</ele><time>2026-04-18T08:53:47.752Z</time></trkpt><trkpt lat="43.5141517" lon="10.8619233"><ele>201.99999999999997</ele><time>2026-04-18T08:53:48.747Z</time></trkpt><trkpt lat="43.5140867" lon="10.86199"><ele>202.0</ele><time>2026-04-18T08:53:49.744Z</time></trkpt><trkpt lat="43.5140117" lon="10.8620567"><ele>202.6</ele><time>2026-04-18T08:53:50.745Z</time></trkpt><trkpt lat="43.51395" lon="10.862155"><ele>203.2</ele><time>2026-04-18T08:53:51.746Z</time></trkpt><trkpt lat="43.5139033" lon="10.8622683"><ele>203.8</ele><time>2026-04-18T08:53:52.744Z</time></trkpt><trkpt lat="43.5138667" lon="10.8623917"><ele>204.4</ele><time>2026-04-18T08:53:53.743Z</time></trkpt><trkpt lat="43.5138383" lon="10.8625167"><ele>205.0</ele><time>2026-04-18T08:53:54.748Z</time></trkpt><trkpt lat="43.5138517" lon="10.8626733"><ele>206.0</ele><time>2026-04-18T08:53:55.743Z</time></trkpt><trkpt lat="43.5138683" lon="10.8628183"><ele>207.0</ele><time>2026-04-18T08:53:56.744Z</time></trkpt><trkpt lat="43.5138967" lon="10.8629617"><ele>208.0</ele><time>2026-04-18T08:53:57.743Z</time></trkpt><trkpt lat="43.5139417" lon="10.8630917"><ele>209.0</ele><time>2026-04-18T08:53:58.743Z</time></trkpt><trkpt lat="43.5139967" lon="10.86321"><ele>210.0</ele><time>2026-04-18T08:53:59.741Z</time></trkpt><trkpt lat="43.5140617" lon="10.863315"><ele>210.0</ele><time>2026-04-18T08:54:00.742Z</time></trkpt><trkpt lat="43.5141183" lon="10.863425"><ele>210.0</ele><time>2026-04-18T08:54:01.743Z</time></trkpt><trkpt lat="43.51416" lon="10.86355"><ele>210.0</ele><time>2026-04-18T08:54:02.743Z</time></trkpt><trkpt lat="43.514195" lon="10.8636867"><ele>210.0</ele><time>2026-04-18T08:54:03.741Z</time></trkpt><trkpt lat="43.51423" lon="10.863815"><ele>210.0</ele><time>2026-04-18T08:54:04.746Z</time></trkpt><trkpt lat="43.5142417" lon="10.86396"><ele>211.2</ele><time>2026-04-18T08:54:05.744Z</time></trkpt><trkpt lat="43.51425" lon="10.8641083"><ele>212.4</ele><time>2026-04-18T08:54:06.746Z</time></trkpt><trkpt lat="43.5142617" lon="10.864255"><ele>213.60000000000002</ele><time>2026-04-18T08:54:07.746Z</time></trkpt><trkpt lat="43.514275" lon="10.8644"><ele>214.8</ele><time>2026-04-18T08:54:08.743Z</time></trkpt><trkpt lat="43.5142933" lon="10.8645433"><ele>216.0</ele><time>2026-04-18T08:54:09.745Z</time></trkpt><trkpt lat="43.5142917" lon="10.8646917"><ele>217.8</ele><time>2026-04-18T08:54:10.743Z</time></trkpt><trkpt lat="43.5143017" lon="10.8648333"><ele>219.60000000000002</ele><time>2026-04-18T08:54:11.745Z</time></trkpt><trkpt lat="43.5143067" lon="10.8649767"><ele>221.4</ele><time>2026-04-18T08:54:12.744Z</time></trkpt><trkpt lat="43.5143183" lon="10.8651217"><ele>223.2</ele><time>2026-04-18T08:54:13.744Z</time></trkpt><trkpt lat="43.51434" lon="10.86527"><ele>225.0</ele><time>2026-04-18T08:54:14.742Z</time></trkpt><trkpt lat="43.5143517" lon="10.8654117"><ele>227.0</ele><time>2026-04-18T08:54:15.744Z</time></trkpt><trkpt lat="43.514365" lon="10.865545"><ele>229.0</ele><time>2026-04-18T08:54:16.745Z</time></trkpt><trkpt lat="43.5143833" lon="10.8656833"><ele>231.0</ele><time>2026-04-18T08:54:17.741Z</time></trkpt><trkpt lat="43.5144033" lon="10.8658283"><ele>233.0</ele><time>2026-04-18T08:54:18.741Z</time></trkpt><trkpt lat="43.5144383" lon="10.8659767"><ele>235.0</ele><time>2026-04-18T08:54:19.742Z</time></trkpt><trkpt lat="43.514465" lon="10.8661417"><ele>234.75</ele><time>2026-04-18T08:54:20.747Z</time></trkpt><trkpt lat="43.5145067" lon="10.8663233"><ele>234.5</ele><time>2026-04-18T08:54:21.743Z</time></trkpt><trkpt lat="43.5145383" lon="10.8664967"><ele>234.25</ele><time>2026-04-18T08:54:22.747Z</time></trkpt><trkpt lat="43.5145617" lon="10.8666533"><ele>234.0</ele><time>2026-04-18T08:54:23.744Z</time></trkpt><trkpt lat="43.514585" lon="10.866805"><ele>234.0</ele><time>2026-04-18T08:54:24.742Z</time></trkpt><trkpt lat="43.5145783" lon="10.86695"><ele>233.99999999999997</ele><time>2026-04-18T08:54:25.742Z</time></trkpt><trkpt lat="43.5145783" lon="10.8670983"><ele>233.99999999999997</ele><time>2026-04-18T08:54:26.744Z</time></trkpt><trkpt lat="43.5146067" lon="10.8672483"><ele>234.0</ele><time>2026-04-18T08:54:27.746Z</time></trkpt><trkpt lat="43.5146583" lon="10.8674017"><ele>234.0</ele><time>2026-04-18T08:54:28.743Z</time></trkpt><trkpt lat="43.5147168" lon="10.8675673"><ele>235.75</ele><time>2026-04-18T08:54:29.745Z</time></trkpt><trkpt lat="43.5147874" lon="10.8677356"><ele>237.5</ele><time>2026-04-18T08:54:30.746Z</time></trkpt><trkpt lat="43.5148583" lon="10.8678863"><ele>239.25</ele><time>2026-04-18T08:54:31.742Z</time></trkpt><trkpt lat="43.5149182" lon="10.8680206"><ele>241.0</ele><time>2026-04-18T08:54:32.748Z</time></trkpt><trkpt lat="43.5149831" lon="10.868137"><ele>241.0</ele><time>2026-04-18T08:54:33.748Z</time></trkpt><trkpt lat="43.5150459" lon="10.8682507"><ele>241.0</ele><time>2026-04-18T08:54:34.744Z</time></trkpt><trkpt lat="43.5151123" lon="10.8683641"><ele>241.0</ele><time>2026-04-18T08:54:35.747Z</time></trkpt><trkpt lat="43.5151868" lon="10.8684885"><ele>241.0</ele><time>2026-04-18T08:54:36.749Z</time></trkpt><trkpt lat="43.5152623" lon="10.8686308"><ele>240.0</ele><time>2026-04-18T08:54:37.748Z</time></trkpt><trkpt lat="43.5153447" lon="10.8687806"><ele>239.0</ele><time>2026-04-18T08:54:38.743Z</time></trkpt><trkpt lat="43.5154385" lon="10.8689326"><ele>238.0</ele><time>2026-04-18T08:54:39.747Z</time></trkpt><trkpt lat="43.5155468" lon="10.8690769"><ele>237.0</ele><time>2026-04-18T08:54:40.75Z</time></trkpt><trkpt lat="43.5156568" lon="10.8692317"><ele>242.66666666666669</ele><time>2026-04-18T08:54:41.745Z</time></trkpt><trkpt lat="43.5157781" lon="10.8693953"><ele>248.33333333333334</ele><time>2026-04-18T08:54:42.745Z</time></trkpt><trkpt lat="43.5158917" lon="10.8695734"><ele>254.0</ele><time>2026-04-18T08:54:43.748Z</time></trkpt><trkpt lat="43.5159998" lon="10.8697299"><ele>254.0</ele><time>2026-04-18T08:54:44.747Z</time></trkpt><trkpt lat="43.5160915" lon="10.8698619"><ele>253.99999999999997</ele><time>2026-04-18T08:54:45.744Z</time></trkpt><trkpt lat="43.5161724" lon="10.8699695"><ele>253.99999999999997</ele><time>2026-04-18T08:54:46.745Z</time></trkpt><trkpt lat="43.5162297" lon="10.8700758"><ele>254.0</ele><time>2026-04-18T08:54:47.746Z</time></trkpt><trkpt lat="43.5162672" lon="10.8701807"><ele>254.0</ele><time>2026-04-18T08:54:48.743Z</time></trkpt><trkpt lat="43.5162883" lon="10.8702913"><ele>259.4</ele><time>2026-04-18T08:54:49.745Z</time></trkpt><trkpt lat="43.5162854" lon="10.870421"><ele>264.79999999999995</ele><time>2026-04-18T08:54:50.743Z</time></trkpt><trkpt lat="43.5162677" lon="10.8705659"><ele>270.20000000000005</ele><time>2026-04-18T08:54:51.746Z</time></trkpt><trkpt lat="43.5162673" lon="10.8707037"><ele>275.6</ele><time>2026-04-18T08:54:52.743Z</time></trkpt><trkpt lat="43.5162606" lon="10.8708159"><ele>281.0</ele><time>2026-04-18T08:54:53.742Z</time></trkpt><trkpt lat="43.5162366" lon="10.8709083"><ele>281.83333333333337</ele><time>2026-04-18T08:54:54.745Z</time></trkpt><trkpt lat="43.5161852" lon="10.8709708"><ele>282.6666666666667</ele><time>2026-04-18T08:54:55.742Z</time></trkpt><trkpt lat="43.5161123" lon="10.8709882"><ele>283.5</ele><time>2026-04-18T08:54:56.743Z</time></trkpt><trkpt lat="43.5160263" lon="10.8709959"><ele>284.3333333333333</ele><time>2026-04-18T08:54:57.743Z</time></trkpt><trkpt lat="43.5159214" lon="10.8710069"><ele>285.16666666666663</ele><time>2026-04-18T08:54:58.743Z</time></trkpt><trkpt lat="43.5158203" lon="10.8710427"><ele>286.0</ele><time>2026-04-18T08:54:59.745Z</time></trkpt><trkpt lat="43.5157327" lon="10.8711165"><ele>286.0</ele><time>2026-04-18T08:55:00.741Z</time></trkpt><trkpt lat="43.5156617" lon="10.8712133"><ele>286.0</ele><time>2026-04-18T08:55:01.749Z</time></trkpt><trkpt lat="43.515605" lon="10.8713317"><ele>286.0</ele><time>2026-04-18T08:55:02.745Z</time></trkpt><trkpt lat="43.5155633" lon="10.8714833"><ele>286.0</ele><time>2026-04-18T08:55:03.752Z</time></trkpt><trkpt lat="43.515555" lon="10.871645"><ele>286.0</ele><time>2026-04-18T08:55:04.743Z</time></trkpt><trkpt lat="43.5155317" lon="10.87176"><ele>288.0</ele><time>2026-04-18T08:55:05.742Z</time></trkpt><trkpt lat="43.5155083" lon="10.8718417"><ele>290.0</ele><time>2026-04-18T08:55:06.743Z</time></trkpt><trkpt lat="43.5155367" lon="10.871995"><ele>292.0</ele><time>2026-04-18T08:55:08.743Z</time></trkpt><trkpt lat="43.5155833" lon="10.8720833"><ele>294.0</ele><time>2026-04-18T08:55:10.743Z</time></trkpt><trkpt lat="43.5157083" lon="10.8720717"><ele>296.0</ele><time>2026-04-18T08:55:12.743Z</time></trkpt><trkpt lat="43.5157967" lon="10.8720717"><ele>296.0</ele><time>2026-04-18T08:55:13.743Z</time></trkpt><trkpt lat="43.515885" lon="10.87208"><ele>296.0</ele><time>2026-04-18T08:55:14.742Z</time></trkpt><trkpt lat="43.5159683" lon="10.8721083"><ele>296.0</ele><time>2026-04-18T08:55:15.742Z</time></trkpt><trkpt lat="43.51604" lon="10.8721617"><ele>296.0</ele><time>2026-04-18T08:55:16.744Z</time></trkpt><trkpt lat="43.5161" lon="10.87222"><ele>296.0</ele><time>2026-04-18T08:55:17.74Z</time></trkpt><trkpt lat="43.5161267" lon="10.8723217"><ele>296.0</ele><time>2026-04-18T08:55:18.744Z</time></trkpt><trkpt lat="43.5161333" lon="10.8724483"><ele>296.0</ele><time>2026-04-18T08:55:19.741Z</time></trkpt><trkpt lat="43.5161633" lon="10.8725683"><ele>296.0</ele><time>2026-04-18T08:55:20.744Z</time></trkpt><trkpt lat="43.5162" lon="10.8726767"><ele>296.0</ele><time>2026-04-18T08:55:21.741Z</time></trkpt><trkpt lat="43.5162433" lon="10.87277"><ele>296.0</ele><time>2026-04-18T08:55:22.746Z</time></trkpt><trkpt lat="43.516295" lon="10.87285"><ele>296.0</ele><time>2026-04-18T08:55:23.741Z</time></trkpt><trkpt lat="43.516345" lon="10.8729167"><ele>296.0</ele><time>2026-04-18T08:55:24.743Z</time></trkpt><trkpt lat="43.51636" lon="10.8730733"><ele>299.33333333333337</ele><time>2026-04-18T08:55:26.744Z</time></trkpt><trkpt lat="43.51634" lon="10.8731667"><ele>302.6666666666667</ele><time>2026-04-18T08:55:27.742Z</time></trkpt><trkpt lat="43.516335" lon="10.8732817"><ele>306.0</ele><time>2026-04-18T08:55:28.742Z</time></trkpt><trkpt lat="43.516325" lon="10.87341"><ele>309.3333333333333</ele><time>2026-04-18T08:55:29.742Z</time></trkpt><trkpt lat="43.5163233" lon="10.8735467"><ele>312.66666666666663</ele><time>2026-04-18T08:55:30.745Z</time></trkpt><trkpt lat="43.5162967" lon="10.8736767"><ele>316.0</ele><time>2026-04-18T08:55:31.744Z</time></trkpt><trkpt lat="43.51627" lon="10.8738017"><ele>315.8</ele><time>2026-04-18T08:55:32.745Z</time></trkpt><trkpt lat="43.5162583" lon="10.87392"><ele>315.6</ele><time>2026-04-18T08:55:33.744Z</time></trkpt><trkpt lat="43.5162433" lon="10.8740517"><ele>315.4</ele><time>2026-04-18T08:55:34.744Z</time></trkpt><trkpt lat="43.5161917" lon="10.87419"><ele>315.2</ele><time>2026-04-18T08:55:35.743Z</time></trkpt><trkpt lat="43.516135" lon="10.8743083"><ele>315.0</ele><time>2026-04-18T08:55:36.744Z</time></trkpt><trkpt lat="43.5160867" lon="10.87442"><ele>315.0</ele><time>2026-04-18T08:55:37.742Z</time></trkpt><trkpt lat="43.5160217" lon="10.8745033"><ele>315.0</ele><time>2026-04-18T08:55:38.743Z</time></trkpt><trkpt lat="43.5159117" lon="10.8745833"><ele>315.0</ele><time>2026-04-18T08:55:40.74Z</time></trkpt><trkpt lat="43.51585" lon="10.8746017"><ele>315.0</ele><time>2026-04-18T08:55:41.744Z</time></trkpt><trkpt lat="43.5157417" lon="10.8746667"><ele>315.0</ele><time>2026-04-18T08:55:43.74Z</time></trkpt><trkpt lat="43.5156817" lon="10.874705"><ele>315.0</ele><time>2026-04-18T08:55:44.744Z</time></trkpt><trkpt lat="43.51562" lon="10.8747667"><ele>315.0</ele><time>2026-04-18T08:55:45.744Z</time></trkpt><trkpt lat="43.5155233" lon="10.8748583"><ele>315.0</ele><time>2026-04-18T08:55:46.743Z</time></trkpt><trkpt lat="43.515435" lon="10.87495"><ele>315.0</ele><time>2026-04-18T08:55:47.741Z</time></trkpt><trkpt lat="43.51533" lon="10.8750183"><ele>315.0</ele><time>2026-04-18T08:55:48.743Z</time></trkpt><trkpt lat="43.51526" lon="10.87509"><ele>315.0</ele><time>2026-04-18T08:55:49.742Z</time></trkpt><trkpt lat="43.5152083" lon="10.875155"><ele>315.0</ele><time>2026-04-18T08:55:50.746Z</time></trkpt><trkpt lat="43.515175" lon="10.8752333"><ele>315.0</ele><time>2026-04-18T08:55:51.745Z</time></trkpt><trkpt lat="43.5151583" lon="10.8753217"><ele>315.0</ele><time>2026-04-18T08:55:52.744Z</time></trkpt><trkpt lat="43.51515" lon="10.87543"><ele>315.0</ele><time>2026-04-18T08:55:53.744Z</time></trkpt><trkpt lat="43.5151583" lon="10.8755417"><ele>315.0</ele><time>2026-04-18T08:55:54.744Z</time></trkpt><trkpt lat="43.515145" lon="10.8756467"><ele>315.0</ele><time>2026-04-18T08:55:55.743Z</time></trkpt><trkpt lat="43.51513" lon="10.87574"><ele>315.0</ele><time>2026-04-18T08:55:56.755Z</time></trkpt><trkpt lat="43.5151317" lon="10.8758633"><ele>315.0</ele><time>2026-04-18T08:55:58.744Z</time></trkpt><trkpt lat="43.5151333" lon="10.875955"><ele>315.0</ele><time>2026-04-18T08:56:04.743Z</time></trkpt><trkpt lat="43.51524" lon="10.8760033"><ele>315.0</ele><time>2026-04-18T08:56:06.743Z</time></trkpt><trkpt lat="43.515325" lon="10.8760117"><ele>315.0</ele><time>2026-04-18T08:56:07.743Z</time></trkpt><trkpt lat="43.51541" lon="10.876035"><ele>315.0</ele><time>2026-04-18T08:56:08.748Z</time></trkpt><trkpt lat="43.5154983" lon="10.8760867"><ele>318.4</ele><time>2026-04-18T08:56:09.747Z</time></trkpt><trkpt lat="43.5155883" lon="10.8761583"><ele>321.8</ele><time>2026-04-18T08:56:10.741Z</time></trkpt><trkpt lat="43.5156767" lon="10.8762183"><ele>325.20000000000005</ele><time>2026-04-18T08:56:11.742Z</time></trkpt><trkpt lat="43.515775" lon="10.8762817"><ele>328.6</ele><time>2026-04-18T08:56:12.743Z</time></trkpt><trkpt lat="43.5158817" lon="10.8763367"><ele>332.0</ele><time>2026-04-18T08:56:13.745Z</time></trkpt><trkpt lat="43.5159933" lon="10.8763333"><ele>332.0</ele><time>2026-04-18T08:56:14.742Z</time></trkpt><trkpt lat="43.5161033" lon="10.8762683"><ele>332.0</ele><time>2026-04-18T08:56:15.744Z</time></trkpt><trkpt lat="43.51622" lon="10.8762233"><ele>332.0</ele><time>2026-04-18T08:56:16.747Z</time></trkpt><trkpt lat="43.5163217" lon="10.876165"><ele>332.0</ele><time>2026-04-18T08:56:17.744Z</time></trkpt><trkpt lat="43.5164233" lon="10.876135"><ele>332.6</ele><time>2026-04-18T08:56:18.744Z</time></trkpt><trkpt lat="43.5165217" lon="10.8760967"><ele>333.20000000000005</ele><time>2026-04-18T08:56:19.743Z</time></trkpt><trkpt lat="43.5166067" lon="10.8760317"><ele>333.8</ele><time>2026-04-18T08:56:20.745Z</time></trkpt><trkpt lat="43.5167" lon="10.87596"><ele>334.4</ele><time>2026-04-18T08:56:21.741Z</time></trkpt><trkpt lat="43.516795" lon="10.8758883"><ele>335.0</ele><time>2026-04-18T08:56:22.744Z</time></trkpt><trkpt lat="43.5168717" lon="10.8757933"><ele>335.0</ele><time>2026-04-18T08:56:23.744Z</time></trkpt><trkpt lat="43.516925" lon="10.8756833"><ele>335.0</ele><time>2026-04-18T08:56:24.743Z</time></trkpt><trkpt lat="43.5169633" lon="10.8755667"><ele>335.0</ele><time>2026-04-18T08:56:25.742Z</time></trkpt><trkpt lat="43.517" lon="10.8754317"><ele>335.0</ele><time>2026-04-18T08:56:26.754Z</time></trkpt><trkpt lat="43.517045" lon="10.8752717"><ele>335.0</ele><time>2026-04-18T08:56:27.748Z</time></trkpt><trkpt lat="43.517115" lon="10.8751217"><ele>337.25</ele><time>2026-04-18T08:56:28.746Z</time></trkpt><trkpt lat="43.5171967" lon="10.8749983"><ele>339.5</ele><time>2026-04-18T08:56:29.741Z</time></trkpt><trkpt lat="43.5173" lon="10.8749133"><ele>341.75</ele><time>2026-04-18T08:56:30.749Z</time></trkpt><trkpt lat="43.5174133" lon="10.87485"><ele>344.0</ele><time>2026-04-18T08:56:31.742Z</time></trkpt><trkpt lat="43.5175333" lon="10.8748067"><ele>344.0</ele><time>2026-04-18T08:56:32.744Z</time></trkpt><trkpt lat="43.5176533" lon="10.8747833"><ele>344.0</ele><time>2026-04-18T08:56:33.747Z</time></trkpt><trkpt lat="43.5177767" lon="10.87476"><ele>344.0</ele><time>2026-04-18T08:56:34.745Z</time></trkpt><trkpt lat="43.5179" lon="10.874755"><ele>344.0</ele><time>2026-04-18T08:56:35.748Z</time></trkpt><trkpt lat="43.518025" lon="10.8747683"><ele>346.0</ele><time>2026-04-18T08:56:36.745Z</time></trkpt><trkpt lat="43.5181517" lon="10.8748"><ele>348.0</ele><time>2026-04-18T08:56:37.741Z</time></trkpt><trkpt lat="43.5182867" lon="10.8748133"><ele>350.0</ele><time>2026-04-18T08:56:38.747Z</time></trkpt><trkpt lat="43.5184167" lon="10.8748183"><ele>352.0</ele><time>2026-04-18T08:56:39.747Z</time></trkpt><trkpt lat="43.5185317" lon="10.8748333"><ele>352.0</ele><time>2026-04-18T08:56:40.75Z</time></trkpt><trkpt lat="43.5186433" lon="10.8748467"><ele>352.0</ele><time>2026-04-18T08:56:41.746Z</time></trkpt><trkpt lat="43.51875" lon="10.874855"><ele>352.0</ele><time>2026-04-18T08:56:42.745Z</time></trkpt><trkpt lat="43.5188533" lon="10.874865"><ele>352.0</ele><time>2026-04-18T08:56:43.741Z</time></trkpt><trkpt lat="43.5189517" lon="10.8748833"><ele>352.0</ele><time>2026-04-18T08:56:44.745Z</time></trkpt><trkpt lat="43.5190583" lon="10.8749083"><ele>352.25</ele><time>2026-04-18T08:56:45.745Z</time></trkpt><trkpt lat="43.5191583" lon="10.8749933"><ele>352.5</ele><time>2026-04-18T08:56:46.746Z</time></trkpt><trkpt lat="43.5192267" lon="10.87518"><ele>352.75</ele><time>2026-04-18T08:56:47.742Z</time></trkpt><trkpt lat="43.5192733" lon="10.875405"><ele>353.0</ele><time>2026-04-18T08:56:48.745Z</time></trkpt><trkpt lat="43.5193267" lon="10.8756167"><ele>353.0</ele><time>2026-04-18T08:56:49.749Z</time></trkpt><trkpt lat="43.5194183" lon="10.87579"><ele>353.0</ele><time>2026-04-18T08:56:50.748Z</time></trkpt><trkpt lat="43.5195233" lon="10.8759367"><ele>353.0</ele><time>2026-04-18T08:56:51.746Z</time></trkpt><trkpt lat="43.5196267" lon="10.876045"><ele>353.0</ele><time>2026-04-18T08:56:52.743Z</time></trkpt><trkpt lat="43.5197283" lon="10.8761283"><ele>350.25</ele><time>2026-04-18T08:56:53.745Z</time></trkpt><trkpt lat="43.5198133" lon="10.8762383"><ele>347.5</ele><time>2026-04-18T08:56:54.746Z</time></trkpt><trkpt lat="43.519875" lon="10.8764067"><ele>344.75</ele><time>2026-04-18T08:56:55.745Z</time></trkpt><trkpt lat="43.5199083" lon="10.8766333"><ele>342.0</ele><time>2026-04-18T08:56:56.747Z</time></trkpt><trkpt lat="43.5199267" lon="10.876905"><ele>342.0</ele><time>2026-04-18T08:56:57.747Z</time></trkpt><trkpt lat="43.5199633" lon="10.8772117"><ele>342.0</ele><time>2026-04-18T08:56:58.744Z</time></trkpt><trkpt lat="43.5200383" lon="10.877525"><ele>343.6666666666667</ele><time>2026-04-18T08:56:59.747Z</time></trkpt><trkpt lat="43.52012" lon="10.877815"><ele>345.33333333333337</ele><time>2026-04-18T08:57:00.746Z</time></trkpt><trkpt lat="43.52018" lon="10.8780467"><ele>347.0</ele><time>2026-04-18T08:57:01.752Z</time></trkpt><trkpt lat="43.5202267" lon="10.878235"><ele>347.0</ele><time>2026-04-18T08:57:02.753Z</time></trkpt><trkpt lat="43.520245" lon="10.8783883"><ele>347.0</ele><time>2026-04-18T08:57:03.743Z</time></trkpt><trkpt lat="43.52026" lon="10.878525"><ele>347.0</ele><time>2026-04-18T08:57:04.743Z</time></trkpt><trkpt lat="43.5202533" lon="10.87867"><ele>347.0</ele><time>2026-04-18T08:57:05.742Z</time></trkpt><trkpt lat="43.5202133" lon="10.8788267"><ele>347.0</ele><time>2026-04-18T08:57:06.746Z</time></trkpt><trkpt lat="43.5201367" lon="10.87897"><ele>344.25</ele><time>2026-04-18T08:57:07.748Z</time></trkpt><trkpt lat="43.5200417" lon="10.87909"><ele>341.5</ele><time>2026-04-18T08:57:08.742Z</time></trkpt><trkpt lat="43.519935" lon="10.8791683"><ele>338.75</ele><time>2026-04-18T08:57:09.745Z</time></trkpt><trkpt lat="43.5198333" lon="10.8792267"><ele>336.0</ele><time>2026-04-18T08:57:10.75Z</time></trkpt><trkpt lat="43.5197067" lon="10.8792017"><ele>336.0</ele><time>2026-04-18T08:57:11.745Z</time></trkpt><trkpt lat="43.5195717" lon="10.8791683"><ele>336.0</ele><time>2026-04-18T08:57:12.748Z</time></trkpt><trkpt lat="43.51943" lon="10.879155"><ele>336.0</ele><time>2026-04-18T08:57:13.741Z</time></trkpt><trkpt lat="43.5192967" lon="10.8791467"><ele>336.0</ele><time>2026-04-18T08:57:14.747Z</time></trkpt><trkpt lat="43.5191783" lon="10.8791767"><ele>336.8333333333333</ele><time>2026-04-18T08:57:15.745Z</time></trkpt><trkpt lat="43.5190717" lon="10.87924"><ele>337.6666666666667</ele><time>2026-04-18T08:57:16.747Z</time></trkpt><trkpt lat="43.518995" lon="10.8793217"><ele>338.5</ele><time>2026-04-18T08:57:17.746Z</time></trkpt><trkpt lat="43.5189533" lon="10.8794"><ele>339.33333333333337</ele><time>2026-04-18T08:57:18.743Z</time></trkpt><trkpt lat="43.5189317" lon="10.8794917"><ele>340.1666666666667</ele><time>2026-04-18T08:57:19.746Z</time></trkpt><trkpt lat="43.5189667" lon="10.8796033"><ele>341.0</ele><time>2026-04-18T08:57:20.748Z</time></trkpt><trkpt lat="43.5190417" lon="10.8796883"><ele>341.0</ele><time>2026-04-18T08:57:21.744Z</time></trkpt><trkpt lat="43.519165" lon="10.8797167"><ele>341.0</ele><time>2026-04-18T08:57:22.742Z</time></trkpt><trkpt lat="43.51931" lon="10.8797317"><ele>341.0</ele><time>2026-04-18T08:57:23.746Z</time></trkpt><trkpt lat="43.5194333" lon="10.8797733"><ele>341.0</ele><time>2026-04-18T08:57:24.743Z</time></trkpt><trkpt lat="43.519505" lon="10.8798933"><ele>341.0</ele><time>2026-04-18T08:57:25.745Z</time></trkpt><trkpt lat="43.5195667" lon="10.879995"><ele>341.0</ele><time>2026-04-18T08:57:26.743Z</time></trkpt><trkpt lat="43.5195833" lon="10.8801267"><ele>341.0</ele><time>2026-04-18T08:57:27.745Z</time></trkpt><trkpt lat="43.51958" lon="10.8802833"><ele>341.0</ele><time>2026-04-18T08:57:28.748Z</time></trkpt><trkpt lat="43.5195383" lon="10.8804617"><ele>341.0</ele><time>2026-04-18T08:57:29.743Z</time></trkpt><trkpt lat="43.5195367" lon="10.8806567"><ele>346.0</ele><time>2026-04-18T08:57:30.748Z</time></trkpt><trkpt lat="43.5195617" lon="10.8808967"><ele>351.0</ele><time>2026-04-18T08:57:31.743Z</time></trkpt><trkpt lat="43.5195417" lon="10.8811783"><ele>356.0</ele><time>2026-04-18T08:57:32.749Z</time></trkpt><trkpt lat="43.5195133" lon="10.8814533"><ele>357.6666666666667</ele><time>2026-04-18T08:57:33.746Z</time></trkpt><trkpt lat="43.51948" lon="10.8816933"><ele>359.3333333333333</ele><time>2026-04-18T08:57:34.747Z</time></trkpt><trkpt lat="43.51949" lon="10.8819217"><ele>361.0</ele><time>2026-04-18T08:57:35.746Z</time></trkpt><trkpt lat="43.519515" lon="10.8821567"><ele>361.0</ele><time>2026-04-18T08:57:36.746Z</time></trkpt><trkpt lat="43.519545" lon="10.8823783"><ele>361.0</ele><time>2026-04-18T08:57:37.741Z</time></trkpt><trkpt lat="43.5196217" lon="10.882575"><ele>361.0</ele><time>2026-04-18T08:57:38.747Z</time></trkpt><trkpt lat="43.51974" lon="10.8827433"><ele>361.0</ele><time>2026-04-18T08:57:39.742Z</time></trkpt><trkpt lat="43.5198783" lon="10.8828817"><ele>361.0</ele><time>2026-04-18T08:57:40.745Z</time></trkpt><trkpt lat="43.5200083" lon="10.8830017"><ele>361.0</ele><time>2026-04-18T08:57:41.742Z</time></trkpt><trkpt lat="43.5201233" lon="10.8831083"><ele>361.0</ele><time>2026-04-18T08:57:42.75Z</time></trkpt><trkpt lat="43.520245" lon="10.8831783"><ele>361.0</ele><time>2026-04-18T08:57:43.746Z</time></trkpt><trkpt lat="43.520375" lon="10.8832017"><ele>361.0</ele><time>2026-04-18T08:57:44.747Z</time></trkpt><trkpt lat="43.520515" lon="10.883155"><ele>361.0</ele><time>2026-04-18T08:57:45.743Z</time></trkpt><trkpt lat="43.5206467" lon="10.8831233"><ele>359.75</ele><time>2026-04-18T08:57:46.745Z</time></trkpt><trkpt lat="43.5207783" lon="10.8830933"><ele>358.5</ele><time>2026-04-18T08:57:47.743Z</time></trkpt><trkpt lat="43.52091" lon="10.8831417"><ele>357.25</ele><time>2026-04-18T08:57:48.744Z</time></trkpt><trkpt lat="43.52104" lon="10.8832183"><ele>356.0</ele><time>2026-04-18T08:57:49.741Z</time></trkpt><trkpt lat="43.5211533" lon="10.88331"><ele>352.5</ele><time>2026-04-18T08:57:50.744Z</time></trkpt><trkpt lat="43.521245" lon="10.883435"><ele>349.0</ele><time>2026-04-18T08:57:51.745Z</time></trkpt><trkpt lat="43.521305" lon="10.8835883"><ele>345.5</ele><time>2026-04-18T08:57:52.747Z</time></trkpt><trkpt lat="43.52132" lon="10.88375"><ele>342.0</ele><time>2026-04-18T08:57:53.743Z</time></trkpt><trkpt lat="43.5213117" lon="10.8839017"><ele>342.0</ele><time>2026-04-18T08:57:54.74Z</time></trkpt><trkpt lat="43.52126" lon="10.8840433"><ele>342.0</ele><time>2026-04-18T08:57:55.747Z</time></trkpt><trkpt lat="43.521185" lon="10.8841817"><ele>342.0</ele><time>2026-04-18T08:57:56.743Z</time></trkpt><trkpt lat="43.521135" lon="10.8843217"><ele>342.0</ele><time>2026-04-18T08:57:57.744Z</time></trkpt><trkpt lat="43.521115" lon="10.88447"><ele>345.75</ele><time>2026-04-18T08:57:58.743Z</time></trkpt><trkpt lat="43.521105" lon="10.8846217"><ele>349.5</ele><time>2026-04-18T08:57:59.745Z</time></trkpt><trkpt lat="43.5211333" lon="10.8848117"><ele>353.25</ele><time>2026-04-18T08:58:00.743Z</time></trkpt><trkpt lat="43.521165" lon="10.885015"><ele>357.0</ele><time>2026-04-18T08:58:01.743Z</time></trkpt><trkpt lat="43.5212417" lon="10.8852417"><ele>357.0</ele><time>2026-04-18T08:58:02.744Z</time></trkpt><trkpt lat="43.5213783" lon="10.8855283"><ele>357.0</ele><time>2026-04-18T08:58:03.748Z</time></trkpt><trkpt lat="43.5215567" lon="10.8857867"><ele>363.5</ele><time>2026-04-18T08:58:04.744Z</time></trkpt><trkpt lat="43.5216867" lon="10.8861233"><ele>370.0</ele><time>2026-04-18T08:58:05.747Z</time></trkpt><trkpt lat="43.5218183" lon="10.8865"><ele>367.0</ele><time>2026-04-18T08:58:06.747Z</time></trkpt><trkpt lat="43.5219583" lon="10.886855"><ele>364.0</ele><time>2026-04-18T08:58:07.744Z</time></trkpt><trkpt lat="43.522095" lon="10.8871633"><ele>364.0</ele><time>2026-04-18T08:58:08.751Z</time></trkpt><trkpt lat="43.5221817" lon="10.8874417"><ele>364.0</ele><time>2026-04-18T08:58:09.745Z</time></trkpt><trkpt lat="43.5222617" lon="10.88766"><ele>364.0</ele><time>2026-04-18T08:58:10.747Z</time></trkpt><trkpt lat="43.5223117" lon="10.887865"><ele>366.66666666666663</ele><time>2026-04-18T08:58:11.742Z</time></trkpt><trkpt lat="43.5223317" lon="10.888085"><ele>369.3333333333333</ele><time>2026-04-18T08:58:12.744Z</time></trkpt><trkpt lat="43.522315" lon="10.88832"><ele>372.0</ele><time>2026-04-18T08:58:13.742Z</time></trkpt><trkpt lat="43.52231" lon="10.8885667"><ele>374.6666666666667</ele><time>2026-04-18T08:58:14.747Z</time></trkpt><trkpt lat="43.5222833" lon="10.8888233"><ele>377.33333333333337</ele><time>2026-04-18T08:58:15.744Z</time></trkpt><trkpt lat="43.52224" lon="10.8890883"><ele>380.0</ele><time>2026-04-18T08:58:16.752Z</time></trkpt><trkpt lat="43.5222217" lon="10.88935"><ele>382.6666666666667</ele><time>2026-04-18T08:58:17.746Z</time></trkpt><trkpt lat="43.5222017" lon="10.8895967"><ele>385.33333333333337</ele><time>2026-04-18T08:58:18.747Z</time></trkpt><trkpt lat="43.5221867" lon="10.8898333"><ele>388.0</ele><time>2026-04-18T08:58:19.744Z</time></trkpt><trkpt lat="43.5221617" lon="10.8900733"><ele>389.33333333333337</ele><time>2026-04-18T08:58:20.748Z</time></trkpt><trkpt lat="43.522165" lon="10.890325"><ele>390.66666666666663</ele><time>2026-04-18T08:58:21.743Z</time></trkpt><trkpt lat="43.522215" lon="10.8905867"><ele>392.0</ele><time>2026-04-18T08:58:22.742Z</time></trkpt><trkpt lat="43.5222867" lon="10.8908617"><ele>393.3333333333333</ele><time>2026-04-18T08:58:23.743Z</time></trkpt><trkpt lat="43.5223917" lon="10.8911283"><ele>394.66666666666663</ele><time>2026-04-18T08:58:24.743Z</time></trkpt><trkpt lat="43.522485" lon="10.8913733"><ele>396.0</ele><time>2026-04-18T08:58:25.746Z</time></trkpt><trkpt lat="43.5225633" lon="10.8916017"><ele>398.0</ele><time>2026-04-18T08:58:26.746Z</time></trkpt><trkpt lat="43.52264" lon="10.8918267"><ele>400.0</ele><time>2026-04-18T08:58:27.742Z</time></trkpt><trkpt lat="43.5227183" lon="10.8920517"><ele>402.0</ele><time>2026-04-18T08:58:28.742Z</time></trkpt><trkpt lat="43.522795" lon="10.892295"><ele>402.0</ele><time>2026-04-18T08:58:29.751Z</time></trkpt><trkpt lat="43.52288" lon="10.89255"><ele>402.0</ele><time>2026-04-18T08:58:30.747Z</time></trkpt><trkpt lat="43.52297" lon="10.892805"><ele>402.0</ele><time>2026-04-18T08:58:31.746Z</time></trkpt><trkpt lat="43.5230383" lon="10.893055"><ele>401.33333333333337</ele><time>2026-04-18T08:58:32.747Z</time></trkpt><trkpt lat="43.523105" lon="10.8932833"><ele>400.6666666666667</ele><time>2026-04-18T08:58:33.749Z</time></trkpt><trkpt lat="43.5231767" lon="10.8934983"><ele>400.0</ele><time>2026-04-18T08:58:34.743Z</time></trkpt><trkpt lat="43.5232233" lon="10.8936983"><ele>400.5</ele><time>2026-04-18T08:58:35.745Z</time></trkpt><trkpt lat="43.5232767" lon="10.8938733"><ele>401.0</ele><time>2026-04-18T08:58:36.745Z</time></trkpt><trkpt lat="43.5233217" lon="10.8940433"><ele>401.5</ele><time>2026-04-18T08:58:37.744Z</time></trkpt><trkpt lat="43.5233783" lon="10.8941983"><ele>402.0</ele><time>2026-04-18T08:58:38.743Z</time></trkpt><trkpt lat="43.5234367" lon="10.8943433"><ele>402.0</ele><time>2026-04-18T08:58:39.747Z</time></trkpt><trkpt lat="43.5234933" lon="10.8944883"><ele>402.0</ele><time>2026-04-18T08:58:40.743Z</time></trkpt><trkpt lat="43.52355" lon="10.894635"><ele>402.0</ele><time>2026-04-18T08:58:41.744Z</time></trkpt><trkpt lat="43.52362" lon="10.8947817"><ele>402.0</ele><time>2026-04-18T08:58:42.746Z</time></trkpt><trkpt lat="43.5236817" lon="10.89494"><ele>403.25</ele><time>2026-04-18T08:58:43.742Z</time></trkpt><trkpt lat="43.5237467" lon="10.8951"><ele>404.5</ele><time>2026-04-18T08:58:44.745Z</time></trkpt><trkpt lat="43.5238033" lon="10.8952733"><ele>405.75</ele><time>2026-04-18T08:58:45.74Z</time></trkpt><trkpt lat="43.523845" lon="10.895455"><ele>407.0</ele><time>2026-04-18T08:58:46.743Z</time></trkpt><trkpt lat="43.52389" lon="10.8956433"><ele>407.0</ele><time>2026-04-18T08:58:47.742Z</time></trkpt><trkpt lat="43.5239367" lon="10.8958367"><ele>407.0</ele><time>2026-04-18T08:58:48.748Z</time></trkpt><trkpt lat="43.5239833" lon="10.8960333"><ele>407.0</ele><time>2026-04-18T08:58:49.742Z</time></trkpt><trkpt lat="43.5240267" lon="10.8962283"><ele>407.0</ele><time>2026-04-18T08:58:50.743Z</time></trkpt><trkpt lat="43.5240783" lon="10.8964183"><ele>408.25</ele><time>2026-04-18T08:58:51.745Z</time></trkpt><trkpt lat="43.5241183" lon="10.8966083"><ele>409.5</ele><time>2026-04-18T08:58:52.743Z</time></trkpt><trkpt lat="43.5241667" lon="10.8967883"><ele>410.75</ele><time>2026-04-18T08:58:53.744Z</time></trkpt><trkpt lat="43.5242033" lon="10.8969683"><ele>412.0</ele><time>2026-04-18T08:58:54.745Z</time></trkpt><trkpt lat="43.5242483" lon="10.89714"><ele>412.25</ele><time>2026-04-18T08:58:55.743Z</time></trkpt><trkpt lat="43.5242833" lon="10.8973017"><ele>412.5</ele><time>2026-04-18T08:58:56.745Z</time></trkpt><trkpt lat="43.5243117" lon="10.8974533"><ele>412.75</ele><time>2026-04-18T08:58:57.741Z</time></trkpt><trkpt lat="43.524345" lon="10.8976"><ele>413.0</ele><time>2026-04-18T08:58:58.748Z</time></trkpt><trkpt lat="43.5243717" lon="10.89774"><ele>414.0</ele><time>2026-04-18T08:58:59.746Z</time></trkpt><trkpt lat="43.5243883" lon="10.89786"><ele>415.0</ele><time>2026-04-18T08:59:00.741Z</time></trkpt><trkpt lat="43.5244017" lon="10.897955"><ele>416.0</ele><time>2026-04-18T08:59:01.746Z</time></trkpt><trkpt lat="43.5244067" lon="10.8980683"><ele>417.0</ele><time>2026-04-18T08:59:03.743Z</time></trkpt><trkpt lat="43.52435" lon="10.8981567"><ele>418.0</ele><time>2026-04-18T08:59:12.744Z</time></trkpt><trkpt lat="43.5242483" lon="10.89829"><ele>418.0</ele><time>2026-04-18T08:59:14.748Z</time></trkpt><trkpt lat="43.5241833" lon="10.8983783"><ele>418.0</ele><time>2026-04-18T08:59:15.747Z</time></trkpt><trkpt lat="43.5240983" lon="10.8984733"><ele>418.0</ele><time>2026-04-18T08:59:16.741Z</time></trkpt><trkpt lat="43.523995" lon="10.8985833"><ele>418.0</ele><time>2026-04-18T08:59:17.739Z</time></trkpt><trkpt lat="43.5238833" lon="10.89872"><ele>421.33333333333337</ele><time>2026-04-18T08:59:18.742Z</time></trkpt><trkpt lat="43.523765" lon="10.898855"><ele>424.66666666666663</ele><time>2026-04-18T08:59:19.747Z</time></trkpt><trkpt lat="43.5236367" lon="10.8989933"><ele>428.0</ele><time>2026-04-18T08:59:20.743Z</time></trkpt><trkpt lat="43.5234983" lon="10.89915"><ele>427.3333333333333</ele><time>2026-04-18T08:59:21.742Z</time></trkpt><trkpt lat="43.523345" lon="10.8992917"><ele>426.66666666666663</ele><time>2026-04-18T08:59:22.746Z</time></trkpt><trkpt lat="43.5231783" lon="10.8994133"><ele>426.0</ele><time>2026-04-18T08:59:23.741Z</time></trkpt><trkpt lat="43.5230033" lon="10.8995217"><ele>426.66666666666663</ele><time>2026-04-18T08:59:24.747Z</time></trkpt><trkpt lat="43.5228233" lon="10.89961"><ele>427.3333333333333</ele><time>2026-04-18T08:59:25.745Z</time></trkpt><trkpt lat="43.5226567" lon="10.899685"><ele>428.0</ele><time>2026-04-18T08:59:26.746Z</time></trkpt><trkpt lat="43.5225083" lon="10.899755"><ele>428.0</ele><time>2026-04-18T08:59:27.744Z</time></trkpt><trkpt lat="43.522385" lon="10.8998133"><ele>427.99999999999994</ele><time>2026-04-18T08:59:28.746Z</time></trkpt><trkpt lat="43.5222867" lon="10.8998633"><ele>427.99999999999994</ele><time>2026-04-18T08:59:29.745Z</time></trkpt><trkpt lat="43.52221" lon="10.8999"><ele>428.0</ele><time>2026-04-18T08:59:30.741Z</time></trkpt><trkpt lat="43.5221467" lon="10.89992"><ele>428.0</ele><time>2026-04-18T08:59:31.747Z</time></trkpt><trkpt lat="43.5220467" lon="10.89997"><ele>429.0</ele><time>2026-04-18T08:59:33.742Z</time></trkpt><trkpt lat="43.5219817" lon="10.8999983"><ele>429.99999999999994</ele><time>2026-04-18T08:59:35.744Z</time></trkpt><trkpt lat="43.5219233" lon="10.9000467"><ele>430.99999999999994</ele><time>2026-04-18T08:59:38.746Z</time></trkpt><trkpt lat="43.5218617" lon="10.9000983"><ele>432.0</ele><time>2026-04-18T08:59:42.744Z</time></trkpt><trkpt lat="43.5217583" lon="10.9001767"><ele>433.0</ele><time>2026-04-18T08:59:57.746Z</time></trkpt><trkpt lat="43.5216433" lon="10.9003"><ele>433.0</ele><time>2026-04-18T08:59:58.742Z</time></trkpt><trkpt lat="43.5215217" lon="10.900455"><ele>433.0</ele><time>2026-04-18T08:59:59.747Z</time></trkpt><trkpt lat="43.5213083" lon="10.9006783"><ele>433.0</ele><time>2026-04-18T09:00:00.746Z</time></trkpt><trkpt lat="43.52105" lon="10.9009283"><ele>436.0</ele><time>2026-04-18T09:00:01.743Z</time></trkpt><trkpt lat="43.52081" lon="10.90118"><ele>439.0</ele><time>2026-04-18T09:00:02.747Z</time></trkpt><trkpt lat="43.5205617" lon="10.90145"><ele>437.5</ele><time>2026-04-18T09:00:03.743Z</time></trkpt><trkpt lat="43.5203133" lon="10.9017317"><ele>436.0</ele><time>2026-04-18T09:00:04.745Z</time></trkpt><trkpt lat="43.52007" lon="10.9019967"><ele>436.0</ele><time>2026-04-18T09:00:05.748Z</time></trkpt><trkpt lat="43.5198417" lon="10.9022283"><ele>436.0</ele><time>2026-04-18T09:00:06.74Z</time></trkpt><trkpt lat="43.5196283" lon="10.902405"><ele>438.5</ele><time>2026-04-18T09:00:07.743Z</time></trkpt><trkpt lat="43.519415" lon="10.9025333"><ele>441.0</ele><time>2026-04-18T09:00:08.743Z</time></trkpt><trkpt lat="43.5192067" lon="10.9026167"><ele>441.0</ele><time>2026-04-18T09:00:09.747Z</time></trkpt><trkpt lat="43.51901" lon="10.90265"><ele>441.0</ele><time>2026-04-18T09:00:10.744Z</time></trkpt><trkpt lat="43.51883" lon="10.9026767"><ele>441.0</ele><time>2026-04-18T09:00:11.748Z</time></trkpt><trkpt lat="43.5186617" lon="10.902685"><ele>441.0</ele><time>2026-04-18T09:00:12.746Z</time></trkpt><trkpt lat="43.5185067" lon="10.9026983"><ele>441.0</ele><time>2026-04-18T09:00:13.742Z</time></trkpt><trkpt lat="43.5183667" lon="10.9027117"><ele>441.0</ele><time>2026-04-18T09:00:14.748Z</time></trkpt><trkpt lat="43.5182367" lon="10.9027183"><ele>441.0</ele><time>2026-04-18T09:00:15.744Z</time></trkpt><trkpt lat="43.5181133" lon="10.902715"><ele>441.0</ele><time>2026-04-18T09:00:16.743Z</time></trkpt><trkpt lat="43.5179917" lon="10.90273"><ele>441.0</ele><time>2026-04-18T09:00:17.746Z</time></trkpt><trkpt lat="43.5178783" lon="10.9027333"><ele>441.0</ele><time>2026-04-18T09:00:18.747Z</time></trkpt><trkpt lat="43.51777" lon="10.902735"><ele>441.0</ele><time>2026-04-18T09:00:19.749Z</time></trkpt><trkpt lat="43.5176633" lon="10.9027317"><ele>442.6</ele><time>2026-04-18T09:00:20.752Z</time></trkpt><trkpt lat="43.5175583" lon="10.9027233"><ele>444.20000000000005</ele><time>2026-04-18T09:00:21.747Z</time></trkpt><trkpt lat="43.5174533" lon="10.9027083"><ele>445.79999999999995</ele><time>2026-04-18T09:00:22.751Z</time></trkpt><trkpt lat="43.5173533" lon="10.9026733"><ele>447.4</ele><time>2026-04-18T09:00:23.745Z</time></trkpt><trkpt lat="43.5172533" lon="10.902615"><ele>449.0</ele><time>2026-04-18T09:00:24.749Z</time></trkpt><trkpt lat="43.51716" lon="10.9025433"><ele>449.0</ele><time>2026-04-18T09:00:25.746Z</time></trkpt><trkpt lat="43.517085" lon="10.9024583"><ele>449.0</ele><time>2026-04-18T09:00:26.743Z</time></trkpt><trkpt lat="43.5170167" lon="10.90238"><ele>449.0</ele><time>2026-04-18T09:00:27.743Z</time></trkpt><trkpt lat="43.516955" lon="10.9022933"><ele>449.0</ele><time>2026-04-18T09:00:28.746Z</time></trkpt><trkpt lat="43.5168867" lon="10.90221"><ele>449.0</ele><time>2026-04-18T09:00:29.742Z</time></trkpt><trkpt lat="43.5168167" lon="10.902125"><ele>451.2</ele><time>2026-04-18T09:00:30.742Z</time></trkpt><trkpt lat="43.51675" lon="10.9020417"><ele>453.4</ele><time>2026-04-18T09:00:31.747Z</time></trkpt><trkpt lat="43.51668" lon="10.90196"><ele>455.6</ele><time>2026-04-18T09:00:32.75Z</time></trkpt><trkpt lat="43.5166067" lon="10.901875"><ele>457.8</ele><time>2026-04-18T09:00:33.745Z</time></trkpt><trkpt lat="43.5165383" lon="10.90178"><ele>460.0</ele><time>2026-04-18T09:00:34.745Z</time></trkpt><trkpt lat="43.5164567" lon="10.9016917"><ele>460.0</ele><time>2026-04-18T09:00:35.747Z</time></trkpt><trkpt lat="43.516365" lon="10.9015933"><ele>460.0</ele><time>2026-04-18T09:00:36.751Z</time></trkpt><trkpt lat="43.516265" lon="10.9014883"><ele>460.0</ele><time>2026-04-18T09:00:37.747Z</time></trkpt><trkpt lat="43.5161467" lon="10.9013783"><ele>460.0</ele><time>2026-04-18T09:00:38.745Z</time></trkpt><trkpt lat="43.5160133" lon="10.90127"><ele>461.33333333333337</ele><time>2026-04-18T09:00:39.746Z</time></trkpt><trkpt lat="43.51587" lon="10.90116"><ele>462.66666666666663</ele><time>2026-04-18T09:00:40.741Z</time></trkpt><trkpt lat="43.51572" lon="10.9010483"><ele>464.0</ele><time>2026-04-18T09:00:41.744Z</time></trkpt><trkpt lat="43.5155567" lon="10.900935"><ele>467.0</ele><time>2026-04-18T09:00:42.745Z</time></trkpt><trkpt lat="43.5153783" lon="10.900825"><ele>470.0</ele><time>2026-04-18T09:00:43.745Z</time></trkpt><trkpt lat="43.515195" lon="10.90071"><ele>473.0</ele><time>2026-04-18T09:00:44.745Z</time></trkpt><trkpt lat="43.5150067" lon="10.9005967"><ele>473.0</ele><time>2026-04-18T09:00:45.744Z</time></trkpt><trkpt lat="43.514825" lon="10.9004817"><ele>473.0</ele><time>2026-04-18T09:00:46.747Z</time></trkpt><trkpt lat="43.514655" lon="10.9003767"><ele>473.0</ele><time>2026-04-18T09:00:47.745Z</time></trkpt><trkpt lat="43.5144933" lon="10.9002717"><ele>474.66666666666663</ele><time>2026-04-18T09:00:48.748Z</time></trkpt><trkpt lat="43.5143317" lon="10.9001517"><ele>476.33333333333337</ele><time>2026-04-18T09:00:49.746Z</time></trkpt><trkpt lat="43.5141733" lon="10.9000033"><ele>478.0</ele><time>2026-04-18T09:00:50.748Z</time></trkpt><trkpt lat="43.5140117" lon="10.89983"><ele>478.0</ele><time>2026-04-18T09:00:51.742Z</time></trkpt><trkpt lat="43.5138517" lon="10.8996617"><ele>478.0</ele><time>2026-04-18T09:00:52.743Z</time></trkpt><trkpt lat="43.5137033" lon="10.8995"><ele>478.0</ele><time>2026-04-18T09:00:53.747Z</time></trkpt><trkpt lat="43.51356" lon="10.8993517"><ele>479.6666666666667</ele><time>2026-04-18T09:00:54.745Z</time></trkpt><trkpt lat="43.5134167" lon="10.8992183"><ele>481.33333333333337</ele><time>2026-04-18T09:00:55.746Z</time></trkpt><trkpt lat="43.5132717" lon="10.8990983"><ele>483.0</ele><time>2026-04-18T09:00:56.745Z</time></trkpt><trkpt lat="43.513115" lon="10.898995"><ele>483.0</ele><time>2026-04-18T09:00:57.744Z</time></trkpt><trkpt lat="43.512935" lon="10.8989333"><ele>483.0</ele><time>2026-04-18T09:00:58.746Z</time></trkpt><trkpt lat="43.5127467" lon="10.89891"><ele>483.0</ele><time>2026-04-18T09:00:59.748Z</time></trkpt><trkpt lat="43.51256" lon="10.898925"><ele>483.66666666666663</ele><time>2026-04-18T09:01:00.743Z</time></trkpt><trkpt lat="43.51238" lon="10.899"><ele>484.3333333333333</ele><time>2026-04-18T09:01:01.743Z</time></trkpt><trkpt lat="43.5122083" lon="10.8991167"><ele>485.0</ele><time>2026-04-18T09:01:02.751Z</time></trkpt><trkpt lat="43.51205" lon="10.8992817"><ele>485.0</ele><time>2026-04-18T09:01:03.747Z</time></trkpt><trkpt lat="43.5119133" lon="10.899485"><ele>485.0</ele><time>2026-04-18T09:01:04.745Z</time></trkpt><trkpt lat="43.51181" lon="10.89972"><ele>485.0</ele><time>2026-04-18T09:01:05.745Z</time></trkpt><trkpt lat="43.511745" lon="10.899985"><ele>484.66666666666663</ele><time>2026-04-18T09:01:06.747Z</time></trkpt><trkpt lat="43.5117283" lon="10.9002683"><ele>484.33333333333337</ele><time>2026-04-18T09:01:07.745Z</time></trkpt><trkpt lat="43.51173" lon="10.9005433"><ele>484.0</ele><time>2026-04-18T09:01:08.75Z</time></trkpt><trkpt lat="43.5117483" lon="10.900805"><ele>484.0</ele><time>2026-04-18T09:01:09.749Z</time></trkpt><trkpt lat="43.5117933" lon="10.901065"><ele>484.0</ele><time>2026-04-18T09:01:10.744Z</time></trkpt><trkpt lat="43.5118567" lon="10.9013267"><ele>484.0</ele><time>2026-04-18T09:01:11.748Z</time></trkpt><trkpt lat="43.5119317" lon="10.9015867"><ele>483.6666666666667</ele><time>2026-04-18T09:01:12.745Z</time></trkpt><trkpt lat="43.51202" lon="10.9018317"><ele>483.33333333333337</ele><time>2026-04-18T09:01:13.745Z</time></trkpt><trkpt lat="43.5121" lon="10.902065"><ele>483.0</ele><time>2026-04-18T09:01:14.748Z</time></trkpt><trkpt lat="43.5121517" lon="10.90232"><ele>483.33333333333337</ele><time>2026-04-18T09:01:15.743Z</time></trkpt><trkpt lat="43.51218" lon="10.9025833"><ele>483.6666666666667</ele><time>2026-04-18T09:01:16.746Z</time></trkpt><trkpt lat="43.5121917" lon="10.9028583"><ele>484.0</ele><time>2026-04-18T09:01:17.745Z</time></trkpt><trkpt lat="43.5121917" lon="10.903135"><ele>484.0</ele><time>2026-04-18T09:01:18.746Z</time></trkpt><trkpt lat="43.5121633" lon="10.9034083"><ele>484.0</ele><time>2026-04-18T09:01:19.746Z</time></trkpt><trkpt lat="43.5121417" lon="10.90367"><ele>484.0</ele><time>2026-04-18T09:01:20.749Z</time></trkpt><trkpt lat="43.5121117" lon="10.9039283"><ele>484.33333333333337</ele><time>2026-04-18T09:01:21.747Z</time></trkpt><trkpt lat="43.5120567" lon="10.90417"><ele>484.66666666666663</ele><time>2026-04-18T09:01:22.745Z</time></trkpt><trkpt lat="43.51197" lon="10.9043967"><ele>485.0</ele><time>2026-04-18T09:01:23.746Z</time></trkpt><trkpt lat="43.5118317" lon="10.90458"><ele>486.0</ele><time>2026-04-18T09:01:24.75Z</time></trkpt><trkpt lat="43.51166" lon="10.904725"><ele>487.0</ele><time>2026-04-18T09:01:25.75Z</time></trkpt><trkpt lat="43.511455" lon="10.9048383"><ele>488.0</ele><time>2026-04-18T09:01:26.745Z</time></trkpt><trkpt lat="43.5112283" lon="10.9049217"><ele>488.0</ele><time>2026-04-18T09:01:27.744Z</time></trkpt><trkpt lat="43.5109867" lon="10.90501"><ele>488.0</ele><time>2026-04-18T09:01:28.744Z</time></trkpt><trkpt lat="43.5107433" lon="10.9051017"><ele>486.5</ele><time>2026-04-18T09:01:29.747Z</time></trkpt><trkpt lat="43.510495" lon="10.9052033"><ele>485.0</ele><time>2026-04-18T09:01:30.749Z</time></trkpt><trkpt lat="43.5102433" lon="10.9053033"><ele>488.0</ele><time>2026-04-18T09:01:31.745Z</time></trkpt><trkpt lat="43.5099883" lon="10.905405"><ele>491.0</ele><time>2026-04-18T09:01:32.746Z</time></trkpt><trkpt lat="43.5097283" lon="10.9054983"><ele>495.0</ele><time>2026-04-18T09:01:33.745Z</time></trkpt><trkpt lat="43.5094583" lon="10.9055883"><ele>499.0</ele><time>2026-04-18T09:01:34.743Z</time></trkpt><trkpt lat="43.5091883" lon="10.9056683"><ele>499.0</ele><time>2026-04-18T09:01:35.744Z</time></trkpt><trkpt lat="43.508935" lon="10.90575"><ele>499.0</ele><time>2026-04-18T09:01:36.746Z</time></trkpt><trkpt lat="43.5086933" lon="10.905825"><ele>501.0</ele><time>2026-04-18T09:01:37.743Z</time></trkpt><trkpt lat="43.5084667" lon="10.9058883"><ele>503.0</ele><time>2026-04-18T09:01:38.745Z</time></trkpt><trkpt lat="43.5082583" lon="10.9059517"><ele>505.0</ele><time>2026-04-18T09:01:39.746Z</time></trkpt><trkpt lat="43.50806" lon="10.90602"><ele>506.6666666666667</ele><time>2026-04-18T09:01:40.749Z</time></trkpt><trkpt lat="43.50787" lon="10.9060883"><ele>508.33333333333337</ele><time>2026-04-18T09:01:41.746Z</time></trkpt><trkpt lat="43.5076783" lon="10.9061767"><ele>510.0</ele><time>2026-04-18T09:01:42.746Z</time></trkpt><trkpt lat="43.507495" lon="10.9063017"><ele>510.0</ele><time>2026-04-18T09:01:43.748Z</time></trkpt><trkpt lat="43.5073183" lon="10.906465"><ele>510.0</ele><time>2026-04-18T09:01:44.749Z</time></trkpt><trkpt lat="43.5071467" lon="10.9066667"><ele>510.0</ele><time>2026-04-18T09:01:45.749Z</time></trkpt><trkpt lat="43.50697" lon="10.9068783"><ele>515.0</ele><time>2026-04-18T09:01:46.744Z</time></trkpt><trkpt lat="43.5067833" lon="10.9070867"><ele>520.0</ele><time>2026-04-18T09:01:47.744Z</time></trkpt><trkpt lat="43.5065967" lon="10.907295"><ele>520.0</ele><time>2026-04-18T09:01:48.748Z</time></trkpt><trkpt lat="43.5064167" lon="10.9074967"><ele>520.0</ele><time>2026-04-18T09:01:49.744Z</time></trkpt><trkpt lat="43.5062517" lon="10.907695"><ele>521.3333333333334</ele><time>2026-04-18T09:01:50.744Z</time></trkpt><trkpt lat="43.50608" lon="10.907865"><ele>522.6666666666666</ele><time>2026-04-18T09:01:51.745Z</time></trkpt><trkpt lat="43.5058983" lon="10.9080133"><ele>524.0</ele><time>2026-04-18T09:01:52.743Z</time></trkpt><trkpt lat="43.5056933" lon="10.908115"><ele>524.0</ele><time>2026-04-18T09:01:53.746Z</time></trkpt><trkpt lat="43.5054683" lon="10.908165"><ele>524.0</ele><time>2026-04-18T09:01:54.749Z</time></trkpt><trkpt lat="43.5052317" lon="10.9081667"><ele>526.0</ele><time>2026-04-18T09:01:55.748Z</time></trkpt><trkpt lat="43.50499" lon="10.90814"><ele>528.0</ele><time>2026-04-18T09:01:56.746Z</time></trkpt><trkpt lat="43.5047417" lon="10.9080917"><ele>531.0</ele><time>2026-04-18T09:01:57.746Z</time></trkpt><trkpt lat="43.504485" lon="10.908055"><ele>534.0</ele><time>2026-04-18T09:01:58.752Z</time></trkpt><trkpt lat="43.5042217" lon="10.90803"><ele>534.0</ele><time>2026-04-18T09:01:59.745Z</time></trkpt><trkpt lat="43.5039667" lon="10.907995"><ele>534.0</ele><time>2026-04-18T09:02:00.746Z</time></trkpt><trkpt lat="43.503725" lon="10.9079667"><ele>534.6666666666666</ele><time>2026-04-18T09:02:01.745Z</time></trkpt><trkpt lat="43.5035" lon="10.9079317"><ele>535.3333333333333</ele><time>2026-04-18T09:02:02.752Z</time></trkpt><trkpt lat="43.5032867" lon="10.907895"><ele>536.0</ele><time>2026-04-18T09:02:03.744Z</time></trkpt><trkpt lat="43.5030783" lon="10.9078617"><ele>535.3333333333333</ele><time>2026-04-18T09:02:04.746Z</time></trkpt><trkpt lat="43.5028667" lon="10.9078167"><ele>534.6666666666666</ele><time>2026-04-18T09:02:05.746Z</time></trkpt><trkpt lat="43.5026533" lon="10.907765"><ele>534.0</ele><time>2026-04-18T09:02:06.749Z</time></trkpt><trkpt lat="43.5024483" lon="10.9077283"><ele>534.0</ele><time>2026-04-18T09:02:07.751Z</time></trkpt><trkpt lat="43.5022633" lon="10.9077033"><ele>534.0</ele><time>2026-04-18T09:02:08.746Z</time></trkpt><trkpt lat="43.5021033" lon="10.9076783"><ele>534.0</ele><time>2026-04-18T09:02:09.744Z</time></trkpt><trkpt lat="43.5019583" lon="10.90766"><ele>534.75</ele><time>2026-04-18T09:02:10.743Z</time></trkpt><trkpt lat="43.501815" lon="10.90766"><ele>535.5</ele><time>2026-04-18T09:02:11.746Z</time></trkpt><trkpt lat="43.501675" lon="10.9076917"><ele>536.25</ele><time>2026-04-18T09:02:12.742Z</time></trkpt><trkpt lat="43.5015533" lon="10.907765"><ele>537.0</ele><time>2026-04-18T09:02:13.742Z</time></trkpt><trkpt lat="43.5014517" lon="10.9078667"><ele>537.0</ele><time>2026-04-18T09:02:14.744Z</time></trkpt><trkpt lat="43.501355" lon="10.90798"><ele>537.0</ele><time>2026-04-18T09:02:15.743Z</time></trkpt><trkpt lat="43.501265" lon="10.9081"><ele>537.0</ele><time>2026-04-18T09:02:16.745Z</time></trkpt><trkpt lat="43.50118" lon="10.90822"><ele>537.0</ele><time>2026-04-18T09:02:17.742Z</time></trkpt><trkpt lat="43.5011017" lon="10.9083533"><ele>538.25</ele><time>2026-04-18T09:02:18.741Z</time></trkpt><trkpt lat="43.501035" lon="10.9085"><ele>539.5</ele><time>2026-04-18T09:02:19.744Z</time></trkpt><trkpt lat="43.5009667" lon="10.9086517"><ele>540.75</ele><time>2026-04-18T09:02:20.746Z</time></trkpt><trkpt lat="43.5009017" lon="10.9088083"><ele>542.0</ele><time>2026-04-18T09:02:21.744Z</time></trkpt><trkpt lat="43.5008383" lon="10.908965"><ele>542.0</ele><time>2026-04-18T09:02:22.74Z</time></trkpt><trkpt lat="43.5007883" lon="10.909135"><ele>542.0</ele><time>2026-04-18T09:02:23.748Z</time></trkpt><trkpt lat="43.5007417" lon="10.9093067"><ele>542.0</ele><time>2026-04-18T09:02:24.745Z</time></trkpt><trkpt lat="43.5006983" lon="10.909475"><ele>542.0</ele><time>2026-04-18T09:02:25.746Z</time></trkpt><trkpt lat="43.500665" lon="10.90963"><ele>542.0</ele><time>2026-04-18T09:02:26.747Z</time></trkpt><trkpt lat="43.5006333" lon="10.90977"><ele>542.0</ele><time>2026-04-18T09:02:27.745Z</time></trkpt><trkpt lat="43.5006" lon="10.9098917"><ele>542.0</ele><time>2026-04-18T09:02:28.744Z</time></trkpt><trkpt lat="43.5005683" lon="10.91"><ele>542.0</ele><time>2026-04-18T09:02:29.742Z</time></trkpt><trkpt lat="43.5005467" lon="10.910095"><ele>542.0</ele><time>2026-04-18T09:02:30.745Z</time></trkpt><trkpt lat="43.5005283" lon="10.9102417"><ele>542.0</ele><time>2026-04-18T09:02:32.744Z</time></trkpt><trkpt lat="43.50053" lon="10.910355"><ele>542.0</ele><time>2026-04-18T09:02:35.744Z</time></trkpt><trkpt lat="43.5005867" lon="10.9102233"><ele>542.0</ele><time>2026-04-18T09:02:54.744Z</time></trkpt><trkpt lat="43.5005917" lon="10.910105"><ele>542.0</ele><time>2026-04-18T09:02:55.742Z</time></trkpt><trkpt lat="43.5006233" lon="10.9099467"><ele>542.0</ele><time>2026-04-18T09:02:56.746Z</time></trkpt><trkpt lat="43.5006517" lon="10.9097383"><ele>542.0</ele><time>2026-04-18T09:02:57.742Z</time></trkpt><trkpt lat="43.5007033" lon="10.9095267"><ele>542.0</ele><time>2026-04-18T09:02:58.742Z</time></trkpt><trkpt lat="43.5007583" lon="10.9093183"><ele>542.0</ele><time>2026-04-18T09:02:59.747Z</time></trkpt><trkpt lat="43.500815" lon="10.9091183"><ele>542.0</ele><time>2026-04-18T09:03:00.741Z</time></trkpt><trkpt lat="43.5008683" lon="10.9089233"><ele>542.0</ele><time>2026-04-18T09:03:01.743Z</time></trkpt><trkpt lat="43.5009317" lon="10.90873"><ele>542.0</ele><time>2026-04-18T09:03:02.747Z</time></trkpt><trkpt lat="43.501015" lon="10.9085483"><ele>542.0</ele><time>2026-04-18T09:03:03.745Z</time></trkpt><trkpt lat="43.5011067" lon="10.908375"><ele>542.0</ele><time>2026-04-18T09:03:04.742Z</time></trkpt><trkpt lat="43.5012033" lon="10.9081967"><ele>542.0</ele><time>2026-04-18T09:03:05.742Z</time></trkpt><trkpt lat="43.5013117" lon="10.90803"><ele>540.3333333333333</ele><time>2026-04-18T09:03:06.741Z</time></trkpt><trkpt lat="43.50144" lon="10.9078883"><ele>538.6666666666666</ele><time>2026-04-18T09:03:07.74Z</time></trkpt><trkpt lat="43.5015833" lon="10.9077817"><ele>537.0</ele><time>2026-04-18T09:03:08.744Z</time></trkpt><trkpt lat="43.5017367" lon="10.9077167"><ele>537.0</ele><time>2026-04-18T09:03:09.742Z</time></trkpt><trkpt lat="43.5018983" lon="10.907695"><ele>537.0</ele><time>2026-04-18T09:03:10.747Z</time></trkpt><trkpt lat="43.50204" lon="10.9077017"><ele>537.0</ele><time>2026-04-18T09:03:11.748Z</time></trkpt><trkpt lat="43.5021467" lon="10.9077067"><ele>537.0</ele><time>2026-04-18T09:03:12.744Z</time></trkpt><trkpt lat="43.50223" lon="10.907715"><ele>536.5</ele><time>2026-04-18T09:03:13.746Z</time></trkpt><trkpt lat="43.5023" lon="10.9077067"><ele>536.0</ele><time>2026-04-18T09:03:14.743Z</time></trkpt><trkpt lat="43.502395" lon="10.9077133"><ele>535.5</ele><time>2026-04-18T09:03:16.743Z</time></trkpt><trkpt lat="43.5023517" lon="10.9077833"><ele>535.0</ele><time>2026-04-18T09:03:20.745Z</time></trkpt><trkpt lat="43.5022683" lon="10.9077767"><ele>534.5</ele><time>2026-04-18T09:04:03.741Z</time></trkpt><trkpt lat="43.5021967" lon="10.9077283"><ele>534.0</ele><time>2026-04-18T09:04:05.743Z</time></trkpt><trkpt lat="43.50214" lon="10.9076817"><ele>534.0</ele><time>2026-04-18T09:04:07.742Z</time></trkpt><trkpt lat="43.5021983" lon="10.90774"><ele>534.0</ele><time>2026-04-18T09:04:12.745Z</time></trkpt><trkpt lat="43.5021583" lon="10.9076617"><ele>534.0</ele><time>2026-04-18T09:15:45.744Z</time></trkpt><trkpt lat="43.5020883" lon="10.9076533"><ele>534.0</ele><time>2026-04-18T09:15:46.746Z</time></trkpt><trkpt lat="43.5019933" lon="10.9076533"><ele>534.0</ele><time>2026-04-18T09:15:47.745Z</time></trkpt><trkpt lat="43.501885" lon="10.90766"><ele>534.0</ele><time>2026-04-18T09:15:48.746Z</time></trkpt><trkpt lat="43.501765" lon="10.907685"><ele>534.75</ele><time>2026-04-18T09:15:49.742Z</time></trkpt><trkpt lat="43.5016333" lon="10.907735"><ele>535.5</ele><time>2026-04-18T09:15:50.744Z</time></trkpt><trkpt lat="43.5015017" lon="10.90783"><ele>536.25</ele><time>2026-04-18T09:15:51.744Z</time></trkpt><trkpt lat="43.501375" lon="10.90796"><ele>537.0</ele><time>2026-04-18T09:15:52.743Z</time></trkpt><trkpt lat="43.5012617" lon="10.90813"><ele>538.6666666666666</ele><time>2026-04-18T09:15:53.746Z</time></trkpt><trkpt lat="43.5011467" lon="10.90833"><ele>540.3333333333333</ele><time>2026-04-18T09:15:54.749Z</time></trkpt><trkpt lat="43.5010483" lon="10.908535"><ele>542.0</ele><time>2026-04-18T09:15:55.744Z</time></trkpt><trkpt lat="43.5009617" lon="10.9087417"><ele>542.0</ele><time>2026-04-18T09:15:56.747Z</time></trkpt><trkpt lat="43.50089" lon="10.90894"><ele>542.0</ele><time>2026-04-18T09:15:57.741Z</time></trkpt><trkpt lat="43.50083" lon="10.9091267"><ele>542.0</ele><time>2026-04-18T09:15:58.742Z</time></trkpt><trkpt lat="43.50078" lon="10.909305"><ele>542.0</ele><time>2026-04-18T09:15:59.745Z</time></trkpt><trkpt lat="43.5007367" lon="10.9094717"><ele>542.0</ele><time>2026-04-18T09:16:00.746Z</time></trkpt><trkpt lat="43.5006967" lon="10.9096333"><ele>542.0</ele><time>2026-04-18T09:16:01.746Z</time></trkpt><trkpt lat="43.5006617" lon="10.9098"><ele>542.0</ele><time>2026-04-18T09:16:02.744Z</time></trkpt><trkpt lat="43.5006317" lon="10.9099733"><ele>542.0</ele><time>2026-04-18T09:16:03.743Z</time></trkpt><trkpt lat="43.5006083" lon="10.9101583"><ele>543.3333333333333</ele><time>2026-04-18T09:16:04.744Z</time></trkpt><trkpt lat="43.5006083" lon="10.9103567"><ele>544.6666666666666</ele><time>2026-04-18T09:16:05.745Z</time></trkpt><trkpt lat="43.5006267" lon="10.91056"><ele>546.0</ele><time>2026-04-18T09:16:06.747Z</time></trkpt><trkpt lat="43.50066" lon="10.91078"><ele>546.0</ele><time>2026-04-18T09:16:07.746Z</time></trkpt><trkpt lat="43.5006983" lon="10.9110117"><ele>546.0</ele><time>2026-04-18T09:16:08.747Z</time></trkpt><trkpt lat="43.5007383" lon="10.9112333"><ele>546.0</ele><time>2026-04-18T09:16:09.742Z</time></trkpt><trkpt lat="43.5007683" lon="10.9114467"><ele>546.0</ele><time>2026-04-18T09:16:10.744Z</time></trkpt><trkpt lat="43.500795" lon="10.9116517"><ele>546.0</ele><time>2026-04-18T09:16:11.745Z</time></trkpt><trkpt lat="43.5008083" lon="10.9118517"><ele>546.0</ele><time>2026-04-18T09:16:12.742Z</time></trkpt><trkpt lat="43.5008" lon="10.91206"><ele>546.0</ele><time>2026-04-18T09:16:13.743Z</time></trkpt><trkpt lat="43.5007567" lon="10.9122767"><ele>544.3333333333334</ele><time>2026-04-18T09:16:14.747Z</time></trkpt><trkpt lat="43.5006967" lon="10.9124933"><ele>542.6666666666667</ele><time>2026-04-18T09:16:15.745Z</time></trkpt><trkpt lat="43.5006317" lon="10.9127"><ele>541.0</ele><time>2026-04-18T09:16:16.743Z</time></trkpt><trkpt lat="43.5005633" lon="10.9128983"><ele>540.0</ele><time>2026-04-18T09:16:17.743Z</time></trkpt><trkpt lat="43.5004867" lon="10.913085"><ele>539.0</ele><time>2026-04-18T09:16:18.74Z</time></trkpt><trkpt lat="43.5004067" lon="10.9132633"><ele>538.0</ele><time>2026-04-18T09:16:19.744Z</time></trkpt><trkpt lat="43.5003217" lon="10.913435"><ele>538.0</ele><time>2026-04-18T09:16:20.746Z</time></trkpt><trkpt lat="43.500235" lon="10.9136083"><ele>538.0</ele><time>2026-04-18T09:16:21.744Z</time></trkpt><trkpt lat="43.50015" lon="10.91378"><ele>538.0</ele><time>2026-04-18T09:16:22.745Z</time></trkpt><trkpt lat="43.500055" lon="10.91395"><ele>538.0</ele><time>2026-04-18T09:16:23.751Z</time></trkpt><trkpt lat="43.4999733" lon="10.9141217"><ele>538.0</ele><time>2026-04-18T09:16:24.743Z</time></trkpt><trkpt lat="43.4999117" lon="10.9142983"><ele>538.0</ele><time>2026-04-18T09:16:25.744Z</time></trkpt><trkpt lat="43.4998783" lon="10.91449"><ele>538.0</ele><time>2026-04-18T09:16:26.748Z</time></trkpt><trkpt lat="43.4998717" lon="10.9147033"><ele>538.0</ele><time>2026-04-18T09:16:27.747Z</time></trkpt><trkpt lat="43.4998833" lon="10.9149383"><ele>538.0</ele><time>2026-04-18T09:16:28.743Z</time></trkpt><trkpt lat="43.4999117" lon="10.9151783"><ele>538.0</ele><time>2026-04-18T09:16:29.744Z</time></trkpt><trkpt lat="43.4999417" lon="10.9154017"><ele>537.75</ele><time>2026-04-18T09:16:30.743Z</time></trkpt><trkpt lat="43.4999733" lon="10.9156117"><ele>537.5</ele><time>2026-04-18T09:16:31.744Z</time></trkpt><trkpt lat="43.4999967" lon="10.915815"><ele>537.25</ele><time>2026-04-18T09:16:32.751Z</time></trkpt><trkpt lat="43.50001" lon="10.9160083"><ele>537.0</ele><time>2026-04-18T09:16:33.741Z</time></trkpt><trkpt lat="43.50001" lon="10.9161967"><ele>536.3333333333334</ele><time>2026-04-18T09:16:34.747Z</time></trkpt><trkpt lat="43.499975" lon="10.9163867"><ele>535.6666666666667</ele><time>2026-04-18T09:16:35.741Z</time></trkpt><trkpt lat="43.4999067" lon="10.9165683"><ele>535.0</ele><time>2026-04-18T09:16:36.743Z</time></trkpt><trkpt lat="43.4998017" lon="10.9167367"><ele>536.3333333333334</ele><time>2026-04-18T09:16:37.745Z</time></trkpt><trkpt lat="43.499665" lon="10.9168767"><ele>537.6666666666666</ele><time>2026-04-18T09:16:38.743Z</time></trkpt><trkpt lat="43.4995133" lon="10.9169967"><ele>539.0</ele><time>2026-04-18T09:16:39.748Z</time></trkpt><trkpt lat="43.4993683" lon="10.9171017"><ele>540.0</ele><time>2026-04-18T09:16:40.743Z</time></trkpt><trkpt lat="43.4992383" lon="10.9172"><ele>541.0</ele><time>2026-04-18T09:16:41.744Z</time></trkpt><trkpt lat="43.4991133" lon="10.9172983"><ele>542.0</ele><time>2026-04-18T09:16:42.744Z</time></trkpt><trkpt lat="43.49899" lon="10.917395"><ele>543.0</ele><time>2026-04-18T09:16:43.742Z</time></trkpt><trkpt lat="43.4988667" lon="10.91749"><ele>541.75</ele><time>2026-04-18T09:16:44.744Z</time></trkpt><trkpt lat="43.4987467" lon="10.9175783"><ele>540.5</ele><time>2026-04-18T09:16:45.741Z</time></trkpt><trkpt lat="43.49862" lon="10.9176517"><ele>539.25</ele><time>2026-04-18T09:16:46.745Z</time></trkpt><trkpt lat="43.4984833" lon="10.9177017"><ele>538.0</ele><time>2026-04-18T09:16:47.742Z</time></trkpt><trkpt lat="43.49835" lon="10.9177333"><ele>538.0</ele><time>2026-04-18T09:16:48.746Z</time></trkpt><trkpt lat="43.4982217" lon="10.9177733"><ele>538.0</ele><time>2026-04-18T09:16:49.744Z</time></trkpt><trkpt lat="43.4981083" lon="10.9178333"><ele>538.0</ele><time>2026-04-18T09:16:50.748Z</time></trkpt><trkpt lat="43.4980217" lon="10.917945"><ele>538.0</ele><time>2026-04-18T09:16:51.744Z</time></trkpt><trkpt lat="43.4979617" lon="10.918075"><ele>538.0</ele><time>2026-04-18T09:16:52.743Z</time></trkpt><trkpt lat="43.4979183" lon="10.9182133"><ele>538.0</ele><time>2026-04-18T09:16:53.744Z</time></trkpt><trkpt lat="43.497875" lon="10.918355"><ele>538.0</ele><time>2026-04-18T09:16:54.746Z</time></trkpt><trkpt lat="43.4978317" lon="10.9185"><ele>538.0</ele><time>2026-04-18T09:16:55.742Z</time></trkpt><trkpt lat="43.49779" lon="10.9186417"><ele>538.0</ele><time>2026-04-18T09:16:56.746Z</time></trkpt><trkpt lat="43.4977483" lon="10.9187867"><ele>538.0</ele><time>2026-04-18T09:16:57.745Z</time></trkpt><trkpt lat="43.4977033" lon="10.9189267"><ele>538.0</ele><time>2026-04-18T09:16:58.743Z</time></trkpt><trkpt lat="43.4976617" lon="10.91907"><ele>538.0</ele><time>2026-04-18T09:16:59.74Z</time></trkpt><trkpt lat="43.4976167" lon="10.91921"><ele>538.0</ele><time>2026-04-18T09:17:00.745Z</time></trkpt><trkpt lat="43.49757" lon="10.9193483"><ele>538.0</ele><time>2026-04-18T09:17:01.745Z</time></trkpt><trkpt lat="43.497525" lon="10.9194867"><ele>536.8</ele><time>2026-04-18T09:17:02.745Z</time></trkpt><trkpt lat="43.4974883" lon="10.91963"><ele>535.5999999999999</ele><time>2026-04-18T09:17:03.745Z</time></trkpt><trkpt lat="43.4974517" lon="10.9197717"><ele>534.4000000000001</ele><time>2026-04-18T09:17:04.751Z</time></trkpt><trkpt lat="43.4974317" lon="10.9199167"><ele>533.2</ele><time>2026-04-18T09:17:05.742Z</time></trkpt><trkpt lat="43.4974283" lon="10.9200683"><ele>532.0</ele><time>2026-04-18T09:17:06.743Z</time></trkpt><trkpt lat="43.497435" lon="10.92022"><ele>531.0</ele><time>2026-04-18T09:17:07.743Z</time></trkpt><trkpt lat="43.4974417" lon="10.9203717"><ele>530.0</ele><time>2026-04-18T09:17:08.743Z</time></trkpt><trkpt lat="43.4974467" lon="10.9205183"><ele>529.0</ele><time>2026-04-18T09:17:09.745Z</time></trkpt><trkpt lat="43.497435" lon="10.920655"><ele>528.0</ele><time>2026-04-18T09:17:10.743Z</time></trkpt><trkpt lat="43.4973933" lon="10.9207767"><ele>527.0</ele><time>2026-04-18T09:17:11.743Z</time></trkpt><trkpt lat="43.4973167" lon="10.9208817"><ele>525.0</ele><time>2026-04-18T09:17:12.743Z</time></trkpt><trkpt lat="43.4972233" lon="10.9209717"><ele>523.0</ele><time>2026-04-18T09:17:13.741Z</time></trkpt><trkpt lat="43.4971083" lon="10.9210367"><ele>521.0</ele><time>2026-04-18T09:17:14.744Z</time></trkpt><trkpt lat="43.49699" lon="10.9210933"><ele>519.0</ele><time>2026-04-18T09:17:15.744Z</time></trkpt><trkpt lat="43.4968733" lon="10.9211483"><ele>518.75</ele><time>2026-04-18T09:17:16.743Z</time></trkpt><trkpt lat="43.49675" lon="10.9212033"><ele>518.5</ele><time>2026-04-18T09:17:17.746Z</time></trkpt><trkpt lat="43.4966217" lon="10.921265"><ele>518.25</ele><time>2026-04-18T09:17:18.747Z</time></trkpt><trkpt lat="43.4965" lon="10.9213633"><ele>518.0</ele><time>2026-04-18T09:17:19.74Z</time></trkpt><trkpt lat="43.4963883" lon="10.9215067"><ele>518.0</ele><time>2026-04-18T09:17:20.742Z</time></trkpt><trkpt lat="43.4962817" lon="10.9217133"><ele>518.0</ele><time>2026-04-18T09:17:21.744Z</time></trkpt><trkpt lat="43.4961733" lon="10.921955"><ele>518.0</ele><time>2026-04-18T09:17:22.742Z</time></trkpt><trkpt lat="43.4960567" lon="10.9222017"><ele>517.6666666666666</ele><time>2026-04-18T09:17:23.745Z</time></trkpt><trkpt lat="43.495945" lon="10.922435"><ele>517.3333333333334</ele><time>2026-04-18T09:17:24.744Z</time></trkpt><trkpt lat="43.49583" lon="10.92267"><ele>517.0</ele><time>2026-04-18T09:17:25.743Z</time></trkpt><trkpt lat="43.4956883" lon="10.9229133"><ele>518.0</ele><time>2026-04-18T09:17:26.746Z</time></trkpt><trkpt lat="43.4955133" lon="10.9231383"><ele>519.0</ele><time>2026-04-18T09:17:27.745Z</time></trkpt><trkpt lat="43.4953183" lon="10.923345"><ele>517.0</ele><time>2026-04-18T09:17:28.746Z</time></trkpt><trkpt lat="43.49513" lon="10.9235483"><ele>515.0</ele><time>2026-04-18T09:17:29.749Z</time></trkpt><trkpt lat="43.4949617" lon="10.9237467"><ele>515.0</ele><time>2026-04-18T09:17:30.747Z</time></trkpt><trkpt lat="43.4948067" lon="10.9239367"><ele>515.0</ele><time>2026-04-18T09:17:31.745Z</time></trkpt><trkpt lat="43.4946583" lon="10.9241233"><ele>515.0</ele><time>2026-04-18T09:17:32.743Z</time></trkpt><trkpt lat="43.4945083" lon="10.9243133"><ele>512.3333333333333</ele><time>2026-04-18T09:17:33.743Z</time></trkpt><trkpt lat="43.4943617" lon="10.9245033"><ele>509.66666666666663</ele><time>2026-04-18T09:17:34.744Z</time></trkpt><trkpt lat="43.49423" lon="10.9246817"><ele>507.0</ele><time>2026-04-18T09:17:35.749Z</time></trkpt><trkpt lat="43.4941167" lon="10.9248533"><ele>507.0</ele><time>2026-04-18T09:17:36.745Z</time></trkpt><trkpt lat="43.4940283" lon="10.925035"><ele>507.0</ele><time>2026-04-18T09:17:37.746Z</time></trkpt><trkpt lat="43.4939683" lon="10.925245"><ele>507.0</ele><time>2026-04-18T09:17:38.747Z</time></trkpt><trkpt lat="43.4939367" lon="10.9254883"><ele>505.66666666666663</ele><time>2026-04-18T09:17:39.742Z</time></trkpt><trkpt lat="43.493925" lon="10.9257433"><ele>504.3333333333333</ele><time>2026-04-18T09:17:40.744Z</time></trkpt><trkpt lat="43.4939217" lon="10.9259783"><ele>503.0</ele><time>2026-04-18T09:17:41.748Z</time></trkpt><trkpt lat="43.4939167" lon="10.9261783"><ele>502.0</ele><time>2026-04-18T09:17:42.753Z</time></trkpt><trkpt lat="43.4939083" lon="10.9263417"><ele>500.99999999999994</ele><time>2026-04-18T09:17:43.744Z</time></trkpt><trkpt lat="43.4939033" lon="10.9264783"><ele>499.99999999999994</ele><time>2026-04-18T09:17:44.746Z</time></trkpt><trkpt lat="43.493895" lon="10.92659"><ele>499.0</ele><time>2026-04-18T09:17:45.742Z</time></trkpt><trkpt lat="43.4938733" lon="10.926685"><ele>498.0</ele><time>2026-04-18T09:17:46.743Z</time></trkpt><trkpt lat="43.4938283" lon="10.9267767"><ele>498.0</ele><time>2026-04-18T09:17:47.742Z</time></trkpt><trkpt lat="43.4937583" lon="10.926875"><ele>498.0</ele><time>2026-04-18T09:17:48.743Z</time></trkpt><trkpt lat="43.4936617" lon="10.92699"><ele>498.0</ele><time>2026-04-18T09:17:49.747Z</time></trkpt><trkpt lat="43.4935583" lon="10.92712"><ele>498.0</ele><time>2026-04-18T09:17:50.741Z</time></trkpt><trkpt lat="43.4934517" lon="10.927265"><ele>498.0</ele><time>2026-04-18T09:17:51.743Z</time></trkpt><trkpt lat="43.4933517" lon="10.9274217"><ele>498.0</ele><time>2026-04-18T09:17:52.74Z</time></trkpt><trkpt lat="43.4932483" lon="10.9275833"><ele>498.0</ele><time>2026-04-18T09:17:53.745Z</time></trkpt><trkpt lat="43.4931383" lon="10.9277517"><ele>496.66666666666663</ele><time>2026-04-18T09:17:54.742Z</time></trkpt><trkpt lat="43.4930217" lon="10.9279133"><ele>495.3333333333333</ele><time>2026-04-18T09:17:55.743Z</time></trkpt><trkpt lat="43.4929083" lon="10.9280883"><ele>494.0</ele><time>2026-04-18T09:17:56.75Z</time></trkpt><trkpt lat="43.492795" lon="10.9282633"><ele>490.66666666666663</ele><time>2026-04-18T09:17:57.741Z</time></trkpt><trkpt lat="43.4926783" lon="10.9284233"><ele>487.33333333333337</ele><time>2026-04-18T09:17:58.743Z</time></trkpt><trkpt lat="43.49256" lon="10.9285683"><ele>484.0</ele><time>2026-04-18T09:17:59.742Z</time></trkpt><trkpt lat="43.4924383" lon="10.9286817"><ele>484.0</ele><time>2026-04-18T09:18:00.744Z</time></trkpt><trkpt lat="43.4923067" lon="10.9287533"><ele>484.0</ele><time>2026-04-18T09:18:01.742Z</time></trkpt><trkpt lat="43.4921733" lon="10.9287983"><ele>484.0</ele><time>2026-04-18T09:18:02.744Z</time></trkpt><trkpt lat="43.49204" lon="10.9288"><ele>484.0</ele><time>2026-04-18T09:18:03.742Z</time></trkpt><trkpt lat="43.49191" lon="10.928765"><ele>484.5</ele><time>2026-04-18T09:18:04.742Z</time></trkpt><trkpt lat="43.4917867" lon="10.928695"><ele>485.0</ele><time>2026-04-18T09:18:05.743Z</time></trkpt><trkpt lat="43.491665" lon="10.9286083"><ele>485.5</ele><time>2026-04-18T09:18:06.742Z</time></trkpt><trkpt lat="43.4915467" lon="10.9285333"><ele>486.0</ele><time>2026-04-18T09:18:07.742Z</time></trkpt><trkpt lat="43.4914217" lon="10.9284933"><ele>486.0</ele><time>2026-04-18T09:18:08.742Z</time></trkpt><trkpt lat="43.4912933" lon="10.92851"><ele>486.0</ele><time>2026-04-18T09:18:09.745Z</time></trkpt><trkpt lat="43.491175" lon="10.9285767"><ele>486.0</ele><time>2026-04-18T09:18:10.743Z</time></trkpt><trkpt lat="43.49107" lon="10.9287017"><ele>486.0</ele><time>2026-04-18T09:18:11.744Z</time></trkpt><trkpt lat="43.4909733" lon="10.928865"><ele>484.0</ele><time>2026-04-18T09:18:12.741Z</time></trkpt><trkpt lat="43.4908883" lon="10.9290517"><ele>482.0</ele><time>2026-04-18T09:18:13.74Z</time></trkpt><trkpt lat="43.4908083" lon="10.9292433"><ele>480.0</ele><time>2026-04-18T09:18:14.747Z</time></trkpt><trkpt lat="43.4907267" lon="10.9294417"><ele>480.0</ele><time>2026-04-18T09:18:15.741Z</time></trkpt><trkpt lat="43.4906433" lon="10.929635"><ele>480.0</ele><time>2026-04-18T09:18:16.74Z</time></trkpt><trkpt lat="43.4905567" lon="10.929825"><ele>480.0</ele><time>2026-04-18T09:18:17.742Z</time></trkpt><trkpt lat="43.4904767" lon="10.93001"><ele>474.0</ele><time>2026-04-18T09:18:18.749Z</time></trkpt><trkpt lat="43.490395" lon="10.930195"><ele>468.0</ele><time>2026-04-18T09:18:19.745Z</time></trkpt><trkpt lat="43.4903167" lon="10.9303833"><ele>462.0</ele><time>2026-04-18T09:18:20.744Z</time></trkpt><trkpt lat="43.49024" lon="10.9305733"><ele>462.0</ele><time>2026-04-18T09:18:21.742Z</time></trkpt><trkpt lat="43.490175" lon="10.9307683"><ele>462.0</ele><time>2026-04-18T09:18:22.744Z</time></trkpt><trkpt lat="43.490125" lon="10.93096"><ele>462.0</ele><time>2026-04-18T09:18:23.745Z</time></trkpt><trkpt lat="43.4900967" lon="10.9311517"><ele>462.0</ele><time>2026-04-18T09:18:24.746Z</time></trkpt><trkpt lat="43.4900883" lon="10.9313483"><ele>461.75</ele><time>2026-04-18T09:18:25.744Z</time></trkpt><trkpt lat="43.4900867" lon="10.9315217"><ele>461.5</ele><time>2026-04-18T09:18:26.748Z</time></trkpt><trkpt lat="43.4900883" lon="10.9316817"><ele>461.25</ele><time>2026-04-18T09:18:27.74Z</time></trkpt><trkpt lat="43.49009" lon="10.9318283"><ele>461.0</ele><time>2026-04-18T09:18:28.744Z</time></trkpt><trkpt lat="43.4900917" lon="10.9319733"><ele>460.49999999999994</ele><time>2026-04-18T09:18:29.744Z</time></trkpt><trkpt lat="43.490095" lon="10.9321083"><ele>460.0</ele><time>2026-04-18T09:18:30.743Z</time></trkpt><trkpt lat="43.4900933" lon="10.932225"><ele>459.5</ele><time>2026-04-18T09:18:31.741Z</time></trkpt><trkpt lat="43.4900867" lon="10.932325"><ele>459.0</ele><time>2026-04-18T09:18:32.744Z</time></trkpt><trkpt lat="43.4900217" lon="10.9324633"><ele>458.49999999999994</ele><time>2026-04-18T09:18:34.741Z</time></trkpt><trkpt lat="43.48996" lon="10.9324917"><ele>458.0</ele><time>2026-04-18T09:18:35.742Z</time></trkpt><trkpt lat="43.4898417" lon="10.932455"><ele>457.99999999999994</ele><time>2026-04-18T09:18:37.742Z</time></trkpt><trkpt lat="43.4898083" lon="10.9323733"><ele>458.0</ele><time>2026-04-18T09:18:38.745Z</time></trkpt><trkpt lat="43.4897983" lon="10.932285"><ele>458.0</ele><time>2026-04-18T09:18:39.744Z</time></trkpt><trkpt lat="43.4897917" lon="10.932155"><ele>458.0</ele><time>2026-04-18T09:18:41.745Z</time></trkpt><trkpt lat="43.4897867" lon="10.9320667"><ele>457.99999999999994</ele><time>2026-04-18T09:18:43.742Z</time></trkpt><trkpt lat="43.4897817" lon="10.93198"><ele>458.0</ele><time>2026-04-18T09:18:45.744Z</time></trkpt><trkpt lat="43.4897667" lon="10.9317817"><ele>458.75</ele><time>2026-04-18T09:18:55.742Z</time></trkpt><trkpt lat="43.489755" lon="10.93165"><ele>459.5</ele><time>2026-04-18T09:18:56.743Z</time></trkpt><trkpt lat="43.4897433" lon="10.9314733"><ele>460.25</ele><time>2026-04-18T09:18:57.743Z</time></trkpt><trkpt lat="43.4897283" lon="10.9312767"><ele>461.0</ele><time>2026-04-18T09:18:58.743Z</time></trkpt><trkpt lat="43.489715" lon="10.93107"><ele>461.3333333333333</ele><time>2026-04-18T09:18:59.743Z</time></trkpt><trkpt lat="43.4896933" lon="10.9308583"><ele>461.66666666666663</ele><time>2026-04-18T09:19:00.746Z</time></trkpt><trkpt lat="43.4896667" lon="10.9306517"><ele>462.0</ele><time>2026-04-18T09:19:01.742Z</time></trkpt><trkpt lat="43.4896367" lon="10.9304533"><ele>462.0</ele><time>2026-04-18T09:19:02.746Z</time></trkpt><trkpt lat="43.4896" lon="10.93026"><ele>462.0</ele><time>2026-04-18T09:19:03.742Z</time></trkpt><trkpt lat="43.4895617" lon="10.930075"><ele>462.0</ele><time>2026-04-18T09:19:04.743Z</time></trkpt><trkpt lat="43.4895133" lon="10.9298983"><ele>462.0</ele><time>2026-04-18T09:19:05.743Z</time></trkpt><trkpt lat="43.4894617" lon="10.929725"><ele>455.75</ele><time>2026-04-18T09:19:06.743Z</time></trkpt><trkpt lat="43.4894117" lon="10.9295517"><ele>449.5</ele><time>2026-04-18T09:19:07.743Z</time></trkpt><trkpt lat="43.489365" lon="10.92938"><ele>443.25</ele><time>2026-04-18T09:19:08.744Z</time></trkpt><trkpt lat="43.4893217" lon="10.9292083"><ele>437.0</ele><time>2026-04-18T09:19:09.741Z</time></trkpt><trkpt lat="43.4892917" lon="10.9290267"><ele>436.66666666666663</ele><time>2026-04-18T09:19:10.745Z</time></trkpt><trkpt lat="43.4892733" lon="10.928815"><ele>436.33333333333337</ele><time>2026-04-18T09:19:11.742Z</time></trkpt><trkpt lat="43.4892733" lon="10.9285867"><ele>436.0</ele><time>2026-04-18T09:19:12.741Z</time></trkpt><trkpt lat="43.4892833" lon="10.9283617"><ele>435.33333333333337</ele><time>2026-04-18T09:19:13.742Z</time></trkpt><trkpt lat="43.4892967" lon="10.9281317"><ele>434.66666666666663</ele><time>2026-04-18T09:19:14.744Z</time></trkpt><trkpt lat="43.4893117" lon="10.9279017"><ele>434.0</ele><time>2026-04-18T09:19:15.743Z</time></trkpt><trkpt lat="43.4893283" lon="10.927655"><ele>433.3333333333333</ele><time>2026-04-18T09:19:16.745Z</time></trkpt><trkpt lat="43.4893483" lon="10.9273933"><ele>432.66666666666663</ele><time>2026-04-18T09:19:17.745Z</time></trkpt><trkpt lat="43.48937" lon="10.9271283"><ele>432.0</ele><time>2026-04-18T09:19:18.745Z</time></trkpt><trkpt lat="43.4893967" lon="10.9268717"><ele>429.66666666666663</ele><time>2026-04-18T09:19:19.748Z</time></trkpt><trkpt lat="43.4894283" lon="10.9266183"><ele>427.3333333333333</ele><time>2026-04-18T09:19:20.745Z</time></trkpt><trkpt lat="43.4894633" lon="10.92637"><ele>425.0</ele><time>2026-04-18T09:19:21.747Z</time></trkpt><trkpt lat="43.4894967" lon="10.926135"><ele>425.0</ele><time>2026-04-18T09:19:22.747Z</time></trkpt><trkpt lat="43.489525" lon="10.9259133"><ele>425.0</ele><time>2026-04-18T09:19:23.744Z</time></trkpt><trkpt lat="43.4895517" lon="10.9257083"><ele>425.0</ele><time>2026-04-18T09:19:24.744Z</time></trkpt><trkpt lat="43.4895767" lon="10.9255217"><ele>425.0</ele><time>2026-04-18T09:19:25.75Z</time></trkpt><trkpt lat="43.4896017" lon="10.9253567"><ele>425.0</ele><time>2026-04-18T09:19:26.748Z</time></trkpt><trkpt lat="43.4896167" lon="10.9252117"><ele>425.0</ele><time>2026-04-18T09:19:27.745Z</time></trkpt><trkpt lat="43.4896283" lon="10.9250917"><ele>425.0</ele><time>2026-04-18T09:19:28.747Z</time></trkpt><trkpt lat="43.489625" lon="10.924995"><ele>425.0</ele><time>2026-04-18T09:19:29.744Z</time></trkpt><trkpt lat="43.4895633" lon="10.9248867"><ele>423.66666666666663</ele><time>2026-04-18T09:19:31.746Z</time></trkpt><trkpt lat="43.4894567" lon="10.9248717"><ele>422.3333333333333</ele><time>2026-04-18T09:19:33.747Z</time></trkpt><trkpt lat="43.4893917" lon="10.9249017"><ele>421.0</ele><time>2026-04-18T09:19:34.749Z</time></trkpt><trkpt lat="43.4893283" lon="10.9249483"><ele>419.66666666666663</ele><time>2026-04-18T09:19:35.748Z</time></trkpt><trkpt lat="43.48927" lon="10.9250133"><ele>418.3333333333333</ele><time>2026-04-18T09:19:36.746Z</time></trkpt><trkpt lat="43.489215" lon="10.9250933"><ele>417.0</ele><time>2026-04-18T09:19:37.742Z</time></trkpt><trkpt lat="43.4891783" lon="10.9251883"><ele>417.0</ele><time>2026-04-18T09:19:38.743Z</time></trkpt><trkpt lat="43.4891483" lon="10.9253"><ele>417.0</ele><time>2026-04-18T09:19:39.743Z</time></trkpt><trkpt lat="43.4891333" lon="10.925425"><ele>417.0</ele><time>2026-04-18T09:19:40.745Z</time></trkpt><trkpt lat="43.4891267" lon="10.9255517"><ele>417.0</ele><time>2026-04-18T09:19:41.746Z</time></trkpt><trkpt lat="43.48912" lon="10.9256783"><ele>417.0</ele><time>2026-04-18T09:19:42.748Z</time></trkpt><trkpt lat="43.4891067" lon="10.9258067"><ele>418.6</ele><time>2026-04-18T09:19:43.748Z</time></trkpt><trkpt lat="43.4890783" lon="10.9259367"><ele>420.20000000000005</ele><time>2026-04-18T09:19:44.748Z</time></trkpt><trkpt lat="43.489035" lon="10.9260667"><ele>421.8</ele><time>2026-04-18T09:19:45.745Z</time></trkpt><trkpt lat="43.4889717" lon="10.9261783"><ele>423.4</ele><time>2026-04-18T09:19:46.742Z</time></trkpt><trkpt lat="43.4888883" lon="10.9262633"><ele>425.0</ele><time>2026-04-18T09:19:47.742Z</time></trkpt><trkpt lat="43.4887717" lon="10.9263383"><ele>420.5</ele><time>2026-04-18T09:19:48.745Z</time></trkpt><trkpt lat="43.4886467" lon="10.9264117"><ele>416.0</ele><time>2026-04-18T09:19:49.749Z</time></trkpt><trkpt lat="43.488515" lon="10.92647"><ele>411.5</ele><time>2026-04-18T09:19:50.743Z</time></trkpt><trkpt lat="43.48839" lon="10.92652"><ele>407.0</ele><time>2026-04-18T09:19:51.742Z</time></trkpt><trkpt lat="43.4882783" lon="10.9265683"><ele>407.0</ele><time>2026-04-18T09:19:52.743Z</time></trkpt><trkpt lat="43.4881817" lon="10.9266267"><ele>407.0</ele><time>2026-04-18T09:19:53.743Z</time></trkpt><trkpt lat="43.4880983" lon="10.9267083"><ele>407.0</ele><time>2026-04-18T09:19:54.741Z</time></trkpt><trkpt lat="43.4880217" lon="10.9268117"><ele>407.0</ele><time>2026-04-18T09:19:55.745Z</time></trkpt><trkpt lat="43.4879583" lon="10.9269267"><ele>407.0</ele><time>2026-04-18T09:19:56.742Z</time></trkpt><trkpt lat="43.4878967" lon="10.9270333"><ele>405.42857142857144</ele><time>2026-04-18T09:19:57.744Z</time></trkpt><trkpt lat="43.4878417" lon="10.9271133"><ele>403.8571428571429</ele><time>2026-04-18T09:19:58.744Z</time></trkpt><trkpt lat="43.4877867" lon="10.92716"><ele>402.28571428571433</ele><time>2026-04-18T09:19:59.746Z</time></trkpt><trkpt lat="43.48772" lon="10.92717"><ele>400.7142857142857</ele><time>2026-04-18T09:20:00.741Z</time></trkpt><trkpt lat="43.48765" lon="10.92714"><ele>399.1428571428571</ele><time>2026-04-18T09:20:01.743Z</time></trkpt><trkpt lat="43.48759" lon="10.92707"><ele>397.5714285714286</ele><time>2026-04-18T09:20:02.745Z</time></trkpt><trkpt lat="43.4875533" lon="10.9269633"><ele>396.0</ele><time>2026-04-18T09:20:03.741Z</time></trkpt><trkpt lat="43.4875483" lon="10.926835"><ele>395.3333333333333</ele><time>2026-04-18T09:20:04.745Z</time></trkpt><trkpt lat="43.4875517" lon="10.9267033"><ele>394.66666666666663</ele><time>2026-04-18T09:20:05.741Z</time></trkpt><trkpt lat="43.48754" lon="10.92658"><ele>394.0</ele><time>2026-04-18T09:20:06.741Z</time></trkpt><trkpt lat="43.4875117" lon="10.9264783"><ele>393.3333333333333</ele><time>2026-04-18T09:20:07.746Z</time></trkpt><trkpt lat="43.4874583" lon="10.9263967"><ele>392.66666666666663</ele><time>2026-04-18T09:20:08.749Z</time></trkpt><trkpt lat="43.4873733" lon="10.92634"><ele>392.0</ele><time>2026-04-18T09:20:09.745Z</time></trkpt><trkpt lat="43.4872533" lon="10.9263117"><ele>387.3333333333333</ele><time>2026-04-18T09:20:10.747Z</time></trkpt><trkpt lat="43.48709" lon="10.9262883"><ele>382.66666666666663</ele><time>2026-04-18T09:20:11.749Z</time></trkpt><trkpt lat="43.48693" lon="10.92627"><ele>378.0</ele><time>2026-04-18T09:20:12.749Z</time></trkpt><trkpt lat="43.4867733" lon="10.9262583"><ele>378.0</ele><time>2026-04-18T09:20:13.743Z</time></trkpt><trkpt lat="43.4866183" lon="10.92625"><ele>378.0</ele><time>2026-04-18T09:20:14.744Z</time></trkpt><trkpt lat="43.4864617" lon="10.9262367"><ele>378.0</ele><time>2026-04-18T09:20:15.744Z</time></trkpt><trkpt lat="43.4863133" lon="10.9262333"><ele>377.5</ele><time>2026-04-18T09:20:16.746Z</time></trkpt><trkpt lat="43.48617" lon="10.9262333"><ele>377.0</ele><time>2026-04-18T09:20:17.745Z</time></trkpt><trkpt lat="43.4860217" lon="10.9262417"><ele>376.5</ele><time>2026-04-18T09:20:18.752Z</time></trkpt><trkpt lat="43.4858667" lon="10.9262567"><ele>376.0</ele><time>2026-04-18T09:20:19.745Z</time></trkpt><trkpt lat="43.4857167" lon="10.92627"><ele>376.0</ele><time>2026-04-18T09:20:20.744Z</time></trkpt><trkpt lat="43.4855767" lon="10.9262783"><ele>376.0</ele><time>2026-04-18T09:20:21.744Z</time></trkpt><trkpt lat="43.4854517" lon="10.9262867"><ele>376.0</ele><time>2026-04-18T09:20:22.743Z</time></trkpt><trkpt lat="43.4853333" lon="10.9262817"><ele>376.0</ele><time>2026-04-18T09:20:23.742Z</time></trkpt><trkpt lat="43.4852183" lon="10.9262533"><ele>374.0</ele><time>2026-04-18T09:20:24.742Z</time></trkpt><trkpt lat="43.485105" lon="10.9261867"><ele>372.0</ele><time>2026-04-18T09:20:25.746Z</time></trkpt><trkpt lat="43.48499" lon="10.9260867"><ele>370.0</ele><time>2026-04-18T09:20:26.743Z</time></trkpt><trkpt lat="43.484885" lon="10.92597"><ele>368.0</ele><time>2026-04-18T09:20:27.753Z</time></trkpt><trkpt lat="43.484795" lon="10.9258517"><ele>368.0</ele><time>2026-04-18T09:20:28.741Z</time></trkpt><trkpt lat="43.4847033" lon="10.92574"><ele>368.0</ele><time>2026-04-18T09:20:29.741Z</time></trkpt><trkpt lat="43.4846083" lon="10.925645"><ele>368.0</ele><time>2026-04-18T09:20:30.743Z</time></trkpt><trkpt lat="43.4845133" lon="10.9255733"><ele>368.0</ele><time>2026-04-18T09:20:31.745Z</time></trkpt><trkpt lat="43.48441" lon="10.9255283"><ele>366.75</ele><time>2026-04-18T09:20:32.743Z</time></trkpt><trkpt lat="43.4842967" lon="10.9255117"><ele>365.5</ele><time>2026-04-18T09:20:33.743Z</time></trkpt><trkpt lat="43.484175" lon="10.9255283"><ele>364.25</ele><time>2026-04-18T09:20:34.747Z</time></trkpt><trkpt lat="43.4840567" lon="10.9255717"><ele>363.0</ele><time>2026-04-18T09:20:35.742Z</time></trkpt><trkpt lat="43.48394" lon="10.9256417"><ele>363.0</ele><time>2026-04-18T09:20:36.743Z</time></trkpt><trkpt lat="43.483825" lon="10.9257417"><ele>363.0</ele><time>2026-04-18T09:20:37.744Z</time></trkpt><trkpt lat="43.48371" lon="10.9258767"><ele>363.0</ele><time>2026-04-18T09:20:38.744Z</time></trkpt><trkpt lat="43.4835917" lon="10.9260083"><ele>363.0</ele><time>2026-04-18T09:20:39.742Z</time></trkpt><trkpt lat="43.4834733" lon="10.92613"><ele>359.6666666666667</ele><time>2026-04-18T09:20:40.746Z</time></trkpt><trkpt lat="43.4833433" lon="10.9262267"><ele>356.33333333333337</ele><time>2026-04-18T09:20:41.743Z</time></trkpt><trkpt lat="43.4831933" lon="10.92631"><ele>353.0</ele><time>2026-04-18T09:20:42.741Z</time></trkpt><trkpt lat="43.4830267" lon="10.9263883"><ele>352.6666666666667</ele><time>2026-04-18T09:20:43.744Z</time></trkpt><trkpt lat="43.4828667" lon="10.9264567"><ele>352.3333333333333</ele><time>2026-04-18T09:20:44.743Z</time></trkpt><trkpt lat="43.48272" lon="10.9265183"><ele>352.0</ele><time>2026-04-18T09:20:45.741Z</time></trkpt><trkpt lat="43.4825883" lon="10.9265783"><ele>352.0</ele><time>2026-04-18T09:20:46.742Z</time></trkpt><trkpt lat="43.4824667" lon="10.9266417"><ele>352.0</ele><time>2026-04-18T09:20:47.743Z</time></trkpt><trkpt lat="43.4823517" lon="10.9267267"><ele>352.0</ele><time>2026-04-18T09:20:48.742Z</time></trkpt><trkpt lat="43.482235" lon="10.926845"><ele>352.0</ele><time>2026-04-18T09:20:49.747Z</time></trkpt><trkpt lat="43.4821283" lon="10.9269767"><ele>350.75</ele><time>2026-04-18T09:20:50.743Z</time></trkpt><trkpt lat="43.482025" lon="10.9271"><ele>349.5</ele><time>2026-04-18T09:20:51.749Z</time></trkpt><trkpt lat="43.4819167" lon="10.92721"><ele>348.25</ele><time>2026-04-18T09:20:52.744Z</time></trkpt><trkpt lat="43.4818033" lon="10.9272933"><ele>347.0</ele><time>2026-04-18T09:20:53.747Z</time></trkpt><trkpt lat="43.48168" lon="10.927345"><ele>347.0</ele><time>2026-04-18T09:20:54.746Z</time></trkpt><trkpt lat="43.4815417" lon="10.92736"><ele>347.0</ele><time>2026-04-18T09:20:55.743Z</time></trkpt><trkpt lat="43.4813867" lon="10.9273517"><ele>347.0</ele><time>2026-04-18T09:20:56.743Z</time></trkpt><trkpt lat="43.48121" lon="10.9273183"><ele>346.0</ele><time>2026-04-18T09:20:57.747Z</time></trkpt><trkpt lat="43.4810133" lon="10.9272833"><ele>345.0</ele><time>2026-04-18T09:20:58.742Z</time></trkpt><trkpt lat="43.4808083" lon="10.92725"><ele>344.0</ele><time>2026-04-18T09:20:59.742Z</time></trkpt><trkpt lat="43.4806167" lon="10.92722"><ele>344.0</ele><time>2026-04-18T09:21:00.743Z</time></trkpt><trkpt lat="43.48044" lon="10.9271967"><ele>344.0</ele><time>2026-04-18T09:21:01.749Z</time></trkpt><trkpt lat="43.480265" lon="10.9271817"><ele>344.0</ele><time>2026-04-18T09:21:02.743Z</time></trkpt><trkpt lat="43.4800817" lon="10.92718"><ele>343.33333333333337</ele><time>2026-04-18T09:21:03.742Z</time></trkpt><trkpt lat="43.4798967" lon="10.9271817"><ele>342.6666666666667</ele><time>2026-04-18T09:21:04.748Z</time></trkpt><trkpt lat="43.4797233" lon="10.9271833"><ele>342.0</ele><time>2026-04-18T09:21:05.745Z</time></trkpt><trkpt lat="43.4795583" lon="10.92719"><ele>341.0</ele><time>2026-04-18T09:21:06.745Z</time></trkpt><trkpt lat="43.4794017" lon="10.927195"><ele>340.0</ele><time>2026-04-18T09:21:07.742Z</time></trkpt><trkpt lat="43.4792467" lon="10.9271967"><ele>339.0</ele><time>2026-04-18T09:21:08.745Z</time></trkpt><trkpt lat="43.479095" lon="10.9271983"><ele>339.0</ele><time>2026-04-18T09:21:09.743Z</time></trkpt><trkpt lat="43.4789417" lon="10.927195"><ele>339.0</ele><time>2026-04-18T09:21:10.743Z</time></trkpt><trkpt lat="43.4787933" lon="10.927175"><ele>339.0</ele><time>2026-04-18T09:21:11.742Z</time></trkpt><trkpt lat="43.47863" lon="10.92712"><ele>337.0</ele><time>2026-04-18T09:21:12.742Z</time></trkpt><trkpt lat="43.4784433" lon="10.9270433"><ele>335.0</ele><time>2026-04-18T09:21:13.746Z</time></trkpt><trkpt lat="43.478235" lon="10.9269567"><ele>333.0</ele><time>2026-04-18T09:21:14.744Z</time></trkpt><trkpt lat="43.4780283" lon="10.92687"><ele>332.0</ele><time>2026-04-18T09:21:15.745Z</time></trkpt><trkpt lat="43.4778333" lon="10.9267817"><ele>331.0</ele><time>2026-04-18T09:21:16.743Z</time></trkpt><trkpt lat="43.4776433" lon="10.9266933"><ele>330.0</ele><time>2026-04-18T09:21:17.742Z</time></trkpt><trkpt lat="43.4774667" lon="10.9266017"><ele>328.3333333333333</ele><time>2026-04-18T09:21:18.745Z</time></trkpt><trkpt lat="43.4772967" lon="10.926505"><ele>326.66666666666663</ele><time>2026-04-18T09:21:19.743Z</time></trkpt><trkpt lat="43.477135" lon="10.926405"><ele>325.0</ele><time>2026-04-18T09:21:20.744Z</time></trkpt><trkpt lat="43.47698" lon="10.9263033"><ele>325.0</ele><time>2026-04-18T09:21:21.749Z</time></trkpt><trkpt lat="43.476835" lon="10.926205"><ele>325.0</ele><time>2026-04-18T09:21:22.742Z</time></trkpt><trkpt lat="43.476705" lon="10.9261117"><ele>325.0</ele><time>2026-04-18T09:21:23.743Z</time></trkpt><trkpt lat="43.47658" lon="10.9260233"><ele>325.0</ele><time>2026-04-18T09:21:24.747Z</time></trkpt><trkpt lat="43.4764583" lon="10.92594"><ele>325.0</ele><time>2026-04-18T09:21:25.744Z</time></trkpt><trkpt lat="43.4763383" lon="10.9258633"><ele>325.0</ele><time>2026-04-18T09:21:26.741Z</time></trkpt><trkpt lat="43.4762217" lon="10.9257983"><ele>325.0</ele><time>2026-04-18T09:21:27.742Z</time></trkpt><trkpt lat="43.4760967" lon="10.9257583"><ele>325.0</ele><time>2026-04-18T09:21:28.741Z</time></trkpt><trkpt lat="43.47596" lon="10.9257383"><ele>325.0</ele><time>2026-04-18T09:21:29.743Z</time></trkpt><trkpt lat="43.4758133" lon="10.925745"><ele>325.0</ele><time>2026-04-18T09:21:30.747Z</time></trkpt><trkpt lat="43.475635" lon="10.9257867"><ele>325.0</ele><time>2026-04-18T09:21:31.745Z</time></trkpt><trkpt lat="43.4754517" lon="10.9258383"><ele>323.0</ele><time>2026-04-18T09:21:32.745Z</time></trkpt><trkpt lat="43.4752767" lon="10.9258883"><ele>321.0</ele><time>2026-04-18T09:21:33.742Z</time></trkpt><trkpt lat="43.47511" lon="10.92594"><ele>319.0</ele><time>2026-04-18T09:21:34.744Z</time></trkpt><trkpt lat="43.4749533" lon="10.9259817"><ele>314.25</ele><time>2026-04-18T09:21:35.742Z</time></trkpt><trkpt lat="43.4748067" lon="10.9260167"><ele>309.5</ele><time>2026-04-18T09:21:36.746Z</time></trkpt><trkpt lat="43.4746683" lon="10.9260367"><ele>304.75</ele><time>2026-04-18T09:21:37.748Z</time></trkpt><trkpt lat="43.4745433" lon="10.9260367"><ele>300.0</ele><time>2026-04-18T09:21:38.749Z</time></trkpt><trkpt lat="43.47443" lon="10.9260133"><ele>301.75</ele><time>2026-04-18T09:21:39.743Z</time></trkpt><trkpt lat="43.4743283" lon="10.925965"><ele>303.5</ele><time>2026-04-18T09:21:40.741Z</time></trkpt><trkpt lat="43.4742217" lon="10.9258867"><ele>305.25</ele><time>2026-04-18T09:21:41.741Z</time></trkpt><trkpt lat="43.47411" lon="10.9257767"><ele>307.0</ele><time>2026-04-18T09:21:42.744Z</time></trkpt><trkpt lat="43.4740033" lon="10.9256467"><ele>307.0</ele><time>2026-04-18T09:21:43.748Z</time></trkpt><trkpt lat="43.4738967" lon="10.9255133"><ele>307.0</ele><time>2026-04-18T09:21:44.753Z</time></trkpt><trkpt lat="43.4737967" lon="10.9253817"><ele>307.0</ele><time>2026-04-18T09:21:45.747Z</time></trkpt><trkpt lat="43.4737033" lon="10.92524"><ele>307.0</ele><time>2026-04-18T09:21:46.744Z</time></trkpt><trkpt lat="43.4736133" lon="10.9250667"><ele>304.3333333333333</ele><time>2026-04-18T09:21:47.747Z</time></trkpt><trkpt lat="43.4735283" lon="10.9248783"><ele>301.6666666666667</ele><time>2026-04-18T09:21:48.742Z</time></trkpt><trkpt lat="43.4734483" lon="10.9247033"><ele>299.0</ele><time>2026-04-18T09:21:49.742Z</time></trkpt><trkpt lat="43.47336" lon="10.92455"><ele>299.0</ele><time>2026-04-18T09:21:50.743Z</time></trkpt><trkpt lat="43.473265" lon="10.9244167"><ele>299.0</ele><time>2026-04-18T09:21:51.745Z</time></trkpt><trkpt lat="43.4731533" lon="10.924295"><ele>299.0</ele><time>2026-04-18T09:21:52.74Z</time></trkpt><trkpt lat="43.4730117" lon="10.92417"><ele>299.0</ele><time>2026-04-18T09:21:53.742Z</time></trkpt><trkpt lat="43.4728583" lon="10.9240483"><ele>296.5</ele><time>2026-04-18T09:21:54.751Z</time></trkpt><trkpt lat="43.472715" lon="10.9239383"><ele>294.0</ele><time>2026-04-18T09:21:55.743Z</time></trkpt><trkpt lat="43.4725883" lon="10.9238383"><ele>291.5</ele><time>2026-04-18T09:21:56.748Z</time></trkpt><trkpt lat="43.47248" lon="10.9237433"><ele>289.0</ele><time>2026-04-18T09:21:57.747Z</time></trkpt><trkpt lat="43.4723817" lon="10.9236567"><ele>289.0</ele><time>2026-04-18T09:21:58.746Z</time></trkpt><trkpt lat="43.4722933" lon="10.9235733"><ele>289.0</ele><time>2026-04-18T09:21:59.741Z</time></trkpt><trkpt lat="43.47222" lon="10.92349"><ele>289.0</ele><time>2026-04-18T09:22:00.746Z</time></trkpt><trkpt lat="43.472165" lon="10.9233933"><ele>289.0</ele><time>2026-04-18T09:22:01.744Z</time></trkpt><trkpt lat="43.4721267" lon="10.9232883"><ele>289.0</ele><time>2026-04-18T09:22:02.743Z</time></trkpt><trkpt lat="43.47211" lon="10.92318"><ele>290.0</ele><time>2026-04-18T09:22:03.742Z</time></trkpt><trkpt lat="43.4721267" lon="10.9230467"><ele>291.0</ele><time>2026-04-18T09:22:04.744Z</time></trkpt><trkpt lat="43.47218" lon="10.9229117"><ele>292.0</ele><time>2026-04-18T09:22:05.747Z</time></trkpt><trkpt lat="43.472275" lon="10.92278"><ele>293.0</ele><time>2026-04-18T09:22:06.747Z</time></trkpt><trkpt lat="43.4723617" lon="10.922665"><ele>293.0</ele><time>2026-04-18T09:22:07.745Z</time></trkpt><trkpt lat="43.4724433" lon="10.92258"><ele>293.0</ele><time>2026-04-18T09:22:08.746Z</time></trkpt><trkpt lat="43.4725117" lon="10.92249"><ele>293.0</ele><time>2026-04-18T09:22:09.741Z</time></trkpt><trkpt lat="43.4725933" lon="10.9224267"><ele>293.0</ele><time>2026-04-18T09:22:10.741Z</time></trkpt><trkpt lat="43.4726683" lon="10.9223367"><ele>293.0</ele><time>2026-04-18T09:22:11.743Z</time></trkpt><trkpt lat="43.47276" lon="10.9222283"><ele>293.5</ele><time>2026-04-18T09:22:12.747Z</time></trkpt><trkpt lat="43.4728683" lon="10.9220967"><ele>294.0</ele><time>2026-04-18T09:22:13.746Z</time></trkpt><trkpt lat="43.472955" lon="10.9219483"><ele>294.5</ele><time>2026-04-18T09:22:14.746Z</time></trkpt><trkpt lat="43.4730567" lon="10.92182"><ele>295.0</ele><time>2026-04-18T09:22:15.744Z</time></trkpt><trkpt lat="43.47313" lon="10.92169"><ele>291.25</ele><time>2026-04-18T09:22:16.746Z</time></trkpt><trkpt lat="43.4731967" lon="10.92157"><ele>287.5</ele><time>2026-04-18T09:22:17.746Z</time></trkpt><trkpt lat="43.4732733" lon="10.92145"><ele>283.75</ele><time>2026-04-18T09:22:18.745Z</time></trkpt><trkpt lat="43.4733167" lon="10.9212983"><ele>280.0</ele><time>2026-04-18T09:22:19.745Z</time></trkpt><trkpt lat="43.4733433" lon="10.9211333"><ele>280.0</ele><time>2026-04-18T09:22:20.745Z</time></trkpt><trkpt lat="43.473375" lon="10.920965"><ele>280.0</ele><time>2026-04-18T09:22:21.744Z</time></trkpt><trkpt lat="43.4734033" lon="10.9208067"><ele>280.0</ele><time>2026-04-18T09:22:22.742Z</time></trkpt><trkpt lat="43.4734217" lon="10.9206667"><ele>280.0</ele><time>2026-04-18T09:22:23.743Z</time></trkpt><trkpt lat="43.4734367" lon="10.920535"><ele>280.0</ele><time>2026-04-18T09:22:24.744Z</time></trkpt><trkpt lat="43.473445" lon="10.9203967"><ele>278.0</ele><time>2026-04-18T09:22:25.747Z</time></trkpt><trkpt lat="43.4734267" lon="10.9202717"><ele>276.0</ele><time>2026-04-18T09:22:26.745Z</time></trkpt><trkpt lat="43.4734" lon="10.9201483"><ele>274.0</ele><time>2026-04-18T09:22:27.745Z</time></trkpt><trkpt lat="43.4733467" lon="10.9200367"><ele>272.0</ele><time>2026-04-18T09:22:28.741Z</time></trkpt><trkpt lat="43.47328" lon="10.9199217"><ele>270.0</ele><time>2026-04-18T09:22:29.743Z</time></trkpt><trkpt lat="43.4732017" lon="10.9198217"><ele>268.6</ele><time>2026-04-18T09:22:30.742Z</time></trkpt><trkpt lat="43.4731233" lon="10.919745"><ele>267.2</ele><time>2026-04-18T09:22:31.741Z</time></trkpt><trkpt lat="43.4730517" lon="10.91965"><ele>265.8</ele><time>2026-04-18T09:22:32.743Z</time></trkpt><trkpt lat="43.472995" lon="10.9195233"><ele>264.4</ele><time>2026-04-18T09:22:33.745Z</time></trkpt><trkpt lat="43.4729483" lon="10.91941"><ele>263.0</ele><time>2026-04-18T09:22:34.743Z</time></trkpt><trkpt lat="43.4729267" lon="10.9192667"><ele>260.75</ele><time>2026-04-18T09:22:35.746Z</time></trkpt><trkpt lat="43.4729183" lon="10.9190983"><ele>258.5</ele><time>2026-04-18T09:22:36.751Z</time></trkpt><trkpt lat="43.472915" lon="10.9189283"><ele>256.25</ele><time>2026-04-18T09:22:37.748Z</time></trkpt><trkpt lat="43.4728883" lon="10.9187717"><ele>254.0</ele><time>2026-04-18T09:22:38.744Z</time></trkpt><trkpt lat="43.4728383" lon="10.9186283"><ele>254.0</ele><time>2026-04-18T09:22:39.745Z</time></trkpt><trkpt lat="43.4727717" lon="10.9184817"><ele>254.0</ele><time>2026-04-18T09:22:40.75Z</time></trkpt><trkpt lat="43.4726783" lon="10.91833"><ele>254.0</ele><time>2026-04-18T09:22:41.745Z</time></trkpt><trkpt lat="43.47259" lon="10.9181767"><ele>254.0</ele><time>2026-04-18T09:22:42.746Z</time></trkpt><trkpt lat="43.4725017" lon="10.9180267"><ele>252.5</ele><time>2026-04-18T09:22:43.743Z</time></trkpt><trkpt lat="43.472425" lon="10.91788"><ele>251.0</ele><time>2026-04-18T09:22:44.744Z</time></trkpt><trkpt lat="43.4723633" lon="10.9177383"><ele>249.5</ele><time>2026-04-18T09:22:45.743Z</time></trkpt><trkpt lat="43.4722917" lon="10.9176083"><ele>248.0</ele><time>2026-04-18T09:22:46.744Z</time></trkpt><trkpt lat="43.4722217" lon="10.9174917"><ele>247.4</ele><time>2026-04-18T09:22:47.743Z</time></trkpt><trkpt lat="43.4721417" lon="10.9173933"><ele>246.8</ele><time>2026-04-18T09:22:48.744Z</time></trkpt><trkpt lat="43.4720467" lon="10.9173183"><ele>246.2</ele><time>2026-04-18T09:22:49.746Z</time></trkpt><trkpt lat="43.4719467" lon="10.91726"><ele>245.6</ele><time>2026-04-18T09:22:50.745Z</time></trkpt><trkpt lat="43.4718583" lon="10.9171967"><ele>245.0</ele><time>2026-04-18T09:22:51.744Z</time></trkpt><trkpt lat="43.471765" lon="10.9171683"><ele>243.75</ele><time>2026-04-18T09:22:52.741Z</time></trkpt><trkpt lat="43.4716683" lon="10.9171733"><ele>242.5</ele><time>2026-04-18T09:22:53.744Z</time></trkpt><trkpt lat="43.47156" lon="10.9172083"><ele>241.25</ele><time>2026-04-18T09:22:54.747Z</time></trkpt><trkpt lat="43.4714483" lon="10.9172733"><ele>240.0</ele><time>2026-04-18T09:22:55.746Z</time></trkpt><trkpt lat="43.4713233" lon="10.9173683"><ele>239.33333333333331</ele><time>2026-04-18T09:22:56.742Z</time></trkpt><trkpt lat="43.4711767" lon="10.9175167"><ele>238.66666666666666</ele><time>2026-04-18T09:22:57.745Z</time></trkpt><trkpt lat="43.47101" lon="10.91768"><ele>238.0</ele><time>2026-04-18T09:22:58.744Z</time></trkpt><trkpt lat="43.4708417" lon="10.9178383"><ele>238.0</ele><time>2026-04-18T09:22:59.749Z</time></trkpt><trkpt lat="43.4706883" lon="10.9179783"><ele>238.0</ele><time>2026-04-18T09:23:00.743Z</time></trkpt><trkpt lat="43.4705683" lon="10.9181067"><ele>238.0</ele><time>2026-04-18T09:23:01.743Z</time></trkpt><trkpt lat="43.4704683" lon="10.918225"><ele>236.99999999999997</ele><time>2026-04-18T09:23:02.745Z</time></trkpt><trkpt lat="43.4703883" lon="10.9183317"><ele>236.0</ele><time>2026-04-18T09:23:03.743Z</time></trkpt><trkpt lat="43.47031" lon="10.9184017"><ele>235.0</ele><time>2026-04-18T09:23:04.74Z</time></trkpt><trkpt lat="43.470245" lon="10.9184617"><ele>234.0</ele><time>2026-04-18T09:23:05.746Z</time></trkpt><trkpt lat="43.47017" lon="10.9184967"><ele>232.99999999999997</ele><time>2026-04-18T09:23:06.741Z</time></trkpt><trkpt lat="43.4700983" lon="10.918515"><ele>232.0</ele><time>2026-04-18T09:23:07.742Z</time></trkpt><trkpt lat="43.4700267" lon="10.9184767"><ele>231.99999999999997</ele><time>2026-04-18T09:23:08.744Z</time></trkpt><trkpt lat="43.469965" lon="10.91842"><ele>232.0</ele><time>2026-04-18T09:23:09.743Z</time></trkpt><trkpt lat="43.4699167" lon="10.9183417"><ele>232.0</ele><time>2026-04-18T09:23:10.743Z</time></trkpt><trkpt lat="43.469905" lon="10.9182267"><ele>232.0</ele><time>2026-04-18T09:23:11.747Z</time></trkpt><trkpt lat="43.4699083" lon="10.9180833"><ele>231.99999999999997</ele><time>2026-04-18T09:23:12.743Z</time></trkpt><trkpt lat="43.4699167" lon="10.91793"><ele>232.0</ele><time>2026-04-18T09:23:13.748Z</time></trkpt><trkpt lat="43.4699417" lon="10.9177917"><ele>230.99999999999997</ele><time>2026-04-18T09:23:14.751Z</time></trkpt><trkpt lat="43.4699533" lon="10.9176583"><ele>230.0</ele><time>2026-04-18T09:23:15.742Z</time></trkpt><trkpt lat="43.4699583" lon="10.9175333"><ele>229.0</ele><time>2026-04-18T09:23:16.747Z</time></trkpt><trkpt lat="43.46994" lon="10.9174217"><ele>228.0</ele><time>2026-04-18T09:23:17.745Z</time></trkpt><trkpt lat="43.4698783" lon="10.917335"><ele>226.99999999999997</ele><time>2026-04-18T09:23:18.745Z</time></trkpt><trkpt lat="43.469825" lon="10.9172683"><ele>226.0</ele><time>2026-04-18T09:23:19.744Z</time></trkpt><trkpt lat="43.4697083" lon="10.91723"><ele>222.0</ele><time>2026-04-18T09:23:20.743Z</time></trkpt><trkpt lat="43.46959" lon="10.91722"><ele>218.0</ele><time>2026-04-18T09:23:21.746Z</time></trkpt><trkpt lat="43.4694567" lon="10.917225"><ele>214.0</ele><time>2026-04-18T09:23:22.742Z</time></trkpt><trkpt lat="43.46932" lon="10.91722"><ele>210.0</ele><time>2026-04-18T09:23:23.744Z</time></trkpt><trkpt lat="43.4691283" lon="10.917225"><ele>210.0</ele><time>2026-04-18T09:23:24.745Z</time></trkpt><trkpt lat="43.4689333" lon="10.9172517"><ele>210.0</ele><time>2026-04-18T09:23:25.751Z</time></trkpt><trkpt lat="43.468775" lon="10.9172533"><ele>210.0</ele><time>2026-04-18T09:23:26.748Z</time></trkpt><trkpt lat="43.46863" lon="10.917245"><ele>208.25</ele><time>2026-04-18T09:23:27.744Z</time></trkpt><trkpt lat="43.468485" lon="10.9172317"><ele>206.5</ele><time>2026-04-18T09:23:28.744Z</time></trkpt><trkpt lat="43.4683483" lon="10.917215"><ele>204.75</ele><time>2026-04-18T09:23:29.744Z</time></trkpt><trkpt lat="43.4682183" lon="10.91716"><ele>203.0</ele><time>2026-04-18T09:23:30.743Z</time></trkpt><trkpt lat="43.4680933" lon="10.9170783"><ele>203.0</ele><time>2026-04-18T09:23:31.744Z</time></trkpt><trkpt lat="43.4679767" lon="10.9169883"><ele>203.0</ele><time>2026-04-18T09:23:32.745Z</time></trkpt><trkpt lat="43.467865" lon="10.9169083"><ele>203.0</ele><time>2026-04-18T09:23:33.741Z</time></trkpt><trkpt lat="43.4677833" lon="10.9168133"><ele>203.0</ele><time>2026-04-18T09:23:34.744Z</time></trkpt><trkpt lat="43.4677317" lon="10.9166867"><ele>201.25</ele><time>2026-04-18T09:23:35.741Z</time></trkpt><trkpt lat="43.467685" lon="10.916535"><ele>199.5</ele><time>2026-04-18T09:23:36.742Z</time></trkpt><trkpt lat="43.46769" lon="10.9163583"><ele>197.75</ele><time>2026-04-18T09:23:37.745Z</time></trkpt><trkpt lat="43.4677117" lon="10.9161583"><ele>196.0</ele><time>2026-04-18T09:23:38.747Z</time></trkpt><trkpt lat="43.4677333" lon="10.91592"><ele>194.0</ele><time>2026-04-18T09:23:39.741Z</time></trkpt><trkpt lat="43.4678033" lon="10.915705"><ele>192.0</ele><time>2026-04-18T09:23:40.742Z</time></trkpt><trkpt lat="43.4678667" lon="10.9155217"><ele>190.0</ele><time>2026-04-18T09:23:41.744Z</time></trkpt><trkpt lat="43.467875" lon="10.91529"><ele>189.0</ele><time>2026-04-18T09:23:42.746Z</time></trkpt><trkpt lat="43.46785" lon="10.9150133"><ele>188.0</ele><time>2026-04-18T09:23:43.744Z</time></trkpt><trkpt lat="43.4678483" lon="10.91477"><ele>187.0</ele><time>2026-04-18T09:23:44.748Z</time></trkpt><trkpt lat="43.4678217" lon="10.914445"><ele>186.66666666666669</ele><time>2026-04-18T09:23:45.743Z</time></trkpt><trkpt lat="43.4677717" lon="10.9141517"><ele>186.33333333333334</ele><time>2026-04-18T09:23:46.742Z</time></trkpt><trkpt lat="43.4677517" lon="10.91391"><ele>186.0</ele><time>2026-04-18T09:23:47.744Z</time></trkpt><trkpt lat="43.46776" lon="10.913715"><ele>186.0</ele><time>2026-04-18T09:23:48.746Z</time></trkpt><trkpt lat="43.467715" lon="10.9135417"><ele>186.0</ele><time>2026-04-18T09:23:49.747Z</time></trkpt><trkpt lat="43.4676967" lon="10.9134"><ele>186.0</ele><time>2026-04-18T09:23:50.748Z</time></trkpt><trkpt lat="43.467685" lon="10.9132867"><ele>186.0</ele><time>2026-04-18T09:23:51.75Z</time></trkpt><trkpt lat="43.46763" lon="10.91318"><ele>186.0</ele><time>2026-04-18T09:23:52.744Z</time></trkpt><trkpt lat="43.4675917" lon="10.913095"><ele>185.60000000000002</ele><time>2026-04-18T09:23:53.748Z</time></trkpt><trkpt lat="43.4675483" lon="10.913005"><ele>185.2</ele><time>2026-04-18T09:23:55.748Z</time></trkpt><trkpt lat="43.4674333" lon="10.913015"><ele>184.8</ele><time>2026-04-18T09:24:04.741Z</time></trkpt><trkpt lat="43.4673417" lon="10.9130517"><ele>184.39999999999998</ele><time>2026-04-18T09:24:05.745Z</time></trkpt><trkpt lat="43.4672417" lon="10.9130883"><ele>184.0</ele><time>2026-04-18T09:24:06.749Z</time></trkpt><trkpt lat="43.4671333" lon="10.9131433"><ele>185.0</ele><time>2026-04-18T09:24:07.746Z</time></trkpt><trkpt lat="43.46702" lon="10.913185"><ele>186.0</ele><time>2026-04-18T09:24:08.747Z</time></trkpt><trkpt lat="43.4668783" lon="10.913205"><ele>187.0</ele><time>2026-04-18T09:24:09.74Z</time></trkpt><trkpt lat="43.4667233" lon="10.9132367"><ele>188.0</ele><time>2026-04-18T09:24:10.741Z</time></trkpt><trkpt lat="43.4665617" lon="10.9132117"><ele>188.0</ele><time>2026-04-18T09:24:11.744Z</time></trkpt><trkpt lat="43.466395" lon="10.9131733"><ele>188.0</ele><time>2026-04-18T09:24:12.745Z</time></trkpt><trkpt lat="43.46622" lon="10.9131383"><ele>188.0</ele><time>2026-04-18T09:24:13.744Z</time></trkpt><trkpt lat="43.4660667" lon="10.9130683"><ele>189.0</ele><time>2026-04-18T09:24:14.744Z</time></trkpt><trkpt lat="43.4659" lon="10.9130467"><ele>190.0</ele><time>2026-04-18T09:24:15.742Z</time></trkpt><trkpt lat="43.465755" lon="10.9130433"><ele>191.0</ele><time>2026-04-18T09:24:16.745Z</time></trkpt><trkpt lat="43.4656283" lon="10.9130083"><ele>192.0</ele><time>2026-04-18T09:24:17.744Z</time></trkpt><trkpt lat="43.465505" lon="10.9130317"><ele>190.33333333333334</ele><time>2026-04-18T09:24:18.746Z</time></trkpt><trkpt lat="43.4653733" lon="10.9130783"><ele>188.66666666666669</ele><time>2026-04-18T09:24:19.743Z</time></trkpt><trkpt lat="43.4652317" lon="10.9131667"><ele>187.0</ele><time>2026-04-18T09:24:20.744Z</time></trkpt><trkpt lat="43.4650817" lon="10.91331"><ele>190.0</ele><time>2026-04-18T09:24:21.746Z</time></trkpt><trkpt lat="43.4649367" lon="10.9134783"><ele>193.0</ele><time>2026-04-18T09:24:22.745Z</time></trkpt><trkpt lat="43.4647917" lon="10.9136267"><ele>196.0</ele><time>2026-04-18T09:24:23.75Z</time></trkpt><trkpt lat="43.4646717" lon="10.9137667"><ele>194.75</ele><time>2026-04-18T09:24:24.743Z</time></trkpt><trkpt lat="43.4645633" lon="10.91387"><ele>193.5</ele><time>2026-04-18T09:24:25.744Z</time></trkpt><trkpt lat="43.4644517" lon="10.9139383"><ele>192.25</ele><time>2026-04-18T09:24:26.745Z</time></trkpt><trkpt lat="43.4643383" lon="10.9139617"><ele>191.0</ele><time>2026-04-18T09:24:27.745Z</time></trkpt><trkpt lat="43.464235" lon="10.913965"><ele>191.0</ele><time>2026-04-18T09:24:28.742Z</time></trkpt><trkpt lat="43.46413" lon="10.91391"><ele>191.0</ele><time>2026-04-18T09:24:29.747Z</time></trkpt><trkpt lat="43.4640233" lon="10.9138267"><ele>191.0</ele><time>2026-04-18T09:24:30.741Z</time></trkpt><trkpt lat="43.4639317" lon="10.9137833"><ele>191.0</ele><time>2026-04-18T09:24:31.741Z</time></trkpt><trkpt lat="43.4638383" lon="10.9137983"><ele>191.0</ele><time>2026-04-18T09:24:32.748Z</time></trkpt><trkpt lat="43.4637533" lon="10.9138367"><ele>192.5</ele><time>2026-04-18T09:24:33.742Z</time></trkpt><trkpt lat="43.46367" lon="10.9139417"><ele>194.0</ele><time>2026-04-18T09:24:34.743Z</time></trkpt><trkpt lat="43.46358" lon="10.914045"><ele>195.5</ele><time>2026-04-18T09:24:35.744Z</time></trkpt><trkpt lat="43.4635083" lon="10.914205"><ele>197.0</ele><time>2026-04-18T09:24:36.746Z</time></trkpt><trkpt lat="43.4633783" lon="10.9142867"><ele>197.0</ele><time>2026-04-18T09:24:37.743Z</time></trkpt><trkpt lat="43.4633" lon="10.9145267"><ele>197.0</ele><time>2026-04-18T09:24:38.748Z</time></trkpt><trkpt lat="43.463205" lon="10.9147317"><ele>197.0</ele><time>2026-04-18T09:24:39.745Z</time></trkpt><trkpt lat="43.4631083" lon="10.91491"><ele>196.0</ele><time>2026-04-18T09:24:40.746Z</time></trkpt><trkpt lat="43.4630117" lon="10.91508"><ele>195.0</ele><time>2026-04-18T09:24:41.748Z</time></trkpt><trkpt lat="43.4629033" lon="10.915225"><ele>194.0</ele><time>2026-04-18T09:24:42.748Z</time></trkpt><trkpt lat="43.4627733" lon="10.9153517"><ele>197.33333333333334</ele><time>2026-04-18T09:24:43.744Z</time></trkpt><trkpt lat="43.462635" lon="10.9154783"><ele>200.66666666666669</ele><time>2026-04-18T09:24:44.745Z</time></trkpt><trkpt lat="43.462465" lon="10.915545"><ele>204.0</ele><time>2026-04-18T09:24:45.743Z</time></trkpt><trkpt lat="43.462305" lon="10.9156067"><ele>204.0</ele><time>2026-04-18T09:24:46.744Z</time></trkpt><trkpt lat="43.4621283" lon="10.915645"><ele>204.0</ele><time>2026-04-18T09:24:47.744Z</time></trkpt><trkpt lat="43.46193" lon="10.91568"><ele>204.0</ele><time>2026-04-18T09:24:48.744Z</time></trkpt><trkpt lat="43.4617233" lon="10.9157417"><ele>207.66666666666669</ele><time>2026-04-18T09:24:49.745Z</time></trkpt><trkpt lat="43.4615333" lon="10.91579"><ele>211.33333333333334</ele><time>2026-04-18T09:24:50.753Z</time></trkpt><trkpt lat="43.4613683" lon="10.9158217"><ele>215.0</ele><time>2026-04-18T09:24:51.747Z</time></trkpt><trkpt lat="43.4612317" lon="10.9158533"><ele>216.5</ele><time>2026-04-18T09:24:52.744Z</time></trkpt><trkpt lat="43.461105" lon="10.9158467"><ele>218.0</ele><time>2026-04-18T09:24:53.743Z</time></trkpt><trkpt lat="43.4609867" lon="10.9158267"><ele>219.5</ele><time>2026-04-18T09:24:54.742Z</time></trkpt><trkpt lat="43.4608867" lon="10.9157383"><ele>221.0</ele><time>2026-04-18T09:24:55.745Z</time></trkpt><trkpt lat="43.4607783" lon="10.91564"><ele>221.0</ele><time>2026-04-18T09:24:56.744Z</time></trkpt><trkpt lat="43.4606817" lon="10.9156367"><ele>221.00000000000003</ele><time>2026-04-18T09:24:57.744Z</time></trkpt><trkpt lat="43.4605867" lon="10.9156183"><ele>221.00000000000003</ele><time>2026-04-18T09:24:58.744Z</time></trkpt><trkpt lat="43.460495" lon="10.9156583"><ele>221.0</ele><time>2026-04-18T09:24:59.748Z</time></trkpt><trkpt lat="43.4604017" lon="10.9157317"><ele>221.0</ele><time>2026-04-18T09:25:00.75Z</time></trkpt><trkpt lat="43.460345" lon="10.9158467"><ele>222.5</ele><time>2026-04-18T09:25:01.747Z</time></trkpt><trkpt lat="43.4602433" lon="10.915885"><ele>224.0</ele><time>2026-04-18T09:25:02.746Z</time></trkpt><trkpt lat="43.4601333" lon="10.9159267"><ele>225.5</ele><time>2026-04-18T09:25:03.744Z</time></trkpt><trkpt lat="43.4600033" lon="10.91591"><ele>227.0</ele><time>2026-04-18T09:25:04.741Z</time></trkpt><trkpt lat="43.4598967" lon="10.915855"><ele>227.0</ele><time>2026-04-18T09:25:05.745Z</time></trkpt><trkpt lat="43.459795" lon="10.9157383"><ele>227.0</ele><time>2026-04-18T09:25:06.743Z</time></trkpt><trkpt lat="43.4596917" lon="10.91559"><ele>227.0</ele><time>2026-04-18T09:25:07.748Z</time></trkpt><trkpt lat="43.4595833" lon="10.91539"><ele>227.6</ele><time>2026-04-18T09:25:08.746Z</time></trkpt><trkpt lat="43.4594867" lon="10.9152767"><ele>228.2</ele><time>2026-04-18T09:25:09.743Z</time></trkpt><trkpt lat="43.4594083" lon="10.9152167"><ele>228.8</ele><time>2026-04-18T09:25:10.75Z</time></trkpt><trkpt lat="43.4593133" lon="10.9152067"><ele>229.4</ele><time>2026-04-18T09:25:11.748Z</time></trkpt><trkpt lat="43.4592083" lon="10.91519"><ele>230.0</ele><time>2026-04-18T09:25:12.744Z</time></trkpt><trkpt lat="43.4590967" lon="10.9152333"><ele>230.0</ele><time>2026-04-18T09:25:13.743Z</time></trkpt><trkpt lat="43.4590117" lon="10.915305"><ele>230.0</ele><time>2026-04-18T09:25:14.75Z</time></trkpt><trkpt lat="43.45892" lon="10.915335"><ele>230.0</ele><time>2026-04-18T09:25:15.744Z</time></trkpt><trkpt lat="43.4588117" lon="10.9152783"><ele>230.0</ele><time>2026-04-18T09:25:16.744Z</time></trkpt><trkpt lat="43.458715" lon="10.9152317"><ele>230.0</ele><time>2026-04-18T09:25:17.745Z</time></trkpt><trkpt lat="43.4586083" lon="10.9150267"><ele>231.25</ele><time>2026-04-18T09:25:19.746Z</time></trkpt><trkpt lat="43.4585717" lon="10.91487"><ele>232.5</ele><time>2026-04-18T09:25:20.749Z</time></trkpt><trkpt lat="43.4585417" lon="10.9146933"><ele>233.75</ele><time>2026-04-18T09:25:21.742Z</time></trkpt><trkpt lat="43.4585517" lon="10.914455"><ele>235.0</ele><time>2026-04-18T09:25:22.745Z</time></trkpt><trkpt lat="43.4585583" lon="10.9141933"><ele>237.66666666666666</ele><time>2026-04-18T09:25:23.742Z</time></trkpt><trkpt lat="43.4585583" lon="10.913925"><ele>240.33333333333331</ele><time>2026-04-18T09:25:24.745Z</time></trkpt><trkpt lat="43.458515" lon="10.913725"><ele>243.0</ele><time>2026-04-18T09:25:25.744Z</time></trkpt><trkpt lat="43.4585467" lon="10.913515"><ele>244.4</ele><time>2026-04-18T09:25:26.747Z</time></trkpt><trkpt lat="43.4585517" lon="10.9133567"><ele>245.8</ele><time>2026-04-18T09:25:27.742Z</time></trkpt><trkpt lat="43.4585317" lon="10.9132217"><ele>247.2</ele><time>2026-04-18T09:25:28.746Z</time></trkpt><trkpt lat="43.45849" lon="10.9130983"><ele>248.6</ele><time>2026-04-18T09:25:29.744Z</time></trkpt><trkpt lat="43.4584433" lon="10.9129683"><ele>250.0</ele><time>2026-04-18T09:25:30.747Z</time></trkpt><trkpt lat="43.4583733" lon="10.9128383"><ele>250.0</ele><time>2026-04-18T09:25:31.742Z</time></trkpt><trkpt lat="43.4582633" lon="10.9127683"><ele>250.0</ele><time>2026-04-18T09:25:32.745Z</time></trkpt><trkpt lat="43.458135" lon="10.91265"><ele>250.0</ele><time>2026-04-18T09:25:33.744Z</time></trkpt><trkpt lat="43.457975" lon="10.9125183"><ele>253.0</ele><time>2026-04-18T09:25:34.746Z</time></trkpt><trkpt lat="43.4577883" lon="10.91237"><ele>256.0</ele><time>2026-04-18T09:25:35.747Z</time></trkpt><trkpt lat="43.4575767" lon="10.9122417"><ele>259.0</ele><time>2026-04-18T09:25:36.746Z</time></trkpt><trkpt lat="43.4573583" lon="10.9121333"><ele>259.0</ele><time>2026-04-18T09:25:37.751Z</time></trkpt><trkpt lat="43.45717" lon="10.912035"><ele>259.0</ele><time>2026-04-18T09:25:38.744Z</time></trkpt><trkpt lat="43.4570083" lon="10.9119317"><ele>259.0</ele><time>2026-04-18T09:25:39.746Z</time></trkpt><trkpt lat="43.45687" lon="10.9118233"><ele>260.0</ele><time>2026-04-18T09:25:40.743Z</time></trkpt><trkpt lat="43.4567483" lon="10.91173"><ele>261.0</ele><time>2026-04-18T09:25:41.744Z</time></trkpt><trkpt lat="43.4566433" lon="10.911645"><ele>262.0</ele><time>2026-04-18T09:25:42.751Z</time></trkpt><trkpt lat="43.45655" lon="10.9115817"><ele>263.0</ele><time>2026-04-18T09:25:43.754Z</time></trkpt><trkpt lat="43.4564767" lon="10.9115433"><ele>264.0</ele><time>2026-04-18T09:25:44.746Z</time></trkpt><trkpt lat="43.4563733" lon="10.9115067"><ele>264.0</ele><time>2026-04-18T09:25:46.746Z</time></trkpt><trkpt lat="43.4563067" lon="10.9115733"><ele>264.0</ele><time>2026-04-18T09:26:06.741Z</time></trkpt><trkpt lat="43.4562117" lon="10.91164"><ele>264.0</ele><time>2026-04-18T09:26:08.746Z</time></trkpt><trkpt lat="43.4561467" lon="10.9116933"><ele>264.0</ele><time>2026-04-18T09:26:09.744Z</time></trkpt><trkpt lat="43.45607" lon="10.911755"><ele>264.0</ele><time>2026-04-18T09:26:10.743Z</time></trkpt><trkpt lat="43.455985" lon="10.9117767"><ele>264.0</ele><time>2026-04-18T09:26:11.741Z</time></trkpt><trkpt lat="43.4559067" lon="10.9118333"><ele>266.0</ele><time>2026-04-18T09:26:12.745Z</time></trkpt><trkpt lat="43.45581" lon="10.91187"><ele>268.0</ele><time>2026-04-18T09:26:13.746Z</time></trkpt><trkpt lat="43.4557067" lon="10.911925"><ele>270.0</ele><time>2026-04-18T09:26:14.744Z</time></trkpt><trkpt lat="43.4555917" lon="10.9119583"><ele>272.0</ele><time>2026-04-18T09:26:15.741Z</time></trkpt><trkpt lat="43.4554633" lon="10.91199"><ele>274.5</ele><time>2026-04-18T09:26:16.74Z</time></trkpt><trkpt lat="43.4553333" lon="10.9120267"><ele>277.0</ele><time>2026-04-18T09:26:17.744Z</time></trkpt><trkpt lat="43.4552067" lon="10.91204"><ele>279.5</ele><time>2026-04-18T09:26:18.741Z</time></trkpt><trkpt lat="43.455085" lon="10.9120417"><ele>282.0</ele><time>2026-04-18T09:26:19.741Z</time></trkpt><trkpt lat="43.4549667" lon="10.9120867"><ele>282.0</ele><time>2026-04-18T09:26:20.742Z</time></trkpt><trkpt lat="43.4548533" lon="10.9121433"><ele>282.0</ele><time>2026-04-18T09:26:21.742Z</time></trkpt><trkpt lat="43.454745" lon="10.91224"><ele>282.0</ele><time>2026-04-18T09:26:22.749Z</time></trkpt><trkpt lat="43.4546267" lon="10.9122817"><ele>282.0</ele><time>2026-04-18T09:26:23.746Z</time></trkpt><trkpt lat="43.4545017" lon="10.9123033"><ele>284.5</ele><time>2026-04-18T09:26:24.744Z</time></trkpt><trkpt lat="43.4543717" lon="10.9123267"><ele>287.0</ele><time>2026-04-18T09:26:25.742Z</time></trkpt><trkpt lat="43.4542333" lon="10.9123217"><ele>289.5</ele><time>2026-04-18T09:26:26.745Z</time></trkpt><trkpt lat="43.4541033" lon="10.9122933"><ele>292.0</ele><time>2026-04-18T09:26:27.743Z</time></trkpt><trkpt lat="43.4539933" lon="10.9122483"><ele>292.0</ele><time>2026-04-18T09:26:28.742Z</time></trkpt><trkpt lat="43.453905" lon="10.9122083"><ele>292.0</ele><time>2026-04-18T09:26:29.741Z</time></trkpt><trkpt lat="43.45382" lon="10.9121783"><ele>292.0</ele><time>2026-04-18T09:26:30.741Z</time></trkpt><trkpt lat="43.4537283" lon="10.9121517"><ele>292.0</ele><time>2026-04-18T09:26:31.743Z</time></trkpt><trkpt lat="43.453625" lon="10.912145"><ele>292.0</ele><time>2026-04-18T09:26:32.745Z</time></trkpt><trkpt lat="43.4535083" lon="10.9121617"><ele>292.5</ele><time>2026-04-18T09:26:33.746Z</time></trkpt><trkpt lat="43.4533683" lon="10.912215"><ele>293.0</ele><time>2026-04-18T09:26:34.741Z</time></trkpt><trkpt lat="43.4532283" lon="10.9122683"><ele>293.5</ele><time>2026-04-18T09:26:35.746Z</time></trkpt><trkpt lat="43.453095" lon="10.9123267"><ele>294.0</ele><time>2026-04-18T09:26:36.742Z</time></trkpt><trkpt lat="43.4529617" lon="10.912375"><ele>293.5</ele><time>2026-04-18T09:26:37.741Z</time></trkpt><trkpt lat="43.45283" lon="10.9124083"><ele>293.0</ele><time>2026-04-18T09:26:38.748Z</time></trkpt><trkpt lat="43.4527033" lon="10.9124217"><ele>292.5</ele><time>2026-04-18T09:26:39.746Z</time></trkpt><trkpt lat="43.452575" lon="10.91241"><ele>292.0</ele><time>2026-04-18T09:26:40.743Z</time></trkpt><trkpt lat="43.4524617" lon="10.912355"><ele>292.0</ele><time>2026-04-18T09:26:41.742Z</time></trkpt><trkpt lat="43.452355" lon="10.912295"><ele>292.0</ele><time>2026-04-18T09:26:42.744Z</time></trkpt><trkpt lat="43.45225" lon="10.9122317"><ele>292.0</ele><time>2026-04-18T09:26:43.744Z</time></trkpt><trkpt lat="43.45212" lon="10.9121917"><ele>292.0</ele><time>2026-04-18T09:26:44.744Z</time></trkpt><trkpt lat="43.4519683" lon="10.9121617"><ele>290.75</ele><time>2026-04-18T09:26:45.742Z</time></trkpt><trkpt lat="43.4518217" lon="10.9121483"><ele>289.5</ele><time>2026-04-18T09:26:46.741Z</time></trkpt><trkpt lat="43.451695" lon="10.91214"><ele>288.25</ele><time>2026-04-18T09:26:47.742Z</time></trkpt><trkpt lat="43.4515883" lon="10.9121283"><ele>287.0</ele><time>2026-04-18T09:26:48.745Z</time></trkpt><trkpt lat="43.4514983" lon="10.9121083"><ele>287.0</ele><time>2026-04-18T09:26:49.747Z</time></trkpt><trkpt lat="43.4514083" lon="10.9120767"><ele>287.0</ele><time>2026-04-18T09:26:50.743Z</time></trkpt><trkpt lat="43.4513267" lon="10.9120417"><ele>287.0</ele><time>2026-04-18T09:26:51.743Z</time></trkpt><trkpt lat="43.4512483" lon="10.9120083"><ele>287.0</ele><time>2026-04-18T09:26:52.748Z</time></trkpt><trkpt lat="43.4511683" lon="10.9119817"><ele>287.0</ele><time>2026-04-18T09:26:53.742Z</time></trkpt><trkpt lat="43.45109" lon="10.91197"><ele>287.0</ele><time>2026-04-18T09:26:54.739Z</time></trkpt><trkpt lat="43.45101" lon="10.9119733"><ele>286.33333333333337</ele><time>2026-04-18T09:26:55.745Z</time></trkpt><trkpt lat="43.4509333" lon="10.9119867"><ele>285.6666666666667</ele><time>2026-04-18T09:26:56.744Z</time></trkpt><trkpt lat="43.4508583" lon="10.9119833"><ele>285.0</ele><time>2026-04-18T09:26:57.748Z</time></trkpt><trkpt lat="43.4507833" lon="10.9119533"><ele>284.3333333333333</ele><time>2026-04-18T09:26:58.746Z</time></trkpt><trkpt lat="43.4507033" lon="10.9118833"><ele>283.66666666666663</ele><time>2026-04-18T09:26:59.751Z</time></trkpt><trkpt lat="43.4506283" lon="10.9117833"><ele>283.0</ele><time>2026-04-18T09:27:00.745Z</time></trkpt><trkpt lat="43.450545" lon="10.911685"><ele>281.75</ele><time>2026-04-18T09:27:01.744Z</time></trkpt><trkpt lat="43.4504533" lon="10.9115983"><ele>280.5</ele><time>2026-04-18T09:27:02.745Z</time></trkpt><trkpt lat="43.4503483" lon="10.911525"><ele>279.25</ele><time>2026-04-18T09:27:03.747Z</time></trkpt><trkpt lat="43.4502367" lon="10.9114567"><ele>278.0</ele><time>2026-04-18T09:27:04.743Z</time></trkpt><trkpt lat="43.450125" lon="10.9113933"><ele>278.0</ele><time>2026-04-18T09:27:05.743Z</time></trkpt><trkpt lat="43.4500133" lon="10.91133"><ele>278.0</ele><time>2026-04-18T09:27:06.744Z</time></trkpt><trkpt lat="43.4499017" lon="10.9112683"><ele>278.0</ele><time>2026-04-18T09:27:07.742Z</time></trkpt><trkpt lat="43.44979" lon="10.9112017"><ele>278.0</ele><time>2026-04-18T09:27:08.744Z</time></trkpt><trkpt lat="43.4496817" lon="10.9111417"><ele>276.75</ele><time>2026-04-18T09:27:09.741Z</time></trkpt><trkpt lat="43.449575" lon="10.9110833"><ele>275.5</ele><time>2026-04-18T09:27:10.741Z</time></trkpt><trkpt lat="43.4494633" lon="10.9110217"><ele>274.25</ele><time>2026-04-18T09:27:11.743Z</time></trkpt><trkpt lat="43.449345" lon="10.910955"><ele>273.0</ele><time>2026-04-18T09:27:12.744Z</time></trkpt><trkpt lat="43.4492167" lon="10.9108933"><ele>273.0</ele><time>2026-04-18T09:27:13.741Z</time></trkpt><trkpt lat="43.44909" lon="10.9108483"><ele>273.0</ele><time>2026-04-18T09:27:14.746Z</time></trkpt><trkpt lat="43.4489683" lon="10.9108083"><ele>273.0</ele><time>2026-04-18T09:27:15.748Z</time></trkpt><trkpt lat="43.448845" lon="10.9107617"><ele>273.0</ele><time>2026-04-18T09:27:16.744Z</time></trkpt><trkpt lat="43.4487183" lon="10.9106933"><ele>272.75</ele><time>2026-04-18T09:27:17.744Z</time></trkpt><trkpt lat="43.448595" lon="10.9106033"><ele>272.5</ele><time>2026-04-18T09:27:18.741Z</time></trkpt><trkpt lat="43.4484783" lon="10.9105017"><ele>272.25</ele><time>2026-04-18T09:27:19.743Z</time></trkpt><trkpt lat="43.44836" lon="10.9104067"><ele>272.0</ele><time>2026-04-18T09:27:20.745Z</time></trkpt><trkpt lat="43.4482467" lon="10.9103167"><ele>272.0</ele><time>2026-04-18T09:27:21.744Z</time></trkpt><trkpt lat="43.448125" lon="10.910225"><ele>272.0</ele><time>2026-04-18T09:27:22.743Z</time></trkpt><trkpt lat="43.44799" lon="10.9101433"><ele>272.0</ele><time>2026-04-18T09:27:23.747Z</time></trkpt><trkpt lat="43.44784" lon="10.9100917"><ele>272.0</ele><time>2026-04-18T09:27:24.747Z</time></trkpt><trkpt lat="43.44771" lon="10.9100133"><ele>270.75</ele><time>2026-04-18T09:27:25.742Z</time></trkpt><trkpt lat="43.4475817" lon="10.9099383"><ele>269.5</ele><time>2026-04-18T09:27:26.746Z</time></trkpt><trkpt lat="43.4474483" lon="10.9098717"><ele>268.25</ele><time>2026-04-18T09:27:27.745Z</time></trkpt><trkpt lat="43.4473117" lon="10.9097967"><ele>267.0</ele><time>2026-04-18T09:27:28.749Z</time></trkpt><trkpt lat="43.4471883" lon="10.9097017"><ele>265.5</ele><time>2026-04-18T09:27:29.749Z</time></trkpt><trkpt lat="43.447055" lon="10.9096383"><ele>264.0</ele><time>2026-04-18T09:27:30.747Z</time></trkpt><trkpt lat="43.4469333" lon="10.909575"><ele>262.5</ele><time>2026-04-18T09:27:31.745Z</time></trkpt><trkpt lat="43.4468133" lon="10.909545"><ele>261.0</ele><time>2026-04-18T09:27:32.747Z</time></trkpt><trkpt lat="43.44671" lon="10.9095017"><ele>261.0</ele><time>2026-04-18T09:27:33.744Z</time></trkpt><trkpt lat="43.446605" lon="10.9094633"><ele>261.0</ele><time>2026-04-18T09:27:34.742Z</time></trkpt><trkpt lat="43.4465233" lon="10.909385"><ele>261.0</ele><time>2026-04-18T09:27:35.742Z</time></trkpt><trkpt lat="43.44644" lon="10.9092867"><ele>261.0</ele><time>2026-04-18T09:27:36.745Z</time></trkpt><trkpt lat="43.4463633" lon="10.9091267"><ele>258.3333333333333</ele><time>2026-04-18T09:27:37.744Z</time></trkpt><trkpt lat="43.446285" lon="10.908925"><ele>255.66666666666666</ele><time>2026-04-18T09:27:38.744Z</time></trkpt><trkpt lat="43.4462117" lon="10.9087083"><ele>253.0</ele><time>2026-04-18T09:27:39.742Z</time></trkpt><trkpt lat="43.4461433" lon="10.9084983"><ele>254.0</ele><time>2026-04-18T09:27:40.746Z</time></trkpt><trkpt lat="43.44609" lon="10.9083017"><ele>255.0</ele><time>2026-04-18T09:27:41.743Z</time></trkpt><trkpt lat="43.4460267" lon="10.9081233"><ele>256.0</ele><time>2026-04-18T09:27:42.741Z</time></trkpt><trkpt lat="43.4459883" lon="10.90794"><ele>257.0</ele><time>2026-04-18T09:27:43.743Z</time></trkpt><trkpt lat="43.4459033" lon="10.9077633"><ele>256.33333333333337</ele><time>2026-04-18T09:27:44.748Z</time></trkpt><trkpt lat="43.445805" lon="10.9075767"><ele>255.66666666666669</ele><time>2026-04-18T09:27:45.746Z</time></trkpt><trkpt lat="43.4456833" lon="10.9073983"><ele>255.0</ele><time>2026-04-18T09:27:46.748Z</time></trkpt><trkpt lat="43.4455817" lon="10.9072067"><ele>255.0</ele><time>2026-04-18T09:27:47.744Z</time></trkpt><trkpt lat="43.4454733" lon="10.9070283"><ele>255.0</ele><time>2026-04-18T09:27:48.743Z</time></trkpt><trkpt lat="43.44538" lon="10.9068333"><ele>255.0</ele><time>2026-04-18T09:27:49.742Z</time></trkpt><trkpt lat="43.4452717" lon="10.90663"><ele>254.0</ele><time>2026-04-18T09:27:50.747Z</time></trkpt><trkpt lat="43.4451183" lon="10.90643"><ele>253.0</ele><time>2026-04-18T09:27:51.748Z</time></trkpt><trkpt lat="43.444965" lon="10.9062183"><ele>252.0</ele><time>2026-04-18T09:27:52.745Z</time></trkpt><trkpt lat="43.44481" lon="10.9060233"><ele>251.0</ele><time>2026-04-18T09:27:53.745Z</time></trkpt><trkpt lat="43.444675" lon="10.9058167"><ele>250.0</ele><time>2026-04-18T09:27:54.745Z</time></trkpt><trkpt lat="43.444545" lon="10.9056367"><ele>249.0</ele><time>2026-04-18T09:27:55.748Z</time></trkpt><trkpt lat="43.4444367" lon="10.9054433"><ele>248.66666666666669</ele><time>2026-04-18T09:27:56.748Z</time></trkpt><trkpt lat="43.4443533" lon="10.9052433"><ele>248.33333333333334</ele><time>2026-04-18T09:27:57.746Z</time></trkpt><trkpt lat="43.4442533" lon="10.9050583"><ele>248.0</ele><time>2026-04-18T09:27:58.741Z</time></trkpt><trkpt lat="43.4441267" lon="10.9049483"><ele>249.0</ele><time>2026-04-18T09:27:59.746Z</time></trkpt><trkpt lat="43.4440067" lon="10.90482"><ele>250.0</ele><time>2026-04-18T09:28:00.743Z</time></trkpt><trkpt lat="43.4439" lon="10.9046533"><ele>251.0</ele><time>2026-04-18T09:28:01.743Z</time></trkpt><trkpt lat="43.44373" lon="10.9045467"><ele>249.0</ele><time>2026-04-18T09:28:02.744Z</time></trkpt><trkpt lat="43.44358" lon="10.9043717"><ele>247.0</ele><time>2026-04-18T09:28:03.743Z</time></trkpt><trkpt lat="43.4434217" lon="10.9042133"><ele>245.0</ele><time>2026-04-18T09:28:04.745Z</time></trkpt><trkpt lat="43.44327" lon="10.904055"><ele>245.0</ele><time>2026-04-18T09:28:05.743Z</time></trkpt><trkpt lat="43.4431133" lon="10.9039117"><ele>245.0</ele><time>2026-04-18T09:28:06.749Z</time></trkpt><trkpt lat="43.4429567" lon="10.903775"><ele>245.0</ele><time>2026-04-18T09:28:07.747Z</time></trkpt><trkpt lat="43.44278" lon="10.9036567"><ele>245.33333333333334</ele><time>2026-04-18T09:28:08.747Z</time></trkpt><trkpt lat="43.442595" lon="10.9035083"><ele>245.66666666666669</ele><time>2026-04-18T09:28:09.744Z</time></trkpt><trkpt lat="43.44242" lon="10.9033267"><ele>246.0</ele><time>2026-04-18T09:28:10.744Z</time></trkpt><trkpt lat="43.44224" lon="10.9032017"><ele>245.33333333333331</ele><time>2026-04-18T09:28:11.748Z</time></trkpt><trkpt lat="43.44209" lon="10.9030533"><ele>244.66666666666666</ele><time>2026-04-18T09:28:12.747Z</time></trkpt><trkpt lat="43.44195" lon="10.9029567"><ele>244.0</ele><time>2026-04-18T09:28:13.747Z</time></trkpt><trkpt lat="43.44182" lon="10.90292"><ele>244.0</ele><time>2026-04-18T09:28:14.744Z</time></trkpt><trkpt lat="43.4416983" lon="10.902805"><ele>244.0</ele><time>2026-04-18T09:28:15.744Z</time></trkpt><trkpt lat="43.44157" lon="10.9027317"><ele>244.0</ele><time>2026-04-18T09:28:16.745Z</time></trkpt><trkpt lat="43.4414433" lon="10.9027267"><ele>244.0</ele><time>2026-04-18T09:28:17.741Z</time></trkpt><trkpt lat="43.4413067" lon="10.9027217"><ele>243.5</ele><time>2026-04-18T09:28:18.744Z</time></trkpt><trkpt lat="43.4411667" lon="10.9027167"><ele>243.0</ele><time>2026-04-18T09:28:19.744Z</time></trkpt><trkpt lat="43.44102" lon="10.90268"><ele>242.5</ele><time>2026-04-18T09:28:20.745Z</time></trkpt><trkpt lat="43.4408817" lon="10.9026667"><ele>242.0</ele><time>2026-04-18T09:28:21.754Z</time></trkpt><trkpt lat="43.4407317" lon="10.9025867"><ele>243.33333333333334</ele><time>2026-04-18T09:28:22.747Z</time></trkpt><trkpt lat="43.440585" lon="10.9025117"><ele>244.66666666666669</ele><time>2026-04-18T09:28:23.746Z</time></trkpt><trkpt lat="43.440445" lon="10.9024317"><ele>246.0</ele><time>2026-04-18T09:28:24.754Z</time></trkpt><trkpt lat="43.440315" lon="10.902315"><ele>248.66666666666669</ele><time>2026-04-18T09:28:25.748Z</time></trkpt><trkpt lat="43.4401967" lon="10.902195"><ele>251.33333333333334</ele><time>2026-04-18T09:28:26.744Z</time></trkpt><trkpt lat="43.4400983" lon="10.9020383"><ele>254.0</ele><time>2026-04-18T09:28:27.746Z</time></trkpt><trkpt lat="43.4399933" lon="10.901865"><ele>252.66666666666669</ele><time>2026-04-18T09:28:28.75Z</time></trkpt><trkpt lat="43.4398883" lon="10.9016967"><ele>251.33333333333331</ele><time>2026-04-18T09:28:29.741Z</time></trkpt><trkpt lat="43.4398067" lon="10.9015217"><ele>250.0</ele><time>2026-04-18T09:28:30.744Z</time></trkpt><trkpt lat="43.43974" lon="10.9013417"><ele>250.0</ele><time>2026-04-18T09:28:31.741Z</time></trkpt><trkpt lat="43.439675" lon="10.9011767"><ele>250.0</ele><time>2026-04-18T09:28:32.743Z</time></trkpt><trkpt lat="43.439645" lon="10.90099"><ele>250.0</ele><time>2026-04-18T09:28:33.747Z</time></trkpt><trkpt lat="43.4396267" lon="10.9007783"><ele>250.0</ele><time>2026-04-18T09:28:34.743Z</time></trkpt><trkpt lat="43.4396333" lon="10.9005567"><ele>249.25</ele><time>2026-04-18T09:28:35.746Z</time></trkpt><trkpt lat="43.4396417" lon="10.900345"><ele>248.5</ele><time>2026-04-18T09:28:36.745Z</time></trkpt><trkpt lat="43.4396483" lon="10.9001417"><ele>247.75</ele><time>2026-04-18T09:28:37.743Z</time></trkpt><trkpt lat="43.4396483" lon="10.89998"><ele>247.0</ele><time>2026-04-18T09:28:38.744Z</time></trkpt><trkpt lat="43.4396583" lon="10.8998467"><ele>247.0</ele><time>2026-04-18T09:28:39.744Z</time></trkpt><trkpt lat="43.4396633" lon="10.8997383"><ele>247.0</ele><time>2026-04-18T09:28:40.743Z</time></trkpt><trkpt lat="43.4396117" lon="10.8996217"><ele>247.0</ele><time>2026-04-18T09:28:41.743Z</time></trkpt><trkpt lat="43.439535" lon="10.8995167"><ele>247.0</ele><time>2026-04-18T09:28:42.744Z</time></trkpt><trkpt lat="43.4394567" lon="10.899425"><ele>247.0</ele><time>2026-04-18T09:28:43.745Z</time></trkpt><trkpt lat="43.4393567" lon="10.8993217"><ele>248.0</ele><time>2026-04-18T09:28:44.742Z</time></trkpt><trkpt lat="43.4392483" lon="10.8992133"><ele>249.0</ele><time>2026-04-18T09:28:45.742Z</time></trkpt><trkpt lat="43.4391433" lon="10.8990867"><ele>250.0</ele><time>2026-04-18T09:28:46.742Z</time></trkpt><trkpt lat="43.4390383" lon="10.89897"><ele>251.0</ele><time>2026-04-18T09:28:47.746Z</time></trkpt><trkpt lat="43.43895" lon="10.8988467"><ele>251.0</ele><time>2026-04-18T09:28:48.747Z</time></trkpt><trkpt lat="43.4388633" lon="10.898725"><ele>251.0</ele><time>2026-04-18T09:28:49.751Z</time></trkpt><trkpt lat="43.4387833" lon="10.8985833"><ele>251.0</ele><time>2026-04-18T09:28:50.754Z</time></trkpt><trkpt lat="43.4387417" lon="10.8983983"><ele>251.0</ele><time>2026-04-18T09:28:51.747Z</time></trkpt><trkpt lat="43.438695" lon="10.8982267"><ele>250.0</ele><time>2026-04-18T09:28:52.746Z</time></trkpt><trkpt lat="43.4386433" lon="10.8980633"><ele>249.0</ele><time>2026-04-18T09:28:53.745Z</time></trkpt><trkpt lat="43.4385683" lon="10.897925"><ele>248.0</ele><time>2026-04-18T09:28:54.746Z</time></trkpt><trkpt lat="43.4384883" lon="10.897795"><ele>247.0</ele><time>2026-04-18T09:28:55.748Z</time></trkpt><trkpt lat="43.43843" lon="10.8976383"><ele>244.33333333333331</ele><time>2026-04-18T09:28:56.745Z</time></trkpt><trkpt lat="43.4383917" lon="10.8974433"><ele>241.66666666666669</ele><time>2026-04-18T09:28:57.747Z</time></trkpt><trkpt lat="43.4383617" lon="10.8972117"><ele>239.0</ele><time>2026-04-18T09:28:58.743Z</time></trkpt><trkpt lat="43.438315" lon="10.896975"><ele>239.0</ele><time>2026-04-18T09:28:59.743Z</time></trkpt><trkpt lat="43.4382483" lon="10.89676"><ele>239.0</ele><time>2026-04-18T09:29:00.744Z</time></trkpt><trkpt lat="43.4382183" lon="10.8965483"><ele>239.0</ele><time>2026-04-18T09:29:01.745Z</time></trkpt><trkpt lat="43.43819" lon="10.8963683"><ele>237.6</ele><time>2026-04-18T09:29:02.751Z</time></trkpt><trkpt lat="43.4381967" lon="10.896195"><ele>236.2</ele><time>2026-04-18T09:29:03.747Z</time></trkpt><trkpt lat="43.43822" lon="10.89603"><ele>234.79999999999998</ele><time>2026-04-18T09:29:04.743Z</time></trkpt><trkpt lat="43.4381817" lon="10.8959033"><ele>233.39999999999998</ele><time>2026-04-18T09:29:05.742Z</time></trkpt><trkpt lat="43.438155" lon="10.8957933"><ele>232.0</ele><time>2026-04-18T09:29:06.742Z</time></trkpt><trkpt lat="43.4380967" lon="10.8956983"><ele>231.75</ele><time>2026-04-18T09:29:07.743Z</time></trkpt><trkpt lat="43.4380267" lon="10.8956067"><ele>231.5</ele><time>2026-04-18T09:29:08.743Z</time></trkpt><trkpt lat="43.437945" lon="10.8955133"><ele>231.25</ele><time>2026-04-18T09:29:09.747Z</time></trkpt><trkpt lat="43.4378667" lon="10.89539"><ele>231.0</ele><time>2026-04-18T09:29:10.744Z</time></trkpt><trkpt lat="43.4378" lon="10.89523"><ele>230.0</ele><time>2026-04-18T09:29:11.744Z</time></trkpt><trkpt lat="43.437735" lon="10.8950567"><ele>229.0</ele><time>2026-04-18T09:29:12.746Z</time></trkpt><trkpt lat="43.437665" lon="10.8948917"><ele>228.0</ele><time>2026-04-18T09:29:13.74Z</time></trkpt><trkpt lat="43.4375967" lon="10.8947367"><ele>227.0</ele><time>2026-04-18T09:29:14.747Z</time></trkpt><trkpt lat="43.43752" lon="10.8945983"><ele>227.0</ele><time>2026-04-18T09:29:15.742Z</time></trkpt><trkpt lat="43.43744" lon="10.8944667"><ele>227.0</ele><time>2026-04-18T09:29:16.741Z</time></trkpt><trkpt lat="43.4373483" lon="10.8943517"><ele>227.0</ele><time>2026-04-18T09:29:17.741Z</time></trkpt><trkpt lat="43.4372467" lon="10.8942583"><ele>227.0</ele><time>2026-04-18T09:29:18.742Z</time></trkpt><trkpt lat="43.4371417" lon="10.8941733"><ele>224.75</ele><time>2026-04-18T09:29:19.745Z</time></trkpt><trkpt lat="43.437045" lon="10.89408"><ele>222.5</ele><time>2026-04-18T09:29:20.744Z</time></trkpt><trkpt lat="43.43694" lon="10.894015"><ele>220.25</ele><time>2026-04-18T09:29:21.748Z</time></trkpt><trkpt lat="43.43683" lon="10.89397"><ele>218.0</ele><time>2026-04-18T09:29:22.745Z</time></trkpt><trkpt lat="43.43673" lon="10.89392"><ele>218.0</ele><time>2026-04-18T09:29:23.745Z</time></trkpt><trkpt lat="43.4366283" lon="10.893895"><ele>218.0</ele><time>2026-04-18T09:29:24.749Z</time></trkpt><trkpt lat="43.43653" lon="10.893875"><ele>218.0</ele><time>2026-04-18T09:29:25.741Z</time></trkpt><trkpt lat="43.4364383" lon="10.8938533"><ele>218.0</ele><time>2026-04-18T09:29:26.74Z</time></trkpt><trkpt lat="43.4363517" lon="10.8938283"><ele>218.0</ele><time>2026-04-18T09:29:27.743Z</time></trkpt><trkpt lat="43.43626" lon="10.8937983"><ele>218.0</ele><time>2026-04-18T09:29:28.742Z</time></trkpt><trkpt lat="43.43617" lon="10.8937583"><ele>218.0</ele><time>2026-04-18T09:29:29.742Z</time></trkpt><trkpt lat="43.436085" lon="10.8937"><ele>218.0</ele><time>2026-04-18T09:29:30.746Z</time></trkpt><trkpt lat="43.436" lon="10.8936133"><ele>218.0</ele><time>2026-04-18T09:29:31.745Z</time></trkpt><trkpt lat="43.4359133" lon="10.89349"><ele>218.0</ele><time>2026-04-18T09:29:32.742Z</time></trkpt><trkpt lat="43.43581" lon="10.8933533"><ele>218.0</ele><time>2026-04-18T09:29:33.742Z</time></trkpt><trkpt lat="43.43571" lon="10.8932"><ele>218.0</ele><time>2026-04-18T09:29:34.745Z</time></trkpt><trkpt lat="43.4355933" lon="10.89305"><ele>218.0</ele><time>2026-04-18T09:29:35.751Z</time></trkpt><trkpt lat="43.4354717" lon="10.8929033"><ele>216.25</ele><time>2026-04-18T09:29:36.741Z</time></trkpt><trkpt lat="43.4353633" lon="10.8927533"><ele>214.5</ele><time>2026-04-18T09:29:37.741Z</time></trkpt><trkpt lat="43.4352483" lon="10.8926217"><ele>212.75</ele><time>2026-04-18T09:29:38.743Z</time></trkpt><trkpt lat="43.4351483" lon="10.89249"><ele>211.0</ele><time>2026-04-18T09:29:39.746Z</time></trkpt><trkpt lat="43.4350467" lon="10.8923817"><ele>211.0</ele><time>2026-04-18T09:29:40.744Z</time></trkpt><trkpt lat="43.4349667" lon="10.8922583"><ele>211.0</ele><time>2026-04-18T09:29:41.744Z</time></trkpt><trkpt lat="43.4348983" lon="10.8921333"><ele>211.0</ele><time>2026-04-18T09:29:42.744Z</time></trkpt><trkpt lat="43.434835" lon="10.8920033"><ele>211.0</ele><time>2026-04-18T09:29:43.743Z</time></trkpt><trkpt lat="43.4347933" lon="10.8918667"><ele>211.60000000000002</ele><time>2026-04-18T09:29:44.745Z</time></trkpt><trkpt lat="43.4347567" lon="10.891745"><ele>212.2</ele><time>2026-04-18T09:29:45.743Z</time></trkpt><trkpt lat="43.4347183" lon="10.8916467"><ele>212.79999999999998</ele><time>2026-04-18T09:29:46.746Z</time></trkpt><trkpt lat="43.4346433" lon="10.8915367"><ele>213.39999999999998</ele><time>2026-04-18T09:29:48.748Z</time></trkpt><trkpt lat="43.4345333" lon="10.891585"><ele>214.0</ele><time>2026-04-18T09:29:50.755Z</time></trkpt><trkpt lat="43.4344833" lon="10.89167"><ele>211.16666666666666</ele><time>2026-04-18T09:29:51.744Z</time></trkpt><trkpt lat="43.43445" lon="10.89176"><ele>208.33333333333331</ele><time>2026-04-18T09:29:52.749Z</time></trkpt><trkpt lat="43.4344317" lon="10.89187"><ele>205.5</ele><time>2026-04-18T09:29:53.743Z</time></trkpt><trkpt lat="43.4344083" lon="10.891975"><ele>202.66666666666669</ele><time>2026-04-18T09:29:54.747Z</time></trkpt><trkpt lat="43.4343883" lon="10.8920883"><ele>199.83333333333334</ele><time>2026-04-18T09:29:55.747Z</time></trkpt><trkpt lat="43.434435" lon="10.8922317"><ele>197.0</ele><time>2026-04-18T09:29:56.746Z</time></trkpt><trkpt lat="43.4344783" lon="10.8923617"><ele>197.0</ele><time>2026-04-18T09:29:57.749Z</time></trkpt><trkpt lat="43.4345267" lon="10.892485"><ele>197.0</ele><time>2026-04-18T09:29:58.744Z</time></trkpt><trkpt lat="43.43458" lon="10.8926117"><ele>197.0</ele><time>2026-04-18T09:29:59.744Z</time></trkpt><trkpt lat="43.43463" lon="10.8927633"><ele>197.0</ele><time>2026-04-18T09:30:00.748Z</time></trkpt><trkpt lat="43.4346617" lon="10.892935"><ele>196.5</ele><time>2026-04-18T09:30:01.744Z</time></trkpt><trkpt lat="43.4346833" lon="10.89311"><ele>196.0</ele><time>2026-04-18T09:30:02.747Z</time></trkpt><trkpt lat="43.4346867" lon="10.893285"><ele>195.5</ele><time>2026-04-18T09:30:03.745Z</time></trkpt><trkpt lat="43.434695" lon="10.893445"><ele>195.0</ele><time>2026-04-18T09:30:04.75Z</time></trkpt><trkpt lat="43.434705" lon="10.89359"><ele>195.0</ele><time>2026-04-18T09:30:05.742Z</time></trkpt><trkpt lat="43.4347083" lon="10.8937083"><ele>195.0</ele><time>2026-04-18T09:30:06.746Z</time></trkpt><trkpt lat="43.4347117" lon="10.893805"><ele>195.0</ele><time>2026-04-18T09:30:07.748Z</time></trkpt><trkpt lat="43.4346617" lon="10.8939217"><ele>195.0</ele><time>2026-04-18T09:30:09.743Z</time></trkpt><trkpt lat="43.4345483" lon="10.8938983"><ele>195.0</ele><time>2026-04-18T09:30:11.743Z</time></trkpt><trkpt lat="43.4344783" lon="10.8937983"><ele>193.75</ele><time>2026-04-18T09:30:12.746Z</time></trkpt><trkpt lat="43.434395" lon="10.89368"><ele>192.5</ele><time>2026-04-18T09:30:13.745Z</time></trkpt><trkpt lat="43.4342917" lon="10.893555"><ele>191.25</ele><time>2026-04-18T09:30:14.747Z</time></trkpt><trkpt lat="43.4341733" lon="10.8934417"><ele>190.0</ele><time>2026-04-18T09:30:15.751Z</time></trkpt><trkpt lat="43.4340517" lon="10.8933083"><ele>190.0</ele><time>2026-04-18T09:30:16.748Z</time></trkpt><trkpt lat="43.43392" lon="10.89322"><ele>190.0</ele><time>2026-04-18T09:30:17.746Z</time></trkpt><trkpt lat="43.433795" lon="10.8931467"><ele>190.0</ele><time>2026-04-18T09:30:18.743Z</time></trkpt><trkpt lat="43.4336817" lon="10.8930433"><ele>190.0</ele><time>2026-04-18T09:30:19.742Z</time></trkpt><trkpt lat="43.4335783" lon="10.892955"><ele>187.6</ele><time>2026-04-18T09:30:20.743Z</time></trkpt><trkpt lat="43.4334833" lon="10.89285"><ele>185.2</ele><time>2026-04-18T09:30:21.747Z</time></trkpt><trkpt lat="43.4333917" lon="10.8927867"><ele>182.8</ele><time>2026-04-18T09:30:22.748Z</time></trkpt><trkpt lat="43.433315" lon="10.892705"><ele>180.4</ele><time>2026-04-18T09:30:23.745Z</time></trkpt><trkpt lat="43.4332417" lon="10.89265"><ele>178.0</ele><time>2026-04-18T09:30:24.747Z</time></trkpt><trkpt lat="43.4331633" lon="10.8926117"><ele>178.0</ele><time>2026-04-18T09:30:25.746Z</time></trkpt><trkpt lat="43.4330717" lon="10.8926267"><ele>178.0</ele><time>2026-04-18T09:30:26.749Z</time></trkpt><trkpt lat="43.4329617" lon="10.8926583"><ele>178.0</ele><time>2026-04-18T09:30:27.743Z</time></trkpt><trkpt lat="43.4328333" lon="10.8926817"><ele>178.0</ele><time>2026-04-18T09:30:28.743Z</time></trkpt><trkpt lat="43.4327083" lon="10.892745"><ele>176.75</ele><time>2026-04-18T09:30:29.747Z</time></trkpt><trkpt lat="43.4325833" lon="10.8927783"><ele>175.5</ele><time>2026-04-18T09:30:30.748Z</time></trkpt><trkpt lat="43.4324617" lon="10.892805"><ele>174.25</ele><time>2026-04-18T09:30:31.743Z</time></trkpt><trkpt lat="43.4323417" lon="10.89283"><ele>173.0</ele><time>2026-04-18T09:30:32.746Z</time></trkpt><trkpt lat="43.4322267" lon="10.8928483"><ele>174.0</ele><time>2026-04-18T09:30:33.746Z</time></trkpt><trkpt lat="43.4321183" lon="10.8928617"><ele>175.0</ele><time>2026-04-18T09:30:34.744Z</time></trkpt><trkpt lat="43.4320317" lon="10.8928867"><ele>176.0</ele><time>2026-04-18T09:30:35.749Z</time></trkpt><trkpt lat="43.43197" lon="10.89291"><ele>177.0</ele><time>2026-04-18T09:30:36.744Z</time></trkpt><trkpt lat="43.431895" lon="10.8929517"><ele>178.0</ele><time>2026-04-18T09:30:38.746Z</time></trkpt><trkpt lat="43.43187" lon="10.89311"><ele>178.0</ele><time>2026-04-18T09:30:50.741Z</time></trkpt><trkpt lat="43.4318767" lon="10.8932117"><ele>178.0</ele><time>2026-04-18T09:30:51.741Z</time></trkpt><trkpt lat="43.4318983" lon="10.8933417"><ele>178.0</ele><time>2026-04-18T09:30:52.741Z</time></trkpt><trkpt lat="43.4319183" lon="10.893475"><ele>178.0</ele><time>2026-04-18T09:30:53.746Z</time></trkpt><trkpt lat="43.43192" lon="10.89365"><ele>178.0</ele><time>2026-04-18T09:30:54.743Z</time></trkpt><trkpt lat="43.4318983" lon="10.8938417"><ele>178.0</ele><time>2026-04-18T09:30:55.744Z</time></trkpt><trkpt lat="43.4318483" lon="10.8940417"><ele>178.0</ele><time>2026-04-18T09:30:56.743Z</time></trkpt><trkpt lat="43.431785" lon="10.8942267"><ele>178.0</ele><time>2026-04-18T09:30:57.744Z</time></trkpt><trkpt lat="43.43173" lon="10.89438"><ele>178.0</ele><time>2026-04-18T09:30:58.746Z</time></trkpt><trkpt lat="43.431675" lon="10.89453"><ele>178.0</ele><time>2026-04-18T09:30:59.744Z</time></trkpt><trkpt lat="43.4315967" lon="10.89466"><ele>178.0</ele><time>2026-04-18T09:31:00.746Z</time></trkpt><trkpt lat="43.4315183" lon="10.8947733"><ele>178.0</ele><time>2026-04-18T09:31:01.741Z</time></trkpt><trkpt lat="43.4314583" lon="10.8948883"><ele>178.0</ele><time>2026-04-18T09:31:02.749Z</time></trkpt><trkpt lat="43.43143" lon="10.8950083"><ele>178.0</ele><time>2026-04-18T09:31:03.748Z</time></trkpt><trkpt lat="43.4314517" lon="10.895145"><ele>178.60000000000002</ele><time>2026-04-18T09:31:04.742Z</time></trkpt><trkpt lat="43.43149" lon="10.8952917"><ele>179.20000000000002</ele><time>2026-04-18T09:31:05.743Z</time></trkpt><trkpt lat="43.4315017" lon="10.89543"><ele>179.8</ele><time>2026-04-18T09:31:06.744Z</time></trkpt><trkpt lat="43.4315633" lon="10.895565"><ele>180.4</ele><time>2026-04-18T09:31:07.745Z</time></trkpt><trkpt lat="43.4316017" lon="10.8957083"><ele>181.0</ele><time>2026-04-18T09:31:08.744Z</time></trkpt><trkpt lat="43.4316317" lon="10.8958533"><ele>181.83333333333334</ele><time>2026-04-18T09:31:09.741Z</time></trkpt><trkpt lat="43.4316567" lon="10.8959883"><ele>182.66666666666669</ele><time>2026-04-18T09:31:10.74Z</time></trkpt><trkpt lat="43.431665" lon="10.89611"><ele>183.5</ele><time>2026-04-18T09:31:11.742Z</time></trkpt><trkpt lat="43.4316483" lon="10.8962083"><ele>184.33333333333334</ele><time>2026-04-18T09:31:12.745Z</time></trkpt><trkpt lat="43.43156" lon="10.896285"><ele>185.16666666666666</ele><time>2026-04-18T09:31:14.744Z</time></trkpt><trkpt lat="43.4314967" lon="10.8962483"><ele>186.0</ele><time>2026-04-18T09:31:15.747Z</time></trkpt><trkpt lat="43.4314333" lon="10.89619"><ele>186.0</ele><time>2026-04-18T09:31:16.744Z</time></trkpt><trkpt lat="43.4313667" lon="10.89613"><ele>186.0</ele><time>2026-04-18T09:31:17.742Z</time></trkpt><trkpt lat="43.431295" lon="10.8960667"><ele>186.0</ele><time>2026-04-18T09:31:18.739Z</time></trkpt><trkpt lat="43.4312067" lon="10.896025"><ele>186.0</ele><time>2026-04-18T09:31:19.743Z</time></trkpt><trkpt lat="43.431095" lon="10.8959917"><ele>186.0</ele><time>2026-04-18T09:31:20.742Z</time></trkpt><trkpt lat="43.43098" lon="10.895955"><ele>186.8</ele><time>2026-04-18T09:31:21.742Z</time></trkpt><trkpt lat="43.4308717" lon="10.8959267"><ele>187.60000000000002</ele><time>2026-04-18T09:31:22.742Z</time></trkpt><trkpt lat="43.430785" lon="10.8958833"><ele>188.4</ele><time>2026-04-18T09:31:23.742Z</time></trkpt><trkpt lat="43.4307133" lon="10.8958667"><ele>189.2</ele><time>2026-04-18T09:31:24.743Z</time></trkpt><trkpt lat="43.43062" lon="10.8959017"><ele>190.0</ele><time>2026-04-18T09:31:26.747Z</time></trkpt><trkpt lat="43.4306" lon="10.89602"><ele>192.2</ele><time>2026-04-18T09:31:28.74Z</time></trkpt><trkpt lat="43.4306317" lon="10.8960983"><ele>194.4</ele><time>2026-04-18T09:31:29.745Z</time></trkpt><trkpt lat="43.4307" lon="10.8961817"><ele>196.60000000000002</ele><time>2026-04-18T09:31:30.749Z</time></trkpt><trkpt lat="43.4307517" lon="10.8962833"><ele>198.8</ele><time>2026-04-18T09:31:31.748Z</time></trkpt><trkpt lat="43.430825" lon="10.896405"><ele>201.0</ele><time>2026-04-18T09:31:32.744Z</time></trkpt><trkpt lat="43.4308983" lon="10.8965133"><ele>201.0</ele><time>2026-04-18T09:31:33.752Z</time></trkpt><trkpt lat="43.4309533" lon="10.89662"><ele>201.0</ele><time>2026-04-18T09:31:34.745Z</time></trkpt><trkpt lat="43.4309883" lon="10.8967333"><ele>201.0</ele><time>2026-04-18T09:31:35.744Z</time></trkpt><trkpt lat="43.43101" lon="10.8968567"><ele>201.0</ele><time>2026-04-18T09:31:36.752Z</time></trkpt><trkpt lat="43.4310083" lon="10.8969917"><ele>201.0</ele><time>2026-04-18T09:31:37.743Z</time></trkpt><trkpt lat="43.4309983" lon="10.89712"><ele>202.33333333333334</ele><time>2026-04-18T09:31:38.744Z</time></trkpt><trkpt lat="43.43097" lon="10.897235"><ele>203.66666666666669</ele><time>2026-04-18T09:31:39.748Z</time></trkpt><trkpt lat="43.4309383" lon="10.8973267"><ele>205.0</ele><time>2026-04-18T09:31:40.747Z</time></trkpt><trkpt lat="43.4308867" lon="10.897395"><ele>206.33333333333334</ele><time>2026-04-18T09:31:41.751Z</time></trkpt><trkpt lat="43.4307717" lon="10.897395"><ele>207.66666666666669</ele><time>2026-04-18T09:31:43.744Z</time></trkpt><trkpt lat="43.430715" lon="10.8973333"><ele>209.0</ele><time>2026-04-18T09:31:44.749Z</time></trkpt><trkpt lat="43.43066" lon="10.897235"><ele>209.0</ele><time>2026-04-18T09:31:45.747Z</time></trkpt><trkpt lat="43.4305817" lon="10.8971917"><ele>209.0</ele><time>2026-04-18T09:31:46.745Z</time></trkpt><trkpt lat="43.4305083" lon="10.8971667"><ele>209.0</ele><time>2026-04-18T09:31:47.743Z</time></trkpt><trkpt lat="43.43043" lon="10.8971733"><ele>209.0</ele><time>2026-04-18T09:31:48.742Z</time></trkpt><trkpt lat="43.4303317" lon="10.897235"><ele>209.0</ele><time>2026-04-18T09:31:49.744Z</time></trkpt><trkpt lat="43.4302267" lon="10.897305"><ele>210.39999999999998</ele><time>2026-04-18T09:31:50.744Z</time></trkpt><trkpt lat="43.4301317" lon="10.897385"><ele>211.8</ele><time>2026-04-18T09:31:51.739Z</time></trkpt><trkpt lat="43.4300533" lon="10.8974683"><ele>213.20000000000002</ele><time>2026-04-18T09:31:52.745Z</time></trkpt><trkpt lat="43.4299967" lon="10.8975567"><ele>214.60000000000002</ele><time>2026-04-18T09:31:53.742Z</time></trkpt><trkpt lat="43.42995" lon="10.8976467"><ele>216.0</ele><time>2026-04-18T09:31:54.744Z</time></trkpt><trkpt lat="43.429925" lon="10.89777"><ele>217.5</ele><time>2026-04-18T09:31:55.748Z</time></trkpt><trkpt lat="43.4299267" lon="10.8979483"><ele>219.0</ele><time>2026-04-18T09:31:56.749Z</time></trkpt><trkpt lat="43.4299217" lon="10.898135"><ele>220.5</ele><time>2026-04-18T09:31:57.748Z</time></trkpt><trkpt lat="43.4299433" lon="10.8983583"><ele>222.0</ele><time>2026-04-18T09:31:58.746Z</time></trkpt><trkpt lat="43.4299467" lon="10.8985633"><ele>223.2</ele><time>2026-04-18T09:31:59.744Z</time></trkpt><trkpt lat="43.429935" lon="10.8987283"><ele>224.39999999999998</ele><time>2026-04-18T09:32:00.746Z</time></trkpt><trkpt lat="43.4299467" lon="10.8988667"><ele>225.60000000000002</ele><time>2026-04-18T09:32:01.742Z</time></trkpt><trkpt lat="43.4299417" lon="10.898985"><ele>226.8</ele><time>2026-04-18T09:32:02.747Z</time></trkpt><trkpt lat="43.4299117" lon="10.899065"><ele>228.0</ele><time>2026-04-18T09:32:03.744Z</time></trkpt><trkpt lat="43.4297917" lon="10.8990983"><ele>228.0</ele><time>2026-04-18T09:32:05.743Z</time></trkpt><trkpt lat="43.42972" lon="10.8990767"><ele>228.0</ele><time>2026-04-18T09:32:06.746Z</time></trkpt><trkpt lat="43.4296267" lon="10.8990583"><ele>228.0</ele><time>2026-04-18T09:32:07.749Z</time></trkpt><trkpt lat="43.4295283" lon="10.8990383"><ele>228.0</ele><time>2026-04-18T09:32:08.743Z</time></trkpt><trkpt lat="43.42942" lon="10.8990633"><ele>228.0</ele><time>2026-04-18T09:32:09.75Z</time></trkpt><trkpt lat="43.4293083" lon="10.8991183"><ele>229.33333333333334</ele><time>2026-04-18T09:32:10.745Z</time></trkpt><trkpt lat="43.429215" lon="10.8991583"><ele>230.66666666666669</ele><time>2026-04-18T09:32:11.743Z</time></trkpt><trkpt lat="43.4291333" lon="10.8991883"><ele>232.0</ele><time>2026-04-18T09:32:12.744Z</time></trkpt><trkpt lat="43.4290617" lon="10.89922"><ele>233.33333333333334</ele><time>2026-04-18T09:32:13.744Z</time></trkpt><trkpt lat="43.4290017" lon="10.899345"><ele>234.66666666666669</ele><time>2026-04-18T09:32:15.744Z</time></trkpt><trkpt lat="43.4290167" lon="10.8994533"><ele>236.0</ele><time>2026-04-18T09:32:16.744Z</time></trkpt><trkpt lat="43.4290467" lon="10.899545"><ele>237.60000000000002</ele><time>2026-04-18T09:32:17.742Z</time></trkpt><trkpt lat="43.4290967" lon="10.899655"><ele>239.20000000000002</ele><time>2026-04-18T09:32:18.745Z</time></trkpt><trkpt lat="43.42916" lon="10.8997833"><ele>240.79999999999998</ele><time>2026-04-18T09:32:19.741Z</time></trkpt><trkpt lat="43.42921" lon="10.8999233"><ele>242.39999999999998</ele><time>2026-04-18T09:32:20.742Z</time></trkpt><trkpt lat="43.4292233" lon="10.9000583"><ele>244.0</ele><time>2026-04-18T09:32:21.743Z</time></trkpt><trkpt lat="43.4292117" lon="10.9001933"><ele>245.0</ele><time>2026-04-18T09:32:22.744Z</time></trkpt><trkpt lat="43.4291667" lon="10.9003183"><ele>245.99999999999997</ele><time>2026-04-18T09:32:23.744Z</time></trkpt><trkpt lat="43.4291067" lon="10.900425"><ele>246.99999999999997</ele><time>2026-04-18T09:32:24.745Z</time></trkpt><trkpt lat="43.42903" lon="10.9005017"><ele>248.0</ele><time>2026-04-18T09:32:25.745Z</time></trkpt><trkpt lat="43.42893" lon="10.900555"><ele>249.0</ele><time>2026-04-18T09:32:26.743Z</time></trkpt><trkpt lat="43.42882" lon="10.900575"><ele>250.6</ele><time>2026-04-18T09:32:27.743Z</time></trkpt><trkpt lat="43.428735" lon="10.900625"><ele>252.2</ele><time>2026-04-18T09:32:28.747Z</time></trkpt><trkpt lat="43.4286733" lon="10.9007"><ele>253.79999999999998</ele><time>2026-04-18T09:32:29.741Z</time></trkpt><trkpt lat="43.4286333" lon="10.9007967"><ele>255.39999999999998</ele><time>2026-04-18T09:32:30.747Z</time></trkpt><trkpt lat="43.4286433" lon="10.900955"><ele>257.0</ele><time>2026-04-18T09:32:31.746Z</time></trkpt><trkpt lat="43.4286683" lon="10.9011"><ele>256.5</ele><time>2026-04-18T09:32:32.751Z</time></trkpt><trkpt lat="43.428695" lon="10.90126"><ele>256.0</ele><time>2026-04-18T09:32:33.746Z</time></trkpt><trkpt lat="43.4287783" lon="10.9014367"><ele>255.5</ele><time>2026-04-18T09:32:34.75Z</time></trkpt><trkpt lat="43.4288617" lon="10.9015817"><ele>255.0</ele><time>2026-04-18T09:32:35.744Z</time></trkpt><trkpt lat="43.4289533" lon="10.9016983"><ele>258.25</ele><time>2026-04-18T09:32:36.748Z</time></trkpt><trkpt lat="43.4290433" lon="10.9018217"><ele>261.5</ele><time>2026-04-18T09:32:37.747Z</time></trkpt><trkpt lat="43.429125" lon="10.9019667"><ele>264.75</ele><time>2026-04-18T09:32:38.743Z</time></trkpt><trkpt lat="43.4292267" lon="10.9021033"><ele>268.0</ele><time>2026-04-18T09:32:39.743Z</time></trkpt><trkpt lat="43.42934" lon="10.9022467"><ele>268.0</ele><time>2026-04-18T09:32:40.745Z</time></trkpt><trkpt lat="43.429455" lon="10.902365"><ele>268.0</ele><time>2026-04-18T09:32:41.744Z</time></trkpt><trkpt lat="43.429555" lon="10.9024517"><ele>268.0</ele><time>2026-04-18T09:32:42.74Z</time></trkpt><trkpt lat="43.4296267" lon="10.902525"><ele>268.0</ele><time>2026-04-18T09:32:43.744Z</time></trkpt><trkpt lat="43.429675" lon="10.9025983"><ele>268.0</ele><time>2026-04-18T09:32:44.743Z</time></trkpt><trkpt lat="43.4296783" lon="10.9027383"><ele>269.6</ele><time>2026-04-18T09:32:46.743Z</time></trkpt><trkpt lat="43.4295817" lon="10.9028167"><ele>271.20000000000005</ele><time>2026-04-18T09:32:48.743Z</time></trkpt><trkpt lat="43.4294717" lon="10.902805"><ele>272.8</ele><time>2026-04-18T09:32:49.743Z</time></trkpt><trkpt lat="43.4293633" lon="10.9027917"><ele>274.40000000000003</ele><time>2026-04-18T09:32:50.749Z</time></trkpt><trkpt lat="43.4292767" lon="10.9027833"><ele>276.0</ele><time>2026-04-18T09:32:51.743Z</time></trkpt><trkpt lat="43.4292017" lon="10.9027383"><ele>276.0</ele><time>2026-04-18T09:32:52.741Z</time></trkpt><trkpt lat="43.4291417" lon="10.9026233"><ele>276.0</ele><time>2026-04-18T09:32:53.741Z</time></trkpt><trkpt lat="43.42907" lon="10.90251"><ele>276.0</ele><time>2026-04-18T09:32:54.744Z</time></trkpt><trkpt lat="43.429005" lon="10.9024567"><ele>276.0</ele><time>2026-04-18T09:32:55.746Z</time></trkpt><trkpt lat="43.428945" lon="10.9023633"><ele>276.0</ele><time>2026-04-18T09:32:56.74Z</time></trkpt><trkpt lat="43.4288733" lon="10.9023"><ele>276.40000000000003</ele><time>2026-04-18T09:32:57.744Z</time></trkpt><trkpt lat="43.4287867" lon="10.9022683"><ele>276.8</ele><time>2026-04-18T09:32:58.744Z</time></trkpt><trkpt lat="43.428685" lon="10.9022633"><ele>277.20000000000005</ele><time>2026-04-18T09:32:59.744Z</time></trkpt><trkpt lat="43.4285767" lon="10.9022867"><ele>277.6</ele><time>2026-04-18T09:33:00.743Z</time></trkpt><trkpt lat="43.4284567" lon="10.9023217"><ele>278.0</ele><time>2026-04-18T09:33:01.745Z</time></trkpt><trkpt lat="43.4283367" lon="10.9023833"><ele>278.0</ele><time>2026-04-18T09:33:02.747Z</time></trkpt><trkpt lat="43.4282283" lon="10.9023967"><ele>278.0</ele><time>2026-04-18T09:33:03.746Z</time></trkpt><trkpt lat="43.4281217" lon="10.9023633"><ele>278.0</ele><time>2026-04-18T09:33:04.746Z</time></trkpt><trkpt lat="43.4280067" lon="10.9022833"><ele>278.0</ele><time>2026-04-18T09:33:05.743Z</time></trkpt><trkpt lat="43.4279033" lon="10.9022067"><ele>278.42857142857144</ele><time>2026-04-18T09:33:06.747Z</time></trkpt><trkpt lat="43.4278167" lon="10.9021533"><ele>278.8571428571429</ele><time>2026-04-18T09:33:07.744Z</time></trkpt><trkpt lat="43.4277467" lon="10.90212"><ele>279.28571428571433</ele><time>2026-04-18T09:33:08.744Z</time></trkpt><trkpt lat="43.4276833" lon="10.9021333"><ele>279.7142857142857</ele><time>2026-04-18T09:33:09.743Z</time></trkpt><trkpt lat="43.427625" lon="10.9021683"><ele>280.14285714285717</ele><time>2026-04-18T09:33:10.746Z</time></trkpt><trkpt lat="43.427585" lon="10.9022417"><ele>280.5714285714286</ele><time>2026-04-18T09:33:11.745Z</time></trkpt><trkpt lat="43.4275733" lon="10.9023283"><ele>281.0</ele><time>2026-04-18T09:33:12.742Z</time></trkpt><trkpt lat="43.4275933" lon="10.9024133"><ele>281.0</ele><time>2026-04-18T09:33:13.743Z</time></trkpt><trkpt lat="43.4276417" lon="10.9024783"><ele>281.0</ele><time>2026-04-18T09:33:14.744Z</time></trkpt><trkpt lat="43.427705" lon="10.90255"><ele>281.0</ele><time>2026-04-18T09:33:15.744Z</time></trkpt><trkpt lat="43.427795" lon="10.9026183"><ele>281.0</ele><time>2026-04-18T09:33:16.743Z</time></trkpt><trkpt lat="43.42788" lon="10.9027433"><ele>281.0</ele><time>2026-04-18T09:33:17.745Z</time></trkpt><trkpt lat="43.427985" lon="10.9028533"><ele>282.5</ele><time>2026-04-18T09:33:18.745Z</time></trkpt><trkpt lat="43.4281033" lon="10.9029417"><ele>284.0</ele><time>2026-04-18T09:33:19.744Z</time></trkpt><trkpt lat="43.4282167" lon="10.90304"><ele>285.5</ele><time>2026-04-18T09:33:20.745Z</time></trkpt><trkpt lat="43.4283167" lon="10.9031283"><ele>287.0</ele><time>2026-04-18T09:33:21.747Z</time></trkpt><trkpt lat="43.4284083" lon="10.90321"><ele>287.0</ele><time>2026-04-18T09:33:22.74Z</time></trkpt><trkpt lat="43.428485" lon="10.9033167"><ele>287.0</ele><time>2026-04-18T09:33:23.744Z</time></trkpt><trkpt lat="43.42857" lon="10.903445"><ele>287.0</ele><time>2026-04-18T09:33:24.75Z</time></trkpt><trkpt lat="43.42867" lon="10.9035433"><ele>287.0</ele><time>2026-04-18T09:33:25.744Z</time></trkpt><trkpt lat="43.4287183" lon="10.9037633"><ele>286.25</ele><time>2026-04-18T09:33:26.749Z</time></trkpt><trkpt lat="43.428785" lon="10.903975"><ele>285.5</ele><time>2026-04-18T09:33:27.747Z</time></trkpt><trkpt lat="43.4288567" lon="10.9041217"><ele>284.75</ele><time>2026-04-18T09:33:28.745Z</time></trkpt><trkpt lat="43.4288867" lon="10.904315"><ele>284.0</ele><time>2026-04-18T09:33:29.748Z</time></trkpt><trkpt lat="43.4289133" lon="10.9044817"><ele>286.5</ele><time>2026-04-18T09:33:30.751Z</time></trkpt><trkpt lat="43.4289383" lon="10.9046283"><ele>289.0</ele><time>2026-04-18T09:33:31.744Z</time></trkpt><trkpt lat="43.428975" lon="10.9047733"><ele>291.5</ele><time>2026-04-18T09:33:32.747Z</time></trkpt><trkpt lat="43.429035" lon="10.9048917"><ele>294.0</ele><time>2026-04-18T09:33:33.744Z</time></trkpt><trkpt lat="43.4290983" lon="10.9050483"><ele>296.0</ele><time>2026-04-18T09:33:34.741Z</time></trkpt><trkpt lat="43.42919" lon="10.905165"><ele>298.0</ele><time>2026-04-18T09:33:35.743Z</time></trkpt><trkpt lat="43.429275" lon="10.9052733"><ele>300.0</ele><time>2026-04-18T09:33:36.745Z</time></trkpt><trkpt lat="43.429345" lon="10.9053717"><ele>302.0</ele><time>2026-04-18T09:33:37.746Z</time></trkpt><trkpt lat="43.42938" lon="10.9054983"><ele>304.0</ele><time>2026-04-18T09:33:38.745Z</time></trkpt><trkpt lat="43.4294" lon="10.9056117"><ele>304.0</ele><time>2026-04-18T09:33:39.747Z</time></trkpt><trkpt lat="43.429395" lon="10.90572"><ele>304.0</ele><time>2026-04-18T09:33:40.746Z</time></trkpt><trkpt lat="43.4293567" lon="10.9057983"><ele>304.0</ele><time>2026-04-18T09:33:41.743Z</time></trkpt><trkpt lat="43.4292733" lon="10.905845"><ele>304.0</ele><time>2026-04-18T09:33:42.744Z</time></trkpt><trkpt lat="43.4291867" lon="10.90584"><ele>304.0</ele><time>2026-04-18T09:33:43.748Z</time></trkpt><trkpt lat="43.429115" lon="10.90583"><ele>304.0</ele><time>2026-04-18T09:33:44.743Z</time></trkpt><trkpt lat="43.4290117" lon="10.9057683"><ele>304.0</ele><time>2026-04-18T09:33:45.741Z</time></trkpt><trkpt lat="43.4289067" lon="10.9056833"><ele>304.0</ele><time>2026-04-18T09:33:46.743Z</time></trkpt><trkpt lat="43.428775" lon="10.9056133"><ele>304.0</ele><time>2026-04-18T09:33:47.741Z</time></trkpt><trkpt lat="43.428615" lon="10.905525"><ele>304.0</ele><time>2026-04-18T09:33:48.742Z</time></trkpt><trkpt lat="43.4284467" lon="10.9054017"><ele>307.25</ele><time>2026-04-18T09:33:49.741Z</time></trkpt><trkpt lat="43.4282933" lon="10.9053067"><ele>310.5</ele><time>2026-04-18T09:33:50.748Z</time></trkpt><trkpt lat="43.4281583" lon="10.90522"><ele>313.75</ele><time>2026-04-18T09:33:51.742Z</time></trkpt><trkpt lat="43.4280417" lon="10.9051517"><ele>317.0</ele><time>2026-04-18T09:33:52.748Z</time></trkpt><trkpt lat="43.427935" lon="10.9050867"><ele>317.2</ele><time>2026-04-18T09:33:53.746Z</time></trkpt><trkpt lat="43.42783" lon="10.9050117"><ele>317.4</ele><time>2026-04-18T09:33:54.745Z</time></trkpt><trkpt lat="43.4277217" lon="10.9049533"><ele>317.6</ele><time>2026-04-18T09:33:55.743Z</time></trkpt><trkpt lat="43.4276183" lon="10.9048983"><ele>317.8</ele><time>2026-04-18T09:33:56.747Z</time></trkpt><trkpt lat="43.4275233" lon="10.904855"><ele>318.0</ele><time>2026-04-18T09:33:57.744Z</time></trkpt><trkpt lat="43.4274417" lon="10.904825"><ele>318.0</ele><time>2026-04-18T09:33:58.744Z</time></trkpt><trkpt lat="43.4273717" lon="10.9048017"><ele>318.0</ele><time>2026-04-18T09:33:59.741Z</time></trkpt><trkpt lat="43.4273017" lon="10.9048133"><ele>318.0</ele><time>2026-04-18T09:34:00.742Z</time></trkpt><trkpt lat="43.4272333" lon="10.9048467"><ele>318.0</ele><time>2026-04-18T09:34:01.748Z</time></trkpt><trkpt lat="43.4271767" lon="10.904945"><ele>318.0</ele><time>2026-04-18T09:34:02.747Z</time></trkpt><trkpt lat="43.4271233" lon="10.90507"><ele>318.0</ele><time>2026-04-18T09:34:03.747Z</time></trkpt><trkpt lat="43.4270617" lon="10.9051967"><ele>320.6</ele><time>2026-04-18T09:34:04.748Z</time></trkpt><trkpt lat="43.4269967" lon="10.90532"><ele>323.20000000000005</ele><time>2026-04-18T09:34:05.75Z</time></trkpt><trkpt lat="43.4269133" lon="10.9054017"><ele>325.8</ele><time>2026-04-18T09:34:06.746Z</time></trkpt><trkpt lat="43.42683" lon="10.9054733"><ele>328.40000000000003</ele><time>2026-04-18T09:34:07.748Z</time></trkpt><trkpt lat="43.4267383" lon="10.9054983"><ele>331.0</ele><time>2026-04-18T09:34:08.744Z</time></trkpt><trkpt lat="43.4266667" lon="10.90553"><ele>331.0</ele><time>2026-04-18T09:34:09.742Z</time></trkpt><trkpt lat="43.4266" lon="10.905645"><ele>331.0</ele><time>2026-04-18T09:34:11.743Z</time></trkpt><trkpt lat="43.4266567" lon="10.9057767"><ele>331.0</ele><time>2026-04-18T09:34:13.745Z</time></trkpt><trkpt lat="43.426715" lon="10.9058267"><ele>331.0</ele><time>2026-04-18T09:34:14.746Z</time></trkpt><trkpt lat="43.4267783" lon="10.9058667"><ele>331.0</ele><time>2026-04-18T09:34:15.743Z</time></trkpt><trkpt lat="43.426855" lon="10.905915"><ele>331.0</ele><time>2026-04-18T09:34:16.745Z</time></trkpt><trkpt lat="43.4269517" lon="10.905965"><ele>333.75</ele><time>2026-04-18T09:34:17.744Z</time></trkpt><trkpt lat="43.4270533" lon="10.9060517"><ele>336.5</ele><time>2026-04-18T09:34:18.748Z</time></trkpt><trkpt lat="43.4271733" lon="10.9061383"><ele>339.25</ele><time>2026-04-18T09:34:19.745Z</time></trkpt><trkpt lat="43.4272783" lon="10.9062267"><ele>342.0</ele><time>2026-04-18T09:34:20.747Z</time></trkpt><trkpt lat="43.4273667" lon="10.90632"><ele>342.0</ele><time>2026-04-18T09:34:21.747Z</time></trkpt><trkpt lat="43.4274617" lon="10.906415"><ele>342.0</ele><time>2026-04-18T09:34:22.746Z</time></trkpt><trkpt lat="43.4275217" lon="10.90656"><ele>342.0</ele><time>2026-04-18T09:34:23.743Z</time></trkpt><trkpt lat="43.4276117" lon="10.9067083"><ele>342.0</ele><time>2026-04-18T09:34:24.744Z</time></trkpt><trkpt lat="43.4276417" lon="10.9069167"><ele>344.5</ele><time>2026-04-18T09:34:25.74Z</time></trkpt><trkpt lat="43.42771" lon="10.90707"><ele>347.0</ele><time>2026-04-18T09:34:26.752Z</time></trkpt><trkpt lat="43.4277567" lon="10.9072167"><ele>349.5</ele><time>2026-04-18T09:34:27.751Z</time></trkpt><trkpt lat="43.427785" lon="10.9073567"><ele>352.0</ele><time>2026-04-18T09:34:28.744Z</time></trkpt><trkpt lat="43.4278017" lon="10.9075"><ele>352.8</ele><time>2026-04-18T09:34:29.749Z</time></trkpt><trkpt lat="43.4278017" lon="10.9076483"><ele>353.6</ele><time>2026-04-18T09:34:30.747Z</time></trkpt><trkpt lat="43.4277783" lon="10.907785"><ele>354.40000000000003</ele><time>2026-04-18T09:34:31.742Z</time></trkpt><trkpt lat="43.42774" lon="10.9079233"><ele>355.20000000000005</ele><time>2026-04-18T09:34:32.747Z</time></trkpt><trkpt lat="43.427675" lon="10.90808"><ele>356.0</ele><time>2026-04-18T09:34:33.75Z</time></trkpt><trkpt lat="43.427615" lon="10.908225"><ele>356.0</ele><time>2026-04-18T09:34:34.746Z</time></trkpt><trkpt lat="43.4275533" lon="10.9083567"><ele>356.0</ele><time>2026-04-18T09:34:35.741Z</time></trkpt><trkpt lat="43.4274933" lon="10.9084683"><ele>356.0</ele><time>2026-04-18T09:34:36.746Z</time></trkpt><trkpt lat="43.4274267" lon="10.9085533"><ele>356.0</ele><time>2026-04-18T09:34:37.744Z</time></trkpt><trkpt lat="43.4273417" lon="10.9086217"><ele>356.0</ele><time>2026-04-18T09:34:38.742Z</time></trkpt><trkpt lat="43.4272567" lon="10.908675"><ele>356.6666666666667</ele><time>2026-04-18T09:34:39.747Z</time></trkpt><trkpt lat="43.427185" lon="10.9087167"><ele>357.33333333333337</ele><time>2026-04-18T09:34:40.747Z</time></trkpt><trkpt lat="43.4271333" lon="10.9087817"><ele>358.0</ele><time>2026-04-18T09:34:41.744Z</time></trkpt><trkpt lat="43.4270983" lon="10.9088583"><ele>358.6666666666667</ele><time>2026-04-18T09:34:42.746Z</time></trkpt><trkpt lat="43.427165" lon="10.9090167"><ele>359.3333333333333</ele><time>2026-04-18T09:34:44.748Z</time></trkpt><trkpt lat="43.4272317" lon="10.9090917"><ele>360.0</ele><time>2026-04-18T09:34:45.745Z</time></trkpt><trkpt lat="43.4273283" lon="10.909155"><ele>360.0</ele><time>2026-04-18T09:34:46.744Z</time></trkpt><trkpt lat="43.4274283" lon="10.90921"><ele>360.0</ele><time>2026-04-18T09:34:47.743Z</time></trkpt><trkpt lat="43.42753" lon="10.909275"><ele>360.0</ele><time>2026-04-18T09:34:48.747Z</time></trkpt><trkpt lat="43.4276167" lon="10.9093533"><ele>360.0</ele><time>2026-04-18T09:34:49.743Z</time></trkpt><trkpt lat="43.4276933" lon="10.9094417"><ele>360.0</ele><time>2026-04-18T09:34:50.745Z</time></trkpt><trkpt lat="43.4277517" lon="10.9095533"><ele>361.8</ele><time>2026-04-18T09:34:51.742Z</time></trkpt><trkpt lat="43.4277767" lon="10.9096817"><ele>363.6</ele><time>2026-04-18T09:34:52.747Z</time></trkpt><trkpt lat="43.4277767" lon="10.909805"><ele>365.4</ele><time>2026-04-18T09:34:53.743Z</time></trkpt><trkpt lat="43.4277683" lon="10.9099383"><ele>367.2</ele><time>2026-04-18T09:34:54.742Z</time></trkpt><trkpt lat="43.42775" lon="10.9100883"><ele>369.0</ele><time>2026-04-18T09:34:55.748Z</time></trkpt><trkpt lat="43.4277517" lon="10.9102333"><ele>370.4</ele><time>2026-04-18T09:34:56.751Z</time></trkpt><trkpt lat="43.4277717" lon="10.910375"><ele>371.79999999999995</ele><time>2026-04-18T09:34:57.744Z</time></trkpt><trkpt lat="43.4278283" lon="10.9105117"><ele>373.20000000000005</ele><time>2026-04-18T09:34:58.746Z</time></trkpt><trkpt lat="43.42788" lon="10.9106567"><ele>374.6</ele><time>2026-04-18T09:34:59.746Z</time></trkpt><trkpt lat="43.4279117" lon="10.9108033"><ele>376.0</ele><time>2026-04-18T09:35:00.747Z</time></trkpt><trkpt lat="43.4279233" lon="10.9109733"><ele>378.66666666666663</ele><time>2026-04-18T09:35:01.743Z</time></trkpt><trkpt lat="43.42792" lon="10.911185"><ele>381.3333333333333</ele><time>2026-04-18T09:35:02.742Z</time></trkpt><trkpt lat="43.42791" lon="10.9114167"><ele>384.0</ele><time>2026-04-18T09:35:03.741Z</time></trkpt><trkpt lat="43.4278883" lon="10.91165"><ele>386.33333333333337</ele><time>2026-04-18T09:35:04.745Z</time></trkpt><trkpt lat="43.427865" lon="10.9118733"><ele>388.6666666666667</ele><time>2026-04-18T09:35:05.742Z</time></trkpt><trkpt lat="43.4278417" lon="10.91208"><ele>391.0</ele><time>2026-04-18T09:35:06.75Z</time></trkpt><trkpt lat="43.4278167" lon="10.9122667"><ele>391.0</ele><time>2026-04-18T09:35:07.748Z</time></trkpt><trkpt lat="43.4277733" lon="10.912435"><ele>391.0</ele><time>2026-04-18T09:35:08.746Z</time></trkpt><trkpt lat="43.4277083" lon="10.9126117"><ele>391.0</ele><time>2026-04-18T09:35:09.754Z</time></trkpt><trkpt lat="43.4276317" lon="10.9127967"><ele>391.0</ele><time>2026-04-18T09:35:10.745Z</time></trkpt><trkpt lat="43.4275433" lon="10.91298"><ele>390.25</ele><time>2026-04-18T09:35:11.749Z</time></trkpt><trkpt lat="43.4274667" lon="10.9131483"><ele>389.5</ele><time>2026-04-18T09:35:12.741Z</time></trkpt><trkpt lat="43.427415" lon="10.91331"><ele>388.75</ele><time>2026-04-18T09:35:13.743Z</time></trkpt><trkpt lat="43.4273817" lon="10.9134583"><ele>388.0</ele><time>2026-04-18T09:35:14.745Z</time></trkpt><trkpt lat="43.42737" lon="10.9135983"><ele>387.75</ele><time>2026-04-18T09:35:15.742Z</time></trkpt><trkpt lat="43.4273817" lon="10.913735"><ele>387.5</ele><time>2026-04-18T09:35:16.743Z</time></trkpt><trkpt lat="43.4274183" lon="10.9138783"><ele>387.25</ele><time>2026-04-18T09:35:17.747Z</time></trkpt><trkpt lat="43.4274867" lon="10.914035"><ele>387.0</ele><time>2026-04-18T09:35:18.745Z</time></trkpt><trkpt lat="43.4275833" lon="10.9142133"><ele>385.6666666666667</ele><time>2026-04-18T09:35:19.753Z</time></trkpt><trkpt lat="43.4277033" lon="10.9144033"><ele>384.33333333333337</ele><time>2026-04-18T09:35:20.749Z</time></trkpt><trkpt lat="43.42783" lon="10.9146033"><ele>383.0</ele><time>2026-04-18T09:35:21.746Z</time></trkpt><trkpt lat="43.4279533" lon="10.9147967"><ele>385.6666666666667</ele><time>2026-04-18T09:35:22.744Z</time></trkpt><trkpt lat="43.4280667" lon="10.9149767"><ele>388.33333333333337</ele><time>2026-04-18T09:35:23.748Z</time></trkpt><trkpt lat="43.428175" lon="10.9151317"><ele>391.0</ele><time>2026-04-18T09:35:24.743Z</time></trkpt><trkpt lat="43.42828" lon="10.91526"><ele>391.25</ele><time>2026-04-18T09:35:25.744Z</time></trkpt><trkpt lat="43.4283867" lon="10.9153533"><ele>391.5</ele><time>2026-04-18T09:35:26.746Z</time></trkpt><trkpt lat="43.4285067" lon="10.9154117"><ele>391.75</ele><time>2026-04-18T09:35:27.744Z</time></trkpt><trkpt lat="43.428625" lon="10.9154567"><ele>392.0</ele><time>2026-04-18T09:35:28.749Z</time></trkpt><trkpt lat="43.4287283" lon="10.9155067"><ele>395.40000000000003</ele><time>2026-04-18T09:35:29.747Z</time></trkpt><trkpt lat="43.428815" lon="10.915575"><ele>398.8</ele><time>2026-04-18T09:35:30.744Z</time></trkpt><trkpt lat="43.4288817" lon="10.9156733"><ele>402.2</ele><time>2026-04-18T09:35:31.745Z</time></trkpt><trkpt lat="43.4289267" lon="10.9158067"><ele>405.6</ele><time>2026-04-18T09:35:32.746Z</time></trkpt><trkpt lat="43.42895" lon="10.91597"><ele>409.0</ele><time>2026-04-18T09:35:33.742Z</time></trkpt><trkpt lat="43.42896" lon="10.91616"><ele>410.6666666666667</ele><time>2026-04-18T09:35:34.742Z</time></trkpt><trkpt lat="43.428975" lon="10.916375"><ele>412.33333333333337</ele><time>2026-04-18T09:35:35.748Z</time></trkpt><trkpt lat="43.4290033" lon="10.916615"><ele>414.0</ele><time>2026-04-18T09:35:36.748Z</time></trkpt><trkpt lat="43.42904" lon="10.916865"><ele>414.66666666666663</ele><time>2026-04-18T09:35:37.744Z</time></trkpt><trkpt lat="43.429085" lon="10.9171217"><ele>415.3333333333333</ele><time>2026-04-18T09:35:38.747Z</time></trkpt><trkpt lat="43.4291367" lon="10.9173717"><ele>416.0</ele><time>2026-04-18T09:35:39.744Z</time></trkpt><trkpt lat="43.4291917" lon="10.9176033"><ele>416.0</ele><time>2026-04-18T09:35:40.742Z</time></trkpt><trkpt lat="43.4292367" lon="10.9178317"><ele>416.0</ele><time>2026-04-18T09:35:41.74Z</time></trkpt><trkpt lat="43.429265" lon="10.9180583"><ele>416.0</ele><time>2026-04-18T09:35:42.742Z</time></trkpt><trkpt lat="43.4292717" lon="10.9182917"><ele>417.66666666666663</ele><time>2026-04-18T09:35:43.742Z</time></trkpt><trkpt lat="43.4292717" lon="10.9185183"><ele>419.33333333333337</ele><time>2026-04-18T09:35:44.742Z</time></trkpt><trkpt lat="43.42926" lon="10.9187317"><ele>421.0</ele><time>2026-04-18T09:35:45.746Z</time></trkpt><trkpt lat="43.4292283" lon="10.9189367"><ele>421.0</ele><time>2026-04-18T09:35:46.745Z</time></trkpt><trkpt lat="43.4291783" lon="10.91914"><ele>421.0</ele><time>2026-04-18T09:35:47.747Z</time></trkpt><trkpt lat="43.4291133" lon="10.91933"><ele>421.0</ele><time>2026-04-18T09:35:48.745Z</time></trkpt><trkpt lat="43.4290467" lon="10.9194933"><ele>421.0</ele><time>2026-04-18T09:35:49.746Z</time></trkpt><trkpt lat="43.4289867" lon="10.9196417"><ele>422.0</ele><time>2026-04-18T09:35:50.742Z</time></trkpt><trkpt lat="43.4289367" lon="10.9197883"><ele>423.0</ele><time>2026-04-18T09:35:51.742Z</time></trkpt><trkpt lat="43.42889" lon="10.919935"><ele>424.0</ele><time>2026-04-18T09:35:52.743Z</time></trkpt><trkpt lat="43.428865" lon="10.92008"><ele>425.0</ele><time>2026-04-18T09:35:53.743Z</time></trkpt><trkpt lat="43.4288617" lon="10.9202267"><ele>426.0</ele><time>2026-04-18T09:35:54.742Z</time></trkpt><trkpt lat="43.428885" lon="10.920375"><ele>426.0</ele><time>2026-04-18T09:35:55.741Z</time></trkpt><trkpt lat="43.42892" lon="10.9205233"><ele>426.0</ele><time>2026-04-18T09:35:56.744Z</time></trkpt><trkpt lat="43.4289617" lon="10.92067"><ele>426.0</ele><time>2026-04-18T09:35:57.743Z</time></trkpt><trkpt lat="43.4289933" lon="10.9208067"><ele>426.0</ele><time>2026-04-18T09:35:58.744Z</time></trkpt><trkpt lat="43.4290117" lon="10.92094"><ele>426.0</ele><time>2026-04-18T09:35:59.743Z</time></trkpt><trkpt lat="43.4290117" lon="10.9210683"><ele>425.20000000000005</ele><time>2026-04-18T09:36:00.75Z</time></trkpt><trkpt lat="43.429" lon="10.9211967"><ele>424.40000000000003</ele><time>2026-04-18T09:36:01.748Z</time></trkpt><trkpt lat="43.428965" lon="10.921325"><ele>423.6</ele><time>2026-04-18T09:36:02.749Z</time></trkpt><trkpt lat="43.4289083" lon="10.92145"><ele>422.8</ele><time>2026-04-18T09:36:03.742Z</time></trkpt><trkpt lat="43.4288183" lon="10.9215667"><ele>422.0</ele><time>2026-04-18T09:36:04.743Z</time></trkpt><trkpt lat="43.4287" lon="10.921685"><ele>422.0</ele><time>2026-04-18T09:36:05.743Z</time></trkpt><trkpt lat="43.4285683" lon="10.921815"><ele>422.0</ele><time>2026-04-18T09:36:06.745Z</time></trkpt><trkpt lat="43.42844" lon="10.9219717"><ele>422.0</ele><time>2026-04-18T09:36:07.749Z</time></trkpt><trkpt lat="43.4283333" lon="10.9221433"><ele>422.0</ele><time>2026-04-18T09:36:08.741Z</time></trkpt><trkpt lat="43.4282467" lon="10.9223483"><ele>422.0</ele><time>2026-04-18T09:36:09.744Z</time></trkpt><trkpt lat="43.4281767" lon="10.9225683"><ele>422.0</ele><time>2026-04-18T09:36:10.741Z</time></trkpt><trkpt lat="43.42812" lon="10.9227717"><ele>422.3333333333333</ele><time>2026-04-18T09:36:11.744Z</time></trkpt><trkpt lat="43.4280667" lon="10.9229683"><ele>422.66666666666663</ele><time>2026-04-18T09:36:12.744Z</time></trkpt><trkpt lat="43.42801" lon="10.92317"><ele>423.0</ele><time>2026-04-18T09:36:13.748Z</time></trkpt><trkpt lat="43.4279533" lon="10.9233633"><ele>431.0</ele><time>2026-04-18T09:36:14.752Z</time></trkpt><trkpt lat="43.4279017" lon="10.9235583"><ele>439.0</ele><time>2026-04-18T09:36:15.744Z</time></trkpt><trkpt lat="43.4278683" lon="10.92376"><ele>447.0</ele><time>2026-04-18T09:36:16.746Z</time></trkpt><trkpt lat="43.42784" lon="10.9239583"><ele>455.0</ele><time>2026-04-18T09:36:17.748Z</time></trkpt><trkpt lat="43.4278317" lon="10.9241567"><ele>456.66666666666663</ele><time>2026-04-18T09:36:18.744Z</time></trkpt><trkpt lat="43.427825" lon="10.9243733"><ele>458.33333333333337</ele><time>2026-04-18T09:36:19.742Z</time></trkpt><trkpt lat="43.4278317" lon="10.9246167"><ele>460.0</ele><time>2026-04-18T09:36:20.746Z</time></trkpt><trkpt lat="43.42784" lon="10.92486"><ele>459.5</ele><time>2026-04-18T09:36:21.741Z</time></trkpt><trkpt lat="43.427845" lon="10.925075"><ele>459.0</ele><time>2026-04-18T09:36:22.743Z</time></trkpt><trkpt lat="43.4278517" lon="10.9252683"><ele>458.5</ele><time>2026-04-18T09:36:23.746Z</time></trkpt><trkpt lat="43.4278583" lon="10.92544"><ele>458.0</ele><time>2026-04-18T09:36:24.748Z</time></trkpt><trkpt lat="43.4278667" lon="10.9255933"><ele>458.0</ele><time>2026-04-18T09:36:25.745Z</time></trkpt><trkpt lat="43.4278617" lon="10.9257283"><ele>457.99999999999994</ele><time>2026-04-18T09:36:26.75Z</time></trkpt><trkpt lat="43.427845" lon="10.9258533"><ele>457.99999999999994</ele><time>2026-04-18T09:36:27.741Z</time></trkpt><trkpt lat="43.4278033" lon="10.9259817"><ele>458.0</ele><time>2026-04-18T09:36:28.741Z</time></trkpt><trkpt lat="43.42776" lon="10.926095"><ele>458.0</ele><time>2026-04-18T09:36:29.746Z</time></trkpt><trkpt lat="43.4277117" lon="10.92619"><ele>457.49999999999994</ele><time>2026-04-18T09:36:30.744Z</time></trkpt><trkpt lat="43.42767" lon="10.92626"><ele>457.0</ele><time>2026-04-18T09:36:31.741Z</time></trkpt><trkpt lat="43.427585" lon="10.9263483"><ele>456.5</ele><time>2026-04-18T09:36:33.741Z</time></trkpt><trkpt lat="43.4274667" lon="10.9263833"><ele>456.0</ele><time>2026-04-18T09:36:35.741Z</time></trkpt><trkpt lat="43.4273933" lon="10.9263933"><ele>455.49999999999994</ele><time>2026-04-18T09:36:36.742Z</time></trkpt><trkpt lat="43.4273133" lon="10.9264067"><ele>455.0</ele><time>2026-04-18T09:36:37.746Z</time></trkpt><trkpt lat="43.4272367" lon="10.9264283"><ele>455.0</ele><time>2026-04-18T09:36:38.748Z</time></trkpt><trkpt lat="43.4271667" lon="10.9264617"><ele>455.0</ele><time>2026-04-18T09:36:39.74Z</time></trkpt><trkpt lat="43.4270983" lon="10.9265117"><ele>455.0</ele><time>2026-04-18T09:36:40.742Z</time></trkpt><trkpt lat="43.42704" lon="10.9265733"><ele>455.0</ele><time>2026-04-18T09:36:41.744Z</time></trkpt><trkpt lat="43.426995" lon="10.9266583"><ele>455.0</ele><time>2026-04-18T09:36:42.744Z</time></trkpt><trkpt lat="43.4269683" lon="10.926755"><ele>455.0</ele><time>2026-04-18T09:36:43.744Z</time></trkpt><trkpt lat="43.4269633" lon="10.9268517"><ele>455.0</ele><time>2026-04-18T09:36:44.743Z</time></trkpt><trkpt lat="43.426985" lon="10.9269383"><ele>457.2</ele><time>2026-04-18T09:36:45.741Z</time></trkpt><trkpt lat="43.4270267" lon="10.9270217"><ele>459.4</ele><time>2026-04-18T09:36:46.744Z</time></trkpt><trkpt lat="43.42709" lon="10.9270933"><ele>461.6</ele><time>2026-04-18T09:36:47.744Z</time></trkpt><trkpt lat="43.427175" lon="10.9271483"><ele>463.8</ele><time>2026-04-18T09:36:48.753Z</time></trkpt><trkpt lat="43.4272817" lon="10.92719"><ele>466.0</ele><time>2026-04-18T09:36:49.745Z</time></trkpt><trkpt lat="43.4273917" lon="10.9272567"><ele>466.0</ele><time>2026-04-18T09:36:50.744Z</time></trkpt><trkpt lat="43.4274883" lon="10.9273433"><ele>466.0</ele><time>2026-04-18T09:36:51.743Z</time></trkpt><trkpt lat="43.4275717" lon="10.9274417"><ele>466.0</ele><time>2026-04-18T09:36:52.745Z</time></trkpt><trkpt lat="43.4276467" lon="10.9275733"><ele>466.0</ele><time>2026-04-18T09:36:53.748Z</time></trkpt><trkpt lat="43.4277233" lon="10.9277333"><ele>470.0</ele><time>2026-04-18T09:36:54.745Z</time></trkpt><trkpt lat="43.427795" lon="10.9279117"><ele>474.0</ele><time>2026-04-18T09:36:55.747Z</time></trkpt><trkpt lat="43.4278617" lon="10.9280783"><ele>478.0</ele><time>2026-04-18T09:36:56.744Z</time></trkpt><trkpt lat="43.4279117" lon="10.9282217"><ele>482.0</ele><time>2026-04-18T09:36:57.743Z</time></trkpt><trkpt lat="43.427945" lon="10.92836"><ele>479.5</ele><time>2026-04-18T09:36:58.744Z</time></trkpt><trkpt lat="43.4279733" lon="10.9285133"><ele>477.0</ele><time>2026-04-18T09:36:59.745Z</time></trkpt><trkpt lat="43.4279933" lon="10.9286917"><ele>474.5</ele><time>2026-04-18T09:37:00.746Z</time></trkpt><trkpt lat="43.4280083" lon="10.9288733"><ele>472.0</ele><time>2026-04-18T09:37:01.745Z</time></trkpt><trkpt lat="43.4280317" lon="10.9290433"><ele>472.0</ele><time>2026-04-18T09:37:02.748Z</time></trkpt><trkpt lat="43.428065" lon="10.9292017"><ele>472.0</ele><time>2026-04-18T09:37:03.742Z</time></trkpt><trkpt lat="43.4281167" lon="10.9293633"><ele>472.0</ele><time>2026-04-18T09:37:04.743Z</time></trkpt><trkpt lat="43.42817" lon="10.92953"><ele>472.0</ele><time>2026-04-18T09:37:05.744Z</time></trkpt><trkpt lat="43.4282167" lon="10.929685"><ele>475.25</ele><time>2026-04-18T09:37:06.745Z</time></trkpt><trkpt lat="43.42825" lon="10.9298317"><ele>478.5</ele><time>2026-04-18T09:37:07.744Z</time></trkpt><trkpt lat="43.4282683" lon="10.9299767"><ele>481.75</ele><time>2026-04-18T09:37:08.748Z</time></trkpt><trkpt lat="43.42826" lon="10.93013"><ele>485.0</ele><time>2026-04-18T09:37:09.745Z</time></trkpt><trkpt lat="43.4282333" lon="10.9302983"><ele>488.0</ele><time>2026-04-18T09:37:10.744Z</time></trkpt><trkpt lat="43.4281983" lon="10.9304817"><ele>491.0</ele><time>2026-04-18T09:37:11.74Z</time></trkpt><trkpt lat="43.4281533" lon="10.930685"><ele>494.0</ele><time>2026-04-18T09:37:12.744Z</time></trkpt><trkpt lat="43.4281067" lon="10.9309"><ele>496.75</ele><time>2026-04-18T09:37:13.741Z</time></trkpt><trkpt lat="43.4280717" lon="10.9311017"><ele>499.5</ele><time>2026-04-18T09:37:14.742Z</time></trkpt><trkpt lat="43.4280667" lon="10.9312933"><ele>502.25</ele><time>2026-04-18T09:37:15.743Z</time></trkpt><trkpt lat="43.428065" lon="10.931475"><ele>505.0</ele><time>2026-04-18T09:37:16.746Z</time></trkpt><trkpt lat="43.4280883" lon="10.93166"><ele>506.4</ele><time>2026-04-18T09:37:17.745Z</time></trkpt><trkpt lat="43.4281117" lon="10.9318267"><ele>507.8</ele><time>2026-04-18T09:37:18.746Z</time></trkpt><trkpt lat="43.4281117" lon="10.9319767"><ele>509.20000000000005</ele><time>2026-04-18T09:37:19.745Z</time></trkpt><trkpt lat="43.428095" lon="10.93211"><ele>510.6</ele><time>2026-04-18T09:37:20.747Z</time></trkpt><trkpt lat="43.4280567" lon="10.9322217"><ele>512.0</ele><time>2026-04-18T09:37:21.743Z</time></trkpt><trkpt lat="43.4280067" lon="10.932315"><ele>512.4</ele><time>2026-04-18T09:37:22.743Z</time></trkpt><trkpt lat="43.4279367" lon="10.932385"><ele>512.8000000000001</ele><time>2026-04-18T09:37:23.743Z</time></trkpt><trkpt lat="43.42787" lon="10.932435"><ele>513.2</ele><time>2026-04-18T09:37:24.741Z</time></trkpt><trkpt lat="43.4278083" lon="10.9324833"><ele>513.6</ele><time>2026-04-18T09:37:25.743Z</time></trkpt><trkpt lat="43.427735" lon="10.9326167"><ele>514.0</ele><time>2026-04-18T09:37:27.742Z</time></trkpt><trkpt lat="43.4277317" lon="10.9328067"><ele>514.0</ele><time>2026-04-18T09:37:29.748Z</time></trkpt><trkpt lat="43.4277933" lon="10.9329567"><ele>514.0</ele><time>2026-04-18T09:37:30.745Z</time></trkpt><trkpt lat="43.4278667" lon="10.9331283"><ele>514.0</ele><time>2026-04-18T09:37:31.741Z</time></trkpt><trkpt lat="43.4279367" lon="10.9333067"><ele>514.0</ele><time>2026-04-18T09:37:32.743Z</time></trkpt><trkpt lat="43.427995" lon="10.933465"><ele>511.0</ele><time>2026-04-18T09:37:33.745Z</time></trkpt><trkpt lat="43.42805" lon="10.9336"><ele>508.0</ele><time>2026-04-18T09:37:34.743Z</time></trkpt><trkpt lat="43.428115" lon="10.93372"><ele>505.0</ele><time>2026-04-18T09:37:35.74Z</time></trkpt><trkpt lat="43.428185" lon="10.93383"><ele>502.0</ele><time>2026-04-18T09:37:36.743Z</time></trkpt><trkpt lat="43.4282567" lon="10.9339317"><ele>499.0</ele><time>2026-04-18T09:37:37.742Z</time></trkpt><trkpt lat="43.42834" lon="10.9340217"><ele>499.0</ele><time>2026-04-18T09:37:38.746Z</time></trkpt><trkpt lat="43.4284283" lon="10.9341117"><ele>499.0</ele><time>2026-04-18T09:37:39.742Z</time></trkpt><trkpt lat="43.4285283" lon="10.9342"><ele>499.0</ele><time>2026-04-18T09:37:40.743Z</time></trkpt><trkpt lat="43.42864" lon="10.93429"><ele>499.0</ele><time>2026-04-18T09:37:41.741Z</time></trkpt><trkpt lat="43.4287467" lon="10.9343833"><ele>496.5</ele><time>2026-04-18T09:37:42.744Z</time></trkpt><trkpt lat="43.4288483" lon="10.9344917"><ele>494.0</ele><time>2026-04-18T09:37:43.746Z</time></trkpt><trkpt lat="43.4289417" lon="10.9345967"><ele>491.5</ele><time>2026-04-18T09:37:44.749Z</time></trkpt><trkpt lat="43.4290433" lon="10.9346917"><ele>489.0</ele><time>2026-04-18T09:37:45.741Z</time></trkpt><trkpt lat="43.4291567" lon="10.9347733"><ele>489.0</ele><time>2026-04-18T09:37:46.746Z</time></trkpt><trkpt lat="43.4292733" lon="10.934845"><ele>489.0</ele><time>2026-04-18T09:37:47.744Z</time></trkpt><trkpt lat="43.4294017" lon="10.93492"><ele>489.0</ele><time>2026-04-18T09:37:48.741Z</time></trkpt><trkpt lat="43.4295267" lon="10.9349967"><ele>489.0</ele><time>2026-04-18T09:37:49.746Z</time></trkpt><trkpt lat="43.4296483" lon="10.9350717"><ele>489.25</ele><time>2026-04-18T09:37:50.745Z</time></trkpt><trkpt lat="43.4297683" lon="10.935145"><ele>489.5</ele><time>2026-04-18T09:37:51.742Z</time></trkpt><trkpt lat="43.4298883" lon="10.9352317"><ele>489.75</ele><time>2026-04-18T09:37:52.741Z</time></trkpt><trkpt lat="43.4299883" lon="10.93533"><ele>490.0</ele><time>2026-04-18T09:37:53.746Z</time></trkpt><trkpt lat="43.4300817" lon="10.93542"><ele>490.0</ele><time>2026-04-18T09:37:54.742Z</time></trkpt><trkpt lat="43.43018" lon="10.9355167"><ele>490.0</ele><time>2026-04-18T09:37:55.742Z</time></trkpt><trkpt lat="43.430255" lon="10.9356483"><ele>490.0</ele><time>2026-04-18T09:37:56.747Z</time></trkpt><trkpt lat="43.430335" lon="10.93577"><ele>490.0</ele><time>2026-04-18T09:37:57.744Z</time></trkpt><trkpt lat="43.4304" lon="10.9358883"><ele>491.8</ele><time>2026-04-18T09:37:58.748Z</time></trkpt><trkpt lat="43.4304733" lon="10.93599"><ele>493.6</ele><time>2026-04-18T09:37:59.746Z</time></trkpt><trkpt lat="43.430545" lon="10.93609"><ele>495.4</ele><time>2026-04-18T09:38:00.746Z</time></trkpt><trkpt lat="43.4306117" lon="10.9361933"><ele>497.2</ele><time>2026-04-18T09:38:01.743Z</time></trkpt><trkpt lat="43.4306667" lon="10.93631"><ele>499.0</ele><time>2026-04-18T09:38:02.747Z</time></trkpt><trkpt lat="43.4307217" lon="10.93644"><ele>499.0</ele><time>2026-04-18T09:38:03.744Z</time></trkpt><trkpt lat="43.4307933" lon="10.93658"><ele>499.0</ele><time>2026-04-18T09:38:04.745Z</time></trkpt><trkpt lat="43.4308517" lon="10.936745"><ele>499.0</ele><time>2026-04-18T09:38:05.743Z</time></trkpt><trkpt lat="43.4309" lon="10.9369333"><ele>499.0</ele><time>2026-04-18T09:38:06.742Z</time></trkpt><trkpt lat="43.4309433" lon="10.93711"><ele>497.5</ele><time>2026-04-18T09:38:07.741Z</time></trkpt><trkpt lat="43.431" lon="10.9372667"><ele>496.0</ele><time>2026-04-18T09:38:08.742Z</time></trkpt><trkpt lat="43.4310733" lon="10.9374083"><ele>494.5</ele><time>2026-04-18T09:38:09.747Z</time></trkpt><trkpt lat="43.4311567" lon="10.9375417"><ele>493.0</ele><time>2026-04-18T09:38:10.744Z</time></trkpt><trkpt lat="43.431265" lon="10.9376633"><ele>494.75</ele><time>2026-04-18T09:38:11.746Z</time></trkpt><trkpt lat="43.4313733" lon="10.9377733"><ele>496.5</ele><time>2026-04-18T09:38:12.747Z</time></trkpt><trkpt lat="43.431485" lon="10.9378633"><ele>498.25</ele><time>2026-04-18T09:38:13.751Z</time></trkpt><trkpt lat="43.431585" lon="10.9379683"><ele>500.0</ele><time>2026-04-18T09:38:14.749Z</time></trkpt><trkpt lat="43.4316783" lon="10.9380917"><ele>500.0</ele><time>2026-04-18T09:38:15.744Z</time></trkpt><trkpt lat="43.4317533" lon="10.9382383"><ele>500.0</ele><time>2026-04-18T09:38:16.744Z</time></trkpt><trkpt lat="43.4318267" lon="10.9383967"><ele>500.0</ele><time>2026-04-18T09:38:17.741Z</time></trkpt><trkpt lat="43.4318983" lon="10.9385483"><ele>500.0</ele><time>2026-04-18T09:38:18.742Z</time></trkpt><trkpt lat="43.43195" lon="10.9387017"><ele>500.0</ele><time>2026-04-18T09:38:19.742Z</time></trkpt><trkpt lat="43.43198" lon="10.9388633"><ele>500.0</ele><time>2026-04-18T09:38:20.742Z</time></trkpt><trkpt lat="43.4319883" lon="10.939045"><ele>500.0</ele><time>2026-04-18T09:38:21.741Z</time></trkpt><trkpt lat="43.4319667" lon="10.9392367"><ele>500.0</ele><time>2026-04-18T09:38:22.74Z</time></trkpt><trkpt lat="43.43196" lon="10.9394133"><ele>500.8</ele><time>2026-04-18T09:38:23.746Z</time></trkpt><trkpt lat="43.43196" lon="10.939575"><ele>501.6</ele><time>2026-04-18T09:38:24.742Z</time></trkpt><trkpt lat="43.43198" lon="10.9397167"><ele>502.4</ele><time>2026-04-18T09:38:25.745Z</time></trkpt><trkpt lat="43.4320383" lon="10.9398333"><ele>503.2</ele><time>2026-04-18T09:38:26.746Z</time></trkpt><trkpt lat="43.4320667" lon="10.9399533"><ele>504.0</ele><time>2026-04-18T09:38:27.746Z</time></trkpt><trkpt lat="43.43208" lon="10.9400783"><ele>505.5</ele><time>2026-04-18T09:38:28.744Z</time></trkpt><trkpt lat="43.43204" lon="10.940215"><ele>507.0</ele><time>2026-04-18T09:38:29.742Z</time></trkpt><trkpt lat="43.4320117" lon="10.9403733"><ele>508.5</ele><time>2026-04-18T09:38:30.741Z</time></trkpt><trkpt lat="43.4319817" lon="10.9405717"><ele>510.0</ele><time>2026-04-18T09:38:31.745Z</time></trkpt><trkpt lat="43.431945" lon="10.9407767"><ele>511.25</ele><time>2026-04-18T09:38:32.745Z</time></trkpt><trkpt lat="43.4319183" lon="10.9409783"><ele>512.5</ele><time>2026-04-18T09:38:33.744Z</time></trkpt><trkpt lat="43.4319017" lon="10.94117"><ele>513.75</ele><time>2026-04-18T09:38:34.747Z</time></trkpt><trkpt lat="43.4318967" lon="10.941375"><ele>515.0</ele><time>2026-04-18T09:38:35.741Z</time></trkpt><trkpt lat="43.4318833" lon="10.94159"><ele>515.3333333333333</ele><time>2026-04-18T09:38:36.743Z</time></trkpt><trkpt lat="43.431885" lon="10.9418167"><ele>515.6666666666666</ele><time>2026-04-18T09:38:37.741Z</time></trkpt><trkpt lat="43.43189" lon="10.942025"><ele>516.0</ele><time>2026-04-18T09:38:38.746Z</time></trkpt><trkpt lat="43.43189" lon="10.942225"><ele>516.0</ele><time>2026-04-18T09:38:39.744Z</time></trkpt><trkpt lat="43.4318833" lon="10.9424267"><ele>516.0</ele><time>2026-04-18T09:38:40.743Z</time></trkpt><trkpt lat="43.4318833" lon="10.9426567"><ele>516.0</ele><time>2026-04-18T09:38:41.746Z</time></trkpt><trkpt lat="43.4318783" lon="10.9428967"><ele>514.3333333333334</ele><time>2026-04-18T09:38:42.747Z</time></trkpt><trkpt lat="43.43191" lon="10.9431433"><ele>512.6666666666667</ele><time>2026-04-18T09:38:43.744Z</time></trkpt><trkpt lat="43.4319067" lon="10.94338"><ele>511.0</ele><time>2026-04-18T09:38:44.745Z</time></trkpt><trkpt lat="43.4318967" lon="10.9436"><ele>510.25</ele><time>2026-04-18T09:38:45.74Z</time></trkpt><trkpt lat="43.4318967" lon="10.9438117"><ele>509.5</ele><time>2026-04-18T09:38:46.742Z</time></trkpt><trkpt lat="43.4318833" lon="10.9439783"><ele>508.75</ele><time>2026-04-18T09:38:47.739Z</time></trkpt><trkpt lat="43.4319233" lon="10.94415"><ele>508.0</ele><time>2026-04-18T09:38:48.743Z</time></trkpt><trkpt lat="43.431965" lon="10.94428"><ele>507.4</ele><time>2026-04-18T09:38:49.741Z</time></trkpt><trkpt lat="43.4320283" lon="10.94439"><ele>506.79999999999995</ele><time>2026-04-18T09:38:50.744Z</time></trkpt><trkpt lat="43.4321017" lon="10.9444917"><ele>506.2</ele><time>2026-04-18T09:38:51.744Z</time></trkpt><trkpt lat="43.4321517" lon="10.9445567"><ele>505.6</ele><time>2026-04-18T09:38:52.743Z</time></trkpt><trkpt lat="43.43228" lon="10.94456"><ele>505.0</ele><time>2026-04-18T09:38:53.748Z</time></trkpt><trkpt lat="43.4324167" lon="10.9445333"><ele>506.5</ele><time>2026-04-18T09:38:54.744Z</time></trkpt><trkpt lat="43.4325283" lon="10.9445033"><ele>508.0</ele><time>2026-04-18T09:38:55.744Z</time></trkpt><trkpt lat="43.4326883" lon="10.9444883"><ele>509.5</ele><time>2026-04-18T09:38:56.751Z</time></trkpt><trkpt lat="43.432855" lon="10.9444383"><ele>511.0</ele><time>2026-04-18T09:38:57.744Z</time></trkpt><trkpt lat="43.43303" lon="10.944385"><ele>512.5</ele><time>2026-04-18T09:38:58.743Z</time></trkpt><trkpt lat="43.4331867" lon="10.9443967"><ele>514.0</ele><time>2026-04-18T09:38:59.742Z</time></trkpt><trkpt lat="43.4333317" lon="10.9443683"><ele>515.5</ele><time>2026-04-18T09:39:00.744Z</time></trkpt><trkpt lat="43.43347" lon="10.9443817"><ele>517.0</ele><time>2026-04-18T09:39:01.742Z</time></trkpt><trkpt lat="43.4335967" lon="10.944445"><ele>517.0</ele><time>2026-04-18T09:39:02.743Z</time></trkpt><trkpt lat="43.4336983" lon="10.9444733"><ele>517.0</ele><time>2026-04-18T09:39:03.74Z</time></trkpt><trkpt lat="43.433845" lon="10.9446533"><ele>517.0</ele><time>2026-04-18T09:39:04.745Z</time></trkpt><trkpt lat="43.433985" lon="10.9448"><ele>520.6666666666667</ele><time>2026-04-18T09:39:05.745Z</time></trkpt><trkpt lat="43.43414" lon="10.9449"><ele>524.3333333333334</ele><time>2026-04-18T09:39:06.75Z</time></trkpt><trkpt lat="43.4342783" lon="10.944945"><ele>528.0</ele><time>2026-04-18T09:39:07.747Z</time></trkpt><trkpt lat="43.4344133" lon="10.9449833"><ele>528.0</ele><time>2026-04-18T09:39:08.747Z</time></trkpt><trkpt lat="43.4345117" lon="10.9449233"><ele>528.0</ele><time>2026-04-18T09:39:09.746Z</time></trkpt><trkpt lat="43.4346317" lon="10.94497"><ele>528.0</ele><time>2026-04-18T09:39:10.747Z</time></trkpt><trkpt lat="43.43474" lon="10.9450567"><ele>528.0</ele><time>2026-04-18T09:39:11.745Z</time></trkpt><trkpt lat="43.4348233" lon="10.9451117"><ele>530.5</ele><time>2026-04-18T09:39:12.742Z</time></trkpt><trkpt lat="43.4348583" lon="10.9452"><ele>533.0</ele><time>2026-04-18T09:39:13.746Z</time></trkpt><trkpt lat="43.4348867" lon="10.9452917"><ele>535.5</ele><time>2026-04-18T09:39:14.743Z</time></trkpt><trkpt lat="43.4349117" lon="10.9454083"><ele>538.0</ele><time>2026-04-18T09:39:15.742Z</time></trkpt><trkpt lat="43.434925" lon="10.945535"><ele>540.5</ele><time>2026-04-18T09:39:16.744Z</time></trkpt><trkpt lat="43.4349833" lon="10.9456317"><ele>543.0</ele><time>2026-04-18T09:39:17.744Z</time></trkpt><trkpt lat="43.4350333" lon="10.9457383"><ele>543.0</ele><time>2026-04-18T09:39:18.743Z</time></trkpt><trkpt lat="43.435115" lon="10.9458333"><ele>543.0</ele><time>2026-04-18T09:39:19.74Z</time></trkpt><trkpt lat="43.435205" lon="10.9459183"><ele>543.0</ele><time>2026-04-18T09:39:20.744Z</time></trkpt><trkpt lat="43.4352717" lon="10.946025"><ele>543.0</ele><time>2026-04-18T09:39:21.747Z</time></trkpt><trkpt lat="43.4353317" lon="10.9461617"><ele>543.0</ele><time>2026-04-18T09:39:22.744Z</time></trkpt><trkpt lat="43.4354217" lon="10.9462883"><ele>545.0</ele><time>2026-04-18T09:39:23.743Z</time></trkpt><trkpt lat="43.435525" lon="10.9463433"><ele>547.0</ele><time>2026-04-18T09:39:24.744Z</time></trkpt><trkpt lat="43.4356367" lon="10.9464067"><ele>549.0</ele><time>2026-04-18T09:39:25.749Z</time></trkpt><trkpt lat="43.4357367" lon="10.94651"><ele>551.0</ele><time>2026-04-18T09:39:26.746Z</time></trkpt><trkpt lat="43.435845" lon="10.9466333"><ele>555.0</ele><time>2026-04-18T09:39:27.743Z</time></trkpt><trkpt lat="43.43595" lon="10.94675"><ele>559.0</ele><time>2026-04-18T09:39:28.743Z</time></trkpt><trkpt lat="43.436035" lon="10.946915"><ele>563.0</ele><time>2026-04-18T09:39:29.748Z</time></trkpt><trkpt lat="43.4361333" lon="10.947035"><ele>567.0</ele><time>2026-04-18T09:39:30.742Z</time></trkpt><trkpt lat="43.4361933" lon="10.9471467"><ele>567.0</ele><time>2026-04-18T09:39:31.745Z</time></trkpt><trkpt lat="43.4362417" lon="10.94726"><ele>567.0</ele><time>2026-04-18T09:39:32.747Z</time></trkpt><trkpt lat="43.4362767" lon="10.9473617"><ele>567.0</ele><time>2026-04-18T09:39:33.744Z</time></trkpt><trkpt lat="43.4362767" lon="10.947465"><ele>567.0</ele><time>2026-04-18T09:39:34.747Z</time></trkpt><trkpt lat="43.43627" lon="10.9475633"><ele>567.0</ele><time>2026-04-18T09:39:35.744Z</time></trkpt><trkpt lat="43.4362767" lon="10.9476567"><ele>567.0</ele><time>2026-04-18T09:39:36.75Z</time></trkpt><trkpt lat="43.4362633" lon="10.9477817"><ele>566.75</ele><time>2026-04-18T09:39:37.742Z</time></trkpt><trkpt lat="43.4362333" lon="10.9479567"><ele>566.5</ele><time>2026-04-18T09:39:38.742Z</time></trkpt><trkpt lat="43.436205" lon="10.948115"><ele>566.25</ele><time>2026-04-18T09:39:39.746Z</time></trkpt><trkpt lat="43.4361967" lon="10.9482717"><ele>566.0</ele><time>2026-04-18T09:39:40.741Z</time></trkpt><trkpt lat="43.4361967" lon="10.9484383"><ele>564.75</ele><time>2026-04-18T09:39:41.742Z</time></trkpt><trkpt lat="43.43624" lon="10.9485883"><ele>563.5</ele><time>2026-04-18T09:39:42.743Z</time></trkpt><trkpt lat="43.4363133" lon="10.948735"><ele>562.25</ele><time>2026-04-18T09:39:43.742Z</time></trkpt><trkpt lat="43.43637" lon="10.9489067"><ele>561.0</ele><time>2026-04-18T09:39:44.743Z</time></trkpt><trkpt lat="43.4364567" lon="10.9490683"><ele>560.75</ele><time>2026-04-18T09:39:45.745Z</time></trkpt><trkpt lat="43.43654" lon="10.9492367"><ele>560.5</ele><time>2026-04-18T09:39:46.747Z</time></trkpt><trkpt lat="43.4366267" lon="10.9493783"><ele>560.25</ele><time>2026-04-18T09:39:47.746Z</time></trkpt><trkpt lat="43.4367183" lon="10.94949"><ele>560.0</ele><time>2026-04-18T09:39:48.742Z</time></trkpt><trkpt lat="43.4368117" lon="10.94959"><ele>560.0</ele><time>2026-04-18T09:39:49.74Z</time></trkpt><trkpt lat="43.4369267" lon="10.9496483"><ele>560.0</ele><time>2026-04-18T09:39:50.749Z</time></trkpt><trkpt lat="43.4370533" lon="10.9497083"><ele>560.0</ele><time>2026-04-18T09:39:51.747Z</time></trkpt><trkpt lat="43.43721" lon="10.9497383"><ele>560.0</ele><time>2026-04-18T09:39:52.742Z</time></trkpt><trkpt lat="43.4373633" lon="10.9497883"><ele>560.25</ele><time>2026-04-18T09:39:53.752Z</time></trkpt><trkpt lat="43.437515" lon="10.949805"><ele>560.5</ele><time>2026-04-18T09:39:54.745Z</time></trkpt><trkpt lat="43.4376467" lon="10.949885"><ele>560.75</ele><time>2026-04-18T09:39:55.747Z</time></trkpt><trkpt lat="43.4377733" lon="10.9499617"><ele>561.0</ele><time>2026-04-18T09:39:56.742Z</time></trkpt><trkpt lat="43.4378983" lon="10.9500617"><ele>562.3333333333334</ele><time>2026-04-18T09:39:57.755Z</time></trkpt><trkpt lat="43.4380317" lon="10.950185"><ele>563.6666666666667</ele><time>2026-04-18T09:39:58.749Z</time></trkpt><trkpt lat="43.4381633" lon="10.9503217"><ele>565.0</ele><time>2026-04-18T09:39:59.748Z</time></trkpt><trkpt lat="43.4382817" lon="10.950445"><ele>565.0</ele><time>2026-04-18T09:40:00.745Z</time></trkpt><trkpt lat="43.438385" lon="10.9505717"><ele>565.0</ele><time>2026-04-18T09:40:01.743Z</time></trkpt><trkpt lat="43.438485" lon="10.9506883"><ele>565.0</ele><time>2026-04-18T09:40:02.749Z</time></trkpt><trkpt lat="43.4385867" lon="10.9507933"><ele>565.0</ele><time>2026-04-18T09:40:03.747Z</time></trkpt><trkpt lat="43.438685" lon="10.9508983"><ele>564.25</ele><time>2026-04-18T09:40:04.746Z</time></trkpt><trkpt lat="43.438785" lon="10.9509917"><ele>563.5</ele><time>2026-04-18T09:40:05.746Z</time></trkpt><trkpt lat="43.4388783" lon="10.9511167"><ele>562.75</ele><time>2026-04-18T09:40:06.745Z</time></trkpt><trkpt lat="43.4389783" lon="10.9512283"><ele>562.0</ele><time>2026-04-18T09:40:07.742Z</time></trkpt><trkpt lat="43.43909" lon="10.9513267"><ele>563.5</ele><time>2026-04-18T09:40:08.746Z</time></trkpt><trkpt lat="43.4391933" lon="10.9514383"><ele>565.0</ele><time>2026-04-18T09:40:09.745Z</time></trkpt><trkpt lat="43.4393" lon="10.9515417"><ele>566.5</ele><time>2026-04-18T09:40:10.744Z</time></trkpt><trkpt lat="43.4394067" lon="10.9516383"><ele>568.0</ele><time>2026-04-18T09:40:11.746Z</time></trkpt><trkpt lat="43.4395083" lon="10.9517267"><ele>568.0</ele><time>2026-04-18T09:40:12.743Z</time></trkpt><trkpt lat="43.4395983" lon="10.95182"><ele>568.0</ele><time>2026-04-18T09:40:13.744Z</time></trkpt><trkpt lat="43.4396883" lon="10.95193"><ele>568.0</ele><time>2026-04-18T09:40:14.749Z</time></trkpt><trkpt lat="43.4397967" lon="10.9520133"><ele>568.0</ele><time>2026-04-18T09:40:15.745Z</time></trkpt><trkpt lat="43.4398917" lon="10.952135"><ele>571.0</ele><time>2026-04-18T09:40:16.748Z</time></trkpt><trkpt lat="43.4400017" lon="10.9522367"><ele>574.0</ele><time>2026-04-18T09:40:17.749Z</time></trkpt><trkpt lat="43.440105" lon="10.9523467"><ele>577.0</ele><time>2026-04-18T09:40:18.749Z</time></trkpt><trkpt lat="43.440215" lon="10.9524533"><ele>580.0</ele><time>2026-04-18T09:40:19.747Z</time></trkpt><trkpt lat="43.4403167" lon="10.9525683"><ele>580.0</ele><time>2026-04-18T09:40:20.747Z</time></trkpt><trkpt lat="43.440405" lon="10.9526983"><ele>580.0</ele><time>2026-04-18T09:40:21.748Z</time></trkpt><trkpt lat="43.4405067" lon="10.9528083"><ele>580.0</ele><time>2026-04-18T09:40:22.745Z</time></trkpt><trkpt lat="43.4406083" lon="10.952905"><ele>580.0</ele><time>2026-04-18T09:40:23.744Z</time></trkpt><trkpt lat="43.4407" lon="10.9530017"><ele>582.0</ele><time>2026-04-18T09:40:24.746Z</time></trkpt><trkpt lat="43.4407933" lon="10.95308"><ele>584.0</ele><time>2026-04-18T09:40:25.745Z</time></trkpt><trkpt lat="43.4408783" lon="10.9531333"><ele>586.0</ele><time>2026-04-18T09:40:26.748Z</time></trkpt><trkpt lat="43.4409567" lon="10.953165"><ele>588.0</ele><time>2026-04-18T09:40:27.745Z</time></trkpt><trkpt lat="43.4410333" lon="10.95316"><ele>590.0</ele><time>2026-04-18T09:40:28.746Z</time></trkpt><trkpt lat="43.4411083" lon="10.9531317"><ele>592.0</ele><time>2026-04-18T09:40:29.746Z</time></trkpt><trkpt lat="43.44117" lon="10.9530683"><ele>592.0</ele><time>2026-04-18T09:40:30.745Z</time></trkpt><trkpt lat="43.4412017" lon="10.9529633"><ele>592.0</ele><time>2026-04-18T09:40:31.743Z</time></trkpt><trkpt lat="43.4412233" lon="10.95285"><ele>592.0</ele><time>2026-04-18T09:40:32.744Z</time></trkpt><trkpt lat="43.441245" lon="10.9527233"><ele>592.0</ele><time>2026-04-18T09:40:33.745Z</time></trkpt><trkpt lat="43.44127" lon="10.95261"><ele>592.0</ele><time>2026-04-18T09:40:34.744Z</time></trkpt><trkpt lat="43.4413017" lon="10.9525217"><ele>592.0</ele><time>2026-04-18T09:40:35.744Z</time></trkpt><trkpt lat="43.4413517" lon="10.9524633"><ele>593.5</ele><time>2026-04-18T09:40:36.744Z</time></trkpt><trkpt lat="43.441425" lon="10.9524383"><ele>595.0</ele><time>2026-04-18T09:40:37.752Z</time></trkpt><trkpt lat="43.4414967" lon="10.95245"><ele>596.5</ele><time>2026-04-18T09:40:38.743Z</time></trkpt><trkpt lat="43.44156" lon="10.9524567"><ele>598.0</ele><time>2026-04-18T09:40:39.741Z</time></trkpt><trkpt lat="43.4416617" lon="10.95252"><ele>599.5</ele><time>2026-04-18T09:40:41.744Z</time></trkpt><trkpt lat="43.441675" lon="10.952675"><ele>601.0</ele><time>2026-04-18T09:40:43.745Z</time></trkpt><trkpt lat="43.4416567" lon="10.9527983"><ele>601.75</ele><time>2026-04-18T09:40:44.746Z</time></trkpt><trkpt lat="43.4416567" lon="10.952945"><ele>602.5</ele><time>2026-04-18T09:40:45.745Z</time></trkpt><trkpt lat="43.4416683" lon="10.95311"><ele>603.25</ele><time>2026-04-18T09:40:46.744Z</time></trkpt><trkpt lat="43.441675" lon="10.953285"><ele>604.0</ele><time>2026-04-18T09:40:47.748Z</time></trkpt><trkpt lat="43.44168" lon="10.9534633"><ele>604.0</ele><time>2026-04-18T09:40:48.747Z</time></trkpt><trkpt lat="43.4416817" lon="10.9536483"><ele>604.0</ele><time>2026-04-18T09:40:49.745Z</time></trkpt><trkpt lat="43.4416883" lon="10.953835"><ele>604.0</ele><time>2026-04-18T09:40:50.746Z</time></trkpt><trkpt lat="43.441695" lon="10.9540167"><ele>604.0</ele><time>2026-04-18T09:40:51.742Z</time></trkpt><trkpt lat="43.4417" lon="10.9541967"><ele>603.75</ele><time>2026-04-18T09:40:52.745Z</time></trkpt><trkpt lat="43.4417017" lon="10.9543883"><ele>603.5</ele><time>2026-04-18T09:40:53.74Z</time></trkpt><trkpt lat="43.44168" lon="10.9545833"><ele>603.25</ele><time>2026-04-18T09:40:54.742Z</time></trkpt><trkpt lat="43.4416483" lon="10.9547733"><ele>603.0</ele><time>2026-04-18T09:40:55.742Z</time></trkpt><trkpt lat="43.441615" lon="10.9549617"><ele>602.5</ele><time>2026-04-18T09:40:56.743Z</time></trkpt><trkpt lat="43.4415767" lon="10.9551467"><ele>602.0</ele><time>2026-04-18T09:40:57.744Z</time></trkpt><trkpt lat="43.4415417" lon="10.9553267"><ele>601.5</ele><time>2026-04-18T09:40:58.741Z</time></trkpt><trkpt lat="43.4415067" lon="10.955505"><ele>601.0</ele><time>2026-04-18T09:40:59.743Z</time></trkpt><trkpt lat="43.44147" lon="10.95568"><ele>601.0</ele><time>2026-04-18T09:41:00.744Z</time></trkpt><trkpt lat="43.44141" lon="10.9558517"><ele>601.0</ele><time>2026-04-18T09:41:01.74Z</time></trkpt><trkpt lat="43.4413383" lon="10.95603"><ele>601.0</ele><time>2026-04-18T09:41:02.746Z</time></trkpt><trkpt lat="43.44125" lon="10.9562083"><ele>601.0</ele><time>2026-04-18T09:41:03.744Z</time></trkpt><trkpt lat="43.4411517" lon="10.9563883"><ele>601.3333333333334</ele><time>2026-04-18T09:41:04.746Z</time></trkpt><trkpt lat="43.4410417" lon="10.9565667"><ele>601.6666666666666</ele><time>2026-04-18T09:41:05.743Z</time></trkpt><trkpt lat="43.4409267" lon="10.9567467"><ele>602.0</ele><time>2026-04-18T09:41:06.743Z</time></trkpt><trkpt lat="43.44081" lon="10.9569333"><ele>602.0</ele><time>2026-04-18T09:41:07.741Z</time></trkpt><trkpt lat="43.4406967" lon="10.957115"><ele>602.0</ele><time>2026-04-18T09:41:08.74Z</time></trkpt><trkpt lat="43.44059" lon="10.957295"><ele>602.0</ele><time>2026-04-18T09:41:09.739Z</time></trkpt><trkpt lat="43.44048" lon="10.9574617"><ele>600.6666666666666</ele><time>2026-04-18T09:41:10.742Z</time></trkpt><trkpt lat="43.44037" lon="10.95763"><ele>599.3333333333334</ele><time>2026-04-18T09:41:11.74Z</time></trkpt><trkpt lat="43.4402567" lon="10.95781"><ele>598.0</ele><time>2026-04-18T09:41:12.745Z</time></trkpt><trkpt lat="43.4401433" lon="10.958"><ele>598.0</ele><time>2026-04-18T09:41:13.745Z</time></trkpt><trkpt lat="43.4400267" lon="10.9581917"><ele>598.0</ele><time>2026-04-18T09:41:14.744Z</time></trkpt><trkpt lat="43.4399083" lon="10.958395"><ele>598.0</ele><time>2026-04-18T09:41:15.745Z</time></trkpt><trkpt lat="43.439785" lon="10.958605"><ele>596.0</ele><time>2026-04-18T09:41:16.743Z</time></trkpt><trkpt lat="43.4396633" lon="10.9588233"><ele>594.0</ele><time>2026-04-18T09:41:17.747Z</time></trkpt><trkpt lat="43.43954" lon="10.95903"><ele>592.0</ele><time>2026-04-18T09:41:18.741Z</time></trkpt><trkpt lat="43.4394167" lon="10.959225"><ele>591.3333333333334</ele><time>2026-04-18T09:41:19.744Z</time></trkpt><trkpt lat="43.4393083" lon="10.9594217"><ele>590.6666666666666</ele><time>2026-04-18T09:41:20.745Z</time></trkpt><trkpt lat="43.439185" lon="10.9595983"><ele>590.0</ele><time>2026-04-18T09:41:21.747Z</time></trkpt><trkpt lat="43.4390533" lon="10.9597733"><ele>590.0</ele><time>2026-04-18T09:41:22.743Z</time></trkpt><trkpt lat="43.4388917" lon="10.9599367"><ele>590.0</ele><time>2026-04-18T09:41:23.741Z</time></trkpt><trkpt lat="43.4387117" lon="10.9600767"><ele>590.0</ele><time>2026-04-18T09:41:24.747Z</time></trkpt><trkpt lat="43.4385367" lon="10.9602133"><ele>590.3333333333333</ele><time>2026-04-18T09:41:25.748Z</time></trkpt><trkpt lat="43.4383733" lon="10.9603583"><ele>590.6666666666666</ele><time>2026-04-18T09:41:26.747Z</time></trkpt><trkpt lat="43.4382133" lon="10.9604917"><ele>591.0</ele><time>2026-04-18T09:41:27.746Z</time></trkpt><trkpt lat="43.43806" lon="10.960615"><ele>590.3333333333334</ele><time>2026-04-18T09:41:28.748Z</time></trkpt><trkpt lat="43.437905" lon="10.960715"><ele>589.6666666666667</ele><time>2026-04-18T09:41:29.747Z</time></trkpt><trkpt lat="43.43776" lon="10.9608167"><ele>589.0</ele><time>2026-04-18T09:41:30.745Z</time></trkpt><trkpt lat="43.43761" lon="10.960905"><ele>590.3333333333334</ele><time>2026-04-18T09:41:31.744Z</time></trkpt><trkpt lat="43.4374567" lon="10.960985"><ele>591.6666666666666</ele><time>2026-04-18T09:41:32.743Z</time></trkpt><trkpt lat="43.4373033" lon="10.9610717"><ele>593.0</ele><time>2026-04-18T09:41:33.741Z</time></trkpt><trkpt lat="43.43717" lon="10.9612117"><ele>590.6666666666666</ele><time>2026-04-18T09:41:34.748Z</time></trkpt><trkpt lat="43.4370533" lon="10.9613783"><ele>588.3333333333334</ele><time>2026-04-18T09:41:35.74Z</time></trkpt><trkpt lat="43.4369633" lon="10.9615733"><ele>586.0</ele><time>2026-04-18T09:41:36.74Z</time></trkpt><trkpt lat="43.4368833" lon="10.9617767"><ele>586.0</ele><time>2026-04-18T09:41:37.745Z</time></trkpt><trkpt lat="43.4368467" lon="10.9620033"><ele>586.0</ele><time>2026-04-18T09:41:38.745Z</time></trkpt><trkpt lat="43.436805" lon="10.9622217"><ele>586.0</ele><time>2026-04-18T09:41:39.744Z</time></trkpt><trkpt lat="43.4367567" lon="10.9624317"><ele>586.3333333333334</ele><time>2026-04-18T09:41:40.744Z</time></trkpt><trkpt lat="43.436705" lon="10.9626167"><ele>586.6666666666666</ele><time>2026-04-18T09:41:41.744Z</time></trkpt><trkpt lat="43.4366283" lon="10.9627833"><ele>587.0</ele><time>2026-04-18T09:41:42.744Z</time></trkpt><trkpt lat="43.436495" lon="10.9629233"><ele>587.0</ele><time>2026-04-18T09:41:43.744Z</time></trkpt><trkpt lat="43.436355" lon="10.963045"><ele>587.0</ele><time>2026-04-18T09:41:44.743Z</time></trkpt><trkpt lat="43.43622" lon="10.9631733"><ele>587.0</ele><time>2026-04-18T09:41:45.742Z</time></trkpt><trkpt lat="43.4360867" lon="10.9633217"><ele>586.6666666666666</ele><time>2026-04-18T09:41:46.745Z</time></trkpt><trkpt lat="43.4359633" lon="10.963505"><ele>586.3333333333334</ele><time>2026-04-18T09:41:47.742Z</time></trkpt><trkpt lat="43.4358567" lon="10.96371"><ele>586.0</ele><time>2026-04-18T09:41:48.741Z</time></trkpt><trkpt lat="43.4357683" lon="10.963925"><ele>586.0</ele><time>2026-04-18T09:41:49.747Z</time></trkpt><trkpt lat="43.435705" lon="10.9641467"><ele>586.0</ele><time>2026-04-18T09:41:50.746Z</time></trkpt><trkpt lat="43.4356283" lon="10.9643683"><ele>586.0</ele><time>2026-04-18T09:41:51.747Z</time></trkpt><trkpt lat="43.4355317" lon="10.964585"><ele>584.6666666666667</ele><time>2026-04-18T09:41:52.746Z</time></trkpt><trkpt lat="43.4354217" lon="10.9648017"><ele>583.3333333333334</ele><time>2026-04-18T09:41:53.745Z</time></trkpt><trkpt lat="43.435295" lon="10.965025"><ele>582.0</ele><time>2026-04-18T09:41:54.75Z</time></trkpt><trkpt lat="43.4351783" lon="10.96525"><ele>580.0</ele><time>2026-04-18T09:41:55.746Z</time></trkpt><trkpt lat="43.4350867" lon="10.9654767"><ele>578.0</ele><time>2026-04-18T09:41:56.746Z</time></trkpt><trkpt lat="43.4349883" lon="10.9656783"><ele>576.0</ele><time>2026-04-18T09:41:57.742Z</time></trkpt><trkpt lat="43.4348833" lon="10.9658717"><ele>573.3333333333334</ele><time>2026-04-18T09:41:58.741Z</time></trkpt><trkpt lat="43.43475" lon="10.9660533"><ele>570.6666666666667</ele><time>2026-04-18T09:41:59.74Z</time></trkpt><trkpt lat="43.4345967" lon="10.966235"><ele>568.0</ele><time>2026-04-18T09:42:00.745Z</time></trkpt><trkpt lat="43.4344617" lon="10.9664417"><ele>568.0</ele><time>2026-04-18T09:42:01.74Z</time></trkpt><trkpt lat="43.4343433" lon="10.966665"><ele>568.0</ele><time>2026-04-18T09:42:02.741Z</time></trkpt><trkpt lat="43.43421" lon="10.9668733"><ele>568.0</ele><time>2026-04-18T09:42:03.743Z</time></trkpt><trkpt lat="43.4340583" lon="10.9670533"><ele>566.3333333333334</ele><time>2026-04-18T09:42:04.744Z</time></trkpt><trkpt lat="43.433885" lon="10.967205"><ele>564.6666666666666</ele><time>2026-04-18T09:42:05.748Z</time></trkpt><trkpt lat="43.4337017" lon="10.9673333"><ele>563.0</ele><time>2026-04-18T09:42:06.746Z</time></trkpt><trkpt lat="43.4335183" lon="10.96745"><ele>561.3333333333333</ele><time>2026-04-18T09:42:07.746Z</time></trkpt><trkpt lat="43.4333467" lon="10.96757"><ele>559.6666666666666</ele><time>2026-04-18T09:42:08.743Z</time></trkpt><trkpt lat="43.43318" lon="10.9676883"><ele>558.0</ele><time>2026-04-18T09:42:09.746Z</time></trkpt><trkpt lat="43.433015" lon="10.9677917"><ele>558.6666666666666</ele><time>2026-04-18T09:42:10.746Z</time></trkpt><trkpt lat="43.4328517" lon="10.9678817"><ele>559.3333333333333</ele><time>2026-04-18T09:42:11.742Z</time></trkpt><trkpt lat="43.4326917" lon="10.967925"><ele>560.0</ele><time>2026-04-18T09:42:12.745Z</time></trkpt><trkpt lat="43.4325533" lon="10.968"><ele>560.0</ele><time>2026-04-18T09:42:13.744Z</time></trkpt><trkpt lat="43.4324383" lon="10.9681333"><ele>560.0</ele><time>2026-04-18T09:42:14.744Z</time></trkpt><trkpt lat="43.4323417" lon="10.9683033"><ele>560.0</ele><time>2026-04-18T09:42:15.741Z</time></trkpt><trkpt lat="43.4322283" lon="10.9684417"><ele>556.6666666666666</ele><time>2026-04-18T09:42:16.746Z</time></trkpt><trkpt lat="43.4320933" lon="10.9685333"><ele>553.3333333333334</ele><time>2026-04-18T09:42:17.741Z</time></trkpt><trkpt lat="43.4319367" lon="10.96858"><ele>550.0</ele><time>2026-04-18T09:42:18.745Z</time></trkpt><trkpt lat="43.4317683" lon="10.9685433"><ele>550.0</ele><time>2026-04-18T09:42:19.748Z</time></trkpt><trkpt lat="43.4316017" lon="10.96849"><ele>550.0</ele><time>2026-04-18T09:42:20.742Z</time></trkpt><trkpt lat="43.4314317" lon="10.9684133"><ele>550.0</ele><time>2026-04-18T09:42:21.744Z</time></trkpt><trkpt lat="43.431285" lon="10.96831"><ele>549.3333333333334</ele><time>2026-04-18T09:42:22.745Z</time></trkpt><trkpt lat="43.431135" lon="10.9682283"><ele>548.6666666666666</ele><time>2026-04-18T09:42:23.744Z</time></trkpt><trkpt lat="43.4309783" lon="10.9681733"><ele>548.0</ele><time>2026-04-18T09:42:24.744Z</time></trkpt><trkpt lat="43.4308217" lon="10.9681333"><ele>548.0</ele><time>2026-04-18T09:42:25.743Z</time></trkpt><trkpt lat="43.4306683" lon="10.96812"><ele>548.0</ele><time>2026-04-18T09:42:26.743Z</time></trkpt><trkpt lat="43.43052" lon="10.9681367"><ele>548.0</ele><time>2026-04-18T09:42:27.739Z</time></trkpt><trkpt lat="43.4303733" lon="10.9682267"><ele>544.6666666666666</ele><time>2026-04-18T09:42:28.743Z</time></trkpt><trkpt lat="43.4302217" lon="10.9683717"><ele>541.3333333333334</ele><time>2026-04-18T09:42:29.742Z</time></trkpt><trkpt lat="43.4300583" lon="10.96853"><ele>538.0</ele><time>2026-04-18T09:42:30.742Z</time></trkpt><trkpt lat="43.4298983" lon="10.9687067"><ele>538.0</ele><time>2026-04-18T09:42:31.746Z</time></trkpt><trkpt lat="43.4297567" lon="10.9689017"><ele>538.0</ele><time>2026-04-18T09:42:32.751Z</time></trkpt><trkpt lat="43.4296333" lon="10.96911"><ele>538.0</ele><time>2026-04-18T09:42:33.744Z</time></trkpt><trkpt lat="43.42953" lon="10.969325"><ele>535.6666666666667</ele><time>2026-04-18T09:42:34.748Z</time></trkpt><trkpt lat="43.429435" lon="10.9695333"><ele>533.3333333333334</ele><time>2026-04-18T09:42:35.743Z</time></trkpt><trkpt lat="43.4293483" lon="10.9697333"><ele>531.0</ele><time>2026-04-18T09:42:36.743Z</time></trkpt><trkpt lat="43.4292617" lon="10.9699167"><ele>531.3333333333334</ele><time>2026-04-18T09:42:37.746Z</time></trkpt><trkpt lat="43.4291617" lon="10.9700683"><ele>531.6666666666667</ele><time>2026-04-18T09:42:38.745Z</time></trkpt><trkpt lat="43.4290417" lon="10.9701883"><ele>532.0</ele><time>2026-04-18T09:42:39.742Z</time></trkpt><trkpt lat="43.4288883" lon="10.9702617"><ele>530.3333333333334</ele><time>2026-04-18T09:42:40.741Z</time></trkpt><trkpt lat="43.4287133" lon="10.9703067"><ele>528.6666666666666</ele><time>2026-04-18T09:42:41.743Z</time></trkpt><trkpt lat="43.4285383" lon="10.97034"><ele>527.0</ele><time>2026-04-18T09:42:42.744Z</time></trkpt><trkpt lat="43.428385" lon="10.9703767"><ele>527.0</ele><time>2026-04-18T09:42:43.743Z</time></trkpt><trkpt lat="43.4282633" lon="10.970415"><ele>527.0</ele><time>2026-04-18T09:42:44.745Z</time></trkpt><trkpt lat="43.4281633" lon="10.9704817"><ele>527.0</ele><time>2026-04-18T09:42:45.741Z</time></trkpt><trkpt lat="43.42809" lon="10.970595"><ele>527.0</ele><time>2026-04-18T09:42:46.74Z</time></trkpt><trkpt lat="43.428055" lon="10.9707483"><ele>526.25</ele><time>2026-04-18T09:42:47.745Z</time></trkpt><trkpt lat="43.428045" lon="10.9709117"><ele>525.5</ele><time>2026-04-18T09:42:48.743Z</time></trkpt><trkpt lat="43.4280717" lon="10.9711083"><ele>524.75</ele><time>2026-04-18T09:42:49.751Z</time></trkpt><trkpt lat="43.4280983" lon="10.97131"><ele>524.0</ele><time>2026-04-18T09:42:50.742Z</time></trkpt><trkpt lat="43.4280983" lon="10.97152"><ele>523.6666666666666</ele><time>2026-04-18T09:42:51.741Z</time></trkpt><trkpt lat="43.4280567" lon="10.9717383"><ele>523.3333333333334</ele><time>2026-04-18T09:42:52.742Z</time></trkpt><trkpt lat="43.42795" lon="10.9719533"><ele>523.0</ele><time>2026-04-18T09:42:53.739Z</time></trkpt><trkpt lat="43.4278217" lon="10.9721883"><ele>518.0</ele><time>2026-04-18T09:42:54.742Z</time></trkpt><trkpt lat="43.4276733" lon="10.9724417"><ele>513.0</ele><time>2026-04-18T09:42:55.746Z</time></trkpt><trkpt lat="43.4275033" lon="10.9726967"><ele>512.5</ele><time>2026-04-18T09:42:56.745Z</time></trkpt><trkpt lat="43.427325" lon="10.97294"><ele>512.0</ele><time>2026-04-18T09:42:57.745Z</time></trkpt><trkpt lat="43.4271467" lon="10.9731733"><ele>511.3333333333333</ele><time>2026-04-18T09:42:58.75Z</time></trkpt><trkpt lat="43.426975" lon="10.97337"><ele>510.66666666666663</ele><time>2026-04-18T09:42:59.746Z</time></trkpt><trkpt lat="43.4268183" lon="10.973535"><ele>510.0</ele><time>2026-04-18T09:43:00.746Z</time></trkpt><trkpt lat="43.42666" lon="10.97365"><ele>510.0</ele><time>2026-04-18T09:43:01.745Z</time></trkpt><trkpt lat="43.4264967" lon="10.973725"><ele>510.0</ele><time>2026-04-18T09:43:02.744Z</time></trkpt><trkpt lat="43.42633" lon="10.97377"><ele>510.0</ele><time>2026-04-18T09:43:03.745Z</time></trkpt><trkpt lat="43.42617" lon="10.97378"><ele>509.5</ele><time>2026-04-18T09:43:04.744Z</time></trkpt><trkpt lat="43.4260267" lon="10.9737467"><ele>509.0</ele><time>2026-04-18T09:43:05.743Z</time></trkpt><trkpt lat="43.425905" lon="10.973665"><ele>508.5</ele><time>2026-04-18T09:43:06.744Z</time></trkpt><trkpt lat="43.4258117" lon="10.9735283"><ele>508.0</ele><time>2026-04-18T09:43:07.743Z</time></trkpt><trkpt lat="43.42572" lon="10.9734033"><ele>507.5</ele><time>2026-04-18T09:43:08.747Z</time></trkpt><trkpt lat="43.425605" lon="10.9733217"><ele>507.0</ele><time>2026-04-18T09:43:09.739Z</time></trkpt><trkpt lat="43.4254767" lon="10.9732967"><ele>506.5</ele><time>2026-04-18T09:43:10.741Z</time></trkpt><trkpt lat="43.425355" lon="10.9733"><ele>506.0</ele><time>2026-04-18T09:43:11.747Z</time></trkpt><trkpt lat="43.4252433" lon="10.9733317"><ele>504.0</ele><time>2026-04-18T09:43:12.743Z</time></trkpt><trkpt lat="43.425145" lon="10.9734183"><ele>502.0</ele><time>2026-04-18T09:43:13.745Z</time></trkpt><trkpt lat="43.42507" lon="10.973525"><ele>500.0</ele><time>2026-04-18T09:43:14.747Z</time></trkpt><trkpt lat="43.425025" lon="10.9736983"><ele>498.0</ele><time>2026-04-18T09:43:15.744Z</time></trkpt><trkpt lat="43.4250217" lon="10.9738983"><ele>498.0</ele><time>2026-04-18T09:43:16.743Z</time></trkpt><trkpt lat="43.4250167" lon="10.9741017"><ele>498.0</ele><time>2026-04-18T09:43:17.745Z</time></trkpt><trkpt lat="43.4249767" lon="10.9743067"><ele>498.0</ele><time>2026-04-18T09:43:18.743Z</time></trkpt><trkpt lat="43.424905" lon="10.9745083"><ele>496.66666666666663</ele><time>2026-04-18T09:43:19.742Z</time></trkpt><trkpt lat="43.424825" lon="10.9747083"><ele>495.3333333333333</ele><time>2026-04-18T09:43:20.744Z</time></trkpt><trkpt lat="43.4247533" lon="10.9749"><ele>494.0</ele><time>2026-04-18T09:43:21.743Z</time></trkpt><trkpt lat="43.4246733" lon="10.9750683"><ele>493.66666666666663</ele><time>2026-04-18T09:43:22.742Z</time></trkpt><trkpt lat="43.4245633" lon="10.9752"><ele>493.33333333333337</ele><time>2026-04-18T09:43:23.745Z</time></trkpt><trkpt lat="43.4244183" lon="10.9752867"><ele>493.0</ele><time>2026-04-18T09:43:24.743Z</time></trkpt><trkpt lat="43.4242617" lon="10.9753767"><ele>493.0</ele><time>2026-04-18T09:43:25.745Z</time></trkpt><trkpt lat="43.4240833" lon="10.975465"><ele>493.0</ele><time>2026-04-18T09:43:26.746Z</time></trkpt><trkpt lat="43.4238983" lon="10.9755633"><ele>493.0</ele><time>2026-04-18T09:43:27.743Z</time></trkpt><trkpt lat="43.423725" lon="10.9756617"><ele>493.33333333333337</ele><time>2026-04-18T09:43:28.745Z</time></trkpt><trkpt lat="43.4235667" lon="10.9757783"><ele>493.66666666666663</ele><time>2026-04-18T09:43:29.747Z</time></trkpt><trkpt lat="43.42341" lon="10.9759267"><ele>494.0</ele><time>2026-04-18T09:43:30.745Z</time></trkpt><trkpt lat="43.4232367" lon="10.97608"><ele>494.66666666666663</ele><time>2026-04-18T09:43:31.746Z</time></trkpt><trkpt lat="43.4230583" lon="10.976205"><ele>495.33333333333337</ele><time>2026-04-18T09:43:32.749Z</time></trkpt><trkpt lat="43.4228783" lon="10.976295"><ele>496.0</ele><time>2026-04-18T09:43:33.745Z</time></trkpt><trkpt lat="43.42271" lon="10.976345"><ele>496.0</ele><time>2026-04-18T09:43:34.745Z</time></trkpt><trkpt lat="43.4225517" lon="10.976335"><ele>496.0</ele><time>2026-04-18T09:43:35.744Z</time></trkpt><trkpt lat="43.4223967" lon="10.9762767"><ele>496.0</ele><time>2026-04-18T09:43:36.744Z</time></trkpt><trkpt lat="43.4222667" lon="10.9761483"><ele>496.0</ele><time>2026-04-18T09:43:37.745Z</time></trkpt><trkpt lat="43.4221533" lon="10.9760017"><ele>496.0</ele><time>2026-04-18T09:43:38.747Z</time></trkpt><trkpt lat="43.4220483" lon="10.9758717"><ele>496.0</ele><time>2026-04-18T09:43:39.74Z</time></trkpt><trkpt lat="43.4219233" lon="10.9758"><ele>496.0</ele><time>2026-04-18T09:43:40.749Z</time></trkpt><trkpt lat="43.4217767" lon="10.975815"><ele>499.6666666666667</ele><time>2026-04-18T09:43:41.744Z</time></trkpt><trkpt lat="43.42162" lon="10.97587"><ele>503.33333333333337</ele><time>2026-04-18T09:43:42.744Z</time></trkpt><trkpt lat="43.42146" lon="10.975925"><ele>507.0</ele><time>2026-04-18T09:43:43.748Z</time></trkpt><trkpt lat="43.4212867" lon="10.97595"><ele>508.66666666666663</ele><time>2026-04-18T09:43:44.745Z</time></trkpt><trkpt lat="43.421105" lon="10.97594"><ele>510.3333333333333</ele><time>2026-04-18T09:43:45.744Z</time></trkpt><trkpt lat="43.4209267" lon="10.9758733"><ele>512.0</ele><time>2026-04-18T09:43:46.746Z</time></trkpt><trkpt lat="43.4207467" lon="10.9758067"><ele>512.0</ele><time>2026-04-18T09:43:47.75Z</time></trkpt><trkpt lat="43.420565" lon="10.97576"><ele>512.0</ele><time>2026-04-18T09:43:48.745Z</time></trkpt><trkpt lat="43.42037" lon="10.9757583"><ele>512.0</ele><time>2026-04-18T09:43:49.745Z</time></trkpt><trkpt lat="43.42018" lon="10.9757783"><ele>513.6666666666666</ele><time>2026-04-18T09:43:50.744Z</time></trkpt><trkpt lat="43.4199917" lon="10.9758067"><ele>515.3333333333334</ele><time>2026-04-18T09:43:51.745Z</time></trkpt><trkpt lat="43.419805" lon="10.9758933"><ele>517.0</ele><time>2026-04-18T09:43:52.743Z</time></trkpt><trkpt lat="43.4196083" lon="10.9760067"><ele>517.6666666666667</ele><time>2026-04-18T09:43:53.743Z</time></trkpt><trkpt lat="43.419405" lon="10.9760917"><ele>518.3333333333334</ele><time>2026-04-18T09:43:54.743Z</time></trkpt><trkpt lat="43.4192217" lon="10.97619"><ele>519.0</ele><time>2026-04-18T09:43:55.743Z</time></trkpt><trkpt lat="43.4190633" lon="10.9762733"><ele>519.0</ele><time>2026-04-18T09:43:56.746Z</time></trkpt><trkpt lat="43.41893" lon="10.9763333"><ele>519.0</ele><time>2026-04-18T09:43:57.749Z</time></trkpt><trkpt lat="43.418825" lon="10.9763533"><ele>519.0</ele><time>2026-04-18T09:43:58.745Z</time></trkpt><trkpt lat="43.4187467" lon="10.9763467"><ele>519.0</ele><time>2026-04-18T09:43:59.743Z</time></trkpt><trkpt lat="43.418655" lon="10.9762633"><ele>519.0</ele><time>2026-04-18T09:44:01.749Z</time></trkpt><trkpt lat="43.41861" lon="10.9761633"><ele>519.0</ele><time>2026-04-18T09:44:03.744Z</time></trkpt><trkpt lat="43.4185517" lon="10.97612"><ele>519.0</ele><time>2026-04-18T09:44:06.743Z</time></trkpt><trkpt lat="43.4185783" lon="10.9762033"><ele>519.0</ele><time>2026-04-18T09:44:09.741Z</time></trkpt><trkpt lat="43.41863" lon="10.9762533"><ele>519.0</ele><time>2026-04-18T09:44:10.74Z</time></trkpt><trkpt lat="43.4187017" lon="10.9762967"><ele>519.0</ele><time>2026-04-18T09:44:11.753Z</time></trkpt><trkpt lat="43.4187767" lon="10.9763267"><ele>519.0</ele><time>2026-04-18T09:44:12.743Z</time></trkpt><trkpt lat="43.41885" lon="10.9763233"><ele>519.0</ele><time>2026-04-18T09:44:13.748Z</time></trkpt><trkpt lat="43.4189117" lon="10.9763033"><ele>519.0</ele><time>2026-04-18T09:44:14.749Z</time></trkpt><trkpt lat="43.4189683" lon="10.9762317"><ele>519.0</ele><time>2026-04-18T09:44:16.748Z</time></trkpt><trkpt lat="43.4189433" lon="10.9761283"><ele>519.0</ele><time>2026-04-18T09:44:18.743Z</time></trkpt><trkpt lat="43.4188633" lon="10.9759983"><ele>519.0</ele><time>2026-04-18T09:44:20.742Z</time></trkpt><trkpt lat="43.4187683" lon="10.97593"><ele>519.0</ele><time>2026-04-18T09:44:21.744Z</time></trkpt><trkpt lat="43.418685" lon="10.9758617"><ele>517.4</ele><time>2026-04-18T09:44:22.743Z</time></trkpt><trkpt lat="43.4186017" lon="10.9757983"><ele>515.8</ele><time>2026-04-18T09:44:23.745Z</time></trkpt><trkpt lat="43.4185217" lon="10.9757283"><ele>514.2</ele><time>2026-04-18T09:44:24.744Z</time></trkpt><trkpt lat="43.4184433" lon="10.9756717"><ele>512.6</ele><time>2026-04-18T09:44:25.746Z</time></trkpt><trkpt lat="43.4183533" lon="10.9756333"><ele>511.0</ele><time>2026-04-18T09:44:26.749Z</time></trkpt><trkpt lat="43.41827" lon="10.9756017"><ele>511.0</ele><time>2026-04-18T09:44:27.744Z</time></trkpt><trkpt lat="43.41819" lon="10.975575"><ele>511.0</ele><time>2026-04-18T09:44:28.745Z</time></trkpt><trkpt lat="43.418105" lon="10.9755367"><ele>511.0</ele><time>2026-04-18T09:44:29.747Z</time></trkpt><trkpt lat="43.4180017" lon="10.9755383"><ele>511.0</ele><time>2026-04-18T09:44:30.746Z</time></trkpt><trkpt lat="43.4178817" lon="10.975535"><ele>511.0</ele><time>2026-04-18T09:44:31.749Z</time></trkpt><trkpt lat="43.4177633" lon="10.9755283"><ele>511.20000000000005</ele><time>2026-04-18T09:44:32.744Z</time></trkpt><trkpt lat="43.4176467" lon="10.9755317"><ele>511.40000000000003</ele><time>2026-04-18T09:44:33.747Z</time></trkpt><trkpt lat="43.4175367" lon="10.9755083"><ele>511.6</ele><time>2026-04-18T09:44:34.746Z</time></trkpt><trkpt lat="43.4174383" lon="10.975495"><ele>511.8</ele><time>2026-04-18T09:44:35.744Z</time></trkpt><trkpt lat="43.4173733" lon="10.9755017"><ele>512.0</ele><time>2026-04-18T09:44:36.748Z</time></trkpt><trkpt lat="43.4173167" lon="10.9754467"><ele>512.0</ele><time>2026-04-18T09:44:38.75Z</time></trkpt><trkpt lat="43.4172983" lon="10.9753433"><ele>512.0</ele><time>2026-04-18T09:44:41.746Z</time></trkpt><trkpt lat="43.4173533" lon="10.9752033"><ele>512.0</ele><time>2026-04-18T09:44:43.745Z</time></trkpt><trkpt lat="43.4174333" lon="10.9751233"><ele>512.0</ele><time>2026-04-18T09:44:44.745Z</time></trkpt><trkpt lat="43.4175367" lon="10.9750333"><ele>512.0</ele><time>2026-04-18T09:44:45.744Z</time></trkpt><trkpt lat="43.4176133" lon="10.9749283"><ele>509.20000000000005</ele><time>2026-04-18T09:44:46.742Z</time></trkpt><trkpt lat="43.4176767" lon="10.97482"><ele>506.40000000000003</ele><time>2026-04-18T09:44:47.745Z</time></trkpt><trkpt lat="43.4177217" lon="10.97471"><ele>503.59999999999997</ele><time>2026-04-18T09:44:48.745Z</time></trkpt><trkpt lat="43.4177367" lon="10.9745833"><ele>500.79999999999995</ele><time>2026-04-18T09:44:49.743Z</time></trkpt><trkpt lat="43.4177117" lon="10.97446"><ele>498.0</ele><time>2026-04-18T09:44:50.741Z</time></trkpt><trkpt lat="43.41764" lon="10.97432"><ele>495.0</ele><time>2026-04-18T09:44:51.744Z</time></trkpt><trkpt lat="43.4175717" lon="10.974175"><ele>492.0</ele><time>2026-04-18T09:44:52.743Z</time></trkpt><trkpt lat="43.4175033" lon="10.974005"><ele>489.0</ele><time>2026-04-18T09:44:53.747Z</time></trkpt><trkpt lat="43.417425" lon="10.97382"><ele>486.0</ele><time>2026-04-18T09:44:54.745Z</time></trkpt><trkpt lat="43.4173417" lon="10.9736283"><ele>486.0</ele><time>2026-04-18T09:44:55.743Z</time></trkpt><trkpt lat="43.4172467" lon="10.9734383"><ele>486.0</ele><time>2026-04-18T09:44:56.746Z</time></trkpt><trkpt lat="43.4171467" lon="10.97327"><ele>486.0</ele><time>2026-04-18T09:44:57.749Z</time></trkpt><trkpt lat="43.4170883" lon="10.973085"><ele>483.5</ele><time>2026-04-18T09:44:58.746Z</time></trkpt><trkpt lat="43.4170217" lon="10.9729117"><ele>481.0</ele><time>2026-04-18T09:44:59.746Z</time></trkpt><trkpt lat="43.4169767" lon="10.9727317"><ele>478.5</ele><time>2026-04-18T09:45:00.744Z</time></trkpt><trkpt lat="43.4169233" lon="10.972555"><ele>476.0</ele><time>2026-04-18T09:45:01.743Z</time></trkpt><trkpt lat="43.416885" lon="10.9723667"><ele>475.66666666666663</ele><time>2026-04-18T09:45:02.747Z</time></trkpt><trkpt lat="43.4168333" lon="10.9721783"><ele>475.33333333333337</ele><time>2026-04-18T09:45:03.743Z</time></trkpt><trkpt lat="43.4167767" lon="10.97198"><ele>475.0</ele><time>2026-04-18T09:45:04.746Z</time></trkpt><trkpt lat="43.41672" lon="10.9717683"><ele>476.0</ele><time>2026-04-18T09:45:05.74Z</time></trkpt><trkpt lat="43.4166367" lon="10.97155"><ele>477.0</ele><time>2026-04-18T09:45:06.745Z</time></trkpt><trkpt lat="43.4165517" lon="10.971335"><ele>478.0</ele><time>2026-04-18T09:45:07.743Z</time></trkpt><trkpt lat="43.4164717" lon="10.9711317"><ele>478.0</ele><time>2026-04-18T09:45:08.751Z</time></trkpt><trkpt lat="43.4163817" lon="10.9709533"><ele>478.0</ele><time>2026-04-18T09:45:09.743Z</time></trkpt><trkpt lat="43.4162917" lon="10.9707767"><ele>478.0</ele><time>2026-04-18T09:45:10.746Z</time></trkpt><trkpt lat="43.4162067" lon="10.9705933"><ele>479.33333333333337</ele><time>2026-04-18T09:45:11.741Z</time></trkpt><trkpt lat="43.4161017" lon="10.9704133"><ele>480.66666666666663</ele><time>2026-04-18T09:45:12.748Z</time></trkpt><trkpt lat="43.415995" lon="10.9702383"><ele>482.0</ele><time>2026-04-18T09:45:13.747Z</time></trkpt><trkpt lat="43.4158933" lon="10.970055"><ele>481.3333333333333</ele><time>2026-04-18T09:45:14.751Z</time></trkpt><trkpt lat="43.41581" lon="10.9698633"><ele>480.66666666666663</ele><time>2026-04-18T09:45:15.741Z</time></trkpt><trkpt lat="43.4157083" lon="10.9696967"><ele>480.0</ele><time>2026-04-18T09:45:16.749Z</time></trkpt><trkpt lat="43.41562" lon="10.969535"><ele>480.0</ele><time>2026-04-18T09:45:17.744Z</time></trkpt><trkpt lat="43.41556" lon="10.96936"><ele>480.0</ele><time>2026-04-18T09:45:18.745Z</time></trkpt><trkpt lat="43.41552" lon="10.9691733"><ele>480.0</ele><time>2026-04-18T09:45:19.743Z</time></trkpt><trkpt lat="43.4154933" lon="10.968975"><ele>480.0</ele><time>2026-04-18T09:45:20.743Z</time></trkpt><trkpt lat="43.41549" lon="10.9687317"><ele>478.66666666666663</ele><time>2026-04-18T09:45:21.743Z</time></trkpt><trkpt lat="43.4154883" lon="10.968465"><ele>477.3333333333333</ele><time>2026-04-18T09:45:22.744Z</time></trkpt><trkpt lat="43.4155" lon="10.968175"><ele>476.0</ele><time>2026-04-18T09:45:23.742Z</time></trkpt><trkpt lat="43.4155183" lon="10.9678817"><ele>476.0</ele><time>2026-04-18T09:45:24.744Z</time></trkpt><trkpt lat="43.4155533" lon="10.9675933"><ele>476.0</ele><time>2026-04-18T09:45:25.747Z</time></trkpt><trkpt lat="43.41558" lon="10.9673283"><ele>476.0</ele><time>2026-04-18T09:45:26.75Z</time></trkpt><trkpt lat="43.4156133" lon="10.9670733"><ele>478.0</ele><time>2026-04-18T09:45:27.748Z</time></trkpt><trkpt lat="43.4156467" lon="10.9668483"><ele>480.0</ele><time>2026-04-18T09:45:28.751Z</time></trkpt><trkpt lat="43.4156783" lon="10.9666533"><ele>482.0</ele><time>2026-04-18T09:45:29.745Z</time></trkpt><trkpt lat="43.4157083" lon="10.9664767"><ele>484.0</ele><time>2026-04-18T09:45:30.747Z</time></trkpt><trkpt lat="43.4157067" lon="10.966305"><ele>485.75</ele><time>2026-04-18T09:45:31.747Z</time></trkpt><trkpt lat="43.4156767" lon="10.9661433"><ele>487.5</ele><time>2026-04-18T09:45:32.746Z</time></trkpt><trkpt lat="43.4156433" lon="10.9659917"><ele>489.25</ele><time>2026-04-18T09:45:33.749Z</time></trkpt><trkpt lat="43.41562" lon="10.9658417"><ele>491.0</ele><time>2026-04-18T09:45:34.748Z</time></trkpt><trkpt lat="43.4156033" lon="10.96569"><ele>491.75</ele><time>2026-04-18T09:45:35.746Z</time></trkpt><trkpt lat="43.41558" lon="10.9655367"><ele>492.5</ele><time>2026-04-18T09:45:36.746Z</time></trkpt><trkpt lat="43.4155817" lon="10.9653717"><ele>493.25</ele><time>2026-04-18T09:45:37.745Z</time></trkpt><trkpt lat="43.415595" lon="10.96521"><ele>494.0</ele><time>2026-04-18T09:45:38.744Z</time></trkpt><trkpt lat="43.4156183" lon="10.9650517"><ele>494.6</ele><time>2026-04-18T09:45:39.741Z</time></trkpt><trkpt lat="43.41565" lon="10.964915"><ele>495.2</ele><time>2026-04-18T09:45:40.743Z</time></trkpt><trkpt lat="43.415675" lon="10.9648"><ele>495.80000000000007</ele><time>2026-04-18T09:45:41.743Z</time></trkpt><trkpt lat="43.415685" lon="10.9646367"><ele>496.40000000000003</ele><time>2026-04-18T09:45:43.747Z</time></trkpt><trkpt lat="43.41566" lon="10.9645117"><ele>497.0</ele><time>2026-04-18T09:45:45.744Z</time></trkpt><trkpt lat="43.415595" lon="10.9643767"><ele>497.0</ele><time>2026-04-18T09:45:47.743Z</time></trkpt><trkpt lat="43.4155517" lon="10.964305"><ele>497.0</ele><time>2026-04-18T09:45:48.743Z</time></trkpt><trkpt lat="43.4155017" lon="10.9642433"><ele>497.0</ele><time>2026-04-18T09:45:49.743Z</time></trkpt><trkpt lat="43.4154533" lon="10.96418"><ele>497.0</ele><time>2026-04-18T09:45:50.743Z</time></trkpt><trkpt lat="43.415405" lon="10.964115"><ele>497.0</ele><time>2026-04-18T09:45:51.743Z</time></trkpt><trkpt lat="43.41535" lon="10.9640483"><ele>497.0</ele><time>2026-04-18T09:45:52.742Z</time></trkpt><trkpt lat="43.41529" lon="10.964"><ele>497.0</ele><time>2026-04-18T09:45:53.74Z</time></trkpt><trkpt lat="43.415225" lon="10.9639567"><ele>496.0</ele><time>2026-04-18T09:45:54.744Z</time></trkpt><trkpt lat="43.4151483" lon="10.96391"><ele>495.00000000000006</ele><time>2026-04-18T09:45:55.746Z</time></trkpt><trkpt lat="43.4150683" lon="10.963855"><ele>494.00000000000006</ele><time>2026-04-18T09:45:56.741Z</time></trkpt><trkpt lat="43.4149917" lon="10.9637783"><ele>493.0</ele><time>2026-04-18T09:45:57.742Z</time></trkpt><trkpt lat="43.4149083" lon="10.9637067"><ele>492.0</ele><time>2026-04-18T09:45:58.743Z</time></trkpt><trkpt lat="43.4148217" lon="10.9636433"><ele>492.0</ele><time>2026-04-18T09:45:59.743Z</time></trkpt><trkpt lat="43.4147267" lon="10.9636117"><ele>492.00000000000006</ele><time>2026-04-18T09:46:00.749Z</time></trkpt><trkpt lat="43.41463" lon="10.9635883"><ele>492.00000000000006</ele><time>2026-04-18T09:46:01.744Z</time></trkpt><trkpt lat="43.4145333" lon="10.9635583"><ele>492.0</ele><time>2026-04-18T09:46:02.743Z</time></trkpt><trkpt lat="43.4144433" lon="10.96352"><ele>492.0</ele><time>2026-04-18T09:46:03.744Z</time></trkpt><trkpt lat="43.4143517" lon="10.963495"><ele>490.0</ele><time>2026-04-18T09:46:04.743Z</time></trkpt><trkpt lat="43.4142717" lon="10.963465"><ele>488.0</ele><time>2026-04-18T09:46:05.743Z</time></trkpt><trkpt lat="43.4142017" lon="10.9634317"><ele>486.0</ele><time>2026-04-18T09:46:06.741Z</time></trkpt><trkpt lat="43.414145" lon="10.9633833"><ele>484.0</ele><time>2026-04-18T09:46:07.744Z</time></trkpt><trkpt lat="43.414095" lon="10.9633233"><ele>482.0</ele><time>2026-04-18T09:46:08.742Z</time></trkpt><trkpt lat="43.41406" lon="10.9632317"><ele>480.0</ele><time>2026-04-18T09:46:09.741Z</time></trkpt><trkpt lat="43.4140133" lon="10.9631333"><ele>480.0</ele><time>2026-04-18T09:46:10.746Z</time></trkpt><trkpt lat="43.4139833" lon="10.9630567"><ele>480.0</ele><time>2026-04-18T09:46:11.743Z</time></trkpt><trkpt lat="43.4139267" lon="10.9629433"><ele>480.0</ele><time>2026-04-18T09:46:13.739Z</time></trkpt><trkpt lat="43.4138483" lon="10.9629"><ele>480.0</ele><time>2026-04-18T09:46:15.745Z</time></trkpt><trkpt lat="43.4137467" lon="10.9629433"><ele>480.0</ele><time>2026-04-18T09:46:17.746Z</time></trkpt><trkpt lat="43.413685" lon="10.96301"><ele>480.0</ele><time>2026-04-18T09:46:18.749Z</time></trkpt><trkpt lat="43.4136183" lon="10.9630717"><ele>478.0</ele><time>2026-04-18T09:46:19.749Z</time></trkpt><trkpt lat="43.4135483" lon="10.963125"><ele>476.0</ele><time>2026-04-18T09:46:20.746Z</time></trkpt><trkpt lat="43.4134783" lon="10.9631567"><ele>474.0</ele><time>2026-04-18T09:46:21.743Z</time></trkpt><trkpt lat="43.4134067" lon="10.96318"><ele>472.0</ele><time>2026-04-18T09:46:22.746Z</time></trkpt><trkpt lat="43.4133317" lon="10.96319"><ele>470.0</ele><time>2026-04-18T09:46:23.742Z</time></trkpt><trkpt lat="43.4132567" lon="10.9631617"><ele>468.0</ele><time>2026-04-18T09:46:24.745Z</time></trkpt><trkpt lat="43.4131783" lon="10.9631117"><ele>468.0</ele><time>2026-04-18T09:46:25.742Z</time></trkpt><trkpt lat="43.4131017" lon="10.9630167"><ele>467.99999999999994</ele><time>2026-04-18T09:46:26.744Z</time></trkpt><trkpt lat="43.4130267" lon="10.96289"><ele>467.99999999999994</ele><time>2026-04-18T09:46:27.746Z</time></trkpt><trkpt lat="43.4129483" lon="10.9627833"><ele>468.0</ele><time>2026-04-18T09:46:28.739Z</time></trkpt><trkpt lat="43.4128683" lon="10.96269"><ele>468.0</ele><time>2026-04-18T09:46:29.747Z</time></trkpt><trkpt lat="43.4127933" lon="10.9626117"><ele>465.3333333333333</ele><time>2026-04-18T09:46:30.747Z</time></trkpt><trkpt lat="43.412735" lon="10.9625333"><ele>462.66666666666663</ele><time>2026-04-18T09:46:31.746Z</time></trkpt><trkpt lat="43.412695" lon="10.9624633"><ele>460.0</ele><time>2026-04-18T09:46:32.744Z</time></trkpt><trkpt lat="43.41267" lon="10.9623817"><ele>457.3333333333333</ele><time>2026-04-18T09:46:33.745Z</time></trkpt><trkpt lat="43.4126667" lon="10.96228"><ele>454.66666666666663</ele><time>2026-04-18T09:46:34.744Z</time></trkpt><trkpt lat="43.4126667" lon="10.962165"><ele>452.0</ele><time>2026-04-18T09:46:35.745Z</time></trkpt><trkpt lat="43.4126883" lon="10.9620017"><ele>451.5</ele><time>2026-04-18T09:46:36.747Z</time></trkpt><trkpt lat="43.4127133" lon="10.9618217"><ele>451.0</ele><time>2026-04-18T09:46:37.744Z</time></trkpt><trkpt lat="43.41275" lon="10.9616417"><ele>450.5</ele><time>2026-04-18T09:46:38.745Z</time></trkpt><trkpt lat="43.41277" lon="10.9614883"><ele>450.0</ele><time>2026-04-18T09:46:39.743Z</time></trkpt><trkpt lat="43.4127917" lon="10.961335"><ele>449.0</ele><time>2026-04-18T09:46:40.743Z</time></trkpt><trkpt lat="43.41279" lon="10.9611733"><ele>448.0</ele><time>2026-04-18T09:46:41.742Z</time></trkpt><trkpt lat="43.41277" lon="10.9610067"><ele>447.0</ele><time>2026-04-18T09:46:42.742Z</time></trkpt><trkpt lat="43.4127583" lon="10.9608633"><ele>446.0</ele><time>2026-04-18T09:46:43.745Z</time></trkpt><trkpt lat="43.41274" lon="10.9607233"><ele>445.0</ele><time>2026-04-18T09:46:44.745Z</time></trkpt><trkpt lat="43.4127383" lon="10.9605767"><ele>441.75</ele><time>2026-04-18T09:46:45.748Z</time></trkpt><trkpt lat="43.41273" lon="10.9604217"><ele>438.5</ele><time>2026-04-18T09:46:46.749Z</time></trkpt><trkpt lat="43.4127433" lon="10.96027"><ele>435.25</ele><time>2026-04-18T09:46:47.743Z</time></trkpt><trkpt lat="43.4127567" lon="10.96011"><ele>432.0</ele><time>2026-04-18T09:46:48.745Z</time></trkpt><trkpt lat="43.4127683" lon="10.95994"><ele>429.5</ele><time>2026-04-18T09:46:49.743Z</time></trkpt><trkpt lat="43.4128" lon="10.9597733"><ele>427.0</ele><time>2026-04-18T09:46:50.744Z</time></trkpt><trkpt lat="43.4128217" lon="10.959605"><ele>424.5</ele><time>2026-04-18T09:46:51.746Z</time></trkpt><trkpt lat="43.4128683" lon="10.9594617"><ele>422.0</ele><time>2026-04-18T09:46:52.746Z</time></trkpt><trkpt lat="43.4129083" lon="10.9593267"><ele>420.0</ele><time>2026-04-18T09:46:53.742Z</time></trkpt><trkpt lat="43.4129217" lon="10.9591917"><ele>418.0</ele><time>2026-04-18T09:46:54.743Z</time></trkpt><trkpt lat="43.412945" lon="10.959065"><ele>416.0</ele><time>2026-04-18T09:46:55.743Z</time></trkpt><trkpt lat="43.4129433" lon="10.9589333"><ele>414.0</ele><time>2026-04-18T09:46:56.744Z</time></trkpt><trkpt lat="43.412895" lon="10.9587817"><ele>412.0</ele><time>2026-04-18T09:46:57.746Z</time></trkpt><trkpt lat="43.4128667" lon="10.95862"><ele>412.0</ele><time>2026-04-18T09:46:58.746Z</time></trkpt><trkpt lat="43.4128217" lon="10.9584483"><ele>412.0</ele><time>2026-04-18T09:46:59.75Z</time></trkpt><trkpt lat="43.4127617" lon="10.9582483"><ele>412.0</ele><time>2026-04-18T09:47:00.746Z</time></trkpt><trkpt lat="43.412725" lon="10.9580683"><ele>412.0</ele><time>2026-04-18T09:47:01.748Z</time></trkpt><trkpt lat="43.41267" lon="10.9578633"><ele>410.0</ele><time>2026-04-18T09:47:02.746Z</time></trkpt><trkpt lat="43.412625" lon="10.9576717"><ele>408.0</ele><time>2026-04-18T09:47:03.743Z</time></trkpt><trkpt lat="43.4125783" lon="10.9574933"><ele>406.0</ele><time>2026-04-18T09:47:04.742Z</time></trkpt><trkpt lat="43.4125333" lon="10.9573267"><ele>404.0</ele><time>2026-04-18T09:47:05.747Z</time></trkpt><trkpt lat="43.4125" lon="10.957165"><ele>402.0</ele><time>2026-04-18T09:47:06.742Z</time></trkpt><trkpt lat="43.4124583" lon="10.957015"><ele>400.0</ele><time>2026-04-18T09:47:07.749Z</time></trkpt><trkpt lat="43.4124167" lon="10.956885"><ele>398.0</ele><time>2026-04-18T09:47:08.745Z</time></trkpt><trkpt lat="43.4124033" lon="10.95676"><ele>396.0</ele><time>2026-04-18T09:47:09.743Z</time></trkpt><trkpt lat="43.4123833" lon="10.9566567"><ele>394.0</ele><time>2026-04-18T09:47:10.746Z</time></trkpt><trkpt lat="43.412375" lon="10.95655"><ele>393.1666666666667</ele><time>2026-04-18T09:47:11.743Z</time></trkpt><trkpt lat="43.4123767" lon="10.9564383"><ele>392.33333333333337</ele><time>2026-04-18T09:47:12.744Z</time></trkpt><trkpt lat="43.4123767" lon="10.9563267"><ele>391.5</ele><time>2026-04-18T09:47:13.741Z</time></trkpt><trkpt lat="43.4124" lon="10.9562017"><ele>390.66666666666663</ele><time>2026-04-18T09:47:14.746Z</time></trkpt><trkpt lat="43.4123967" lon="10.9560833"><ele>389.8333333333333</ele><time>2026-04-18T09:47:15.743Z</time></trkpt><trkpt lat="43.4123583" lon="10.9559733"><ele>389.0</ele><time>2026-04-18T09:47:16.741Z</time></trkpt><trkpt lat="43.4123083" lon="10.9558817"><ele>388.99999999999994</ele><time>2026-04-18T09:47:17.743Z</time></trkpt><trkpt lat="43.4122467" lon="10.9557917"><ele>389.0</ele><time>2026-04-18T09:47:18.745Z</time></trkpt><trkpt lat="43.4121817" lon="10.95572"><ele>389.0</ele><time>2026-04-18T09:47:19.743Z</time></trkpt><trkpt lat="43.412115" lon="10.95565"><ele>389.0</ele><time>2026-04-18T09:47:20.749Z</time></trkpt><trkpt lat="43.4120967" lon="10.9555667"><ele>388.99999999999994</ele><time>2026-04-18T09:47:21.749Z</time></trkpt><trkpt lat="43.4121017" lon="10.9554117"><ele>389.0</ele><time>2026-04-18T09:47:23.744Z</time></trkpt><trkpt lat="43.4121217" lon="10.9553"><ele>389.0</ele><time>2026-04-18T09:47:24.748Z</time></trkpt><trkpt lat="43.41212" lon="10.9551667"><ele>389.0</ele><time>2026-04-18T09:47:25.741Z</time></trkpt><trkpt lat="43.412115" lon="10.95501"><ele>389.0</ele><time>2026-04-18T09:47:26.743Z</time></trkpt><trkpt lat="43.412085" lon="10.9548567"><ele>389.0</ele><time>2026-04-18T09:47:27.744Z</time></trkpt><trkpt lat="43.4120617" lon="10.95471"><ele>389.0</ele><time>2026-04-18T09:47:28.74Z</time></trkpt><trkpt lat="43.412015" lon="10.9545517"><ele>391.25</ele><time>2026-04-18T09:47:29.747Z</time></trkpt><trkpt lat="43.4120117" lon="10.95439"><ele>393.5</ele><time>2026-04-18T09:47:30.748Z</time></trkpt><trkpt lat="43.41197" lon="10.954205"><ele>395.75</ele><time>2026-04-18T09:47:31.746Z</time></trkpt><trkpt lat="43.411975" lon="10.9539817"><ele>398.0</ele><time>2026-04-18T09:47:32.743Z</time></trkpt><trkpt lat="43.4119367" lon="10.953745"><ele>398.66666666666663</ele><time>2026-04-18T09:47:33.749Z</time></trkpt><trkpt lat="43.4119167" lon="10.9534867"><ele>399.33333333333337</ele><time>2026-04-18T09:47:34.749Z</time></trkpt><trkpt lat="43.4119033" lon="10.9532167"><ele>400.0</ele><time>2026-04-18T09:47:35.744Z</time></trkpt><trkpt lat="43.4118633" lon="10.9529633"><ele>401.5</ele><time>2026-04-18T09:47:36.754Z</time></trkpt><trkpt lat="43.411875" lon="10.9527417"><ele>403.0</ele><time>2026-04-18T09:47:37.75Z</time></trkpt><trkpt lat="43.41185" lon="10.952565"><ele>404.5</ele><time>2026-04-18T09:47:38.754Z</time></trkpt><trkpt lat="43.4118317" lon="10.9524117"><ele>406.0</ele><time>2026-04-18T09:47:39.745Z</time></trkpt><trkpt lat="43.4118217" lon="10.952275"><ele>407.20000000000005</ele><time>2026-04-18T09:47:40.744Z</time></trkpt><trkpt lat="43.41184" lon="10.952135"><ele>408.40000000000003</ele><time>2026-04-18T09:47:41.742Z</time></trkpt><trkpt lat="43.4118283" lon="10.952005"><ele>409.6</ele><time>2026-04-18T09:47:42.742Z</time></trkpt><trkpt lat="43.4118267" lon="10.95187"><ele>410.8</ele><time>2026-04-18T09:47:43.743Z</time></trkpt><trkpt lat="43.4118217" lon="10.9517083"><ele>412.0</ele><time>2026-04-18T09:47:44.751Z</time></trkpt><trkpt lat="43.4118" lon="10.9515417"><ele>413.0</ele><time>2026-04-18T09:47:45.749Z</time></trkpt><trkpt lat="43.4117533" lon="10.9513917"><ele>414.0</ele><time>2026-04-18T09:47:46.756Z</time></trkpt><trkpt lat="43.4117433" lon="10.9512167"><ele>415.0</ele><time>2026-04-18T09:47:47.745Z</time></trkpt><trkpt lat="43.41174" lon="10.951025"><ele>416.0</ele><time>2026-04-18T09:47:48.747Z</time></trkpt><trkpt lat="43.411695" lon="10.9509067"><ele>417.0</ele><time>2026-04-18T09:47:49.747Z</time></trkpt><trkpt lat="43.4116917" lon="10.95074"><ele>418.0</ele><time>2026-04-18T09:47:50.748Z</time></trkpt><trkpt lat="43.4116733" lon="10.95058"><ele>419.0</ele><time>2026-04-18T09:47:51.745Z</time></trkpt><trkpt lat="43.4116233" lon="10.95046"><ele>420.0</ele><time>2026-04-18T09:47:52.745Z</time></trkpt><trkpt lat="43.4115917" lon="10.9503133"><ele>420.0</ele><time>2026-04-18T09:47:53.747Z</time></trkpt><trkpt lat="43.4115617" lon="10.9501533"><ele>420.0</ele><time>2026-04-18T09:47:54.747Z</time></trkpt><trkpt lat="43.411565" lon="10.94995"><ele>420.0</ele><time>2026-04-18T09:47:55.745Z</time></trkpt><trkpt lat="43.41152" lon="10.9498317"><ele>420.0</ele><time>2026-04-18T09:47:56.762Z</time></trkpt><trkpt lat="43.41147" lon="10.9497233"><ele>420.0</ele><time>2026-04-18T09:47:57.757Z</time></trkpt><trkpt lat="43.4113783" lon="10.9493"><ele>420.0</ele><time>2026-04-18T09:48:00.683Z</time></trkpt><trkpt lat="43.41127" lon="10.9491"><ele>420.0</ele><time>2026-04-18T09:48:02.749Z</time></trkpt><trkpt lat="43.411195" lon="10.94901"><ele>420.0</ele><time>2026-04-18T09:48:03.757Z</time></trkpt><trkpt lat="43.41114" lon="10.9489367"><ele>420.0</ele><time>2026-04-18T09:48:04.743Z</time></trkpt><trkpt lat="43.4110883" lon="10.9488583"><ele>420.0</ele><time>2026-04-18T09:48:05.747Z</time></trkpt><trkpt lat="43.411035" lon="10.94876"><ele>420.0</ele><time>2026-04-18T09:48:06.743Z</time></trkpt><trkpt lat="43.410995" lon="10.9486"><ele>420.0</ele><time>2026-04-18T09:48:07.746Z</time></trkpt><trkpt lat="43.4109617" lon="10.9484283"><ele>420.0</ele><time>2026-04-18T09:48:08.745Z</time></trkpt><trkpt lat="43.4109383" lon="10.9482433"><ele>420.0</ele><time>2026-04-18T09:48:09.749Z</time></trkpt><trkpt lat="43.4109267" lon="10.9480483"><ele>420.0</ele><time>2026-04-18T09:48:10.75Z</time></trkpt><trkpt lat="43.41092" lon="10.9478733"><ele>419.5</ele><time>2026-04-18T09:48:11.747Z</time></trkpt><trkpt lat="43.4109267" lon="10.94767"><ele>419.0</ele><time>2026-04-18T09:48:12.746Z</time></trkpt><trkpt lat="43.4109483" lon="10.94747"><ele>418.5</ele><time>2026-04-18T09:48:13.746Z</time></trkpt><trkpt lat="43.4109733" lon="10.947275"><ele>418.0</ele><time>2026-04-18T09:48:14.746Z</time></trkpt><trkpt lat="43.410995" lon="10.9470617"><ele>419.0</ele><time>2026-04-18T09:48:15.747Z</time></trkpt><trkpt lat="43.4110133" lon="10.9468467"><ele>420.0</ele><time>2026-04-18T09:48:16.748Z</time></trkpt><trkpt lat="43.4110283" lon="10.9466467"><ele>421.0</ele><time>2026-04-18T09:48:17.745Z</time></trkpt><trkpt lat="43.411045" lon="10.94646"><ele>422.0</ele><time>2026-04-18T09:48:18.744Z</time></trkpt><trkpt lat="43.41106" lon="10.9462833"><ele>423.0</ele><time>2026-04-18T09:48:19.743Z</time></trkpt><trkpt lat="43.4110733" lon="10.9461133"><ele>424.0</ele><time>2026-04-18T09:48:20.745Z</time></trkpt><trkpt lat="43.4110767" lon="10.9459417"><ele>425.0</ele><time>2026-04-18T09:48:21.752Z</time></trkpt><trkpt lat="43.4110683" lon="10.94576"><ele>426.0</ele><time>2026-04-18T09:48:22.744Z</time></trkpt><trkpt lat="43.411055" lon="10.9455817"><ele>426.0</ele><time>2026-04-18T09:48:23.748Z</time></trkpt><trkpt lat="43.4110433" lon="10.9453983"><ele>426.0</ele><time>2026-04-18T09:48:24.745Z</time></trkpt><trkpt lat="43.4110017" lon="10.9452433"><ele>426.0</ele><time>2026-04-18T09:48:25.745Z</time></trkpt><trkpt lat="43.41099" lon="10.94507"><ele>426.0</ele><time>2026-04-18T09:48:26.745Z</time></trkpt><trkpt lat="43.4109783" lon="10.9449067"><ele>426.0</ele><time>2026-04-18T09:48:27.748Z</time></trkpt><trkpt lat="43.4109717" lon="10.94474"><ele>426.0</ele><time>2026-04-18T09:48:28.745Z</time></trkpt><trkpt lat="43.410965" lon="10.9445783"><ele>426.0</ele><time>2026-04-18T09:48:29.744Z</time></trkpt><trkpt lat="43.4109667" lon="10.944425"><ele>426.0</ele><time>2026-04-18T09:48:30.744Z</time></trkpt><trkpt lat="43.410965" lon="10.9442783"><ele>425.25</ele><time>2026-04-18T09:48:31.743Z</time></trkpt><trkpt lat="43.410955" lon="10.944135"><ele>424.5</ele><time>2026-04-18T09:48:32.747Z</time></trkpt><trkpt lat="43.4109317" lon="10.9439717"><ele>423.75</ele><time>2026-04-18T09:48:33.744Z</time></trkpt><trkpt lat="43.4109233" lon="10.9437867"><ele>423.0</ele><time>2026-04-18T09:48:34.744Z</time></trkpt><trkpt lat="43.4108983" lon="10.9436083"><ele>423.0</ele><time>2026-04-18T09:48:35.749Z</time></trkpt><trkpt lat="43.4109283" lon="10.9434133"><ele>423.0</ele><time>2026-04-18T09:48:36.745Z</time></trkpt><trkpt lat="43.4109233" lon="10.94324"><ele>423.0</ele><time>2026-04-18T09:48:37.75Z</time></trkpt><trkpt lat="43.4108717" lon="10.943085"><ele>423.0</ele><time>2026-04-18T09:48:38.745Z</time></trkpt><trkpt lat="43.4108583" lon="10.94291"><ele>423.0</ele><time>2026-04-18T09:48:39.744Z</time></trkpt><trkpt lat="43.41086" lon="10.9427367"><ele>423.0</ele><time>2026-04-18T09:48:40.746Z</time></trkpt><trkpt lat="43.41084" lon="10.9425667"><ele>423.0</ele><time>2026-04-18T09:48:41.745Z</time></trkpt><trkpt lat="43.410785" lon="10.942395"><ele>423.0</ele><time>2026-04-18T09:48:42.744Z</time></trkpt><trkpt lat="43.4107233" lon="10.9422233"><ele>421.75</ele><time>2026-04-18T09:48:43.744Z</time></trkpt><trkpt lat="43.4106833" lon="10.9420383"><ele>420.5</ele><time>2026-04-18T09:48:44.748Z</time></trkpt><trkpt lat="43.4106067" lon="10.941865"><ele>419.25</ele><time>2026-04-18T09:48:45.742Z</time></trkpt><trkpt lat="43.4105317" lon="10.9417"><ele>418.0</ele><time>2026-04-18T09:48:46.742Z</time></trkpt><trkpt lat="43.4104817" lon="10.9415417"><ele>415.4</ele><time>2026-04-18T09:48:47.748Z</time></trkpt><trkpt lat="43.4104633" lon="10.9413833"><ele>412.79999999999995</ele><time>2026-04-18T09:48:48.745Z</time></trkpt><trkpt lat="43.4104183" lon="10.9412433"><ele>410.2</ele><time>2026-04-18T09:48:49.747Z</time></trkpt><trkpt lat="43.4103717" lon="10.9411183"><ele>407.6</ele><time>2026-04-18T09:48:50.753Z</time></trkpt><trkpt lat="43.4103333" lon="10.94101"><ele>405.0</ele><time>2026-04-18T09:48:51.741Z</time></trkpt><trkpt lat="43.410325" lon="10.940915"><ele>404.6</ele><time>2026-04-18T09:48:52.746Z</time></trkpt><trkpt lat="43.4103167" lon="10.9408283"><ele>404.2</ele><time>2026-04-18T09:48:53.744Z</time></trkpt><trkpt lat="43.4103467" lon="10.9406733"><ele>403.79999999999995</ele><time>2026-04-18T09:48:55.744Z</time></trkpt><trkpt lat="43.41046" lon="10.9405833"><ele>403.4</ele><time>2026-04-18T09:48:57.747Z</time></trkpt><trkpt lat="43.4105283" lon="10.9405633"><ele>403.0</ele><time>2026-04-18T09:48:58.745Z</time></trkpt><trkpt lat="43.4105967" lon="10.940535"><ele>403.0</ele><time>2026-04-18T09:48:59.743Z</time></trkpt><trkpt lat="43.4106667" lon="10.9405267"><ele>403.0</ele><time>2026-04-18T09:49:00.749Z</time></trkpt><trkpt lat="43.41071" lon="10.9403583"><ele>403.0</ele><time>2026-04-18T09:49:02.747Z</time></trkpt><trkpt lat="43.4107217" lon="10.94026"><ele>403.0</ele><time>2026-04-18T09:49:03.746Z</time></trkpt><trkpt lat="43.4106967" lon="10.9399933"><ele>401.79999999999995</ele><time>2026-04-18T09:49:05.747Z</time></trkpt><trkpt lat="43.410665" lon="10.93983"><ele>400.6</ele><time>2026-04-18T09:49:06.745Z</time></trkpt><trkpt lat="43.4106517" lon="10.9396667"><ele>399.4</ele><time>2026-04-18T09:49:07.745Z</time></trkpt><trkpt lat="43.4106283" lon="10.93951"><ele>398.20000000000005</ele><time>2026-04-18T09:49:08.744Z</time></trkpt><trkpt lat="43.4106417" lon="10.9393933"><ele>397.0</ele><time>2026-04-18T09:49:09.749Z</time></trkpt><trkpt lat="43.4106767" lon="10.93929"><ele>396.0</ele><time>2026-04-18T09:49:10.742Z</time></trkpt><trkpt lat="43.4106883" lon="10.939165"><ele>395.0</ele><time>2026-04-18T09:49:11.743Z</time></trkpt><trkpt lat="43.4107017" lon="10.9390483"><ele>394.0</ele><time>2026-04-18T09:49:12.744Z</time></trkpt><trkpt lat="43.410715" lon="10.9389383"><ele>393.0</ele><time>2026-04-18T09:49:13.741Z</time></trkpt><trkpt lat="43.41072" lon="10.9388283"><ele>392.0</ele><time>2026-04-18T09:49:14.745Z</time></trkpt><trkpt lat="43.4106533" lon="10.9386667"><ele>392.0</ele><time>2026-04-18T09:49:15.746Z</time></trkpt><trkpt lat="43.4106383" lon="10.93857"><ele>392.0</ele><time>2026-04-18T09:49:16.743Z</time></trkpt><trkpt lat="43.4106" lon="10.9384467"><ele>392.0</ele><time>2026-04-18T09:49:17.75Z</time></trkpt><trkpt lat="43.4105533" lon="10.93833"><ele>392.0</ele><time>2026-04-18T09:49:18.746Z</time></trkpt><trkpt lat="43.4105017" lon="10.9382133"><ele>392.0</ele><time>2026-04-18T09:49:19.744Z</time></trkpt><trkpt lat="43.4104333" lon="10.9381317"><ele>391.16666666666663</ele><time>2026-04-18T09:49:20.75Z</time></trkpt><trkpt lat="43.4103817" lon="10.9380767"><ele>390.3333333333333</ele><time>2026-04-18T09:49:21.745Z</time></trkpt><trkpt lat="43.4103117" lon="10.9380167"><ele>389.5</ele><time>2026-04-18T09:49:22.745Z</time></trkpt><trkpt lat="43.4102083" lon="10.9379767"><ele>388.66666666666663</ele><time>2026-04-18T09:49:23.743Z</time></trkpt><trkpt lat="43.4101383" lon="10.937935"><ele>387.8333333333333</ele><time>2026-04-18T09:49:24.743Z</time></trkpt><trkpt lat="43.4100583" lon="10.9379067"><ele>387.0</ele><time>2026-04-18T09:49:25.742Z</time></trkpt><trkpt lat="43.4099817" lon="10.93786"><ele>387.0</ele><time>2026-04-18T09:49:26.743Z</time></trkpt><trkpt lat="43.409915" lon="10.9378133"><ele>387.0</ele><time>2026-04-18T09:49:27.744Z</time></trkpt><trkpt lat="43.40986" lon="10.9377667"><ele>387.0</ele><time>2026-04-18T09:49:28.741Z</time></trkpt><trkpt lat="43.4098283" lon="10.9376867"><ele>387.0</ele><time>2026-04-18T09:49:29.744Z</time></trkpt><trkpt lat="43.4098217" lon="10.9375983"><ele>387.0</ele><time>2026-04-18T09:49:30.743Z</time></trkpt><trkpt lat="43.4098" lon="10.9375083"><ele>387.0</ele><time>2026-04-18T09:49:31.745Z</time></trkpt><trkpt lat="43.4097817" lon="10.9373817"><ele>387.0</ele><time>2026-04-18T09:49:32.748Z</time></trkpt><trkpt lat="43.40977" lon="10.93724"><ele>386.3333333333333</ele><time>2026-04-18T09:49:33.749Z</time></trkpt><trkpt lat="43.4097733" lon="10.9371033"><ele>385.6666666666667</ele><time>2026-04-18T09:49:34.746Z</time></trkpt><trkpt lat="43.40977" lon="10.936975"><ele>385.0</ele><time>2026-04-18T09:49:35.747Z</time></trkpt><trkpt lat="43.4097767" lon="10.936865"><ele>384.33333333333337</ele><time>2026-04-18T09:49:36.742Z</time></trkpt><trkpt lat="43.4097967" lon="10.9367567"><ele>383.6666666666667</ele><time>2026-04-18T09:49:37.742Z</time></trkpt><trkpt lat="43.4098117" lon="10.93666"><ele>383.0</ele><time>2026-04-18T09:49:38.747Z</time></trkpt><trkpt lat="43.4098283" lon="10.9365583"><ele>381.59999999999997</ele><time>2026-04-18T09:49:39.748Z</time></trkpt><trkpt lat="43.409815" lon="10.9364583"><ele>380.2</ele><time>2026-04-18T09:49:40.744Z</time></trkpt><trkpt lat="43.4097617" lon="10.93636"><ele>378.8</ele><time>2026-04-18T09:49:41.746Z</time></trkpt><trkpt lat="43.4097067" lon="10.9362467"><ele>377.4</ele><time>2026-04-18T09:49:42.748Z</time></trkpt><trkpt lat="43.4096" lon="10.9361217"><ele>376.0</ele><time>2026-04-18T09:49:43.744Z</time></trkpt><trkpt lat="43.40948" lon="10.9359817"><ele>375.3333333333333</ele><time>2026-04-18T09:49:44.745Z</time></trkpt><trkpt lat="43.4093567" lon="10.93584"><ele>374.6666666666667</ele><time>2026-04-18T09:49:45.749Z</time></trkpt><trkpt lat="43.4092333" lon="10.935695"><ele>374.0</ele><time>2026-04-18T09:49:46.746Z</time></trkpt><trkpt lat="43.4091133" lon="10.9355867"><ele>374.0</ele><time>2026-04-18T09:49:47.743Z</time></trkpt><trkpt lat="43.40901" lon="10.9354617"><ele>374.0</ele><time>2026-04-18T09:49:48.749Z</time></trkpt><trkpt lat="43.4089117" lon="10.9353783"><ele>374.0</ele><time>2026-04-18T09:49:49.745Z</time></trkpt><trkpt lat="43.4088317" lon="10.9352633"><ele>374.0</ele><time>2026-04-18T09:49:50.744Z</time></trkpt><trkpt lat="43.4087533" lon="10.9351417"><ele>372.25</ele><time>2026-04-18T09:49:51.742Z</time></trkpt><trkpt lat="43.40873" lon="10.934955"><ele>370.5</ele><time>2026-04-18T09:49:52.743Z</time></trkpt><trkpt lat="43.4086817" lon="10.9347783"><ele>368.75</ele><time>2026-04-18T09:49:53.744Z</time></trkpt><trkpt lat="43.40863" lon="10.9345517"><ele>367.0</ele><time>2026-04-18T09:49:54.753Z</time></trkpt><trkpt lat="43.4086133" lon="10.9342533"><ele>367.0</ele><time>2026-04-18T09:49:55.753Z</time></trkpt><trkpt lat="43.4085767" lon="10.93397"><ele>367.0</ele><time>2026-04-18T09:49:56.745Z</time></trkpt><trkpt lat="43.40853" lon="10.9337017"><ele>367.0</ele><time>2026-04-18T09:49:57.745Z</time></trkpt><trkpt lat="43.40851" lon="10.9334683"><ele>367.0</ele><time>2026-04-18T09:49:58.747Z</time></trkpt><trkpt lat="43.4084933" lon="10.933275"><ele>367.0</ele><time>2026-04-18T09:49:59.746Z</time></trkpt><trkpt lat="43.40847" lon="10.9330883"><ele>367.0</ele><time>2026-04-18T09:50:00.747Z</time></trkpt><trkpt lat="43.4084233" lon="10.9328967"><ele>367.0</ele><time>2026-04-18T09:50:01.749Z</time></trkpt><trkpt lat="43.4083283" lon="10.9326967"><ele>366.3333333333333</ele><time>2026-04-18T09:50:02.746Z</time></trkpt><trkpt lat="43.4082467" lon="10.9325017"><ele>365.6666666666667</ele><time>2026-04-18T09:50:03.746Z</time></trkpt><trkpt lat="43.4081533" lon="10.932325"><ele>365.0</ele><time>2026-04-18T09:50:04.747Z</time></trkpt><trkpt lat="43.408085" lon="10.932155"><ele>365.0</ele><time>2026-04-18T09:50:05.742Z</time></trkpt><trkpt lat="43.408045" lon="10.93197"><ele>365.0</ele><time>2026-04-18T09:50:06.748Z</time></trkpt><trkpt lat="43.4080067" lon="10.9317917"><ele>365.0</ele><time>2026-04-18T09:50:07.743Z</time></trkpt><trkpt lat="43.407955" lon="10.9316317"><ele>365.0</ele><time>2026-04-18T09:50:08.748Z</time></trkpt><trkpt lat="43.4079017" lon="10.9314867"><ele>365.25</ele><time>2026-04-18T09:50:09.742Z</time></trkpt><trkpt lat="43.4078417" lon="10.9313583"><ele>365.5</ele><time>2026-04-18T09:50:10.749Z</time></trkpt><trkpt lat="43.4077717" lon="10.9312333"><ele>365.75</ele><time>2026-04-18T09:50:11.746Z</time></trkpt><trkpt lat="43.4076967" lon="10.931075"><ele>366.0</ele><time>2026-04-18T09:50:12.743Z</time></trkpt><trkpt lat="43.40762" lon="10.9309117"><ele>367.0</ele><time>2026-04-18T09:50:13.744Z</time></trkpt><trkpt lat="43.4075517" lon="10.930765"><ele>368.0</ele><time>2026-04-18T09:50:14.746Z</time></trkpt><trkpt lat="43.4074833" lon="10.9306467"><ele>369.0</ele><time>2026-04-18T09:50:15.743Z</time></trkpt><trkpt lat="43.4074317" lon="10.9305433"><ele>370.0</ele><time>2026-04-18T09:50:16.74Z</time></trkpt><trkpt lat="43.4073883" lon="10.9304483"><ele>371.0</ele><time>2026-04-18T09:50:17.742Z</time></trkpt><trkpt lat="43.407365" lon="10.93034"><ele>371.0</ele><time>2026-04-18T09:50:18.745Z</time></trkpt><trkpt lat="43.4073483" lon="10.9302117"><ele>371.0</ele><time>2026-04-18T09:50:19.749Z</time></trkpt><trkpt lat="43.40736" lon="10.930015"><ele>371.0</ele><time>2026-04-18T09:50:20.751Z</time></trkpt><trkpt lat="43.407365" lon="10.9297683"><ele>371.0</ele><time>2026-04-18T09:50:21.743Z</time></trkpt><trkpt lat="43.4073483" lon="10.92951"><ele>371.0</ele><time>2026-04-18T09:50:22.743Z</time></trkpt><trkpt lat="43.4073333" lon="10.929245"><ele>371.0</ele><time>2026-04-18T09:50:23.743Z</time></trkpt><trkpt lat="43.4073483" lon="10.9290283"><ele>371.0</ele><time>2026-04-18T09:50:24.747Z</time></trkpt><trkpt lat="43.40733" lon="10.9288317"><ele>370.5</ele><time>2026-04-18T09:50:25.748Z</time></trkpt><trkpt lat="43.4073067" lon="10.9286533"><ele>370.0</ele><time>2026-04-18T09:50:26.744Z</time></trkpt><trkpt lat="43.40728" lon="10.928515"><ele>369.5</ele><time>2026-04-18T09:50:27.741Z</time></trkpt><trkpt lat="43.4072567" lon="10.9283567"><ele>369.0</ele><time>2026-04-18T09:50:28.745Z</time></trkpt><trkpt lat="43.4071667" lon="10.9282517"><ele>368.25</ele><time>2026-04-18T09:50:29.739Z</time></trkpt><trkpt lat="43.4070683" lon="10.9281317"><ele>367.5</ele><time>2026-04-18T09:50:30.745Z</time></trkpt><trkpt lat="43.40696" lon="10.9279833"><ele>366.75</ele><time>2026-04-18T09:50:31.741Z</time></trkpt><trkpt lat="43.4068517" lon="10.9278533"><ele>366.0</ele><time>2026-04-18T09:50:32.746Z</time></trkpt><trkpt lat="43.406765" lon="10.9277467"><ele>366.0</ele><time>2026-04-18T09:50:33.743Z</time></trkpt><trkpt lat="43.4066883" lon="10.9276367"><ele>366.0</ele><time>2026-04-18T09:50:34.748Z</time></trkpt><trkpt lat="43.4066367" lon="10.9274933"><ele>366.0</ele><time>2026-04-18T09:50:35.746Z</time></trkpt><trkpt lat="43.4065833" lon="10.927315"><ele>366.0</ele><time>2026-04-18T09:50:36.744Z</time></trkpt><trkpt lat="43.4065183" lon="10.9271067"><ele>369.3333333333333</ele><time>2026-04-18T09:50:37.75Z</time></trkpt><trkpt lat="43.4064617" lon="10.926895"><ele>372.66666666666663</ele><time>2026-04-18T09:50:38.742Z</time></trkpt><trkpt lat="43.4063833" lon="10.9267217"><ele>376.0</ele><time>2026-04-18T09:50:39.74Z</time></trkpt><trkpt lat="43.4062883" lon="10.9265683"><ele>376.66666666666663</ele><time>2026-04-18T09:50:40.742Z</time></trkpt><trkpt lat="43.4061783" lon="10.9264183"><ele>377.3333333333333</ele><time>2026-04-18T09:50:41.74Z</time></trkpt><trkpt lat="43.4060583" lon="10.926265"><ele>378.0</ele><time>2026-04-18T09:50:42.739Z</time></trkpt><trkpt lat="43.40591" lon="10.9261267"><ele>378.0</ele><time>2026-04-18T09:50:43.743Z</time></trkpt><trkpt lat="43.4057533" lon="10.925945"><ele>378.0</ele><time>2026-04-18T09:50:44.74Z</time></trkpt><trkpt lat="43.4056033" lon="10.92571"><ele>378.0</ele><time>2026-04-18T09:50:45.748Z</time></trkpt><trkpt lat="43.40544" lon="10.92545"><ele>378.5</ele><time>2026-04-18T09:50:46.747Z</time></trkpt><trkpt lat="43.4052617" lon="10.9251983"><ele>379.0</ele><time>2026-04-18T09:50:47.748Z</time></trkpt><trkpt lat="43.40507" lon="10.92501"><ele>379.0</ele><time>2026-04-18T09:50:48.75Z</time></trkpt><trkpt lat="43.4048883" lon="10.92485"><ele>379.0</ele><time>2026-04-18T09:50:49.743Z</time></trkpt><trkpt lat="43.4047117" lon="10.924695"><ele>379.0</ele><time>2026-04-18T09:50:50.745Z</time></trkpt><trkpt lat="43.4045383" lon="10.924525"><ele>379.3333333333333</ele><time>2026-04-18T09:50:51.746Z</time></trkpt><trkpt lat="43.404365" lon="10.924345"><ele>379.6666666666667</ele><time>2026-04-18T09:50:52.746Z</time></trkpt><trkpt lat="43.404185" lon="10.9241933"><ele>380.0</ele><time>2026-04-18T09:50:53.752Z</time></trkpt><trkpt lat="43.4040233" lon="10.9240633"><ele>380.0</ele><time>2026-04-18T09:50:54.746Z</time></trkpt><trkpt lat="43.403895" lon="10.9239367"><ele>380.0</ele><time>2026-04-18T09:50:55.742Z</time></trkpt><trkpt lat="43.4037933" lon="10.9237867"><ele>380.0</ele><time>2026-04-18T09:50:56.743Z</time></trkpt><trkpt lat="43.403705" lon="10.923645"><ele>380.0</ele><time>2026-04-18T09:50:57.741Z</time></trkpt><trkpt lat="43.403635" lon="10.923485"><ele>380.33333333333337</ele><time>2026-04-18T09:50:58.742Z</time></trkpt><trkpt lat="43.40356" lon="10.9233183"><ele>380.6666666666667</ele><time>2026-04-18T09:50:59.744Z</time></trkpt><trkpt lat="43.4035183" lon="10.9231"><ele>381.0</ele><time>2026-04-18T09:51:00.744Z</time></trkpt><trkpt lat="43.40346" lon="10.9228967"><ele>381.0</ele><time>2026-04-18T09:51:01.746Z</time></trkpt><trkpt lat="43.403405" lon="10.9227033"><ele>381.0</ele><time>2026-04-18T09:51:02.741Z</time></trkpt><trkpt lat="43.403345" lon="10.92252"><ele>381.0</ele><time>2026-04-18T09:51:03.743Z</time></trkpt><trkpt lat="43.40329" lon="10.9223383"><ele>381.0</ele><time>2026-04-18T09:51:04.743Z</time></trkpt><trkpt lat="43.40324" lon="10.922155"><ele>379.75</ele><time>2026-04-18T09:51:05.742Z</time></trkpt><trkpt lat="43.4031983" lon="10.9219733"><ele>378.5</ele><time>2026-04-18T09:51:06.742Z</time></trkpt><trkpt lat="43.40315" lon="10.9217967"><ele>377.25</ele><time>2026-04-18T09:51:07.744Z</time></trkpt><trkpt lat="43.4031067" lon="10.9216283"><ele>376.0</ele><time>2026-04-18T09:51:08.747Z</time></trkpt><trkpt lat="43.40307" lon="10.92146"><ele>375.0</ele><time>2026-04-18T09:51:09.749Z</time></trkpt><trkpt lat="43.4030533" lon="10.9212867"><ele>374.0</ele><time>2026-04-18T09:51:10.741Z</time></trkpt><trkpt lat="43.40307" lon="10.9211117"><ele>373.0</ele><time>2026-04-18T09:51:11.742Z</time></trkpt><trkpt lat="43.403115" lon="10.9209267"><ele>372.0</ele><time>2026-04-18T09:51:12.749Z</time></trkpt><trkpt lat="43.4031567" lon="10.9207267"><ele>370.6666666666667</ele><time>2026-04-18T09:51:13.745Z</time></trkpt><trkpt lat="43.4032217" lon="10.9205367"><ele>369.33333333333337</ele><time>2026-04-18T09:51:14.743Z</time></trkpt><trkpt lat="43.4032983" lon="10.9203583"><ele>368.0</ele><time>2026-04-18T09:51:15.743Z</time></trkpt><trkpt lat="43.4033567" lon="10.9201733"><ele>367.5</ele><time>2026-04-18T09:51:16.744Z</time></trkpt><trkpt lat="43.4034267" lon="10.9199917"><ele>367.0</ele><time>2026-04-18T09:51:17.742Z</time></trkpt><trkpt lat="43.4034967" lon="10.9198117"><ele>366.5</ele><time>2026-04-18T09:51:18.746Z</time></trkpt><trkpt lat="43.40356" lon="10.919625"><ele>366.0</ele><time>2026-04-18T09:51:19.741Z</time></trkpt><trkpt lat="43.4036183" lon="10.9194383"><ele>366.0</ele><time>2026-04-18T09:51:20.747Z</time></trkpt><trkpt lat="43.4036683" lon="10.9192583"><ele>366.0</ele><time>2026-04-18T09:51:21.745Z</time></trkpt><trkpt lat="43.40371" lon="10.9190783"><ele>366.0</ele><time>2026-04-18T09:51:22.745Z</time></trkpt><trkpt lat="43.403745" lon="10.9189033"><ele>366.0</ele><time>2026-04-18T09:51:23.749Z</time></trkpt><trkpt lat="43.4037833" lon="10.9187267"><ele>365.0</ele><time>2026-04-18T09:51:24.746Z</time></trkpt><trkpt lat="43.4037833" lon="10.918555"><ele>364.0</ele><time>2026-04-18T09:51:25.746Z</time></trkpt><trkpt lat="43.4037783" lon="10.9183883"><ele>363.0</ele><time>2026-04-18T09:51:26.742Z</time></trkpt><trkpt lat="43.4037417" lon="10.9182367"><ele>362.0</ele><time>2026-04-18T09:51:27.745Z</time></trkpt><trkpt lat="43.4037017" lon="10.9180933"><ele>360.5</ele><time>2026-04-18T09:51:28.745Z</time></trkpt><trkpt lat="43.4036267" lon="10.917955"><ele>359.0</ele><time>2026-04-18T09:51:29.745Z</time></trkpt><trkpt lat="43.4035317" lon="10.917795"><ele>357.5</ele><time>2026-04-18T09:51:30.74Z</time></trkpt><trkpt lat="43.4034333" lon="10.9176183"><ele>356.0</ele><time>2026-04-18T09:51:31.741Z</time></trkpt><trkpt lat="43.4033683" lon="10.9174233"><ele>354.25</ele><time>2026-04-18T09:51:32.745Z</time></trkpt><trkpt lat="43.40335" lon="10.9172317"><ele>352.5</ele><time>2026-04-18T09:51:33.743Z</time></trkpt><trkpt lat="43.40331" lon="10.9170633"><ele>350.75</ele><time>2026-04-18T09:51:34.74Z</time></trkpt><trkpt lat="43.403265" lon="10.9169167"><ele>349.0</ele><time>2026-04-18T09:51:35.743Z</time></trkpt><trkpt lat="43.4032" lon="10.9167767"><ele>348.66666666666663</ele><time>2026-04-18T09:51:36.742Z</time></trkpt><trkpt lat="43.4031083" lon="10.916645"><ele>348.3333333333333</ele><time>2026-04-18T09:51:37.745Z</time></trkpt><trkpt lat="43.4030117" lon="10.916495"><ele>348.0</ele><time>2026-04-18T09:51:38.744Z</time></trkpt><trkpt lat="43.4028633" lon="10.91635"><ele>348.0</ele><time>2026-04-18T09:51:39.744Z</time></trkpt><trkpt lat="43.4027233" lon="10.9162083"><ele>348.0</ele><time>2026-04-18T09:51:40.743Z</time></trkpt><trkpt lat="43.40262" lon="10.9160667"><ele>348.0</ele><time>2026-04-18T09:51:41.745Z</time></trkpt><trkpt lat="43.40253" lon="10.91595"><ele>348.0</ele><time>2026-04-18T09:51:42.745Z</time></trkpt><trkpt lat="43.40243" lon="10.915855"><ele>346.3333333333333</ele><time>2026-04-18T09:51:43.742Z</time></trkpt><trkpt lat="43.4023417" lon="10.91578"><ele>344.6666666666667</ele><time>2026-04-18T09:51:44.742Z</time></trkpt><trkpt lat="43.4022733" lon="10.9157217"><ele>343.0</ele><time>2026-04-18T09:51:45.74Z</time></trkpt><trkpt lat="43.4022" lon="10.9156183"><ele>341.33333333333337</ele><time>2026-04-18T09:51:47.742Z</time></trkpt><trkpt lat="43.4021933" lon="10.9155117"><ele>339.6666666666667</ele><time>2026-04-18T09:51:49.745Z</time></trkpt><trkpt lat="43.4022517" lon="10.9154317"><ele>338.0</ele><time>2026-04-18T09:51:51.746Z</time></trkpt><trkpt lat="43.4023533" lon="10.9153867"><ele>338.0</ele><time>2026-04-18T09:51:53.748Z</time></trkpt><trkpt lat="43.4024133" lon="10.915355"><ele>338.0</ele><time>2026-04-18T09:51:54.753Z</time></trkpt><trkpt lat="43.4024767" lon="10.9153267"><ele>338.0</ele><time>2026-04-18T09:51:55.749Z</time></trkpt><trkpt lat="43.4025417" lon="10.9153117"><ele>338.0</ele><time>2026-04-18T09:51:56.745Z</time></trkpt><trkpt lat="43.402605" lon="10.9152517"><ele>338.0</ele><time>2026-04-18T09:51:57.748Z</time></trkpt><trkpt lat="43.40266" lon="10.9151683"><ele>338.0</ele><time>2026-04-18T09:51:58.746Z</time></trkpt><trkpt lat="43.4027083" lon="10.9150733"><ele>338.0</ele><time>2026-04-18T09:51:59.742Z</time></trkpt><trkpt lat="43.4027417" lon="10.9149633"><ele>336.0</ele><time>2026-04-18T09:52:00.741Z</time></trkpt><trkpt lat="43.4027617" lon="10.9148433"><ele>334.0</ele><time>2026-04-18T09:52:01.743Z</time></trkpt><trkpt lat="43.402785" lon="10.91472"><ele>332.0</ele><time>2026-04-18T09:52:02.743Z</time></trkpt><trkpt lat="43.4028167" lon="10.914575"><ele>330.0</ele><time>2026-04-18T09:52:03.744Z</time></trkpt><trkpt lat="43.40285" lon="10.914415"><ele>328.0</ele><time>2026-04-18T09:52:04.744Z</time></trkpt><trkpt lat="43.4028883" lon="10.9142467"><ele>326.0</ele><time>2026-04-18T09:52:05.751Z</time></trkpt><trkpt lat="43.4029217" lon="10.9140683"><ele>324.0</ele><time>2026-04-18T09:52:06.747Z</time></trkpt><trkpt lat="43.4029467" lon="10.91388"><ele>322.0</ele><time>2026-04-18T09:52:07.745Z</time></trkpt><trkpt lat="43.4029583" lon="10.9136733"><ele>320.0</ele><time>2026-04-18T09:52:08.753Z</time></trkpt><trkpt lat="43.402985" lon="10.913475"><ele>320.0</ele><time>2026-04-18T09:52:09.747Z</time></trkpt><trkpt lat="43.4029883" lon="10.91326"><ele>320.0</ele><time>2026-04-18T09:52:10.744Z</time></trkpt><trkpt lat="43.403005" lon="10.9130517"><ele>320.0</ele><time>2026-04-18T09:52:11.745Z</time></trkpt><trkpt lat="43.4029883" lon="10.9128333"><ele>320.0</ele><time>2026-04-18T09:52:12.745Z</time></trkpt><trkpt lat="43.4029583" lon="10.9125967"><ele>320.0</ele><time>2026-04-18T09:52:13.741Z</time></trkpt><trkpt lat="43.4029317" lon="10.9123367"><ele>320.0</ele><time>2026-04-18T09:52:14.744Z</time></trkpt><trkpt lat="43.4029067" lon="10.9120517"><ele>321.0</ele><time>2026-04-18T09:52:15.744Z</time></trkpt><trkpt lat="43.4028867" lon="10.91175"><ele>322.0</ele><time>2026-04-18T09:52:16.744Z</time></trkpt><trkpt lat="43.402865" lon="10.9114367"><ele>323.0</ele><time>2026-04-18T09:52:17.751Z</time></trkpt><trkpt lat="43.40283" lon="10.911135"><ele>327.0</ele><time>2026-04-18T09:52:18.742Z</time></trkpt><trkpt lat="43.40277" lon="10.910855"><ele>331.0</ele><time>2026-04-18T09:52:19.748Z</time></trkpt><trkpt lat="43.4026967" lon="10.910635"><ele>335.0</ele><time>2026-04-18T09:52:20.746Z</time></trkpt><trkpt lat="43.4026433" lon="10.9104183"><ele>335.0</ele><time>2026-04-18T09:52:21.747Z</time></trkpt><trkpt lat="43.4025467" lon="10.9102383"><ele>335.0</ele><time>2026-04-18T09:52:22.745Z</time></trkpt><trkpt lat="43.402455" lon="10.9100383"><ele>335.0</ele><time>2026-04-18T09:52:23.744Z</time></trkpt><trkpt lat="43.4023833" lon="10.9098"><ele>337.6666666666667</ele><time>2026-04-18T09:52:24.746Z</time></trkpt><trkpt lat="43.4022733" lon="10.9095917"><ele>340.3333333333333</ele><time>2026-04-18T09:52:25.74Z</time></trkpt><trkpt lat="43.4022083" lon="10.9093267"><ele>343.0</ele><time>2026-04-18T09:52:26.745Z</time></trkpt><trkpt lat="43.4021333" lon="10.9091017"><ele>343.75</ele><time>2026-04-18T09:52:27.762Z</time></trkpt><trkpt lat="43.4020617" lon="10.9089117"><ele>344.5</ele><time>2026-04-18T09:52:28.745Z</time></trkpt><trkpt lat="43.4019883" lon="10.908765"><ele>345.25</ele><time>2026-04-18T09:52:29.74Z</time></trkpt><trkpt lat="43.401935" lon="10.9086283"><ele>346.0</ele><time>2026-04-18T09:52:30.744Z</time></trkpt><trkpt lat="43.4018883" lon="10.90852"><ele>346.0</ele><time>2026-04-18T09:52:31.743Z</time></trkpt><trkpt lat="43.4018233" lon="10.9084617"><ele>346.0</ele><time>2026-04-18T09:52:32.747Z</time></trkpt><trkpt lat="43.4017433" lon="10.9084433"><ele>346.0</ele><time>2026-04-18T09:52:33.741Z</time></trkpt><trkpt lat="43.4016467" lon="10.908445"><ele>346.0</ele><time>2026-04-18T09:52:34.746Z</time></trkpt><trkpt lat="43.40151" lon="10.9084867"><ele>346.0</ele><time>2026-04-18T09:52:35.744Z</time></trkpt><trkpt lat="43.401355" lon="10.9084883"><ele>346.0</ele><time>2026-04-18T09:52:36.747Z</time></trkpt><trkpt lat="43.4011917" lon="10.9084967"><ele>346.0</ele><time>2026-04-18T09:52:37.745Z</time></trkpt><trkpt lat="43.40104" lon="10.90853"><ele>346.0</ele><time>2026-04-18T09:52:38.747Z</time></trkpt><trkpt lat="43.4008917" lon="10.90854"><ele>346.0</ele><time>2026-04-18T09:52:39.746Z</time></trkpt><trkpt lat="43.400755" lon="10.9085767"><ele>346.0</ele><time>2026-04-18T09:52:40.743Z</time></trkpt><trkpt lat="43.40063" lon="10.9086067"><ele>346.0</ele><time>2026-04-18T09:52:41.744Z</time></trkpt><trkpt lat="43.4005233" lon="10.9086167"><ele>346.0</ele><time>2026-04-18T09:52:42.748Z</time></trkpt><trkpt lat="43.4004283" lon="10.908655"><ele>346.3333333333333</ele><time>2026-04-18T09:52:43.745Z</time></trkpt><trkpt lat="43.4003467" lon="10.9086733"><ele>346.66666666666663</ele><time>2026-04-18T09:52:44.744Z</time></trkpt><trkpt lat="43.4002733" lon="10.9086733"><ele>347.0</ele><time>2026-04-18T09:52:45.744Z</time></trkpt><trkpt lat="43.400205" lon="10.908635"><ele>347.3333333333333</ele><time>2026-04-18T09:52:46.742Z</time></trkpt><trkpt lat="43.40012" lon="10.9085267"><ele>347.6666666666667</ele><time>2026-04-18T09:52:48.749Z</time></trkpt><trkpt lat="43.400095" lon="10.908445"><ele>348.0</ele><time>2026-04-18T09:52:49.745Z</time></trkpt><trkpt lat="43.4000583" lon="10.9083517"><ele>348.5</ele><time>2026-04-18T09:52:50.742Z</time></trkpt><trkpt lat="43.4000117" lon="10.9082583"><ele>349.0</ele><time>2026-04-18T09:52:51.742Z</time></trkpt><trkpt lat="43.3999833" lon="10.9081467"><ele>349.5</ele><time>2026-04-18T09:52:52.742Z</time></trkpt><trkpt lat="43.3999533" lon="10.9080367"><ele>350.0</ele><time>2026-04-18T09:52:53.745Z</time></trkpt><trkpt lat="43.39994" lon="10.90792"><ele>350.5</ele><time>2026-04-18T09:52:54.747Z</time></trkpt><trkpt lat="43.399945" lon="10.9077917"><ele>351.0</ele><time>2026-04-18T09:52:55.748Z</time></trkpt><trkpt lat="43.399985" lon="10.90763"><ele>343.0</ele><time>2026-04-18T09:52:56.752Z</time></trkpt><trkpt lat="43.4022083" lon="10.9093267"><ele>344.0</ele><time>2026-04-18T09:52:26.745Z</time></trkpt><trkpt lat="43.4021333" lon="10.9091017"><ele>345.0</ele><time>2026-04-18T09:52:27.762Z</time></trkpt><trkpt lat="43.4020617" lon="10.9089117"><ele>346.0</ele><time>2026-04-18T09:52:28.745Z</time></trkpt><trkpt lat="43.4019883" lon="10.908765"><ele>346.0</ele><time>2026-04-18T09:52:29.74Z</time></trkpt><trkpt lat="43.401935" lon="10.9086283"><ele>346.0</ele><time>2026-04-18T09:52:30.744Z</time></trkpt><trkpt lat="43.4018883" lon="10.90852"><ele>346.0</ele><time>2026-04-18T09:52:31.743Z</time></trkpt><trkpt lat="43.4018233" lon="10.9084617"><ele>346.0</ele><time>2026-04-18T09:52:32.747Z</time></trkpt><trkpt lat="43.4017433" lon="10.9084433"><ele>346.0</ele><time>2026-04-18T09:52:33.741Z</time></trkpt><trkpt lat="43.4016467" lon="10.908445"><ele>346.0</ele><time>2026-04-18T09:52:34.746Z</time></trkpt><trkpt lat="43.40151" lon="10.9084867"><ele>346.0</ele><time>2026-04-18T09:52:35.744Z</time></trkpt><trkpt lat="43.401355" lon="10.9084883"><ele>346.0</ele><time>2026-04-18T09:52:36.747Z</time></trkpt><trkpt lat="43.4011917" lon="10.9084967"><ele>346.0</ele><time>2026-04-18T09:52:37.745Z</time></trkpt><trkpt lat="43.40104" lon="10.90853"><ele>346.0</ele><time>2026-04-18T09:52:38.747Z</time></trkpt><trkpt lat="43.4008917" lon="10.90854"><ele>346.0</ele><time>2026-04-18T09:52:39.746Z</time></trkpt><trkpt lat="43.400755" lon="10.9085767"><ele>346.0</ele><time>2026-04-18T09:52:40.743Z</time></trkpt><trkpt lat="43.40063" lon="10.9086067"><ele>346.0</ele><time>2026-04-18T09:52:41.744Z</time></trkpt><trkpt lat="43.4005233" lon="10.9086167"><ele>346.0</ele><time>2026-04-18T09:52:42.748Z</time></trkpt><trkpt lat="43.4004283" lon="10.908655"><ele>346.0</ele><time>2026-04-18T09:52:43.745Z</time></trkpt><trkpt lat="43.4003467" lon="10.9086733"><ele>346.0</ele><time>2026-04-18T09:52:44.744Z</time></trkpt><trkpt lat="43.4002733" lon="10.9086733"><ele>346.0</ele><time>2026-04-18T09:52:45.744Z</time></trkpt><trkpt lat="43.400205" lon="10.908635"><ele>346.0</ele><time>2026-04-18T09:52:46.742Z</time></trkpt><trkpt lat="43.40012" lon="10.9085267"><ele>346.3333333333333</ele><time>2026-04-18T09:52:48.749Z</time></trkpt><trkpt lat="43.400095" lon="10.908445"><ele>346.66666666666663</ele><time>2026-04-18T09:52:49.745Z</time></trkpt><trkpt lat="43.4000583" lon="10.9083517"><ele>347.0</ele><time>2026-04-18T09:52:50.742Z</time></trkpt><trkpt lat="43.4000117" lon="10.9082583"><ele>347.3333333333333</ele><time>2026-04-18T09:52:51.742Z</time></trkpt><trkpt lat="43.3999833" lon="10.9081467"><ele>347.6666666666667</ele><time>2026-04-18T09:52:52.742Z</time></trkpt><trkpt lat="43.3999533" lon="10.9080367"><ele>348.0</ele><time>2026-04-18T09:52:53.745Z</time></trkpt><trkpt lat="43.39994" lon="10.90792"><ele>348.75</ele><time>2026-04-18T09:52:54.747Z</time></trkpt><trkpt lat="43.399945" lon="10.9077917"><ele>349.5</ele><time>2026-04-18T09:52:55.748Z</time></trkpt><trkpt lat="43.399985" lon="10.90763"><ele>350.25</ele><time>2026-04-18T09:52:56.752Z</time></trkpt><trkpt lat="43.400025" lon="10.90747"><ele>351.0</ele><time>2026-04-18T09:52:57.747Z</time></trkpt><trkpt lat="43.4000667" lon="10.9073083"><ele>349.25</ele><time>2026-04-18T09:52:58.747Z</time></trkpt><trkpt lat="43.4001" lon="10.9071433"><ele>347.5</ele><time>2026-04-18T09:52:59.746Z</time></trkpt><trkpt lat="43.40013" lon="10.906985"><ele>345.75</ele><time>2026-04-18T09:53:00.743Z</time></trkpt><trkpt lat="43.400165" lon="10.906835"><ele>344.0</ele><time>2026-04-18T09:53:01.745Z</time></trkpt><trkpt lat="43.400205" lon="10.9066883"><ele>343.0</ele><time>2026-04-18T09:53:02.744Z</time></trkpt><trkpt lat="43.4002233" lon="10.90655"><ele>342.0</ele><time>2026-04-18T09:53:03.747Z</time></trkpt><trkpt lat="43.4002567" lon="10.9064217"><ele>341.0</ele><time>2026-04-18T09:53:04.743Z</time></trkpt><trkpt lat="43.4002633" lon="10.9062867"><ele>340.0</ele><time>2026-04-18T09:53:05.744Z</time></trkpt><trkpt lat="43.4002583" lon="10.9061483"><ele>339.0</ele><time>2026-04-18T09:53:06.77Z</time></trkpt><trkpt lat="43.4002183" lon="10.9059917"><ele>339.5</ele><time>2026-04-18T09:53:07.765Z</time></trkpt><trkpt lat="43.40016" lon="10.9058267"><ele>340.0</ele><time>2026-04-18T09:53:08.747Z</time></trkpt><trkpt lat="43.400095" lon="10.9056833"><ele>340.5</ele><time>2026-04-18T09:53:09.748Z</time></trkpt><trkpt lat="43.400035" lon="10.905535"><ele>341.0</ele><time>2026-04-18T09:53:10.747Z</time></trkpt><trkpt lat="43.3999767" lon="10.9053883"><ele>341.0</ele><time>2026-04-18T09:53:11.747Z</time></trkpt><trkpt lat="43.399935" lon="10.9052533"><ele>341.0</ele><time>2026-04-18T09:53:12.743Z</time></trkpt><trkpt lat="43.399895" lon="10.9051317"><ele>341.0</ele><time>2026-04-18T09:53:13.746Z</time></trkpt><trkpt lat="43.39985" lon="10.9050417"><ele>341.0</ele><time>2026-04-18T09:53:14.744Z</time></trkpt><trkpt lat="43.3998267" lon="10.904955"><ele>341.0</ele><time>2026-04-18T09:53:15.746Z</time></trkpt><trkpt lat="43.39977" lon="10.9048783"><ele>341.0</ele><time>2026-04-18T09:53:17.746Z</time></trkpt><trkpt lat="43.3996933" lon="10.904945"><ele>341.0</ele><time>2026-04-18T09:53:21.758Z</time></trkpt><trkpt lat="43.39966" lon="10.9051083"><ele>341.0</ele><time>2026-04-18T09:53:23.744Z</time></trkpt><trkpt lat="43.3996567" lon="10.90521"><ele>341.0</ele><time>2026-04-18T09:53:24.758Z</time></trkpt><trkpt lat="43.3996767" lon="10.9053083"><ele>341.0</ele><time>2026-04-18T09:53:25.746Z</time></trkpt><trkpt lat="43.3996967" lon="10.9053983"><ele>341.0</ele><time>2026-04-18T09:53:26.742Z</time></trkpt><trkpt lat="43.3997033" lon="10.9055517"><ele>335.6</ele><time>2026-04-18T09:53:28.74Z</time></trkpt><trkpt lat="43.39962" lon="10.905595"><ele>330.20000000000005</ele><time>2026-04-18T09:53:30.748Z</time></trkpt><trkpt lat="43.3995267" lon="10.9055233"><ele>324.79999999999995</ele><time>2026-04-18T09:53:31.747Z</time></trkpt><trkpt lat="43.3994633" lon="10.9054217"><ele>319.4</ele><time>2026-04-18T09:53:32.749Z</time></trkpt><trkpt lat="43.399415" lon="10.9053167"><ele>314.0</ele><time>2026-04-18T09:53:33.744Z</time></trkpt><trkpt lat="43.399365" lon="10.905225"><ele>314.0</ele><time>2026-04-18T09:53:34.747Z</time></trkpt><trkpt lat="43.399325" lon="10.90512"><ele>314.0</ele><time>2026-04-18T09:53:35.747Z</time></trkpt><trkpt lat="43.3992867" lon="10.9049883"><ele>314.0</ele><time>2026-04-18T09:53:36.743Z</time></trkpt><trkpt lat="43.3992483" lon="10.9049"><ele>314.0</ele><time>2026-04-18T09:53:37.744Z</time></trkpt><trkpt lat="43.3992283" lon="10.9048033"><ele>314.0</ele><time>2026-04-18T09:53:38.751Z</time></trkpt><trkpt lat="43.39923" lon="10.904695"><ele>314.0</ele><time>2026-04-18T09:53:39.744Z</time></trkpt><trkpt lat="43.39925" lon="10.9045833"><ele>314.4</ele><time>2026-04-18T09:53:40.742Z</time></trkpt><trkpt lat="43.3993" lon="10.9044667"><ele>314.79999999999995</ele><time>2026-04-18T09:53:41.743Z</time></trkpt><trkpt lat="43.39937" lon="10.9043717"><ele>315.20000000000005</ele><time>2026-04-18T09:53:42.749Z</time></trkpt><trkpt lat="43.399455" lon="10.904285"><ele>315.6</ele><time>2026-04-18T09:53:43.744Z</time></trkpt><trkpt lat="43.3995017" lon="10.904185"><ele>316.0</ele><time>2026-04-18T09:53:44.744Z</time></trkpt><trkpt lat="43.399495" lon="10.9040917"><ele>315.0</ele><time>2026-04-18T09:53:45.742Z</time></trkpt><trkpt lat="43.3995433" lon="10.9040017"><ele>314.0</ele><time>2026-04-18T09:53:47.743Z</time></trkpt><trkpt lat="43.3994417" lon="10.9039767"><ele>313.0</ele><time>2026-04-18T09:53:50.744Z</time></trkpt><trkpt lat="43.3993317" lon="10.90407"><ele>312.0</ele><time>2026-04-18T09:53:52.742Z</time></trkpt><trkpt lat="43.399265" lon="10.90414"><ele>311.0</ele><time>2026-04-18T09:53:53.743Z</time></trkpt><trkpt lat="43.399185" lon="10.9042383"><ele>312.0</ele><time>2026-04-18T09:53:54.743Z</time></trkpt><trkpt lat="43.3991" lon="10.90434"><ele>313.0</ele><time>2026-04-18T09:53:55.742Z</time></trkpt><trkpt lat="43.39903" lon="10.9044517"><ele>314.0</ele><time>2026-04-18T09:53:56.741Z</time></trkpt><trkpt lat="43.39896" lon="10.904555"><ele>315.0</ele><time>2026-04-18T09:53:57.742Z</time></trkpt><trkpt lat="43.3989017" lon="10.90469"><ele>316.0</ele><time>2026-04-18T09:53:58.747Z</time></trkpt><trkpt lat="43.3988617" lon="10.90486"><ele>311.25</ele><time>2026-04-18T09:53:59.745Z</time></trkpt><trkpt lat="43.3988033" lon="10.9050167"><ele>306.5</ele><time>2026-04-18T09:54:00.749Z</time></trkpt><trkpt lat="43.3987383" lon="10.9051583"><ele>301.75</ele><time>2026-04-18T09:54:01.749Z</time></trkpt><trkpt lat="43.3986817" lon="10.90529"><ele>297.0</ele><time>2026-04-18T09:54:02.742Z</time></trkpt><trkpt lat="43.3986233" lon="10.9054067"><ele>297.0</ele><time>2026-04-18T09:54:03.744Z</time></trkpt><trkpt lat="43.398585" lon="10.9055067"><ele>297.0</ele><time>2026-04-18T09:54:04.745Z</time></trkpt><trkpt lat="43.3985383" lon="10.905595"><ele>297.0</ele><time>2026-04-18T09:54:05.743Z</time></trkpt><trkpt lat="43.3984317" lon="10.90567"><ele>297.0</ele><time>2026-04-18T09:54:07.744Z</time></trkpt><trkpt lat="43.3983567" lon="10.9056117"><ele>297.0</ele><time>2026-04-18T09:54:08.747Z</time></trkpt><trkpt lat="43.3983033" lon="10.9055067"><ele>297.0</ele><time>2026-04-18T09:54:09.747Z</time></trkpt><trkpt lat="43.398265" lon="10.9053817"><ele>297.0</ele><time>2026-04-18T09:54:10.744Z</time></trkpt><trkpt lat="43.39824" lon="10.9052333"><ele>297.0</ele><time>2026-04-18T09:54:11.742Z</time></trkpt><trkpt lat="43.398215" lon="10.9051033"><ele>297.0</ele><time>2026-04-18T09:54:12.744Z</time></trkpt><trkpt lat="43.3981817" lon="10.904995"><ele>297.0</ele><time>2026-04-18T09:54:13.743Z</time></trkpt><trkpt lat="43.3981583" lon="10.9048817"><ele>296.5</ele><time>2026-04-18T09:54:14.742Z</time></trkpt><trkpt lat="43.39817" lon="10.9047533"><ele>296.0</ele><time>2026-04-18T09:54:15.742Z</time></trkpt><trkpt lat="43.3981883" lon="10.904625"><ele>295.5</ele><time>2026-04-18T09:54:16.744Z</time></trkpt><trkpt lat="43.398215" lon="10.9044917"><ele>295.0</ele><time>2026-04-18T09:54:17.747Z</time></trkpt><trkpt lat="43.398215" lon="10.9043767"><ele>294.5</ele><time>2026-04-18T09:54:18.754Z</time></trkpt><trkpt lat="43.39824" lon="10.9042883"><ele>294.0</ele><time>2026-04-18T09:54:19.745Z</time></trkpt><trkpt lat="43.3982633" lon="10.9041633"><ele>294.0</ele><time>2026-04-18T09:54:21.746Z</time></trkpt><trkpt lat="43.3982" lon="10.9041083"><ele>294.0</ele><time>2026-04-18T09:54:23.744Z</time></trkpt><trkpt lat="43.3981383" lon="10.9041383"><ele>294.0</ele><time>2026-04-18T09:54:24.745Z</time></trkpt><trkpt lat="43.398075" lon="10.9042183"><ele>294.0</ele><time>2026-04-18T09:54:25.743Z</time></trkpt><trkpt lat="43.3980083" lon="10.9043133"><ele>294.0</ele><time>2026-04-18T09:54:26.742Z</time></trkpt><trkpt lat="43.397945" lon="10.9044317"><ele>294.0</ele><time>2026-04-18T09:54:27.743Z</time></trkpt><trkpt lat="43.39788" lon="10.90455"><ele>290.5</ele><time>2026-04-18T09:54:28.753Z</time></trkpt><trkpt lat="43.3978167" lon="10.9046817"><ele>287.0</ele><time>2026-04-18T09:54:29.743Z</time></trkpt><trkpt lat="43.3977567" lon="10.90483"><ele>283.5</ele><time>2026-04-18T09:54:30.745Z</time></trkpt><trkpt lat="43.397695" lon="10.9049683"><ele>280.0</ele><time>2026-04-18T09:54:31.743Z</time></trkpt><trkpt lat="43.39764" lon="10.9051167"><ele>280.0</ele><time>2026-04-18T09:54:32.749Z</time></trkpt><trkpt lat="43.3975917" lon="10.905265"><ele>280.0</ele><time>2026-04-18T09:54:33.746Z</time></trkpt><trkpt lat="43.3975417" lon="10.9054"><ele>280.0</ele><time>2026-04-18T09:54:34.744Z</time></trkpt><trkpt lat="43.3974983" lon="10.905535"><ele>280.0</ele><time>2026-04-18T09:54:35.742Z</time></trkpt><trkpt lat="43.3974633" lon="10.9056583"><ele>280.0</ele><time>2026-04-18T09:54:36.741Z</time></trkpt><trkpt lat="43.3974333" lon="10.9057683"><ele>280.0</ele><time>2026-04-18T09:54:37.742Z</time></trkpt><trkpt lat="43.397395" lon="10.9058567"><ele>280.0</ele><time>2026-04-18T09:54:38.748Z</time></trkpt><trkpt lat="43.3973" lon="10.9059083"><ele>280.0</ele><time>2026-04-18T09:54:40.748Z</time></trkpt><trkpt lat="43.3972033" lon="10.90582"><ele>280.0</ele><time>2026-04-18T09:54:42.746Z</time></trkpt><trkpt lat="43.3971617" lon="10.905715"><ele>280.0</ele><time>2026-04-18T09:54:43.745Z</time></trkpt><trkpt lat="43.3971133" lon="10.90559"><ele>276.8</ele><time>2026-04-18T09:54:44.744Z</time></trkpt><trkpt lat="43.39707" lon="10.9054467"><ele>273.6</ele><time>2026-04-18T09:54:45.74Z</time></trkpt><trkpt lat="43.3970233" lon="10.9053333"><ele>270.4</ele><time>2026-04-18T09:54:46.747Z</time></trkpt><trkpt lat="43.3970033" lon="10.9052467"><ele>267.2</ele><time>2026-04-18T09:54:47.742Z</time></trkpt><trkpt lat="43.3969517" lon="10.9051867"><ele>264.0</ele><time>2026-04-18T09:54:49.746Z</time></trkpt><trkpt lat="43.3968433" lon="10.9053283"><ele>264.0</ele><time>2026-04-18T09:54:51.745Z</time></trkpt><trkpt lat="43.3967967" lon="10.9054083"><ele>264.0</ele><time>2026-04-18T09:54:52.743Z</time></trkpt><trkpt lat="43.3967517" lon="10.9054917"><ele>264.0</ele><time>2026-04-18T09:54:53.744Z</time></trkpt><trkpt lat="43.3967067" lon="10.90564"><ele>264.0</ele><time>2026-04-18T09:54:54.745Z</time></trkpt><trkpt lat="43.3966333" lon="10.9057183"><ele>264.0</ele><time>2026-04-18T09:54:55.743Z</time></trkpt><trkpt lat="43.3965" lon="10.905705"><ele>264.0</ele><time>2026-04-18T09:54:57.744Z</time></trkpt><trkpt lat="43.3964367" lon="10.9056567"><ele>264.0</ele><time>2026-04-18T09:54:58.742Z</time></trkpt><trkpt lat="43.3964017" lon="10.905555"><ele>264.0</ele><time>2026-04-18T09:54:59.74Z</time></trkpt><trkpt lat="43.3963817" lon="10.90545"><ele>264.0</ele><time>2026-04-18T09:55:00.742Z</time></trkpt><trkpt lat="43.3963983" lon="10.905335"><ele>264.0</ele><time>2026-04-18T09:55:01.742Z</time></trkpt><trkpt lat="43.3964433" lon="10.9052183"><ele>264.0</ele><time>2026-04-18T09:55:02.747Z</time></trkpt><trkpt lat="43.3964683" lon="10.905055"><ele>264.1666666666667</ele><time>2026-04-18T09:55:03.74Z</time></trkpt><trkpt lat="43.3965067" lon="10.9049267"><ele>264.3333333333333</ele><time>2026-04-18T09:55:04.746Z</time></trkpt><trkpt lat="43.3965183" lon="10.9047817"><ele>264.5</ele><time>2026-04-18T09:55:05.742Z</time></trkpt><trkpt lat="43.39653" lon="10.9046683"><ele>264.66666666666663</ele><time>2026-04-18T09:55:06.746Z</time></trkpt><trkpt lat="43.3965483" lon="10.90456"><ele>264.8333333333333</ele><time>2026-04-18T09:55:07.743Z</time></trkpt><trkpt lat="43.3965483" lon="10.9044567"><ele>265.0</ele><time>2026-04-18T09:55:08.741Z</time></trkpt><trkpt lat="43.3964833" lon="10.9042933"><ele>264.0</ele><time>2026-04-18T09:55:09.746Z</time></trkpt><trkpt lat="43.3964067" lon="10.9041417"><ele>263.0</ele><time>2026-04-18T09:55:10.742Z</time></trkpt><trkpt lat="43.3963717" lon="10.9040017"><ele>262.0</ele><time>2026-04-18T09:55:11.744Z</time></trkpt><trkpt lat="43.3963383" lon="10.9038483"><ele>261.0</ele><time>2026-04-18T09:55:12.744Z</time></trkpt><trkpt lat="43.396335" lon="10.9037117"><ele>258.8333333333333</ele><time>2026-04-18T09:55:13.746Z</time></trkpt><trkpt lat="43.3963283" lon="10.9035933"><ele>256.6666666666667</ele><time>2026-04-18T09:55:14.745Z</time></trkpt><trkpt lat="43.3963167" lon="10.9034667"><ele>254.5</ele><time>2026-04-18T09:55:15.743Z</time></trkpt><trkpt lat="43.39632" lon="10.903345"><ele>252.33333333333334</ele><time>2026-04-18T09:55:16.744Z</time></trkpt><trkpt lat="43.39633" lon="10.903225"><ele>250.16666666666669</ele><time>2026-04-18T09:55:17.741Z</time></trkpt><trkpt lat="43.3963433" lon="10.9031"><ele>248.0</ele><time>2026-04-18T09:55:18.742Z</time></trkpt><trkpt lat="43.39637" lon="10.90299"><ele>248.0</ele><time>2026-04-18T09:55:19.741Z</time></trkpt><trkpt lat="43.3964183" lon="10.9029033"><ele>248.0</ele><time>2026-04-18T09:55:20.742Z</time></trkpt><trkpt lat="43.3964783" lon="10.9028383"><ele>248.0</ele><time>2026-04-18T09:55:21.743Z</time></trkpt><trkpt lat="43.396545" lon="10.9027883"><ele>248.0</ele><time>2026-04-18T09:55:22.748Z</time></trkpt><trkpt lat="43.3966" lon="10.9027317"><ele>248.0</ele><time>2026-04-18T09:55:23.748Z</time></trkpt><trkpt lat="43.396645" lon="10.9025333"><ele>246.66666666666669</ele><time>2026-04-18T09:55:26.746Z</time></trkpt><trkpt lat="43.3965783" lon="10.9024783"><ele>245.33333333333334</ele><time>2026-04-18T09:55:27.747Z</time></trkpt><trkpt lat="43.3965017" lon="10.9024583"><ele>244.0</ele><time>2026-04-18T09:55:28.744Z</time></trkpt><trkpt lat="43.3964033" lon="10.9024717"><ele>242.66666666666669</ele><time>2026-04-18T09:55:29.742Z</time></trkpt><trkpt lat="43.3963083" lon="10.9025167"><ele>241.33333333333334</ele><time>2026-04-18T09:55:30.745Z</time></trkpt><trkpt lat="43.3962267" lon="10.90257"><ele>240.0</ele><time>2026-04-18T09:55:31.741Z</time></trkpt><trkpt lat="43.3961517" lon="10.9026583"><ele>238.75</ele><time>2026-04-18T09:55:32.745Z</time></trkpt><trkpt lat="43.39608" lon="10.9027517"><ele>237.5</ele><time>2026-04-18T09:55:33.745Z</time></trkpt><trkpt lat="43.3960133" lon="10.9028583"><ele>236.25</ele><time>2026-04-18T09:55:34.744Z</time></trkpt><trkpt lat="43.3959617" lon="10.90297"><ele>235.0</ele><time>2026-04-18T09:55:35.743Z</time></trkpt><trkpt lat="43.3964367" lon="10.9056567"><ele>240.8</ele><time>2026-04-18T09:54:58.742Z</time></trkpt><trkpt lat="43.3964017" lon="10.905555"><ele>246.6</ele><time>2026-04-18T09:54:59.74Z</time></trkpt><trkpt lat="43.3963817" lon="10.90545"><ele>252.39999999999998</ele><time>2026-04-18T09:55:00.742Z</time></trkpt><trkpt lat="43.3963983" lon="10.905335"><ele>258.2</ele><time>2026-04-18T09:55:01.742Z</time></trkpt><trkpt lat="43.3964433" lon="10.9052183"><ele>264.0</ele><time>2026-04-18T09:55:02.747Z</time></trkpt><trkpt lat="43.3964683" lon="10.905055"><ele>264.1666666666667</ele><time>2026-04-18T09:55:03.74Z</time></trkpt><trkpt lat="43.3965067" lon="10.9049267"><ele>264.3333333333333</ele><time>2026-04-18T09:55:04.746Z</time></trkpt><trkpt lat="43.3965183" lon="10.9047817"><ele>264.5</ele><time>2026-04-18T09:55:05.742Z</time></trkpt><trkpt lat="43.39653" lon="10.9046683"><ele>264.66666666666663</ele><time>2026-04-18T09:55:06.746Z</time></trkpt><trkpt lat="43.3965483" lon="10.90456"><ele>264.8333333333333</ele><time>2026-04-18T09:55:07.743Z</time></trkpt><trkpt lat="43.3965483" lon="10.9044567"><ele>265.0</ele><time>2026-04-18T09:55:08.741Z</time></trkpt><trkpt lat="43.3964833" lon="10.9042933"><ele>264.0</ele><time>2026-04-18T09:55:09.746Z</time></trkpt><trkpt lat="43.3964067" lon="10.9041417"><ele>263.0</ele><time>2026-04-18T09:55:10.742Z</time></trkpt><trkpt lat="43.3963717" lon="10.9040017"><ele>262.0</ele><time>2026-04-18T09:55:11.744Z</time></trkpt><trkpt lat="43.3963383" lon="10.9038483"><ele>261.0</ele><time>2026-04-18T09:55:12.744Z</time></trkpt><trkpt lat="43.396335" lon="10.9037117"><ele>258.8333333333333</ele><time>2026-04-18T09:55:13.746Z</time></trkpt><trkpt lat="43.3963283" lon="10.9035933"><ele>256.6666666666667</ele><time>2026-04-18T09:55:14.745Z</time></trkpt><trkpt lat="43.3963167" lon="10.9034667"><ele>254.5</ele><time>2026-04-18T09:55:15.743Z</time></trkpt><trkpt lat="43.39632" lon="10.903345"><ele>252.33333333333334</ele><time>2026-04-18T09:55:16.744Z</time></trkpt><trkpt lat="43.39633" lon="10.903225"><ele>250.16666666666669</ele><time>2026-04-18T09:55:17.741Z</time></trkpt><trkpt lat="43.3963433" lon="10.9031"><ele>248.0</ele><time>2026-04-18T09:55:18.742Z</time></trkpt><trkpt lat="43.39637" lon="10.90299"><ele>248.0</ele><time>2026-04-18T09:55:19.741Z</time></trkpt><trkpt lat="43.3964183" lon="10.9029033"><ele>248.0</ele><time>2026-04-18T09:55:20.742Z</time></trkpt><trkpt lat="43.3964783" lon="10.9028383"><ele>248.0</ele><time>2026-04-18T09:55:21.743Z</time></trkpt><trkpt lat="43.396545" lon="10.9027883"><ele>248.0</ele><time>2026-04-18T09:55:22.748Z</time></trkpt><trkpt lat="43.3966" lon="10.9027317"><ele>248.0</ele><time>2026-04-18T09:55:23.748Z</time></trkpt><trkpt lat="43.396645" lon="10.9025333"><ele>246.66666666666669</ele><time>2026-04-18T09:55:26.746Z</time></trkpt><trkpt lat="43.3965783" lon="10.9024783"><ele>245.33333333333334</ele><time>2026-04-18T09:55:27.747Z</time></trkpt><trkpt lat="43.3965017" lon="10.9024583"><ele>244.0</ele><time>2026-04-18T09:55:28.744Z</time></trkpt><trkpt lat="43.3964033" lon="10.9024717"><ele>242.66666666666669</ele><time>2026-04-18T09:55:29.742Z</time></trkpt><trkpt lat="43.3963083" lon="10.9025167"><ele>241.33333333333334</ele><time>2026-04-18T09:55:30.745Z</time></trkpt><trkpt lat="43.3962267" lon="10.90257"><ele>240.0</ele><time>2026-04-18T09:55:31.741Z</time></trkpt><trkpt lat="43.3961517" lon="10.9026583"><ele>239.0</ele><time>2026-04-18T09:55:32.745Z</time></trkpt><trkpt lat="43.39608" lon="10.9027517"><ele>238.0</ele><time>2026-04-18T09:55:33.745Z</time></trkpt><trkpt lat="43.3960133" lon="10.9028583"><ele>237.0</ele><time>2026-04-18T09:55:34.744Z</time></trkpt><trkpt lat="43.3959617" lon="10.90297"><ele>236.0</ele><time>2026-04-18T09:55:35.743Z</time></trkpt><trkpt lat="43.3959" lon="10.9030617"><ele>235.0</ele><time>2026-04-18T09:55:36.744Z</time></trkpt><trkpt lat="43.3958483" lon="10.9031467"><ele>234.99999999999997</ele><time>2026-04-18T09:55:37.743Z</time></trkpt><trkpt lat="43.39581" lon="10.90325"><ele>235.0</ele><time>2026-04-18T09:55:38.745Z</time></trkpt><trkpt lat="43.3957867" lon="10.9033683"><ele>235.0</ele><time>2026-04-18T09:55:39.744Z</time></trkpt><trkpt lat="43.3957717" lon="10.9034767"><ele>235.0</ele><time>2026-04-18T09:55:40.744Z</time></trkpt><trkpt lat="43.3957667" lon="10.9035867"><ele>234.99999999999997</ele><time>2026-04-18T09:55:41.748Z</time></trkpt><trkpt lat="43.39577" lon="10.903685"><ele>235.0</ele><time>2026-04-18T09:55:42.747Z</time></trkpt><trkpt lat="43.3957317" lon="10.9038217"><ele>234.4</ele><time>2026-04-18T09:55:44.748Z</time></trkpt><trkpt lat="43.3956617" lon="10.903855"><ele>233.8</ele><time>2026-04-18T09:55:46.746Z</time></trkpt><trkpt lat="43.3955933" lon="10.9037283"><ele>233.2</ele><time>2026-04-18T09:55:48.742Z</time></trkpt><trkpt lat="43.3955533" lon="10.903605"><ele>232.6</ele><time>2026-04-18T09:55:49.743Z</time></trkpt><trkpt lat="43.395535" lon="10.9034217"><ele>232.0</ele><time>2026-04-18T09:55:50.743Z</time></trkpt><trkpt lat="43.3954967" lon="10.903235"><ele>232.0</ele><time>2026-04-18T09:55:51.739Z</time></trkpt><trkpt lat="43.3954817" lon="10.9030567"><ele>232.0</ele><time>2026-04-18T09:55:52.744Z</time></trkpt><trkpt lat="43.3954817" lon="10.9028983"><ele>232.0</ele><time>2026-04-18T09:55:53.742Z</time></trkpt><trkpt lat="43.3954867" lon="10.9027717"><ele>232.0</ele><time>2026-04-18T09:55:54.743Z</time></trkpt><trkpt lat="43.395495" lon="10.9026683"><ele>232.0</ele><time>2026-04-18T09:55:55.741Z</time></trkpt><trkpt lat="43.3954967" lon="10.9025633"><ele>232.0</ele><time>2026-04-18T09:55:56.746Z</time></trkpt><trkpt lat="43.395375" lon="10.9025033"><ele>232.0</ele><time>2026-04-18T09:55:58.744Z</time></trkpt><trkpt lat="43.3952683" lon="10.9025367"><ele>232.0</ele><time>2026-04-18T09:55:59.743Z</time></trkpt><trkpt lat="43.3951633" lon="10.90257"><ele>232.0</ele><time>2026-04-18T09:56:00.742Z</time></trkpt><trkpt lat="43.3950583" lon="10.9025917"><ele>231.49999999999997</ele><time>2026-04-18T09:56:01.741Z</time></trkpt><trkpt lat="43.3949733" lon="10.902565"><ele>231.0</ele><time>2026-04-18T09:56:02.744Z</time></trkpt><trkpt lat="43.394895" lon="10.9025233"><ele>230.5</ele><time>2026-04-18T09:56:03.742Z</time></trkpt><trkpt lat="43.3948283" lon="10.9024833"><ele>230.0</ele><time>2026-04-18T09:56:04.74Z</time></trkpt><trkpt lat="43.3947833" lon="10.902355"><ele>229.49999999999997</ele><time>2026-04-18T09:56:06.743Z</time></trkpt><trkpt lat="43.39481" lon="10.902275"><ele>229.0</ele><time>2026-04-18T09:56:07.75Z</time></trkpt><trkpt lat="43.3948517" lon="10.9021767"><ele>229.0</ele><time>2026-04-18T09:56:08.746Z</time></trkpt><trkpt lat="43.3949117" lon="10.9020383"><ele>229.0</ele><time>2026-04-18T09:56:09.742Z</time></trkpt><trkpt lat="43.3949933" lon="10.9018567"><ele>229.0</ele><time>2026-04-18T09:56:10.746Z</time></trkpt><trkpt lat="43.3950633" lon="10.9016767"><ele>229.0</ele><time>2026-04-18T09:56:11.745Z</time></trkpt><trkpt lat="43.395125" lon="10.9015117"><ele>229.2</ele><time>2026-04-18T09:56:12.742Z</time></trkpt><trkpt lat="43.39518" lon="10.9013767"><ele>229.39999999999998</ele><time>2026-04-18T09:56:13.743Z</time></trkpt><trkpt lat="43.395195" lon="10.901225"><ele>229.6</ele><time>2026-04-18T09:56:14.743Z</time></trkpt><trkpt lat="43.3952033" lon="10.9010783"><ele>229.8</ele><time>2026-04-18T09:56:15.741Z</time></trkpt><trkpt lat="43.3952083" lon="10.9009267"><ele>230.0</ele><time>2026-04-18T09:56:16.748Z</time></trkpt><trkpt lat="43.3952067" lon="10.9007717"><ele>231.75</ele><time>2026-04-18T09:56:17.747Z</time></trkpt><trkpt lat="43.39522" lon="10.900625"><ele>233.5</ele><time>2026-04-18T09:56:18.746Z</time></trkpt><trkpt lat="43.395265" lon="10.90048"><ele>235.25</ele><time>2026-04-18T09:56:19.747Z</time></trkpt><trkpt lat="43.3953033" lon="10.90031"><ele>237.0</ele><time>2026-04-18T09:56:20.745Z</time></trkpt><trkpt lat="43.3953283" lon="10.900105"><ele>239.5</ele><time>2026-04-18T09:56:21.744Z</time></trkpt><trkpt lat="43.39535" lon="10.8998983"><ele>242.0</ele><time>2026-04-18T09:56:22.741Z</time></trkpt><trkpt lat="43.39539" lon="10.899715"><ele>244.5</ele><time>2026-04-18T09:56:23.745Z</time></trkpt><trkpt lat="43.39543" lon="10.8995533"><ele>247.0</ele><time>2026-04-18T09:56:24.742Z</time></trkpt><trkpt lat="43.3954683" lon="10.8994167"><ele>245.99999999999997</ele><time>2026-04-18T09:56:25.744Z</time></trkpt><trkpt lat="43.3955183" lon="10.89932"><ele>245.0</ele><time>2026-04-18T09:56:26.744Z</time></trkpt><trkpt lat="43.395585" lon="10.8992533"><ele>244.0</ele><time>2026-04-18T09:56:27.742Z</time></trkpt><trkpt lat="43.3956367" lon="10.89917"><ele>243.0</ele><time>2026-04-18T09:56:28.745Z</time></trkpt><trkpt lat="43.395685" lon="10.8990767"><ele>241.99999999999997</ele><time>2026-04-18T09:56:29.744Z</time></trkpt><trkpt lat="43.3957383" lon="10.8989983"><ele>241.0</ele><time>2026-04-18T09:56:30.741Z</time></trkpt><trkpt lat="43.3957833" lon="10.8989117"><ele>240.99999999999997</ele><time>2026-04-18T09:56:31.745Z</time></trkpt><trkpt lat="43.39583" lon="10.8988383"><ele>241.0</ele><time>2026-04-18T09:56:32.745Z</time></trkpt><trkpt lat="43.395875" lon="10.8987733"><ele>241.0</ele><time>2026-04-18T09:56:33.741Z</time></trkpt><trkpt lat="43.3959217" lon="10.8987033"><ele>241.0</ele><time>2026-04-18T09:56:34.74Z</time></trkpt><trkpt lat="43.3959567" lon="10.8986067"><ele>240.99999999999997</ele><time>2026-04-18T09:56:35.743Z</time></trkpt><trkpt lat="43.396" lon="10.8984967"><ele>241.0</ele><time>2026-04-18T09:56:36.748Z</time></trkpt><trkpt lat="43.3960283" lon="10.8983667"><ele>241.20000000000002</ele><time>2026-04-18T09:56:37.743Z</time></trkpt><trkpt lat="43.39607" lon="10.8982517"><ele>241.40000000000003</ele><time>2026-04-18T09:56:38.747Z</time></trkpt><trkpt lat="43.39613" lon="10.898155"><ele>241.6</ele><time>2026-04-18T09:56:39.745Z</time></trkpt><trkpt lat="43.396185" lon="10.898075"><ele>241.8</ele><time>2026-04-18T09:56:40.742Z</time></trkpt><trkpt lat="43.3962467" lon="10.897995"><ele>242.0</ele><time>2026-04-18T09:56:41.747Z</time></trkpt><trkpt lat="43.3963533" lon="10.8979383"><ele>242.0</ele><time>2026-04-18T09:56:42.75Z</time></trkpt><trkpt lat="43.396455" lon="10.8978633"><ele>242.0</ele><time>2026-04-18T09:56:43.74Z</time></trkpt><trkpt lat="43.3965417" lon="10.897765"><ele>242.0</ele><time>2026-04-18T09:56:44.741Z</time></trkpt><trkpt lat="43.3966183" lon="10.897675"><ele>242.0</ele><time>2026-04-18T09:56:45.745Z</time></trkpt><trkpt lat="43.3966817" lon="10.8975883"><ele>242.0</ele><time>2026-04-18T09:56:46.743Z</time></trkpt><trkpt lat="43.3967317" lon="10.897505"><ele>244.8</ele><time>2026-04-18T09:56:47.747Z</time></trkpt><trkpt lat="43.3967733" lon="10.8974133"><ele>247.6</ele><time>2026-04-18T09:56:48.743Z</time></trkpt><trkpt lat="43.396815" lon="10.8972933"><ele>250.40000000000003</ele><time>2026-04-18T09:56:49.74Z</time></trkpt><trkpt lat="43.3968317" lon="10.8971133"><ele>253.20000000000002</ele><time>2026-04-18T09:56:50.745Z</time></trkpt><trkpt lat="43.3968833" lon="10.8969533"><ele>256.0</ele><time>2026-04-18T09:56:51.745Z</time></trkpt><trkpt lat="43.396945" lon="10.89679"><ele>258.75</ele><time>2026-04-18T09:56:52.745Z</time></trkpt><trkpt lat="43.3969967" lon="10.8966267"><ele>261.5</ele><time>2026-04-18T09:56:53.74Z</time></trkpt><trkpt lat="43.39704" lon="10.8964583"><ele>264.25</ele><time>2026-04-18T09:56:54.744Z</time></trkpt><trkpt lat="43.39709" lon="10.896285"><ele>267.0</ele><time>2026-04-18T09:56:55.747Z</time></trkpt><trkpt lat="43.3971467" lon="10.8961283"><ele>265.5</ele><time>2026-04-18T09:56:56.748Z</time></trkpt><trkpt lat="43.39721" lon="10.8959717"><ele>264.0</ele><time>2026-04-18T09:56:57.741Z</time></trkpt><trkpt lat="43.39726" lon="10.89581"><ele>262.5</ele><time>2026-04-18T09:56:58.749Z</time></trkpt><trkpt lat="43.3972833" lon="10.89564"><ele>261.0</ele><time>2026-04-18T09:56:59.744Z</time></trkpt><trkpt lat="43.3973167" lon="10.8954767"><ele>261.0</ele><time>2026-04-18T09:57:00.744Z</time></trkpt><trkpt lat="43.3973517" lon="10.8953183"><ele>261.0</ele><time>2026-04-18T09:57:01.742Z</time></trkpt><trkpt lat="43.3974067" lon="10.89519"><ele>261.0</ele><time>2026-04-18T09:57:02.745Z</time></trkpt><trkpt lat="43.3974617" lon="10.8950717"><ele>261.0</ele><time>2026-04-18T09:57:03.743Z</time></trkpt><trkpt lat="43.3975267" lon="10.894955"><ele>261.0</ele><time>2026-04-18T09:57:04.747Z</time></trkpt><trkpt lat="43.3976083" lon="10.894845"><ele>260.25</ele><time>2026-04-18T09:57:05.744Z</time></trkpt><trkpt lat="43.39772" lon="10.8947467"><ele>259.5</ele><time>2026-04-18T09:57:06.747Z</time></trkpt><trkpt lat="43.3978317" lon="10.89466"><ele>258.75</ele><time>2026-04-18T09:57:07.748Z</time></trkpt><trkpt lat="43.3979317" lon="10.8945683"><ele>258.0</ele><time>2026-04-18T09:57:08.747Z</time></trkpt><trkpt lat="43.398025" lon="10.8944767"><ele>258.0</ele><time>2026-04-18T09:57:09.746Z</time></trkpt><trkpt lat="43.3981133" lon="10.8943867"><ele>258.0</ele><time>2026-04-18T09:57:10.744Z</time></trkpt><trkpt lat="43.3981867" lon="10.894295"><ele>258.0</ele><time>2026-04-18T09:57:11.745Z</time></trkpt><trkpt lat="43.39825" lon="10.8941867"><ele>258.0</ele><time>2026-04-18T09:57:12.745Z</time></trkpt><trkpt lat="43.3983083" lon="10.8940717"><ele>258.0</ele><time>2026-04-18T09:57:13.749Z</time></trkpt><trkpt lat="43.3983617" lon="10.8939517"><ele>260.6666666666667</ele><time>2026-04-18T09:57:14.748Z</time></trkpt><trkpt lat="43.398425" lon="10.8938717"><ele>263.3333333333333</ele><time>2026-04-18T09:57:15.747Z</time></trkpt><trkpt lat="43.39849" lon="10.8937917"><ele>266.0</ele><time>2026-04-18T09:57:16.746Z</time></trkpt><trkpt lat="43.398555" lon="10.89371"><ele>268.66666666666663</ele><time>2026-04-18T09:57:17.744Z</time></trkpt><trkpt lat="43.3986183" lon="10.89363"><ele>271.3333333333333</ele><time>2026-04-18T09:57:18.746Z</time></trkpt><trkpt lat="43.3986783" lon="10.8935433"><ele>274.0</ele><time>2026-04-18T09:57:19.745Z</time></trkpt><trkpt lat="43.3987417" lon="10.89346"><ele>275.0</ele><time>2026-04-18T09:57:20.745Z</time></trkpt><trkpt lat="43.3988083" lon="10.89338"><ele>276.0</ele><time>2026-04-18T09:57:21.746Z</time></trkpt><trkpt lat="43.398885" lon="10.8933117"><ele>277.0</ele><time>2026-04-18T09:57:22.74Z</time></trkpt><trkpt lat="43.3989633" lon="10.89326"><ele>278.0</ele><time>2026-04-18T09:57:23.742Z</time></trkpt><trkpt lat="43.3990383" lon="10.89323"><ele>279.0</ele><time>2026-04-18T09:57:24.744Z</time></trkpt><trkpt lat="43.3991117" lon="10.8931967"><ele>280.0</ele><time>2026-04-18T09:57:25.746Z</time></trkpt><trkpt lat="43.3991817" lon="10.89316"><ele>280.0</ele><time>2026-04-18T09:57:26.745Z</time></trkpt><trkpt lat="43.3992467" lon="10.8931367"><ele>280.0</ele><time>2026-04-18T09:57:27.747Z</time></trkpt><trkpt lat="43.399315" lon="10.8931467"><ele>280.0</ele><time>2026-04-18T09:57:28.747Z</time></trkpt><trkpt lat="43.3993817" lon="10.8931683"><ele>280.0</ele><time>2026-04-18T09:57:29.741Z</time></trkpt><trkpt lat="43.3994917" lon="10.893135"><ele>280.0</ele><time>2026-04-18T09:57:31.747Z</time></trkpt><trkpt lat="43.3995917" lon="10.8930467"><ele>280.0</ele><time>2026-04-18T09:57:33.742Z</time></trkpt><trkpt lat="43.3996567" lon="10.89292"><ele>280.0</ele><time>2026-04-18T09:57:35.746Z</time></trkpt><trkpt lat="43.3996783" lon="10.8928333"><ele>280.0</ele><time>2026-04-18T09:57:37.747Z</time></trkpt><trkpt lat="43.39966" lon="10.892745"><ele>280.0</ele><time>2026-04-18T09:57:40.741Z</time></trkpt><trkpt lat="43.3995683" lon="10.8928033"><ele>280.0</ele><time>2026-04-18T09:57:43.744Z</time></trkpt><trkpt lat="43.3995067" lon="10.892895"><ele>280.0</ele><time>2026-04-18T09:57:44.745Z</time></trkpt><trkpt lat="43.3994367" lon="10.8929717"><ele>280.0</ele><time>2026-04-18T09:57:45.749Z</time></trkpt><trkpt lat="43.39934" lon="10.8929817"><ele>280.0</ele><time>2026-04-18T09:57:46.747Z</time></trkpt><trkpt lat="43.3992033" lon="10.8929833"><ele>280.0</ele><time>2026-04-18T09:57:47.746Z</time></trkpt><trkpt lat="43.3990567" lon="10.892985"><ele>280.0</ele><time>2026-04-18T09:57:48.745Z</time></trkpt><trkpt lat="43.3989083" lon="10.893"><ele>280.0</ele><time>2026-04-18T09:57:49.743Z</time></trkpt><trkpt lat="43.398765" lon="10.893015"><ele>283.5</ele><time>2026-04-18T09:57:50.744Z</time></trkpt><trkpt lat="43.3986333" lon="10.89305"><ele>287.0</ele><time>2026-04-18T09:57:51.743Z</time></trkpt><trkpt lat="43.3985083" lon="10.8930967"><ele>290.5</ele><time>2026-04-18T09:57:52.742Z</time></trkpt><trkpt lat="43.3983867" lon="10.8931617"><ele>294.0</ele><time>2026-04-18T09:57:53.746Z</time></trkpt><trkpt lat="43.3982633" lon="10.8932233"><ele>294.0</ele><time>2026-04-18T09:57:54.745Z</time></trkpt><trkpt lat="43.39813" lon="10.8932783"><ele>294.0</ele><time>2026-04-18T09:57:55.745Z</time></trkpt><trkpt lat="43.39798" lon="10.89331"><ele>294.0</ele><time>2026-04-18T09:57:56.744Z</time></trkpt><trkpt lat="43.39781" lon="10.8933117"><ele>297.0</ele><time>2026-04-18T09:57:57.745Z</time></trkpt><trkpt lat="43.3976283" lon="10.893305"><ele>300.0</ele><time>2026-04-18T09:57:58.743Z</time></trkpt><trkpt lat="43.3974417" lon="10.8932883"><ele>303.0</ele><time>2026-04-18T09:57:59.745Z</time></trkpt><trkpt lat="43.3972517" lon="10.8932867"><ele>301.0</ele><time>2026-04-18T09:58:00.747Z</time></trkpt><trkpt lat="43.3970533" lon="10.8933117"><ele>299.0</ele><time>2026-04-18T09:58:01.741Z</time></trkpt><trkpt lat="43.3968517" lon="10.8933917"><ele>297.0</ele><time>2026-04-18T09:58:02.742Z</time></trkpt><trkpt lat="43.3966567" lon="10.8935033"><ele>297.0</ele><time>2026-04-18T09:58:03.744Z</time></trkpt><trkpt lat="43.3964767" lon="10.89361"><ele>297.0</ele><time>2026-04-18T09:58:04.742Z</time></trkpt><trkpt lat="43.3963017" lon="10.893715"><ele>297.0</ele><time>2026-04-18T09:58:05.75Z</time></trkpt><trkpt lat="43.3961167" lon="10.89381"><ele>301.6666666666667</ele><time>2026-04-18T09:58:06.748Z</time></trkpt><trkpt lat="43.3959267" lon="10.89392"><ele>306.33333333333337</ele><time>2026-04-18T09:58:07.747Z</time></trkpt><trkpt lat="43.3957267" lon="10.894035"><ele>311.0</ele><time>2026-04-18T09:58:08.748Z</time></trkpt><trkpt lat="43.3955317" lon="10.894155"><ele>312.6666666666667</ele><time>2026-04-18T09:58:09.744Z</time></trkpt><trkpt lat="43.3953433" lon="10.8942717"><ele>314.3333333333333</ele><time>2026-04-18T09:58:10.743Z</time></trkpt><trkpt lat="43.3951783" lon="10.89439"><ele>316.0</ele><time>2026-04-18T09:58:11.743Z</time></trkpt><trkpt lat="43.3950267" lon="10.8945067"><ele>316.0</ele><time>2026-04-18T09:58:12.752Z</time></trkpt><trkpt lat="43.3948867" lon="10.8946367"><ele>316.0</ele><time>2026-04-18T09:58:13.747Z</time></trkpt><trkpt lat="43.3947567" lon="10.8947783"><ele>316.0</ele><time>2026-04-18T09:58:14.749Z</time></trkpt><trkpt lat="43.3946383" lon="10.8949167"><ele>318.66666666666663</ele><time>2026-04-18T09:58:15.744Z</time></trkpt><trkpt lat="43.394525" lon="10.8950533"><ele>321.3333333333333</ele><time>2026-04-18T09:58:16.747Z</time></trkpt><trkpt lat="43.3943983" lon="10.895175"><ele>324.0</ele><time>2026-04-18T09:58:17.743Z</time></trkpt><trkpt lat="43.394255" lon="10.89529"><ele>324.0</ele><time>2026-04-18T09:58:18.745Z</time></trkpt><trkpt lat="43.3940983" lon="10.8954067"><ele>324.0</ele><time>2026-04-18T09:58:19.743Z</time></trkpt><trkpt lat="43.3939417" lon="10.895525"><ele>324.0</ele><time>2026-04-18T09:58:20.744Z</time></trkpt><trkpt lat="43.393785" lon="10.895625"><ele>327.0</ele><time>2026-04-18T09:58:21.741Z</time></trkpt><trkpt lat="43.3936383" lon="10.8957"><ele>330.0</ele><time>2026-04-18T09:58:22.743Z</time></trkpt><trkpt lat="43.3934933" lon="10.89575"><ele>333.0</ele><time>2026-04-18T09:58:23.74Z</time></trkpt><trkpt lat="43.3933517" lon="10.8957867"><ele>333.0</ele><time>2026-04-18T09:58:24.745Z</time></trkpt><trkpt lat="43.3932183" lon="10.8958167"><ele>333.0</ele><time>2026-04-18T09:58:25.747Z</time></trkpt><trkpt lat="43.39308" lon="10.8958183"><ele>333.0</ele><time>2026-04-18T09:58:26.746Z</time></trkpt><trkpt lat="43.3929433" lon="10.8958333"><ele>333.0</ele><time>2026-04-18T09:58:27.746Z</time></trkpt><trkpt lat="43.3928183" lon="10.89584"><ele>333.0</ele><time>2026-04-18T09:58:28.743Z</time></trkpt><trkpt lat="43.3927083" lon="10.8958217"><ele>333.0</ele><time>2026-04-18T09:58:29.744Z</time></trkpt><trkpt lat="43.3926167" lon="10.8957767"><ele>333.0</ele><time>2026-04-18T09:58:30.744Z</time></trkpt><trkpt lat="43.3925417" lon="10.8957133"><ele>333.0</ele><time>2026-04-18T09:58:31.744Z</time></trkpt><trkpt lat="43.3924983" lon="10.8956233"><ele>333.0</ele><time>2026-04-18T09:58:32.745Z</time></trkpt><trkpt lat="43.39249" lon="10.895505"><ele>333.0</ele><time>2026-04-18T09:58:33.744Z</time></trkpt><trkpt lat="43.3924833" lon="10.8953683"><ele>333.0</ele><time>2026-04-18T09:58:34.745Z</time></trkpt><trkpt lat="43.39249" lon="10.89518"><ele>333.0</ele><time>2026-04-18T09:58:35.744Z</time></trkpt><trkpt lat="43.3925017" lon="10.8949883"><ele>333.0</ele><time>2026-04-18T09:58:36.748Z</time></trkpt><trkpt lat="43.3925217" lon="10.894805"><ele>333.0</ele><time>2026-04-18T09:58:37.745Z</time></trkpt><trkpt lat="43.3925517" lon="10.8946467"><ele>333.0</ele><time>2026-04-18T09:58:38.744Z</time></trkpt><trkpt lat="43.3926283" lon="10.89451"><ele>333.0</ele><time>2026-04-18T09:58:39.744Z</time></trkpt><trkpt lat="43.392745" lon="10.89438"><ele>333.0</ele><time>2026-04-18T09:58:40.742Z</time></trkpt><trkpt lat="43.3928717" lon="10.8942267"><ele>333.0</ele><time>2026-04-18T09:58:41.74Z</time></trkpt><trkpt lat="43.3930033" lon="10.8940667"><ele>333.0</ele><time>2026-04-18T09:58:42.742Z</time></trkpt><trkpt lat="43.3931467" lon="10.8939333"><ele>333.0</ele><time>2026-04-18T09:58:43.741Z</time></trkpt><trkpt lat="43.393295" lon="10.8938433"><ele>338.0</ele><time>2026-04-18T09:58:44.746Z</time></trkpt><trkpt lat="43.3934283" lon="10.8937333"><ele>343.0</ele><time>2026-04-18T09:58:45.75Z</time></trkpt><trkpt lat="43.3935467" lon="10.893595"><ele>348.0</ele><time>2026-04-18T09:58:46.744Z</time></trkpt><trkpt lat="43.39365" lon="10.8934367"><ele>346.25</ele><time>2026-04-18T09:58:47.744Z</time></trkpt><trkpt lat="43.393735" lon="10.8932783"><ele>344.5</ele><time>2026-04-18T09:58:48.746Z</time></trkpt><trkpt lat="43.393805" lon="10.893115"><ele>342.75</ele><time>2026-04-18T09:58:49.744Z</time></trkpt><trkpt lat="43.3938617" lon="10.892955"><ele>341.0</ele><time>2026-04-18T09:58:50.744Z</time></trkpt><trkpt lat="43.39391" lon="10.892795"><ele>341.0</ele><time>2026-04-18T09:58:51.746Z</time></trkpt><trkpt lat="43.3939333" lon="10.8926317"><ele>341.0</ele><time>2026-04-18T09:58:52.742Z</time></trkpt><trkpt lat="43.3939133" lon="10.89246"><ele>341.0</ele><time>2026-04-18T09:58:53.744Z</time></trkpt><trkpt lat="43.3938617" lon="10.8922867"><ele>341.0</ele><time>2026-04-18T09:58:54.745Z</time></trkpt><trkpt lat="43.3937733" lon="10.8921333"><ele>340.33333333333337</ele><time>2026-04-18T09:58:55.745Z</time></trkpt><trkpt lat="43.3936717" lon="10.8919867"><ele>339.6666666666667</ele><time>2026-04-18T09:58:56.75Z</time></trkpt><trkpt lat="43.39355" lon="10.8918517"><ele>339.0</ele><time>2026-04-18T09:58:57.756Z</time></trkpt><trkpt lat="43.3934467" lon="10.891675"><ele>343.6666666666667</ele><time>2026-04-18T09:58:58.756Z</time></trkpt><trkpt lat="43.3933567" lon="10.891475"><ele>348.33333333333337</ele><time>2026-04-18T09:58:59.742Z</time></trkpt><trkpt lat="43.393265" lon="10.891275"><ele>353.0</ele><time>2026-04-18T09:59:00.748Z</time></trkpt><trkpt lat="43.3931733" lon="10.8911067"><ele>353.0</ele><time>2026-04-18T09:59:01.754Z</time></trkpt><trkpt lat="43.3931117" lon="10.89094"><ele>353.0</ele><time>2026-04-18T09:59:02.746Z</time></trkpt><trkpt lat="43.3930783" lon="10.8907717"><ele>353.0</ele><time>2026-04-18T09:59:03.749Z</time></trkpt><trkpt lat="43.39308" lon="10.8906067"><ele>353.0</ele><time>2026-04-18T09:59:04.752Z</time></trkpt><trkpt lat="43.39314" lon="10.8904317"><ele>357.0</ele><time>2026-04-18T09:59:05.752Z</time></trkpt><trkpt lat="43.3932217" lon="10.890245"><ele>361.0</ele><time>2026-04-18T09:59:06.746Z</time></trkpt><trkpt lat="43.3933167" lon="10.8900367"><ele>365.0</ele><time>2026-04-18T09:59:07.746Z</time></trkpt><trkpt lat="43.39342" lon="10.88981"><ele>365.0</ele><time>2026-04-18T09:59:08.746Z</time></trkpt><trkpt lat="43.3935183" lon="10.8895967"><ele>365.0</ele><time>2026-04-18T09:59:09.744Z</time></trkpt><trkpt lat="43.393605" lon="10.8894067"><ele>365.0</ele><time>2026-04-18T09:59:10.746Z</time></trkpt><trkpt lat="43.3937233" lon="10.88925"><ele>368.6666666666667</ele><time>2026-04-18T09:59:11.763Z</time></trkpt><trkpt lat="43.3938867" lon="10.889125"><ele>372.3333333333333</ele><time>2026-04-18T09:59:12.788Z</time></trkpt><trkpt lat="43.3940517" lon="10.8890017"><ele>376.0</ele><time>2026-04-18T09:59:13.747Z</time></trkpt><trkpt lat="43.3942" lon="10.8888833"><ele>376.0</ele><time>2026-04-18T09:59:14.745Z</time></trkpt><trkpt lat="43.3943317" lon="10.8887417"><ele>376.0</ele><time>2026-04-18T09:59:15.743Z</time></trkpt><trkpt lat="43.3944367" lon="10.8885683"><ele>376.0</ele><time>2026-04-18T09:59:16.743Z</time></trkpt><trkpt lat="43.3944983" lon="10.8883667"><ele>377.0</ele><time>2026-04-18T09:59:17.743Z</time></trkpt><trkpt lat="43.3945567" lon="10.888215"><ele>378.0</ele><time>2026-04-18T09:59:18.741Z</time></trkpt><trkpt lat="43.3946233" lon="10.8881033"><ele>379.0</ele><time>2026-04-18T09:59:19.743Z</time></trkpt><trkpt lat="43.394705" lon="10.8880617"><ele>380.0</ele><time>2026-04-18T09:59:20.747Z</time></trkpt><trkpt lat="43.3947883" lon="10.88809"><ele>381.0</ele><time>2026-04-18T09:59:21.745Z</time></trkpt><trkpt lat="43.3948483" lon="10.8881717"><ele>381.0</ele><time>2026-04-18T09:59:22.748Z</time></trkpt><trkpt lat="43.3948667" lon="10.8883567"><ele>381.0</ele><time>2026-04-18T09:59:23.747Z</time></trkpt><trkpt lat="43.3948533" lon="10.8885683"><ele>381.0</ele><time>2026-04-18T09:59:24.741Z</time></trkpt><trkpt lat="43.39484" lon="10.8887567"><ele>381.0</ele><time>2026-04-18T09:59:25.74Z</time></trkpt><trkpt lat="43.394825" lon="10.8889283"><ele>381.6</ele><time>2026-04-18T09:59:26.747Z</time></trkpt><trkpt lat="43.39484" lon="10.8890817"><ele>382.20000000000005</ele><time>2026-04-18T09:59:27.742Z</time></trkpt><trkpt lat="43.3948817" lon="10.8892133"><ele>382.79999999999995</ele><time>2026-04-18T09:59:28.74Z</time></trkpt><trkpt lat="43.394955" lon="10.8892967"><ele>383.4</ele><time>2026-04-18T09:59:29.743Z</time></trkpt><trkpt lat="43.3950433" lon="10.889315"><ele>384.0</ele><time>2026-04-18T09:59:30.745Z</time></trkpt><trkpt lat="43.3951283" lon="10.8892633"><ele>384.0</ele><time>2026-04-18T09:59:31.74Z</time></trkpt><trkpt lat="43.3952117" lon="10.8891167"><ele>384.0</ele><time>2026-04-18T09:59:32.743Z</time></trkpt><trkpt lat="43.395285" lon="10.8889467"><ele>384.0</ele><time>2026-04-18T09:59:33.744Z</time></trkpt><trkpt lat="43.395375" lon="10.8887667"><ele>384.0</ele><time>2026-04-18T09:59:34.744Z</time></trkpt><trkpt lat="43.3955017" lon="10.8886183"><ele>386.33333333333337</ele><time>2026-04-18T09:59:35.746Z</time></trkpt><trkpt lat="43.3955817" lon="10.88832"><ele>388.6666666666667</ele><time>2026-04-18T09:59:36.744Z</time></trkpt><trkpt lat="43.395675" lon="10.8880933"><ele>391.0</ele><time>2026-04-18T09:59:37.75Z</time></trkpt><trkpt lat="43.3958" lon="10.8879283"><ele>391.0</ele><time>2026-04-18T09:59:38.748Z</time></trkpt><trkpt lat="43.3959317" lon="10.8878033"><ele>391.0</ele><time>2026-04-18T09:59:39.742Z</time></trkpt><trkpt lat="43.3960183" lon="10.887655"><ele>391.0</ele><time>2026-04-18T09:59:40.741Z</time></trkpt><trkpt lat="43.3960517" lon="10.887485"><ele>391.0</ele><time>2026-04-18T09:59:41.744Z</time></trkpt><trkpt lat="43.3960617" lon="10.8873233"><ele>392.20000000000005</ele><time>2026-04-18T09:59:42.742Z</time></trkpt><trkpt lat="43.39602" lon="10.887165"><ele>393.40000000000003</ele><time>2026-04-18T09:59:43.744Z</time></trkpt><trkpt lat="43.3959667" lon="10.8870267"><ele>394.6</ele><time>2026-04-18T09:59:44.744Z</time></trkpt><trkpt lat="43.395935" lon="10.8868983"><ele>395.8</ele><time>2026-04-18T09:59:45.742Z</time></trkpt><trkpt lat="43.3959217" lon="10.8867717"><ele>397.0</ele><time>2026-04-18T09:59:46.746Z</time></trkpt><trkpt lat="43.3959233" lon="10.88663"><ele>397.75</ele><time>2026-04-18T09:59:47.743Z</time></trkpt><trkpt lat="43.3959383" lon="10.8864833"><ele>398.5</ele><time>2026-04-18T09:59:48.748Z</time></trkpt><trkpt lat="43.395975" lon="10.8863333"><ele>399.25</ele><time>2026-04-18T09:59:49.744Z</time></trkpt><trkpt lat="43.3960317" lon="10.88619"><ele>400.0</ele><time>2026-04-18T09:59:50.744Z</time></trkpt><trkpt lat="43.3961033" lon="10.8860433"><ele>399.75</ele><time>2026-04-18T09:59:51.744Z</time></trkpt><trkpt lat="43.3961917" lon="10.8858967"><ele>399.5</ele><time>2026-04-18T09:59:52.745Z</time></trkpt><trkpt lat="43.3962833" lon="10.8857467"><ele>399.25</ele><time>2026-04-18T09:59:53.748Z</time></trkpt><trkpt lat="43.39638" lon="10.8855817"><ele>399.0</ele><time>2026-04-18T09:59:54.744Z</time></trkpt><trkpt lat="43.3964817" lon="10.88541"><ele>401.33333333333337</ele><time>2026-04-18T09:59:55.743Z</time></trkpt><trkpt lat="43.3965833" lon="10.8852317"><ele>403.6666666666667</ele><time>2026-04-18T09:59:56.746Z</time></trkpt><trkpt lat="43.3966883" lon="10.8850583"><ele>406.0</ele><time>2026-04-18T09:59:57.744Z</time></trkpt><trkpt lat="43.3967917" lon="10.8848933"><ele>406.0</ele><time>2026-04-18T09:59:58.741Z</time></trkpt><trkpt lat="43.3968867" lon="10.8847367"><ele>406.0</ele><time>2026-04-18T09:59:59.742Z</time></trkpt><trkpt lat="43.396975" lon="10.88459"><ele>406.0</ele><time>2026-04-18T10:00:00.745Z</time></trkpt><trkpt lat="43.39706" lon="10.8844483"><ele>406.0</ele><time>2026-04-18T10:00:01.745Z</time></trkpt><trkpt lat="43.3971367" lon="10.8843067"><ele>406.6</ele><time>2026-04-18T10:00:02.747Z</time></trkpt><trkpt lat="43.3972033" lon="10.8841667"><ele>407.20000000000005</ele><time>2026-04-18T10:00:03.747Z</time></trkpt><trkpt lat="43.397245" lon="10.8840233"><ele>407.79999999999995</ele><time>2026-04-18T10:00:04.743Z</time></trkpt><trkpt lat="43.3972633" lon="10.88388"><ele>408.4</ele><time>2026-04-18T10:00:05.745Z</time></trkpt><trkpt lat="43.3972517" lon="10.8837333"><ele>409.0</ele><time>2026-04-18T10:00:06.741Z</time></trkpt><trkpt lat="43.397225" lon="10.8835867"><ele>410.75</ele><time>2026-04-18T10:00:07.74Z</time></trkpt><trkpt lat="43.3972067" lon="10.88343"><ele>412.5</ele><time>2026-04-18T10:00:08.743Z</time></trkpt><trkpt lat="43.397185" lon="10.883255"><ele>414.25</ele><time>2026-04-18T10:00:09.749Z</time></trkpt><trkpt lat="43.3971583" lon="10.8830583"><ele>416.0</ele><time>2026-04-18T10:00:10.744Z</time></trkpt><trkpt lat="43.3971383" lon="10.8828383"><ele>411.3333333333333</ele><time>2026-04-18T10:00:11.744Z</time></trkpt><trkpt lat="43.39714" lon="10.8825933"><ele>406.66666666666663</ele><time>2026-04-18T10:00:12.748Z</time></trkpt><trkpt lat="43.39714" lon="10.8823317"><ele>402.0</ele><time>2026-04-18T10:00:13.745Z</time></trkpt><trkpt lat="43.3971167" lon="10.8820567"><ele>402.0</ele><time>2026-04-18T10:00:14.75Z</time></trkpt><trkpt lat="43.3970733" lon="10.8817717"><ele>402.0</ele><time>2026-04-18T10:00:15.745Z</time></trkpt><trkpt lat="43.3970067" lon="10.881485"><ele>402.0</ele><time>2026-04-18T10:00:16.744Z</time></trkpt><trkpt lat="43.3969483" lon="10.881195"><ele>406.0</ele><time>2026-04-18T10:00:17.744Z</time></trkpt><trkpt lat="43.3969033" lon="10.8809417"><ele>410.0</ele><time>2026-04-18T10:00:18.746Z</time></trkpt><trkpt lat="43.3968783" lon="10.880725"><ele>414.0</ele><time>2026-04-18T10:00:19.746Z</time></trkpt><trkpt lat="43.3968483" lon="10.8805517"><ele>416.0</ele><time>2026-04-18T10:00:20.742Z</time></trkpt><trkpt lat="43.396835" lon="10.8803933"><ele>418.0</ele><time>2026-04-18T10:00:21.747Z</time></trkpt><trkpt lat="43.396825" lon="10.8802533"><ele>420.0</ele><time>2026-04-18T10:00:22.745Z</time></trkpt><trkpt lat="43.3968117" lon="10.88012"><ele>422.0</ele><time>2026-04-18T10:00:23.743Z</time></trkpt><trkpt lat="43.3968017" lon="10.8799733"><ele>424.0</ele><time>2026-04-18T10:00:24.744Z</time></trkpt><trkpt lat="43.396775" lon="10.8798383"><ele>425.79999999999995</ele><time>2026-04-18T10:00:25.742Z</time></trkpt><trkpt lat="43.3967533" lon="10.879705"><ele>427.59999999999997</ele><time>2026-04-18T10:00:26.742Z</time></trkpt><trkpt lat="43.39673" lon="10.8795783"><ele>429.4</ele><time>2026-04-18T10:00:27.743Z</time></trkpt><trkpt lat="43.3967067" lon="10.8794383"><ele>431.2</ele><time>2026-04-18T10:00:28.742Z</time></trkpt><trkpt lat="43.3966883" lon="10.879295"><ele>433.0</ele><time>2026-04-18T10:00:29.746Z</time></trkpt><trkpt lat="43.3966867" lon="10.879145"><ele>434.2</ele><time>2026-04-18T10:00:30.744Z</time></trkpt><trkpt lat="43.39669" lon="10.879"><ele>435.4</ele><time>2026-04-18T10:00:31.749Z</time></trkpt><trkpt lat="43.3967" lon="10.878855"><ele>436.59999999999997</ele><time>2026-04-18T10:00:32.75Z</time></trkpt><trkpt lat="43.3967233" lon="10.8787083"><ele>437.79999999999995</ele><time>2026-04-18T10:00:33.744Z</time></trkpt><trkpt lat="43.3967567" lon="10.8785683"><ele>439.0</ele><time>2026-04-18T10:00:34.741Z</time></trkpt><trkpt lat="43.3968067" lon="10.8784283"><ele>439.0</ele><time>2026-04-18T10:00:35.747Z</time></trkpt><trkpt lat="43.3968817" lon="10.8782833"><ele>439.0</ele><time>2026-04-18T10:00:36.745Z</time></trkpt><trkpt lat="43.3969333" lon="10.8781217"><ele>439.0</ele><time>2026-04-18T10:00:37.745Z</time></trkpt><trkpt lat="43.3969617" lon="10.8779567"><ele>439.0</ele><time>2026-04-18T10:00:38.745Z</time></trkpt><trkpt lat="43.3969817" lon="10.8778067"><ele>439.0</ele><time>2026-04-18T10:00:39.744Z</time></trkpt><trkpt lat="43.3970017" lon="10.8776583"><ele>439.0</ele><time>2026-04-18T10:00:40.75Z</time></trkpt><trkpt lat="43.3970233" lon="10.8775067"><ele>439.0</ele><time>2026-04-18T10:00:41.742Z</time></trkpt><trkpt lat="43.3970417" lon="10.8773283"><ele>439.0</ele><time>2026-04-18T10:00:42.74Z</time></trkpt><trkpt lat="43.397055" lon="10.8771133"><ele>439.0</ele><time>2026-04-18T10:00:43.743Z</time></trkpt><trkpt lat="43.3970667" lon="10.8769033"><ele>439.0</ele><time>2026-04-18T10:00:44.742Z</time></trkpt><trkpt lat="43.397095" lon="10.87672"><ele>439.0</ele><time>2026-04-18T10:00:45.744Z</time></trkpt><trkpt lat="43.3971183" lon="10.8765433"><ele>439.0</ele><time>2026-04-18T10:00:46.741Z</time></trkpt><trkpt lat="43.3971483" lon="10.8763733"><ele>446.0</ele><time>2026-04-18T10:00:47.748Z</time></trkpt><trkpt lat="43.3971917" lon="10.8762167"><ele>453.0</ele><time>2026-04-18T10:00:48.744Z</time></trkpt><trkpt lat="43.397235" lon="10.8760683"><ele>460.0</ele><time>2026-04-18T10:00:49.743Z</time></trkpt><trkpt lat="43.39728" lon="10.87592"><ele>467.0</ele><time>2026-04-18T10:00:50.744Z</time></trkpt><trkpt lat="43.397345" lon="10.8757717"><ele>467.0</ele><time>2026-04-18T10:00:51.745Z</time></trkpt><trkpt lat="43.3974033" lon="10.8756083"><ele>467.0</ele><time>2026-04-18T10:00:52.745Z</time></trkpt><trkpt lat="43.3974683" lon="10.87545"><ele>467.0</ele><time>2026-04-18T10:00:53.744Z</time></trkpt><trkpt lat="43.3975267" lon="10.8752933"><ele>467.0</ele><time>2026-04-18T10:00:54.747Z</time></trkpt><trkpt lat="43.397575" lon="10.87514"><ele>466.40000000000003</ele><time>2026-04-18T10:00:55.742Z</time></trkpt><trkpt lat="43.3976167" lon="10.8750033"><ele>465.80000000000007</ele><time>2026-04-18T10:00:56.747Z</time></trkpt><trkpt lat="43.397655" lon="10.8748767"><ele>465.2</ele><time>2026-04-18T10:00:57.744Z</time></trkpt><trkpt lat="43.3976917" lon="10.87476"><ele>464.6</ele><time>2026-04-18T10:00:58.746Z</time></trkpt><trkpt lat="43.39773" lon="10.874655"><ele>464.0</ele><time>2026-04-18T10:00:59.744Z</time></trkpt><trkpt lat="43.397775" lon="10.8745583"><ele>464.0</ele><time>2026-04-18T10:01:00.742Z</time></trkpt><trkpt lat="43.3978333" lon="10.8744667"><ele>464.0</ele><time>2026-04-18T10:01:01.742Z</time></trkpt><trkpt lat="43.3978917" lon="10.8743733"><ele>464.0</ele><time>2026-04-18T10:01:02.745Z</time></trkpt><trkpt lat="43.3979567" lon="10.8742817"><ele>464.0</ele><time>2026-04-18T10:01:03.745Z</time></trkpt><trkpt lat="43.3980167" lon="10.874185"><ele>464.0</ele><time>2026-04-18T10:01:04.745Z</time></trkpt><trkpt lat="43.3980783" lon="10.8740967"><ele>466.8333333333333</ele><time>2026-04-18T10:01:05.745Z</time></trkpt><trkpt lat="43.3981367" lon="10.874015"><ele>469.66666666666663</ele><time>2026-04-18T10:01:06.744Z</time></trkpt><trkpt lat="43.3981883" lon="10.873935"><ele>472.5</ele><time>2026-04-18T10:01:07.743Z</time></trkpt><trkpt lat="43.398245" lon="10.8738633"><ele>475.33333333333337</ele><time>2026-04-18T10:01:08.749Z</time></trkpt><trkpt lat="43.3982967" lon="10.8737817"><ele>478.1666666666667</ele><time>2026-04-18T10:01:09.748Z</time></trkpt><trkpt lat="43.3983583" lon="10.8737017"><ele>481.0</ele><time>2026-04-18T10:01:10.746Z</time></trkpt><trkpt lat="43.3984167" lon="10.8736033"><ele>481.0</ele><time>2026-04-18T10:01:11.743Z</time></trkpt><trkpt lat="43.3984717" lon="10.8734867"><ele>481.0</ele><time>2026-04-18T10:01:12.751Z</time></trkpt><trkpt lat="43.398525" lon="10.87336"><ele>481.0</ele><time>2026-04-18T10:01:13.743Z</time></trkpt><trkpt lat="43.3985817" lon="10.8732317"><ele>481.0</ele><time>2026-04-18T10:01:14.746Z</time></trkpt><trkpt lat="43.3986417" lon="10.873105"><ele>481.0</ele><time>2026-04-18T10:01:15.742Z</time></trkpt><trkpt lat="43.3987017" lon="10.872985"><ele>480.4</ele><time>2026-04-18T10:01:16.744Z</time></trkpt><trkpt lat="43.39876" lon="10.8728667"><ele>479.8</ele><time>2026-04-18T10:01:17.745Z</time></trkpt><trkpt lat="43.3988183" lon="10.872755"><ele>479.19999999999993</ele><time>2026-04-18T10:01:18.745Z</time></trkpt><trkpt lat="43.398875" lon="10.87265"><ele>478.59999999999997</ele><time>2026-04-18T10:01:19.744Z</time></trkpt><trkpt lat="43.3989333" lon="10.872545"><ele>478.0</ele><time>2026-04-18T10:01:20.745Z</time></trkpt><trkpt lat="43.3989933" lon="10.87244"><ele>480.00000000000006</ele><time>2026-04-18T10:01:21.751Z</time></trkpt><trkpt lat="43.39905" lon="10.8723367"><ele>482.0</ele><time>2026-04-18T10:01:22.744Z</time></trkpt><trkpt lat="43.3991083" lon="10.872245"><ele>484.0</ele><time>2026-04-18T10:01:23.752Z</time></trkpt><trkpt lat="43.39917" lon="10.8721567"><ele>486.0</ele><time>2026-04-18T10:01:24.745Z</time></trkpt><trkpt lat="43.3992317" lon="10.8720783"><ele>488.00000000000006</ele><time>2026-04-18T10:01:25.745Z</time></trkpt><trkpt lat="43.3992933" lon="10.8720017"><ele>490.0</ele><time>2026-04-18T10:01:26.742Z</time></trkpt><trkpt lat="43.3993433" lon="10.8719217"><ele>490.00000000000006</ele><time>2026-04-18T10:01:27.74Z</time></trkpt><trkpt lat="43.39942" lon="10.871785"><ele>490.0</ele><time>2026-04-18T10:01:29.746Z</time></trkpt><trkpt lat="43.399465" lon="10.871705"><ele>490.0</ele><time>2026-04-18T10:01:30.747Z</time></trkpt><trkpt lat="43.3995083" lon="10.8716267"><ele>490.0</ele><time>2026-04-18T10:01:31.744Z</time></trkpt><trkpt lat="43.399545" lon="10.8715517"><ele>490.00000000000006</ele><time>2026-04-18T10:01:32.744Z</time></trkpt><trkpt lat="43.3995983" lon="10.871415"><ele>490.0</ele><time>2026-04-18T10:01:34.743Z</time></trkpt><trkpt lat="43.3996367" lon="10.8712867"><ele>491.4</ele><time>2026-04-18T10:01:36.748Z</time></trkpt><trkpt lat="43.39968" lon="10.8711083"><ele>492.8</ele><time>2026-04-18T10:01:38.743Z</time></trkpt><trkpt lat="43.3997" lon="10.8709983"><ele>494.20000000000005</ele><time>2026-04-18T10:01:39.746Z</time></trkpt><trkpt lat="43.3997183" lon="10.87088"><ele>495.6</ele><time>2026-04-18T10:01:40.743Z</time></trkpt><trkpt lat="43.3997283" lon="10.870765"><ele>497.0</ele><time>2026-04-18T10:01:41.742Z</time></trkpt><trkpt lat="43.3997317" lon="10.8706433"><ele>497.0</ele><time>2026-04-18T10:01:42.742Z</time></trkpt><trkpt lat="43.3997317" lon="10.87052"><ele>497.00000000000006</ele><time>2026-04-18T10:01:43.743Z</time></trkpt><trkpt lat="43.399725" lon="10.8703933"><ele>497.00000000000006</ele><time>2026-04-18T10:01:44.744Z</time></trkpt><trkpt lat="43.399715" lon="10.870265"><ele>497.0</ele><time>2026-04-18T10:01:45.746Z</time></trkpt><trkpt lat="43.3996983" lon="10.8701367"><ele>497.0</ele><time>2026-04-18T10:01:46.742Z</time></trkpt><trkpt lat="43.399685" lon="10.8700133"><ele>497.49999999999994</ele><time>2026-04-18T10:01:47.749Z</time></trkpt><trkpt lat="43.399675" lon="10.8698867"><ele>498.0</ele><time>2026-04-18T10:01:48.745Z</time></trkpt><trkpt lat="43.399665" lon="10.86976"><ele>498.5</ele><time>2026-04-18T10:01:49.741Z</time></trkpt><trkpt lat="43.39966" lon="10.8696367"><ele>499.0</ele><time>2026-04-18T10:01:50.744Z</time></trkpt><trkpt lat="43.3996517" lon="10.8695333"><ele>499.49999999999994</ele><time>2026-04-18T10:01:51.743Z</time></trkpt><trkpt lat="43.3996433" lon="10.8694433"><ele>500.0</ele><time>2026-04-18T10:01:52.747Z</time></trkpt><trkpt lat="43.39962" lon="10.869315"><ele>500.16666666666663</ele><time>2026-04-18T10:01:54.742Z</time></trkpt><trkpt lat="43.399595" lon="10.8692167"><ele>500.3333333333333</ele><time>2026-04-18T10:01:57.743Z</time></trkpt><trkpt lat="43.39958" lon="10.869105"><ele>500.5</ele><time>2026-04-18T10:02:01.744Z</time></trkpt><trkpt lat="43.399615" lon="10.8690133"><ele>500.66666666666663</ele><time>2026-04-18T10:02:03.744Z</time></trkpt><trkpt lat="43.399675" lon="10.8688967"><ele>500.8333333333333</ele><time>2026-04-18T10:02:05.743Z</time></trkpt><trkpt lat="43.3996917" lon="10.8687717"><ele>501.0</ele><time>2026-04-18T10:02:07.745Z</time></trkpt><trkpt lat="43.3996917" lon="10.86868"><ele>501.0</ele><time>2026-04-18T10:02:09.744Z</time></trkpt><trkpt lat="43.39963" lon="10.8686167"><ele>501.0</ele><time>2026-04-18T10:10:16.743Z</time></trkpt><trkpt lat="43.3995467" lon="10.8686017"><ele>501.0</ele><time>2026-04-18T10:10:18.741Z</time></trkpt><trkpt lat="43.3995" lon="10.8685283"><ele>501.0</ele><time>2026-04-18T10:10:20.743Z</time></trkpt><trkpt lat="43.3994533" lon="10.86845"><ele>501.0</ele><time>2026-04-18T10:10:22.744Z</time></trkpt><trkpt lat="43.3994217" lon="10.8682833"><ele>501.0</ele><time>2026-04-18T10:10:24.743Z</time></trkpt><trkpt lat="43.3994" lon="10.8681917"><ele>501.0</ele><time>2026-04-18T10:10:25.741Z</time></trkpt><trkpt lat="43.3993733" lon="10.8681067"><ele>501.0</ele><time>2026-04-18T10:10:26.747Z</time></trkpt><trkpt lat="43.3993517" lon="10.8679967"><ele>501.0</ele><time>2026-04-18T10:10:27.743Z</time></trkpt><trkpt lat="43.3993283" lon="10.8678767"><ele>501.0</ele><time>2026-04-18T10:10:28.745Z</time></trkpt><trkpt lat="43.3993033" lon="10.8677433"><ele>501.0</ele><time>2026-04-18T10:10:29.743Z</time></trkpt><trkpt lat="43.3992667" lon="10.86765"><ele>501.0</ele><time>2026-04-18T10:10:30.742Z</time></trkpt><trkpt lat="43.3992783" lon="10.8674833"><ele>502.20000000000005</ele><time>2026-04-18T10:10:31.74Z</time></trkpt><trkpt lat="43.3992617" lon="10.8673617"><ele>503.40000000000003</ele><time>2026-04-18T10:10:32.746Z</time></trkpt><trkpt lat="43.3992433" lon="10.867235"><ele>504.6</ele><time>2026-04-18T10:10:33.747Z</time></trkpt><trkpt lat="43.399235" lon="10.8670883"><ele>505.8</ele><time>2026-04-18T10:10:34.742Z</time></trkpt><trkpt lat="43.3992467" lon="10.8669283"><ele>507.0</ele><time>2026-04-18T10:10:35.742Z</time></trkpt><trkpt lat="43.3992383" lon="10.8667633"><ele>508.75</ele><time>2026-04-18T10:10:36.742Z</time></trkpt><trkpt lat="43.3992633" lon="10.8665817"><ele>510.5</ele><time>2026-04-18T10:10:37.74Z</time></trkpt><trkpt lat="43.3991817" lon="10.8664783"><ele>512.25</ele><time>2026-04-18T10:10:38.743Z</time></trkpt><trkpt lat="43.3992133" lon="10.8663233"><ele>514.0</ele><time>2026-04-18T10:10:39.749Z</time></trkpt><trkpt lat="43.39924" lon="10.8661783"><ele>514.0</ele><time>2026-04-18T10:10:40.747Z</time></trkpt><trkpt lat="43.3992633" lon="10.8660417"><ele>514.0</ele><time>2026-04-18T10:10:41.744Z</time></trkpt><trkpt lat="43.3992783" lon="10.8659033"><ele>514.0</ele><time>2026-04-18T10:10:42.744Z</time></trkpt><trkpt lat="43.39929" lon="10.8657683"><ele>514.0</ele><time>2026-04-18T10:10:43.743Z</time></trkpt><trkpt lat="43.3992683" lon="10.865645"><ele>514.0</ele><time>2026-04-18T10:10:44.742Z</time></trkpt><trkpt lat="43.3992233" lon="10.86551"><ele>514.75</ele><time>2026-04-18T10:10:45.746Z</time></trkpt><trkpt lat="43.3991917" lon="10.8653667"><ele>515.5</ele><time>2026-04-18T10:10:46.746Z</time></trkpt><trkpt lat="43.3991783" lon="10.865225"><ele>516.25</ele><time>2026-04-18T10:10:47.744Z</time></trkpt><trkpt lat="43.3991533" lon="10.86506"><ele>517.0</ele><time>2026-04-18T10:10:48.746Z</time></trkpt><trkpt lat="43.3991567" lon="10.8648933"><ele>517.0</ele><time>2026-04-18T10:10:49.748Z</time></trkpt><trkpt lat="43.3991717" lon="10.8647267"><ele>517.0</ele><time>2026-04-18T10:10:50.747Z</time></trkpt><trkpt lat="43.3992067" lon="10.86457"><ele>517.0</ele><time>2026-04-18T10:10:51.747Z</time></trkpt><trkpt lat="43.399235" lon="10.8644383"><ele>517.0</ele><time>2026-04-18T10:10:52.744Z</time></trkpt><trkpt lat="43.3992467" lon="10.86428"><ele>516.5</ele><time>2026-04-18T10:10:53.746Z</time></trkpt><trkpt lat="43.399265" lon="10.86413"><ele>516.0</ele><time>2026-04-18T10:10:54.746Z</time></trkpt><trkpt lat="43.3992617" lon="10.863965"><ele>515.5</ele><time>2026-04-18T10:10:55.746Z</time></trkpt><trkpt lat="43.3992617" lon="10.86381"><ele>515.0</ele><time>2026-04-18T10:10:56.745Z</time></trkpt><trkpt lat="43.3992633" lon="10.863655"><ele>515.0</ele><time>2026-04-18T10:10:57.741Z</time></trkpt><trkpt lat="43.39927" lon="10.8634983"><ele>515.0</ele><time>2026-04-18T10:10:58.741Z</time></trkpt><trkpt lat="43.39929" lon="10.8633367"><ele>515.0</ele><time>2026-04-18T10:10:59.744Z</time></trkpt><trkpt lat="43.3993" lon="10.8631617"><ele>515.0</ele><time>2026-04-18T10:11:00.746Z</time></trkpt><trkpt lat="43.3993067" lon="10.862985"><ele>513.75</ele><time>2026-04-18T10:11:01.744Z</time></trkpt><trkpt lat="43.39932" lon="10.8628067"><ele>512.5</ele><time>2026-04-18T10:11:02.75Z</time></trkpt><trkpt lat="43.3993217" lon="10.86262"><ele>511.25</ele><time>2026-04-18T10:11:03.742Z</time></trkpt><trkpt lat="43.3993267" lon="10.8624267"><ele>510.0</ele><time>2026-04-18T10:11:04.748Z</time></trkpt><trkpt lat="43.3993433" lon="10.86224"><ele>508.25</ele><time>2026-04-18T10:11:05.745Z</time></trkpt><trkpt lat="43.3993433" lon="10.8620383"><ele>506.5</ele><time>2026-04-18T10:11:06.744Z</time></trkpt><trkpt lat="43.3993567" lon="10.8618417"><ele>504.75</ele><time>2026-04-18T10:11:07.744Z</time></trkpt><trkpt lat="43.3993767" lon="10.861645"><ele>503.0</ele><time>2026-04-18T10:11:08.746Z</time></trkpt><trkpt lat="43.3993733" lon="10.8614333"><ele>501.0</ele><time>2026-04-18T10:11:09.75Z</time></trkpt><trkpt lat="43.3993967" lon="10.8612383"><ele>499.0</ele><time>2026-04-18T10:11:10.744Z</time></trkpt><trkpt lat="43.3994183" lon="10.8610433"><ele>497.0</ele><time>2026-04-18T10:11:11.745Z</time></trkpt><trkpt lat="43.3994333" lon="10.860845"><ele>495.0</ele><time>2026-04-18T10:11:12.744Z</time></trkpt><trkpt lat="43.399455" lon="10.8606567"><ele>493.75</ele><time>2026-04-18T10:11:13.743Z</time></trkpt><trkpt lat="43.3994717" lon="10.8604667"><ele>492.5</ele><time>2026-04-18T10:11:14.743Z</time></trkpt><trkpt lat="43.3994867" lon="10.8602767"><ele>491.25</ele><time>2026-04-18T10:11:15.742Z</time></trkpt><trkpt lat="43.3995067" lon="10.8600983"><ele>490.0</ele><time>2026-04-18T10:11:16.743Z</time></trkpt><trkpt lat="43.399525" lon="10.8599333"><ele>489.2</ele><time>2026-04-18T10:11:17.742Z</time></trkpt><trkpt lat="43.399535" lon="10.8597833"><ele>488.4</ele><time>2026-04-18T10:11:18.742Z</time></trkpt><trkpt lat="43.3995433" lon="10.859645"><ele>487.6</ele><time>2026-04-18T10:11:19.742Z</time></trkpt><trkpt lat="43.3995567" lon="10.8595233"><ele>486.8</ele><time>2026-04-18T10:11:20.749Z</time></trkpt><trkpt lat="43.3995817" lon="10.85941"><ele>486.0</ele><time>2026-04-18T10:11:21.746Z</time></trkpt><trkpt lat="43.3996317" lon="10.859315"><ele>488.6</ele><time>2026-04-18T10:11:22.747Z</time></trkpt><trkpt lat="43.3996967" lon="10.8592367"><ele>491.20000000000005</ele><time>2026-04-18T10:11:23.746Z</time></trkpt><trkpt lat="43.399755" lon="10.85915"><ele>493.79999999999995</ele><time>2026-04-18T10:11:24.749Z</time></trkpt><trkpt lat="43.3998233" lon="10.85905"><ele>496.4</ele><time>2026-04-18T10:11:25.743Z</time></trkpt><trkpt lat="43.399905" lon="10.8589567"><ele>499.0</ele><time>2026-04-18T10:11:26.746Z</time></trkpt><trkpt lat="43.3999783" lon="10.8588533"><ele>499.00000000000006</ele><time>2026-04-18T10:11:27.744Z</time></trkpt><trkpt lat="43.400055" lon="10.8587617"><ele>499.0</ele><time>2026-04-18T10:11:28.746Z</time></trkpt><trkpt lat="43.4001317" lon="10.8586717"><ele>499.0</ele><time>2026-04-18T10:11:29.747Z</time></trkpt><trkpt lat="43.4001917" lon="10.8585733"><ele>499.0</ele><time>2026-04-18T10:11:30.745Z</time></trkpt><trkpt lat="43.4002483" lon="10.8584983"><ele>499.00000000000006</ele><time>2026-04-18T10:11:31.744Z</time></trkpt><trkpt lat="43.400295" lon="10.8584367"><ele>499.0</ele><time>2026-04-18T10:11:32.75Z</time></trkpt><trkpt lat="43.40036" lon="10.8583267"><ele>501.00000000000006</ele><time>2026-04-18T10:11:34.747Z</time></trkpt><trkpt lat="43.400425" lon="10.8582433"><ele>503.0</ele><time>2026-04-18T10:11:36.743Z</time></trkpt><trkpt lat="43.4004783" lon="10.8581667"><ele>505.0</ele><time>2026-04-18T10:11:38.749Z</time></trkpt><trkpt lat="43.40052" lon="10.8580817"><ele>507.0</ele><time>2026-04-18T10:11:40.745Z</time></trkpt><trkpt lat="43.4004833" lon="10.857985"><ele>509.00000000000006</ele><time>2026-04-18T10:11:42.744Z</time></trkpt><trkpt lat="43.4003667" lon="10.8579617"><ele>511.0</ele><time>2026-04-18T10:11:44.743Z</time></trkpt><trkpt lat="43.4002717" lon="10.8580083"><ele>504.75</ele><time>2026-04-18T10:11:45.748Z</time></trkpt><trkpt lat="43.40017" lon="10.85807"><ele>498.5</ele><time>2026-04-18T10:11:46.747Z</time></trkpt><trkpt lat="43.4000633" lon="10.8581217"><ele>492.25</ele><time>2026-04-18T10:11:47.751Z</time></trkpt><trkpt lat="43.3999583" lon="10.85816"><ele>486.0</ele><time>2026-04-18T10:11:48.746Z</time></trkpt><trkpt lat="43.3998083" lon="10.8582217"><ele>486.0</ele><time>2026-04-18T10:11:49.743Z</time></trkpt><trkpt lat="43.3996733" lon="10.858275"><ele>486.0</ele><time>2026-04-18T10:11:50.749Z</time></trkpt><trkpt lat="43.39954" lon="10.8583183"><ele>486.0</ele><time>2026-04-18T10:11:51.748Z</time></trkpt><trkpt lat="43.3994067" lon="10.8583983"><ele>486.0</ele><time>2026-04-18T10:11:52.746Z</time></trkpt><trkpt lat="43.3992867" lon="10.85849"><ele>484.5</ele><time>2026-04-18T10:11:53.745Z</time></trkpt><trkpt lat="43.3991683" lon="10.858575"><ele>483.0</ele><time>2026-04-18T10:11:54.743Z</time></trkpt><trkpt lat="43.399055" lon="10.858675"><ele>481.5</ele><time>2026-04-18T10:11:55.743Z</time></trkpt><trkpt lat="43.398955" lon="10.8587933"><ele>480.0</ele><time>2026-04-18T10:11:56.743Z</time></trkpt><trkpt lat="43.39888" lon="10.8589183"><ele>476.6666666666667</ele><time>2026-04-18T10:11:57.743Z</time></trkpt><trkpt lat="43.39883" lon="10.85903"><ele>473.33333333333337</ele><time>2026-04-18T10:11:58.747Z</time></trkpt><trkpt lat="43.3988033" lon="10.8591283"><ele>470.0</ele><time>2026-04-18T10:11:59.743Z</time></trkpt><trkpt lat="43.398785" lon="10.8592133"><ele>466.6666666666667</ele><time>2026-04-18T10:12:00.745Z</time></trkpt><trkpt lat="43.3987267" lon="10.8593233"><ele>463.33333333333337</ele><time>2026-04-18T10:12:02.744Z</time></trkpt><trkpt lat="43.398655" lon="10.859365"><ele>460.0</ele><time>2026-04-18T10:12:04.745Z</time></trkpt><trkpt lat="43.3986083" lon="10.8594767"><ele>460.0</ele><time>2026-04-18T10:12:06.745Z</time></trkpt><trkpt lat="43.3985667" lon="10.8596433"><ele>460.0</ele><time>2026-04-18T10:12:08.748Z</time></trkpt><trkpt lat="43.398585" lon="10.8597633"><ele>460.0</ele><time>2026-04-18T10:12:09.743Z</time></trkpt><trkpt lat="43.3986017" lon="10.859885"><ele>460.0</ele><time>2026-04-18T10:12:10.747Z</time></trkpt><trkpt lat="43.3986217" lon="10.86004"><ele>460.0</ele><time>2026-04-18T10:12:11.746Z</time></trkpt><trkpt lat="43.3986583" lon="10.860205"><ele>461.0</ele><time>2026-04-18T10:12:12.745Z</time></trkpt><trkpt lat="43.3986867" lon="10.860385"><ele>462.0</ele><time>2026-04-18T10:12:13.742Z</time></trkpt><trkpt lat="43.39871" lon="10.8605733"><ele>463.0</ele><time>2026-04-18T10:12:14.742Z</time></trkpt><trkpt lat="43.3987183" lon="10.8607567"><ele>464.0</ele><time>2026-04-18T10:12:15.745Z</time></trkpt><trkpt lat="43.3986867" lon="10.8609133"><ele>465.25</ele><time>2026-04-18T10:12:16.748Z</time></trkpt><trkpt lat="43.3986683" lon="10.86108"><ele>466.5</ele><time>2026-04-18T10:12:17.748Z</time></trkpt><trkpt lat="43.3986133" lon="10.86122"><ele>467.75</ele><time>2026-04-18T10:12:18.746Z</time></trkpt><trkpt lat="43.398535" lon="10.86134"><ele>469.0</ele><time>2026-04-18T10:12:19.745Z</time></trkpt><trkpt lat="43.3984117" lon="10.86145"><ele>469.0</ele><time>2026-04-18T10:12:20.745Z</time></trkpt><trkpt lat="43.39831" lon="10.861595"><ele>469.0</ele><time>2026-04-18T10:12:21.743Z</time></trkpt><trkpt lat="43.3981967" lon="10.8617367"><ele>469.0</ele><time>2026-04-18T10:12:22.749Z</time></trkpt><trkpt lat="43.3980733" lon="10.8618967"><ele>467.25</ele><time>2026-04-18T10:12:23.745Z</time></trkpt><trkpt lat="43.397985" lon="10.86205"><ele>465.5</ele><time>2026-04-18T10:12:24.745Z</time></trkpt><trkpt lat="43.3978967" lon="10.8621967"><ele>463.75</ele><time>2026-04-18T10:12:25.743Z</time></trkpt><trkpt lat="43.39778" lon="10.8623"><ele>462.0</ele><time>2026-04-18T10:12:26.743Z</time></trkpt><trkpt lat="43.3976817" lon="10.8624017"><ele>462.0</ele><time>2026-04-18T10:12:27.75Z</time></trkpt><trkpt lat="43.3975917" lon="10.8624467"><ele>462.00000000000006</ele><time>2026-04-18T10:12:28.747Z</time></trkpt><trkpt lat="43.397485" lon="10.86247"><ele>462.00000000000006</ele><time>2026-04-18T10:12:29.746Z</time></trkpt><trkpt lat="43.39743" lon="10.8624167"><ele>462.0</ele><time>2026-04-18T10:12:30.745Z</time></trkpt><trkpt lat="43.3972883" lon="10.862465"><ele>462.0</ele><time>2026-04-18T10:12:31.744Z</time></trkpt><trkpt lat="43.397165" lon="10.86248"><ele>461.5</ele><time>2026-04-18T10:12:32.743Z</time></trkpt><trkpt lat="43.3970467" lon="10.862475"><ele>461.0</ele><time>2026-04-18T10:12:33.748Z</time></trkpt><trkpt lat="43.39694" lon="10.8624167"><ele>460.5</ele><time>2026-04-18T10:12:34.743Z</time></trkpt><trkpt lat="43.3968317" lon="10.8624033"><ele>460.0</ele><time>2026-04-18T10:12:35.745Z</time></trkpt><trkpt lat="43.3967217" lon="10.86242"><ele>460.0</ele><time>2026-04-18T10:12:36.743Z</time></trkpt><trkpt lat="43.3966233" lon="10.8624133"><ele>460.0</ele><time>2026-04-18T10:12:37.742Z</time></trkpt><trkpt lat="43.39652" lon="10.86243"><ele>460.0</ele><time>2026-04-18T10:12:38.746Z</time></trkpt><trkpt lat="43.3964217" lon="10.86248"><ele>460.0</ele><time>2026-04-18T10:12:39.743Z</time></trkpt><trkpt lat="43.3963183" lon="10.8625267"><ele>460.0</ele><time>2026-04-18T10:12:40.741Z</time></trkpt><trkpt lat="43.3962217" lon="10.862565"><ele>457.8</ele><time>2026-04-18T10:12:41.746Z</time></trkpt><trkpt lat="43.3961317" lon="10.86259"><ele>455.6</ele><time>2026-04-18T10:12:42.743Z</time></trkpt><trkpt lat="43.3960517" lon="10.8626483"><ele>453.4</ele><time>2026-04-18T10:12:43.744Z</time></trkpt><trkpt lat="43.3959633" lon="10.8626917"><ele>451.2</ele><time>2026-04-18T10:12:44.744Z</time></trkpt><trkpt lat="43.3958733" lon="10.8627233"><ele>449.0</ele><time>2026-04-18T10:12:45.745Z</time></trkpt><trkpt lat="43.3957783" lon="10.8627067"><ele>449.0</ele><time>2026-04-18T10:12:46.743Z</time></trkpt><trkpt lat="43.3956783" lon="10.8626567"><ele>449.0</ele><time>2026-04-18T10:12:47.742Z</time></trkpt><trkpt lat="43.3955883" lon="10.862645"><ele>449.0</ele><time>2026-04-18T10:12:48.745Z</time></trkpt><trkpt lat="43.3955017" lon="10.8626067"><ele>449.0</ele><time>2026-04-18T10:12:49.743Z</time></trkpt><trkpt lat="43.3954117" lon="10.8625817"><ele>449.0</ele><time>2026-04-18T10:12:50.746Z</time></trkpt><trkpt lat="43.3953283" lon="10.86255"><ele>447.6</ele><time>2026-04-18T10:12:51.743Z</time></trkpt><trkpt lat="43.395245" lon="10.8625167"><ele>446.2</ele><time>2026-04-18T10:12:52.744Z</time></trkpt><trkpt lat="43.3951483" lon="10.86246"><ele>444.80000000000007</ele><time>2026-04-18T10:12:53.743Z</time></trkpt><trkpt lat="43.39506" lon="10.8624367"><ele>443.40000000000003</ele><time>2026-04-18T10:12:54.743Z</time></trkpt><trkpt lat="43.394965" lon="10.8624367"><ele>442.0</ele><time>2026-04-18T10:12:55.743Z</time></trkpt><trkpt lat="43.3948667" lon="10.8625033"><ele>442.0</ele><time>2026-04-18T10:12:56.742Z</time></trkpt><trkpt lat="43.3947367" lon="10.862535"><ele>442.0</ele><time>2026-04-18T10:12:57.739Z</time></trkpt><trkpt lat="43.39462" lon="10.8626317"><ele>442.0</ele><time>2026-04-18T10:12:58.749Z</time></trkpt><trkpt lat="43.39448" lon="10.86271"><ele>442.0</ele><time>2026-04-18T10:12:59.744Z</time></trkpt><trkpt lat="43.3943417" lon="10.8628"><ele>438.75</ele><time>2026-04-18T10:13:00.744Z</time></trkpt><trkpt lat="43.3942117" lon="10.8628917"><ele>435.5</ele><time>2026-04-18T10:13:01.743Z</time></trkpt><trkpt lat="43.3940933" lon="10.8629767"><ele>432.25</ele><time>2026-04-18T10:13:02.744Z</time></trkpt><trkpt lat="43.3939917" lon="10.8630417"><ele>429.0</ele><time>2026-04-18T10:13:03.74Z</time></trkpt><trkpt lat="43.393895" lon="10.8630667"><ele>426.3333333333333</ele><time>2026-04-18T10:13:04.744Z</time></trkpt><trkpt lat="43.3938167" lon="10.8630917"><ele>423.66666666666663</ele><time>2026-04-18T10:13:05.744Z</time></trkpt><trkpt lat="43.3937467" lon="10.8630867"><ele>421.0</ele><time>2026-04-18T10:13:06.747Z</time></trkpt><trkpt lat="43.3936883" lon="10.8630433"><ele>418.3333333333333</ele><time>2026-04-18T10:13:07.742Z</time></trkpt><trkpt lat="43.3936433" lon="10.862965"><ele>415.66666666666663</ele><time>2026-04-18T10:13:08.746Z</time></trkpt><trkpt lat="43.39365" lon="10.8628017"><ele>413.0</ele><time>2026-04-18T10:13:09.746Z</time></trkpt><trkpt lat="43.3936283" lon="10.862645"><ele>411.66666666666663</ele><time>2026-04-18T10:13:10.744Z</time></trkpt><trkpt lat="43.393605" lon="10.86243"><ele>410.33333333333337</ele><time>2026-04-18T10:13:11.742Z</time></trkpt><trkpt lat="43.39356" lon="10.8621667"><ele>409.0</ele><time>2026-04-18T10:13:12.744Z</time></trkpt><trkpt lat="43.3934983" lon="10.861905"><ele>409.33333333333337</ele><time>2026-04-18T10:13:13.741Z</time></trkpt><trkpt lat="43.39343" lon="10.8616667"><ele>409.66666666666663</ele><time>2026-04-18T10:13:14.743Z</time></trkpt><trkpt lat="43.3933583" lon="10.861465"><ele>410.0</ele><time>2026-04-18T10:13:15.743Z</time></trkpt><trkpt lat="43.393295" lon="10.8612817"><ele>410.0</ele><time>2026-04-18T10:13:16.744Z</time></trkpt><trkpt lat="43.3932417" lon="10.8611217"><ele>410.0</ele><time>2026-04-18T10:13:17.744Z</time></trkpt><trkpt lat="43.3932033" lon="10.860975"><ele>410.0</ele><time>2026-04-18T10:13:18.749Z</time></trkpt><trkpt lat="43.3931683" lon="10.8608517"><ele>410.0</ele><time>2026-04-18T10:13:19.744Z</time></trkpt><trkpt lat="43.3931333" lon="10.860755"><ele>410.0</ele><time>2026-04-18T10:13:20.748Z</time></trkpt><trkpt lat="43.393095" lon="10.860685"><ele>409.4</ele><time>2026-04-18T10:13:21.746Z</time></trkpt><trkpt lat="43.3930133" lon="10.8606367"><ele>408.8</ele><time>2026-04-18T10:13:23.742Z</time></trkpt><trkpt lat="43.3929283" lon="10.8607283"><ele>408.20000000000005</ele><time>2026-04-18T10:13:25.741Z</time></trkpt><trkpt lat="43.3929" lon="10.860855"><ele>407.6</ele><time>2026-04-18T10:13:26.748Z</time></trkpt><trkpt lat="43.3928933" lon="10.8610033"><ele>407.0</ele><time>2026-04-18T10:13:27.742Z</time></trkpt><trkpt lat="43.3928917" lon="10.8611567"><ele>403.0</ele><time>2026-04-18T10:13:28.741Z</time></trkpt><trkpt lat="43.3928817" lon="10.8613117"><ele>399.0</ele><time>2026-04-18T10:13:29.745Z</time></trkpt><trkpt lat="43.3928567" lon="10.8614617"><ele>395.0</ele><time>2026-04-18T10:13:30.744Z</time></trkpt><trkpt lat="43.3928133" lon="10.86159"><ele>391.0</ele><time>2026-04-18T10:13:31.749Z</time></trkpt><trkpt lat="43.392755" lon="10.86169"><ele>387.0</ele><time>2026-04-18T10:13:32.743Z</time></trkpt><trkpt lat="43.392685" lon="10.8617617"><ele>387.0</ele><time>2026-04-18T10:13:33.741Z</time></trkpt><trkpt lat="43.3926167" lon="10.86181"><ele>387.0</ele><time>2026-04-18T10:13:34.743Z</time></trkpt><trkpt lat="43.3925033" lon="10.861825"><ele>387.0</ele><time>2026-04-18T10:13:36.744Z</time></trkpt><trkpt lat="43.3924083" lon="10.861695"><ele>387.0</ele><time>2026-04-18T10:13:38.743Z</time></trkpt><trkpt lat="43.392365" lon="10.8615433"><ele>387.0</ele><time>2026-04-18T10:13:39.745Z</time></trkpt><trkpt lat="43.39231" lon="10.8613917"><ele>387.0</ele><time>2026-04-18T10:13:40.742Z</time></trkpt><trkpt lat="43.3922583" lon="10.8612383"><ele>387.0</ele><time>2026-04-18T10:13:41.74Z</time></trkpt><trkpt lat="43.3922033" lon="10.8610883"><ele>387.0</ele><time>2026-04-18T10:13:42.743Z</time></trkpt><trkpt lat="43.392145" lon="10.860945"><ele>387.0</ele><time>2026-04-18T10:13:43.741Z</time></trkpt><trkpt lat="43.39207" lon="10.8608183"><ele>381.75</ele><time>2026-04-18T10:13:44.745Z</time></trkpt><trkpt lat="43.3919617" lon="10.860735"><ele>376.5</ele><time>2026-04-18T10:13:45.74Z</time></trkpt><trkpt lat="43.3918533" lon="10.8606567"><ele>371.25</ele><time>2026-04-18T10:13:46.742Z</time></trkpt><trkpt lat="43.391725" lon="10.86061"><ele>366.0</ele><time>2026-04-18T10:13:47.745Z</time></trkpt><trkpt lat="43.39161" lon="10.8605517"><ele>366.0</ele><time>2026-04-18T10:13:48.747Z</time></trkpt><trkpt lat="43.391505" lon="10.8605033"><ele>366.0</ele><time>2026-04-18T10:13:49.744Z</time></trkpt><trkpt lat="43.3914133" lon="10.8604533"><ele>366.0</ele><time>2026-04-18T10:13:50.746Z</time></trkpt><trkpt lat="43.39133" lon="10.8603883"><ele>366.0</ele><time>2026-04-18T10:13:51.746Z</time></trkpt><trkpt lat="43.3912867" lon="10.8602533"><ele>366.0</ele><time>2026-04-18T10:13:52.745Z</time></trkpt><trkpt lat="43.3912533" lon="10.8600833"><ele>361.75</ele><time>2026-04-18T10:13:53.746Z</time></trkpt><trkpt lat="43.391195" lon="10.859925"><ele>357.5</ele><time>2026-04-18T10:13:54.744Z</time></trkpt><trkpt lat="43.3911433" lon="10.8597333"><ele>353.25</ele><time>2026-04-18T10:13:55.745Z</time></trkpt><trkpt lat="43.3911083" lon="10.8595317"><ele>349.0</ele><time>2026-04-18T10:13:56.743Z</time></trkpt><trkpt lat="43.39107" lon="10.8593267"><ele>348.0</ele><time>2026-04-18T10:13:57.743Z</time></trkpt><trkpt lat="43.3910317" lon="10.8591283"><ele>347.0</ele><time>2026-04-18T10:13:58.75Z</time></trkpt><trkpt lat="43.3910167" lon="10.85892"><ele>346.0</ele><time>2026-04-18T10:13:59.741Z</time></trkpt><trkpt lat="43.3909933" lon="10.8587167"><ele>346.0</ele><time>2026-04-18T10:14:00.747Z</time></trkpt><trkpt lat="43.3909683" lon="10.8585183"><ele>346.0</ele><time>2026-04-18T10:14:01.744Z</time></trkpt><trkpt lat="43.39094" lon="10.8583417"><ele>346.0</ele><time>2026-04-18T10:14:02.743Z</time></trkpt><trkpt lat="43.39092" lon="10.8581867"><ele>346.0</ele><time>2026-04-18T10:14:03.742Z</time></trkpt><trkpt lat="43.3909117" lon="10.8580483"><ele>344.25</ele><time>2026-04-18T10:14:04.745Z</time></trkpt><trkpt lat="43.39088" lon="10.8579283"><ele>342.5</ele><time>2026-04-18T10:14:05.743Z</time></trkpt><trkpt lat="43.3908067" lon="10.8578317"><ele>340.75</ele><time>2026-04-18T10:14:06.746Z</time></trkpt><trkpt lat="43.3907083" lon="10.85774"><ele>339.0</ele><time>2026-04-18T10:14:07.746Z</time></trkpt><trkpt lat="43.3905717" lon="10.8576617"><ele>336.0</ele><time>2026-04-18T10:14:08.747Z</time></trkpt><trkpt lat="43.3904583" lon="10.8575383"><ele>333.0</ele><time>2026-04-18T10:14:09.745Z</time></trkpt><trkpt lat="43.39034" lon="10.8574067"><ele>330.0</ele><time>2026-04-18T10:14:10.745Z</time></trkpt><trkpt lat="43.39021" lon="10.857325"><ele>327.0</ele><time>2026-04-18T10:14:11.741Z</time></trkpt><trkpt lat="43.390095" lon="10.857235"><ele>327.0</ele><time>2026-04-18T10:14:12.74Z</time></trkpt><trkpt lat="43.3899767" lon="10.8571883"><ele>327.0</ele><time>2026-04-18T10:14:13.741Z</time></trkpt><trkpt lat="43.389845" lon="10.8571333"><ele>327.0</ele><time>2026-04-18T10:14:14.746Z</time></trkpt><trkpt lat="43.3897733" lon="10.85702"><ele>327.0</ele><time>2026-04-18T10:14:15.743Z</time></trkpt><trkpt lat="43.3897183" lon="10.8568717"><ele>325.5</ele><time>2026-04-18T10:14:16.743Z</time></trkpt><trkpt lat="43.3896433" lon="10.8567583"><ele>324.0</ele><time>2026-04-18T10:14:17.742Z</time></trkpt><trkpt lat="43.38954" lon="10.8567917"><ele>322.5</ele><time>2026-04-18T10:14:18.745Z</time></trkpt><trkpt lat="43.389455" lon="10.8566417"><ele>321.0</ele><time>2026-04-18T10:14:19.744Z</time></trkpt><trkpt lat="43.3893933" lon="10.8565367"><ele>320.5</ele><time>2026-04-18T10:14:20.746Z</time></trkpt><trkpt lat="43.3892983" lon="10.856455"><ele>320.0</ele><time>2026-04-18T10:14:21.743Z</time></trkpt><trkpt lat="43.3891683" lon="10.8564183"><ele>319.5</ele><time>2026-04-18T10:14:22.745Z</time></trkpt><trkpt lat="43.3891067" lon="10.8563067"><ele>319.0</ele><time>2026-04-18T10:14:23.742Z</time></trkpt><trkpt lat="43.3889933" lon="10.85624"><ele>319.0</ele><time>2026-04-18T10:14:24.743Z</time></trkpt><trkpt lat="43.3889" lon="10.856155"><ele>319.0</ele><time>2026-04-18T10:14:25.743Z</time></trkpt><trkpt lat="43.3887967" lon="10.8560917"><ele>319.0</ele><time>2026-04-18T10:14:26.75Z</time></trkpt><trkpt lat="43.38872" lon="10.8560017"><ele>319.0</ele><time>2026-04-18T10:14:27.743Z</time></trkpt><trkpt lat="43.38866" lon="10.855885"><ele>319.0</ele><time>2026-04-18T10:14:28.748Z</time></trkpt><trkpt lat="43.38858" lon="10.8557567"><ele>316.75</ele><time>2026-04-18T10:14:29.745Z</time></trkpt><trkpt lat="43.3884867" lon="10.8556017"><ele>314.5</ele><time>2026-04-18T10:14:30.741Z</time></trkpt><trkpt lat="43.38847" lon="10.85541"><ele>312.25</ele><time>2026-04-18T10:14:31.747Z</time></trkpt><trkpt lat="43.3883683" lon="10.8552933"><ele>310.0</ele><time>2026-04-18T10:14:32.743Z</time></trkpt><trkpt lat="43.388325" lon="10.8551517"><ele>309.25</ele><time>2026-04-18T10:14:33.749Z</time></trkpt><trkpt lat="43.3882667" lon="10.8550083"><ele>308.5</ele><time>2026-04-18T10:14:34.742Z</time></trkpt><trkpt lat="43.3881967" lon="10.8548717"><ele>307.75</ele><time>2026-04-18T10:14:35.742Z</time></trkpt><trkpt lat="43.3881667" lon="10.8547"><ele>307.0</ele><time>2026-04-18T10:14:36.745Z</time></trkpt><trkpt lat="43.3881083" lon="10.854555"><ele>307.0</ele><time>2026-04-18T10:14:37.748Z</time></trkpt><trkpt lat="43.38803" lon="10.8544433"><ele>307.0</ele><time>2026-04-18T10:14:38.747Z</time></trkpt><trkpt lat="43.3879533" lon="10.854315"><ele>307.0</ele><time>2026-04-18T10:14:39.743Z</time></trkpt><trkpt lat="43.3878333" lon="10.854215"><ele>307.0</ele><time>2026-04-18T10:14:40.743Z</time></trkpt><trkpt lat="43.387725" lon="10.8540833"><ele>303.5</ele><time>2026-04-18T10:14:41.743Z</time></trkpt><trkpt lat="43.3876083" lon="10.8539817"><ele>300.0</ele><time>2026-04-18T10:14:42.742Z</time></trkpt><trkpt lat="43.3875133" lon="10.853875"><ele>296.5</ele><time>2026-04-18T10:14:43.743Z</time></trkpt><trkpt lat="43.3874267" lon="10.853785"><ele>293.0</ele><time>2026-04-18T10:14:44.744Z</time></trkpt><trkpt lat="43.387355" lon="10.8537067"><ele>293.0</ele><time>2026-04-18T10:14:45.749Z</time></trkpt><trkpt lat="43.387295" lon="10.8536333"><ele>293.0</ele><time>2026-04-18T10:14:46.743Z</time></trkpt><trkpt lat="43.3872133" lon="10.8536"><ele>293.0</ele><time>2026-04-18T10:14:47.745Z</time></trkpt><trkpt lat="43.3871083" lon="10.8536167"><ele>293.0</ele><time>2026-04-18T10:14:48.746Z</time></trkpt><trkpt lat="43.3870017" lon="10.85364"><ele>293.0</ele><time>2026-04-18T10:14:49.742Z</time></trkpt><trkpt lat="43.3868933" lon="10.8536817"><ele>291.2</ele><time>2026-04-18T10:14:50.745Z</time></trkpt><trkpt lat="43.386795" lon="10.8537133"><ele>289.4</ele><time>2026-04-18T10:14:51.746Z</time></trkpt><trkpt lat="43.3867067" lon="10.85374"><ele>287.59999999999997</ele><time>2026-04-18T10:14:52.744Z</time></trkpt><trkpt lat="43.38664" lon="10.8537983"><ele>285.8</ele><time>2026-04-18T10:14:53.745Z</time></trkpt><trkpt lat="43.3866067" lon="10.8538983"><ele>284.0</ele><time>2026-04-18T10:14:54.742Z</time></trkpt><trkpt lat="43.386615" lon="10.8540533"><ele>284.0</ele><time>2026-04-18T10:14:55.743Z</time></trkpt><trkpt lat="43.3866183" lon="10.854195"><ele>284.0</ele><time>2026-04-18T10:14:56.748Z</time></trkpt><trkpt lat="43.3866083" lon="10.8543283"><ele>284.0</ele><time>2026-04-18T10:14:57.742Z</time></trkpt><trkpt lat="43.3866083" lon="10.8544433"><ele>284.0</ele><time>2026-04-18T10:14:58.746Z</time></trkpt><trkpt lat="43.3866283" lon="10.8545367"><ele>284.0</ele><time>2026-04-18T10:14:59.743Z</time></trkpt><trkpt lat="43.3865733" lon="10.8546667"><ele>283.59999999999997</ele><time>2026-04-18T10:15:01.741Z</time></trkpt><trkpt lat="43.386445" lon="10.854705"><ele>283.2</ele><time>2026-04-18T10:15:03.745Z</time></trkpt><trkpt lat="43.386345" lon="10.8547"><ele>282.79999999999995</ele><time>2026-04-18T10:15:04.744Z</time></trkpt><trkpt lat="43.3862467" lon="10.854705"><ele>282.4</ele><time>2026-04-18T10:15:05.744Z</time></trkpt><trkpt lat="43.3861517" lon="10.854715"><ele>282.0</ele><time>2026-04-18T10:15:06.747Z</time></trkpt><trkpt lat="43.386065" lon="10.85477"><ele>279.6666666666667</ele><time>2026-04-18T10:15:07.744Z</time></trkpt><trkpt lat="43.386" lon="10.854875"><ele>277.3333333333333</ele><time>2026-04-18T10:15:08.75Z</time></trkpt><trkpt lat="43.3859517" lon="10.855005"><ele>275.0</ele><time>2026-04-18T10:15:09.745Z</time></trkpt><trkpt lat="43.385885" lon="10.85507"><ele>272.66666666666663</ele><time>2026-04-18T10:15:10.744Z</time></trkpt><trkpt lat="43.38581" lon="10.8551083"><ele>270.3333333333333</ele><time>2026-04-18T10:15:11.747Z</time></trkpt><trkpt lat="43.38573" lon="10.8550983"><ele>268.0</ele><time>2026-04-18T10:15:12.748Z</time></trkpt><trkpt lat="43.3856383" lon="10.8550367"><ele>268.0</ele><time>2026-04-18T10:15:13.741Z</time></trkpt><trkpt lat="43.3855367" lon="10.85499"><ele>268.0</ele><time>2026-04-18T10:15:14.747Z</time></trkpt><trkpt lat="43.3854217" lon="10.8549167"><ele>268.0</ele><time>2026-04-18T10:15:15.743Z</time></trkpt><trkpt lat="43.385295" lon="10.8548417"><ele>268.0</ele><time>2026-04-18T10:15:16.742Z</time></trkpt><trkpt lat="43.385165" lon="10.8547767"><ele>265.0</ele><time>2026-04-18T10:15:17.748Z</time></trkpt><trkpt lat="43.3850383" lon="10.854705"><ele>262.0</ele><time>2026-04-18T10:15:18.75Z</time></trkpt><trkpt lat="43.3849" lon="10.85462"><ele>259.0</ele><time>2026-04-18T10:15:19.751Z</time></trkpt><trkpt lat="43.38482" lon="10.8545633"><ele>256.0</ele><time>2026-04-18T10:15:20.747Z</time></trkpt><trkpt lat="43.3847433" lon="10.854535"><ele>254.33333333333331</ele><time>2026-04-18T10:15:21.747Z</time></trkpt><trkpt lat="43.38466" lon="10.8544917"><ele>252.66666666666666</ele><time>2026-04-18T10:15:22.745Z</time></trkpt><trkpt lat="43.3845733" lon="10.854495"><ele>251.0</ele><time>2026-04-18T10:15:23.747Z</time></trkpt><trkpt lat="43.3844867" lon="10.8544867"><ele>249.33333333333331</ele><time>2026-04-18T10:15:24.743Z</time></trkpt><trkpt lat="43.3844083" lon="10.8544733"><ele>247.66666666666666</ele><time>2026-04-18T10:15:25.744Z</time></trkpt><trkpt lat="43.3843283" lon="10.8544567"><ele>246.0</ele><time>2026-04-18T10:15:26.746Z</time></trkpt><trkpt lat="43.3842183" lon="10.854475"><ele>246.0</ele><time>2026-04-18T10:15:28.746Z</time></trkpt><trkpt lat="43.384155" lon="10.8545033"><ele>246.0</ele><time>2026-04-18T10:15:30.744Z</time></trkpt><trkpt lat="43.38408" lon="10.85454"><ele>246.0</ele><time>2026-04-18T10:15:46.744Z</time></trkpt><trkpt lat="43.38398" lon="10.85463"><ele>246.0</ele><time>2026-04-18T10:15:48.743Z</time></trkpt><trkpt lat="43.3839117" lon="10.8546083"><ele>246.0</ele><time>2026-04-18T10:15:50.75Z</time></trkpt><trkpt lat="43.38383" lon="10.8546317"><ele>246.0</ele><time>2026-04-18T10:15:53.746Z</time></trkpt><trkpt lat="43.3837733" lon="10.8546833"><ele>244.25</ele><time>2026-04-18T10:15:55.745Z</time></trkpt><trkpt lat="43.3836917" lon="10.85475"><ele>242.5</ele><time>2026-04-18T10:15:57.743Z</time></trkpt><trkpt lat="43.38357" lon="10.8547933"><ele>240.75</ele><time>2026-04-18T10:15:59.744Z</time></trkpt><trkpt lat="43.383455" lon="10.8547833"><ele>239.0</ele><time>2026-04-18T10:16:01.743Z</time></trkpt><trkpt lat="43.3833383" lon="10.85482"><ele>239.0</ele><time>2026-04-18T10:16:03.742Z</time></trkpt><trkpt lat="43.383215" lon="10.85485"><ele>238.99999999999997</ele><time>2026-04-18T10:16:05.745Z</time></trkpt><trkpt lat="43.3831467" lon="10.8549083"><ele>238.99999999999997</ele><time>2026-04-18T10:16:06.745Z</time></trkpt><trkpt lat="43.38307" lon="10.8549767"><ele>239.0</ele><time>2026-04-18T10:16:07.744Z</time></trkpt><trkpt lat="43.3829883" lon="10.8550183"><ele>239.0</ele><time>2026-04-18T10:16:08.747Z</time></trkpt><trkpt lat="43.382905" lon="10.85507"><ele>237.39999999999998</ele><time>2026-04-18T10:16:09.744Z</time></trkpt><trkpt lat="43.3828183" lon="10.8551"><ele>235.79999999999998</ele><time>2026-04-18T10:16:10.743Z</time></trkpt><trkpt lat="43.38273" lon="10.8550833"><ele>234.20000000000002</ele><time>2026-04-18T10:16:11.744Z</time></trkpt><trkpt lat="43.3826383" lon="10.855035"><ele>232.60000000000002</ele><time>2026-04-18T10:16:12.746Z</time></trkpt><trkpt lat="43.3825483" lon="10.8549983"><ele>231.0</ele><time>2026-04-18T10:16:13.749Z</time></trkpt><trkpt lat="43.3824533" lon="10.85494"><ele>231.0</ele><time>2026-04-18T10:16:14.746Z</time></trkpt><trkpt lat="43.3823467" lon="10.8548783"><ele>231.0</ele><time>2026-04-18T10:16:15.744Z</time></trkpt><trkpt lat="43.3822367" lon="10.8548117"><ele>231.0</ele><time>2026-04-18T10:16:16.746Z</time></trkpt><trkpt lat="43.3821317" lon="10.8547317"><ele>231.0</ele><time>2026-04-18T10:16:17.746Z</time></trkpt><trkpt lat="43.3820267" lon="10.8546817"><ele>230.0</ele><time>2026-04-18T10:16:18.745Z</time></trkpt><trkpt lat="43.381915" lon="10.85464"><ele>229.0</ele><time>2026-04-18T10:16:19.749Z</time></trkpt><trkpt lat="43.3818183" lon="10.8545583"><ele>228.0</ele><time>2026-04-18T10:16:20.749Z</time></trkpt><trkpt lat="43.38171" lon="10.854495"><ele>227.0</ele><time>2026-04-18T10:16:21.75Z</time></trkpt><trkpt lat="43.3816317" lon="10.8543833"><ele>226.0</ele><time>2026-04-18T10:16:22.747Z</time></trkpt><trkpt lat="43.3815733" lon="10.854215"><ele>225.0</ele><time>2026-04-18T10:16:23.745Z</time></trkpt><trkpt lat="43.3815083" lon="10.85408"><ele>224.0</ele><time>2026-04-18T10:16:24.745Z</time></trkpt><trkpt lat="43.38143" lon="10.8539517"><ele>223.0</ele><time>2026-04-18T10:16:25.744Z</time></trkpt><trkpt lat="43.381345" lon="10.8538433"><ele>223.0</ele><time>2026-04-18T10:16:26.748Z</time></trkpt><trkpt lat="43.3812617" lon="10.853755"><ele>223.0</ele><time>2026-04-18T10:16:27.746Z</time></trkpt><trkpt lat="43.381185" lon="10.85368"><ele>223.0</ele><time>2026-04-18T10:16:28.749Z</time></trkpt><trkpt lat="43.3811233" lon="10.8536117"><ele>223.0</ele><time>2026-04-18T10:16:29.744Z</time></trkpt><trkpt lat="43.381075" lon="10.8534967"><ele>223.0</ele><time>2026-04-18T10:16:31.743Z</time></trkpt><trkpt lat="43.3810983" lon="10.8533317"><ele>221.8</ele><time>2026-04-18T10:16:33.744Z</time></trkpt><trkpt lat="43.3810983" lon="10.85321"><ele>220.60000000000002</ele><time>2026-04-18T10:16:34.745Z</time></trkpt><trkpt lat="43.3810833" lon="10.8530767"><ele>219.39999999999998</ele><time>2026-04-18T10:16:35.747Z</time></trkpt><trkpt lat="43.3810483" lon="10.852935"><ele>218.2</ele><time>2026-04-18T10:16:36.747Z</time></trkpt><trkpt lat="43.3809967" lon="10.85278"><ele>217.0</ele><time>2026-04-18T10:16:37.745Z</time></trkpt><trkpt lat="43.38093" lon="10.8526067"><ele>215.66666666666666</ele><time>2026-04-18T10:16:38.747Z</time></trkpt><trkpt lat="43.380845" lon="10.8523983"><ele>214.33333333333331</ele><time>2026-04-18T10:16:39.742Z</time></trkpt><trkpt lat="43.3807533" lon="10.85219"><ele>213.0</ele><time>2026-04-18T10:16:40.746Z</time></trkpt><trkpt lat="43.3806683" lon="10.8520033"><ele>213.0</ele><time>2026-04-18T10:16:41.744Z</time></trkpt><trkpt lat="43.38059" lon="10.8518333"><ele>213.0</ele><time>2026-04-18T10:16:42.741Z</time></trkpt><trkpt lat="43.380515" lon="10.8516783"><ele>213.0</ele><time>2026-04-18T10:16:43.744Z</time></trkpt><trkpt lat="43.3804517" lon="10.8515333"><ele>213.0</ele><time>2026-04-18T10:16:44.749Z</time></trkpt><trkpt lat="43.3804033" lon="10.8513983"><ele>211.83333333333334</ele><time>2026-04-18T10:16:45.743Z</time></trkpt><trkpt lat="43.3803683" lon="10.8512783"><ele>210.66666666666669</ele><time>2026-04-18T10:16:46.744Z</time></trkpt><trkpt lat="43.3803417" lon="10.8511733"><ele>209.5</ele><time>2026-04-18T10:16:47.748Z</time></trkpt><trkpt lat="43.38032" lon="10.8510667"><ele>208.33333333333334</ele><time>2026-04-18T10:16:48.751Z</time></trkpt><trkpt lat="43.3803067" lon="10.8509633"><ele>207.16666666666669</ele><time>2026-04-18T10:16:49.747Z</time></trkpt><trkpt lat="43.3802967" lon="10.8508667"><ele>206.0</ele><time>2026-04-18T10:16:50.745Z</time></trkpt><trkpt lat="43.380285" lon="10.85077"><ele>205.33333333333334</ele><time>2026-04-18T10:16:51.745Z</time></trkpt><trkpt lat="43.3802783" lon="10.8506783"><ele>204.66666666666669</ele><time>2026-04-18T10:16:52.748Z</time></trkpt><trkpt lat="43.3802683" lon="10.850585"><ele>204.0</ele><time>2026-04-18T10:16:54.747Z</time></trkpt><trkpt lat="43.3802367" lon="10.8504667"><ele>203.33333333333331</ele><time>2026-04-18T10:19:50.746Z</time></trkpt><trkpt lat="43.3801817" lon="10.85034"><ele>202.66666666666666</ele><time>2026-04-18T10:19:52.743Z</time></trkpt><trkpt lat="43.3801383" lon="10.8502717"><ele>202.0</ele><time>2026-04-18T10:19:53.741Z</time></trkpt><trkpt lat="43.3801033" lon="10.8501967"><ele>201.99999999999997</ele><time>2026-04-18T10:19:54.742Z</time></trkpt><trkpt lat="43.3800617" lon="10.8501283"><ele>202.0</ele><time>2026-04-18T10:19:55.744Z</time></trkpt><trkpt lat="43.3800283" lon="10.8500467"><ele>202.0</ele><time>2026-04-18T10:19:56.75Z</time></trkpt><trkpt lat="43.38002" lon="10.8499467"><ele>202.0</ele><time>2026-04-18T10:19:57.745Z</time></trkpt><trkpt lat="43.3799967" lon="10.8498417"><ele>201.99999999999997</ele><time>2026-04-18T10:19:58.746Z</time></trkpt><trkpt lat="43.3799867" lon="10.8497283"><ele>202.0</ele><time>2026-04-18T10:19:59.743Z</time></trkpt><trkpt lat="43.3799783" lon="10.8496017"><ele>200.39999999999998</ele><time>2026-04-18T10:20:00.742Z</time></trkpt><trkpt lat="43.37996" lon="10.8494833"><ele>198.79999999999998</ele><time>2026-04-18T10:20:01.742Z</time></trkpt><trkpt lat="43.3799267" lon="10.8493683"><ele>197.2</ele><time>2026-04-18T10:20:02.745Z</time></trkpt><trkpt lat="43.379875" lon="10.849265"><ele>195.6</ele><time>2026-04-18T10:20:03.745Z</time></trkpt><trkpt lat="43.379825" lon="10.8491583"><ele>194.0</ele><time>2026-04-18T10:20:04.739Z</time></trkpt><trkpt lat="43.3797783" lon="10.849045"><ele>192.6</ele><time>2026-04-18T10:20:05.743Z</time></trkpt><trkpt lat="43.3797117" lon="10.8489467"><ele>191.2</ele><time>2026-04-18T10:20:06.748Z</time></trkpt><trkpt lat="43.3796483" lon="10.8488383"><ele>189.79999999999998</ele><time>2026-04-18T10:20:07.741Z</time></trkpt><trkpt lat="43.3795733" lon="10.84874"><ele>188.39999999999998</ele><time>2026-04-18T10:20:08.745Z</time></trkpt><trkpt lat="43.37948" lon="10.8486733"><ele>187.0</ele><time>2026-04-18T10:20:09.745Z</time></trkpt><trkpt lat="43.37938" lon="10.8486067"><ele>185.6</ele><time>2026-04-18T10:20:10.741Z</time></trkpt><trkpt lat="43.3793333" lon="10.8485067"><ele>184.2</ele><time>2026-04-18T10:20:11.748Z</time></trkpt><trkpt lat="43.37925" lon="10.8484683"><ele>182.8</ele><time>2026-04-18T10:20:12.746Z</time></trkpt><trkpt lat="43.3791833" lon="10.84838"><ele>181.4</ele><time>2026-04-18T10:20:13.746Z</time></trkpt><trkpt lat="43.3791617" lon="10.848265"><ele>180.0</ele><time>2026-04-18T10:20:14.745Z</time></trkpt><trkpt lat="43.3790867" lon="10.84817"><ele>180.0</ele><time>2026-04-18T10:20:15.744Z</time></trkpt><trkpt lat="43.379065" lon="10.8480583"><ele>180.0</ele><time>2026-04-18T10:20:16.744Z</time></trkpt><trkpt lat="43.3790233" lon="10.8479417"><ele>180.0</ele><time>2026-04-18T10:20:17.742Z</time></trkpt><trkpt lat="43.3790333" lon="10.8477967"><ele>180.0</ele><time>2026-04-18T10:20:18.745Z</time></trkpt><trkpt lat="43.3790167" lon="10.8476867"><ele>180.0</ele><time>2026-04-18T10:20:19.744Z</time></trkpt><trkpt lat="43.3789983" lon="10.8475683"><ele>180.33333333333334</ele><time>2026-04-18T10:20:20.751Z</time></trkpt><trkpt lat="43.378955" lon="10.8474633"><ele>180.66666666666666</ele><time>2026-04-18T10:20:21.746Z</time></trkpt><trkpt lat="43.3789" lon="10.847355"><ele>181.0</ele><time>2026-04-18T10:20:22.741Z</time></trkpt><trkpt lat="43.3789033" lon="10.8472067"><ele>181.33333333333331</ele><time>2026-04-18T10:20:23.748Z</time></trkpt><trkpt lat="43.3788817" lon="10.8471167"><ele>181.66666666666666</ele><time>2026-04-18T10:20:24.743Z</time></trkpt><trkpt lat="43.3788617" lon="10.8470117"><ele>182.0</ele><time>2026-04-18T10:20:25.751Z</time></trkpt><trkpt lat="43.3788483" lon="10.8468783"><ele>180.83333333333331</ele><time>2026-04-18T10:20:26.747Z</time></trkpt><trkpt lat="43.378825" lon="10.846775"><ele>179.66666666666666</ele><time>2026-04-18T10:20:27.742Z</time></trkpt><trkpt lat="43.3787833" lon="10.84668"><ele>178.5</ele><time>2026-04-18T10:20:28.746Z</time></trkpt><trkpt lat="43.378745" lon="10.8465633"><ele>177.33333333333334</ele><time>2026-04-18T10:20:29.747Z</time></trkpt><trkpt lat="43.378695" lon="10.8464483"><ele>176.16666666666669</ele><time>2026-04-18T10:20:30.746Z</time></trkpt><trkpt lat="43.3786417" lon="10.8463633"><ele>175.0</ele><time>2026-04-18T10:20:31.745Z</time></trkpt><trkpt lat="43.37859" lon="10.846245"><ele>175.0</ele><time>2026-04-18T10:20:32.749Z</time></trkpt><trkpt lat="43.3785417" lon="10.84614"><ele>175.0</ele><time>2026-04-18T10:20:33.742Z</time></trkpt><trkpt lat="43.3785083" lon="10.846"><ele>175.0</ele><time>2026-04-18T10:20:34.748Z</time></trkpt><trkpt lat="43.3784717" lon="10.8458583"><ele>175.0</ele><time>2026-04-18T10:20:35.744Z</time></trkpt><trkpt lat="43.3784317" lon="10.8457283"><ele>175.0</ele><time>2026-04-18T10:20:36.743Z</time></trkpt><trkpt lat="43.3783817" lon="10.8456117"><ele>175.6</ele><time>2026-04-18T10:20:37.742Z</time></trkpt><trkpt lat="43.3783383" lon="10.845495"><ele>176.2</ele><time>2026-04-18T10:20:38.743Z</time></trkpt><trkpt lat="43.378305" lon="10.84537"><ele>176.8</ele><time>2026-04-18T10:20:39.75Z</time></trkpt><trkpt lat="43.3782783" lon="10.84524"><ele>177.4</ele><time>2026-04-18T10:20:40.745Z</time></trkpt><trkpt lat="43.3782267" lon="10.8451267"><ele>178.0</ele><time>2026-04-18T10:20:41.743Z</time></trkpt><trkpt lat="43.37818" lon="10.845015"><ele>178.2</ele><time>2026-04-18T10:20:42.746Z</time></trkpt><trkpt lat="43.3781133" lon="10.844925"><ele>178.4</ele><time>2026-04-18T10:20:43.747Z</time></trkpt><trkpt lat="43.3780533" lon="10.8448317"><ele>178.6</ele><time>2026-04-18T10:20:44.748Z</time></trkpt><trkpt lat="43.3779783" lon="10.844725"><ele>178.79999999999998</ele><time>2026-04-18T10:20:45.741Z</time></trkpt><trkpt lat="43.3779033" lon="10.8446133"><ele>179.0</ele><time>2026-04-18T10:20:46.744Z</time></trkpt><trkpt lat="43.377835" lon="10.8444933"><ele>178.66666666666666</ele><time>2026-04-18T10:20:47.743Z</time></trkpt><trkpt lat="43.3777717" lon="10.8443867"><ele>178.33333333333331</ele><time>2026-04-18T10:20:48.744Z</time></trkpt><trkpt lat="43.37772" lon="10.844285"><ele>178.0</ele><time>2026-04-18T10:20:49.742Z</time></trkpt><trkpt lat="43.3776767" lon="10.84418"><ele>177.66666666666666</ele><time>2026-04-18T10:20:50.745Z</time></trkpt><trkpt lat="43.37766" lon="10.84407"><ele>177.33333333333334</ele><time>2026-04-18T10:20:51.742Z</time></trkpt><trkpt lat="43.37765" lon="10.8439567"><ele>177.0</ele><time>2026-04-18T10:20:52.75Z</time></trkpt><trkpt lat="43.3776517" lon="10.84384"><ele>177.0</ele><time>2026-04-18T10:20:53.746Z</time></trkpt><trkpt lat="43.37764" lon="10.843725"><ele>177.0</ele><time>2026-04-18T10:20:54.742Z</time></trkpt><trkpt lat="43.3776267" lon="10.843615"><ele>177.0</ele><time>2026-04-18T10:20:55.744Z</time></trkpt><trkpt lat="43.3775983" lon="10.8435133"><ele>177.0</ele><time>2026-04-18T10:20:56.747Z</time></trkpt><trkpt lat="43.3775783" lon="10.8434083"><ele>177.0</ele><time>2026-04-18T10:20:57.748Z</time></trkpt><trkpt lat="43.3775617" lon="10.843305"><ele>177.0</ele><time>2026-04-18T10:20:58.749Z</time></trkpt><trkpt lat="43.377535" lon="10.84321"><ele>177.0</ele><time>2026-04-18T10:20:59.748Z</time></trkpt><trkpt lat="43.3775117" lon="10.8431167"><ele>177.0</ele><time>2026-04-18T10:21:00.745Z</time></trkpt><trkpt lat="43.3774867" lon="10.8430217"><ele>177.0</ele><time>2026-04-18T10:21:01.743Z</time></trkpt><trkpt lat="43.377455" lon="10.84293"><ele>177.0</ele><time>2026-04-18T10:21:02.745Z</time></trkpt><trkpt lat="43.3774167" lon="10.842835"><ele>177.0</ele><time>2026-04-18T10:21:03.743Z</time></trkpt><trkpt lat="43.37737" lon="10.842745"><ele>177.0</ele><time>2026-04-18T10:21:04.743Z</time></trkpt><trkpt lat="43.377325" lon="10.84265"><ele>175.66666666666666</ele><time>2026-04-18T10:21:05.747Z</time></trkpt><trkpt lat="43.377275" lon="10.842565"><ele>174.33333333333334</ele><time>2026-04-18T10:21:06.746Z</time></trkpt><trkpt lat="43.3772233" lon="10.8424817"><ele>173.0</ele><time>2026-04-18T10:21:07.748Z</time></trkpt><trkpt lat="43.3771633" lon="10.8424033"><ele>171.66666666666669</ele><time>2026-04-18T10:21:08.743Z</time></trkpt><trkpt lat="43.377105" lon="10.8423233"><ele>170.33333333333334</ele><time>2026-04-18T10:21:09.742Z</time></trkpt><trkpt lat="43.377035" lon="10.842245"><ele>169.0</ele><time>2026-04-18T10:21:10.742Z</time></trkpt><trkpt lat="43.3769717" lon="10.84216"><ele>169.0</ele><time>2026-04-18T10:21:11.743Z</time></trkpt><trkpt lat="43.3769083" lon="10.8420783"><ele>169.0</ele><time>2026-04-18T10:21:12.742Z</time></trkpt><trkpt lat="43.3768367" lon="10.8420117"><ele>169.0</ele><time>2026-04-18T10:21:13.748Z</time></trkpt><trkpt lat="43.3767767" lon="10.8419367"><ele>169.0</ele><time>2026-04-18T10:21:14.752Z</time></trkpt><trkpt lat="43.3767167" lon="10.8418567"><ele>169.0</ele><time>2026-04-18T10:21:15.746Z</time></trkpt><trkpt lat="43.3766567" lon="10.84178"><ele>169.0</ele><time>2026-04-18T10:21:16.745Z</time></trkpt><trkpt lat="43.37661" lon="10.8416883"><ele>168.16666666666669</ele><time>2026-04-18T10:21:17.742Z</time></trkpt><trkpt lat="43.37658" lon="10.8415783"><ele>167.33333333333334</ele><time>2026-04-18T10:21:18.746Z</time></trkpt><trkpt lat="43.3765367" lon="10.8414833"><ele>166.5</ele><time>2026-04-18T10:21:19.745Z</time></trkpt><trkpt lat="43.3765017" lon="10.841385"><ele>165.66666666666666</ele><time>2026-04-18T10:21:20.747Z</time></trkpt><trkpt lat="43.3764617" lon="10.84129"><ele>164.83333333333331</ele><time>2026-04-18T10:21:21.742Z</time></trkpt><trkpt lat="43.37641" lon="10.8411983"><ele>164.0</ele><time>2026-04-18T10:21:22.744Z</time></trkpt><trkpt lat="43.37635" lon="10.8411133"><ele>163.33333333333331</ele><time>2026-04-18T10:21:23.744Z</time></trkpt><trkpt lat="43.3762917" lon="10.8410333"><ele>162.66666666666666</ele><time>2026-04-18T10:21:24.742Z</time></trkpt><trkpt lat="43.3762317" lon="10.840955"><ele>162.0</ele><time>2026-04-18T10:21:25.743Z</time></trkpt><trkpt lat="43.3761733" lon="10.84088"><ele>161.33333333333334</ele><time>2026-04-18T10:21:26.746Z</time></trkpt><trkpt lat="43.3761083" lon="10.840805"><ele>160.66666666666669</ele><time>2026-04-18T10:21:27.745Z</time></trkpt><trkpt lat="43.3760383" lon="10.8407317"><ele>160.0</ele><time>2026-04-18T10:21:28.746Z</time></trkpt><trkpt lat="43.3759733" lon="10.8406467"><ele>160.0</ele><time>2026-04-18T10:21:29.744Z</time></trkpt><trkpt lat="43.375915" lon="10.8405517"><ele>160.0</ele><time>2026-04-18T10:21:30.745Z</time></trkpt><trkpt lat="43.3758433" lon="10.84047"><ele>160.0</ele><time>2026-04-18T10:21:31.742Z</time></trkpt><trkpt lat="43.3757783" lon="10.840375"><ele>160.0</ele><time>2026-04-18T10:21:32.745Z</time></trkpt><trkpt lat="43.37572" lon="10.8402783"><ele>160.0</ele><time>2026-04-18T10:21:33.744Z</time></trkpt><trkpt lat="43.37566" lon="10.8401917"><ele>159.66666666666669</ele><time>2026-04-18T10:21:34.746Z</time></trkpt><trkpt lat="43.3756067" lon="10.8401083"><ele>159.33333333333334</ele><time>2026-04-18T10:21:35.743Z</time></trkpt><trkpt lat="43.3755667" lon="10.8400367"><ele>159.0</ele><time>2026-04-18T10:21:36.742Z</time></trkpt><trkpt lat="43.3755217" lon="10.8399333"><ele>158.66666666666666</ele><time>2026-04-18T10:21:38.745Z</time></trkpt><trkpt lat="43.3755683" lon="10.8398417"><ele>158.33333333333331</ele><time>2026-04-18T10:21:41.747Z</time></trkpt><trkpt lat="43.3755983" lon="10.839725"><ele>158.0</ele><time>2026-04-18T10:21:43.742Z</time></trkpt><trkpt lat="43.3756067" lon="10.8395517"><ele>158.0</ele><time>2026-04-18T10:21:45.746Z</time></trkpt><trkpt lat="43.3755517" lon="10.8394133"><ele>158.0</ele><time>2026-04-18T10:21:47.745Z</time></trkpt><trkpt lat="43.3755317" lon="10.8392983"><ele>158.0</ele><time>2026-04-18T10:21:48.746Z</time></trkpt><trkpt lat="43.375515" lon="10.8391867"><ele>158.0</ele><time>2026-04-18T10:21:50.744Z</time></trkpt><trkpt lat="43.3755467" lon="10.8390133"><ele>158.0</ele><time>2026-04-18T10:21:52.744Z</time></trkpt><trkpt lat="43.3755417" lon="10.8389017"><ele>157.6</ele><time>2026-04-18T10:21:53.744Z</time></trkpt><trkpt lat="43.375515" lon="10.838785"><ele>157.20000000000002</ele><time>2026-04-18T10:21:55.75Z</time></trkpt><trkpt lat="43.37552" lon="10.838695"><ele>156.8</ele><time>2026-04-18T10:21:56.744Z</time></trkpt><trkpt lat="43.3755233" lon="10.838545"><ele>156.4</ele><time>2026-04-18T10:21:58.743Z</time></trkpt><trkpt lat="43.3755717" lon="10.8384117"><ele>156.0</ele><time>2026-04-18T10:22:00.749Z</time></trkpt><trkpt lat="43.3756317" lon="10.8382667"><ele>155.25</ele><time>2026-04-18T10:22:02.751Z</time></trkpt><trkpt lat="43.3756983" lon="10.8381367"><ele>154.5</ele><time>2026-04-18T10:22:04.744Z</time></trkpt><trkpt lat="43.3757933" lon="10.83806"><ele>153.75</ele><time>2026-04-18T10:22:06.748Z</time></trkpt><trkpt lat="43.3759017" lon="10.8380167"><ele>153.0</ele><time>2026-04-18T10:22:08.75Z</time></trkpt><trkpt lat="43.37603" lon="10.83802"><ele>153.0</ele><time>2026-04-18T10:22:10.744Z</time></trkpt><trkpt lat="43.3761033" lon="10.83803"><ele>153.0</ele><time>2026-04-18T10:22:11.744Z</time></trkpt><trkpt lat="43.3761767" lon="10.8380717"><ele>153.0</ele><time>2026-04-18T10:22:12.746Z</time></trkpt><trkpt lat="43.3762617" lon="10.838095"><ele>153.0</ele><time>2026-04-18T10:22:13.747Z</time></trkpt><trkpt lat="43.3763517" lon="10.838095"><ele>153.0</ele><time>2026-04-18T10:22:14.748Z</time></trkpt><trkpt lat="43.3764383" lon="10.83809"><ele>153.0</ele><time>2026-04-18T10:22:15.743Z</time></trkpt><trkpt lat="43.3765167" lon="10.8380717"><ele>151.0</ele><time>2026-04-18T10:22:16.747Z</time></trkpt><trkpt lat="43.3765833" lon="10.8380517"><ele>149.0</ele><time>2026-04-18T10:22:17.743Z</time></trkpt><trkpt lat="43.37665" lon="10.83809"><ele>147.0</ele><time>2026-04-18T10:22:18.746Z</time></trkpt><trkpt lat="43.3767217" lon="10.8380883"><ele>145.0</ele><time>2026-04-18T10:22:19.745Z</time></trkpt><trkpt lat="43.37679" lon="10.838045"><ele>143.0</ele><time>2026-04-18T10:22:20.746Z</time></trkpt><trkpt lat="43.3768617" lon="10.8380633"><ele>141.0</ele><time>2026-04-18T10:22:21.751Z</time></trkpt><trkpt lat="43.3769333" lon="10.8380833"><ele>139.0</ele><time>2026-04-18T10:22:22.743Z</time></trkpt><trkpt lat="43.3770083" lon="10.83808"><ele>139.0</ele><time>2026-04-18T10:22:23.742Z</time></trkpt><trkpt lat="43.377085" lon="10.8380967"><ele>139.0</ele><time>2026-04-18T10:22:24.747Z</time></trkpt><trkpt lat="43.3771567" lon="10.8381033"><ele>139.0</ele><time>2026-04-18T10:22:25.743Z</time></trkpt><trkpt lat="43.3772267" lon="10.8380817"><ele>139.0</ele><time>2026-04-18T10:22:26.749Z</time></trkpt><trkpt lat="43.3772967" lon="10.8380633"><ele>139.0</ele><time>2026-04-18T10:22:27.742Z</time></trkpt><trkpt lat="43.3773567" lon="10.8380333"><ele>139.0</ele><time>2026-04-18T10:22:28.745Z</time></trkpt><trkpt lat="43.37744" lon="10.8379083"><ele>137.16666666666669</ele><time>2026-04-18T10:22:30.744Z</time></trkpt><trkpt lat="43.37748" lon="10.8378283"><ele>135.33333333333334</ele><time>2026-04-18T10:22:31.742Z</time></trkpt><trkpt lat="43.37751" lon="10.8377333"><ele>133.5</ele><time>2026-04-18T10:22:32.745Z</time></trkpt><trkpt lat="43.37755" lon="10.837655"><ele>131.66666666666666</ele><time>2026-04-18T10:22:33.742Z</time></trkpt><trkpt lat="43.3775733" lon="10.8375717"><ele>129.83333333333331</ele><time>2026-04-18T10:22:34.745Z</time></trkpt><trkpt lat="43.377625" lon="10.8374483"><ele>128.0</ele><time>2026-04-18T10:22:36.747Z</time></trkpt><trkpt lat="43.377725" lon="10.837415"><ele>128.0</ele><time>2026-04-18T10:22:38.749Z</time></trkpt><trkpt lat="43.377795" lon="10.83739"><ele>128.0</ele><time>2026-04-18T10:22:39.75Z</time></trkpt><trkpt lat="43.3778917" lon="10.8373483"><ele>128.0</ele><time>2026-04-18T10:22:40.745Z</time></trkpt><trkpt lat="43.3779917" lon="10.837305"><ele>128.0</ele><time>2026-04-18T10:22:41.744Z</time></trkpt><trkpt lat="43.37808" lon="10.83727"><ele>128.0</ele><time>2026-04-18T10:22:42.742Z</time></trkpt><trkpt lat="43.3781567" lon="10.8372417"><ele>127.49999999999999</ele><time>2026-04-18T10:22:43.744Z</time></trkpt><trkpt lat="43.3782183" lon="10.8372117"><ele>127.0</ele><time>2026-04-18T10:22:44.748Z</time></trkpt><trkpt lat="43.37828" lon="10.83713"><ele>126.5</ele><time>2026-04-18T10:22:46.747Z</time></trkpt><trkpt lat="43.3782883" lon="10.8370017"><ele>126.0</ele><time>2026-04-18T10:22:48.747Z</time></trkpt><trkpt lat="43.37829" lon="10.8369133"><ele>125.49999999999999</ele><time>2026-04-18T10:22:49.746Z</time></trkpt><trkpt lat="43.3782883" lon="10.83681"><ele>125.0</ele><time>2026-04-18T10:22:50.75Z</time></trkpt><trkpt lat="43.378285" lon="10.836695"><ele>125.0</ele><time>2026-04-18T10:22:51.743Z</time></trkpt><trkpt lat="43.378285" lon="10.8365733"><ele>125.0</ele><time>2026-04-18T10:22:52.741Z</time></trkpt><trkpt lat="43.378285" lon="10.83645"><ele>125.0</ele><time>2026-04-18T10:22:53.745Z</time></trkpt><trkpt lat="43.37828" lon="10.8363217"><ele>125.0</ele><time>2026-04-18T10:22:54.743Z</time></trkpt><trkpt lat="43.3782883" lon="10.8361783"><ele>125.0</ele><time>2026-04-18T10:22:55.744Z</time></trkpt><trkpt lat="43.378285" lon="10.8360267"><ele>125.2</ele><time>2026-04-18T10:22:56.745Z</time></trkpt><trkpt lat="43.3782683" lon="10.8358667"><ele>125.4</ele><time>2026-04-18T10:22:57.743Z</time></trkpt><trkpt lat="43.3782167" lon="10.8357567"><ele>125.6</ele><time>2026-04-18T10:22:58.741Z</time></trkpt><trkpt lat="43.3781917" lon="10.8356067"><ele>125.8</ele><time>2026-04-18T10:22:59.743Z</time></trkpt><trkpt lat="43.378165" lon="10.8354583"><ele>126.0</ele><time>2026-04-18T10:23:00.74Z</time></trkpt><trkpt lat="43.3781283" lon="10.8353033"><ele>126.0</ele><time>2026-04-18T10:23:01.744Z</time></trkpt><trkpt lat="43.3781017" lon="10.8351483"><ele>126.0</ele><time>2026-04-18T10:23:02.745Z</time></trkpt><trkpt lat="43.378045" lon="10.834985"><ele>126.0</ele><time>2026-04-18T10:23:03.742Z</time></trkpt><trkpt lat="43.3780017" lon="10.8348233"><ele>126.0</ele><time>2026-04-18T10:23:04.743Z</time></trkpt><trkpt lat="43.3779367" lon="10.8346933"><ele>125.0</ele><time>2026-04-18T10:23:05.741Z</time></trkpt><trkpt lat="43.3778667" lon="10.83453"><ele>124.0</ele><time>2026-04-18T10:23:06.742Z</time></trkpt><trkpt lat="43.37781" lon="10.8343667"><ele>123.0</ele><time>2026-04-18T10:23:07.744Z</time></trkpt><trkpt lat="43.37775" lon="10.83422"><ele>122.0</ele><time>2026-04-18T10:23:08.744Z</time></trkpt><trkpt lat="43.3776667" lon="10.834085"><ele>122.0</ele><time>2026-04-18T10:23:09.749Z</time></trkpt><trkpt lat="43.37759" lon="10.8339167"><ele>122.0</ele><time>2026-04-18T10:23:10.746Z</time></trkpt><trkpt lat="43.3774883" lon="10.8338333"><ele>122.0</ele><time>2026-04-18T10:23:11.743Z</time></trkpt><trkpt lat="43.3773633" lon="10.8336733"><ele>122.0</ele><time>2026-04-18T10:23:12.746Z</time></trkpt><trkpt lat="43.377245" lon="10.8335567"><ele>120.5</ele><time>2026-04-18T10:23:13.746Z</time></trkpt><trkpt lat="43.3771433" lon="10.8334017"><ele>119.0</ele><time>2026-04-18T10:23:14.744Z</time></trkpt><trkpt lat="43.3770417" lon="10.8332733"><ele>117.5</ele><time>2026-04-18T10:23:15.745Z</time></trkpt><trkpt lat="43.3769433" lon="10.833155"><ele>116.0</ele><time>2026-04-18T10:23:16.748Z</time></trkpt><trkpt lat="43.3768333" lon="10.8330583"><ele>116.0</ele><time>2026-04-18T10:23:17.744Z</time></trkpt><trkpt lat="43.37671" lon="10.832965"><ele>116.0</ele><time>2026-04-18T10:23:18.744Z</time></trkpt><trkpt lat="43.3765867" lon="10.8328617"><ele>116.0</ele><time>2026-04-18T10:23:19.751Z</time></trkpt><trkpt lat="43.37645" lon="10.8327633"><ele>116.0</ele><time>2026-04-18T10:23:20.746Z</time></trkpt><trkpt lat="43.37631" lon="10.832665"><ele>116.33333333333333</ele><time>2026-04-18T10:23:21.747Z</time></trkpt><trkpt lat="43.376185" lon="10.8325383"><ele>116.66666666666666</ele><time>2026-04-18T10:23:22.749Z</time></trkpt><trkpt lat="43.3760667" lon="10.8324117"><ele>117.0</ele><time>2026-04-18T10:23:23.752Z</time></trkpt><trkpt lat="43.3759433" lon="10.832295"><ele>117.0</ele><time>2026-04-18T10:23:24.747Z</time></trkpt><trkpt lat="43.3758083" lon="10.8322717"><ele>117.0</ele><time>2026-04-18T10:23:25.743Z</time></trkpt><trkpt lat="43.3756933" lon="10.8321567"><ele>117.0</ele><time>2026-04-18T10:23:26.745Z</time></trkpt><trkpt lat="43.37558" lon="10.832095"><ele>117.0</ele><time>2026-04-18T10:23:27.745Z</time></trkpt><trkpt lat="43.3754483" lon="10.832075"><ele>115.75</ele><time>2026-04-18T10:23:28.742Z</time></trkpt><trkpt lat="43.37534" lon="10.832075"><ele>114.5</ele><time>2026-04-18T10:23:29.742Z</time></trkpt><trkpt lat="43.3752183" lon="10.8319967"><ele>113.25</ele><time>2026-04-18T10:23:30.742Z</time></trkpt><trkpt lat="43.375085" lon="10.8319317"><ele>112.0</ele><time>2026-04-18T10:23:31.743Z</time></trkpt><trkpt lat="43.37495" lon="10.8319167"><ele>112.0</ele><time>2026-04-18T10:23:32.747Z</time></trkpt><trkpt lat="43.374805" lon="10.8318833"><ele>112.0</ele><time>2026-04-18T10:23:33.744Z</time></trkpt><trkpt lat="43.374655" lon="10.83187"><ele>112.0</ele><time>2026-04-18T10:23:34.745Z</time></trkpt><trkpt lat="43.3744967" lon="10.8318733"><ele>111.33333333333334</ele><time>2026-04-18T10:23:35.742Z</time></trkpt><trkpt lat="43.3743333" lon="10.8318983"><ele>110.66666666666666</ele><time>2026-04-18T10:23:36.741Z</time></trkpt><trkpt lat="43.374155" lon="10.8319317"><ele>110.0</ele><time>2026-04-18T10:23:37.746Z</time></trkpt><trkpt lat="43.3739517" lon="10.8319967"><ele>109.66666666666666</ele><time>2026-04-18T10:23:38.745Z</time></trkpt><trkpt lat="43.373745" lon="10.83204"><ele>109.33333333333334</ele><time>2026-04-18T10:23:39.749Z</time></trkpt><trkpt lat="43.3735517" lon="10.8321"><ele>109.0</ele><time>2026-04-18T10:23:40.746Z</time></trkpt><trkpt lat="43.3733717" lon="10.8321717"><ele>109.0</ele><time>2026-04-18T10:23:41.75Z</time></trkpt><trkpt lat="43.3731967" lon="10.8322517"><ele>109.0</ele><time>2026-04-18T10:23:42.749Z</time></trkpt><trkpt lat="43.373035" lon="10.8323233"><ele>109.0</ele><time>2026-04-18T10:23:43.746Z</time></trkpt><trkpt lat="43.3728833" lon="10.8323467"><ele>109.0</ele><time>2026-04-18T10:23:44.744Z</time></trkpt><trkpt lat="43.3727433" lon="10.832385"><ele>109.0</ele><time>2026-04-18T10:23:45.746Z</time></trkpt><trkpt lat="43.37259" lon="10.8324117"><ele>109.0</ele><time>2026-04-18T10:23:46.742Z</time></trkpt><trkpt lat="43.37249" lon="10.832445"><ele>109.0</ele><time>2026-04-18T10:23:47.745Z</time></trkpt><trkpt lat="43.37239" lon="10.8324433"><ele>109.0</ele><time>2026-04-18T10:23:48.742Z</time></trkpt><trkpt lat="43.3722883" lon="10.8324867"><ele>109.0</ele><time>2026-04-18T10:23:49.744Z</time></trkpt><trkpt lat="43.372185" lon="10.8324667"><ele>109.0</ele><time>2026-04-18T10:23:50.748Z</time></trkpt><trkpt lat="43.3720633" lon="10.8324983"><ele>109.0</ele><time>2026-04-18T10:23:51.745Z</time></trkpt><trkpt lat="43.3719683" lon="10.83248"><ele>109.0</ele><time>2026-04-18T10:23:52.745Z</time></trkpt><trkpt lat="43.3718583" lon="10.832485"><ele>108.25</ele><time>2026-04-18T10:23:53.744Z</time></trkpt><trkpt lat="43.37176" lon="10.8324567"><ele>107.5</ele><time>2026-04-18T10:23:54.75Z</time></trkpt><trkpt lat="43.3716433" lon="10.8324483"><ele>106.75</ele><time>2026-04-18T10:23:55.743Z</time></trkpt><trkpt lat="43.3715" lon="10.8324583"><ele>106.0</ele><time>2026-04-18T10:23:56.749Z</time></trkpt><trkpt lat="43.3714067" lon="10.8323483"><ele>104.5</ele><time>2026-04-18T10:23:57.745Z</time></trkpt><trkpt lat="43.3712783" lon="10.8323833"><ele>103.0</ele><time>2026-04-18T10:23:58.744Z</time></trkpt><trkpt lat="43.37117" lon="10.83232"><ele>101.5</ele><time>2026-04-18T10:23:59.745Z</time></trkpt><trkpt lat="43.3710717" lon="10.8322233"><ele>100.0</ele><time>2026-04-18T10:24:00.742Z</time></trkpt><trkpt lat="43.3709817" lon="10.8321217"><ele>100.0</ele><time>2026-04-18T10:24:01.745Z</time></trkpt><trkpt lat="43.37089" lon="10.8320333"><ele>100.0</ele><time>2026-04-18T10:24:02.744Z</time></trkpt><trkpt lat="43.3708067" lon="10.8319233"><ele>100.0</ele><time>2026-04-18T10:24:03.746Z</time></trkpt><trkpt lat="43.3707333" lon="10.8317867"><ele>100.0</ele><time>2026-04-18T10:24:04.742Z</time></trkpt><trkpt lat="43.3706583" lon="10.83167"><ele>98.75</ele><time>2026-04-18T10:24:05.749Z</time></trkpt><trkpt lat="43.370595" lon="10.8315267"><ele>97.5</ele><time>2026-04-18T10:24:06.744Z</time></trkpt><trkpt lat="43.370525" lon="10.831375"><ele>96.25</ele><time>2026-04-18T10:24:07.757Z</time></trkpt><trkpt lat="43.3704417" lon="10.831205"><ele>95.0</ele><time>2026-04-18T10:24:08.75Z</time></trkpt><trkpt lat="43.3703383" lon="10.8310533"><ele>96.0</ele><time>2026-04-18T10:24:09.754Z</time></trkpt><trkpt lat="43.370245" lon="10.83088"><ele>97.0</ele><time>2026-04-18T10:24:10.748Z</time></trkpt><trkpt lat="43.3701483" lon="10.8306983"><ele>98.0</ele><time>2026-04-18T10:24:11.757Z</time></trkpt><trkpt lat="43.3700617" lon="10.8305217"><ele>98.0</ele><time>2026-04-18T10:24:12.743Z</time></trkpt><trkpt lat="43.3699783" lon="10.83036"><ele>98.0</ele><time>2026-04-18T10:24:13.745Z</time></trkpt><trkpt lat="43.3699" lon="10.83018"><ele>98.0</ele><time>2026-04-18T10:24:14.747Z</time></trkpt><trkpt lat="43.3698183" lon="10.8300167"><ele>98.0</ele><time>2026-04-18T10:24:15.749Z</time></trkpt><trkpt lat="43.3697567" lon="10.8298233"><ele>99.0</ele><time>2026-04-18T10:24:16.748Z</time></trkpt><trkpt lat="43.3697183" lon="10.82966"><ele>100.0</ele><time>2026-04-18T10:24:17.751Z</time></trkpt><trkpt lat="43.3696717" lon="10.8294733"><ele>101.0</ele><time>2026-04-18T10:24:18.77Z</time></trkpt><trkpt lat="43.36964" lon="10.8293133"><ele>102.0</ele><time>2026-04-18T10:24:19.752Z</time></trkpt><trkpt lat="43.369625" lon="10.8291167"><ele>99.0</ele><time>2026-04-18T10:24:20.748Z</time></trkpt><trkpt lat="43.369585" lon="10.8289133"><ele>96.0</ele><time>2026-04-18T10:24:21.756Z</time></trkpt><trkpt lat="43.3695" lon="10.8287"><ele>93.0</ele><time>2026-04-18T10:24:22.746Z</time></trkpt><trkpt lat="43.369445" lon="10.8285183"><ele>93.25</ele><time>2026-04-18T10:24:23.756Z</time></trkpt><trkpt lat="43.3694133" lon="10.8283333"><ele>93.5</ele><time>2026-04-18T10:24:24.761Z</time></trkpt><trkpt lat="43.3694433" lon="10.8281867"><ele>93.75</ele><time>2026-04-18T10:24:25.748Z</time></trkpt><trkpt lat="43.3693667" lon="10.8279967"><ele>94.0</ele><time>2026-04-18T10:24:26.746Z</time></trkpt><trkpt lat="43.36934" lon="10.8278333"><ele>94.0</ele><time>2026-04-18T10:24:27.748Z</time></trkpt><trkpt lat="43.3693033" lon="10.8276483"><ele>94.0</ele><time>2026-04-18T10:24:28.746Z</time></trkpt><trkpt lat="43.36929" lon="10.827455"><ele>94.0</ele><time>2026-04-18T10:24:29.762Z</time></trkpt><trkpt lat="43.3692917" lon="10.82723"><ele>94.0</ele><time>2026-04-18T10:24:30.757Z</time></trkpt><trkpt lat="43.3693067" lon="10.8270033"><ele>94.33333333333333</ele><time>2026-04-18T10:24:31.742Z</time></trkpt><trkpt lat="43.3693617" lon="10.8268167"><ele>94.66666666666667</ele><time>2026-04-18T10:24:32.766Z</time></trkpt><trkpt lat="43.3693583" lon="10.8265567"><ele>95.0</ele><time>2026-04-18T10:24:33.742Z</time></trkpt><trkpt lat="43.36942" lon="10.8263683"><ele>94.0</ele><time>2026-04-18T10:24:34.747Z</time></trkpt><trkpt lat="43.3695033" lon="10.8261933"><ele>93.0</ele><time>2026-04-18T10:24:35.752Z</time></trkpt><trkpt lat="43.369575" lon="10.825995"><ele>92.0</ele><time>2026-04-18T10:24:36.753Z</time></trkpt><trkpt lat="43.3696233" lon="10.8257883"><ele>90.66666666666667</ele><time>2026-04-18T10:24:37.75Z</time></trkpt><trkpt lat="43.3696883" lon="10.8255867"><ele>89.33333333333333</ele><time>2026-04-18T10:24:38.765Z</time></trkpt><trkpt lat="43.3698183" lon="10.825405"><ele>88.0</ele><time>2026-04-18T10:24:39.74Z</time></trkpt><trkpt lat="43.3698117" lon="10.8252483"><ele>88.5</ele><time>2026-04-18T10:24:40.743Z</time></trkpt><trkpt lat="43.3698333" lon="10.8250717"><ele>89.0</ele><time>2026-04-18T10:24:41.75Z</time></trkpt><trkpt lat="43.36979" lon="10.82492"><ele>89.5</ele><time>2026-04-18T10:24:42.75Z</time></trkpt><trkpt lat="43.369805" lon="10.82474"><ele>90.0</ele><time>2026-04-18T10:24:43.741Z</time></trkpt><trkpt lat="43.36978" lon="10.82458"><ele>90.0</ele><time>2026-04-18T10:24:44.745Z</time></trkpt><trkpt lat="43.3697783" lon="10.8243533"><ele>90.0</ele><time>2026-04-18T10:24:45.751Z</time></trkpt><trkpt lat="43.3697517" lon="10.8241517"><ele>90.0</ele><time>2026-04-18T10:24:46.778Z</time></trkpt><trkpt lat="43.369705" lon="10.8239683"><ele>88.33333333333333</ele><time>2026-04-18T10:24:47.748Z</time></trkpt><trkpt lat="43.3696417" lon="10.8237617"><ele>86.66666666666666</ele><time>2026-04-18T10:24:48.752Z</time></trkpt><trkpt lat="43.3695633" lon="10.8235483"><ele>85.0</ele><time>2026-04-18T10:24:49.747Z</time></trkpt><trkpt lat="43.3694783" lon="10.8233533"><ele>85.0</ele><time>2026-04-18T10:24:50.747Z</time></trkpt><trkpt lat="43.3693767" lon="10.823205"><ele>85.0</ele><time>2026-04-18T10:24:51.754Z</time></trkpt><trkpt lat="43.3692133" lon="10.8230033"><ele>85.0</ele><time>2026-04-18T10:24:53.748Z</time></trkpt><trkpt lat="43.36906" lon="10.8228267"><ele>85.0</ele><time>2026-04-18T10:24:54.751Z</time></trkpt><trkpt lat="43.36891" lon="10.8226633"><ele>85.0</ele><time>2026-04-18T10:24:55.748Z</time></trkpt><trkpt lat="43.368765" lon="10.8225267"><ele>85.0</ele><time>2026-04-18T10:24:56.747Z</time></trkpt><trkpt lat="43.36863" lon="10.82241"><ele>84.75</ele><time>2026-04-18T10:24:57.751Z</time></trkpt><trkpt lat="43.3685117" lon="10.822295"><ele>84.5</ele><time>2026-04-18T10:24:58.747Z</time></trkpt><trkpt lat="43.3683933" lon="10.8222033"><ele>84.25</ele><time>2026-04-18T10:24:59.743Z</time></trkpt><trkpt lat="43.3682833" lon="10.8221117"><ele>84.0</ele><time>2026-04-18T10:25:00.747Z</time></trkpt><trkpt lat="43.3681967" lon="10.8220417"><ele>84.0</ele><time>2026-04-18T10:25:01.752Z</time></trkpt><trkpt lat="43.36811" lon="10.8219617"><ele>84.0</ele><time>2026-04-18T10:25:02.745Z</time></trkpt><trkpt lat="43.368015" lon="10.821875"><ele>84.0</ele><time>2026-04-18T10:25:03.742Z</time></trkpt><trkpt lat="43.367915" lon="10.821785"><ele>84.0</ele><time>2026-04-18T10:25:04.747Z</time></trkpt><trkpt lat="43.3678117" lon="10.8216983"><ele>84.25</ele><time>2026-04-18T10:25:05.745Z</time></trkpt><trkpt lat="43.3677067" lon="10.8216133"><ele>84.5</ele><time>2026-04-18T10:25:06.745Z</time></trkpt><trkpt lat="43.3675967" lon="10.82152"><ele>84.75</ele><time>2026-04-18T10:25:07.747Z</time></trkpt><trkpt lat="43.3674867" lon="10.821425"><ele>85.0</ele><time>2026-04-18T10:25:08.744Z</time></trkpt><trkpt lat="43.3673883" lon="10.8213367"><ele>85.0</ele><time>2026-04-18T10:25:09.746Z</time></trkpt><trkpt lat="43.3673017" lon="10.82125"><ele>85.0</ele><time>2026-04-18T10:25:10.742Z</time></trkpt><trkpt lat="43.3672167" lon="10.8211667"><ele>85.0</ele><time>2026-04-18T10:25:11.743Z</time></trkpt><trkpt lat="43.367125" lon="10.821085"><ele>85.0</ele><time>2026-04-18T10:25:12.744Z</time></trkpt><trkpt lat="43.367025" lon="10.821"><ele>85.0</ele><time>2026-04-18T10:25:13.753Z</time></trkpt><trkpt lat="43.36692" lon="10.8209067"><ele>83.75</ele><time>2026-04-18T10:25:14.752Z</time></trkpt><trkpt lat="43.3668133" lon="10.8208033"><ele>82.5</ele><time>2026-04-18T10:25:15.74Z</time></trkpt><trkpt lat="43.36671" lon="10.8207033"><ele>81.25</ele><time>2026-04-18T10:25:16.746Z</time></trkpt><trkpt lat="43.36661" lon="10.820605"><ele>80.0</ele><time>2026-04-18T10:25:17.745Z</time></trkpt><trkpt lat="43.36652" lon="10.8204983"><ele>80.0</ele><time>2026-04-18T10:25:18.746Z</time></trkpt><trkpt lat="43.3664183" lon="10.820355"><ele>80.0</ele><time>2026-04-18T10:25:19.744Z</time></trkpt><trkpt lat="43.3663433" lon="10.8202917"><ele>80.0</ele><time>2026-04-18T10:25:20.742Z</time></trkpt><trkpt lat="43.3662783" lon="10.8201417"><ele>80.0</ele><time>2026-04-18T10:25:21.741Z</time></trkpt><trkpt lat="43.3662" lon="10.8200267"><ele>79.75</ele><time>2026-04-18T10:25:22.744Z</time></trkpt><trkpt lat="43.36611" lon="10.8199167"><ele>79.5</ele><time>2026-04-18T10:25:23.746Z</time></trkpt><trkpt lat="43.365995" lon="10.8198233"><ele>79.25</ele><time>2026-04-18T10:25:24.75Z</time></trkpt><trkpt lat="43.3659233" lon="10.8197017"><ele>79.0</ele><time>2026-04-18T10:25:25.744Z</time></trkpt><trkpt lat="43.36582" lon="10.8195967"><ele>79.0</ele><time>2026-04-18T10:25:26.743Z</time></trkpt><trkpt lat="43.3657033" lon="10.81938"><ele>79.0</ele><time>2026-04-18T10:25:27.742Z</time></trkpt><trkpt lat="43.3655867" lon="10.8192667"><ele>79.0</ele><time>2026-04-18T10:25:28.749Z</time></trkpt><trkpt lat="43.3654967" lon="10.8190667"><ele>79.0</ele><time>2026-04-18T10:25:29.746Z</time></trkpt><trkpt lat="43.3653817" lon="10.8188933"><ele>79.0</ele><time>2026-04-18T10:25:30.749Z</time></trkpt><trkpt lat="43.36527" lon="10.8186967"><ele>79.0</ele><time>2026-04-18T10:25:31.746Z</time></trkpt><trkpt lat="43.365145" lon="10.8185433"><ele>78.0</ele><time>2026-04-18T10:25:32.745Z</time></trkpt><trkpt lat="43.3650483" lon="10.8183767"><ele>77.0</ele><time>2026-04-18T10:25:33.747Z</time></trkpt><trkpt lat="43.3649267" lon="10.8181883"><ele>76.0</ele><time>2026-04-18T10:25:34.744Z</time></trkpt><trkpt lat="43.36479" lon="10.817995"><ele>76.0</ele><time>2026-04-18T10:25:35.742Z</time></trkpt><trkpt lat="43.3646717" lon="10.8178317"><ele>76.0</ele><time>2026-04-18T10:25:36.746Z</time></trkpt><trkpt lat="43.3645667" lon="10.8177067"><ele>76.0</ele><time>2026-04-18T10:25:37.748Z</time></trkpt><trkpt lat="43.36447" lon="10.8175633"><ele>76.0</ele><time>2026-04-18T10:25:38.753Z</time></trkpt><trkpt lat="43.36437" lon="10.817415"><ele>76.0</ele><time>2026-04-18T10:25:39.747Z</time></trkpt><trkpt lat="43.3642717" lon="10.81727"><ele>76.0</ele><time>2026-04-18T10:25:40.745Z</time></trkpt><trkpt lat="43.3641817" lon="10.8171483"><ele>76.0</ele><time>2026-04-18T10:25:41.746Z</time></trkpt><trkpt lat="43.3641083" lon="10.8170433"><ele>76.0</ele><time>2026-04-18T10:25:42.745Z</time></trkpt><trkpt lat="43.364045" lon="10.8169567"><ele>76.0</ele><time>2026-04-18T10:25:43.747Z</time></trkpt><trkpt lat="43.3639967" lon="10.81688"><ele>76.0</ele><time>2026-04-18T10:25:44.744Z</time></trkpt><trkpt lat="43.3639317" lon="10.8167633"><ele>76.0</ele><time>2026-04-18T10:25:46.743Z</time></trkpt><trkpt lat="43.3639317" lon="10.816675"><ele>76.0</ele><time>2026-04-18T10:25:48.747Z</time></trkpt><trkpt lat="43.363965" lon="10.8165933"><ele>76.0</ele><time>2026-04-18T10:25:51.741Z</time></trkpt><trkpt lat="43.3640233" lon="10.816535"><ele>76.0</ele><time>2026-04-18T10:25:54.743Z</time></trkpt><trkpt lat="43.3640783" lon="10.8164733"><ele>75.83333333333333</ele><time>2026-04-18T10:25:57.742Z</time></trkpt><trkpt lat="43.36414" lon="10.8164067"><ele>75.66666666666666</ele><time>2026-04-18T10:26:00.746Z</time></trkpt><trkpt lat="43.364245" lon="10.8162867"><ele>75.5</ele><time>2026-04-18T10:26:03.745Z</time></trkpt><trkpt lat="43.3643" lon="10.81621"><ele>75.33333333333333</ele><time>2026-04-18T10:26:04.743Z</time></trkpt><trkpt lat="43.3643517" lon="10.8161367"><ele>75.16666666666667</ele><time>2026-04-18T10:26:05.743Z</time></trkpt><trkpt lat="43.364405" lon="10.8160767"><ele>75.0</ele><time>2026-04-18T10:26:06.75Z</time></trkpt><trkpt lat="43.3645" lon="10.815975"><ele>75.0</ele><time>2026-04-18T10:26:08.743Z</time></trkpt><trkpt lat="43.3645683" lon="10.81589"><ele>75.0</ele><time>2026-04-18T10:26:10.745Z</time></trkpt><trkpt lat="43.3646133" lon="10.815795"><ele>75.0</ele><time>2026-04-18T10:26:12.744Z</time></trkpt><trkpt lat="43.3646867" lon="10.8157267"><ele>75.0</ele><time>2026-04-18T10:26:13.743Z</time></trkpt><trkpt lat="43.3647483" lon="10.8156283"><ele>75.0</ele><time>2026-04-18T10:26:14.745Z</time></trkpt><trkpt lat="43.36483" lon="10.8155867"><ele>75.0</ele><time>2026-04-18T10:26:15.744Z</time></trkpt><trkpt lat="43.3649217" lon="10.8155367"><ele>75.4</ele><time>2026-04-18T10:26:16.748Z</time></trkpt><trkpt lat="43.364995" lon="10.8154533"><ele>75.8</ele><time>2026-04-18T10:26:17.744Z</time></trkpt><trkpt lat="43.36505" lon="10.8154033"><ele>76.2</ele><time>2026-04-18T10:26:18.741Z</time></trkpt><trkpt lat="43.36515" lon="10.8153533"><ele>76.6</ele><time>2026-04-18T10:26:19.744Z</time></trkpt><trkpt lat="43.36526" lon="10.81531"><ele>77.0</ele><time>2026-04-18T10:26:20.748Z</time></trkpt><trkpt lat="43.3653517" lon="10.8152917"><ele>77.0</ele><time>2026-04-18T10:26:21.748Z</time></trkpt><trkpt lat="43.3654583" lon="10.8152683"><ele>77.0</ele><time>2026-04-18T10:26:22.745Z</time></trkpt><trkpt lat="43.365575" lon="10.81524"><ele>77.0</ele><time>2026-04-18T10:26:23.744Z</time></trkpt><trkpt lat="43.3656917" lon="10.81523"><ele>77.0</ele><time>2026-04-18T10:26:24.749Z</time></trkpt><trkpt lat="43.3658017" lon="10.8152083"><ele>79.8</ele><time>2026-04-18T10:26:25.743Z</time></trkpt><trkpt lat="43.3659267" lon="10.8152067"><ele>82.6</ele><time>2026-04-18T10:26:26.743Z</time></trkpt><trkpt lat="43.3660083" lon="10.8151817"><ele>85.39999999999999</ele><time>2026-04-18T10:26:27.744Z</time></trkpt><trkpt lat="43.3661" lon="10.81518"><ele>88.2</ele><time>2026-04-18T10:26:28.744Z</time></trkpt><trkpt lat="43.36617" lon="10.81518"><ele>91.0</ele><time>2026-04-18T10:26:29.745Z</time></trkpt><trkpt lat="43.3662617" lon="10.81519"><ele>91.16666666666666</ele><time>2026-04-18T10:26:31.743Z</time></trkpt><trkpt lat="43.3663933" lon="10.8152083"><ele>91.33333333333333</ele><time>2026-04-18T10:26:33.74Z</time></trkpt><trkpt lat="43.366475" lon="10.8152033"><ele>91.5</ele><time>2026-04-18T10:26:34.744Z</time></trkpt><trkpt lat="43.3665383" lon="10.8152017"><ele>91.66666666666667</ele><time>2026-04-18T10:26:35.742Z</time></trkpt><trkpt lat="43.3666017" lon="10.815155"><ele>91.83333333333334</ele><time>2026-04-18T10:26:37.753Z</time></trkpt><trkpt lat="43.366595" lon="10.8150567"><ele>92.0</ele><time>2026-04-18T10:26:40.744Z</time></trkpt><trkpt lat="43.3664683" lon="10.8149617"><ele>89.75</ele><time>2026-04-18T10:26:42.743Z</time></trkpt><trkpt lat="43.36636" lon="10.8148983"><ele>87.5</ele><time>2026-04-18T10:26:43.742Z</time></trkpt><trkpt lat="43.3662533" lon="10.8148417"><ele>85.25</ele><time>2026-04-18T10:26:44.745Z</time></trkpt><trkpt lat="43.3661333" lon="10.8147867"><ele>83.0</ele><time>2026-04-18T10:26:45.745Z</time></trkpt><trkpt lat="43.3659767" lon="10.8147317"><ele>83.0</ele><time>2026-04-18T10:26:46.742Z</time></trkpt><trkpt lat="43.3658017" lon="10.8146117"><ele>83.0</ele><time>2026-04-18T10:26:47.745Z</time></trkpt><trkpt lat="43.36563" lon="10.8145883"><ele>83.0</ele><time>2026-04-18T10:26:48.742Z</time></trkpt><trkpt lat="43.365455" lon="10.8143817"><ele>81.66666666666667</ele><time>2026-04-18T10:26:49.743Z</time></trkpt><trkpt lat="43.3652983" lon="10.81421"><ele>80.33333333333333</ele><time>2026-04-18T10:26:50.744Z</time></trkpt><trkpt lat="43.365145" lon="10.8140633"><ele>79.0</ele><time>2026-04-18T10:26:51.746Z</time></trkpt><trkpt lat="43.3650217" lon="10.8139133"><ele>79.0</ele><time>2026-04-18T10:26:52.752Z</time></trkpt><trkpt lat="43.3648833" lon="10.8137783"><ele>79.0</ele><time>2026-04-18T10:26:53.744Z</time></trkpt><trkpt lat="43.3647467" lon="10.8136617"><ele>79.0</ele><time>2026-04-18T10:26:54.743Z</time></trkpt><trkpt lat="43.3646383" lon="10.8135517"><ele>78.75</ele><time>2026-04-18T10:26:55.743Z</time></trkpt><trkpt lat="43.3645183" lon="10.8134817"><ele>78.5</ele><time>2026-04-18T10:26:56.745Z</time></trkpt><trkpt lat="43.3644033" lon="10.8133383"><ele>78.25</ele><time>2026-04-18T10:26:57.744Z</time></trkpt><trkpt lat="43.3642817" lon="10.8132317"><ele>78.0</ele><time>2026-04-18T10:26:58.744Z</time></trkpt><trkpt lat="43.364185" lon="10.8131217"><ele>78.0</ele><time>2026-04-18T10:26:59.745Z</time></trkpt><trkpt lat="43.3640867" lon="10.8130217"><ele>78.0</ele><time>2026-04-18T10:27:00.745Z</time></trkpt><trkpt lat="43.3640067" lon="10.8129667"><ele>78.0</ele><time>2026-04-18T10:27:01.746Z</time></trkpt><trkpt lat="43.3639283" lon="10.81293"><ele>78.0</ele><time>2026-04-18T10:27:02.748Z</time></trkpt><trkpt lat="43.36385" lon="10.8129283"><ele>78.0</ele><time>2026-04-18T10:27:03.745Z</time></trkpt><trkpt lat="43.363795" lon="10.8128417"><ele>78.2</ele><time>2026-04-18T10:27:05.745Z</time></trkpt><trkpt lat="43.36375" lon="10.81275"><ele>78.4</ele><time>2026-04-18T10:27:07.742Z</time></trkpt><trkpt lat="43.363685" lon="10.8126733"><ele>78.60000000000001</ele><time>2026-04-18T10:27:08.745Z</time></trkpt><trkpt lat="43.3635967" lon="10.81262"><ele>78.8</ele><time>2026-04-18T10:27:09.742Z</time></trkpt><trkpt lat="43.3634667" lon="10.8126067"><ele>79.0</ele><time>2026-04-18T10:27:10.747Z</time></trkpt><trkpt lat="43.36332" lon="10.8126233"><ele>79.0</ele><time>2026-04-18T10:27:11.743Z</time></trkpt><trkpt lat="43.36322" lon="10.812615"><ele>79.0</ele><time>2026-04-18T10:27:12.744Z</time></trkpt><trkpt lat="43.36308" lon="10.8126133"><ele>79.0</ele><time>2026-04-18T10:27:13.745Z</time></trkpt><trkpt lat="43.3629033" lon="10.8126283"><ele>79.0</ele><time>2026-04-18T10:27:14.748Z</time></trkpt><trkpt lat="43.3627933" lon="10.812605"><ele>79.0</ele><time>2026-04-18T10:27:15.742Z</time></trkpt><trkpt lat="43.3626433" lon="10.812615"><ele>79.0</ele><time>2026-04-18T10:27:16.741Z</time></trkpt><trkpt lat="43.3625233" lon="10.8126167"><ele>79.0</ele><time>2026-04-18T10:27:17.745Z</time></trkpt><trkpt lat="43.3623833" lon="10.8126183"><ele>79.0</ele><time>2026-04-18T10:27:18.745Z</time></trkpt><trkpt lat="43.36227" lon="10.8125983"><ele>78.25</ele><time>2026-04-18T10:27:19.746Z</time></trkpt><trkpt lat="43.362165" lon="10.8125833"><ele>77.5</ele><time>2026-04-18T10:27:20.746Z</time></trkpt><trkpt lat="43.362125" lon="10.8126833"><ele>76.75</ele><time>2026-04-18T10:27:21.744Z</time></trkpt><trkpt lat="43.3620167" lon="10.8126633"><ele>76.0</ele><time>2026-04-18T10:27:22.745Z</time></trkpt><trkpt lat="43.361875" lon="10.8125883"><ele>76.0</ele><time>2026-04-18T10:27:23.748Z</time></trkpt><trkpt lat="43.361815" lon="10.81263"><ele>76.0</ele><time>2026-04-18T10:27:24.749Z</time></trkpt><trkpt lat="43.361655" lon="10.8125233"><ele>76.0</ele><time>2026-04-18T10:27:25.742Z</time></trkpt><trkpt lat="43.3615283" lon="10.8123967"><ele>76.0</ele><time>2026-04-18T10:27:26.747Z</time></trkpt><trkpt lat="43.36141" lon="10.8123333"><ele>75.75</ele><time>2026-04-18T10:27:27.742Z</time></trkpt><trkpt lat="43.3613083" lon="10.8121867"><ele>75.5</ele><time>2026-04-18T10:27:28.742Z</time></trkpt><trkpt lat="43.3612067" lon="10.81205"><ele>75.25</ele><time>2026-04-18T10:27:29.744Z</time></trkpt><trkpt lat="43.3611133" lon="10.8118983"><ele>75.0</ele><time>2026-04-18T10:27:30.743Z</time></trkpt><trkpt lat="43.3610233" lon="10.811715"><ele>75.0</ele><time>2026-04-18T10:27:31.743Z</time></trkpt><trkpt lat="43.3609117" lon="10.8116117"><ele>75.0</ele><time>2026-04-18T10:27:32.742Z</time></trkpt><trkpt lat="43.3608383" lon="10.811415"><ele>75.0</ele><time>2026-04-18T10:27:33.744Z</time></trkpt><trkpt lat="43.3607433" lon="10.8112567"><ele>75.0</ele><time>2026-04-18T10:27:34.74Z</time></trkpt><trkpt lat="43.3606567" lon="10.8110767"><ele>73.66666666666667</ele><time>2026-04-18T10:27:35.742Z</time></trkpt><trkpt lat="43.3605883" lon="10.8108583"><ele>72.33333333333334</ele><time>2026-04-18T10:27:36.741Z</time></trkpt><trkpt lat="43.3605183" lon="10.8106133"><ele>71.0</ele><time>2026-04-18T10:27:37.743Z</time></trkpt><trkpt lat="43.3604617" lon="10.8103783"><ele>71.0</ele><time>2026-04-18T10:27:38.745Z</time></trkpt><trkpt lat="43.3603867" lon="10.8101617"><ele>71.0</ele><time>2026-04-18T10:27:39.743Z</time></trkpt><trkpt lat="43.3603283" lon="10.8099183"><ele>71.0</ele><time>2026-04-18T10:27:40.743Z</time></trkpt><trkpt lat="43.3602417" lon="10.8097067"><ele>71.33333333333334</ele><time>2026-04-18T10:27:41.743Z</time></trkpt><trkpt lat="43.3601683" lon="10.809515"><ele>71.66666666666667</ele><time>2026-04-18T10:27:42.745Z</time></trkpt><trkpt lat="43.3601167" lon="10.8093083"><ele>72.0</ele><time>2026-04-18T10:27:43.741Z</time></trkpt><trkpt lat="43.36006" lon="10.8091017"><ele>72.66666666666667</ele><time>2026-04-18T10:27:44.746Z</time></trkpt><trkpt lat="43.359985" lon="10.8089217"><ele>73.33333333333334</ele><time>2026-04-18T10:27:45.745Z</time></trkpt><trkpt lat="43.3599217" lon="10.8087317"><ele>74.0</ele><time>2026-04-18T10:27:46.744Z</time></trkpt><trkpt lat="43.35986" lon="10.8085467"><ele>75.33333333333334</ele><time>2026-04-18T10:27:47.741Z</time></trkpt><trkpt lat="43.3598083" lon="10.808355"><ele>76.66666666666667</ele><time>2026-04-18T10:27:48.742Z</time></trkpt><trkpt lat="43.3597583" lon="10.8081567"><ele>78.0</ele><time>2026-04-18T10:27:49.745Z</time></trkpt><trkpt lat="43.3596733" lon="10.8079783"><ele>75.33333333333333</ele><time>2026-04-18T10:27:50.75Z</time></trkpt><trkpt lat="43.3596467" lon="10.80776"><ele>72.66666666666666</ele><time>2026-04-18T10:27:51.746Z</time></trkpt><trkpt lat="43.35958" lon="10.8075767"><ele>70.0</ele><time>2026-04-18T10:27:52.747Z</time></trkpt><trkpt lat="43.3595183" lon="10.8073933"><ele>70.0</ele><time>2026-04-18T10:27:53.747Z</time></trkpt><trkpt lat="43.35946" lon="10.8072017"><ele>70.0</ele><time>2026-04-18T10:27:54.754Z</time></trkpt><trkpt lat="43.359385" lon="10.8070233"><ele>70.0</ele><time>2026-04-18T10:27:55.747Z</time></trkpt><trkpt lat="43.35934" lon="10.806835"><ele>70.0</ele><time>2026-04-18T10:27:56.745Z</time></trkpt><trkpt lat="43.359265" lon="10.8066583"><ele>69.75</ele><time>2026-04-18T10:27:57.742Z</time></trkpt><trkpt lat="43.359235" lon="10.8064817"><ele>69.5</ele><time>2026-04-18T10:27:58.741Z</time></trkpt><trkpt lat="43.3591883" lon="10.8062967"><ele>69.25</ele><time>2026-04-18T10:27:59.745Z</time></trkpt><trkpt lat="43.3591933" lon="10.8061067"><ele>69.0</ele><time>2026-04-18T10:28:00.744Z</time></trkpt><trkpt lat="43.359235" lon="10.8059067"><ele>69.0</ele><time>2026-04-18T10:28:01.747Z</time></trkpt><trkpt lat="43.359265" lon="10.8056883"><ele>69.0</ele><time>2026-04-18T10:28:02.743Z</time></trkpt><trkpt lat="43.35926" lon="10.80542"><ele>69.0</ele><time>2026-04-18T10:28:03.747Z</time></trkpt><trkpt lat="43.3593133" lon="10.8051867"><ele>68.33333333333333</ele><time>2026-04-18T10:28:04.743Z</time></trkpt><trkpt lat="43.3593883" lon="10.8049583"><ele>67.66666666666666</ele><time>2026-04-18T10:28:05.748Z</time></trkpt><trkpt lat="43.3594217" lon="10.8046983"><ele>67.0</ele><time>2026-04-18T10:28:06.741Z</time></trkpt><trkpt lat="43.3594317" lon="10.8044317"><ele>66.33333333333333</ele><time>2026-04-18T10:28:07.743Z</time></trkpt><trkpt lat="43.3594483" lon="10.8041733"><ele>65.66666666666667</ele><time>2026-04-18T10:28:08.753Z</time></trkpt><trkpt lat="43.3594467" lon="10.8039183"><ele>65.0</ele><time>2026-04-18T10:28:09.748Z</time></trkpt><trkpt lat="43.359445" lon="10.8036667"><ele>65.33333333333334</ele><time>2026-04-18T10:28:10.746Z</time></trkpt><trkpt lat="43.35942" lon="10.8034183"><ele>65.66666666666667</ele><time>2026-04-18T10:28:11.745Z</time></trkpt><trkpt lat="43.3593967" lon="10.803165"><ele>66.0</ele><time>2026-04-18T10:28:12.748Z</time></trkpt><trkpt lat="43.3593367" lon="10.802925"><ele>66.0</ele><time>2026-04-18T10:28:13.751Z</time></trkpt><trkpt lat="43.35925" lon="10.8027"><ele>66.0</ele><time>2026-04-18T10:28:14.75Z</time></trkpt><trkpt lat="43.3591417" lon="10.8024933"><ele>66.0</ele><time>2026-04-18T10:28:15.749Z</time></trkpt><trkpt lat="43.359005" lon="10.802315"><ele>65.66666666666667</ele><time>2026-04-18T10:28:16.746Z</time></trkpt><trkpt lat="43.3588633" lon="10.8021433"><ele>65.33333333333334</ele><time>2026-04-18T10:28:17.746Z</time></trkpt><trkpt lat="43.3587217" lon="10.8019717"><ele>65.0</ele><time>2026-04-18T10:28:18.747Z</time></trkpt><trkpt lat="43.3586" lon="10.801785"><ele>65.66666666666667</ele><time>2026-04-18T10:28:19.742Z</time></trkpt><trkpt lat="43.3584717" lon="10.8016"><ele>66.33333333333333</ele><time>2026-04-18T10:28:20.743Z</time></trkpt><trkpt lat="43.3583667" lon="10.8013883"><ele>67.0</ele><time>2026-04-18T10:28:21.752Z</time></trkpt><trkpt lat="43.3582883" lon="10.8011633"><ele>66.0</ele><time>2026-04-18T10:28:22.743Z</time></trkpt><trkpt lat="43.358175" lon="10.8009317"><ele>65.0</ele><time>2026-04-18T10:28:23.746Z</time></trkpt><trkpt lat="43.358065" lon="10.8006883"><ele>64.0</ele><time>2026-04-18T10:28:24.747Z</time></trkpt><trkpt lat="43.3579833" lon="10.800415"><ele>64.33333333333333</ele><time>2026-04-18T10:28:25.751Z</time></trkpt><trkpt lat="43.3579467" lon="10.8001383"><ele>64.66666666666667</ele><time>2026-04-18T10:28:26.755Z</time></trkpt><trkpt lat="43.3579233" lon="10.7998433"><ele>65.0</ele><time>2026-04-18T10:28:27.746Z</time></trkpt><trkpt lat="43.3577767" lon="10.7996"><ele>65.66666666666667</ele><time>2026-04-18T10:28:28.741Z</time></trkpt><trkpt lat="43.3576917" lon="10.79932"><ele>66.33333333333333</ele><time>2026-04-18T10:28:29.745Z</time></trkpt><trkpt lat="43.357565" lon="10.7990717"><ele>67.0</ele><time>2026-04-18T10:28:30.745Z</time></trkpt><trkpt lat="43.3574183" lon="10.798845"><ele>67.0</ele><time>2026-04-18T10:28:31.743Z</time></trkpt><trkpt lat="43.3572383" lon="10.798625"><ele>67.0</ele><time>2026-04-18T10:28:32.746Z</time></trkpt><trkpt lat="43.3571267" lon="10.7983617"><ele>66.0</ele><time>2026-04-18T10:28:33.744Z</time></trkpt><trkpt lat="43.3569333" lon="10.7981667"><ele>65.0</ele><time>2026-04-18T10:28:34.741Z</time></trkpt><trkpt lat="43.3567833" lon="10.7978967"><ele>67.5</ele><time>2026-04-18T10:28:35.749Z</time></trkpt><trkpt lat="43.3566567" lon="10.797605"><ele>70.0</ele><time>2026-04-18T10:28:36.74Z</time></trkpt><trkpt lat="43.3565483" lon="10.797315"><ele>70.0</ele><time>2026-04-18T10:28:37.747Z</time></trkpt><trkpt lat="43.3564633" lon="10.7970283"><ele>70.0</ele><time>2026-04-18T10:28:38.744Z</time></trkpt><trkpt lat="43.3563717" lon="10.7967133"><ele>66.0</ele><time>2026-04-18T10:28:39.745Z</time></trkpt><trkpt lat="43.3563583" lon="10.796405"><ele>62.0</ele><time>2026-04-18T10:28:40.745Z</time></trkpt><trkpt lat="43.356325" lon="10.7960617"><ele>62.0</ele><time>2026-04-18T10:28:41.745Z</time></trkpt><trkpt lat="43.3562933" lon="10.7956967"><ele>62.0</ele><time>2026-04-18T10:28:42.748Z</time></trkpt><trkpt lat="43.3562883" lon="10.7953367"><ele>61.0</ele><time>2026-04-18T10:28:43.748Z</time></trkpt><trkpt lat="43.3563133" lon="10.79498"><ele>60.0</ele><time>2026-04-18T10:28:44.747Z</time></trkpt><trkpt lat="43.3563633" lon="10.794615"><ele>60.5</ele><time>2026-04-18T10:28:45.748Z</time></trkpt><trkpt lat="43.3564233" lon="10.7942417"><ele>61.0</ele><time>2026-04-18T10:28:46.746Z</time></trkpt><trkpt lat="43.3564783" lon="10.7938667"><ele>60.5</ele><time>2026-04-18T10:28:47.747Z</time></trkpt><trkpt lat="43.3565567" lon="10.793505"><ele>60.0</ele><time>2026-04-18T10:28:48.753Z</time></trkpt><trkpt lat="43.356685" lon="10.79317"><ele>60.0</ele><time>2026-04-18T10:28:49.743Z</time></trkpt><trkpt lat="43.35679" lon="10.7928233"><ele>60.0</ele><time>2026-04-18T10:28:50.748Z</time></trkpt><trkpt lat="43.35689" lon="10.7924617"><ele>60.0</ele><time>2026-04-18T10:28:51.745Z</time></trkpt><trkpt lat="43.356985" lon="10.7920783"><ele>60.0</ele><time>2026-04-18T10:28:52.746Z</time></trkpt><trkpt lat="43.35707" lon="10.7916617"><ele>60.0</ele><time>2026-04-18T10:28:53.746Z</time></trkpt><trkpt lat="43.35698" lon="10.79129"><ele>60.0</ele><time>2026-04-18T10:28:54.741Z</time></trkpt><trkpt lat="43.357065" lon="10.79088"><ele>59.5</ele><time>2026-04-18T10:28:55.75Z</time></trkpt><trkpt lat="43.3571367" lon="10.7904717"><ele>59.0</ele><time>2026-04-18T10:28:56.747Z</time></trkpt><trkpt lat="43.3571883" lon="10.7900667"><ele>61.0</ele><time>2026-04-18T10:28:57.75Z</time></trkpt><trkpt lat="43.3572233" lon="10.7896633"><ele>63.0</ele><time>2026-04-18T10:28:58.744Z</time></trkpt><trkpt lat="43.3572467" lon="10.7892617"><ele>64.5</ele><time>2026-04-18T10:28:59.75Z</time></trkpt><trkpt lat="43.3572583" lon="10.78886"><ele>66.0</ele><time>2026-04-18T10:29:00.748Z</time></trkpt><trkpt lat="43.357255" lon="10.7884617"><ele>66.0</ele><time>2026-04-18T10:29:01.749Z</time></trkpt><trkpt lat="43.3572417" lon="10.7880667"><ele>66.0</ele><time>2026-04-18T10:29:02.752Z</time></trkpt><trkpt lat="43.3572167" lon="10.7876717"><ele>62.5</ele><time>2026-04-18T10:29:03.746Z</time></trkpt><trkpt lat="43.3571833" lon="10.7872833"><ele>59.0</ele><time>2026-04-18T10:29:04.743Z</time></trkpt><trkpt lat="43.3571583" lon="10.7868933"><ele>59.5</ele><time>2026-04-18T10:29:05.747Z</time></trkpt><trkpt lat="43.3570883" lon="10.7865133"><ele>60.0</ele><time>2026-04-18T10:29:06.75Z</time></trkpt><trkpt lat="43.357025" lon="10.7861317"><ele>60.5</ele><time>2026-04-18T10:29:07.751Z</time></trkpt><trkpt lat="43.356975" lon="10.78575"><ele>61.0</ele><time>2026-04-18T10:29:08.747Z</time></trkpt><trkpt lat="43.3569167" lon="10.7853733"><ele>60.5</ele><time>2026-04-18T10:29:09.746Z</time></trkpt><trkpt lat="43.3568567" lon="10.7849967"><ele>60.0</ele><time>2026-04-18T10:29:10.747Z</time></trkpt><trkpt lat="43.3567883" lon="10.7846233"><ele>60.0</ele><time>2026-04-18T10:29:11.744Z</time></trkpt><trkpt lat="43.35673" lon="10.7842567"><ele>60.0</ele><time>2026-04-18T10:29:12.745Z</time></trkpt><trkpt lat="43.3566767" lon="10.7839067"><ele>60.0</ele><time>2026-04-18T10:29:13.745Z</time></trkpt><trkpt lat="43.3566183" lon="10.783575"><ele>60.0</ele><time>2026-04-18T10:29:14.745Z</time></trkpt><trkpt lat="43.3565767" lon="10.7832567"><ele>59.5</ele><time>2026-04-18T10:29:15.745Z</time></trkpt><trkpt lat="43.3565133" lon="10.7829533"><ele>59.0</ele><time>2026-04-18T10:29:16.746Z</time></trkpt><trkpt lat="43.3564683" lon="10.782645"><ele>58.5</ele><time>2026-04-18T10:29:17.747Z</time></trkpt><trkpt lat="43.3564617" lon="10.7823333"><ele>58.0</ele><time>2026-04-18T10:29:18.745Z</time></trkpt><trkpt lat="43.3564483" lon="10.7820133"><ele>58.5</ele><time>2026-04-18T10:29:19.749Z</time></trkpt><trkpt lat="43.3564417" lon="10.78168"><ele>59.0</ele><time>2026-04-18T10:29:20.747Z</time></trkpt><trkpt lat="43.3564517" lon="10.7813333"><ele>59.5</ele><time>2026-04-18T10:29:21.747Z</time></trkpt><trkpt lat="43.3564467" lon="10.7809733"><ele>60.0</ele><time>2026-04-18T10:29:22.746Z</time></trkpt><trkpt lat="43.356435" lon="10.780615"><ele>60.0</ele><time>2026-04-18T10:29:23.752Z</time></trkpt><trkpt lat="43.3564333" lon="10.7802717"><ele>60.0</ele><time>2026-04-18T10:29:24.745Z</time></trkpt><trkpt lat="43.3564283" lon="10.779945"><ele>60.0</ele><time>2026-04-18T10:29:25.743Z</time></trkpt><trkpt lat="43.3564283" lon="10.7796317"><ele>60.0</ele><time>2026-04-18T10:29:26.75Z</time></trkpt><trkpt lat="43.3564317" lon="10.7793167"><ele>62.0</ele><time>2026-04-18T10:29:27.75Z</time></trkpt><trkpt lat="43.3564233" lon="10.779"><ele>64.0</ele><time>2026-04-18T10:29:28.745Z</time></trkpt><trkpt lat="43.3563783" lon="10.778695"><ele>61.0</ele><time>2026-04-18T10:29:29.752Z</time></trkpt><trkpt lat="43.3563067" lon="10.7783983"><ele>58.0</ele><time>2026-04-18T10:29:30.744Z</time></trkpt><trkpt lat="43.3562367" lon="10.7780867"><ele>58.0</ele><time>2026-04-18T10:29:31.744Z</time></trkpt><trkpt lat="43.356125" lon="10.7777867"><ele>58.0</ele><time>2026-04-18T10:29:32.745Z</time></trkpt><trkpt lat="43.3559583" lon="10.777555"><ele>60.0</ele><time>2026-04-18T10:29:33.748Z</time></trkpt><trkpt lat="43.3558" lon="10.7773083"><ele>62.0</ele><time>2026-04-18T10:29:34.744Z</time></trkpt><trkpt lat="43.355645" lon="10.7770417"><ele>60.5</ele><time>2026-04-18T10:29:35.746Z</time></trkpt><trkpt lat="43.3554767" lon="10.7768217"><ele>59.0</ele><time>2026-04-18T10:29:36.746Z</time></trkpt><trkpt lat="43.3552917" lon="10.7766533"><ele>59.0</ele><time>2026-04-18T10:29:37.747Z</time></trkpt><trkpt lat="43.3551083" lon="10.7765433"><ele>59.0</ele><time>2026-04-18T10:29:38.758Z</time></trkpt><trkpt lat="43.3549283" lon="10.776455"><ele>59.0</ele><time>2026-04-18T10:29:39.743Z</time></trkpt><trkpt lat="43.3547633" lon="10.7763417"><ele>58.333333333333336</ele><time>2026-04-18T10:29:40.749Z</time></trkpt><trkpt lat="43.3546067" lon="10.7762333"><ele>57.66666666666667</ele><time>2026-04-18T10:29:41.751Z</time></trkpt><trkpt lat="43.354445" lon="10.7762167"><ele>57.0</ele><time>2026-04-18T10:29:42.747Z</time></trkpt><trkpt lat="43.3543" lon="10.77613"><ele>57.0</ele><time>2026-04-18T10:29:43.745Z</time></trkpt><trkpt lat="43.3541567" lon="10.7760533"><ele>57.0</ele><time>2026-04-18T10:29:44.749Z</time></trkpt><trkpt lat="43.3540117" lon="10.7759667"><ele>57.0</ele><time>2026-04-18T10:29:45.745Z</time></trkpt><trkpt lat="43.35385" lon="10.7758783"><ele>56.66666666666667</ele><time>2026-04-18T10:29:46.748Z</time></trkpt><trkpt lat="43.3537217" lon="10.7757367"><ele>56.333333333333336</ele><time>2026-04-18T10:29:47.75Z</time></trkpt><trkpt lat="43.3535867" lon="10.7755683"><ele>56.0</ele><time>2026-04-18T10:29:48.744Z</time></trkpt><trkpt lat="43.3534667" lon="10.775395"><ele>56.0</ele><time>2026-04-18T10:29:49.747Z</time></trkpt><trkpt lat="43.3533633" lon="10.775195"><ele>56.0</ele><time>2026-04-18T10:29:50.75Z</time></trkpt><trkpt lat="43.35326" lon="10.7749967"><ele>56.0</ele><time>2026-04-18T10:29:51.752Z</time></trkpt><trkpt lat="43.3531583" lon="10.7747983"><ele>56.0</ele><time>2026-04-18T10:29:52.747Z</time></trkpt><trkpt lat="43.3530683" lon="10.774605"><ele>56.0</ele><time>2026-04-18T10:29:53.743Z</time></trkpt><trkpt lat="43.3529617" lon="10.7744133"><ele>56.0</ele><time>2026-04-18T10:29:54.742Z</time></trkpt><trkpt lat="43.3528417" lon="10.774225"><ele>56.0</ele><time>2026-04-18T10:29:55.743Z</time></trkpt><trkpt lat="43.352735" lon="10.7740217"><ele>56.0</ele><time>2026-04-18T10:29:56.752Z</time></trkpt><trkpt lat="43.352615" lon="10.7738067"><ele>56.0</ele><time>2026-04-18T10:29:57.745Z</time></trkpt><trkpt lat="43.3524867" lon="10.7735833"><ele>56.5</ele><time>2026-04-18T10:29:58.748Z</time></trkpt><trkpt lat="43.3523533" lon="10.77334"><ele>57.0</ele><time>2026-04-18T10:29:59.746Z</time></trkpt><trkpt lat="43.3522033" lon="10.7730883"><ele>56.0</ele><time>2026-04-18T10:30:00.743Z</time></trkpt><trkpt lat="43.352055" lon="10.772835"><ele>55.0</ele><time>2026-04-18T10:30:01.759Z</time></trkpt><trkpt lat="43.3519083" lon="10.7725717"><ele>55.0</ele><time>2026-04-18T10:30:02.748Z</time></trkpt><trkpt lat="43.351755" lon="10.7722933"><ele>55.0</ele><time>2026-04-18T10:30:03.745Z</time></trkpt><trkpt lat="43.3516233" lon="10.7720583"><ele>55.5</ele><time>2026-04-18T10:30:04.747Z</time></trkpt><trkpt lat="43.35147" lon="10.7718017"><ele>56.0</ele><time>2026-04-18T10:30:05.744Z</time></trkpt><trkpt lat="43.351315" lon="10.77154"><ele>56.5</ele><time>2026-04-18T10:30:06.743Z</time></trkpt><trkpt lat="43.3511683" lon="10.7712833"><ele>57.0</ele><time>2026-04-18T10:30:07.748Z</time></trkpt><trkpt lat="43.3510267" lon="10.7710217"><ele>57.0</ele><time>2026-04-18T10:30:08.752Z</time></trkpt><trkpt lat="43.3508867" lon="10.77077"><ele>57.0</ele><time>2026-04-18T10:30:09.746Z</time></trkpt><trkpt lat="43.3507683" lon="10.770575"><ele>57.0</ele><time>2026-04-18T10:30:10.745Z</time></trkpt><trkpt lat="43.350625" lon="10.770295"><ele>56.5</ele><time>2026-04-18T10:30:11.744Z</time></trkpt><trkpt lat="43.3504833" lon="10.7700267"><ele>56.0</ele><time>2026-04-18T10:30:12.746Z</time></trkpt><trkpt lat="43.3503517" lon="10.7697483"><ele>56.0</ele><time>2026-04-18T10:30:13.742Z</time></trkpt><trkpt lat="43.350215" lon="10.7694767"><ele>56.0</ele><time>2026-04-18T10:30:14.743Z</time></trkpt><trkpt lat="43.35008" lon="10.76922"><ele>56.0</ele><time>2026-04-18T10:30:15.743Z</time></trkpt><trkpt lat="43.34996" lon="10.7689683"><ele>56.0</ele><time>2026-04-18T10:30:16.744Z</time></trkpt><trkpt lat="43.349835" lon="10.768725"><ele>56.0</ele><time>2026-04-18T10:30:17.747Z</time></trkpt><trkpt lat="43.34972" lon="10.7684667"><ele>55.5</ele><time>2026-04-18T10:30:18.75Z</time></trkpt><trkpt lat="43.3496233" lon="10.7681983"><ele>55.0</ele><time>2026-04-18T10:30:19.744Z</time></trkpt><trkpt lat="43.3495483" lon="10.76789"><ele>55.0</ele><time>2026-04-18T10:30:20.749Z</time></trkpt><trkpt lat="43.3495067" lon="10.767595"><ele>55.0</ele><time>2026-04-18T10:30:21.744Z</time></trkpt><trkpt lat="43.3494967" lon="10.7673167"><ele>55.0</ele><time>2026-04-18T10:30:22.747Z</time></trkpt><trkpt lat="43.3495" lon="10.767055"><ele>55.33333333333333</ele><time>2026-04-18T10:30:23.745Z</time></trkpt><trkpt lat="43.349505" lon="10.76683"><ele>55.66666666666667</ele><time>2026-04-18T10:30:24.741Z</time></trkpt><trkpt lat="43.34957" lon="10.7666717"><ele>56.0</ele><time>2026-04-18T10:30:25.745Z</time></trkpt><trkpt lat="43.3494867" lon="10.7664367"><ele>56.0</ele><time>2026-04-18T10:30:26.748Z</time></trkpt><trkpt lat="43.3493733" lon="10.76622"><ele>56.0</ele><time>2026-04-18T10:30:27.743Z</time></trkpt><trkpt lat="43.3492867" lon="10.7660283"><ele>56.0</ele><time>2026-04-18T10:30:28.743Z</time></trkpt><trkpt lat="43.349145" lon="10.7658333"><ele>56.0</ele><time>2026-04-18T10:30:29.745Z</time></trkpt><trkpt lat="43.349" lon="10.765645"><ele>56.0</ele><time>2026-04-18T10:30:30.745Z</time></trkpt><trkpt lat="43.3488767" lon="10.7654267"><ele>56.0</ele><time>2026-04-18T10:30:31.748Z</time></trkpt><trkpt lat="43.3487567" lon="10.7652067"><ele>57.333333333333336</ele><time>2026-04-18T10:30:32.754Z</time></trkpt><trkpt lat="43.34863" lon="10.76497"><ele>58.66666666666667</ele><time>2026-04-18T10:30:33.747Z</time></trkpt><trkpt lat="43.34852" lon="10.764695"><ele>60.0</ele><time>2026-04-18T10:30:34.745Z</time></trkpt><trkpt lat="43.34841" lon="10.764405"><ele>62.5</ele><time>2026-04-18T10:30:35.741Z</time></trkpt><trkpt lat="43.3483183" lon="10.7640817"><ele>65.0</ele><time>2026-04-18T10:30:36.745Z</time></trkpt><trkpt lat="43.34822" lon="10.7637483"><ele>66.0</ele><time>2026-04-18T10:30:37.746Z</time></trkpt><trkpt lat="43.3481167" lon="10.7634217"><ele>67.0</ele><time>2026-04-18T10:30:38.751Z</time></trkpt><trkpt lat="43.3480183" lon="10.7631133"><ele>63.0</ele><time>2026-04-18T10:30:39.748Z</time></trkpt><trkpt lat="43.3479317" lon="10.7628117"><ele>59.0</ele><time>2026-04-18T10:30:40.742Z</time></trkpt><trkpt lat="43.3478467" lon="10.76251"><ele>58.5</ele><time>2026-04-18T10:30:41.745Z</time></trkpt><trkpt lat="43.3477633" lon="10.7622"><ele>58.0</ele><time>2026-04-18T10:30:42.745Z</time></trkpt><trkpt lat="43.34771" lon="10.7618717"><ele>58.5</ele><time>2026-04-18T10:30:43.741Z</time></trkpt><trkpt lat="43.3476683" lon="10.7615117"><ele>59.0</ele><time>2026-04-18T10:30:44.745Z</time></trkpt><trkpt lat="43.34762" lon="10.761135"><ele>58.5</ele><time>2026-04-18T10:30:45.744Z</time></trkpt><trkpt lat="43.34758" lon="10.76077"><ele>58.0</ele><time>2026-04-18T10:30:46.745Z</time></trkpt><trkpt lat="43.3475533" lon="10.76044"><ele>57.0</ele><time>2026-04-18T10:30:47.75Z</time></trkpt><trkpt lat="43.3475" lon="10.760135"><ele>56.0</ele><time>2026-04-18T10:30:48.744Z</time></trkpt><trkpt lat="43.3474283" lon="10.7598383"><ele>56.0</ele><time>2026-04-18T10:30:49.747Z</time></trkpt><trkpt lat="43.3473317" lon="10.7595483"><ele>56.0</ele><time>2026-04-18T10:30:50.744Z</time></trkpt><trkpt lat="43.34721" lon="10.7592567"><ele>56.5</ele><time>2026-04-18T10:30:51.749Z</time></trkpt><trkpt lat="43.3470833" lon="10.75896"><ele>57.0</ele><time>2026-04-18T10:30:52.744Z</time></trkpt><trkpt lat="43.34693" lon="10.7586817"><ele>59.0</ele><time>2026-04-18T10:30:53.743Z</time></trkpt><trkpt lat="43.3467667" lon="10.7584067"><ele>61.0</ele><time>2026-04-18T10:30:54.745Z</time></trkpt><trkpt lat="43.3466333" lon="10.75817"><ele>61.0</ele><time>2026-04-18T10:30:55.751Z</time></trkpt><trkpt lat="43.3464933" lon="10.7579167"><ele>61.0</ele><time>2026-04-18T10:30:56.745Z</time></trkpt><trkpt lat="43.3463417" lon="10.7576517"><ele>59.666666666666664</ele><time>2026-04-18T10:30:57.745Z</time></trkpt><trkpt lat="43.3462183" lon="10.7574217"><ele>58.33333333333333</ele><time>2026-04-18T10:30:58.745Z</time></trkpt><trkpt lat="43.34608" lon="10.7571817"><ele>57.0</ele><time>2026-04-18T10:30:59.747Z</time></trkpt><trkpt lat="43.3459583" lon="10.756965"><ele>57.0</ele><time>2026-04-18T10:31:00.748Z</time></trkpt><trkpt lat="43.34583" lon="10.7567583"><ele>57.0</ele><time>2026-04-18T10:31:01.742Z</time></trkpt><trkpt lat="43.3457" lon="10.7565783"><ele>57.0</ele><time>2026-04-18T10:31:02.742Z</time></trkpt><trkpt lat="43.3455617" lon="10.75644"><ele>56.75</ele><time>2026-04-18T10:31:03.748Z</time></trkpt><trkpt lat="43.3454433" lon="10.75627"><ele>56.5</ele><time>2026-04-18T10:31:04.746Z</time></trkpt><trkpt lat="43.3453467" lon="10.7561383"><ele>56.25</ele><time>2026-04-18T10:31:05.751Z</time></trkpt><trkpt lat="43.345255" lon="10.7560333"><ele>56.0</ele><time>2026-04-18T10:31:06.743Z</time></trkpt><trkpt lat="43.3451867" lon="10.7559233"><ele>56.00000000000001</ele><time>2026-04-18T10:31:07.745Z</time></trkpt><trkpt lat="43.34516" lon="10.7558217"><ele>56.0</ele><time>2026-04-18T10:31:08.747Z</time></trkpt><trkpt lat="43.3451683" lon="10.75571"><ele>56.0</ele><time>2026-04-18T10:31:09.746Z</time></trkpt><trkpt lat="43.345205" lon="10.7556133"><ele>56.0</ele><time>2026-04-18T10:31:10.744Z</time></trkpt><trkpt lat="43.3452317" lon="10.7555233"><ele>56.00000000000001</ele><time>2026-04-18T10:31:11.748Z</time></trkpt><trkpt lat="43.3452717" lon="10.75543"><ele>56.0</ele><time>2026-04-18T10:31:12.746Z</time></trkpt><trkpt lat="43.3452717" lon="10.755305"><ele>56.00000000000001</ele><time>2026-04-18T10:31:13.75Z</time></trkpt><trkpt lat="43.3452317" lon="10.7552267"><ele>56.0</ele><time>2026-04-18T10:31:14.743Z</time></trkpt><trkpt lat="43.3451733" lon="10.755185"><ele>56.0</ele><time>2026-04-18T10:31:15.742Z</time></trkpt><trkpt lat="43.345095" lon="10.7551317"><ele>56.0</ele><time>2026-04-18T10:31:16.749Z</time></trkpt><trkpt lat="43.345" lon="10.7550733"><ele>56.00000000000001</ele><time>2026-04-18T10:31:17.745Z</time></trkpt><trkpt lat="43.34492" lon="10.754965"><ele>56.0</ele><time>2026-04-18T10:31:18.744Z</time></trkpt><trkpt lat="43.3448767" lon="10.7548417"><ele>56.0</ele><time>2026-04-18T10:31:19.745Z</time></trkpt><trkpt lat="43.3448367" lon="10.75471"><ele>55.99999999999999</ele><time>2026-04-18T10:31:20.746Z</time></trkpt><trkpt lat="43.3448183" lon="10.7545867"><ele>55.99999999999999</ele><time>2026-04-18T10:31:21.741Z</time></trkpt><trkpt lat="43.34479" lon="10.754455"><ele>56.0</ele><time>2026-04-18T10:31:22.744Z</time></trkpt><trkpt lat="43.3447533" lon="10.7542883"><ele>56.0</ele><time>2026-04-18T10:31:23.742Z</time></trkpt><trkpt lat="43.3446933" lon="10.7541383"><ele>55.8</ele><time>2026-04-18T10:31:24.746Z</time></trkpt><trkpt lat="43.3446567" lon="10.7539633"><ele>55.599999999999994</ele><time>2026-04-18T10:31:25.741Z</time></trkpt><trkpt lat="43.3445967" lon="10.753845"><ele>55.4</ele><time>2026-04-18T10:31:26.742Z</time></trkpt><trkpt lat="43.3445967" lon="10.75371"><ele>55.2</ele><time>2026-04-18T10:31:28.743Z</time></trkpt><trkpt lat="43.34454" lon="10.7536217"><ele>55.0</ele><time>2026-04-18T10:31:30.742Z</time></trkpt><trkpt lat="43.3445383" lon="10.75349"><ele>55.33333333333333</ele><time>2026-04-18T10:31:35.748Z</time></trkpt><trkpt lat="43.3444883" lon="10.7534017"><ele>55.666666666666664</ele><time>2026-04-18T10:31:39.745Z</time></trkpt><trkpt lat="43.3444467" lon="10.75333"><ele>56.0</ele><time>2026-04-18T10:31:42.74Z</time></trkpt><trkpt lat="43.3443917" lon="10.7532667"><ele>56.33333333333333</ele><time>2026-04-18T10:31:46.744Z</time></trkpt><trkpt lat="43.344355" lon="10.75319"><ele>56.666666666666664</ele><time>2026-04-18T10:31:53.743Z</time></trkpt><trkpt lat="43.3443033" lon="10.75308"><ele>57.0</ele><time>2026-04-18T10:31:54.741Z</time></trkpt><trkpt lat="43.344275" lon="10.75298"><ele>57.0</ele><time>2026-04-18T10:31:57.746Z</time></trkpt><trkpt lat="43.344415" lon="10.752795"><ele>57.0</ele><time>2026-04-18T10:35:55.19Z</time></trkpt></trkseg><trkseg><trkpt lat="43.344274" lon="10.752928"><ele>57.0</ele><time>2026-04-18T11:37:03.739Z</time></trkpt><trkpt lat="43.3443083" lon="10.7530067"><ele>57.0</ele><time>2026-04-18T11:39:49.741Z</time></trkpt><trkpt lat="43.3443633" lon="10.75311"><ele>57.0</ele><time>2026-04-18T11:39:51.75Z</time></trkpt><trkpt lat="43.3444167" lon="10.7532083"><ele>57.0</ele><time>2026-04-18T11:39:53.744Z</time></trkpt><trkpt lat="43.3444667" lon="10.7533017"><ele>57.0</ele><time>2026-04-18T11:39:55.746Z</time></trkpt><trkpt lat="43.344525" lon="10.7533933"><ele>57.0</ele><time>2026-04-18T11:39:57.743Z</time></trkpt><trkpt lat="43.34453" lon="10.75348"><ele>57.0</ele><time>2026-04-18T11:39:59.746Z</time></trkpt><trkpt lat="43.3444567" lon="10.7534917"><ele>57.0</ele><time>2026-04-18T11:40:02.744Z</time></trkpt><trkpt lat="43.3443717" lon="10.7533717"><ele>57.0</ele><time>2026-04-18T11:40:04.744Z</time></trkpt><trkpt lat="43.3443133" lon="10.7532833"><ele>57.0</ele><time>2026-04-18T11:40:05.75Z</time></trkpt><trkpt lat="43.344245" lon="10.7531817"><ele>57.0</ele><time>2026-04-18T11:40:06.744Z</time></trkpt><trkpt lat="43.3441683" lon="10.7530667"><ele>57.0</ele><time>2026-04-18T11:40:07.742Z</time></trkpt><trkpt lat="43.3440817" lon="10.7529417"><ele>57.0</ele><time>2026-04-18T11:40:08.746Z</time></trkpt><trkpt lat="43.3439867" lon="10.7528083"><ele>57.0</ele><time>2026-04-18T11:40:09.749Z</time></trkpt><trkpt lat="43.3438867" lon="10.75266"><ele>57.0</ele><time>2026-04-18T11:40:10.742Z</time></trkpt><trkpt lat="43.3437783" lon="10.7525033"><ele>56.66666666666667</ele><time>2026-04-18T11:40:11.745Z</time></trkpt><trkpt lat="43.3436683" lon="10.7523533"><ele>56.333333333333336</ele><time>2026-04-18T11:40:12.744Z</time></trkpt><trkpt lat="43.3435567" lon="10.7522017"><ele>56.0</ele><time>2026-04-18T11:40:13.743Z</time></trkpt><trkpt lat="43.3434417" lon="10.7520417"><ele>56.333333333333336</ele><time>2026-04-18T11:40:14.745Z</time></trkpt><trkpt lat="43.343325" lon="10.7518683"><ele>56.66666666666667</ele><time>2026-04-18T11:40:15.747Z</time></trkpt><trkpt lat="43.3432017" lon="10.7516883"><ele>57.0</ele><time>2026-04-18T11:40:16.75Z</time></trkpt><trkpt lat="43.3430733" lon="10.7515017"><ele>56.66666666666667</ele><time>2026-04-18T11:40:17.745Z</time></trkpt><trkpt lat="43.3429483" lon="10.7513267"><ele>56.333333333333336</ele><time>2026-04-18T11:40:18.746Z</time></trkpt><trkpt lat="43.34283" lon="10.7511567"><ele>56.0</ele><time>2026-04-18T11:40:19.744Z</time></trkpt><trkpt lat="43.3427217" lon="10.7509967"><ele>56.0</ele><time>2026-04-18T11:40:20.743Z</time></trkpt><trkpt lat="43.34262" lon="10.7508433"><ele>56.0</ele><time>2026-04-18T11:40:21.745Z</time></trkpt><trkpt lat="43.342515" lon="10.7506933"><ele>56.0</ele><time>2026-04-18T11:40:22.75Z</time></trkpt><trkpt lat="43.3424033" lon="10.7505367"><ele>56.0</ele><time>2026-04-18T11:40:23.745Z</time></trkpt><trkpt lat="43.34229" lon="10.7503733"><ele>56.0</ele><time>2026-04-18T11:40:24.744Z</time></trkpt><trkpt lat="43.342175" lon="10.7502067"><ele>56.0</ele><time>2026-04-18T11:40:25.743Z</time></trkpt><trkpt lat="43.3420567" lon="10.750035"><ele>55.66666666666667</ele><time>2026-04-18T11:40:26.745Z</time></trkpt><trkpt lat="43.341935" lon="10.7498617"><ele>55.33333333333333</ele><time>2026-04-18T11:40:27.747Z</time></trkpt><trkpt lat="43.3418133" lon="10.7496867"><ele>55.0</ele><time>2026-04-18T11:40:28.745Z</time></trkpt><trkpt lat="43.3416867" lon="10.749515"><ele>54.666666666666664</ele><time>2026-04-18T11:40:29.748Z</time></trkpt><trkpt lat="43.34155" lon="10.7493383"><ele>54.33333333333333</ele><time>2026-04-18T11:40:30.744Z</time></trkpt><trkpt lat="43.3414117" lon="10.749175"><ele>54.0</ele><time>2026-04-18T11:40:31.745Z</time></trkpt><trkpt lat="43.341255" lon="10.749025"><ele>54.0</ele><time>2026-04-18T11:40:32.743Z</time></trkpt><trkpt lat="43.3410867" lon="10.7488833"><ele>54.0</ele><time>2026-04-18T11:40:33.743Z</time></trkpt><trkpt lat="43.3409133" lon="10.7487433"><ele>54.0</ele><time>2026-04-18T11:40:34.746Z</time></trkpt><trkpt lat="43.34074" lon="10.748615"><ele>54.33333333333333</ele><time>2026-04-18T11:40:35.746Z</time></trkpt><trkpt lat="43.3405667" lon="10.7484967"><ele>54.666666666666664</ele><time>2026-04-18T11:40:36.752Z</time></trkpt><trkpt lat="43.3403933" lon="10.74839"><ele>55.0</ele><time>2026-04-18T11:40:37.744Z</time></trkpt><trkpt lat="43.3402133" lon="10.74829"><ele>55.0</ele><time>2026-04-18T11:40:38.744Z</time></trkpt><trkpt lat="43.34002" lon="10.7482"><ele>55.0</ele><time>2026-04-18T11:40:39.744Z</time></trkpt><trkpt lat="43.339815" lon="10.7481167"><ele>55.0</ele><time>2026-04-18T11:40:40.745Z</time></trkpt><trkpt lat="43.3396133" lon="10.7480333"><ele>55.0</ele><time>2026-04-18T11:40:41.743Z</time></trkpt><trkpt lat="43.3394133" lon="10.7479617"><ele>55.0</ele><time>2026-04-18T11:40:42.746Z</time></trkpt><trkpt lat="43.339225" lon="10.74789"><ele>55.0</ele><time>2026-04-18T11:40:43.744Z</time></trkpt><trkpt lat="43.339045" lon="10.747835"><ele>54.0</ele><time>2026-04-18T11:40:44.748Z</time></trkpt><trkpt lat="43.3388733" lon="10.7478017"><ele>53.0</ele><time>2026-04-18T11:40:45.746Z</time></trkpt><trkpt lat="43.3387033" lon="10.7477867"><ele>52.0</ele><time>2026-04-18T11:40:46.742Z</time></trkpt><trkpt lat="43.3385383" lon="10.7477833"><ele>52.0</ele><time>2026-04-18T11:40:47.743Z</time></trkpt><trkpt lat="43.3383667" lon="10.7477933"><ele>52.0</ele><time>2026-04-18T11:40:48.746Z</time></trkpt><trkpt lat="43.3381867" lon="10.7478017"><ele>52.0</ele><time>2026-04-18T11:40:49.742Z</time></trkpt><trkpt lat="43.338005" lon="10.7478033"><ele>52.33333333333333</ele><time>2026-04-18T11:40:50.743Z</time></trkpt><trkpt lat="43.337815" lon="10.7478033"><ele>52.66666666666667</ele><time>2026-04-18T11:40:51.743Z</time></trkpt><trkpt lat="43.33763" lon="10.7477783"><ele>53.0</ele><time>2026-04-18T11:40:52.742Z</time></trkpt><trkpt lat="43.3374583" lon="10.74773"><ele>54.0</ele><time>2026-04-18T11:40:53.747Z</time></trkpt><trkpt lat="43.3372983" lon="10.7476567"><ele>55.0</ele><time>2026-04-18T11:40:54.745Z</time></trkpt><trkpt lat="43.3371483" lon="10.7475433"><ele>56.0</ele><time>2026-04-18T11:40:55.748Z</time></trkpt><trkpt lat="43.337005" lon="10.7473967"><ele>56.0</ele><time>2026-04-18T11:40:56.746Z</time></trkpt><trkpt lat="43.336865" lon="10.7472217"><ele>56.0</ele><time>2026-04-18T11:40:57.745Z</time></trkpt><trkpt lat="43.336725" lon="10.7470467"><ele>56.0</ele><time>2026-04-18T11:40:58.746Z</time></trkpt><trkpt lat="43.3365883" lon="10.7468817"><ele>55.333333333333336</ele><time>2026-04-18T11:40:59.747Z</time></trkpt><trkpt lat="43.336455" lon="10.7467117"><ele>54.66666666666667</ele><time>2026-04-18T11:41:00.746Z</time></trkpt><trkpt lat="43.3363367" lon="10.746525"><ele>54.0</ele><time>2026-04-18T11:41:01.744Z</time></trkpt><trkpt lat="43.3362367" lon="10.746295"><ele>54.0</ele><time>2026-04-18T11:41:02.748Z</time></trkpt><trkpt lat="43.3361533" lon="10.74605"><ele>54.0</ele><time>2026-04-18T11:41:03.747Z</time></trkpt><trkpt lat="43.3360817" lon="10.74581"><ele>54.0</ele><time>2026-04-18T11:41:04.746Z</time></trkpt><trkpt lat="43.3360217" lon="10.7455833"><ele>54.33333333333333</ele><time>2026-04-18T11:41:05.743Z</time></trkpt><trkpt lat="43.3359633" lon="10.7453767"><ele>54.666666666666664</ele><time>2026-04-18T11:41:06.751Z</time></trkpt><trkpt lat="43.3359067" lon="10.745175"><ele>55.0</ele><time>2026-04-18T11:41:07.754Z</time></trkpt><trkpt lat="43.3358533" lon="10.7449783"><ele>55.75</ele><time>2026-04-18T11:41:08.746Z</time></trkpt><trkpt lat="43.3358" lon="10.7447933"><ele>56.5</ele><time>2026-04-18T11:41:09.743Z</time></trkpt><trkpt lat="43.3357483" lon="10.744615"><ele>57.25</ele><time>2026-04-18T11:41:10.754Z</time></trkpt><trkpt lat="43.3357017" lon="10.7444433"><ele>58.0</ele><time>2026-04-18T11:41:11.746Z</time></trkpt><trkpt lat="43.3356583" lon="10.74428"><ele>57.0</ele><time>2026-04-18T11:41:12.762Z</time></trkpt><trkpt lat="43.335615" lon="10.7441217"><ele>56.0</ele><time>2026-04-18T11:41:13.751Z</time></trkpt><trkpt lat="43.3355717" lon="10.7439733"><ele>55.0</ele><time>2026-04-18T11:41:14.756Z</time></trkpt><trkpt lat="43.33553" lon="10.7438167"><ele>54.0</ele><time>2026-04-18T11:41:15.745Z</time></trkpt><trkpt lat="43.3354867" lon="10.743665"><ele>54.0</ele><time>2026-04-18T11:41:16.741Z</time></trkpt><trkpt lat="43.3354517" lon="10.7435133"><ele>54.0</ele><time>2026-04-18T11:41:17.747Z</time></trkpt><trkpt lat="43.33542" lon="10.7433583"><ele>54.0</ele><time>2026-04-18T11:41:18.744Z</time></trkpt><trkpt lat="43.3354017" lon="10.7432017"><ele>54.0</ele><time>2026-04-18T11:41:19.749Z</time></trkpt><trkpt lat="43.3353933" lon="10.7430533"><ele>54.0</ele><time>2026-04-18T11:41:20.752Z</time></trkpt><trkpt lat="43.3353933" lon="10.7429167"><ele>54.0</ele><time>2026-04-18T11:41:21.755Z</time></trkpt><trkpt lat="43.335405" lon="10.7427933"><ele>54.0</ele><time>2026-04-18T11:41:22.743Z</time></trkpt><trkpt lat="43.33541" lon="10.7426783"><ele>54.0</ele><time>2026-04-18T11:41:23.751Z</time></trkpt><trkpt lat="43.335395" lon="10.742565"><ele>54.0</ele><time>2026-04-18T11:41:24.745Z</time></trkpt><trkpt lat="43.335365" lon="10.7424583"><ele>54.0</ele><time>2026-04-18T11:41:25.744Z</time></trkpt><trkpt lat="43.3353" lon="10.742365"><ele>54.0</ele><time>2026-04-18T11:41:26.747Z</time></trkpt><trkpt lat="43.3352333" lon="10.74228"><ele>54.0</ele><time>2026-04-18T11:41:27.744Z</time></trkpt><trkpt lat="43.335175" lon="10.7421933"><ele>54.0</ele><time>2026-04-18T11:41:28.744Z</time></trkpt><trkpt lat="43.335125" lon="10.7421167"><ele>54.0</ele><time>2026-04-18T11:41:29.748Z</time></trkpt><trkpt lat="43.3350783" lon="10.7420467"><ele>54.0</ele><time>2026-04-18T11:41:30.745Z</time></trkpt><trkpt lat="43.3350317" lon="10.74197"><ele>54.0</ele><time>2026-04-18T11:41:31.746Z</time></trkpt><trkpt lat="43.3349733" lon="10.74189"><ele>53.666666666666664</ele><time>2026-04-18T11:41:32.745Z</time></trkpt><trkpt lat="43.3349083" lon="10.7418067"><ele>53.33333333333333</ele><time>2026-04-18T11:41:33.741Z</time></trkpt><trkpt lat="43.3348483" lon="10.741715"><ele>53.0</ele><time>2026-04-18T11:41:34.743Z</time></trkpt><trkpt lat="43.33479" lon="10.7416217"><ele>52.666666666666664</ele><time>2026-04-18T11:41:35.743Z</time></trkpt><trkpt lat="43.33474" lon="10.7415233"><ele>52.33333333333333</ele><time>2026-04-18T11:41:36.75Z</time></trkpt><trkpt lat="43.334695" lon="10.7414267"><ele>52.0</ele><time>2026-04-18T11:41:37.742Z</time></trkpt><trkpt lat="43.33465" lon="10.741335"><ele>51.99999999999999</ele><time>2026-04-18T11:41:38.75Z</time></trkpt><trkpt lat="43.3346" lon="10.7412467"><ele>52.0</ele><time>2026-04-18T11:41:39.749Z</time></trkpt><trkpt lat="43.3345483" lon="10.7411567"><ele>52.0</ele><time>2026-04-18T11:41:40.744Z</time></trkpt><trkpt lat="43.3344967" lon="10.741065"><ele>52.0</ele><time>2026-04-18T11:41:41.748Z</time></trkpt><trkpt lat="43.334445" lon="10.740965"><ele>51.99999999999999</ele><time>2026-04-18T11:41:42.747Z</time></trkpt><trkpt lat="43.3343917" lon="10.7408633"><ele>52.0</ele><time>2026-04-18T11:41:43.746Z</time></trkpt><trkpt lat="43.3343317" lon="10.74076"><ele>51.8</ele><time>2026-04-18T11:41:44.742Z</time></trkpt><trkpt lat="43.3342667" lon="10.7406533"><ele>51.6</ele><time>2026-04-18T11:41:45.74Z</time></trkpt><trkpt lat="43.334205" lon="10.74055"><ele>51.4</ele><time>2026-04-18T11:41:46.744Z</time></trkpt><trkpt lat="43.3341333" lon="10.7404367"><ele>51.199999999999996</ele><time>2026-04-18T11:41:47.746Z</time></trkpt><trkpt lat="43.334065" lon="10.740325"><ele>51.0</ele><time>2026-04-18T11:41:48.741Z</time></trkpt><trkpt lat="43.3339983" lon="10.7402067"><ele>51.25</ele><time>2026-04-18T11:41:49.74Z</time></trkpt><trkpt lat="43.3339283" lon="10.7400833"><ele>51.5</ele><time>2026-04-18T11:41:50.746Z</time></trkpt><trkpt lat="43.3338517" lon="10.7399483"><ele>51.75</ele><time>2026-04-18T11:41:51.747Z</time></trkpt><trkpt lat="43.333765" lon="10.7398"><ele>52.0</ele><time>2026-04-18T11:41:52.745Z</time></trkpt><trkpt lat="43.3336683" lon="10.73964"><ele>52.0</ele><time>2026-04-18T11:41:53.743Z</time></trkpt><trkpt lat="43.3335683" lon="10.73948"><ele>52.0</ele><time>2026-04-18T11:41:54.747Z</time></trkpt><trkpt lat="43.333475" lon="10.73933"><ele>52.0</ele><time>2026-04-18T11:41:55.744Z</time></trkpt><trkpt lat="43.3333933" lon="10.7391883"><ele>52.0</ele><time>2026-04-18T11:41:56.745Z</time></trkpt><trkpt lat="43.3333167" lon="10.7390567"><ele>52.0</ele><time>2026-04-18T11:41:57.744Z</time></trkpt><trkpt lat="43.3332317" lon="10.73893"><ele>52.0</ele><time>2026-04-18T11:41:58.74Z</time></trkpt><trkpt lat="43.3331233" lon="10.7388083"><ele>52.0</ele><time>2026-04-18T11:41:59.743Z</time></trkpt><trkpt lat="43.3329833" lon="10.7386933"><ele>52.0</ele><time>2026-04-18T11:42:00.745Z</time></trkpt><trkpt lat="43.3328167" lon="10.7385883"><ele>52.666666666666664</ele><time>2026-04-18T11:42:01.741Z</time></trkpt><trkpt lat="43.3326283" lon="10.73848"><ele>53.33333333333333</ele><time>2026-04-18T11:42:02.745Z</time></trkpt><trkpt lat="43.33243" lon="10.7383633"><ele>54.0</ele><time>2026-04-18T11:42:03.746Z</time></trkpt><trkpt lat="43.3322233" lon="10.738245"><ele>53.33333333333333</ele><time>2026-04-18T11:42:04.742Z</time></trkpt><trkpt lat="43.3320183" lon="10.73813"><ele>52.666666666666664</ele><time>2026-04-18T11:42:05.747Z</time></trkpt><trkpt lat="43.3318283" lon="10.7380217"><ele>52.0</ele><time>2026-04-18T11:42:06.747Z</time></trkpt><trkpt lat="43.33165" lon="10.7379217"><ele>52.0</ele><time>2026-04-18T11:42:07.751Z</time></trkpt><trkpt lat="43.331485" lon="10.7378167"><ele>52.0</ele><time>2026-04-18T11:42:08.748Z</time></trkpt><trkpt lat="43.3313283" lon="10.737705"><ele>52.0</ele><time>2026-04-18T11:42:09.746Z</time></trkpt><trkpt lat="43.3311833" lon="10.737565"><ele>55.33333333333333</ele><time>2026-04-18T11:42:10.75Z</time></trkpt><trkpt lat="43.33106" lon="10.7373983"><ele>58.66666666666667</ele><time>2026-04-18T11:42:11.744Z</time></trkpt><trkpt lat="43.3309617" lon="10.7372083"><ele>62.0</ele><time>2026-04-18T11:42:12.745Z</time></trkpt><trkpt lat="43.33088" lon="10.7369967"><ele>62.5</ele><time>2026-04-18T11:42:13.747Z</time></trkpt><trkpt lat="43.3308083" lon="10.73678"><ele>63.0</ele><time>2026-04-18T11:42:14.747Z</time></trkpt><trkpt lat="43.3307517" lon="10.736585"><ele>63.5</ele><time>2026-04-18T11:42:15.749Z</time></trkpt><trkpt lat="43.3307067" lon="10.73643"><ele>64.0</ele><time>2026-04-18T11:42:16.747Z</time></trkpt><trkpt lat="43.3306683" lon="10.73631"><ele>64.0</ele><time>2026-04-18T11:42:17.743Z</time></trkpt><trkpt lat="43.33062" lon="10.736225"><ele>64.0</ele><time>2026-04-18T11:42:18.745Z</time></trkpt><trkpt lat="43.3305567" lon="10.736165"><ele>64.0</ele><time>2026-04-18T11:42:19.747Z</time></trkpt><trkpt lat="43.330465" lon="10.736175"><ele>64.0</ele><time>2026-04-18T11:42:20.745Z</time></trkpt><trkpt lat="43.3303717" lon="10.7362"><ele>64.0</ele><time>2026-04-18T11:42:21.743Z</time></trkpt><trkpt lat="43.33025" lon="10.7362583"><ele>66.66666666666666</ele><time>2026-04-18T11:42:22.754Z</time></trkpt><trkpt lat="43.3300933" lon="10.7363517"><ele>69.33333333333333</ele><time>2026-04-18T11:42:23.742Z</time></trkpt><trkpt lat="43.3299417" lon="10.7364417"><ele>72.0</ele><time>2026-04-18T11:42:24.741Z</time></trkpt><trkpt lat="43.3297867" lon="10.7365333"><ele>72.33333333333333</ele><time>2026-04-18T11:42:25.741Z</time></trkpt><trkpt lat="43.32963" lon="10.7366233"><ele>72.66666666666666</ele><time>2026-04-18T11:42:26.744Z</time></trkpt><trkpt lat="43.32947" lon="10.7367133"><ele>73.0</ele><time>2026-04-18T11:42:27.744Z</time></trkpt><trkpt lat="43.3293133" lon="10.7367983"><ele>73.0</ele><time>2026-04-18T11:42:28.746Z</time></trkpt><trkpt lat="43.3291667" lon="10.736875"><ele>73.0</ele><time>2026-04-18T11:42:29.745Z</time></trkpt><trkpt lat="43.3290233" lon="10.73695"><ele>73.0</ele><time>2026-04-18T11:42:30.748Z</time></trkpt><trkpt lat="43.32888" lon="10.7370233"><ele>74.0</ele><time>2026-04-18T11:42:31.744Z</time></trkpt><trkpt lat="43.3287367" lon="10.7371017"><ele>75.0</ele><time>2026-04-18T11:42:32.745Z</time></trkpt><trkpt lat="43.32859" lon="10.73718"><ele>76.0</ele><time>2026-04-18T11:42:33.741Z</time></trkpt><trkpt lat="43.3284433" lon="10.7372567"><ele>76.0</ele><time>2026-04-18T11:42:34.744Z</time></trkpt><trkpt lat="43.3282983" lon="10.7373383"><ele>76.0</ele><time>2026-04-18T11:42:35.748Z</time></trkpt><trkpt lat="43.3281533" lon="10.73742"><ele>76.0</ele><time>2026-04-18T11:42:36.741Z</time></trkpt><trkpt lat="43.3280133" lon="10.7375017"><ele>76.25</ele><time>2026-04-18T11:42:37.744Z</time></trkpt><trkpt lat="43.3278817" lon="10.7375717"><ele>76.5</ele><time>2026-04-18T11:42:38.747Z</time></trkpt><trkpt lat="43.327755" lon="10.7376433"><ele>76.75</ele><time>2026-04-18T11:42:39.742Z</time></trkpt><trkpt lat="43.3276267" lon="10.73772"><ele>77.0</ele><time>2026-04-18T11:42:40.746Z</time></trkpt><trkpt lat="43.3274967" lon="10.7378067"><ele>77.0</ele><time>2026-04-18T11:42:41.746Z</time></trkpt><trkpt lat="43.3273717" lon="10.7379117"><ele>77.0</ele><time>2026-04-18T11:42:42.748Z</time></trkpt><trkpt lat="43.3272383" lon="10.7380283"><ele>77.0</ele><time>2026-04-18T11:42:43.749Z</time></trkpt><trkpt lat="43.3270967" lon="10.7381483"><ele>77.33333333333334</ele><time>2026-04-18T11:42:44.745Z</time></trkpt><trkpt lat="43.3269533" lon="10.738255"><ele>77.66666666666667</ele><time>2026-04-18T11:42:45.747Z</time></trkpt><trkpt lat="43.3268183" lon="10.7383533"><ele>78.0</ele><time>2026-04-18T11:42:46.749Z</time></trkpt><trkpt lat="43.326695" lon="10.7384583"><ele>78.25</ele><time>2026-04-18T11:42:47.744Z</time></trkpt><trkpt lat="43.326585" lon="10.73858"><ele>78.5</ele><time>2026-04-18T11:42:48.741Z</time></trkpt><trkpt lat="43.3264917" lon="10.7387133"><ele>78.75</ele><time>2026-04-18T11:42:49.747Z</time></trkpt><trkpt lat="43.3264167" lon="10.7388517"><ele>79.0</ele><time>2026-04-18T11:42:50.746Z</time></trkpt><trkpt lat="43.3263617" lon="10.7389967"><ele>79.0</ele><time>2026-04-18T11:42:51.743Z</time></trkpt><trkpt lat="43.3263367" lon="10.7391617"><ele>79.0</ele><time>2026-04-18T11:42:52.745Z</time></trkpt><trkpt lat="43.3263367" lon="10.7393467"><ele>79.0</ele><time>2026-04-18T11:42:53.743Z</time></trkpt><trkpt lat="43.3263433" lon="10.7395317"><ele>79.0</ele><time>2026-04-18T11:42:54.745Z</time></trkpt><trkpt lat="43.3263467" lon="10.7396933"><ele>76.5</ele><time>2026-04-18T11:42:55.741Z</time></trkpt><trkpt lat="43.32634" lon="10.7398383"><ele>74.0</ele><time>2026-04-18T11:42:56.744Z</time></trkpt><trkpt lat="43.3263033" lon="10.7399733"><ele>71.5</ele><time>2026-04-18T11:42:57.744Z</time></trkpt><trkpt lat="43.326225" lon="10.74009"><ele>69.0</ele><time>2026-04-18T11:42:58.748Z</time></trkpt><trkpt lat="43.32611" lon="10.7401917"><ele>67.0</ele><time>2026-04-18T11:42:59.745Z</time></trkpt><trkpt lat="43.32596" lon="10.7402867"><ele>65.0</ele><time>2026-04-18T11:43:00.743Z</time></trkpt><trkpt lat="43.32578" lon="10.74038"><ele>63.0</ele><time>2026-04-18T11:43:01.74Z</time></trkpt><trkpt lat="43.3255967" lon="10.7404933"><ele>63.66666666666667</ele><time>2026-04-18T11:43:02.746Z</time></trkpt><trkpt lat="43.3254167" lon="10.7406083"><ele>64.33333333333334</ele><time>2026-04-18T11:43:03.743Z</time></trkpt><trkpt lat="43.325245" lon="10.7407333"><ele>65.0</ele><time>2026-04-18T11:43:04.749Z</time></trkpt><trkpt lat="43.3250833" lon="10.7408717"><ele>65.0</ele><time>2026-04-18T11:43:05.746Z</time></trkpt><trkpt lat="43.3249333" lon="10.7410367"><ele>65.0</ele><time>2026-04-18T11:43:06.744Z</time></trkpt><trkpt lat="43.3247867" lon="10.7412233"><ele>65.0</ele><time>2026-04-18T11:43:07.746Z</time></trkpt><trkpt lat="43.324635" lon="10.74143"><ele>64.0</ele><time>2026-04-18T11:43:08.75Z</time></trkpt><trkpt lat="43.3244833" lon="10.7416483"><ele>63.0</ele><time>2026-04-18T11:43:09.746Z</time></trkpt><trkpt lat="43.3243383" lon="10.7418717"><ele>62.0</ele><time>2026-04-18T11:43:10.746Z</time></trkpt><trkpt lat="43.3241917" lon="10.7421"><ele>60.66666666666667</ele><time>2026-04-18T11:43:11.749Z</time></trkpt><trkpt lat="43.3240433" lon="10.7423317"><ele>59.33333333333333</ele><time>2026-04-18T11:43:12.748Z</time></trkpt><trkpt lat="43.3238983" lon="10.7425633"><ele>58.0</ele><time>2026-04-18T11:43:13.749Z</time></trkpt><trkpt lat="43.3237583" lon="10.742795"><ele>58.0</ele><time>2026-04-18T11:43:14.745Z</time></trkpt><trkpt lat="43.3236183" lon="10.7430217"><ele>58.0</ele><time>2026-04-18T11:43:15.745Z</time></trkpt><trkpt lat="43.3234767" lon="10.7432483"><ele>58.0</ele><time>2026-04-18T11:43:16.744Z</time></trkpt><trkpt lat="43.3233417" lon="10.74347"><ele>57.0</ele><time>2026-04-18T11:43:17.748Z</time></trkpt><trkpt lat="43.3232133" lon="10.7436867"><ele>56.0</ele><time>2026-04-18T11:43:18.751Z</time></trkpt><trkpt lat="43.32309" lon="10.743895"><ele>55.0</ele><time>2026-04-18T11:43:19.745Z</time></trkpt><trkpt lat="43.32297" lon="10.744095"><ele>55.666666666666664</ele><time>2026-04-18T11:43:20.744Z</time></trkpt><trkpt lat="43.3228483" lon="10.7442967"><ele>56.33333333333333</ele><time>2026-04-18T11:43:21.747Z</time></trkpt><trkpt lat="43.3227217" lon="10.7444983"><ele>57.0</ele><time>2026-04-18T11:43:22.744Z</time></trkpt><trkpt lat="43.3226017" lon="10.7446933"><ele>57.0</ele><time>2026-04-18T11:43:23.746Z</time></trkpt><trkpt lat="43.3224833" lon="10.7448833"><ele>57.0</ele><time>2026-04-18T11:43:24.747Z</time></trkpt><trkpt lat="43.3223667" lon="10.7450717"><ele>57.0</ele><time>2026-04-18T11:43:25.745Z</time></trkpt><trkpt lat="43.3222483" lon="10.745265"><ele>58.33333333333333</ele><time>2026-04-18T11:43:26.747Z</time></trkpt><trkpt lat="43.32213" lon="10.7454633"><ele>59.666666666666664</ele><time>2026-04-18T11:43:27.743Z</time></trkpt><trkpt lat="43.3220133" lon="10.7456733"><ele>61.0</ele><time>2026-04-18T11:43:28.748Z</time></trkpt><trkpt lat="43.3219017" lon="10.745895"><ele>59.33333333333333</ele><time>2026-04-18T11:43:29.749Z</time></trkpt><trkpt lat="43.3218" lon="10.7461233"><ele>57.66666666666667</ele><time>2026-04-18T11:43:30.746Z</time></trkpt><trkpt lat="43.3217017" lon="10.746355"><ele>56.0</ele><time>2026-04-18T11:43:31.756Z</time></trkpt><trkpt lat="43.321605" lon="10.74659"><ele>56.0</ele><time>2026-04-18T11:43:32.755Z</time></trkpt><trkpt lat="43.3215083" lon="10.746825"><ele>56.0</ele><time>2026-04-18T11:43:33.746Z</time></trkpt><trkpt lat="43.3214117" lon="10.7470633"><ele>56.0</ele><time>2026-04-18T11:43:34.746Z</time></trkpt><trkpt lat="43.3213133" lon="10.7473033"><ele>57.66666666666667</ele><time>2026-04-18T11:43:35.741Z</time></trkpt><trkpt lat="43.3212167" lon="10.747545"><ele>59.33333333333333</ele><time>2026-04-18T11:43:36.743Z</time></trkpt><trkpt lat="43.3211217" lon="10.747785"><ele>61.0</ele><time>2026-04-18T11:43:37.743Z</time></trkpt><trkpt lat="43.3210233" lon="10.74803"><ele>61.0</ele><time>2026-04-18T11:43:38.743Z</time></trkpt><trkpt lat="43.3209267" lon="10.748275"><ele>61.0</ele><time>2026-04-18T11:43:39.743Z</time></trkpt><trkpt lat="43.3208283" lon="10.7485167"><ele>61.0</ele><time>2026-04-18T11:43:40.742Z</time></trkpt><trkpt lat="43.320735" lon="10.7487483"><ele>61.33333333333333</ele><time>2026-04-18T11:43:41.742Z</time></trkpt><trkpt lat="43.320645" lon="10.7489733"><ele>61.66666666666667</ele><time>2026-04-18T11:43:42.744Z</time></trkpt><trkpt lat="43.3205533" lon="10.7491917"><ele>62.0</ele><time>2026-04-18T11:43:43.741Z</time></trkpt><trkpt lat="43.320465" lon="10.749405"><ele>62.0</ele><time>2026-04-18T11:43:44.749Z</time></trkpt><trkpt lat="43.3203817" lon="10.7496067"><ele>62.0</ele><time>2026-04-18T11:43:45.741Z</time></trkpt><trkpt lat="43.3202983" lon="10.749805"><ele>62.0</ele><time>2026-04-18T11:43:46.743Z</time></trkpt><trkpt lat="43.320205" lon="10.749995"><ele>62.0</ele><time>2026-04-18T11:43:47.743Z</time></trkpt><trkpt lat="43.3200933" lon="10.7501767"><ele>62.0</ele><time>2026-04-18T11:43:48.74Z</time></trkpt><trkpt lat="43.3199667" lon="10.7503467"><ele>62.0</ele><time>2026-04-18T11:43:49.739Z</time></trkpt><trkpt lat="43.3198233" lon="10.7505083"><ele>63.0</ele><time>2026-04-18T11:43:50.745Z</time></trkpt><trkpt lat="43.3196717" lon="10.7506733"><ele>64.0</ele><time>2026-04-18T11:43:51.742Z</time></trkpt><trkpt lat="43.319515" lon="10.750845"><ele>65.0</ele><time>2026-04-18T11:43:52.744Z</time></trkpt><trkpt lat="43.3193617" lon="10.75102"><ele>64.0</ele><time>2026-04-18T11:43:53.745Z</time></trkpt><trkpt lat="43.3192167" lon="10.751205"><ele>63.0</ele><time>2026-04-18T11:43:54.75Z</time></trkpt><trkpt lat="43.3190867" lon="10.751405"><ele>62.0</ele><time>2026-04-18T11:43:55.745Z</time></trkpt><trkpt lat="43.31897" lon="10.7516283"><ele>65.0</ele><time>2026-04-18T11:43:56.744Z</time></trkpt><trkpt lat="43.31887" lon="10.7518733"><ele>68.0</ele><time>2026-04-18T11:43:57.745Z</time></trkpt><trkpt lat="43.3187767" lon="10.7521283"><ele>71.0</ele><time>2026-04-18T11:43:58.743Z</time></trkpt><trkpt lat="43.3186833" lon="10.752385"><ele>71.0</ele><time>2026-04-18T11:43:59.742Z</time></trkpt><trkpt lat="43.3185883" lon="10.7526433"><ele>71.0</ele><time>2026-04-18T11:44:00.749Z</time></trkpt><trkpt lat="43.318495" lon="10.7529067"><ele>71.0</ele><time>2026-04-18T11:44:01.748Z</time></trkpt><trkpt lat="43.3184017" lon="10.7531667"><ele>70.66666666666667</ele><time>2026-04-18T11:44:02.746Z</time></trkpt><trkpt lat="43.3183083" lon="10.7534217"><ele>70.33333333333333</ele><time>2026-04-18T11:44:03.747Z</time></trkpt><trkpt lat="43.3182117" lon="10.753675"><ele>70.0</ele><time>2026-04-18T11:44:04.743Z</time></trkpt><trkpt lat="43.3181183" lon="10.7539283"><ele>69.0</ele><time>2026-04-18T11:44:05.74Z</time></trkpt><trkpt lat="43.3180233" lon="10.7541817"><ele>68.0</ele><time>2026-04-18T11:44:06.746Z</time></trkpt><trkpt lat="43.3179317" lon="10.7544383"><ele>67.0</ele><time>2026-04-18T11:44:07.745Z</time></trkpt><trkpt lat="43.3178433" lon="10.7546983"><ele>67.0</ele><time>2026-04-18T11:44:08.744Z</time></trkpt><trkpt lat="43.31776" lon="10.754965"><ele>67.0</ele><time>2026-04-18T11:44:09.743Z</time></trkpt><trkpt lat="43.31768" lon="10.7552367"><ele>67.0</ele><time>2026-04-18T11:44:10.744Z</time></trkpt><trkpt lat="43.3175967" lon="10.755505"><ele>66.66666666666666</ele><time>2026-04-18T11:44:11.745Z</time></trkpt><trkpt lat="43.3175183" lon="10.7557667"><ele>66.33333333333333</ele><time>2026-04-18T11:44:12.747Z</time></trkpt><trkpt lat="43.3174383" lon="10.75602"><ele>66.0</ele><time>2026-04-18T11:44:13.748Z</time></trkpt><trkpt lat="43.3173583" lon="10.7562717"><ele>65.66666666666667</ele><time>2026-04-18T11:44:14.746Z</time></trkpt><trkpt lat="43.3172733" lon="10.7565267"><ele>65.33333333333334</ele><time>2026-04-18T11:44:15.746Z</time></trkpt><trkpt lat="43.3171883" lon="10.756785"><ele>65.0</ele><time>2026-04-18T11:44:16.751Z</time></trkpt><trkpt lat="43.3171033" lon="10.7570433"><ele>68.0</ele><time>2026-04-18T11:44:17.746Z</time></trkpt><trkpt lat="43.31703" lon="10.7572967"><ele>71.0</ele><time>2026-04-18T11:44:18.752Z</time></trkpt><trkpt lat="43.31697" lon="10.7575333"><ele>74.0</ele><time>2026-04-18T11:44:19.746Z</time></trkpt><trkpt lat="43.3169217" lon="10.7577433"><ele>74.0</ele><time>2026-04-18T11:44:20.749Z</time></trkpt><trkpt lat="43.3168883" lon="10.75793"><ele>74.0</ele><time>2026-04-18T11:44:21.743Z</time></trkpt><trkpt lat="43.3168633" lon="10.7581067"><ele>74.0</ele><time>2026-04-18T11:44:22.742Z</time></trkpt><trkpt lat="43.31683" lon="10.758275"><ele>74.0</ele><time>2026-04-18T11:44:23.741Z</time></trkpt><trkpt lat="43.3167983" lon="10.7584383"><ele>72.5</ele><time>2026-04-18T11:44:24.74Z</time></trkpt><trkpt lat="43.3167667" lon="10.7586083"><ele>71.0</ele><time>2026-04-18T11:44:25.742Z</time></trkpt><trkpt lat="43.3167333" lon="10.7587883"><ele>69.5</ele><time>2026-04-18T11:44:26.749Z</time></trkpt><trkpt lat="43.316695" lon="10.7589717"><ele>68.0</ele><time>2026-04-18T11:44:27.745Z</time></trkpt><trkpt lat="43.3166517" lon="10.759155"><ele>68.0</ele><time>2026-04-18T11:44:28.745Z</time></trkpt><trkpt lat="43.3166083" lon="10.75934"><ele>68.0</ele><time>2026-04-18T11:44:29.745Z</time></trkpt><trkpt lat="43.316565" lon="10.7595283"><ele>68.0</ele><time>2026-04-18T11:44:30.744Z</time></trkpt><trkpt lat="43.3165233" lon="10.7597217"><ele>68.0</ele><time>2026-04-18T11:44:31.746Z</time></trkpt><trkpt lat="43.31648" lon="10.7599133"><ele>67.5</ele><time>2026-04-18T11:44:32.748Z</time></trkpt><trkpt lat="43.3164417" lon="10.7601"><ele>67.0</ele><time>2026-04-18T11:44:33.741Z</time></trkpt><trkpt lat="43.3164067" lon="10.7602817"><ele>66.5</ele><time>2026-04-18T11:44:34.741Z</time></trkpt><trkpt lat="43.316375" lon="10.760455"><ele>66.0</ele><time>2026-04-18T11:44:35.742Z</time></trkpt><trkpt lat="43.3163433" lon="10.7606133"><ele>66.39999999999999</ele><time>2026-04-18T11:44:36.742Z</time></trkpt><trkpt lat="43.3163083" lon="10.76076"><ele>66.8</ele><time>2026-04-18T11:44:37.75Z</time></trkpt><trkpt lat="43.316255" lon="10.76088"><ele>67.19999999999999</ele><time>2026-04-18T11:44:38.751Z</time></trkpt><trkpt lat="43.31618" lon="10.760965"><ele>67.6</ele><time>2026-04-18T11:44:39.743Z</time></trkpt><trkpt lat="43.31608" lon="10.76102"><ele>68.0</ele><time>2026-04-18T11:44:40.741Z</time></trkpt><trkpt lat="43.3159533" lon="10.7610667"><ele>68.0</ele><time>2026-04-18T11:44:41.741Z</time></trkpt><trkpt lat="43.3157983" lon="10.7611217"><ele>68.0</ele><time>2026-04-18T11:44:42.745Z</time></trkpt><trkpt lat="43.3156383" lon="10.76119"><ele>68.0</ele><time>2026-04-18T11:44:43.741Z</time></trkpt><trkpt lat="43.315485" lon="10.7612883"><ele>67.66666666666667</ele><time>2026-04-18T11:44:44.744Z</time></trkpt><trkpt lat="43.31533" lon="10.761425"><ele>67.33333333333333</ele><time>2026-04-18T11:44:45.742Z</time></trkpt><trkpt lat="43.3151917" lon="10.7615817"><ele>67.0</ele><time>2026-04-18T11:44:46.748Z</time></trkpt><trkpt lat="43.315065" lon="10.7617383"><ele>66.66666666666666</ele><time>2026-04-18T11:44:47.746Z</time></trkpt><trkpt lat="43.314945" lon="10.7618917"><ele>66.33333333333333</ele><time>2026-04-18T11:44:48.745Z</time></trkpt><trkpt lat="43.3148167" lon="10.76204"><ele>66.0</ele><time>2026-04-18T11:44:49.746Z</time></trkpt><trkpt lat="43.3146767" lon="10.7621883"><ele>67.33333333333333</ele><time>2026-04-18T11:44:50.742Z</time></trkpt><trkpt lat="43.314525" lon="10.762325"><ele>68.66666666666666</ele><time>2026-04-18T11:44:51.748Z</time></trkpt><trkpt lat="43.3143717" lon="10.7624667"><ele>70.0</ele><time>2026-04-18T11:44:52.745Z</time></trkpt><trkpt lat="43.31422" lon="10.7626333"><ele>69.66666666666666</ele><time>2026-04-18T11:44:53.74Z</time></trkpt><trkpt lat="43.3140717" lon="10.76283"><ele>69.33333333333333</ele><time>2026-04-18T11:44:54.744Z</time></trkpt><trkpt lat="43.3139317" lon="10.76305"><ele>69.0</ele><time>2026-04-18T11:44:55.743Z</time></trkpt><trkpt lat="43.3138033" lon="10.763265"><ele>71.0</ele><time>2026-04-18T11:44:56.746Z</time></trkpt><trkpt lat="43.313685" lon="10.76346"><ele>73.0</ele><time>2026-04-18T11:44:57.742Z</time></trkpt><trkpt lat="43.313575" lon="10.7636333"><ele>75.0</ele><time>2026-04-18T11:44:58.743Z</time></trkpt><trkpt lat="43.3134617" lon="10.7637867"><ele>75.0</ele><time>2026-04-18T11:44:59.748Z</time></trkpt><trkpt lat="43.3133333" lon="10.7639183"><ele>75.0</ele><time>2026-04-18T11:45:00.745Z</time></trkpt><trkpt lat="43.3131883" lon="10.76404"><ele>75.0</ele><time>2026-04-18T11:45:01.745Z</time></trkpt><trkpt lat="43.3130283" lon="10.7641417"><ele>79.0</ele><time>2026-04-18T11:45:02.745Z</time></trkpt><trkpt lat="43.3128617" lon="10.764255"><ele>83.0</ele><time>2026-04-18T11:45:03.742Z</time></trkpt><trkpt lat="43.3126933" lon="10.764385"><ele>87.0</ele><time>2026-04-18T11:45:04.754Z</time></trkpt><trkpt lat="43.3125283" lon="10.7645283"><ele>87.0</ele><time>2026-04-18T11:45:05.747Z</time></trkpt><trkpt lat="43.3123683" lon="10.7646767"><ele>87.0</ele><time>2026-04-18T11:45:06.742Z</time></trkpt><trkpt lat="43.3122217" lon="10.7648267"><ele>87.0</ele><time>2026-04-18T11:45:07.741Z</time></trkpt><trkpt lat="43.3120883" lon="10.7649783"><ele>91.66666666666666</ele><time>2026-04-18T11:45:08.743Z</time></trkpt><trkpt lat="43.3119683" lon="10.7651367"><ele>96.33333333333333</ele><time>2026-04-18T11:45:09.743Z</time></trkpt><trkpt lat="43.3118683" lon="10.7653133"><ele>101.0</ele><time>2026-04-18T11:45:10.745Z</time></trkpt><trkpt lat="43.3117867" lon="10.7655017"><ele>101.75</ele><time>2026-04-18T11:45:11.745Z</time></trkpt><trkpt lat="43.3117167" lon="10.7656833"><ele>102.5</ele><time>2026-04-18T11:45:12.742Z</time></trkpt><trkpt lat="43.31165" lon="10.765845"><ele>103.25</ele><time>2026-04-18T11:45:13.743Z</time></trkpt><trkpt lat="43.31157" lon="10.7659783"><ele>104.0</ele><time>2026-04-18T11:45:14.753Z</time></trkpt><trkpt lat="43.311475" lon="10.7660733"><ele>107.25</ele><time>2026-04-18T11:45:15.741Z</time></trkpt><trkpt lat="43.3113567" lon="10.7661217"><ele>110.5</ele><time>2026-04-18T11:45:16.744Z</time></trkpt><trkpt lat="43.3112183" lon="10.7661233"><ele>113.75</ele><time>2026-04-18T11:45:17.745Z</time></trkpt><trkpt lat="43.311075" lon="10.7660883"><ele>117.0</ele><time>2026-04-18T11:45:18.749Z</time></trkpt><trkpt lat="43.3109267" lon="10.7660433"><ele>115.66666666666666</ele><time>2026-04-18T11:45:19.742Z</time></trkpt><trkpt lat="43.31077" lon="10.7659983"><ele>114.33333333333333</ele><time>2026-04-18T11:45:20.743Z</time></trkpt><trkpt lat="43.3106117" lon="10.7659367"><ele>113.0</ele><time>2026-04-18T11:45:21.744Z</time></trkpt><trkpt lat="43.3104683" lon="10.7658483"><ele>117.33333333333333</ele><time>2026-04-18T11:45:22.741Z</time></trkpt><trkpt lat="43.3103383" lon="10.76574"><ele>121.66666666666666</ele><time>2026-04-18T11:45:23.743Z</time></trkpt><trkpt lat="43.3102167" lon="10.7656117"><ele>126.0</ele><time>2026-04-18T11:45:24.741Z</time></trkpt><trkpt lat="43.3101033" lon="10.7654583"><ele>126.0</ele><time>2026-04-18T11:45:25.745Z</time></trkpt><trkpt lat="43.3100033" lon="10.7652767"><ele>126.0</ele><time>2026-04-18T11:45:26.741Z</time></trkpt><trkpt lat="43.3099183" lon="10.7650683"><ele>126.0</ele><time>2026-04-18T11:45:27.743Z</time></trkpt><trkpt lat="43.3098533" lon="10.7648467"><ele>126.25</ele><time>2026-04-18T11:45:28.742Z</time></trkpt><trkpt lat="43.3098033" lon="10.764635"><ele>126.5</ele><time>2026-04-18T11:45:29.742Z</time></trkpt><trkpt lat="43.30975" lon="10.7644467"><ele>126.75</ele><time>2026-04-18T11:45:30.743Z</time></trkpt><trkpt lat="43.3096883" lon="10.7642933"><ele>127.0</ele><time>2026-04-18T11:45:31.744Z</time></trkpt><trkpt lat="43.309615" lon="10.76418"><ele>128.6</ele><time>2026-04-18T11:45:32.743Z</time></trkpt><trkpt lat="43.3095367" lon="10.7641133"><ele>130.2</ele><time>2026-04-18T11:45:33.741Z</time></trkpt><trkpt lat="43.3094517" lon="10.7640883"><ele>131.8</ele><time>2026-04-18T11:45:34.749Z</time></trkpt><trkpt lat="43.3093667" lon="10.7641333"><ele>133.4</ele><time>2026-04-18T11:45:35.744Z</time></trkpt><trkpt lat="43.3092817" lon="10.7642467"><ele>135.0</ele><time>2026-04-18T11:45:36.744Z</time></trkpt><trkpt lat="43.30919" lon="10.76439"><ele>136.75</ele><time>2026-04-18T11:45:37.744Z</time></trkpt><trkpt lat="43.3090883" lon="10.7645317"><ele>138.5</ele><time>2026-04-18T11:45:38.746Z</time></trkpt><trkpt lat="43.308975" lon="10.7646467"><ele>140.25</ele><time>2026-04-18T11:45:39.745Z</time></trkpt><trkpt lat="43.3088533" lon="10.7647417"><ele>142.0</ele><time>2026-04-18T11:45:40.742Z</time></trkpt><trkpt lat="43.3087283" lon="10.76484"><ele>142.0</ele><time>2026-04-18T11:45:41.748Z</time></trkpt><trkpt lat="43.3086033" lon="10.7649417"><ele>142.0</ele><time>2026-04-18T11:45:42.744Z</time></trkpt><trkpt lat="43.3084867" lon="10.7650433"><ele>142.0</ele><time>2026-04-18T11:45:43.745Z</time></trkpt><trkpt lat="43.3083717" lon="10.7651333"><ele>142.0</ele><time>2026-04-18T11:45:44.746Z</time></trkpt><trkpt lat="43.3082533" lon="10.7652167"><ele>142.75</ele><time>2026-04-18T11:45:45.748Z</time></trkpt><trkpt lat="43.3081383" lon="10.7653017"><ele>143.5</ele><time>2026-04-18T11:45:46.743Z</time></trkpt><trkpt lat="43.308025" lon="10.76539"><ele>144.25</ele><time>2026-04-18T11:45:47.741Z</time></trkpt><trkpt lat="43.307915" lon="10.7654733"><ele>145.0</ele><time>2026-04-18T11:45:48.745Z</time></trkpt><trkpt lat="43.3077983" lon="10.7655617"><ele>145.0</ele><time>2026-04-18T11:45:49.742Z</time></trkpt><trkpt lat="43.307685" lon="10.7656517"><ele>145.0</ele><time>2026-04-18T11:45:50.744Z</time></trkpt><trkpt lat="43.3075833" lon="10.7657533"><ele>145.0</ele><time>2026-04-18T11:45:51.74Z</time></trkpt><trkpt lat="43.3074817" lon="10.76587"><ele>145.0</ele><time>2026-04-18T11:45:52.741Z</time></trkpt><trkpt lat="43.3073817" lon="10.7660033"><ele>144.0</ele><time>2026-04-18T11:45:53.742Z</time></trkpt><trkpt lat="43.307285" lon="10.7661567"><ele>143.0</ele><time>2026-04-18T11:45:54.74Z</time></trkpt><trkpt lat="43.3071967" lon="10.766325"><ele>142.0</ele><time>2026-04-18T11:45:55.75Z</time></trkpt><trkpt lat="43.307115" lon="10.766495"><ele>141.0</ele><time>2026-04-18T11:45:56.757Z</time></trkpt><trkpt lat="43.307025" lon="10.766655"><ele>141.0</ele><time>2026-04-18T11:45:57.743Z</time></trkpt><trkpt lat="43.3069167" lon="10.7667967"><ele>141.0</ele><time>2026-04-18T11:45:58.744Z</time></trkpt><trkpt lat="43.3067733" lon="10.7669017"><ele>141.0</ele><time>2026-04-18T11:45:59.743Z</time></trkpt><trkpt lat="43.3066033" lon="10.76698"><ele>140.66666666666666</ele><time>2026-04-18T11:46:00.745Z</time></trkpt><trkpt lat="43.3064283" lon="10.7670583"><ele>140.33333333333331</ele><time>2026-04-18T11:46:01.745Z</time></trkpt><trkpt lat="43.3062683" lon="10.7671533"><ele>140.0</ele><time>2026-04-18T11:46:02.745Z</time></trkpt><trkpt lat="43.306125" lon="10.76725"><ele>141.33333333333331</ele><time>2026-04-18T11:46:03.743Z</time></trkpt><trkpt lat="43.3059817" lon="10.7673233"><ele>142.66666666666666</ele><time>2026-04-18T11:46:04.743Z</time></trkpt><trkpt lat="43.3058217" lon="10.7673683"><ele>144.0</ele><time>2026-04-18T11:46:05.742Z</time></trkpt><trkpt lat="43.3056417" lon="10.76738"><ele>145.33333333333334</ele><time>2026-04-18T11:46:06.746Z</time></trkpt><trkpt lat="43.3054583" lon="10.7673783"><ele>146.66666666666669</ele><time>2026-04-18T11:46:07.746Z</time></trkpt><trkpt lat="43.3052867" lon="10.767385"><ele>148.0</ele><time>2026-04-18T11:46:08.754Z</time></trkpt><trkpt lat="43.305125" lon="10.7673933"><ele>148.0</ele><time>2026-04-18T11:46:09.749Z</time></trkpt><trkpt lat="43.3049683" lon="10.7673867"><ele>148.0</ele><time>2026-04-18T11:46:10.745Z</time></trkpt><trkpt lat="43.3048017" lon="10.7673533"><ele>148.0</ele><time>2026-04-18T11:46:11.743Z</time></trkpt><trkpt lat="43.3046233" lon="10.767295"><ele>149.0</ele><time>2026-04-18T11:46:12.746Z</time></trkpt><trkpt lat="43.30444" lon="10.7672283"><ele>150.0</ele><time>2026-04-18T11:46:13.747Z</time></trkpt><trkpt lat="43.3042633" lon="10.7671633"><ele>151.0</ele><time>2026-04-18T11:46:14.747Z</time></trkpt><trkpt lat="43.304095" lon="10.7671183"><ele>151.0</ele><time>2026-04-18T11:46:15.745Z</time></trkpt><trkpt lat="43.30393" lon="10.7671"><ele>151.0</ele><time>2026-04-18T11:46:16.742Z</time></trkpt><trkpt lat="43.3037667" lon="10.76711"><ele>151.0</ele><time>2026-04-18T11:46:17.742Z</time></trkpt><trkpt lat="43.3036017" lon="10.7671483"><ele>152.0</ele><time>2026-04-18T11:46:18.743Z</time></trkpt><trkpt lat="43.3034317" lon="10.7671983"><ele>153.0</ele><time>2026-04-18T11:46:19.741Z</time></trkpt><trkpt lat="43.3032583" lon="10.7672533"><ele>154.0</ele><time>2026-04-18T11:46:20.744Z</time></trkpt><trkpt lat="43.3030783" lon="10.7673117"><ele>154.33333333333334</ele><time>2026-04-18T11:46:21.746Z</time></trkpt><trkpt lat="43.3028933" lon="10.7673717"><ele>154.66666666666666</ele><time>2026-04-18T11:46:22.74Z</time></trkpt><trkpt lat="43.302715" lon="10.7674317"><ele>155.0</ele><time>2026-04-18T11:46:23.742Z</time></trkpt><trkpt lat="43.3025467" lon="10.76749"><ele>155.0</ele><time>2026-04-18T11:46:24.743Z</time></trkpt><trkpt lat="43.3023867" lon="10.7675467"><ele>155.0</ele><time>2026-04-18T11:46:25.742Z</time></trkpt><trkpt lat="43.3022267" lon="10.7676067"><ele>155.0</ele><time>2026-04-18T11:46:26.743Z</time></trkpt><trkpt lat="43.302065" lon="10.7676683"><ele>154.66666666666666</ele><time>2026-04-18T11:46:27.744Z</time></trkpt><trkpt lat="43.3019" lon="10.7677333"><ele>154.33333333333334</ele><time>2026-04-18T11:46:28.746Z</time></trkpt><trkpt lat="43.3017317" lon="10.767795"><ele>154.0</ele><time>2026-04-18T11:46:29.744Z</time></trkpt><trkpt lat="43.3015617" lon="10.7678617"><ele>155.0</ele><time>2026-04-18T11:46:30.747Z</time></trkpt><trkpt lat="43.3013917" lon="10.7679267"><ele>156.0</ele><time>2026-04-18T11:46:31.753Z</time></trkpt><trkpt lat="43.301225" lon="10.7679917"><ele>157.0</ele><time>2026-04-18T11:46:32.744Z</time></trkpt><trkpt lat="43.3010617" lon="10.7680567"><ele>157.0</ele><time>2026-04-18T11:46:33.748Z</time></trkpt><trkpt lat="43.3008967" lon="10.76812"><ele>157.0</ele><time>2026-04-18T11:46:34.742Z</time></trkpt><trkpt lat="43.300735" lon="10.7681733"><ele>157.0</ele><time>2026-04-18T11:46:35.74Z</time></trkpt><trkpt lat="43.300575" lon="10.7682183"><ele>159.33333333333334</ele><time>2026-04-18T11:46:36.743Z</time></trkpt><trkpt lat="43.300415" lon="10.7682533"><ele>161.66666666666666</ele><time>2026-04-18T11:46:37.744Z</time></trkpt><trkpt lat="43.3002517" lon="10.7682767"><ele>164.0</ele><time>2026-04-18T11:46:38.746Z</time></trkpt><trkpt lat="43.3000883" lon="10.768285"><ele>164.0</ele><time>2026-04-18T11:46:39.741Z</time></trkpt><trkpt lat="43.2999233" lon="10.76828"><ele>164.0</ele><time>2026-04-18T11:46:40.747Z</time></trkpt><trkpt lat="43.2997517" lon="10.768255"><ele>164.0</ele><time>2026-04-18T11:46:41.744Z</time></trkpt><trkpt lat="43.2995833" lon="10.768215"><ele>166.0</ele><time>2026-04-18T11:46:42.749Z</time></trkpt><trkpt lat="43.29942" lon="10.7681617"><ele>168.0</ele><time>2026-04-18T11:46:43.743Z</time></trkpt><trkpt lat="43.2992583" lon="10.7680983"><ele>170.0</ele><time>2026-04-18T11:46:44.742Z</time></trkpt><trkpt lat="43.2990983" lon="10.7680383"><ele>170.0</ele><time>2026-04-18T11:46:45.758Z</time></trkpt><trkpt lat="43.29894" lon="10.7679783"><ele>170.0</ele><time>2026-04-18T11:46:46.745Z</time></trkpt><trkpt lat="43.2987817" lon="10.767915"><ele>170.0</ele><time>2026-04-18T11:46:47.742Z</time></trkpt><trkpt lat="43.298625" lon="10.7678483"><ele>173.33333333333331</ele><time>2026-04-18T11:46:48.748Z</time></trkpt><trkpt lat="43.2984733" lon="10.7677783"><ele>176.66666666666666</ele><time>2026-04-18T11:46:49.745Z</time></trkpt><trkpt lat="43.2983317" lon="10.767715"><ele>180.0</ele><time>2026-04-18T11:46:50.744Z</time></trkpt><trkpt lat="43.298195" lon="10.7676667"><ele>182.0</ele><time>2026-04-18T11:46:51.743Z</time></trkpt><trkpt lat="43.2980567" lon="10.7676533"><ele>184.0</ele><time>2026-04-18T11:46:52.742Z</time></trkpt><trkpt lat="43.2979167" lon="10.76767"><ele>186.0</ele><time>2026-04-18T11:46:53.747Z</time></trkpt><trkpt lat="43.2977717" lon="10.7677083"><ele>188.0</ele><time>2026-04-18T11:46:54.746Z</time></trkpt><trkpt lat="43.2976267" lon="10.7677567"><ele>188.0</ele><time>2026-04-18T11:46:55.745Z</time></trkpt><trkpt lat="43.297485" lon="10.7678267"><ele>188.0</ele><time>2026-04-18T11:46:56.747Z</time></trkpt><trkpt lat="43.2973517" lon="10.7679233"><ele>188.0</ele><time>2026-04-18T11:46:57.747Z</time></trkpt><trkpt lat="43.29723" lon="10.7680317"><ele>188.0</ele><time>2026-04-18T11:46:58.743Z</time></trkpt><trkpt lat="43.2971233" lon="10.7681367"><ele>191.0</ele><time>2026-04-18T11:46:59.75Z</time></trkpt><trkpt lat="43.29702" lon="10.7682367"><ele>194.0</ele><time>2026-04-18T11:47:00.741Z</time></trkpt><trkpt lat="43.2969117" lon="10.7683233"><ele>197.0</ele><time>2026-04-18T11:47:01.739Z</time></trkpt><trkpt lat="43.2967933" lon="10.7683917"><ele>200.0</ele><time>2026-04-18T11:47:02.743Z</time></trkpt><trkpt lat="43.29667" lon="10.7684383"><ele>200.0</ele><time>2026-04-18T11:47:03.743Z</time></trkpt><trkpt lat="43.2965267" lon="10.7684517"><ele>200.0</ele><time>2026-04-18T11:47:04.745Z</time></trkpt><trkpt lat="43.2963733" lon="10.7684467"><ele>200.0</ele><time>2026-04-18T11:47:05.746Z</time></trkpt><trkpt lat="43.296215" lon="10.768435"><ele>201.33333333333334</ele><time>2026-04-18T11:47:06.742Z</time></trkpt><trkpt lat="43.2960483" lon="10.7684267"><ele>202.66666666666669</ele><time>2026-04-18T11:47:07.741Z</time></trkpt><trkpt lat="43.29589" lon="10.7684183"><ele>204.0</ele><time>2026-04-18T11:47:08.742Z</time></trkpt><trkpt lat="43.2957517" lon="10.7684033"><ele>204.0</ele><time>2026-04-18T11:47:09.747Z</time></trkpt><trkpt lat="43.2956133" lon="10.768405"><ele>204.0</ele><time>2026-04-18T11:47:10.742Z</time></trkpt><trkpt lat="43.2954717" lon="10.7684283"><ele>204.0</ele><time>2026-04-18T11:47:11.745Z</time></trkpt><trkpt lat="43.2953267" lon="10.76846"><ele>204.0</ele><time>2026-04-18T11:47:12.746Z</time></trkpt><trkpt lat="43.2951767" lon="10.7684933"><ele>205.66666666666669</ele><time>2026-04-18T11:47:13.746Z</time></trkpt><trkpt lat="43.2950217" lon="10.7685183"><ele>207.33333333333334</ele><time>2026-04-18T11:47:14.747Z</time></trkpt><trkpt lat="43.2948633" lon="10.768525"><ele>209.0</ele><time>2026-04-18T11:47:15.744Z</time></trkpt><trkpt lat="43.29471" lon="10.7685167"><ele>210.25</ele><time>2026-04-18T11:47:16.746Z</time></trkpt><trkpt lat="43.2945667" lon="10.7684933"><ele>211.5</ele><time>2026-04-18T11:47:17.748Z</time></trkpt><trkpt lat="43.294425" lon="10.7684783"><ele>212.75</ele><time>2026-04-18T11:47:18.751Z</time></trkpt><trkpt lat="43.2942783" lon="10.768485"><ele>214.0</ele><time>2026-04-18T11:47:19.751Z</time></trkpt><trkpt lat="43.2941233" lon="10.7685167"><ele>208.0</ele><time>2026-04-18T11:47:20.746Z</time></trkpt><trkpt lat="43.2939667" lon="10.7685567"><ele>202.0</ele><time>2026-04-18T11:47:21.742Z</time></trkpt><trkpt lat="43.2938033" lon="10.7685917"><ele>196.0</ele><time>2026-04-18T11:47:22.744Z</time></trkpt><trkpt lat="43.2936417" lon="10.7686217"><ele>196.0</ele><time>2026-04-18T11:47:23.742Z</time></trkpt><trkpt lat="43.2934817" lon="10.768635"><ele>196.0</ele><time>2026-04-18T11:47:24.741Z</time></trkpt><trkpt lat="43.2933283" lon="10.76864"><ele>196.0</ele><time>2026-04-18T11:47:25.742Z</time></trkpt><trkpt lat="43.293175" lon="10.7686367"><ele>196.33333333333331</ele><time>2026-04-18T11:47:26.743Z</time></trkpt><trkpt lat="43.2930133" lon="10.76861"><ele>196.66666666666669</ele><time>2026-04-18T11:47:27.749Z</time></trkpt><trkpt lat="43.2928517" lon="10.7685567"><ele>197.0</ele><time>2026-04-18T11:47:28.748Z</time></trkpt><trkpt lat="43.2926817" lon="10.7685"><ele>200.33333333333334</ele><time>2026-04-18T11:47:29.751Z</time></trkpt><trkpt lat="43.292515" lon="10.7684383"><ele>203.66666666666669</ele><time>2026-04-18T11:47:30.747Z</time></trkpt><trkpt lat="43.2923533" lon="10.76837"><ele>207.0</ele><time>2026-04-18T11:47:31.744Z</time></trkpt><trkpt lat="43.2922033" lon="10.7683083"><ele>207.0</ele><time>2026-04-18T11:47:32.744Z</time></trkpt><trkpt lat="43.2920583" lon="10.7682483"><ele>207.0</ele><time>2026-04-18T11:47:33.743Z</time></trkpt><trkpt lat="43.2919117" lon="10.7682"><ele>207.0</ele><time>2026-04-18T11:47:34.741Z</time></trkpt><trkpt lat="43.2917617" lon="10.7681617"><ele>207.0</ele><time>2026-04-18T11:47:35.743Z</time></trkpt><trkpt lat="43.2916067" lon="10.7681433"><ele>207.0</ele><time>2026-04-18T11:47:36.745Z</time></trkpt><trkpt lat="43.2914533" lon="10.7681333"><ele>207.0</ele><time>2026-04-18T11:47:37.742Z</time></trkpt><trkpt lat="43.2912983" lon="10.7681267"><ele>208.33333333333331</ele><time>2026-04-18T11:47:38.743Z</time></trkpt><trkpt lat="43.2911433" lon="10.76812"><ele>209.66666666666666</ele><time>2026-04-18T11:47:39.747Z</time></trkpt><trkpt lat="43.2909883" lon="10.7681117"><ele>211.0</ele><time>2026-04-18T11:47:40.751Z</time></trkpt><trkpt lat="43.290825" lon="10.7681083"><ele>211.0</ele><time>2026-04-18T11:47:41.748Z</time></trkpt><trkpt lat="43.2906517" lon="10.7681083"><ele>211.0</ele><time>2026-04-18T11:47:42.749Z</time></trkpt><trkpt lat="43.290475" lon="10.7681083"><ele>211.0</ele><time>2026-04-18T11:47:43.745Z</time></trkpt><trkpt lat="43.2902933" lon="10.7681067"><ele>214.33333333333331</ele><time>2026-04-18T11:47:44.748Z</time></trkpt><trkpt lat="43.2901117" lon="10.7681"><ele>217.66666666666669</ele><time>2026-04-18T11:47:45.746Z</time></trkpt><trkpt lat="43.2899317" lon="10.76809"><ele>221.0</ele><time>2026-04-18T11:47:46.746Z</time></trkpt><trkpt lat="43.2897517" lon="10.7680767"><ele>224.33333333333334</ele><time>2026-04-18T11:47:47.743Z</time></trkpt><trkpt lat="43.2895717" lon="10.76807"><ele>227.66666666666669</ele><time>2026-04-18T11:47:48.75Z</time></trkpt><trkpt lat="43.28939" lon="10.768075"><ele>231.0</ele><time>2026-04-18T11:47:49.748Z</time></trkpt><trkpt lat="43.28922" lon="10.7680767"><ele>231.0</ele><time>2026-04-18T11:47:50.751Z</time></trkpt><trkpt lat="43.2890683" lon="10.76808"><ele>231.0</ele><time>2026-04-18T11:47:51.751Z</time></trkpt><trkpt lat="43.2889283" lon="10.7680783"><ele>231.0</ele><time>2026-04-18T11:47:52.748Z</time></trkpt><trkpt lat="43.2887917" lon="10.7680633"><ele>231.0</ele><time>2026-04-18T11:47:53.747Z</time></trkpt><trkpt lat="43.2886567" lon="10.7680217"><ele>233.0</ele><time>2026-04-18T11:47:54.744Z</time></trkpt><trkpt lat="43.2885283" lon="10.7679367"><ele>235.0</ele><time>2026-04-18T11:47:55.742Z</time></trkpt><trkpt lat="43.2884083" lon="10.767815"><ele>237.0</ele><time>2026-04-18T11:47:56.743Z</time></trkpt><trkpt lat="43.2882983" lon="10.7676583"><ele>240.25</ele><time>2026-04-18T11:47:57.741Z</time></trkpt><trkpt lat="43.2881967" lon="10.7674917"><ele>243.5</ele><time>2026-04-18T11:47:58.748Z</time></trkpt><trkpt lat="43.28812" lon="10.7673217"><ele>246.75</ele><time>2026-04-18T11:47:59.742Z</time></trkpt><trkpt lat="43.2880683" lon="10.7671417"><ele>250.0</ele><time>2026-04-18T11:48:00.742Z</time></trkpt><trkpt lat="43.288025" lon="10.766945"><ele>255.0</ele><time>2026-04-18T11:48:01.743Z</time></trkpt><trkpt lat="43.2879733" lon="10.7667417"><ele>260.0</ele><time>2026-04-18T11:48:02.746Z</time></trkpt><trkpt lat="43.2878967" lon="10.76655"><ele>265.0</ele><time>2026-04-18T11:48:03.742Z</time></trkpt><trkpt lat="43.2877883" lon="10.7663833"><ele>265.0</ele><time>2026-04-18T11:48:04.744Z</time></trkpt><trkpt lat="43.2876533" lon="10.76623"><ele>265.0</ele><time>2026-04-18T11:48:05.744Z</time></trkpt><trkpt lat="43.2875033" lon="10.7660967"><ele>265.0</ele><time>2026-04-18T11:48:06.746Z</time></trkpt><trkpt lat="43.28736" lon="10.7659783"><ele>269.66666666666663</ele><time>2026-04-18T11:48:07.745Z</time></trkpt><trkpt lat="43.2872267" lon="10.7658717"><ele>274.3333333333333</ele><time>2026-04-18T11:48:08.746Z</time></trkpt><trkpt lat="43.2870917" lon="10.7657783"><ele>279.0</ele><time>2026-04-18T11:48:09.741Z</time></trkpt><trkpt lat="43.2869517" lon="10.7657067"><ele>279.0</ele><time>2026-04-18T11:48:10.744Z</time></trkpt><trkpt lat="43.2868067" lon="10.765655"><ele>279.0</ele><time>2026-04-18T11:48:11.747Z</time></trkpt><trkpt lat="43.2866517" lon="10.7656183"><ele>279.0</ele><time>2026-04-18T11:48:12.746Z</time></trkpt><trkpt lat="43.2864833" lon="10.76559"><ele>280.0</ele><time>2026-04-18T11:48:13.746Z</time></trkpt><trkpt lat="43.286305" lon="10.7655733"><ele>281.0</ele><time>2026-04-18T11:48:14.743Z</time></trkpt><trkpt lat="43.2861217" lon="10.76558"><ele>282.0</ele><time>2026-04-18T11:48:15.743Z</time></trkpt><trkpt lat="43.2859317" lon="10.7655917"><ele>282.0</ele><time>2026-04-18T11:48:16.744Z</time></trkpt><trkpt lat="43.2857383" lon="10.7655883"><ele>282.0</ele><time>2026-04-18T11:48:17.743Z</time></trkpt><trkpt lat="43.285545" lon="10.765565"><ele>282.0</ele><time>2026-04-18T11:48:18.748Z</time></trkpt><trkpt lat="43.28536" lon="10.7655217"><ele>282.3333333333333</ele><time>2026-04-18T11:48:19.75Z</time></trkpt><trkpt lat="43.2851867" lon="10.7654717"><ele>282.66666666666663</ele><time>2026-04-18T11:48:20.746Z</time></trkpt><trkpt lat="43.28502" lon="10.7654217"><ele>283.0</ele><time>2026-04-18T11:48:21.745Z</time></trkpt><trkpt lat="43.2848533" lon="10.7653717"><ele>286.3333333333333</ele><time>2026-04-18T11:48:22.742Z</time></trkpt><trkpt lat="43.2846967" lon="10.765325"><ele>289.6666666666667</ele><time>2026-04-18T11:48:23.745Z</time></trkpt><trkpt lat="43.2845533" lon="10.7652783"><ele>293.0</ele><time>2026-04-18T11:48:24.744Z</time></trkpt><trkpt lat="43.2844133" lon="10.7652283"><ele>296.0</ele><time>2026-04-18T11:48:25.742Z</time></trkpt><trkpt lat="43.2842733" lon="10.7651767"><ele>299.0</ele><time>2026-04-18T11:48:26.744Z</time></trkpt><trkpt lat="43.2841267" lon="10.76514"><ele>302.0</ele><time>2026-04-18T11:48:27.744Z</time></trkpt><trkpt lat="43.2839767" lon="10.76513"><ele>305.0</ele><time>2026-04-18T11:48:28.745Z</time></trkpt><trkpt lat="43.2838367" lon="10.7651317"><ele>305.6</ele><time>2026-04-18T11:48:29.74Z</time></trkpt><trkpt lat="43.2837083" lon="10.7651333"><ele>306.2</ele><time>2026-04-18T11:48:30.744Z</time></trkpt><trkpt lat="43.28359" lon="10.7651367"><ele>306.8</ele><time>2026-04-18T11:48:31.745Z</time></trkpt><trkpt lat="43.2834933" lon="10.76515"><ele>307.4</ele><time>2026-04-18T11:48:32.748Z</time></trkpt><trkpt lat="43.283405" lon="10.76518"><ele>308.0</ele><time>2026-04-18T11:48:33.746Z</time></trkpt><trkpt lat="43.2833283" lon="10.76523"><ele>308.0</ele><time>2026-04-18T11:48:34.745Z</time></trkpt><trkpt lat="43.283265" lon="10.7653083"><ele>308.0</ele><time>2026-04-18T11:48:35.744Z</time></trkpt><trkpt lat="43.2832183" lon="10.7654117"><ele>308.0</ele><time>2026-04-18T11:48:36.742Z</time></trkpt><trkpt lat="43.2832" lon="10.765565"><ele>308.0</ele><time>2026-04-18T11:48:37.746Z</time></trkpt><trkpt lat="43.283235" lon="10.7657933"><ele>308.0</ele><time>2026-04-18T11:48:38.746Z</time></trkpt><trkpt lat="43.2832667" lon="10.7660167"><ele>308.0</ele><time>2026-04-18T11:48:39.742Z</time></trkpt><trkpt lat="43.2833233" lon="10.7662367"><ele>308.0</ele><time>2026-04-18T11:48:40.741Z</time></trkpt><trkpt lat="43.2833983" lon="10.766425"><ele>310.25</ele><time>2026-04-18T11:48:41.744Z</time></trkpt><trkpt lat="43.283465" lon="10.7665933"><ele>312.5</ele><time>2026-04-18T11:48:42.745Z</time></trkpt><trkpt lat="43.2835183" lon="10.7667583"><ele>314.75</ele><time>2026-04-18T11:48:43.745Z</time></trkpt><trkpt lat="43.2835483" lon="10.7669367"><ele>317.0</ele><time>2026-04-18T11:48:44.744Z</time></trkpt><trkpt lat="43.28355" lon="10.7671433"><ele>317.0</ele><time>2026-04-18T11:48:45.742Z</time></trkpt><trkpt lat="43.283525" lon="10.7673783"><ele>317.0</ele><time>2026-04-18T11:48:46.745Z</time></trkpt><trkpt lat="43.2834933" lon="10.7676217"><ele>317.0</ele><time>2026-04-18T11:48:47.75Z</time></trkpt><trkpt lat="43.2834517" lon="10.7678433"><ele>316.0</ele><time>2026-04-18T11:48:48.74Z</time></trkpt><trkpt lat="43.2834067" lon="10.768035"><ele>315.0</ele><time>2026-04-18T11:48:49.742Z</time></trkpt><trkpt lat="43.28334" lon="10.7682067"><ele>314.0</ele><time>2026-04-18T11:48:50.75Z</time></trkpt><trkpt lat="43.2832433" lon="10.768345"><ele>313.0</ele><time>2026-04-18T11:48:51.749Z</time></trkpt><trkpt lat="43.28312" lon="10.7684533"><ele>314.3333333333333</ele><time>2026-04-18T11:48:52.745Z</time></trkpt><trkpt lat="43.2829717" lon="10.7685333"><ele>315.6666666666667</ele><time>2026-04-18T11:48:53.744Z</time></trkpt><trkpt lat="43.2828083" lon="10.7685867"><ele>317.0</ele><time>2026-04-18T11:48:54.74Z</time></trkpt><trkpt lat="43.2826367" lon="10.768635"><ele>317.0</ele><time>2026-04-18T11:48:55.742Z</time></trkpt><trkpt lat="43.2824767" lon="10.76869"><ele>317.0</ele><time>2026-04-18T11:48:56.744Z</time></trkpt><trkpt lat="43.2823333" lon="10.76877"><ele>317.0</ele><time>2026-04-18T11:48:57.74Z</time></trkpt><trkpt lat="43.2821983" lon="10.7688967"><ele>323.0</ele><time>2026-04-18T11:48:58.741Z</time></trkpt><trkpt lat="43.2820717" lon="10.769065"><ele>329.0</ele><time>2026-04-18T11:48:59.745Z</time></trkpt><trkpt lat="43.2819567" lon="10.7692233"><ele>335.0</ele><time>2026-04-18T11:49:00.743Z</time></trkpt><trkpt lat="43.2818517" lon="10.7693517"><ele>335.5</ele><time>2026-04-18T11:49:01.74Z</time></trkpt><trkpt lat="43.2817417" lon="10.769445"><ele>336.0</ele><time>2026-04-18T11:49:02.741Z</time></trkpt><trkpt lat="43.2816117" lon="10.769505"><ele>336.5</ele><time>2026-04-18T11:49:03.741Z</time></trkpt><trkpt lat="43.281455" lon="10.7695517"><ele>337.0</ele><time>2026-04-18T11:49:04.742Z</time></trkpt><trkpt lat="43.2812733" lon="10.7695933"><ele>337.0</ele><time>2026-04-18T11:49:05.741Z</time></trkpt><trkpt lat="43.2810983" lon="10.76966"><ele>337.0</ele><time>2026-04-18T11:49:06.741Z</time></trkpt><trkpt lat="43.2809517" lon="10.7697583"><ele>337.0</ele><time>2026-04-18T11:49:07.739Z</time></trkpt><trkpt lat="43.2808367" lon="10.7698933"><ele>337.0</ele><time>2026-04-18T11:49:08.746Z</time></trkpt><trkpt lat="43.2807583" lon="10.7700483"><ele>337.0</ele><time>2026-04-18T11:49:09.744Z</time></trkpt><trkpt lat="43.2807117" lon="10.770215"><ele>337.0</ele><time>2026-04-18T11:49:10.742Z</time></trkpt><trkpt lat="43.2806933" lon="10.770405"><ele>337.0</ele><time>2026-04-18T11:49:11.747Z</time></trkpt><trkpt lat="43.2807017" lon="10.770605"><ele>336.25</ele><time>2026-04-18T11:49:12.744Z</time></trkpt><trkpt lat="43.28072" lon="10.7708"><ele>335.5</ele><time>2026-04-18T11:49:13.742Z</time></trkpt><trkpt lat="43.28073" lon="10.770985"><ele>334.75</ele><time>2026-04-18T11:49:14.742Z</time></trkpt><trkpt lat="43.2807333" lon="10.7711633"><ele>334.0</ele><time>2026-04-18T11:49:15.744Z</time></trkpt><trkpt lat="43.2807417" lon="10.7713417"><ele>334.0</ele><time>2026-04-18T11:49:16.746Z</time></trkpt><trkpt lat="43.28076" lon="10.771515"><ele>334.0</ele><time>2026-04-18T11:49:17.742Z</time></trkpt><trkpt lat="43.2808033" lon="10.7716817"><ele>334.0</ele><time>2026-04-18T11:49:18.746Z</time></trkpt><trkpt lat="43.2808767" lon="10.7718433"><ele>334.0</ele><time>2026-04-18T11:49:19.74Z</time></trkpt><trkpt lat="43.2809683" lon="10.7719767"><ele>337.75</ele><time>2026-04-18T11:49:20.745Z</time></trkpt><trkpt lat="43.28106" lon="10.7720817"><ele>341.5</ele><time>2026-04-18T11:49:21.744Z</time></trkpt><trkpt lat="43.28115" lon="10.7721867"><ele>345.25</ele><time>2026-04-18T11:49:22.745Z</time></trkpt><trkpt lat="43.28123" lon="10.7723183"><ele>349.0</ele><time>2026-04-18T11:49:23.744Z</time></trkpt><trkpt lat="43.2813" lon="10.7724683"><ele>349.0</ele><time>2026-04-18T11:49:24.75Z</time></trkpt><trkpt lat="43.2813583" lon="10.772625"><ele>349.0</ele><time>2026-04-18T11:49:25.75Z</time></trkpt><trkpt lat="43.2813967" lon="10.772795"><ele>349.0</ele><time>2026-04-18T11:49:26.746Z</time></trkpt><trkpt lat="43.2814067" lon="10.77297"><ele>349.0</ele><time>2026-04-18T11:49:27.745Z</time></trkpt><trkpt lat="43.28139" lon="10.7731433"><ele>347.75</ele><time>2026-04-18T11:49:28.744Z</time></trkpt><trkpt lat="43.2813717" lon="10.7733217"><ele>346.5</ele><time>2026-04-18T11:49:29.751Z</time></trkpt><trkpt lat="43.2813833" lon="10.7735083"><ele>345.25</ele><time>2026-04-18T11:49:30.746Z</time></trkpt><trkpt lat="43.2814133" lon="10.7736783"><ele>344.0</ele><time>2026-04-18T11:49:31.744Z</time></trkpt><trkpt lat="43.281455" lon="10.7738283"><ele>344.0</ele><time>2026-04-18T11:49:32.744Z</time></trkpt><trkpt lat="43.2814883" lon="10.7739767"><ele>344.0</ele><time>2026-04-18T11:49:33.745Z</time></trkpt><trkpt lat="43.28149" lon="10.7741383"><ele>344.0</ele><time>2026-04-18T11:49:34.748Z</time></trkpt><trkpt lat="43.2814683" lon="10.7743217"><ele>344.0</ele><time>2026-04-18T11:49:35.747Z</time></trkpt><trkpt lat="43.28143" lon="10.7745183"><ele>352.6666666666667</ele><time>2026-04-18T11:49:36.745Z</time></trkpt><trkpt lat="43.2813717" lon="10.7747233"><ele>361.3333333333333</ele><time>2026-04-18T11:49:37.744Z</time></trkpt><trkpt lat="43.28133" lon="10.77492"><ele>370.0</ele><time>2026-04-18T11:49:38.745Z</time></trkpt><trkpt lat="43.2812917" lon="10.7751067"><ele>370.0</ele><time>2026-04-18T11:49:39.742Z</time></trkpt><trkpt lat="43.2812533" lon="10.7752883"><ele>370.0</ele><time>2026-04-18T11:49:40.742Z</time></trkpt><trkpt lat="43.2812117" lon="10.7754667"><ele>370.0</ele><time>2026-04-18T11:49:41.746Z</time></trkpt><trkpt lat="43.28117" lon="10.7756433"><ele>370.0</ele><time>2026-04-18T11:49:42.743Z</time></trkpt><trkpt lat="43.2811317" lon="10.7758317"><ele>371.66666666666663</ele><time>2026-04-18T11:49:43.744Z</time></trkpt><trkpt lat="43.281105" lon="10.7760333"><ele>373.3333333333333</ele><time>2026-04-18T11:49:44.752Z</time></trkpt><trkpt lat="43.281095" lon="10.7762533"><ele>375.0</ele><time>2026-04-18T11:49:45.745Z</time></trkpt><trkpt lat="43.2810783" lon="10.7764917"><ele>375.0</ele><time>2026-04-18T11:49:46.744Z</time></trkpt><trkpt lat="43.2810617" lon="10.776735"><ele>375.0</ele><time>2026-04-18T11:49:47.741Z</time></trkpt><trkpt lat="43.2810417" lon="10.7769583"><ele>375.0</ele><time>2026-04-18T11:49:48.745Z</time></trkpt><trkpt lat="43.2810333" lon="10.7771667"><ele>378.0</ele><time>2026-04-18T11:49:49.744Z</time></trkpt><trkpt lat="43.28103" lon="10.77737"><ele>381.0</ele><time>2026-04-18T11:49:50.746Z</time></trkpt><trkpt lat="43.2810467" lon="10.7775733"><ele>384.0</ele><time>2026-04-18T11:49:51.748Z</time></trkpt><trkpt lat="43.2810783" lon="10.7777783"><ele>386.25</ele><time>2026-04-18T11:49:52.742Z</time></trkpt><trkpt lat="43.28112" lon="10.7779767"><ele>388.5</ele><time>2026-04-18T11:49:53.742Z</time></trkpt><trkpt lat="43.2811533" lon="10.7781733"><ele>390.75</ele><time>2026-04-18T11:49:54.742Z</time></trkpt><trkpt lat="43.28119" lon="10.7783683"><ele>393.0</ele><time>2026-04-18T11:49:55.745Z</time></trkpt><trkpt lat="43.2812217" lon="10.778565"><ele>392.5</ele><time>2026-04-18T11:49:56.745Z</time></trkpt><trkpt lat="43.28125" lon="10.778765"><ele>392.0</ele><time>2026-04-18T11:49:57.743Z</time></trkpt><trkpt lat="43.2812733" lon="10.778965"><ele>391.5</ele><time>2026-04-18T11:49:58.743Z</time></trkpt><trkpt lat="43.2812867" lon="10.779165"><ele>391.0</ele><time>2026-04-18T11:49:59.74Z</time></trkpt><trkpt lat="43.2813" lon="10.7793717"><ele>391.0</ele><time>2026-04-18T11:50:00.745Z</time></trkpt><trkpt lat="43.281325" lon="10.7795867"><ele>391.0</ele><time>2026-04-18T11:50:01.742Z</time></trkpt><trkpt lat="43.2813633" lon="10.7797967"><ele>391.0</ele><time>2026-04-18T11:50:02.745Z</time></trkpt><trkpt lat="43.281415" lon="10.77999"><ele>390.0</ele><time>2026-04-18T11:50:03.744Z</time></trkpt><trkpt lat="43.281465" lon="10.7801667"><ele>389.0</ele><time>2026-04-18T11:50:04.743Z</time></trkpt><trkpt lat="43.28153" lon="10.7803083"><ele>388.0</ele><time>2026-04-18T11:50:05.742Z</time></trkpt><trkpt lat="43.2815917" lon="10.7804233"><ele>387.0</ele><time>2026-04-18T11:50:06.742Z</time></trkpt><trkpt lat="43.2816517" lon="10.7805183"><ele>388.0</ele><time>2026-04-18T11:50:07.741Z</time></trkpt><trkpt lat="43.2816983" lon="10.780615"><ele>389.0</ele><time>2026-04-18T11:50:08.744Z</time></trkpt><trkpt lat="43.28174" lon="10.7807233"><ele>390.0</ele><time>2026-04-18T11:50:09.746Z</time></trkpt><trkpt lat="43.2817733" lon="10.7808317"><ele>391.0</ele><time>2026-04-18T11:50:10.742Z</time></trkpt><trkpt lat="43.2818083" lon="10.7809333"><ele>392.0</ele><time>2026-04-18T11:50:11.743Z</time></trkpt><trkpt lat="43.281845" lon="10.78102"><ele>393.0</ele><time>2026-04-18T11:50:12.74Z</time></trkpt><trkpt lat="43.2819183" lon="10.7811483"><ele>393.0</ele><time>2026-04-18T11:50:14.744Z</time></trkpt><trkpt lat="43.281995" lon="10.7812517"><ele>393.0</ele><time>2026-04-18T11:50:16.745Z</time></trkpt><trkpt lat="43.2820733" lon="10.78136"><ele>393.0</ele><time>2026-04-18T11:50:18.745Z</time></trkpt><trkpt lat="43.2821633" lon="10.7814467"><ele>393.0</ele><time>2026-04-18T11:50:20.743Z</time></trkpt><trkpt lat="43.2822517" lon="10.7814817"><ele>393.0</ele><time>2026-04-18T11:50:22.745Z</time></trkpt><trkpt lat="43.282325" lon="10.7814267"><ele>393.8333333333333</ele><time>2026-04-18T11:50:24.751Z</time></trkpt><trkpt lat="43.2823833" lon="10.781285"><ele>394.66666666666663</ele><time>2026-04-18T11:50:26.747Z</time></trkpt><trkpt lat="43.282405" lon="10.7812"><ele>395.5</ele><time>2026-04-18T11:50:27.743Z</time></trkpt><trkpt lat="43.2824567" lon="10.78104"><ele>396.3333333333333</ele><time>2026-04-18T11:50:29.742Z</time></trkpt><trkpt lat="43.282495" lon="10.7809683"><ele>397.16666666666663</ele><time>2026-04-18T11:50:30.745Z</time></trkpt><trkpt lat="43.2825433" lon="10.7809067"><ele>398.0</ele><time>2026-04-18T11:50:31.741Z</time></trkpt><trkpt lat="43.2826033" lon="10.7808583"><ele>396.3333333333333</ele><time>2026-04-18T11:50:32.743Z</time></trkpt><trkpt lat="43.2826733" lon="10.7808167"><ele>394.66666666666663</ele><time>2026-04-18T11:50:33.742Z</time></trkpt><trkpt lat="43.2827417" lon="10.780785"><ele>393.0</ele><time>2026-04-18T11:50:34.742Z</time></trkpt><trkpt lat="43.2828133" lon="10.780765"><ele>391.33333333333337</ele><time>2026-04-18T11:50:35.746Z</time></trkpt><trkpt lat="43.282885" lon="10.7807483"><ele>389.6666666666667</ele><time>2026-04-18T11:50:36.745Z</time></trkpt><trkpt lat="43.2829667" lon="10.780735"><ele>388.0</ele><time>2026-04-18T11:50:37.744Z</time></trkpt><trkpt lat="43.2830533" lon="10.7807217"><ele>385.59999999999997</ele><time>2026-04-18T11:50:38.756Z</time></trkpt><trkpt lat="43.28315" lon="10.78072"><ele>383.2</ele><time>2026-04-18T11:50:39.746Z</time></trkpt><trkpt lat="43.2832433" lon="10.7807183"><ele>380.8</ele><time>2026-04-18T11:50:40.748Z</time></trkpt><trkpt lat="43.28333" lon="10.7807083"><ele>378.4</ele><time>2026-04-18T11:50:41.746Z</time></trkpt><trkpt lat="43.283425" lon="10.7807"><ele>376.0</ele><time>2026-04-18T11:50:42.75Z</time></trkpt><trkpt lat="43.2835067" lon="10.7807"><ele>376.0</ele><time>2026-04-18T11:50:43.747Z</time></trkpt><trkpt lat="43.2835833" lon="10.7807083"><ele>376.0</ele><time>2026-04-18T11:50:44.746Z</time></trkpt><trkpt lat="43.28366" lon="10.7807217"><ele>376.0</ele><time>2026-04-18T11:50:45.741Z</time></trkpt><trkpt lat="43.2837367" lon="10.7807433"><ele>376.0</ele><time>2026-04-18T11:50:46.749Z</time></trkpt><trkpt lat="43.283815" lon="10.7807633"><ele>376.0</ele><time>2026-04-18T11:50:47.748Z</time></trkpt><trkpt lat="43.2838983" lon="10.7807783"><ele>376.0</ele><time>2026-04-18T11:50:48.747Z</time></trkpt><trkpt lat="43.2839817" lon="10.7807833"><ele>374.5</ele><time>2026-04-18T11:50:49.746Z</time></trkpt><trkpt lat="43.284065" lon="10.78077"><ele>373.0</ele><time>2026-04-18T11:50:50.746Z</time></trkpt><trkpt lat="43.2841433" lon="10.780745"><ele>371.5</ele><time>2026-04-18T11:50:51.743Z</time></trkpt><trkpt lat="43.2842183" lon="10.7806883"><ele>370.0</ele><time>2026-04-18T11:50:52.744Z</time></trkpt><trkpt lat="43.28429" lon="10.7806333"><ele>368.5</ele><time>2026-04-18T11:50:53.745Z</time></trkpt><trkpt lat="43.28436" lon="10.78057"><ele>367.0</ele><time>2026-04-18T11:50:54.745Z</time></trkpt><trkpt lat="43.2844233" lon="10.7805217"><ele>367.0</ele><time>2026-04-18T11:50:55.745Z</time></trkpt><trkpt lat="43.2844883" lon="10.7804883"><ele>367.0</ele><time>2026-04-18T11:50:56.753Z</time></trkpt><trkpt lat="43.2845583" lon="10.78048"><ele>367.0</ele><time>2026-04-18T11:50:57.743Z</time></trkpt><trkpt lat="43.2846833" lon="10.7805333"><ele>367.0</ele><time>2026-04-18T11:50:59.747Z</time></trkpt><trkpt lat="43.284745" lon="10.7805933"><ele>367.0</ele><time>2026-04-18T11:51:00.747Z</time></trkpt><trkpt lat="43.2848033" lon="10.780695"><ele>367.0</ele><time>2026-04-18T11:51:01.746Z</time></trkpt><trkpt lat="43.2848567" lon="10.7808633"><ele>367.20000000000005</ele><time>2026-04-18T11:51:02.742Z</time></trkpt><trkpt lat="43.2849017" lon="10.7810133"><ele>367.4</ele><time>2026-04-18T11:51:03.742Z</time></trkpt><trkpt lat="43.2849367" lon="10.7811317"><ele>367.6</ele><time>2026-04-18T11:51:04.746Z</time></trkpt><trkpt lat="43.284975" lon="10.78123"><ele>367.79999999999995</ele><time>2026-04-18T11:51:05.745Z</time></trkpt><trkpt lat="43.2850117" lon="10.7813117"><ele>368.0</ele><time>2026-04-18T11:51:06.744Z</time></trkpt><trkpt lat="43.2850783" lon="10.7814333"><ele>368.0</ele><time>2026-04-18T11:51:08.744Z</time></trkpt><trkpt lat="43.28519" lon="10.7814267"><ele>368.0</ele><time>2026-04-18T11:51:10.749Z</time></trkpt><trkpt lat="43.2852617" lon="10.78137"><ele>368.0</ele><time>2026-04-18T11:51:11.742Z</time></trkpt><trkpt lat="43.2853883" lon="10.7812483"><ele>368.0</ele><time>2026-04-18T11:51:12.743Z</time></trkpt><trkpt lat="43.2855133" lon="10.7811183"><ele>364.0</ele><time>2026-04-18T11:51:13.752Z</time></trkpt><trkpt lat="43.2856383" lon="10.7809867"><ele>360.0</ele><time>2026-04-18T11:51:14.749Z</time></trkpt><trkpt lat="43.2857717" lon="10.780865"><ele>356.0</ele><time>2026-04-18T11:51:15.746Z</time></trkpt><trkpt lat="43.2859067" lon="10.78076"><ele>356.0</ele><time>2026-04-18T11:51:16.747Z</time></trkpt><trkpt lat="43.2860317" lon="10.7806567"><ele>356.0</ele><time>2026-04-18T11:51:17.744Z</time></trkpt><trkpt lat="43.2861533" lon="10.7805633"><ele>356.0</ele><time>2026-04-18T11:51:18.741Z</time></trkpt><trkpt lat="43.286265" lon="10.7804867"><ele>356.0</ele><time>2026-04-18T11:51:19.748Z</time></trkpt><trkpt lat="43.286365" lon="10.7804"><ele>356.5</ele><time>2026-04-18T11:51:20.753Z</time></trkpt><trkpt lat="43.2864583" lon="10.7802933"><ele>357.0</ele><time>2026-04-18T11:51:21.746Z</time></trkpt><trkpt lat="43.286535" lon="10.7801583"><ele>357.5</ele><time>2026-04-18T11:51:22.75Z</time></trkpt><trkpt lat="43.286605" lon="10.7800083"><ele>358.0</ele><time>2026-04-18T11:51:23.748Z</time></trkpt><trkpt lat="43.2866667" lon="10.779845"><ele>353.25</ele><time>2026-04-18T11:51:24.75Z</time></trkpt><trkpt lat="43.28673" lon="10.7796817"><ele>348.5</ele><time>2026-04-18T11:51:25.744Z</time></trkpt><trkpt lat="43.2867933" lon="10.779525"><ele>343.75</ele><time>2026-04-18T11:51:26.749Z</time></trkpt><trkpt lat="43.2868617" lon="10.7793717"><ele>339.0</ele><time>2026-04-18T11:51:27.743Z</time></trkpt><trkpt lat="43.286925" lon="10.7792233"><ele>337.0</ele><time>2026-04-18T11:51:28.745Z</time></trkpt><trkpt lat="43.2869817" lon="10.7790783"><ele>335.0</ele><time>2026-04-18T11:51:29.746Z</time></trkpt><trkpt lat="43.2870333" lon="10.7789483"><ele>333.0</ele><time>2026-04-18T11:51:30.745Z</time></trkpt><trkpt lat="43.2870817" lon="10.778825"><ele>331.0</ele><time>2026-04-18T11:51:31.745Z</time></trkpt><trkpt lat="43.287125" lon="10.7787033"><ele>329.0</ele><time>2026-04-18T11:51:32.751Z</time></trkpt><trkpt lat="43.2871533" lon="10.7785817"><ele>326.8</ele><time>2026-04-18T11:51:33.745Z</time></trkpt><trkpt lat="43.28718" lon="10.778455"><ele>324.59999999999997</ele><time>2026-04-18T11:51:34.747Z</time></trkpt><trkpt lat="43.2872" lon="10.778325"><ele>322.4</ele><time>2026-04-18T11:51:35.743Z</time></trkpt><trkpt lat="43.2872083" lon="10.7781933"><ele>320.2</ele><time>2026-04-18T11:51:36.744Z</time></trkpt><trkpt lat="43.2872233" lon="10.7780633"><ele>318.0</ele><time>2026-04-18T11:51:37.743Z</time></trkpt><trkpt lat="43.2872383" lon="10.7779417"><ele>318.0</ele><time>2026-04-18T11:51:38.745Z</time></trkpt><trkpt lat="43.2872567" lon="10.7778283"><ele>318.0</ele><time>2026-04-18T11:51:39.74Z</time></trkpt><trkpt lat="43.287275" lon="10.777735"><ele>318.0</ele><time>2026-04-18T11:51:40.742Z</time></trkpt><trkpt lat="43.2873383" lon="10.7775867"><ele>318.0</ele><time>2026-04-18T11:51:42.741Z</time></trkpt><trkpt lat="43.2873883" lon="10.77753"><ele>318.0</ele><time>2026-04-18T11:51:43.746Z</time></trkpt><trkpt lat="43.2874483" lon="10.7774883"><ele>318.0</ele><time>2026-04-18T11:51:44.747Z</time></trkpt><trkpt lat="43.2875183" lon="10.77747"><ele>317.5</ele><time>2026-04-18T11:51:45.743Z</time></trkpt><trkpt lat="43.2875883" lon="10.7774717"><ele>317.0</ele><time>2026-04-18T11:51:46.744Z</time></trkpt><trkpt lat="43.2876567" lon="10.777495"><ele>316.5</ele><time>2026-04-18T11:51:47.745Z</time></trkpt><trkpt lat="43.2877217" lon="10.7775467"><ele>316.0</ele><time>2026-04-18T11:51:48.743Z</time></trkpt><trkpt lat="43.28779" lon="10.7776133"><ele>315.5</ele><time>2026-04-18T11:51:49.746Z</time></trkpt><trkpt lat="43.28786" lon="10.7776833"><ele>315.0</ele><time>2026-04-18T11:51:50.748Z</time></trkpt><trkpt lat="43.2879317" lon="10.7777533"><ele>315.0</ele><time>2026-04-18T11:51:51.743Z</time></trkpt><trkpt lat="43.2880017" lon="10.7778117"><ele>315.0</ele><time>2026-04-18T11:51:52.742Z</time></trkpt><trkpt lat="43.2880683" lon="10.7778567"><ele>315.0</ele><time>2026-04-18T11:51:53.742Z</time></trkpt><trkpt lat="43.2881283" lon="10.7778933"><ele>315.0</ele><time>2026-04-18T11:51:54.748Z</time></trkpt><trkpt lat="43.2882583" lon="10.7779467"><ele>315.0</ele><time>2026-04-18T11:51:56.745Z</time></trkpt><trkpt lat="43.2883367" lon="10.7779783"><ele>315.0</ele><time>2026-04-18T11:51:57.751Z</time></trkpt><trkpt lat="43.2884167" lon="10.778025"><ele>312.5</ele><time>2026-04-18T11:51:58.743Z</time></trkpt><trkpt lat="43.2885267" lon="10.7780783"><ele>310.0</ele><time>2026-04-18T11:51:59.742Z</time></trkpt><trkpt lat="43.28866" lon="10.77815"><ele>307.5</ele><time>2026-04-18T11:52:00.743Z</time></trkpt><trkpt lat="43.2887883" lon="10.7782233"><ele>305.0</ele><time>2026-04-18T11:52:01.742Z</time></trkpt><trkpt lat="43.2889267" lon="10.778285"><ele>306.4</ele><time>2026-04-18T11:52:02.742Z</time></trkpt><trkpt lat="43.2890383" lon="10.778335"><ele>307.8</ele><time>2026-04-18T11:52:03.743Z</time></trkpt><trkpt lat="43.2891433" lon="10.77839"><ele>309.2</ele><time>2026-04-18T11:52:04.743Z</time></trkpt><trkpt lat="43.2892333" lon="10.7784633"><ele>310.6</ele><time>2026-04-18T11:52:05.746Z</time></trkpt><trkpt lat="43.2893217" lon="10.7785517"><ele>312.0</ele><time>2026-04-18T11:52:06.751Z</time></trkpt><trkpt lat="43.2893933" lon="10.7786483"><ele>312.0</ele><time>2026-04-18T11:52:07.749Z</time></trkpt><trkpt lat="43.2894617" lon="10.7787317"><ele>312.0</ele><time>2026-04-18T11:52:08.747Z</time></trkpt><trkpt lat="43.2895283" lon="10.7787917"><ele>312.0</ele><time>2026-04-18T11:52:09.746Z</time></trkpt><trkpt lat="43.2896083" lon="10.778845"><ele>312.0</ele><time>2026-04-18T11:52:10.744Z</time></trkpt><trkpt lat="43.28971" lon="10.7788733"><ele>312.0</ele><time>2026-04-18T11:52:11.744Z</time></trkpt><trkpt lat="43.2898483" lon="10.7788667"><ele>311.2</ele><time>2026-04-18T11:52:12.749Z</time></trkpt><trkpt lat="43.2899667" lon="10.7788767"><ele>310.4</ele><time>2026-04-18T11:52:13.746Z</time></trkpt><trkpt lat="43.2900783" lon="10.778905"><ele>309.6</ele><time>2026-04-18T11:52:14.756Z</time></trkpt><trkpt lat="43.290175" lon="10.7789583"><ele>308.8</ele><time>2026-04-18T11:52:15.745Z</time></trkpt><trkpt lat="43.2902483" lon="10.7790483"><ele>308.0</ele><time>2026-04-18T11:52:16.745Z</time></trkpt><trkpt lat="43.2903333" lon="10.77917"><ele>308.0</ele><time>2026-04-18T11:52:17.747Z</time></trkpt><trkpt lat="43.2904233" lon="10.7793167"><ele>308.0</ele><time>2026-04-18T11:52:18.755Z</time></trkpt><trkpt lat="43.29052" lon="10.77947"><ele>308.0</ele><time>2026-04-18T11:52:19.743Z</time></trkpt><trkpt lat="43.2906133" lon="10.7796017"><ele>308.0</ele><time>2026-04-18T11:52:20.743Z</time></trkpt><trkpt lat="43.290705" lon="10.7797217"><ele>307.8</ele><time>2026-04-18T11:52:21.744Z</time></trkpt><trkpt lat="43.290775" lon="10.7798367"><ele>307.6</ele><time>2026-04-18T11:52:22.754Z</time></trkpt><trkpt lat="43.2908517" lon="10.779935"><ele>307.4</ele><time>2026-04-18T11:52:23.745Z</time></trkpt><trkpt lat="43.29094" lon="10.780035"><ele>307.2</ele><time>2026-04-18T11:52:24.748Z</time></trkpt><trkpt lat="43.291035" lon="10.78012"><ele>307.0</ele><time>2026-04-18T11:52:25.746Z</time></trkpt><trkpt lat="43.2911267" lon="10.7801933"><ele>304.4</ele><time>2026-04-18T11:52:26.752Z</time></trkpt><trkpt lat="43.2912267" lon="10.7802533"><ele>301.79999999999995</ele><time>2026-04-18T11:52:27.744Z</time></trkpt><trkpt lat="43.29132" lon="10.7802967"><ele>299.2</ele><time>2026-04-18T11:52:28.746Z</time></trkpt><trkpt lat="43.291415" lon="10.7803183"><ele>296.59999999999997</ele><time>2026-04-18T11:52:29.747Z</time></trkpt><trkpt lat="43.29151" lon="10.7803217"><ele>294.0</ele><time>2026-04-18T11:52:30.745Z</time></trkpt><trkpt lat="43.2915967" lon="10.7803133"><ele>294.0</ele><time>2026-04-18T11:52:31.746Z</time></trkpt><trkpt lat="43.29167" lon="10.7803083"><ele>294.0</ele><time>2026-04-18T11:52:32.747Z</time></trkpt><trkpt lat="43.2917367" lon="10.7803217"><ele>294.0</ele><time>2026-04-18T11:52:33.746Z</time></trkpt><trkpt lat="43.2918" lon="10.7803567"><ele>294.0</ele><time>2026-04-18T11:52:34.745Z</time></trkpt><trkpt lat="43.2918567" lon="10.78042"><ele>294.0</ele><time>2026-04-18T11:52:35.746Z</time></trkpt><trkpt lat="43.291915" lon="10.780515"><ele>294.0</ele><time>2026-04-18T11:52:36.742Z</time></trkpt><trkpt lat="43.2919567" lon="10.7806383"><ele>294.0</ele><time>2026-04-18T11:52:37.744Z</time></trkpt><trkpt lat="43.2919733" lon="10.7807967"><ele>294.0</ele><time>2026-04-18T11:52:38.746Z</time></trkpt><trkpt lat="43.2919883" lon="10.7809367"><ele>294.0</ele><time>2026-04-18T11:52:39.741Z</time></trkpt><trkpt lat="43.291995" lon="10.781075"><ele>294.0</ele><time>2026-04-18T11:52:40.749Z</time></trkpt><trkpt lat="43.292" lon="10.781205"><ele>294.0</ele><time>2026-04-18T11:52:41.742Z</time></trkpt><trkpt lat="43.2920067" lon="10.7813267"><ele>294.8</ele><time>2026-04-18T11:52:42.744Z</time></trkpt><trkpt lat="43.29202" lon="10.7814467"><ele>295.59999999999997</ele><time>2026-04-18T11:52:43.743Z</time></trkpt><trkpt lat="43.29204" lon="10.7815733"><ele>296.4</ele><time>2026-04-18T11:52:44.751Z</time></trkpt><trkpt lat="43.2920733" lon="10.781715"><ele>297.2</ele><time>2026-04-18T11:52:45.742Z</time></trkpt><trkpt lat="43.292115" lon="10.78185"><ele>298.0</ele><time>2026-04-18T11:52:46.741Z</time></trkpt><trkpt lat="43.292155" lon="10.781975"><ele>298.6</ele><time>2026-04-18T11:52:47.744Z</time></trkpt><trkpt lat="43.292185" lon="10.7820883"><ele>299.20000000000005</ele><time>2026-04-18T11:52:48.743Z</time></trkpt><trkpt lat="43.2922067" lon="10.7821983"><ele>299.8</ele><time>2026-04-18T11:52:49.743Z</time></trkpt><trkpt lat="43.2921983" lon="10.782315"><ele>300.40000000000003</ele><time>2026-04-18T11:52:50.743Z</time></trkpt><trkpt lat="43.29216" lon="10.78247"><ele>301.0</ele><time>2026-04-18T11:52:51.743Z</time></trkpt><trkpt lat="43.292105" lon="10.782625"><ele>301.8</ele><time>2026-04-18T11:52:52.747Z</time></trkpt><trkpt lat="43.292045" lon="10.7827717"><ele>302.6</ele><time>2026-04-18T11:52:53.749Z</time></trkpt><trkpt lat="43.2919933" lon="10.7829033"><ele>303.4</ele><time>2026-04-18T11:52:54.745Z</time></trkpt><trkpt lat="43.2919583" lon="10.7830283"><ele>304.2</ele><time>2026-04-18T11:52:55.744Z</time></trkpt><trkpt lat="43.29195" lon="10.7831583"><ele>305.0</ele><time>2026-04-18T11:52:56.746Z</time></trkpt><trkpt lat="43.2919633" lon="10.7833083"><ele>305.0</ele><time>2026-04-18T11:52:57.749Z</time></trkpt><trkpt lat="43.291985" lon="10.78347"><ele>305.0</ele><time>2026-04-18T11:52:58.742Z</time></trkpt><trkpt lat="43.2920067" lon="10.78362"><ele>305.0</ele><time>2026-04-18T11:52:59.743Z</time></trkpt><trkpt lat="43.2920233" lon="10.78375"><ele>305.0</ele><time>2026-04-18T11:53:00.742Z</time></trkpt><trkpt lat="43.2920217" lon="10.78387"><ele>305.0</ele><time>2026-04-18T11:53:01.743Z</time></trkpt><trkpt lat="43.292005" lon="10.783985"><ele>304.1666666666667</ele><time>2026-04-18T11:53:02.742Z</time></trkpt><trkpt lat="43.2919817" lon="10.784095"><ele>303.33333333333337</ele><time>2026-04-18T11:53:03.741Z</time></trkpt><trkpt lat="43.2919483" lon="10.7841967"><ele>302.5</ele><time>2026-04-18T11:53:04.744Z</time></trkpt><trkpt lat="43.2919217" lon="10.78429"><ele>301.6666666666667</ele><time>2026-04-18T11:53:05.744Z</time></trkpt><trkpt lat="43.291915" lon="10.784385"><ele>300.8333333333333</ele><time>2026-04-18T11:53:06.753Z</time></trkpt><trkpt lat="43.29193" lon="10.7844783"><ele>300.0</ele><time>2026-04-18T11:53:07.743Z</time></trkpt><trkpt lat="43.2919617" lon="10.78457"><ele>297.8</ele><time>2026-04-18T11:53:08.747Z</time></trkpt><trkpt lat="43.29206" lon="10.7846383"><ele>295.6</ele><time>2026-04-18T11:53:09.746Z</time></trkpt><trkpt lat="43.292165" lon="10.7847"><ele>293.4</ele><time>2026-04-18T11:53:10.744Z</time></trkpt><trkpt lat="43.292275" lon="10.78475"><ele>291.2</ele><time>2026-04-18T11:53:11.742Z</time></trkpt><trkpt lat="43.29238" lon="10.7847867"><ele>289.0</ele><time>2026-04-18T11:53:12.744Z</time></trkpt><trkpt lat="43.292485" lon="10.7848183"><ele>287.66666666666663</ele><time>2026-04-18T11:53:13.745Z</time></trkpt><trkpt lat="43.2925817" lon="10.784845"><ele>286.3333333333333</ele><time>2026-04-18T11:53:14.742Z</time></trkpt><trkpt lat="43.2926667" lon="10.7848683"><ele>285.0</ele><time>2026-04-18T11:53:15.748Z</time></trkpt><trkpt lat="43.292745" lon="10.784895"><ele>283.6666666666667</ele><time>2026-04-18T11:53:16.744Z</time></trkpt><trkpt lat="43.2928183" lon="10.7849333"><ele>282.33333333333337</ele><time>2026-04-18T11:53:17.744Z</time></trkpt><trkpt lat="43.2928833" lon="10.7849717"><ele>281.0</ele><time>2026-04-18T11:53:18.745Z</time></trkpt><trkpt lat="43.29294" lon="10.7850217"><ele>281.0</ele><time>2026-04-18T11:53:19.743Z</time></trkpt><trkpt lat="43.2929883" lon="10.7850917"><ele>281.0</ele><time>2026-04-18T11:53:20.743Z</time></trkpt><trkpt lat="43.2930233" lon="10.785175"><ele>281.0</ele><time>2026-04-18T11:53:21.742Z</time></trkpt><trkpt lat="43.293045" lon="10.7852767"><ele>281.0</ele><time>2026-04-18T11:53:22.74Z</time></trkpt><trkpt lat="43.2930533" lon="10.785415"><ele>281.0</ele><time>2026-04-18T11:53:23.741Z</time></trkpt><trkpt lat="43.2930667" lon="10.7855567"><ele>281.0</ele><time>2026-04-18T11:53:24.745Z</time></trkpt><trkpt lat="43.2930767" lon="10.7856933"><ele>277.8</ele><time>2026-04-18T11:53:25.744Z</time></trkpt><trkpt lat="43.2930917" lon="10.7858317"><ele>274.6</ele><time>2026-04-18T11:53:26.744Z</time></trkpt><trkpt lat="43.2931083" lon="10.785955"><ele>271.4</ele><time>2026-04-18T11:53:27.743Z</time></trkpt><trkpt lat="43.2931333" lon="10.7860733"><ele>268.2</ele><time>2026-04-18T11:53:28.74Z</time></trkpt><trkpt lat="43.2931683" lon="10.786175"><ele>265.0</ele><time>2026-04-18T11:53:29.742Z</time></trkpt><trkpt lat="43.2932183" lon="10.78627"><ele>263.4</ele><time>2026-04-18T11:53:30.742Z</time></trkpt><trkpt lat="43.2932833" lon="10.78637"><ele>261.8</ele><time>2026-04-18T11:53:31.744Z</time></trkpt><trkpt lat="43.29335" lon="10.7864733"><ele>260.2</ele><time>2026-04-18T11:53:32.742Z</time></trkpt><trkpt lat="43.2934267" lon="10.7865733"><ele>258.6</ele><time>2026-04-18T11:53:33.742Z</time></trkpt><trkpt lat="43.2935217" lon="10.7866817"><ele>257.0</ele><time>2026-04-18T11:53:34.743Z</time></trkpt><trkpt lat="43.2936233" lon="10.786785"><ele>256.0</ele><time>2026-04-18T11:53:35.746Z</time></trkpt><trkpt lat="43.2937217" lon="10.7868733"><ele>255.0</ele><time>2026-04-18T11:53:36.745Z</time></trkpt><trkpt lat="43.2938067" lon="10.78695"><ele>254.0</ele><time>2026-04-18T11:53:37.742Z</time></trkpt><trkpt lat="43.2938833" lon="10.7870183"><ele>253.0</ele><time>2026-04-18T11:53:38.747Z</time></trkpt><trkpt lat="43.2939467" lon="10.78708"><ele>252.0</ele><time>2026-04-18T11:53:39.742Z</time></trkpt><trkpt lat="43.2939983" lon="10.787135"><ele>252.0</ele><time>2026-04-18T11:53:40.741Z</time></trkpt><trkpt lat="43.294065" lon="10.7872417"><ele>252.0</ele><time>2026-04-18T11:53:42.746Z</time></trkpt><trkpt lat="43.294055" lon="10.7873683"><ele>252.0</ele><time>2026-04-18T11:53:44.744Z</time></trkpt><trkpt lat="43.2940067" lon="10.7874417"><ele>252.0</ele><time>2026-04-18T11:53:45.742Z</time></trkpt><trkpt lat="43.2939217" lon="10.7875333"><ele>252.0</ele><time>2026-04-18T11:53:46.745Z</time></trkpt><trkpt lat="43.2938167" lon="10.7876417"><ele>251.25</ele><time>2026-04-18T11:53:47.741Z</time></trkpt><trkpt lat="43.2937167" lon="10.78776"><ele>250.5</ele><time>2026-04-18T11:53:48.745Z</time></trkpt><trkpt lat="43.2936267" lon="10.7878867"><ele>249.75</ele><time>2026-04-18T11:53:49.743Z</time></trkpt><trkpt lat="43.2935417" lon="10.7880217"><ele>249.0</ele><time>2026-04-18T11:53:50.743Z</time></trkpt><trkpt lat="43.2934717" lon="10.78817"><ele>249.0</ele><time>2026-04-18T11:53:51.747Z</time></trkpt><trkpt lat="43.293415" lon="10.788325"><ele>249.0</ele><time>2026-04-18T11:53:52.742Z</time></trkpt><trkpt lat="43.29336" lon="10.788485"><ele>249.0</ele><time>2026-04-18T11:53:53.743Z</time></trkpt><trkpt lat="43.2932983" lon="10.7886433"><ele>249.0</ele><time>2026-04-18T11:53:54.745Z</time></trkpt><trkpt lat="43.2932367" lon="10.788795"><ele>248.25</ele><time>2026-04-18T11:53:55.744Z</time></trkpt><trkpt lat="43.29318" lon="10.7889433"><ele>247.5</ele><time>2026-04-18T11:53:56.743Z</time></trkpt><trkpt lat="43.2931283" lon="10.7890983"><ele>246.75</ele><time>2026-04-18T11:53:57.743Z</time></trkpt><trkpt lat="43.2930833" lon="10.789265"><ele>246.0</ele><time>2026-04-18T11:53:58.744Z</time></trkpt><trkpt lat="43.2930417" lon="10.7894267"><ele>250.25</ele><time>2026-04-18T11:53:59.741Z</time></trkpt><trkpt lat="43.293" lon="10.7895767"><ele>254.5</ele><time>2026-04-18T11:54:00.74Z</time></trkpt><trkpt lat="43.2929467" lon="10.7897133"><ele>258.75</ele><time>2026-04-18T11:54:01.744Z</time></trkpt><trkpt lat="43.292875" lon="10.78983"><ele>263.0</ele><time>2026-04-18T11:54:02.744Z</time></trkpt><trkpt lat="43.2927917" lon="10.7899267"><ele>263.0</ele><time>2026-04-18T11:54:03.744Z</time></trkpt><trkpt lat="43.2926933" lon="10.7900233"><ele>263.0</ele><time>2026-04-18T11:54:04.745Z</time></trkpt><trkpt lat="43.29259" lon="10.7901283"><ele>263.0</ele><time>2026-04-18T11:54:05.741Z</time></trkpt><trkpt lat="43.2924967" lon="10.7902433"><ele>263.0</ele><time>2026-04-18T11:54:06.74Z</time></trkpt><trkpt lat="43.292415" lon="10.790345"><ele>261.83333333333337</ele><time>2026-04-18T11:54:07.746Z</time></trkpt><trkpt lat="43.2923417" lon="10.7904383"><ele>260.6666666666667</ele><time>2026-04-18T11:54:08.742Z</time></trkpt><trkpt lat="43.292285" lon="10.7905283"><ele>259.5</ele><time>2026-04-18T11:54:09.744Z</time></trkpt><trkpt lat="43.2922383" lon="10.7906233"><ele>258.3333333333333</ele><time>2026-04-18T11:54:10.744Z</time></trkpt><trkpt lat="43.2922083" lon="10.7907267"><ele>257.16666666666663</ele><time>2026-04-18T11:54:11.745Z</time></trkpt><trkpt lat="43.2921933" lon="10.7908483"><ele>256.0</ele><time>2026-04-18T11:54:12.743Z</time></trkpt><trkpt lat="43.2922283" lon="10.790995"><ele>255.20000000000002</ele><time>2026-04-18T11:54:13.746Z</time></trkpt><trkpt lat="43.2922583" lon="10.7911367"><ele>254.40000000000003</ele><time>2026-04-18T11:54:14.746Z</time></trkpt><trkpt lat="43.29228" lon="10.791265"><ele>253.6</ele><time>2026-04-18T11:54:15.744Z</time></trkpt><trkpt lat="43.2922933" lon="10.7913867"><ele>252.8</ele><time>2026-04-18T11:54:16.744Z</time></trkpt><trkpt lat="43.2923" lon="10.79151"><ele>252.0</ele><time>2026-04-18T11:54:17.742Z</time></trkpt><trkpt lat="43.2922883" lon="10.79164"><ele>252.0</ele><time>2026-04-18T11:54:18.745Z</time></trkpt><trkpt lat="43.2922633" lon="10.7917733"><ele>252.0</ele><time>2026-04-18T11:54:19.747Z</time></trkpt><trkpt lat="43.29221" lon="10.79192"><ele>252.0</ele><time>2026-04-18T11:54:20.744Z</time></trkpt><trkpt lat="43.292145" lon="10.7920817"><ele>252.0</ele><time>2026-04-18T11:54:21.742Z</time></trkpt><trkpt lat="43.292085" lon="10.7922367"><ele>250.83333333333334</ele><time>2026-04-18T11:54:22.745Z</time></trkpt><trkpt lat="43.2920417" lon="10.79237"><ele>249.66666666666669</ele><time>2026-04-18T11:54:23.747Z</time></trkpt><trkpt lat="43.2920117" lon="10.79248"><ele>248.5</ele><time>2026-04-18T11:54:24.744Z</time></trkpt><trkpt lat="43.2919867" lon="10.7925683"><ele>247.33333333333334</ele><time>2026-04-18T11:54:25.741Z</time></trkpt><trkpt lat="43.291975" lon="10.7927"><ele>246.16666666666669</ele><time>2026-04-18T11:54:27.742Z</time></trkpt><trkpt lat="43.2920117" lon="10.7928017"><ele>245.0</ele><time>2026-04-18T11:54:29.747Z</time></trkpt><trkpt lat="43.2921" lon="10.792965"><ele>245.0</ele><time>2026-04-18T11:54:31.743Z</time></trkpt><trkpt lat="43.292175" lon="10.7930867"><ele>245.0</ele><time>2026-04-18T11:54:32.744Z</time></trkpt><trkpt lat="43.2922467" lon="10.7932033"><ele>245.0</ele><time>2026-04-18T11:54:33.743Z</time></trkpt><trkpt lat="43.2923167" lon="10.7933217"><ele>245.0</ele><time>2026-04-18T11:54:34.743Z</time></trkpt><trkpt lat="43.29238" lon="10.7934417"><ele>245.0</ele><time>2026-04-18T11:54:35.742Z</time></trkpt><trkpt lat="43.29244" lon="10.7935617"><ele>244.50000000000003</ele><time>2026-04-18T11:54:36.742Z</time></trkpt><trkpt lat="43.2924983" lon="10.7936783"><ele>244.0</ele><time>2026-04-18T11:54:37.744Z</time></trkpt><trkpt lat="43.29256" lon="10.7937817"><ele>243.5</ele><time>2026-04-18T11:54:38.742Z</time></trkpt><trkpt lat="43.2926333" lon="10.79386"><ele>243.0</ele><time>2026-04-18T11:54:39.746Z</time></trkpt><trkpt lat="43.292695" lon="10.7939217"><ele>242.50000000000003</ele><time>2026-04-18T11:54:40.745Z</time></trkpt><trkpt lat="43.2927417" lon="10.7939867"><ele>242.0</ele><time>2026-04-18T11:54:41.745Z</time></trkpt><trkpt lat="43.2927367" lon="10.7941233"><ele>242.0</ele><time>2026-04-18T11:54:43.742Z</time></trkpt><trkpt lat="43.29265" lon="10.794155"><ele>242.0</ele><time>2026-04-18T11:54:44.742Z</time></trkpt><trkpt lat="43.2925433" lon="10.7941617"><ele>242.0</ele><time>2026-04-18T11:54:45.746Z</time></trkpt><trkpt lat="43.2924183" lon="10.7941467"><ele>242.0</ele><time>2026-04-18T11:54:46.743Z</time></trkpt><trkpt lat="43.2923033" lon="10.7941267"><ele>242.0</ele><time>2026-04-18T11:54:47.744Z</time></trkpt><trkpt lat="43.29219" lon="10.7940967"><ele>240.25</ele><time>2026-04-18T11:54:48.747Z</time></trkpt><trkpt lat="43.2920733" lon="10.79404"><ele>238.5</ele><time>2026-04-18T11:54:49.744Z</time></trkpt><trkpt lat="43.2919567" lon="10.7939667"><ele>236.75</ele><time>2026-04-18T11:54:50.744Z</time></trkpt><trkpt lat="43.2918433" lon="10.7939017"><ele>235.0</ele><time>2026-04-18T11:54:51.746Z</time></trkpt><trkpt lat="43.2917333" lon="10.7938583"><ele>235.0</ele><time>2026-04-18T11:54:52.741Z</time></trkpt><trkpt lat="43.2916383" lon="10.7938317"><ele>235.0</ele><time>2026-04-18T11:54:53.742Z</time></trkpt><trkpt lat="43.29156" lon="10.793825"><ele>235.0</ele><time>2026-04-18T11:54:54.741Z</time></trkpt><trkpt lat="43.2914733" lon="10.7938917"><ele>235.0</ele><time>2026-04-18T11:54:56.743Z</time></trkpt><trkpt lat="43.2915217" lon="10.7940517"><ele>235.0</ele><time>2026-04-18T11:54:58.746Z</time></trkpt><trkpt lat="43.2916033" lon="10.7941367"><ele>235.0</ele><time>2026-04-18T11:54:59.743Z</time></trkpt><trkpt lat="43.291695" lon="10.7942633"><ele>235.0</ele><time>2026-04-18T11:55:00.741Z</time></trkpt><trkpt lat="43.2917833" lon="10.794425"><ele>235.0</ele><time>2026-04-18T11:55:01.74Z</time></trkpt><trkpt lat="43.2918583" lon="10.79459"><ele>235.0</ele><time>2026-04-18T11:55:02.751Z</time></trkpt><trkpt lat="43.291945" lon="10.794745"><ele>231.66666666666666</ele><time>2026-04-18T11:55:03.74Z</time></trkpt><trkpt lat="43.2920667" lon="10.7948867"><ele>228.33333333333331</ele><time>2026-04-18T11:55:04.746Z</time></trkpt><trkpt lat="43.292215" lon="10.79501"><ele>225.0</ele><time>2026-04-18T11:55:05.744Z</time></trkpt><trkpt lat="43.29237" lon="10.7951183"><ele>220.0</ele><time>2026-04-18T11:55:06.747Z</time></trkpt><trkpt lat="43.2925167" lon="10.7952233"><ele>215.0</ele><time>2026-04-18T11:55:07.746Z</time></trkpt><trkpt lat="43.2926433" lon="10.79535"><ele>210.0</ele><time>2026-04-18T11:55:08.744Z</time></trkpt><trkpt lat="43.2927433" lon="10.7955067"><ele>210.0</ele><time>2026-04-18T11:55:09.744Z</time></trkpt><trkpt lat="43.2928233" lon="10.7956633"><ele>210.0</ele><time>2026-04-18T11:55:10.743Z</time></trkpt><trkpt lat="43.2928967" lon="10.7957983"><ele>210.0</ele><time>2026-04-18T11:55:11.745Z</time></trkpt><trkpt lat="43.2929633" lon="10.7959183"><ele>210.0</ele><time>2026-04-18T11:55:12.743Z</time></trkpt><trkpt lat="43.2930386" lon="10.7960179"><ele>210.5</ele><time>2026-04-18T11:55:13.742Z</time></trkpt><trkpt lat="43.2931305" lon="10.7960828"><ele>211.0</ele><time>2026-04-18T11:55:14.745Z</time></trkpt><trkpt lat="43.2932409" lon="10.7961033"><ele>211.5</ele><time>2026-04-18T11:55:15.743Z</time></trkpt><trkpt lat="43.2933576" lon="10.7960584"><ele>212.0</ele><time>2026-04-18T11:55:16.742Z</time></trkpt><trkpt lat="43.293467" lon="10.7959595"><ele>212.0</ele><time>2026-04-18T11:55:17.741Z</time></trkpt><trkpt lat="43.293561" lon="10.7958638"><ele>212.0</ele><time>2026-04-18T11:55:18.739Z</time></trkpt><trkpt lat="43.2936474" lon="10.7957836"><ele>212.0</ele><time>2026-04-18T11:55:19.744Z</time></trkpt><trkpt lat="43.2937463" lon="10.7957571"><ele>212.0</ele><time>2026-04-18T11:55:20.747Z</time></trkpt><trkpt lat="43.2938432" lon="10.795807"><ele>212.0</ele><time>2026-04-18T11:55:21.742Z</time></trkpt><trkpt lat="43.29393" lon="10.7959256"><ele>209.0</ele><time>2026-04-18T11:55:22.748Z</time></trkpt><trkpt lat="43.2940033" lon="10.7960766"><ele>206.0</ele><time>2026-04-18T11:55:23.743Z</time></trkpt><trkpt lat="43.2940724" lon="10.7962317"><ele>203.0</ele><time>2026-04-18T11:55:24.746Z</time></trkpt><trkpt lat="43.2941437" lon="10.7963902"><ele>200.0</ele><time>2026-04-18T11:55:25.744Z</time></trkpt><trkpt lat="43.294232" lon="10.7965301"><ele>200.0</ele><time>2026-04-18T11:55:26.744Z</time></trkpt><trkpt lat="43.2943427" lon="10.7966403"><ele>200.0</ele><time>2026-04-18T11:55:27.741Z</time></trkpt><trkpt lat="43.2944767" lon="10.7967156"><ele>200.0</ele><time>2026-04-18T11:55:28.753Z</time></trkpt><trkpt lat="43.2946252" lon="10.7967226"><ele>200.0</ele><time>2026-04-18T11:55:29.746Z</time></trkpt><trkpt lat="43.2947748" lon="10.7967038"><ele>198.25</ele><time>2026-04-18T11:55:30.745Z</time></trkpt><trkpt lat="43.2949064" lon="10.7967432"><ele>196.5</ele><time>2026-04-18T11:55:31.747Z</time></trkpt><trkpt lat="43.2950393" lon="10.7967683"><ele>194.75</ele><time>2026-04-18T11:55:32.752Z</time></trkpt><trkpt lat="43.2951491" lon="10.7967088"><ele>193.0</ele><time>2026-04-18T11:55:33.749Z</time></trkpt><trkpt lat="43.2952569" lon="10.7966482"><ele>193.0</ele><time>2026-04-18T11:55:34.746Z</time></trkpt><trkpt lat="43.2953632" lon="10.7965445"><ele>193.0</ele><time>2026-04-18T11:55:35.746Z</time></trkpt><trkpt lat="43.2954597" lon="10.796419"><ele>193.0</ele><time>2026-04-18T11:55:36.743Z</time></trkpt><trkpt lat="43.2955203" lon="10.796267"><ele>193.0</ele><time>2026-04-18T11:55:37.748Z</time></trkpt><trkpt lat="43.2955571" lon="10.7961291"><ele>191.0</ele><time>2026-04-18T11:55:38.745Z</time></trkpt><trkpt lat="43.295617" lon="10.7960435"><ele>189.0</ele><time>2026-04-18T11:55:39.745Z</time></trkpt><trkpt lat="43.2957012" lon="10.7959954"><ele>187.0</ele><time>2026-04-18T11:55:40.747Z</time></trkpt><trkpt lat="43.2958447" lon="10.7960069"><ele>185.0</ele><time>2026-04-18T11:55:41.744Z</time></trkpt><trkpt lat="43.2959947" lon="10.7959817"><ele>185.0</ele><time>2026-04-18T11:55:42.742Z</time></trkpt><trkpt lat="43.2961636" lon="10.7959316"><ele>185.0</ele><time>2026-04-18T11:55:43.743Z</time></trkpt><trkpt lat="43.2963113" lon="10.7959913"><ele>185.0</ele><time>2026-04-18T11:55:44.742Z</time></trkpt><trkpt lat="43.29646" lon="10.7959633"><ele>181.75</ele><time>2026-04-18T11:55:45.747Z</time></trkpt><trkpt lat="43.29658" lon="10.7959317"><ele>178.5</ele><time>2026-04-18T11:55:46.746Z</time></trkpt><trkpt lat="43.29668" lon="10.7958217"><ele>175.25</ele><time>2026-04-18T11:55:47.741Z</time></trkpt><trkpt lat="43.2967533" lon="10.7956583"><ele>172.0</ele><time>2026-04-18T11:55:48.743Z</time></trkpt><trkpt lat="43.29682" lon="10.7955"><ele>172.0</ele><time>2026-04-18T11:55:49.742Z</time></trkpt><trkpt lat="43.296895" lon="10.7953967"><ele>172.0</ele><time>2026-04-18T11:55:50.744Z</time></trkpt><trkpt lat="43.2969717" lon="10.795275"><ele>172.0</ele><time>2026-04-18T11:55:51.745Z</time></trkpt><trkpt lat="43.2971" lon="10.795215"><ele>172.0</ele><time>2026-04-18T11:55:52.745Z</time></trkpt><trkpt lat="43.297255" lon="10.795225"><ele>168.0</ele><time>2026-04-18T11:55:53.749Z</time></trkpt><trkpt lat="43.2974183" lon="10.7952317"><ele>164.0</ele><time>2026-04-18T11:55:54.745Z</time></trkpt><trkpt lat="43.2975883" lon="10.7952183"><ele>160.0</ele><time>2026-04-18T11:55:55.743Z</time></trkpt><trkpt lat="43.2977483" lon="10.795215"><ele>160.0</ele><time>2026-04-18T11:55:56.753Z</time></trkpt><trkpt lat="43.2978967" lon="10.7952133"><ele>160.0</ele><time>2026-04-18T11:55:57.748Z</time></trkpt><trkpt lat="43.2980367" lon="10.7952367"><ele>160.0</ele><time>2026-04-18T11:55:58.746Z</time></trkpt><trkpt lat="43.2981633" lon="10.7953283"><ele>160.0</ele><time>2026-04-18T11:55:59.741Z</time></trkpt><trkpt lat="43.2983117" lon="10.79543"><ele>160.5</ele><time>2026-04-18T11:56:00.744Z</time></trkpt><trkpt lat="43.2984017" lon="10.7955983"><ele>161.0</ele><time>2026-04-18T11:56:01.743Z</time></trkpt><trkpt lat="43.298455" lon="10.7957717"><ele>161.5</ele><time>2026-04-18T11:56:02.747Z</time></trkpt><trkpt lat="43.2984167" lon="10.7959467"><ele>162.0</ele><time>2026-04-18T11:56:03.746Z</time></trkpt><trkpt lat="43.298395" lon="10.796165"><ele>160.5</ele><time>2026-04-18T11:56:04.744Z</time></trkpt><trkpt lat="43.2984133" lon="10.7963917"><ele>159.0</ele><time>2026-04-18T11:56:05.743Z</time></trkpt><trkpt lat="43.2983867" lon="10.796555"><ele>157.5</ele><time>2026-04-18T11:56:06.74Z</time></trkpt><trkpt lat="43.298385" lon="10.796725"><ele>156.0</ele><time>2026-04-18T11:56:07.745Z</time></trkpt><trkpt lat="43.2983983" lon="10.796875"><ele>154.0</ele><time>2026-04-18T11:56:08.743Z</time></trkpt><trkpt lat="43.2984433" lon="10.7970017"><ele>152.0</ele><time>2026-04-18T11:56:09.743Z</time></trkpt><trkpt lat="43.2985033" lon="10.7971033"><ele>150.0</ele><time>2026-04-18T11:56:10.743Z</time></trkpt><trkpt lat="43.2985633" lon="10.7972017"><ele>148.0</ele><time>2026-04-18T11:56:11.743Z</time></trkpt><trkpt lat="43.29864" lon="10.7972933"><ele>146.0</ele><time>2026-04-18T11:56:12.751Z</time></trkpt><trkpt lat="43.2986967" lon="10.797405"><ele>146.0</ele><time>2026-04-18T11:56:13.743Z</time></trkpt><trkpt lat="43.2987733" lon="10.7975017"><ele>146.0</ele><time>2026-04-18T11:56:14.747Z</time></trkpt><trkpt lat="43.2988417" lon="10.7976067"><ele>146.0</ele><time>2026-04-18T11:56:15.745Z</time></trkpt><trkpt lat="43.2988817" lon="10.7977333"><ele>146.0</ele><time>2026-04-18T11:56:16.746Z</time></trkpt><trkpt lat="43.2989117" lon="10.7978633"><ele>146.0</ele><time>2026-04-18T11:56:17.745Z</time></trkpt><trkpt lat="43.2989183" lon="10.798"><ele>146.0</ele><time>2026-04-18T11:56:18.745Z</time></trkpt><trkpt lat="43.2989317" lon="10.7981333"><ele>146.0</ele><time>2026-04-18T11:56:19.742Z</time></trkpt><trkpt lat="43.298955" lon="10.7982617"><ele>146.0</ele><time>2026-04-18T11:56:20.745Z</time></trkpt><trkpt lat="43.299005" lon="10.7983767"><ele>146.0</ele><time>2026-04-18T11:56:21.751Z</time></trkpt><trkpt lat="43.2990517" lon="10.7984933"><ele>146.0</ele><time>2026-04-18T11:56:22.742Z</time></trkpt><trkpt lat="43.2991183" lon="10.7985883"><ele>146.0</ele><time>2026-04-18T11:56:23.744Z</time></trkpt><trkpt lat="43.2991783" lon="10.79869"><ele>146.0</ele><time>2026-04-18T11:56:24.743Z</time></trkpt><trkpt lat="43.29924" lon="10.7987933"><ele>146.0</ele><time>2026-04-18T11:56:25.744Z</time></trkpt><trkpt lat="43.2992867" lon="10.7989033"><ele>146.0</ele><time>2026-04-18T11:56:26.748Z</time></trkpt><trkpt lat="43.299335" lon="10.7990017"><ele>146.0</ele><time>2026-04-18T11:56:27.743Z</time></trkpt><trkpt lat="43.299375" lon="10.7990883"><ele>146.0</ele><time>2026-04-18T11:56:28.752Z</time></trkpt><trkpt lat="43.299405" lon="10.7991717"><ele>146.0</ele><time>2026-04-18T11:56:29.749Z</time></trkpt><trkpt lat="43.2994133" lon="10.7992617"><ele>146.0</ele><time>2026-04-18T11:56:30.746Z</time></trkpt><trkpt lat="43.29943" lon="10.7993483"><ele>146.0</ele><time>2026-04-18T11:56:31.747Z</time></trkpt><trkpt lat="43.299425" lon="10.7994467"><ele>146.0</ele><time>2026-04-18T11:56:32.744Z</time></trkpt><trkpt lat="43.2994217" lon="10.7995567"><ele>146.0</ele><time>2026-04-18T11:56:33.748Z</time></trkpt><trkpt lat="43.2994267" lon="10.7996733"><ele>146.0</ele><time>2026-04-18T11:56:34.742Z</time></trkpt><trkpt lat="43.299425" lon="10.7998"><ele>144.8</ele><time>2026-04-18T11:56:35.745Z</time></trkpt><trkpt lat="43.299445" lon="10.7999267"><ele>143.6</ele><time>2026-04-18T11:56:36.745Z</time></trkpt><trkpt lat="43.2994683" lon="10.800055"><ele>142.4</ele><time>2026-04-18T11:56:37.747Z</time></trkpt><trkpt lat="43.29949" lon="10.8001833"><ele>141.2</ele><time>2026-04-18T11:56:38.746Z</time></trkpt><trkpt lat="43.2994667" lon="10.8003033"><ele>140.0</ele><time>2026-04-18T11:56:39.743Z</time></trkpt><trkpt lat="43.29941" lon="10.8004167"><ele>139.6</ele><time>2026-04-18T11:56:40.744Z</time></trkpt><trkpt lat="43.2993283" lon="10.8005283"><ele>139.2</ele><time>2026-04-18T11:56:41.748Z</time></trkpt><trkpt lat="43.299305" lon="10.8006633"><ele>138.8</ele><time>2026-04-18T11:56:42.742Z</time></trkpt><trkpt lat="43.2993033" lon="10.8008133"><ele>138.4</ele><time>2026-04-18T11:56:43.742Z</time></trkpt><trkpt lat="43.2993567" lon="10.80096"><ele>138.0</ele><time>2026-04-18T11:56:44.745Z</time></trkpt><trkpt lat="43.2994333" lon="10.8011"><ele>137.33333333333334</ele><time>2026-04-18T11:56:45.741Z</time></trkpt><trkpt lat="43.2995817" lon="10.80117"><ele>136.66666666666669</ele><time>2026-04-18T11:56:46.742Z</time></trkpt><trkpt lat="43.29974" lon="10.8012483"><ele>136.0</ele><time>2026-04-18T11:56:47.743Z</time></trkpt><trkpt lat="43.2999167" lon="10.8013033"><ele>138.66666666666669</ele><time>2026-04-18T11:56:48.744Z</time></trkpt><trkpt lat="43.3000867" lon="10.8013567"><ele>141.33333333333334</ele><time>2026-04-18T11:56:49.749Z</time></trkpt><trkpt lat="43.3002433" lon="10.801355"><ele>144.0</ele><time>2026-04-18T11:56:50.745Z</time></trkpt><trkpt lat="43.3004017" lon="10.8013033"><ele>144.0</ele><time>2026-04-18T11:56:51.746Z</time></trkpt><trkpt lat="43.30054" lon="10.8013083"><ele>144.0</ele><time>2026-04-18T11:56:52.746Z</time></trkpt><trkpt lat="43.3006867" lon="10.8013433"><ele>144.0</ele><time>2026-04-18T11:56:53.747Z</time></trkpt><trkpt lat="43.300845" lon="10.801405"><ele>143.66666666666666</ele><time>2026-04-18T11:56:54.743Z</time></trkpt><trkpt lat="43.300985" lon="10.801565"><ele>143.33333333333331</ele><time>2026-04-18T11:56:55.747Z</time></trkpt><trkpt lat="43.3011483" lon="10.8017217"><ele>143.0</ele><time>2026-04-18T11:56:56.747Z</time></trkpt><trkpt lat="43.30132" lon="10.8018817"><ele>142.0</ele><time>2026-04-18T11:56:57.746Z</time></trkpt><trkpt lat="43.301495" lon="10.80205"><ele>141.0</ele><time>2026-04-18T11:56:58.746Z</time></trkpt><trkpt lat="43.30163" lon="10.8022517"><ele>140.0</ele><time>2026-04-18T11:56:59.746Z</time></trkpt><trkpt lat="43.30179" lon="10.8023933"><ele>140.0</ele><time>2026-04-18T11:57:00.745Z</time></trkpt><trkpt lat="43.3019533" lon="10.80252"><ele>140.0</ele><time>2026-04-18T11:57:01.746Z</time></trkpt><trkpt lat="43.3020883" lon="10.8026667"><ele>140.0</ele><time>2026-04-18T11:57:02.742Z</time></trkpt><trkpt lat="43.30221" lon="10.8028067"><ele>138.5</ele><time>2026-04-18T11:57:03.741Z</time></trkpt><trkpt lat="43.3023417" lon="10.8029017"><ele>137.0</ele><time>2026-04-18T11:57:04.744Z</time></trkpt><trkpt lat="43.30248" lon="10.8029583"><ele>135.5</ele><time>2026-04-18T11:57:05.745Z</time></trkpt><trkpt lat="43.30262" lon="10.8029733"><ele>134.0</ele><time>2026-04-18T11:57:06.746Z</time></trkpt><trkpt lat="43.3027533" lon="10.802955"><ele>134.0</ele><time>2026-04-18T11:57:07.743Z</time></trkpt><trkpt lat="43.3028767" lon="10.8028717"><ele>134.0</ele><time>2026-04-18T11:57:08.75Z</time></trkpt><trkpt lat="43.3029883" lon="10.802795"><ele>134.0</ele><time>2026-04-18T11:57:09.745Z</time></trkpt><trkpt lat="43.3030983" lon="10.8027383"><ele>134.0</ele><time>2026-04-18T11:57:10.74Z</time></trkpt><trkpt lat="43.3032133" lon="10.8026567"><ele>133.5</ele><time>2026-04-18T11:57:11.746Z</time></trkpt><trkpt lat="43.303335" lon="10.8026333"><ele>133.0</ele><time>2026-04-18T11:57:12.745Z</time></trkpt><trkpt lat="43.3034517" lon="10.80265"><ele>132.5</ele><time>2026-04-18T11:57:13.747Z</time></trkpt><trkpt lat="43.3035583" lon="10.8027033"><ele>132.0</ele><time>2026-04-18T11:57:14.746Z</time></trkpt><trkpt lat="43.303635" lon="10.8028133"><ele>131.5</ele><time>2026-04-18T11:57:15.742Z</time></trkpt><trkpt lat="43.303685" lon="10.8029717"><ele>131.0</ele><time>2026-04-18T11:57:16.746Z</time></trkpt><trkpt lat="43.30372" lon="10.8031417"><ele>130.5</ele><time>2026-04-18T11:57:17.742Z</time></trkpt><trkpt lat="43.3037633" lon="10.80334"><ele>130.0</ele><time>2026-04-18T11:57:18.746Z</time></trkpt><trkpt lat="43.303775" lon="10.80357"><ele>127.66666666666667</ele><time>2026-04-18T11:57:19.743Z</time></trkpt><trkpt lat="43.3038017" lon="10.8038017"><ele>125.33333333333334</ele><time>2026-04-18T11:57:20.747Z</time></trkpt><trkpt lat="43.3038383" lon="10.8040333"><ele>123.0</ele><time>2026-04-18T11:57:21.742Z</time></trkpt><trkpt lat="43.30388" lon="10.8042633"><ele>116.33333333333334</ele><time>2026-04-18T11:57:22.744Z</time></trkpt><trkpt lat="43.303925" lon="10.8044883"><ele>109.66666666666667</ele><time>2026-04-18T11:57:23.742Z</time></trkpt><trkpt lat="43.303975" lon="10.80471"><ele>103.0</ele><time>2026-04-18T11:57:24.741Z</time></trkpt><trkpt lat="43.304025" lon="10.8049283"><ele>103.0</ele><time>2026-04-18T11:57:25.743Z</time></trkpt><trkpt lat="43.30406" lon="10.805145"><ele>103.0</ele><time>2026-04-18T11:57:26.745Z</time></trkpt><trkpt lat="43.3040867" lon="10.8053567"><ele>103.0</ele><time>2026-04-18T11:57:27.743Z</time></trkpt><trkpt lat="43.3041083" lon="10.8055667"><ele>102.0</ele><time>2026-04-18T11:57:28.748Z</time></trkpt><trkpt lat="43.3041067" lon="10.8057717"><ele>101.0</ele><time>2026-04-18T11:57:29.745Z</time></trkpt><trkpt lat="43.3040833" lon="10.8059733"><ele>100.0</ele><time>2026-04-18T11:57:30.749Z</time></trkpt><trkpt lat="43.30402" lon="10.8061783"><ele>100.0</ele><time>2026-04-18T11:57:31.745Z</time></trkpt><trkpt lat="43.3038583" lon="10.8063117"><ele>100.0</ele><time>2026-04-18T11:57:32.754Z</time></trkpt><trkpt lat="43.3037517" lon="10.8065083"><ele>100.0</ele><time>2026-04-18T11:57:33.744Z</time></trkpt><trkpt lat="43.30361" lon="10.8066767"><ele>99.66666666666667</ele><time>2026-04-18T11:57:34.745Z</time></trkpt><trkpt lat="43.303465" lon="10.8068283"><ele>99.33333333333334</ele><time>2026-04-18T11:57:35.741Z</time></trkpt><trkpt lat="43.3033217" lon="10.8069933"><ele>99.0</ele><time>2026-04-18T11:57:36.742Z</time></trkpt><trkpt lat="43.3031967" lon="10.8071667"><ele>99.75</ele><time>2026-04-18T11:57:37.746Z</time></trkpt><trkpt lat="43.30307" lon="10.8073267"><ele>100.5</ele><time>2026-04-18T11:57:38.745Z</time></trkpt><trkpt lat="43.3030017" lon="10.807465"><ele>101.25</ele><time>2026-04-18T11:57:39.749Z</time></trkpt><trkpt lat="43.3028933" lon="10.80759"><ele>102.0</ele><time>2026-04-18T11:57:40.745Z</time></trkpt><trkpt lat="43.3028133" lon="10.807735"><ele>102.0</ele><time>2026-04-18T11:57:41.743Z</time></trkpt><trkpt lat="43.3027417" lon="10.8078733"><ele>102.0</ele><time>2026-04-18T11:57:42.745Z</time></trkpt><trkpt lat="43.3027017" lon="10.80801"><ele>102.0</ele><time>2026-04-18T11:57:43.743Z</time></trkpt><trkpt lat="43.3026483" lon="10.8081383"><ele>102.0</ele><time>2026-04-18T11:57:44.746Z</time></trkpt><trkpt lat="43.3025817" lon="10.80828"><ele>102.0</ele><time>2026-04-18T11:57:45.742Z</time></trkpt><trkpt lat="43.3025383" lon="10.8084183"><ele>102.0</ele><time>2026-04-18T11:57:46.742Z</time></trkpt><trkpt lat="43.3024933" lon="10.8085517"><ele>102.0</ele><time>2026-04-18T11:57:47.743Z</time></trkpt><trkpt lat="43.3024433" lon="10.80868"><ele>102.0</ele><time>2026-04-18T11:57:48.747Z</time></trkpt><trkpt lat="43.3024167" lon="10.8088033"><ele>102.0</ele><time>2026-04-18T11:57:49.742Z</time></trkpt><trkpt lat="43.30239" lon="10.808925"><ele>102.0</ele><time>2026-04-18T11:57:50.746Z</time></trkpt><trkpt lat="43.3023617" lon="10.8090333"><ele>102.0</ele><time>2026-04-18T11:57:51.742Z</time></trkpt><trkpt lat="43.302335" lon="10.809145"><ele>102.0</ele><time>2026-04-18T11:57:52.746Z</time></trkpt><trkpt lat="43.302285" lon="10.80925"><ele>102.0</ele><time>2026-04-18T11:57:53.742Z</time></trkpt><trkpt lat="43.30222" lon="10.8092817"><ele>102.0</ele><time>2026-04-18T11:57:54.745Z</time></trkpt><trkpt lat="43.3021517" lon="10.80927"><ele>102.0</ele><time>2026-04-18T11:57:55.741Z</time></trkpt><trkpt lat="43.3020933" lon="10.8092167"><ele>103.39999999999999</ele><time>2026-04-18T11:57:56.743Z</time></trkpt><trkpt lat="43.3020317" lon="10.8091483"><ele>104.8</ele><time>2026-04-18T11:57:57.744Z</time></trkpt><trkpt lat="43.301975" lon="10.8090667"><ele>106.2</ele><time>2026-04-18T11:57:58.745Z</time></trkpt><trkpt lat="43.3018983" lon="10.808955"><ele>107.6</ele><time>2026-04-18T11:57:59.746Z</time></trkpt><trkpt lat="43.3018517" lon="10.808855"><ele>109.0</ele><time>2026-04-18T11:58:00.741Z</time></trkpt><trkpt lat="43.301775" lon="10.8087833"><ele>109.0</ele><time>2026-04-18T11:58:01.743Z</time></trkpt><trkpt lat="43.3017267" lon="10.8086933"><ele>109.0</ele><time>2026-04-18T11:58:02.741Z</time></trkpt><trkpt lat="43.3016583" lon="10.808555"><ele>109.0</ele><time>2026-04-18T11:58:03.739Z</time></trkpt><trkpt lat="43.3015567" lon="10.80844"><ele>109.0</ele><time>2026-04-18T11:58:04.743Z</time></trkpt><trkpt lat="43.3014517" lon="10.8083567"><ele>109.66666666666667</ele><time>2026-04-18T11:58:05.743Z</time></trkpt><trkpt lat="43.301385" lon="10.8082983"><ele>110.33333333333334</ele><time>2026-04-18T11:58:06.744Z</time></trkpt><trkpt lat="43.3013" lon="10.808195"><ele>111.0</ele><time>2026-04-18T11:58:07.743Z</time></trkpt><trkpt lat="43.30123" lon="10.80818"><ele>111.66666666666666</ele><time>2026-04-18T11:58:08.749Z</time></trkpt><trkpt lat="43.3011817" lon="10.80824"><ele>112.33333333333333</ele><time>2026-04-18T11:58:09.745Z</time></trkpt><trkpt lat="43.30116" lon="10.8083333"><ele>113.0</ele><time>2026-04-18T11:58:10.745Z</time></trkpt><trkpt lat="43.3011617" lon="10.808455"><ele>115.0</ele><time>2026-04-18T11:58:11.742Z</time></trkpt><trkpt lat="43.3011867" lon="10.8086533"><ele>117.0</ele><time>2026-04-18T11:58:12.741Z</time></trkpt><trkpt lat="43.3012183" lon="10.80879"><ele>119.0</ele><time>2026-04-18T11:58:13.742Z</time></trkpt><trkpt lat="43.3012167" lon="10.8089367"><ele>121.0</ele><time>2026-04-18T11:58:14.747Z</time></trkpt><trkpt lat="43.3011983" lon="10.8090633"><ele>121.0</ele><time>2026-04-18T11:58:15.747Z</time></trkpt><trkpt lat="43.3010867" lon="10.80921"><ele>121.0</ele><time>2026-04-18T11:58:16.741Z</time></trkpt><trkpt lat="43.3009667" lon="10.809345"><ele>121.0</ele><time>2026-04-18T11:58:17.746Z</time></trkpt><trkpt lat="43.3008617" lon="10.8094183"><ele>121.0</ele><time>2026-04-18T11:58:18.743Z</time></trkpt><trkpt lat="43.3008333" lon="10.8095633"><ele>120.0</ele><time>2026-04-18T11:58:19.744Z</time></trkpt><trkpt lat="43.3006867" lon="10.8096383"><ele>119.0</ele><time>2026-04-18T11:58:20.745Z</time></trkpt><trkpt lat="43.300585" lon="10.809755"><ele>118.0</ele><time>2026-04-18T11:58:21.742Z</time></trkpt><trkpt lat="43.3005267" lon="10.80989"><ele>117.0</ele><time>2026-04-18T11:58:22.744Z</time></trkpt><trkpt lat="43.300505" lon="10.8100283"><ele>121.5</ele><time>2026-04-18T11:58:23.749Z</time></trkpt><trkpt lat="43.3004733" lon="10.8101933"><ele>126.0</ele><time>2026-04-18T11:58:24.742Z</time></trkpt><trkpt lat="43.3004433" lon="10.810375"><ele>130.5</ele><time>2026-04-18T11:58:25.748Z</time></trkpt><trkpt lat="43.300465" lon="10.8105717"><ele>135.0</ele><time>2026-04-18T11:58:26.746Z</time></trkpt><trkpt lat="43.300445" lon="10.8106833"><ele>135.0</ele><time>2026-04-18T11:58:27.749Z</time></trkpt><trkpt lat="43.3004067" lon="10.8108233"><ele>135.0</ele><time>2026-04-18T11:58:28.746Z</time></trkpt><trkpt lat="43.30032" lon="10.81087"><ele>135.0</ele><time>2026-04-18T11:58:29.749Z</time></trkpt><trkpt lat="43.30025" lon="10.8108067"><ele>135.0</ele><time>2026-04-18T11:58:30.743Z</time></trkpt><trkpt lat="43.3002233" lon="10.810695"><ele>135.0</ele><time>2026-04-18T11:58:31.741Z</time></trkpt><trkpt lat="43.3001133" lon="10.8105367"><ele>135.0</ele><time>2026-04-18T11:58:32.746Z</time></trkpt><trkpt lat="43.3000317" lon="10.8103533"><ele>135.0</ele><time>2026-04-18T11:58:33.751Z</time></trkpt><trkpt lat="43.2999617" lon="10.81016"><ele>135.0</ele><time>2026-04-18T11:58:34.745Z</time></trkpt><trkpt lat="43.2998633" lon="10.80998"><ele>134.5</ele><time>2026-04-18T11:58:35.747Z</time></trkpt><trkpt lat="43.2998033" lon="10.8098383"><ele>134.0</ele><time>2026-04-18T11:58:36.742Z</time></trkpt><trkpt lat="43.2997633" lon="10.8096667"><ele>133.5</ele><time>2026-04-18T11:58:37.748Z</time></trkpt><trkpt lat="43.299665" lon="10.8095783"><ele>133.0</ele><time>2026-04-18T11:58:38.745Z</time></trkpt><trkpt lat="43.299625" lon="10.80945"><ele>133.75</ele><time>2026-04-18T11:58:39.745Z</time></trkpt><trkpt lat="43.29955" lon="10.8093567"><ele>134.5</ele><time>2026-04-18T11:58:40.746Z</time></trkpt><trkpt lat="43.2994483" lon="10.809295"><ele>135.25</ele><time>2026-04-18T11:58:41.748Z</time></trkpt><trkpt lat="43.2993233" lon="10.80932"><ele>136.0</ele><time>2026-04-18T11:58:42.748Z</time></trkpt><trkpt lat="43.2991817" lon="10.8093467"><ele>138.0</ele><time>2026-04-18T11:58:43.745Z</time></trkpt><trkpt lat="43.2990267" lon="10.80943"><ele>140.0</ele><time>2026-04-18T11:58:44.746Z</time></trkpt><trkpt lat="43.2988683" lon="10.80952"><ele>142.0</ele><time>2026-04-18T11:58:45.747Z</time></trkpt><trkpt lat="43.2986883" lon="10.80954"><ele>142.33333333333334</ele><time>2026-04-18T11:58:46.744Z</time></trkpt><trkpt lat="43.2985383" lon="10.8096083"><ele>142.66666666666666</ele><time>2026-04-18T11:58:47.746Z</time></trkpt><trkpt lat="43.2983817" lon="10.8096917"><ele>143.0</ele><time>2026-04-18T11:58:48.747Z</time></trkpt><trkpt lat="43.2982183" lon="10.8097667"><ele>142.66666666666666</ele><time>2026-04-18T11:58:49.744Z</time></trkpt><trkpt lat="43.2980517" lon="10.809835"><ele>142.33333333333334</ele><time>2026-04-18T11:58:50.746Z</time></trkpt><trkpt lat="43.2979617" lon="10.8100317"><ele>142.0</ele><time>2026-04-18T11:58:51.745Z</time></trkpt><trkpt lat="43.2977783" lon="10.8100717"><ele>143.33333333333334</ele><time>2026-04-18T11:58:52.749Z</time></trkpt><trkpt lat="43.2976133" lon="10.810185"><ele>144.66666666666666</ele><time>2026-04-18T11:58:53.743Z</time></trkpt><trkpt lat="43.297455" lon="10.81028"><ele>146.0</ele><time>2026-04-18T11:58:54.749Z</time></trkpt><trkpt lat="43.29728" lon="10.810325"><ele>147.0</ele><time>2026-04-18T11:58:55.743Z</time></trkpt><trkpt lat="43.297175" lon="10.81048"><ele>148.0</ele><time>2026-04-18T11:58:56.75Z</time></trkpt><trkpt lat="43.2970033" lon="10.8104917"><ele>149.0</ele><time>2026-04-18T11:58:57.742Z</time></trkpt><trkpt lat="43.2968267" lon="10.8105767"><ele>149.0</ele><time>2026-04-18T11:58:58.741Z</time></trkpt><trkpt lat="43.29663" lon="10.8105617"><ele>149.0</ele><time>2026-04-18T11:58:59.742Z</time></trkpt><trkpt lat="43.2964533" lon="10.8107"><ele>149.0</ele><time>2026-04-18T11:59:00.741Z</time></trkpt><trkpt lat="43.2962583" lon="10.8108317"><ele>149.0</ele><time>2026-04-18T11:59:01.745Z</time></trkpt><trkpt lat="43.2960583" lon="10.8109283"><ele>149.0</ele><time>2026-04-18T11:59:02.747Z</time></trkpt><trkpt lat="43.2958483" lon="10.8109933"><ele>149.0</ele><time>2026-04-18T11:59:03.752Z</time></trkpt><trkpt lat="43.295625" lon="10.8110267"><ele>149.33333333333331</ele><time>2026-04-18T11:59:04.748Z</time></trkpt><trkpt lat="43.2954283" lon="10.81105"><ele>149.66666666666666</ele><time>2026-04-18T11:59:05.746Z</time></trkpt><trkpt lat="43.2952533" lon="10.810995"><ele>150.0</ele><time>2026-04-18T11:59:06.749Z</time></trkpt><trkpt lat="43.2950617" lon="10.8109883"><ele>150.25</ele><time>2026-04-18T11:59:07.744Z</time></trkpt><trkpt lat="43.2949083" lon="10.810935"><ele>150.5</ele><time>2026-04-18T11:59:08.747Z</time></trkpt><trkpt lat="43.2947667" lon="10.8109383"><ele>150.75</ele><time>2026-04-18T11:59:09.743Z</time></trkpt><trkpt lat="43.2946283" lon="10.810925"><ele>151.0</ele><time>2026-04-18T11:59:10.744Z</time></trkpt><trkpt lat="43.294495" lon="10.8109017"><ele>151.0</ele><time>2026-04-18T11:59:11.745Z</time></trkpt><trkpt lat="43.29437" lon="10.8108883"><ele>151.0</ele><time>2026-04-18T11:59:12.74Z</time></trkpt><trkpt lat="43.2942567" lon="10.8109033"><ele>151.0</ele><time>2026-04-18T11:59:13.741Z</time></trkpt><trkpt lat="43.2941517" lon="10.810925"><ele>151.0</ele><time>2026-04-18T11:59:14.745Z</time></trkpt><trkpt lat="43.2940583" lon="10.8109767"><ele>151.0</ele><time>2026-04-18T11:59:15.745Z</time></trkpt><trkpt lat="43.2939833" lon="10.8110517"><ele>150.4</ele><time>2026-04-18T11:59:16.743Z</time></trkpt><trkpt lat="43.293925" lon="10.81116"><ele>149.8</ele><time>2026-04-18T11:59:17.744Z</time></trkpt><trkpt lat="43.29385" lon="10.8112583"><ele>149.20000000000002</ele><time>2026-04-18T11:59:18.742Z</time></trkpt><trkpt lat="43.293745" lon="10.8113183"><ele>148.6</ele><time>2026-04-18T11:59:19.746Z</time></trkpt><trkpt lat="43.2936167" lon="10.8113367"><ele>148.0</ele><time>2026-04-18T11:59:20.752Z</time></trkpt><trkpt lat="43.293485" lon="10.8112217"><ele>151.66666666666669</ele><time>2026-04-18T11:59:21.747Z</time></trkpt><trkpt lat="43.2933517" lon="10.8111133"><ele>155.33333333333334</ele><time>2026-04-18T11:59:22.745Z</time></trkpt><trkpt lat="43.2931817" lon="10.8110433"><ele>159.0</ele><time>2026-04-18T11:59:23.745Z</time></trkpt><trkpt lat="43.29301" lon="10.81098"><ele>162.66666666666666</ele><time>2026-04-18T11:59:24.749Z</time></trkpt><trkpt lat="43.2928433" lon="10.8108833"><ele>166.33333333333331</ele><time>2026-04-18T11:59:25.745Z</time></trkpt><trkpt lat="43.2926867" lon="10.8108133"><ele>170.0</ele><time>2026-04-18T11:59:26.743Z</time></trkpt><trkpt lat="43.2925783" lon="10.8107733"><ele>170.0</ele><time>2026-04-18T11:59:27.748Z</time></trkpt><trkpt lat="43.2924517" lon="10.810765"><ele>170.0</ele><time>2026-04-18T11:59:28.745Z</time></trkpt><trkpt lat="43.292305" lon="10.8107483"><ele>170.0</ele><time>2026-04-18T11:59:29.743Z</time></trkpt><trkpt lat="43.29215" lon="10.8107383"><ele>170.0</ele><time>2026-04-18T11:59:30.742Z</time></trkpt><trkpt lat="43.2920083" lon="10.8107267"><ele>172.5</ele><time>2026-04-18T11:59:31.743Z</time></trkpt><trkpt lat="43.2919" lon="10.810785"><ele>175.0</ele><time>2026-04-18T11:59:32.744Z</time></trkpt><trkpt lat="43.2917983" lon="10.8107317"><ele>177.5</ele><time>2026-04-18T11:59:33.741Z</time></trkpt><trkpt lat="43.2916833" lon="10.8107267"><ele>180.0</ele><time>2026-04-18T11:59:34.74Z</time></trkpt><trkpt lat="43.291595" lon="10.8106317"><ele>180.0</ele><time>2026-04-18T11:59:35.741Z</time></trkpt><trkpt lat="43.2914917" lon="10.8105167"><ele>180.0</ele><time>2026-04-18T11:59:36.742Z</time></trkpt><trkpt lat="43.2914383" lon="10.8102883"><ele>180.0</ele><time>2026-04-18T11:59:37.743Z</time></trkpt><trkpt lat="43.2913233" lon="10.810115"><ele>182.5</ele><time>2026-04-18T11:59:38.743Z</time></trkpt><trkpt lat="43.2912333" lon="10.8099367"><ele>185.0</ele><time>2026-04-18T11:59:39.746Z</time></trkpt><trkpt lat="43.29115" lon="10.8097833"><ele>187.5</ele><time>2026-04-18T11:59:40.745Z</time></trkpt><trkpt lat="43.291175" lon="10.8096333"><ele>190.0</ele><time>2026-04-18T11:59:41.746Z</time></trkpt><trkpt lat="43.2911317" lon="10.8094783"><ele>190.0</ele><time>2026-04-18T11:59:42.743Z</time></trkpt><trkpt lat="43.291045" lon="10.809375"><ele>190.0</ele><time>2026-04-18T11:59:43.742Z</time></trkpt><trkpt lat="43.2910583" lon="10.8091967"><ele>190.0</ele><time>2026-04-18T11:59:44.746Z</time></trkpt><trkpt lat="43.2911083" lon="10.8090367"><ele>190.0</ele><time>2026-04-18T11:59:45.748Z</time></trkpt><trkpt lat="43.2911317" lon="10.8088317"><ele>190.25</ele><time>2026-04-18T11:59:46.745Z</time></trkpt><trkpt lat="43.2911933" lon="10.808675"><ele>190.5</ele><time>2026-04-18T11:59:47.743Z</time></trkpt><trkpt lat="43.2912683" lon="10.80856"><ele>190.75</ele><time>2026-04-18T11:59:48.75Z</time></trkpt><trkpt lat="43.2913717" lon="10.8084633"><ele>191.0</ele><time>2026-04-18T11:59:49.747Z</time></trkpt><trkpt lat="43.2913833" lon="10.8083"><ele>192.25</ele><time>2026-04-18T11:59:50.744Z</time></trkpt><trkpt lat="43.2913967" lon="10.8081567"><ele>193.5</ele><time>2026-04-18T11:59:51.747Z</time></trkpt><trkpt lat="43.2913717" lon="10.8079933"><ele>194.75</ele><time>2026-04-18T11:59:52.743Z</time></trkpt><trkpt lat="43.2912967" lon="10.8078367"><ele>196.0</ele><time>2026-04-18T11:59:53.742Z</time></trkpt><trkpt lat="43.2912833" lon="10.80765"><ele>197.33333333333331</ele><time>2026-04-18T11:59:54.746Z</time></trkpt><trkpt lat="43.2911867" lon="10.80748"><ele>198.66666666666669</ele><time>2026-04-18T11:59:55.743Z</time></trkpt><trkpt lat="43.2911067" lon="10.8073067"><ele>200.0</ele><time>2026-04-18T11:59:56.747Z</time></trkpt><trkpt lat="43.2911117" lon="10.807105"><ele>200.0</ele><time>2026-04-18T11:59:57.747Z</time></trkpt><trkpt lat="43.2910917" lon="10.8069333"><ele>200.0</ele><time>2026-04-18T11:59:58.742Z</time></trkpt><trkpt lat="43.2910417" lon="10.8067767"><ele>200.0</ele><time>2026-04-18T11:59:59.749Z</time></trkpt><trkpt lat="43.290975" lon="10.8066367"><ele>200.0</ele><time>2026-04-18T12:00:00.748Z</time></trkpt><trkpt lat="43.2909133" lon="10.80651"><ele>200.00000000000003</ele><time>2026-04-18T12:00:01.75Z</time></trkpt><trkpt lat="43.2908417" lon="10.80644"><ele>200.0</ele><time>2026-04-18T12:00:02.746Z</time></trkpt><trkpt lat="43.2907633" lon="10.8064417"><ele>200.0</ele><time>2026-04-18T12:00:03.747Z</time></trkpt><trkpt lat="43.2906917" lon="10.8064733"><ele>200.0</ele><time>2026-04-18T12:00:04.746Z</time></trkpt><trkpt lat="43.2906383" lon="10.8065683"><ele>200.00000000000003</ele><time>2026-04-18T12:00:05.748Z</time></trkpt><trkpt lat="43.2906183" lon="10.8067083"><ele>200.0</ele><time>2026-04-18T12:00:06.744Z</time></trkpt><trkpt lat="43.2906367" lon="10.8069117"><ele>200.0</ele><time>2026-04-18T12:00:07.746Z</time></trkpt><trkpt lat="43.2906233" lon="10.807115"><ele>200.0</ele><time>2026-04-18T12:00:08.745Z</time></trkpt><trkpt lat="43.2906233" lon="10.8073517"><ele>200.0</ele><time>2026-04-18T12:00:09.75Z</time></trkpt><trkpt lat="43.29065" lon="10.8076467"><ele>204.66666666666669</ele><time>2026-04-18T12:00:10.742Z</time></trkpt><trkpt lat="43.290575" lon="10.8078317"><ele>209.33333333333331</ele><time>2026-04-18T12:00:11.746Z</time></trkpt><trkpt lat="43.290535" lon="10.8080383"><ele>214.0</ele><time>2026-04-18T12:00:12.744Z</time></trkpt><trkpt lat="43.2904533" lon="10.8082167"><ele>214.0</ele><time>2026-04-18T12:00:13.743Z</time></trkpt><trkpt lat="43.29035" lon="10.80835"><ele>214.0</ele><time>2026-04-18T12:00:14.742Z</time></trkpt><trkpt lat="43.29024" lon="10.808435"><ele>214.0</ele><time>2026-04-18T12:00:15.745Z</time></trkpt><trkpt lat="43.290225" lon="10.8085983"><ele>214.0</ele><time>2026-04-18T12:00:16.749Z</time></trkpt><trkpt lat="43.290075" lon="10.80867"><ele>213.75</ele><time>2026-04-18T12:00:17.744Z</time></trkpt><trkpt lat="43.29003" lon="10.808865"><ele>213.5</ele><time>2026-04-18T12:00:18.747Z</time></trkpt><trkpt lat="43.2900117" lon="10.80909"><ele>213.25</ele><time>2026-04-18T12:00:19.75Z</time></trkpt><trkpt lat="43.2899683" lon="10.8092433"><ele>213.0</ele><time>2026-04-18T12:00:20.742Z</time></trkpt><trkpt lat="43.2899833" lon="10.80937"><ele>212.0</ele><time>2026-04-18T12:00:21.748Z</time></trkpt><trkpt lat="43.2899183" lon="10.8095033"><ele>211.0</ele><time>2026-04-18T12:00:22.746Z</time></trkpt><trkpt lat="43.2897933" lon="10.809585"><ele>210.0</ele><time>2026-04-18T12:00:23.744Z</time></trkpt><trkpt lat="43.289695" lon="10.809695"><ele>209.0</ele><time>2026-04-18T12:00:24.747Z</time></trkpt><trkpt lat="43.28958" lon="10.8098117"><ele>213.5</ele><time>2026-04-18T12:00:25.746Z</time></trkpt><trkpt lat="43.289465" lon="10.80995"><ele>218.0</ele><time>2026-04-18T12:00:26.746Z</time></trkpt><trkpt lat="43.2893683" lon="10.8101"><ele>222.5</ele><time>2026-04-18T12:00:27.744Z</time></trkpt><trkpt lat="43.2893217" lon="10.81026"><ele>227.0</ele><time>2026-04-18T12:00:28.742Z</time></trkpt><trkpt lat="43.28933" lon="10.81044"><ele>227.0</ele><time>2026-04-18T12:00:29.746Z</time></trkpt><trkpt lat="43.2894067" lon="10.8105617"><ele>227.0</ele><time>2026-04-18T12:00:30.743Z</time></trkpt><trkpt lat="43.2894067" lon="10.8107267"><ele>227.0</ele><time>2026-04-18T12:00:31.751Z</time></trkpt><trkpt lat="43.2893883" lon="10.8108867"><ele>227.0</ele><time>2026-04-18T12:00:32.749Z</time></trkpt><trkpt lat="43.2893583" lon="10.8110717"><ele>226.66666666666669</ele><time>2026-04-18T12:00:33.753Z</time></trkpt><trkpt lat="43.2892767" lon="10.8112683"><ele>226.33333333333331</ele><time>2026-04-18T12:00:34.743Z</time></trkpt><trkpt lat="43.289185" lon="10.811455"><ele>226.0</ele><time>2026-04-18T12:00:35.743Z</time></trkpt><trkpt lat="43.28912" lon="10.8116417"><ele>226.0</ele><time>2026-04-18T12:00:36.748Z</time></trkpt><trkpt lat="43.2890517" lon="10.811775"><ele>226.00000000000003</ele><time>2026-04-18T12:00:37.748Z</time></trkpt><trkpt lat="43.2889833" lon="10.8118767"><ele>226.00000000000003</ele><time>2026-04-18T12:00:38.748Z</time></trkpt><trkpt lat="43.288895" lon="10.81176"><ele>226.0</ele><time>2026-04-18T12:00:40.741Z</time></trkpt><trkpt lat="43.2888617" lon="10.8116633"><ele>226.0</ele><time>2026-04-18T12:00:41.745Z</time></trkpt><trkpt lat="43.288875" lon="10.8115333"><ele>226.0</ele><time>2026-04-18T12:00:42.743Z</time></trkpt><trkpt lat="43.28892" lon="10.8113683"><ele>226.0</ele><time>2026-04-18T12:00:43.742Z</time></trkpt><trkpt lat="43.28894" lon="10.8112183"><ele>226.0</ele><time>2026-04-18T12:00:44.748Z</time></trkpt><trkpt lat="43.2889333" lon="10.8110567"><ele>226.0</ele><time>2026-04-18T12:00:45.744Z</time></trkpt><trkpt lat="43.2888983" lon="10.8108767"><ele>231.33333333333331</ele><time>2026-04-18T12:00:46.745Z</time></trkpt><trkpt lat="43.28886" lon="10.8106817"><ele>236.66666666666669</ele><time>2026-04-18T12:00:47.745Z</time></trkpt><trkpt lat="43.2887967" lon="10.8104883"><ele>242.0</ele><time>2026-04-18T12:00:48.745Z</time></trkpt><trkpt lat="43.288755" lon="10.8102833"><ele>243.66666666666669</ele><time>2026-04-18T12:00:49.744Z</time></trkpt><trkpt lat="43.2887167" lon="10.81008"><ele>245.33333333333331</ele><time>2026-04-18T12:00:50.753Z</time></trkpt><trkpt lat="43.2887217" lon="10.8098667"><ele>247.0</ele><time>2026-04-18T12:00:51.745Z</time></trkpt><trkpt lat="43.2887533" lon="10.80965"><ele>247.0</ele><time>2026-04-18T12:00:52.746Z</time></trkpt><trkpt lat="43.2887067" lon="10.8094883"><ele>247.0</ele><time>2026-04-18T12:00:53.745Z</time></trkpt><trkpt lat="43.288735" lon="10.8093167"><ele>247.0</ele><time>2026-04-18T12:00:54.747Z</time></trkpt><trkpt lat="43.2887567" lon="10.8091783"><ele>247.0</ele><time>2026-04-18T12:00:55.745Z</time></trkpt><trkpt lat="43.2887517" lon="10.8090617"><ele>247.0</ele><time>2026-04-18T12:00:56.743Z</time></trkpt><trkpt lat="43.288715" lon="10.8089867"><ele>247.0</ele><time>2026-04-18T12:00:57.748Z</time></trkpt><trkpt lat="43.2885983" lon="10.80897"><ele>247.0</ele><time>2026-04-18T12:00:59.744Z</time></trkpt><trkpt lat="43.2885533" lon="10.8090483"><ele>247.0</ele><time>2026-04-18T12:01:00.744Z</time></trkpt><trkpt lat="43.288505" lon="10.8091917"><ele>247.0</ele><time>2026-04-18T12:01:01.752Z</time></trkpt><trkpt lat="43.28846" lon="10.80937"><ele>247.0</ele><time>2026-04-18T12:01:02.749Z</time></trkpt><trkpt lat="43.2884" lon="10.8095883"><ele>247.0</ele><time>2026-04-18T12:01:03.743Z</time></trkpt><trkpt lat="43.2884133" lon="10.80983"><ele>247.0</ele><time>2026-04-18T12:01:04.745Z</time></trkpt><trkpt lat="43.288365" lon="10.8100983"><ele>247.0</ele><time>2026-04-18T12:01:05.747Z</time></trkpt><trkpt lat="43.2883383" lon="10.810365"><ele>245.33333333333331</ele><time>2026-04-18T12:01:06.745Z</time></trkpt><trkpt lat="43.2883233" lon="10.8105933"><ele>243.66666666666669</ele><time>2026-04-18T12:01:07.743Z</time></trkpt><trkpt lat="43.2882967" lon="10.8107933"><ele>242.0</ele><time>2026-04-18T12:01:08.743Z</time></trkpt><trkpt lat="43.2882633" lon="10.8109767"><ele>240.75</ele><time>2026-04-18T12:01:09.746Z</time></trkpt><trkpt lat="43.2882067" lon="10.8111517"><ele>239.5</ele><time>2026-04-18T12:01:10.748Z</time></trkpt><trkpt lat="43.2881283" lon="10.8113183"><ele>238.25</ele><time>2026-04-18T12:01:11.744Z</time></trkpt><trkpt lat="43.2879983" lon="10.8114183"><ele>237.0</ele><time>2026-04-18T12:01:12.745Z</time></trkpt><trkpt lat="43.2878917" lon="10.8115483"><ele>238.25</ele><time>2026-04-18T12:01:13.742Z</time></trkpt><trkpt lat="43.2877767" lon="10.8116633"><ele>239.5</ele><time>2026-04-18T12:01:14.748Z</time></trkpt><trkpt lat="43.2876383" lon="10.8117"><ele>240.75</ele><time>2026-04-18T12:01:15.744Z</time></trkpt><trkpt lat="43.287495" lon="10.811755"><ele>242.0</ele><time>2026-04-18T12:01:16.747Z</time></trkpt><trkpt lat="43.2873967" lon="10.81188"><ele>247.5</ele><time>2026-04-18T12:01:17.745Z</time></trkpt><trkpt lat="43.287245" lon="10.8119367"><ele>253.0</ele><time>2026-04-18T12:01:18.742Z</time></trkpt><trkpt lat="43.2871117" lon="10.812005"><ele>258.5</ele><time>2026-04-18T12:01:19.742Z</time></trkpt><trkpt lat="43.287" lon="10.8120933"><ele>264.0</ele><time>2026-04-18T12:01:20.748Z</time></trkpt><trkpt lat="43.2869533" lon="10.81223"><ele>264.0</ele><time>2026-04-18T12:01:21.747Z</time></trkpt><trkpt lat="43.2868833" lon="10.8123617"><ele>264.0</ele><time>2026-04-18T12:01:22.746Z</time></trkpt><trkpt lat="43.2868633" lon="10.8125367"><ele>264.0</ele><time>2026-04-18T12:01:23.743Z</time></trkpt><trkpt lat="43.2869083" lon="10.81271"><ele>264.0</ele><time>2026-04-18T12:01:24.745Z</time></trkpt><trkpt lat="43.286965" lon="10.8128917"><ele>263.25</ele><time>2026-04-18T12:01:25.742Z</time></trkpt><trkpt lat="43.2869967" lon="10.8130583"><ele>262.5</ele><time>2026-04-18T12:01:26.751Z</time></trkpt><trkpt lat="43.28702" lon="10.8132083"><ele>261.75</ele><time>2026-04-18T12:01:27.747Z</time></trkpt><trkpt lat="43.2870133" lon="10.81336"><ele>261.0</ele><time>2026-04-18T12:01:28.748Z</time></trkpt><trkpt lat="43.2869333" lon="10.8134867"><ele>259.0</ele><time>2026-04-18T12:01:29.749Z</time></trkpt><trkpt lat="43.2868367" lon="10.8136333"><ele>257.0</ele><time>2026-04-18T12:01:30.75Z</time></trkpt><trkpt lat="43.2866933" lon="10.813755"><ele>255.0</ele><time>2026-04-18T12:01:31.748Z</time></trkpt><trkpt lat="43.2865467" lon="10.81387"><ele>257.75</ele><time>2026-04-18T12:01:32.747Z</time></trkpt><trkpt lat="43.286415" lon="10.8139767"><ele>260.5</ele><time>2026-04-18T12:01:33.751Z</time></trkpt><trkpt lat="43.286325" lon="10.81412"><ele>263.25</ele><time>2026-04-18T12:01:34.746Z</time></trkpt><trkpt lat="43.2862683" lon="10.8142833"><ele>266.0</ele><time>2026-04-18T12:01:35.748Z</time></trkpt><trkpt lat="43.2862383" lon="10.8144517"><ele>266.0</ele><time>2026-04-18T12:01:36.743Z</time></trkpt><trkpt lat="43.2861867" lon="10.814585"><ele>266.0</ele><time>2026-04-18T12:01:37.745Z</time></trkpt><trkpt lat="43.2861117" lon="10.8147167"><ele>266.0</ele><time>2026-04-18T12:01:38.745Z</time></trkpt><trkpt lat="43.2859883" lon="10.8147767"><ele>266.0</ele><time>2026-04-18T12:01:39.745Z</time></trkpt><trkpt lat="43.2858367" lon="10.81482"><ele>266.0</ele><time>2026-04-18T12:01:40.744Z</time></trkpt><trkpt lat="43.2857033" lon="10.81492"><ele>266.0</ele><time>2026-04-18T12:01:41.744Z</time></trkpt><trkpt lat="43.2855533" lon="10.8149267"><ele>266.0</ele><time>2026-04-18T12:01:42.746Z</time></trkpt><trkpt lat="43.2854283" lon="10.8150317"><ele>266.0</ele><time>2026-04-18T12:01:43.749Z</time></trkpt><trkpt lat="43.28528" lon="10.8151483"><ele>268.0</ele><time>2026-04-18T12:01:44.756Z</time></trkpt><trkpt lat="43.285135" lon="10.815315"><ele>270.0</ele><time>2026-04-18T12:01:45.748Z</time></trkpt><trkpt lat="43.2849817" lon="10.81547"><ele>272.0</ele><time>2026-04-18T12:01:46.749Z</time></trkpt><trkpt lat="43.2848567" lon="10.8156167"><ele>272.0</ele><time>2026-04-18T12:01:47.744Z</time></trkpt><trkpt lat="43.2847583" lon="10.815755"><ele>272.0</ele><time>2026-04-18T12:01:48.742Z</time></trkpt><trkpt lat="43.28466" lon="10.815845"><ele>272.0</ele><time>2026-04-18T12:01:49.746Z</time></trkpt><trkpt lat="43.28457" lon="10.8159417"><ele>272.0</ele><time>2026-04-18T12:01:50.743Z</time></trkpt><trkpt lat="43.2844767" lon="10.8160083"><ele>272.0</ele><time>2026-04-18T12:01:51.743Z</time></trkpt><trkpt lat="43.2843883" lon="10.8159983"><ele>272.0</ele><time>2026-04-18T12:01:52.744Z</time></trkpt><trkpt lat="43.284315" lon="10.8159117"><ele>272.0</ele><time>2026-04-18T12:01:53.747Z</time></trkpt><trkpt lat="43.2842583" lon="10.8157667"><ele>272.0</ele><time>2026-04-18T12:01:54.748Z</time></trkpt><trkpt lat="43.2841817" lon="10.815645"><ele>272.0</ele><time>2026-04-18T12:01:55.744Z</time></trkpt><trkpt lat="43.2841083" lon="10.8154833"><ele>273.75</ele><time>2026-04-18T12:01:56.743Z</time></trkpt><trkpt lat="43.28401" lon="10.8153367"><ele>275.5</ele><time>2026-04-18T12:01:57.741Z</time></trkpt><trkpt lat="43.283875" lon="10.8152667"><ele>277.25</ele><time>2026-04-18T12:01:58.743Z</time></trkpt><trkpt lat="43.283735" lon="10.8152233"><ele>279.0</ele><time>2026-04-18T12:01:59.751Z</time></trkpt><trkpt lat="43.2836017" lon="10.815225"><ele>279.0</ele><time>2026-04-18T12:02:00.748Z</time></trkpt><trkpt lat="43.2834817" lon="10.81529"><ele>279.0</ele><time>2026-04-18T12:02:01.749Z</time></trkpt><trkpt lat="43.2833617" lon="10.815345"><ele>279.0</ele><time>2026-04-18T12:02:02.75Z</time></trkpt><trkpt lat="43.2832717" lon="10.81531"><ele>279.0</ele><time>2026-04-18T12:02:03.746Z</time></trkpt><trkpt lat="43.2831783" lon="10.8153183"><ele>279.0</ele><time>2026-04-18T12:02:04.745Z</time></trkpt><trkpt lat="43.2831217" lon="10.815245"><ele>281.59999999999997</ele><time>2026-04-18T12:02:05.748Z</time></trkpt><trkpt lat="43.28312" lon="10.8151417"><ele>284.2</ele><time>2026-04-18T12:02:06.744Z</time></trkpt><trkpt lat="43.2831833" lon="10.8150567"><ele>286.79999999999995</ele><time>2026-04-18T12:02:07.749Z</time></trkpt><trkpt lat="43.2833" lon="10.8149683"><ele>289.4</ele><time>2026-04-18T12:02:08.75Z</time></trkpt><trkpt lat="43.2834117" lon="10.81484"><ele>292.0</ele><time>2026-04-18T12:02:09.746Z</time></trkpt><trkpt lat="43.2835433" lon="10.8146933"><ele>292.0</ele><time>2026-04-18T12:02:10.745Z</time></trkpt><trkpt lat="43.2836933" lon="10.8145867"><ele>292.0</ele><time>2026-04-18T12:02:11.749Z</time></trkpt><trkpt lat="43.283825" lon="10.8145667"><ele>292.0</ele><time>2026-04-18T12:02:12.743Z</time></trkpt><trkpt lat="43.2839333" lon="10.814425"><ele>291.25</ele><time>2026-04-18T12:02:13.742Z</time></trkpt><trkpt lat="43.284115" lon="10.814395"><ele>290.5</ele><time>2026-04-18T12:02:14.743Z</time></trkpt><trkpt lat="43.28415" lon="10.8142417"><ele>289.75</ele><time>2026-04-18T12:02:15.743Z</time></trkpt><trkpt lat="43.2842367" lon="10.8141117"><ele>289.0</ele><time>2026-04-18T12:02:16.743Z</time></trkpt><trkpt lat="43.2843233" lon="10.8139567"><ele>291.0</ele><time>2026-04-18T12:02:17.741Z</time></trkpt><trkpt lat="43.2843917" lon="10.8137917"><ele>293.0</ele><time>2026-04-18T12:02:18.744Z</time></trkpt><trkpt lat="43.2844133" lon="10.81362"><ele>295.0</ele><time>2026-04-18T12:02:19.746Z</time></trkpt><trkpt lat="43.28444" lon="10.8134333"><ele>297.0</ele><time>2026-04-18T12:02:20.746Z</time></trkpt><trkpt lat="43.2843867" lon="10.8132367"><ele>299.5</ele><time>2026-04-18T12:02:21.745Z</time></trkpt><trkpt lat="43.2843667" lon="10.8130233"><ele>302.0</ele><time>2026-04-18T12:02:22.747Z</time></trkpt><trkpt lat="43.2843767" lon="10.8128383"><ele>304.5</ele><time>2026-04-18T12:02:23.742Z</time></trkpt><trkpt lat="43.2844117" lon="10.8126733"><ele>307.0</ele><time>2026-04-18T12:02:24.742Z</time></trkpt><trkpt lat="43.2844483" lon="10.81245"><ele>311.5</ele><time>2026-04-18T12:02:25.74Z</time></trkpt><trkpt lat="43.2845433" lon="10.812295"><ele>316.0</ele><time>2026-04-18T12:02:26.741Z</time></trkpt><trkpt lat="43.2845917" lon="10.8121417"><ele>320.5</ele><time>2026-04-18T12:02:28.747Z</time></trkpt><trkpt lat="43.2846167" lon="10.812"><ele>325.0</ele><time>2026-04-18T12:02:29.746Z</time></trkpt><trkpt lat="43.2846067" lon="10.81184"><ele>317.66666666666663</ele><time>2026-04-18T12:02:30.749Z</time></trkpt><trkpt lat="43.28473" lon="10.8116517"><ele>310.3333333333333</ele><time>2026-04-18T12:02:31.745Z</time></trkpt><trkpt lat="43.2847517" lon="10.8114067"><ele>303.0</ele><time>2026-04-18T12:02:32.744Z</time></trkpt><trkpt lat="43.2847767" lon="10.811195"><ele>307.6666666666667</ele><time>2026-04-18T12:02:33.746Z</time></trkpt><trkpt lat="43.2848117" lon="10.8109367"><ele>312.33333333333337</ele><time>2026-04-18T12:02:35.748Z</time></trkpt><trkpt lat="43.2848867" lon="10.8107467"><ele>317.0</ele><time>2026-04-18T12:02:36.743Z</time></trkpt><trkpt lat="43.284965" lon="10.8105767"><ele>317.0</ele><time>2026-04-18T12:02:37.744Z</time></trkpt><trkpt lat="43.285035" lon="10.8104267"><ele>317.0</ele><time>2026-04-18T12:02:38.756Z</time></trkpt><trkpt lat="43.2850917" lon="10.8102667"><ele>317.0</ele><time>2026-04-18T12:02:39.749Z</time></trkpt><trkpt lat="43.2851317" lon="10.81009"><ele>317.0</ele><time>2026-04-18T12:02:40.742Z</time></trkpt><trkpt lat="43.2851633" lon="10.809905"><ele>320.75</ele><time>2026-04-18T12:02:41.748Z</time></trkpt><trkpt lat="43.2851733" lon="10.8097167"><ele>324.5</ele><time>2026-04-18T12:02:42.741Z</time></trkpt><trkpt lat="43.2851583" lon="10.8095167"><ele>328.25</ele><time>2026-04-18T12:02:43.744Z</time></trkpt><trkpt lat="43.2851283" lon="10.8093"><ele>332.0</ele><time>2026-04-18T12:02:44.744Z</time></trkpt><trkpt lat="43.2850817" lon="10.8090917"><ele>332.0</ele><time>2026-04-18T12:02:45.741Z</time></trkpt><trkpt lat="43.285025" lon="10.80891"><ele>332.0</ele><time>2026-04-18T12:02:46.742Z</time></trkpt><trkpt lat="43.2849617" lon="10.80876"><ele>332.0</ele><time>2026-04-18T12:02:47.743Z</time></trkpt><trkpt lat="43.284895" lon="10.8086267"><ele>332.0</ele><time>2026-04-18T12:02:48.746Z</time></trkpt><trkpt lat="43.28483" lon="10.808495"><ele>329.75</ele><time>2026-04-18T12:02:49.744Z</time></trkpt><trkpt lat="43.2847767" lon="10.8083617"><ele>327.5</ele><time>2026-04-18T12:02:50.75Z</time></trkpt><trkpt lat="43.2846917" lon="10.808165"><ele>325.25</ele><time>2026-04-18T12:02:51.743Z</time></trkpt><trkpt lat="43.2847333" lon="10.8079983"><ele>323.0</ele><time>2026-04-18T12:02:52.748Z</time></trkpt><trkpt lat="43.2848017" lon="10.8078567"><ele>323.0</ele><time>2026-04-18T12:02:53.743Z</time></trkpt><trkpt lat="43.2848467" lon="10.8076617"><ele>323.0</ele><time>2026-04-18T12:02:54.745Z</time></trkpt><trkpt lat="43.284885" lon="10.8074633"><ele>323.0</ele><time>2026-04-18T12:02:55.741Z</time></trkpt><trkpt lat="43.28491" lon="10.807275"><ele>323.0</ele><time>2026-04-18T12:02:56.742Z</time></trkpt><trkpt lat="43.28486" lon="10.8071367"><ele>323.75</ele><time>2026-04-18T12:02:57.739Z</time></trkpt><trkpt lat="43.2848017" lon="10.8070033"><ele>324.5</ele><time>2026-04-18T12:02:58.743Z</time></trkpt><trkpt lat="43.2847467" lon="10.8068233"><ele>325.25</ele><time>2026-04-18T12:02:59.741Z</time></trkpt><trkpt lat="43.284805" lon="10.8067133"><ele>326.0</ele><time>2026-04-18T12:03:00.741Z</time></trkpt><trkpt lat="43.2847967" lon="10.8065167"><ele>326.0</ele><time>2026-04-18T12:03:01.746Z</time></trkpt><trkpt lat="43.284845" lon="10.8063767"><ele>326.0</ele><time>2026-04-18T12:03:02.749Z</time></trkpt><trkpt lat="43.2849267" lon="10.8062267"><ele>326.0</ele><time>2026-04-18T12:03:03.743Z</time></trkpt><trkpt lat="43.2849" lon="10.8060033"><ele>326.0</ele><time>2026-04-18T12:03:04.742Z</time></trkpt><trkpt lat="43.2849317" lon="10.8058367"><ele>327.5</ele><time>2026-04-18T12:03:05.741Z</time></trkpt><trkpt lat="43.284965" lon="10.805675"><ele>329.0</ele><time>2026-04-18T12:03:06.748Z</time></trkpt><trkpt lat="43.2849517" lon="10.8055083"><ele>330.5</ele><time>2026-04-18T12:03:07.748Z</time></trkpt><trkpt lat="43.2849133" lon="10.80534"><ele>332.0</ele><time>2026-04-18T12:03:08.748Z</time></trkpt><trkpt lat="43.28489" lon="10.805195"><ele>333.20000000000005</ele><time>2026-04-18T12:03:09.745Z</time></trkpt><trkpt lat="43.28488" lon="10.80506"><ele>334.4</ele><time>2026-04-18T12:03:10.745Z</time></trkpt><trkpt lat="43.2848633" lon="10.8049133"><ele>335.6</ele><time>2026-04-18T12:03:11.747Z</time></trkpt><trkpt lat="43.28488" lon="10.8047717"><ele>336.79999999999995</ele><time>2026-04-18T12:03:12.741Z</time></trkpt><trkpt lat="43.28489" lon="10.8045933"><ele>338.0</ele><time>2026-04-18T12:03:13.757Z</time></trkpt><trkpt lat="43.284895" lon="10.8044617"><ele>338.0</ele><time>2026-04-18T12:03:14.751Z</time></trkpt><trkpt lat="43.284925" lon="10.8043383"><ele>338.0</ele><time>2026-04-18T12:03:15.745Z</time></trkpt><trkpt lat="43.2849833" lon="10.8042183"><ele>338.0</ele><time>2026-04-18T12:03:16.743Z</time></trkpt><trkpt lat="43.285055" lon="10.80411"><ele>338.0</ele><time>2026-04-18T12:03:17.743Z</time></trkpt><trkpt lat="43.2851167" lon="10.8040283"><ele>338.0</ele><time>2026-04-18T12:03:18.743Z</time></trkpt><trkpt lat="43.2851267" lon="10.8039233"><ele>338.2</ele><time>2026-04-18T12:03:19.743Z</time></trkpt><trkpt lat="43.2850933" lon="10.803795"><ele>338.4</ele><time>2026-04-18T12:03:20.746Z</time></trkpt><trkpt lat="43.2850183" lon="10.80368"><ele>338.59999999999997</ele><time>2026-04-18T12:03:21.746Z</time></trkpt><trkpt lat="43.284925" lon="10.8035533"><ele>338.79999999999995</ele><time>2026-04-18T12:03:22.744Z</time></trkpt><trkpt lat="43.284875" lon="10.8034533"><ele>339.0</ele><time>2026-04-18T12:03:23.747Z</time></trkpt><trkpt lat="43.2848217" lon="10.8033633"><ele>342.3333333333333</ele><time>2026-04-18T12:03:24.747Z</time></trkpt><trkpt lat="43.2847617" lon="10.803295"><ele>345.6666666666667</ele><time>2026-04-18T12:03:25.744Z</time></trkpt><trkpt lat="43.2846717" lon="10.8033217"><ele>349.0</ele><time>2026-04-18T12:03:26.745Z</time></trkpt><trkpt lat="43.2845983" lon="10.80335"><ele>352.33333333333337</ele><time>2026-04-18T12:03:27.747Z</time></trkpt><trkpt lat="43.284595" lon="10.8034567"><ele>355.6666666666667</ele><time>2026-04-18T12:03:28.744Z</time></trkpt><trkpt lat="43.2846217" lon="10.80358"><ele>359.0</ele><time>2026-04-18T12:03:30.742Z</time></trkpt><trkpt lat="43.2847" lon="10.8036783"><ele>360.6666666666667</ele><time>2026-04-18T12:03:31.745Z</time></trkpt><trkpt lat="43.284745" lon="10.8037483"><ele>362.33333333333337</ele><time>2026-04-18T12:03:32.745Z</time></trkpt><trkpt lat="43.284755" lon="10.80389"><ele>364.0</ele><time>2026-04-18T12:03:33.743Z</time></trkpt><trkpt lat="43.2847383" lon="10.8040117"><ele>365.6666666666667</ele><time>2026-04-18T12:03:34.743Z</time></trkpt><trkpt lat="43.284695" lon="10.80409"><ele>367.3333333333333</ele><time>2026-04-18T12:03:35.743Z</time></trkpt><trkpt lat="43.2846483" lon="10.8041733"><ele>369.0</ele><time>2026-04-18T12:03:36.745Z</time></trkpt><trkpt lat="43.284575" lon="10.8043817"><ele>369.0</ele><time>2026-04-18T12:03:37.747Z</time></trkpt><trkpt lat="43.2845317" lon="10.8045383"><ele>369.0</ele><time>2026-04-18T12:03:38.744Z</time></trkpt><trkpt lat="43.2844583" lon="10.8045983"><ele>369.0</ele><time>2026-04-18T12:03:39.743Z</time></trkpt><trkpt lat="43.2843817" lon="10.804685"><ele>369.0</ele><time>2026-04-18T12:03:40.741Z</time></trkpt><trkpt lat="43.2842933" lon="10.8047917"><ele>369.0</ele><time>2026-04-18T12:03:41.747Z</time></trkpt><trkpt lat="43.2841767" lon="10.8050283"><ele>367.5</ele><time>2026-04-18T12:03:42.746Z</time></trkpt><trkpt lat="43.284075" lon="10.8052217"><ele>366.0</ele><time>2026-04-18T12:03:43.743Z</time></trkpt><trkpt lat="43.284005" lon="10.8053983"><ele>364.5</ele><time>2026-04-18T12:03:44.746Z</time></trkpt><trkpt lat="43.28395" lon="10.8054833"><ele>363.0</ele><time>2026-04-18T12:03:45.746Z</time></trkpt><trkpt lat="43.283865" lon="10.805565"><ele>368.5</ele><time>2026-04-18T12:03:46.742Z</time></trkpt><trkpt lat="43.2837733" lon="10.805715"><ele>374.0</ele><time>2026-04-18T12:03:47.742Z</time></trkpt><trkpt lat="43.2836833" lon="10.8058733"><ele>379.5</ele><time>2026-04-18T12:03:48.743Z</time></trkpt><trkpt lat="43.2835933" lon="10.8059833"><ele>385.0</ele><time>2026-04-18T12:03:49.742Z</time></trkpt><trkpt lat="43.28356" lon="10.8061217"><ele>387.0</ele><time>2026-04-18T12:03:50.748Z</time></trkpt><trkpt lat="43.28356" lon="10.8062733"><ele>389.0</ele><time>2026-04-18T12:03:51.747Z</time></trkpt><trkpt lat="43.2835867" lon="10.806425"><ele>391.0</ele><time>2026-04-18T12:03:52.743Z</time></trkpt><trkpt lat="43.2836817" lon="10.8065867"><ele>393.0</ele><time>2026-04-18T12:03:53.74Z</time></trkpt><trkpt lat="43.2837683" lon="10.8067433"><ele>394.0</ele><time>2026-04-18T12:03:54.747Z</time></trkpt><trkpt lat="43.283845" lon="10.8069033"><ele>395.0</ele><time>2026-04-18T12:03:55.745Z</time></trkpt><trkpt lat="43.2838817" lon="10.8070667"><ele>396.0</ele><time>2026-04-18T12:03:56.751Z</time></trkpt><trkpt lat="43.2839" lon="10.80719"><ele>397.0</ele><time>2026-04-18T12:03:57.745Z</time></trkpt><trkpt lat="43.28392" lon="10.807315"><ele>398.0</ele><time>2026-04-18T12:03:58.747Z</time></trkpt><trkpt lat="43.283865" lon="10.8074083"><ele>398.0</ele><time>2026-04-18T12:03:59.741Z</time></trkpt><trkpt lat="43.2837217" lon="10.8074767"><ele>398.0</ele><time>2026-04-18T12:04:01.744Z</time></trkpt><trkpt lat="43.2836667" lon="10.8073817"><ele>398.0</ele><time>2026-04-18T12:04:03.742Z</time></trkpt><trkpt lat="43.283555" lon="10.8074433"><ele>398.0</ele><time>2026-04-18T12:04:04.743Z</time></trkpt><trkpt lat="43.2834833" lon="10.8074867"><ele>398.0</ele><time>2026-04-18T12:04:06.751Z</time></trkpt><trkpt lat="43.2834683" lon="10.8075883"><ele>400.5</ele><time>2026-04-18T12:04:07.746Z</time></trkpt><trkpt lat="43.2835133" lon="10.8077283"><ele>403.0</ele><time>2026-04-18T12:04:08.751Z</time></trkpt><trkpt lat="43.2835867" lon="10.8078683"><ele>405.5</ele><time>2026-04-18T12:04:09.747Z</time></trkpt><trkpt lat="43.2836733" lon="10.80802"><ele>408.0</ele><time>2026-04-18T12:04:10.746Z</time></trkpt><trkpt lat="43.2837217" lon="10.808195"><ele>408.0</ele><time>2026-04-18T12:04:11.744Z</time></trkpt><trkpt lat="43.283775" lon="10.8083517"><ele>408.0</ele><time>2026-04-18T12:04:12.74Z</time></trkpt><trkpt lat="43.28375" lon="10.80849"><ele>408.0</ele><time>2026-04-18T12:04:13.744Z</time></trkpt><trkpt lat="43.2837383" lon="10.8086483"><ele>408.0</ele><time>2026-04-18T12:04:14.746Z</time></trkpt><trkpt lat="43.2836983" lon="10.808765"><ele>408.0</ele><time>2026-04-18T12:04:15.748Z</time></trkpt><trkpt lat="43.283695" lon="10.8089317"><ele>408.75</ele><time>2026-04-18T12:04:16.744Z</time></trkpt><trkpt lat="43.2836983" lon="10.809095"><ele>409.5</ele><time>2026-04-18T12:04:17.743Z</time></trkpt><trkpt lat="43.2837233" lon="10.8092517"><ele>410.25</ele><time>2026-04-18T12:04:18.754Z</time></trkpt><trkpt lat="43.28377" lon="10.8093917"><ele>411.0</ele><time>2026-04-18T12:04:19.746Z</time></trkpt><trkpt lat="43.2838483" lon="10.8095117"><ele>411.0</ele><time>2026-04-18T12:04:20.744Z</time></trkpt><trkpt lat="43.2838933" lon="10.80963"><ele>411.0</ele><time>2026-04-18T12:04:21.742Z</time></trkpt><trkpt lat="43.283935" lon="10.8097483"><ele>411.0</ele><time>2026-04-18T12:04:22.744Z</time></trkpt><trkpt lat="43.28395" lon="10.809875"><ele>411.0</ele><time>2026-04-18T12:04:23.745Z</time></trkpt><trkpt lat="43.2839183" lon="10.8099767"><ele>411.0</ele><time>2026-04-18T12:04:24.744Z</time></trkpt><trkpt lat="43.2838817" lon="10.8100817"><ele>411.0</ele><time>2026-04-18T12:04:25.745Z</time></trkpt><trkpt lat="43.283835" lon="10.810155"><ele>411.0</ele><time>2026-04-18T12:04:26.752Z</time></trkpt><trkpt lat="43.2837683" lon="10.810165"><ele>411.0</ele><time>2026-04-18T12:04:27.746Z</time></trkpt><trkpt lat="43.2837" lon="10.8101583"><ele>411.0</ele><time>2026-04-18T12:04:28.746Z</time></trkpt><trkpt lat="43.283625" lon="10.81016"><ele>411.0</ele><time>2026-04-18T12:04:29.744Z</time></trkpt><trkpt lat="43.28353" lon="10.8101883"><ele>411.0</ele><time>2026-04-18T12:04:30.744Z</time></trkpt><trkpt lat="43.2833117" lon="10.8102867"><ele>410.6</ele><time>2026-04-18T12:04:31.746Z</time></trkpt><trkpt lat="43.2831617" lon="10.81029"><ele>410.20000000000005</ele><time>2026-04-18T12:04:32.749Z</time></trkpt><trkpt lat="43.2830617" lon="10.8102117"><ele>409.79999999999995</ele><time>2026-04-18T12:04:33.747Z</time></trkpt><trkpt lat="43.283" lon="10.81011"><ele>409.4</ele><time>2026-04-18T12:04:34.743Z</time></trkpt><trkpt lat="43.2829967" lon="10.80999"><ele>409.0</ele><time>2026-04-18T12:04:35.745Z</time></trkpt><trkpt lat="43.2829417" lon="10.8098533"><ele>409.0</ele><time>2026-04-18T12:04:36.743Z</time></trkpt><trkpt lat="43.2828" lon="10.8097317"><ele>409.0</ele><time>2026-04-18T12:04:37.745Z</time></trkpt><trkpt lat="43.28275" lon="10.809615"><ele>409.0</ele><time>2026-04-18T12:04:38.742Z</time></trkpt><trkpt lat="43.2826317" lon="10.8095767"><ele>409.0</ele><time>2026-04-18T12:04:39.741Z</time></trkpt><trkpt lat="43.2824983" lon="10.8095417"><ele>409.0</ele><time>2026-04-18T12:04:40.742Z</time></trkpt><trkpt lat="43.2823683" lon="10.8096133"><ele>409.0</ele><time>2026-04-18T12:04:41.751Z</time></trkpt><trkpt lat="43.2823767" lon="10.8097167"><ele>409.0</ele><time>2026-04-18T12:04:42.743Z</time></trkpt><trkpt lat="43.282275" lon="10.809755"><ele>409.0</ele><time>2026-04-18T12:04:43.749Z</time></trkpt><trkpt lat="43.282225" lon="10.80964"><ele>409.0</ele><time>2026-04-18T12:04:46.743Z</time></trkpt><trkpt lat="43.28235" lon="10.8095167"><ele>409.0</ele><time>2026-04-18T12:04:48.744Z</time></trkpt><trkpt lat="43.28246" lon="10.8094883"><ele>409.0</ele><time>2026-04-18T12:04:49.748Z</time></trkpt><trkpt lat="43.2826283" lon="10.80956"><ele>409.0</ele><time>2026-04-18T12:04:50.747Z</time></trkpt><trkpt lat="43.28273" lon="10.809545"><ele>409.0</ele><time>2026-04-18T12:04:51.744Z</time></trkpt><trkpt lat="43.2828417" lon="10.80956"><ele>409.00000000000006</ele><time>2026-04-18T12:04:52.743Z</time></trkpt><trkpt lat="43.2829517" lon="10.80962"><ele>409.0</ele><time>2026-04-18T12:04:53.745Z</time></trkpt><trkpt lat="43.2830267" lon="10.809625"><ele>409.0</ele><time>2026-04-18T12:04:54.749Z</time></trkpt><trkpt lat="43.2831033" lon="10.8096117"><ele>409.0</ele><time>2026-04-18T12:04:55.748Z</time></trkpt><trkpt lat="43.2831417" lon="10.8095333"><ele>409.00000000000006</ele><time>2026-04-18T12:04:56.745Z</time></trkpt><trkpt lat="43.28315" lon="10.809435"><ele>409.0</ele><time>2026-04-18T12:04:57.748Z</time></trkpt><trkpt lat="43.2831417" lon="10.8093283"><ele>410.2</ele><time>2026-04-18T12:04:58.748Z</time></trkpt><trkpt lat="43.2831333" lon="10.809215"><ele>411.4</ele><time>2026-04-18T12:04:59.743Z</time></trkpt><trkpt lat="43.2831" lon="10.8090733"><ele>412.6</ele><time>2026-04-18T12:05:00.744Z</time></trkpt><trkpt lat="43.2830033" lon="10.808955"><ele>413.8</ele><time>2026-04-18T12:05:01.748Z</time></trkpt><trkpt lat="43.28295" lon="10.8088267"><ele>415.0</ele><time>2026-04-18T12:05:02.75Z</time></trkpt><trkpt lat="43.28287" lon="10.8087533"><ele>417.8</ele><time>2026-04-18T12:05:03.744Z</time></trkpt><trkpt lat="43.2827633" lon="10.8087533"><ele>420.6</ele><time>2026-04-18T12:05:04.745Z</time></trkpt><trkpt lat="43.2826767" lon="10.80874"><ele>423.4</ele><time>2026-04-18T12:05:05.745Z</time></trkpt><trkpt lat="43.282585" lon="10.8086967"><ele>426.2</ele><time>2026-04-18T12:05:06.751Z</time></trkpt><trkpt lat="43.28244" lon="10.8087717"><ele>429.0</ele><time>2026-04-18T12:05:07.75Z</time></trkpt><trkpt lat="43.282315" lon="10.8087933"><ele>428.79999999999995</ele><time>2026-04-18T12:05:08.747Z</time></trkpt><trkpt lat="43.2821883" lon="10.8087867"><ele>428.59999999999997</ele><time>2026-04-18T12:05:09.745Z</time></trkpt><trkpt lat="43.282075" lon="10.808765"><ele>428.4</ele><time>2026-04-18T12:05:10.75Z</time></trkpt><trkpt lat="43.2819633" lon="10.8087583"><ele>428.2</ele><time>2026-04-18T12:05:11.747Z</time></trkpt><trkpt lat="43.2818817" lon="10.8087167"><ele>428.0</ele><time>2026-04-18T12:05:12.743Z</time></trkpt><trkpt lat="43.2817883" lon="10.8087033"><ele>427.99999999999994</ele><time>2026-04-18T12:05:13.743Z</time></trkpt><trkpt lat="43.281715" lon="10.8086483"><ele>428.0</ele><time>2026-04-18T12:05:14.746Z</time></trkpt><trkpt lat="43.2816583" lon="10.8085767"><ele>428.0</ele><time>2026-04-18T12:05:15.743Z</time></trkpt><trkpt lat="43.2816233" lon="10.8084817"><ele>428.0</ele><time>2026-04-18T12:05:16.747Z</time></trkpt><trkpt lat="43.281635" lon="10.8083867"><ele>427.99999999999994</ele><time>2026-04-18T12:05:17.746Z</time></trkpt><trkpt lat="43.2816967" lon="10.8083433"><ele>428.0</ele><time>2026-04-18T12:05:18.744Z</time></trkpt><trkpt lat="43.2817517" lon="10.808265"><ele>428.0</ele><time>2026-04-18T12:05:22.75Z</time></trkpt><trkpt lat="43.2816717" lon="10.8083667"><ele>427.99999999999994</ele><time>2026-04-18T12:05:37.743Z</time></trkpt><trkpt lat="43.2816517" lon="10.808505"><ele>427.99999999999994</ele><time>2026-04-18T12:05:39.746Z</time></trkpt><trkpt lat="43.2816983" lon="10.8086417"><ele>428.0</ele><time>2026-04-18T12:05:41.742Z</time></trkpt><trkpt lat="43.28177" lon="10.80871"><ele>428.0</ele><time>2026-04-18T12:05:43.743Z</time></trkpt><trkpt lat="43.281725" lon="10.8087783"><ele>427.99999999999994</ele><time>2026-04-18T12:05:48.746Z</time></trkpt><trkpt lat="43.2816617" lon="10.8087033"><ele>428.0</ele><time>2026-04-18T12:05:50.743Z</time></trkpt><trkpt lat="43.281575" lon="10.80859"><ele>428.0</ele><time>2026-04-18T12:05:52.746Z</time></trkpt><trkpt lat="43.2815217" lon="10.808525"><ele>428.0</ele><time>2026-04-18T12:05:53.746Z</time></trkpt><trkpt lat="43.281465" lon="10.8084467"><ele>427.99999999999994</ele><time>2026-04-18T12:05:54.742Z</time></trkpt><trkpt lat="43.2813967" lon="10.80839"><ele>428.0</ele><time>2026-04-18T12:05:55.755Z</time></trkpt><trkpt lat="43.2813217" lon="10.8083333"><ele>429.16666666666663</ele><time>2026-04-18T12:05:56.747Z</time></trkpt><trkpt lat="43.281245" lon="10.8082867"><ele>430.3333333333333</ele><time>2026-04-18T12:05:57.744Z</time></trkpt><trkpt lat="43.2811667" lon="10.8082767"><ele>431.5</ele><time>2026-04-18T12:05:58.743Z</time></trkpt><trkpt lat="43.2810917" lon="10.80826"><ele>432.66666666666663</ele><time>2026-04-18T12:05:59.742Z</time></trkpt><trkpt lat="43.2810183" lon="10.80827"><ele>433.8333333333333</ele><time>2026-04-18T12:06:00.748Z</time></trkpt><trkpt lat="43.2809483" lon="10.8082883"><ele>435.0</ele><time>2026-04-18T12:06:01.742Z</time></trkpt><trkpt lat="43.28088" lon="10.808285"><ele>435.0</ele><time>2026-04-18T12:06:02.748Z</time></trkpt><trkpt lat="43.2808017" lon="10.808265"><ele>435.0</ele><time>2026-04-18T12:06:03.745Z</time></trkpt><trkpt lat="43.2807183" lon="10.8082683"><ele>435.0</ele><time>2026-04-18T12:06:04.742Z</time></trkpt><trkpt lat="43.2806317" lon="10.80825"><ele>435.0</ele><time>2026-04-18T12:06:05.743Z</time></trkpt><trkpt lat="43.28054" lon="10.8082667"><ele>435.0</ele><time>2026-04-18T12:06:06.745Z</time></trkpt><trkpt lat="43.2804517" lon="10.8083"><ele>435.0</ele><time>2026-04-18T12:06:07.745Z</time></trkpt><trkpt lat="43.280365" lon="10.808385"><ele>435.6</ele><time>2026-04-18T12:06:08.746Z</time></trkpt><trkpt lat="43.28027" lon="10.8084233"><ele>436.2</ele><time>2026-04-18T12:06:09.748Z</time></trkpt><trkpt lat="43.2801517" lon="10.8084517"><ele>436.79999999999995</ele><time>2026-04-18T12:06:10.744Z</time></trkpt><trkpt lat="43.28003" lon="10.8084667"><ele>437.4</ele><time>2026-04-18T12:06:11.743Z</time></trkpt><trkpt lat="43.2799367" lon="10.80853"><ele>438.0</ele><time>2026-04-18T12:06:12.742Z</time></trkpt><trkpt lat="43.2798317" lon="10.8085617"><ele>440.5</ele><time>2026-04-18T12:06:13.746Z</time></trkpt><trkpt lat="43.279745" lon="10.8086433"><ele>443.0</ele><time>2026-04-18T12:06:14.743Z</time></trkpt><trkpt lat="43.2796567" lon="10.808765"><ele>445.5</ele><time>2026-04-18T12:06:15.751Z</time></trkpt><trkpt lat="43.2795317" lon="10.808825"><ele>448.0</ele><time>2026-04-18T12:06:16.746Z</time></trkpt><trkpt lat="43.279455" lon="10.8089517"><ele>448.00000000000006</ele><time>2026-04-18T12:06:17.744Z</time></trkpt><trkpt lat="43.27938" lon="10.8090283"><ele>448.0</ele><time>2026-04-18T12:06:18.744Z</time></trkpt><trkpt lat="43.279305" lon="10.8090517"><ele>448.0</ele><time>2026-04-18T12:06:19.744Z</time></trkpt><trkpt lat="43.2792417" lon="10.8090533"><ele>448.0</ele><time>2026-04-18T12:06:20.746Z</time></trkpt><trkpt lat="43.2791683" lon="10.8090167"><ele>448.00000000000006</ele><time>2026-04-18T12:06:21.745Z</time></trkpt><trkpt lat="43.2791017" lon="10.8089683"><ele>448.0</ele><time>2026-04-18T12:06:22.746Z</time></trkpt><trkpt lat="43.2790483" lon="10.808865"><ele>448.0</ele><time>2026-04-18T12:06:23.744Z</time></trkpt><trkpt lat="43.2790117" lon="10.8087733"><ele>447.99999999999994</ele><time>2026-04-18T12:06:24.746Z</time></trkpt><trkpt lat="43.2790183" lon="10.8086167"><ele>447.99999999999994</ele><time>2026-04-18T12:06:25.746Z</time></trkpt><trkpt lat="43.27902" lon="10.8084667"><ele>448.0</ele><time>2026-04-18T12:06:26.747Z</time></trkpt><trkpt lat="43.2790083" lon="10.8083283"><ele>448.0</ele><time>2026-04-18T12:06:27.751Z</time></trkpt><trkpt lat="43.279" lon="10.8081833"><ele>448.0</ele><time>2026-04-18T12:06:28.744Z</time></trkpt><trkpt lat="43.278985" lon="10.8080433"><ele>447.99999999999994</ele><time>2026-04-18T12:06:29.744Z</time></trkpt><trkpt lat="43.2789317" lon="10.8079067"><ele>447.99999999999994</ele><time>2026-04-18T12:06:30.743Z</time></trkpt><trkpt lat="43.27886" lon="10.80781"><ele>448.0</ele><time>2026-04-18T12:06:31.745Z</time></trkpt><trkpt lat="43.2787783" lon="10.8077233"><ele>448.0</ele><time>2026-04-18T12:06:32.748Z</time></trkpt><trkpt lat="43.2786817" lon="10.8077567"><ele>448.0</ele><time>2026-04-18T12:06:33.748Z</time></trkpt><trkpt lat="43.2786017" lon="10.8076717"><ele>447.99999999999994</ele><time>2026-04-18T12:06:34.748Z</time></trkpt><trkpt lat="43.2785067" lon="10.8076"><ele>447.99999999999994</ele><time>2026-04-18T12:06:35.745Z</time></trkpt><trkpt lat="43.2784133" lon="10.8075383"><ele>448.0</ele><time>2026-04-18T12:06:36.745Z</time></trkpt><trkpt lat="43.2783483" lon="10.8074283"><ele>448.0</ele><time>2026-04-18T12:06:37.745Z</time></trkpt><trkpt lat="43.278295" lon="10.8073017"><ele>447.4</ele><time>2026-04-18T12:06:38.743Z</time></trkpt><trkpt lat="43.2782517" lon="10.8071417"><ele>446.79999999999995</ele><time>2026-04-18T12:06:39.753Z</time></trkpt><trkpt lat="43.2781783" lon="10.8070667"><ele>446.2</ele><time>2026-04-18T12:06:40.745Z</time></trkpt><trkpt lat="43.2781383" lon="10.8069433"><ele>445.6</ele><time>2026-04-18T12:06:41.746Z</time></trkpt><trkpt lat="43.2780783" lon="10.8068633"><ele>445.0</ele><time>2026-04-18T12:06:42.746Z</time></trkpt><trkpt lat="43.277995" lon="10.806825"><ele>448.6666666666667</ele><time>2026-04-18T12:06:43.746Z</time></trkpt><trkpt lat="43.2779017" lon="10.8068117"><ele>452.33333333333337</ele><time>2026-04-18T12:06:44.744Z</time></trkpt><trkpt lat="43.2778033" lon="10.8068267"><ele>456.0</ele><time>2026-04-18T12:06:45.744Z</time></trkpt><trkpt lat="43.277725" lon="10.806785"><ele>459.66666666666663</ele><time>2026-04-18T12:06:46.748Z</time></trkpt><trkpt lat="43.27765" lon="10.8067433"><ele>463.3333333333333</ele><time>2026-04-18T12:06:47.746Z</time></trkpt><trkpt lat="43.277605" lon="10.80666"><ele>467.0</ele><time>2026-04-18T12:06:48.746Z</time></trkpt><trkpt lat="43.2775567" lon="10.8065917"><ele>467.0</ele><time>2026-04-18T12:06:49.742Z</time></trkpt><trkpt lat="43.277485" lon="10.8065333"><ele>467.0</ele><time>2026-04-18T12:06:50.742Z</time></trkpt><trkpt lat="43.277415" lon="10.8064183"><ele>467.0</ele><time>2026-04-18T12:06:51.744Z</time></trkpt><trkpt lat="43.2773367" lon="10.8063067"><ele>467.0</ele><time>2026-04-18T12:06:52.742Z</time></trkpt><trkpt lat="43.27728" lon="10.8061167"><ele>467.75</ele><time>2026-04-18T12:06:53.745Z</time></trkpt><trkpt lat="43.2771933" lon="10.8059783"><ele>468.5</ele><time>2026-04-18T12:06:54.747Z</time></trkpt><trkpt lat="43.277115" lon="10.8058417"><ele>469.25</ele><time>2026-04-18T12:06:55.745Z</time></trkpt><trkpt lat="43.2770683" lon="10.805705"><ele>470.0</ele><time>2026-04-18T12:06:56.743Z</time></trkpt><trkpt lat="43.27702" lon="10.805585"><ele>469.99999999999994</ele><time>2026-04-18T12:06:57.746Z</time></trkpt><trkpt lat="43.2769517" lon="10.8055133"><ele>470.0</ele><time>2026-04-18T12:06:58.74Z</time></trkpt><trkpt lat="43.2768817" lon="10.8054667"><ele>470.0</ele><time>2026-04-18T12:06:59.745Z</time></trkpt><trkpt lat="43.2768083" lon="10.8054617"><ele>470.0</ele><time>2026-04-18T12:07:00.748Z</time></trkpt><trkpt lat="43.2767267" lon="10.8054883"><ele>469.99999999999994</ele><time>2026-04-18T12:07:01.75Z</time></trkpt><trkpt lat="43.27662" lon="10.8055617"><ele>470.0</ele><time>2026-04-18T12:07:02.748Z</time></trkpt><trkpt lat="43.2765033" lon="10.8055817"><ele>469.0</ele><time>2026-04-18T12:07:03.743Z</time></trkpt><trkpt lat="43.2764" lon="10.8056217"><ele>468.0</ele><time>2026-04-18T12:07:04.745Z</time></trkpt><trkpt lat="43.2762933" lon="10.8056517"><ele>467.0</ele><time>2026-04-18T12:07:05.745Z</time></trkpt><trkpt lat="43.2761933" lon="10.8056517"><ele>466.0</ele><time>2026-04-18T12:07:06.745Z</time></trkpt><trkpt lat="43.27612" lon="10.805565"><ele>465.0</ele><time>2026-04-18T12:07:07.746Z</time></trkpt><trkpt lat="43.2760367" lon="10.805565"><ele>465.0</ele><time>2026-04-18T12:07:08.744Z</time></trkpt><trkpt lat="43.2759633" lon="10.80552"><ele>465.0</ele><time>2026-04-18T12:07:09.743Z</time></trkpt><trkpt lat="43.2759283" lon="10.8054317"><ele>465.0</ele><time>2026-04-18T12:07:10.745Z</time></trkpt><trkpt lat="43.2758883" lon="10.8053433"><ele>465.0</ele><time>2026-04-18T12:07:11.743Z</time></trkpt><trkpt lat="43.275835" lon="10.80527"><ele>465.0</ele><time>2026-04-18T12:07:12.745Z</time></trkpt><trkpt lat="43.2757917" lon="10.8051917"><ele>465.0</ele><time>2026-04-18T12:07:13.746Z</time></trkpt><trkpt lat="43.27574" lon="10.8051117"><ele>465.0</ele><time>2026-04-18T12:07:14.748Z</time></trkpt><trkpt lat="43.275675" lon="10.8050433"><ele>465.0</ele><time>2026-04-18T12:07:15.743Z</time></trkpt><trkpt lat="43.2755983" lon="10.8049917"><ele>465.0</ele><time>2026-04-18T12:07:16.748Z</time></trkpt><trkpt lat="43.2755117" lon="10.8049333"><ele>465.0</ele><time>2026-04-18T12:07:17.744Z</time></trkpt><trkpt lat="43.2754067" lon="10.8049317"><ele>465.0</ele><time>2026-04-18T12:07:18.74Z</time></trkpt><trkpt lat="43.2752883" lon="10.80489"><ele>465.0</ele><time>2026-04-18T12:07:19.74Z</time></trkpt><trkpt lat="43.2751917" lon="10.8049433"><ele>465.0</ele><time>2026-04-18T12:07:20.755Z</time></trkpt><trkpt lat="43.2750683" lon="10.8049617"><ele>465.0</ele><time>2026-04-18T12:07:21.742Z</time></trkpt><trkpt lat="43.275005" lon="10.8050483"><ele>465.0</ele><time>2026-04-18T12:07:22.742Z</time></trkpt><trkpt lat="43.274825" lon="10.80504"><ele>463.0</ele><time>2026-04-18T12:07:23.742Z</time></trkpt><trkpt lat="43.2747017" lon="10.805045"><ele>461.0</ele><time>2026-04-18T12:07:24.74Z</time></trkpt><trkpt lat="43.2745783" lon="10.8051083"><ele>459.0</ele><time>2026-04-18T12:07:25.741Z</time></trkpt><trkpt lat="43.2744633" lon="10.8051483"><ele>457.0</ele><time>2026-04-18T12:07:26.749Z</time></trkpt><trkpt lat="43.2743433" lon="10.8051783"><ele>455.0</ele><time>2026-04-18T12:07:27.745Z</time></trkpt><trkpt lat="43.274205" lon="10.8052217"><ele>453.0</ele><time>2026-04-18T12:07:28.745Z</time></trkpt><trkpt lat="43.2740483" lon="10.80526"><ele>451.0</ele><time>2026-04-18T12:07:29.744Z</time></trkpt><trkpt lat="43.2738883" lon="10.8052817"><ele>451.0</ele><time>2026-04-18T12:07:30.746Z</time></trkpt><trkpt lat="43.2737317" lon="10.8052867"><ele>451.0</ele><time>2026-04-18T12:07:31.742Z</time></trkpt><trkpt lat="43.27361" lon="10.8052933"><ele>451.0</ele><time>2026-04-18T12:07:32.745Z</time></trkpt><trkpt lat="43.2734617" lon="10.8053117"><ele>451.0</ele><time>2026-04-18T12:07:33.747Z</time></trkpt><trkpt lat="43.2733067" lon="10.805325"><ele>451.0</ele><time>2026-04-18T12:07:34.744Z</time></trkpt><trkpt lat="43.273155" lon="10.8053217"><ele>451.0</ele><time>2026-04-18T12:07:35.744Z</time></trkpt><trkpt lat="43.273" lon="10.8053283"><ele>451.0</ele><time>2026-04-18T12:07:36.752Z</time></trkpt><trkpt lat="43.27284" lon="10.8053517"><ele>450.75</ele><time>2026-04-18T12:07:37.749Z</time></trkpt><trkpt lat="43.2726867" lon="10.8053783"><ele>450.5</ele><time>2026-04-18T12:07:38.747Z</time></trkpt><trkpt lat="43.2725233" lon="10.8054233"><ele>450.25</ele><time>2026-04-18T12:07:39.748Z</time></trkpt><trkpt lat="43.272415" lon="10.8054567"><ele>450.0</ele><time>2026-04-18T12:07:40.746Z</time></trkpt><trkpt lat="43.2722967" lon="10.8055433"><ele>450.0</ele><time>2026-04-18T12:07:41.742Z</time></trkpt><trkpt lat="43.2721267" lon="10.8055867"><ele>450.0</ele><time>2026-04-18T12:07:42.747Z</time></trkpt><trkpt lat="43.2719767" lon="10.8056733"><ele>450.0</ele><time>2026-04-18T12:07:43.749Z</time></trkpt><trkpt lat="43.2719433" lon="10.8058033"><ele>450.0</ele><time>2026-04-18T12:07:44.751Z</time></trkpt><trkpt lat="43.2717833" lon="10.805715"><ele>450.0</ele><time>2026-04-18T12:07:45.747Z</time></trkpt><trkpt lat="43.2716033" lon="10.80574"><ele>450.0</ele><time>2026-04-18T12:07:46.745Z</time></trkpt><trkpt lat="43.2713867" lon="10.8057883"><ele>450.0</ele><time>2026-04-18T12:07:47.75Z</time></trkpt><trkpt lat="43.2712283" lon="10.8058083"><ele>450.25</ele><time>2026-04-18T12:07:48.744Z</time></trkpt><trkpt lat="43.27111" lon="10.8057917"><ele>450.5</ele><time>2026-04-18T12:07:49.745Z</time></trkpt><trkpt lat="43.270985" lon="10.80579"><ele>450.75</ele><time>2026-04-18T12:07:50.745Z</time></trkpt><trkpt lat="43.2708067" lon="10.8058233"><ele>451.0</ele><time>2026-04-18T12:07:51.744Z</time></trkpt><trkpt lat="43.2706483" lon="10.8058483"><ele>451.33333333333337</ele><time>2026-04-18T12:07:52.75Z</time></trkpt><trkpt lat="43.27049" lon="10.8058667"><ele>451.66666666666663</ele><time>2026-04-18T12:07:53.747Z</time></trkpt><trkpt lat="43.270335" lon="10.8059017"><ele>452.0</ele><time>2026-04-18T12:07:54.745Z</time></trkpt><trkpt lat="43.2701733" lon="10.8059267"><ele>452.0</ele><time>2026-04-18T12:07:55.741Z</time></trkpt><trkpt lat="43.2700117" lon="10.8059567"><ele>452.0</ele><time>2026-04-18T12:07:56.744Z</time></trkpt><trkpt lat="43.2698617" lon="10.8059583"><ele>452.0</ele><time>2026-04-18T12:07:57.741Z</time></trkpt><trkpt lat="43.2697517" lon="10.80598"><ele>452.0</ele><time>2026-04-18T12:07:58.742Z</time></trkpt><trkpt lat="43.2696167" lon="10.80596"><ele>453.25</ele><time>2026-04-18T12:07:59.741Z</time></trkpt><trkpt lat="43.2694983" lon="10.8059083"><ele>454.5</ele><time>2026-04-18T12:08:00.745Z</time></trkpt><trkpt lat="43.2694083" lon="10.80589"><ele>455.75</ele><time>2026-04-18T12:08:01.746Z</time></trkpt><trkpt lat="43.2692717" lon="10.8057333"><ele>457.0</ele><time>2026-04-18T12:08:03.505Z</time></trkpt><trkpt lat="43.2691683" lon="10.8056867"><ele>457.0</ele><time>2026-04-18T12:08:04.752Z</time></trkpt><trkpt lat="43.2690667" lon="10.805625"><ele>457.0</ele><time>2026-04-18T12:08:05.747Z</time></trkpt><trkpt lat="43.2689533" lon="10.8055983"><ele>457.0</ele><time>2026-04-18T12:08:06.749Z</time></trkpt><trkpt lat="43.2688267" lon="10.8056"><ele>457.0</ele><time>2026-04-18T12:08:07.744Z</time></trkpt><trkpt lat="43.26869" lon="10.8056217"><ele>457.0</ele><time>2026-04-18T12:08:08.748Z</time></trkpt><trkpt lat="43.26855" lon="10.8056517"><ele>457.0</ele><time>2026-04-18T12:08:09.749Z</time></trkpt><trkpt lat="43.2684133" lon="10.8056667"><ele>457.0</ele><time>2026-04-18T12:08:10.747Z</time></trkpt><trkpt lat="43.2682767" lon="10.8056683"><ele>457.0</ele><time>2026-04-18T12:08:11.747Z</time></trkpt><trkpt lat="43.2681367" lon="10.8056517"><ele>457.33333333333337</ele><time>2026-04-18T12:08:12.743Z</time></trkpt><trkpt lat="43.267995" lon="10.8056167"><ele>457.66666666666663</ele><time>2026-04-18T12:08:13.749Z</time></trkpt><trkpt lat="43.2678533" lon="10.805565"><ele>458.0</ele><time>2026-04-18T12:08:14.742Z</time></trkpt><trkpt lat="43.26768" lon="10.8055317"><ele>458.0</ele><time>2026-04-18T12:08:15.747Z</time></trkpt><trkpt lat="43.267555" lon="10.805445"><ele>458.0</ele><time>2026-04-18T12:08:16.745Z</time></trkpt><trkpt lat="43.26742" lon="10.8054133"><ele>458.0</ele><time>2026-04-18T12:08:17.744Z</time></trkpt><trkpt lat="43.2673433" lon="10.8053183"><ele>458.0</ele><time>2026-04-18T12:08:18.748Z</time></trkpt><trkpt lat="43.2672167" lon="10.805245"><ele>457.25</ele><time>2026-04-18T12:08:19.743Z</time></trkpt><trkpt lat="43.2670867" lon="10.8052133"><ele>456.5</ele><time>2026-04-18T12:08:20.754Z</time></trkpt><trkpt lat="43.2669483" lon="10.805225"><ele>455.75</ele><time>2026-04-18T12:08:21.751Z</time></trkpt><trkpt lat="43.2668233" lon="10.805125"><ele>455.0</ele><time>2026-04-18T12:08:22.747Z</time></trkpt><trkpt lat="43.26668" lon="10.8050433"><ele>455.0</ele><time>2026-04-18T12:08:23.744Z</time></trkpt><trkpt lat="43.2665383" lon="10.8049333"><ele>455.0</ele><time>2026-04-18T12:08:24.747Z</time></trkpt><trkpt lat="43.266355" lon="10.8048517"><ele>455.0</ele><time>2026-04-18T12:08:25.746Z</time></trkpt><trkpt lat="43.266205" lon="10.8047533"><ele>456.25</ele><time>2026-04-18T12:08:26.749Z</time></trkpt><trkpt lat="43.2660683" lon="10.8046367"><ele>457.5</ele><time>2026-04-18T12:08:27.744Z</time></trkpt><trkpt lat="43.265995" lon="10.804485"><ele>458.75</ele><time>2026-04-18T12:08:28.743Z</time></trkpt><trkpt lat="43.2659417" lon="10.8043483"><ele>460.0</ele><time>2026-04-18T12:08:29.741Z</time></trkpt><trkpt lat="43.2658417" lon="10.8042417"><ele>460.0</ele><time>2026-04-18T12:08:30.742Z</time></trkpt><trkpt lat="43.2657733" lon="10.804215"><ele>460.0</ele><time>2026-04-18T12:08:32.744Z</time></trkpt><trkpt lat="43.265635" lon="10.8040767"><ele>460.0</ele><time>2026-04-18T12:08:33.744Z</time></trkpt><trkpt lat="43.2655183" lon="10.80404"><ele>460.0</ele><time>2026-04-18T12:08:34.748Z</time></trkpt><trkpt lat="43.265395" lon="10.8039317"><ele>462.6</ele><time>2026-04-18T12:08:35.743Z</time></trkpt><trkpt lat="43.2654" lon="10.803785"><ele>465.2</ele><time>2026-04-18T12:08:36.745Z</time></trkpt><trkpt lat="43.2653417" lon="10.8036533"><ele>467.79999999999995</ele><time>2026-04-18T12:08:38.756Z</time></trkpt><trkpt lat="43.26526" lon="10.8035583"><ele>470.4</ele><time>2026-04-18T12:08:39.743Z</time></trkpt><trkpt lat="43.2651783" lon="10.8035217"><ele>473.0</ele><time>2026-04-18T12:08:40.745Z</time></trkpt><trkpt lat="43.2650833" lon="10.8035417"><ele>473.0</ele><time>2026-04-18T12:08:41.749Z</time></trkpt><trkpt lat="43.264945" lon="10.8035233"><ele>473.0</ele><time>2026-04-18T12:08:42.745Z</time></trkpt><trkpt lat="43.2648117" lon="10.80355"><ele>473.0</ele><time>2026-04-18T12:08:43.743Z</time></trkpt><trkpt lat="43.2646583" lon="10.8035817"><ele>473.0</ele><time>2026-04-18T12:08:44.743Z</time></trkpt><trkpt lat="43.2644883" lon="10.8036083"><ele>474.25</ele><time>2026-04-18T12:08:45.747Z</time></trkpt><trkpt lat="43.2643467" lon="10.8035883"><ele>475.5</ele><time>2026-04-18T12:08:46.746Z</time></trkpt><trkpt lat="43.264205" lon="10.803605"><ele>476.75</ele><time>2026-04-18T12:08:47.751Z</time></trkpt><trkpt lat="43.2640917" lon="10.8035167"><ele>478.0</ele><time>2026-04-18T12:08:48.746Z</time></trkpt><trkpt lat="43.2639767" lon="10.8034083"><ele>474.75</ele><time>2026-04-18T12:08:49.749Z</time></trkpt><trkpt lat="43.263845" lon="10.8033217"><ele>471.5</ele><time>2026-04-18T12:08:50.745Z</time></trkpt><trkpt lat="43.2637817" lon="10.8031967"><ele>468.25</ele><time>2026-04-18T12:08:51.747Z</time></trkpt><trkpt lat="43.2636883" lon="10.8030967"><ele>465.0</ele><time>2026-04-18T12:08:52.742Z</time></trkpt><trkpt lat="43.2636117" lon="10.80295"><ele>465.0</ele><time>2026-04-18T12:08:53.749Z</time></trkpt><trkpt lat="43.2635933" lon="10.8028067"><ele>465.0</ele><time>2026-04-18T12:08:54.748Z</time></trkpt><trkpt lat="43.2635383" lon="10.8026333"><ele>465.0</ele><time>2026-04-18T12:08:55.749Z</time></trkpt><trkpt lat="43.2635683" lon="10.8024667"><ele>465.0</ele><time>2026-04-18T12:08:56.752Z</time></trkpt><trkpt lat="43.2636067" lon="10.802305"><ele>465.25</ele><time>2026-04-18T12:08:57.752Z</time></trkpt><trkpt lat="43.2636317" lon="10.8020967"><ele>465.5</ele><time>2026-04-18T12:08:58.744Z</time></trkpt><trkpt lat="43.2636483" lon="10.8018583"><ele>465.75</ele><time>2026-04-18T12:08:59.747Z</time></trkpt><trkpt lat="43.2636783" lon="10.8016983"><ele>466.0</ele><time>2026-04-18T12:09:00.746Z</time></trkpt><trkpt lat="43.2637667" lon="10.80149"><ele>466.0</ele><time>2026-04-18T12:09:02.748Z</time></trkpt><trkpt lat="43.263795" lon="10.8013283"><ele>466.0</ele><time>2026-04-18T12:09:03.746Z</time></trkpt><trkpt lat="43.263835" lon="10.801215"><ele>466.0</ele><time>2026-04-18T12:09:04.747Z</time></trkpt><trkpt lat="43.2638633" lon="10.8011017"><ele>466.0</ele><time>2026-04-18T12:09:05.752Z</time></trkpt><trkpt lat="43.2638767" lon="10.8009917"><ele>466.0</ele><time>2026-04-18T12:09:06.744Z</time></trkpt><trkpt lat="43.2638733" lon="10.8008933"><ele>465.25</ele><time>2026-04-18T12:09:07.748Z</time></trkpt><trkpt lat="43.26385" lon="10.8007917"><ele>464.5</ele><time>2026-04-18T12:09:08.747Z</time></trkpt><trkpt lat="43.2637833" lon="10.800685"><ele>463.75</ele><time>2026-04-18T12:09:09.744Z</time></trkpt><trkpt lat="43.2636633" lon="10.8005917"><ele>463.0</ele><time>2026-04-18T12:09:10.742Z</time></trkpt><trkpt lat="43.2635417" lon="10.8004867"><ele>463.0</ele><time>2026-04-18T12:09:11.743Z</time></trkpt><trkpt lat="43.2634033" lon="10.800365"><ele>463.0</ele><time>2026-04-18T12:09:12.745Z</time></trkpt><trkpt lat="43.2632617" lon="10.80024"><ele>463.0</ele><time>2026-04-18T12:09:13.742Z</time></trkpt><trkpt lat="43.2631333" lon="10.800105"><ele>464.5</ele><time>2026-04-18T12:09:14.748Z</time></trkpt><trkpt lat="43.263015" lon="10.79998"><ele>466.0</ele><time>2026-04-18T12:09:15.743Z</time></trkpt><trkpt lat="43.2629017" lon="10.7998617"><ele>467.5</ele><time>2026-04-18T12:09:16.745Z</time></trkpt><trkpt lat="43.2627933" lon="10.7997517"><ele>469.0</ele><time>2026-04-18T12:09:17.745Z</time></trkpt><trkpt lat="43.2627033" lon="10.799655"><ele>469.0</ele><time>2026-04-18T12:09:18.745Z</time></trkpt><trkpt lat="43.26262" lon="10.79958"><ele>469.0</ele><time>2026-04-18T12:09:19.743Z</time></trkpt><trkpt lat="43.2625433" lon="10.79952"><ele>469.0</ele><time>2026-04-18T12:09:20.743Z</time></trkpt><trkpt lat="43.2624717" lon="10.7994433"><ele>469.0</ele><time>2026-04-18T12:09:21.74Z</time></trkpt><trkpt lat="43.2624017" lon="10.7993467"><ele>469.0</ele><time>2026-04-18T12:09:22.741Z</time></trkpt><trkpt lat="43.26234" lon="10.7992267"><ele>470.5</ele><time>2026-04-18T12:09:23.742Z</time></trkpt><trkpt lat="43.2622883" lon="10.7990683"><ele>472.0</ele><time>2026-04-18T12:09:24.744Z</time></trkpt><trkpt lat="43.262235" lon="10.7988967"><ele>473.5</ele><time>2026-04-18T12:09:25.746Z</time></trkpt><trkpt lat="43.262195" lon="10.79872"><ele>475.0</ele><time>2026-04-18T12:09:26.751Z</time></trkpt><trkpt lat="43.26216" lon="10.79855"><ele>478.5</ele><time>2026-04-18T12:09:27.742Z</time></trkpt><trkpt lat="43.262125" lon="10.79839"><ele>482.0</ele><time>2026-04-18T12:09:28.746Z</time></trkpt><trkpt lat="43.2620883" lon="10.798235"><ele>485.5</ele><time>2026-04-18T12:09:29.747Z</time></trkpt><trkpt lat="43.2620533" lon="10.7980867"><ele>489.0</ele><time>2026-04-18T12:09:30.743Z</time></trkpt><trkpt lat="43.2620217" lon="10.7979483"><ele>489.0</ele><time>2026-04-18T12:09:31.745Z</time></trkpt><trkpt lat="43.2619967" lon="10.7978083"><ele>489.0</ele><time>2026-04-18T12:09:32.746Z</time></trkpt><trkpt lat="43.2619667" lon="10.797675"><ele>489.0</ele><time>2026-04-18T12:09:33.742Z</time></trkpt><trkpt lat="43.2619333" lon="10.7975483"><ele>489.0</ele><time>2026-04-18T12:09:34.742Z</time></trkpt><trkpt lat="43.2618983" lon="10.79744"><ele>489.0</ele><time>2026-04-18T12:09:35.743Z</time></trkpt><trkpt lat="43.2618667" lon="10.7973467"><ele>488.6666666666667</ele><time>2026-04-18T12:09:36.749Z</time></trkpt><trkpt lat="43.261845" lon="10.7972617"><ele>488.33333333333337</ele><time>2026-04-18T12:09:37.743Z</time></trkpt><trkpt lat="43.26181" lon="10.7971017"><ele>488.0</ele><time>2026-04-18T12:09:39.747Z</time></trkpt><trkpt lat="43.26179" lon="10.797005"><ele>487.6666666666667</ele><time>2026-04-18T12:09:40.745Z</time></trkpt><trkpt lat="43.2617667" lon="10.7968933"><ele>487.33333333333337</ele><time>2026-04-18T12:09:41.746Z</time></trkpt><trkpt lat="43.2617333" lon="10.796765"><ele>487.0</ele><time>2026-04-18T12:09:42.747Z</time></trkpt><trkpt lat="43.2616817" lon="10.7966117"><ele>485.25</ele><time>2026-04-18T12:09:43.747Z</time></trkpt><trkpt lat="43.26162" lon="10.7964383"><ele>483.5</ele><time>2026-04-18T12:09:44.746Z</time></trkpt><trkpt lat="43.2615583" lon="10.796255"><ele>481.75</ele><time>2026-04-18T12:09:45.743Z</time></trkpt><trkpt lat="43.2615017" lon="10.7960783"><ele>480.0</ele><time>2026-04-18T12:09:46.742Z</time></trkpt><trkpt lat="43.261445" lon="10.7959033"><ele>479.0</ele><time>2026-04-18T12:09:47.747Z</time></trkpt><trkpt lat="43.261385" lon="10.7957233"><ele>478.0</ele><time>2026-04-18T12:09:48.749Z</time></trkpt><trkpt lat="43.2613167" lon="10.795525"><ele>477.0</ele><time>2026-04-18T12:09:49.746Z</time></trkpt><trkpt lat="43.2612333" lon="10.7953217"><ele>474.33333333333337</ele><time>2026-04-18T12:09:50.747Z</time></trkpt><trkpt lat="43.261135" lon="10.79513"><ele>471.6666666666667</ele><time>2026-04-18T12:09:51.745Z</time></trkpt><trkpt lat="43.2610317" lon="10.7949417"><ele>469.0</ele><time>2026-04-18T12:09:52.744Z</time></trkpt><trkpt lat="43.260925" lon="10.794755"><ele>469.0</ele><time>2026-04-18T12:09:53.746Z</time></trkpt><trkpt lat="43.2608367" lon="10.794575"><ele>469.0</ele><time>2026-04-18T12:09:54.743Z</time></trkpt><trkpt lat="43.2607467" lon="10.7944033"><ele>469.0</ele><time>2026-04-18T12:09:55.748Z</time></trkpt><trkpt lat="43.26066" lon="10.79424"><ele>466.5</ele><time>2026-04-18T12:09:56.744Z</time></trkpt><trkpt lat="43.2605817" lon="10.7940833"><ele>464.0</ele><time>2026-04-18T12:09:57.744Z</time></trkpt><trkpt lat="43.2605067" lon="10.79391"><ele>461.5</ele><time>2026-04-18T12:09:58.742Z</time></trkpt><trkpt lat="43.26045" lon="10.7936983"><ele>459.0</ele><time>2026-04-18T12:09:59.745Z</time></trkpt><trkpt lat="43.2604" lon="10.793475"><ele>459.0</ele><time>2026-04-18T12:10:00.748Z</time></trkpt><trkpt lat="43.2603417" lon="10.7932633"><ele>459.0</ele><time>2026-04-18T12:10:01.742Z</time></trkpt><trkpt lat="43.26027" lon="10.7930667"><ele>459.0</ele><time>2026-04-18T12:10:02.746Z</time></trkpt><trkpt lat="43.26019" lon="10.792875"><ele>459.0</ele><time>2026-04-18T12:10:03.744Z</time></trkpt><trkpt lat="43.2601" lon="10.7926733"><ele>459.0</ele><time>2026-04-18T12:10:04.744Z</time></trkpt><trkpt lat="43.2599967" lon="10.792475"><ele>459.0</ele><time>2026-04-18T12:10:05.743Z</time></trkpt><trkpt lat="43.259895" lon="10.7922883"><ele>458.66666666666663</ele><time>2026-04-18T12:10:06.746Z</time></trkpt><trkpt lat="43.25979" lon="10.7921017"><ele>458.3333333333333</ele><time>2026-04-18T12:10:07.745Z</time></trkpt><trkpt lat="43.2596717" lon="10.7919117"><ele>458.0</ele><time>2026-04-18T12:10:08.749Z</time></trkpt><trkpt lat="43.2595533" lon="10.7917283"><ele>458.0</ele><time>2026-04-18T12:10:09.746Z</time></trkpt><trkpt lat="43.2594367" lon="10.791545"><ele>458.0</ele><time>2026-04-18T12:10:10.742Z</time></trkpt><trkpt lat="43.2593183" lon="10.7913467"><ele>458.0</ele><time>2026-04-18T12:10:11.746Z</time></trkpt><trkpt lat="43.2592017" lon="10.79113"><ele>458.0</ele><time>2026-04-18T12:10:12.745Z</time></trkpt><trkpt lat="43.2590933" lon="10.7909133"><ele>458.0</ele><time>2026-04-18T12:10:13.746Z</time></trkpt><trkpt lat="43.2590033" lon="10.7907167"><ele>458.0</ele><time>2026-04-18T12:10:14.746Z</time></trkpt><trkpt lat="43.25893" lon="10.7905483"><ele>457.75</ele><time>2026-04-18T12:10:15.749Z</time></trkpt><trkpt lat="43.2588583" lon="10.79038"><ele>457.5</ele><time>2026-04-18T12:10:16.745Z</time></trkpt><trkpt lat="43.2587867" lon="10.790205"><ele>457.25</ele><time>2026-04-18T12:10:17.745Z</time></trkpt><trkpt lat="43.25871" lon="10.7900217"><ele>457.0</ele><time>2026-04-18T12:10:18.743Z</time></trkpt><trkpt lat="43.25864" lon="10.7898267"><ele>457.0</ele><time>2026-04-18T12:10:19.742Z</time></trkpt><trkpt lat="43.2585867" lon="10.7896283"><ele>457.0</ele><time>2026-04-18T12:10:20.748Z</time></trkpt><trkpt lat="43.258545" lon="10.789435"><ele>457.0</ele><time>2026-04-18T12:10:21.747Z</time></trkpt><trkpt lat="43.2585033" lon="10.789235"><ele>456.33333333333337</ele><time>2026-04-18T12:10:22.747Z</time></trkpt><trkpt lat="43.2584667" lon="10.789025"><ele>455.66666666666663</ele><time>2026-04-18T12:10:23.747Z</time></trkpt><trkpt lat="43.2584433" lon="10.78882"><ele>455.0</ele><time>2026-04-18T12:10:24.745Z</time></trkpt><trkpt lat="43.2584267" lon="10.7886233"><ele>455.0</ele><time>2026-04-18T12:10:25.745Z</time></trkpt><trkpt lat="43.2584117" lon="10.7884217"><ele>455.0</ele><time>2026-04-18T12:10:26.748Z</time></trkpt><trkpt lat="43.2584017" lon="10.7882067"><ele>455.0</ele><time>2026-04-18T12:10:27.744Z</time></trkpt><trkpt lat="43.258395" lon="10.7880017"><ele>455.0</ele><time>2026-04-18T12:10:28.744Z</time></trkpt><trkpt lat="43.2583917" lon="10.787825"><ele>455.0</ele><time>2026-04-18T12:10:29.745Z</time></trkpt><trkpt lat="43.25839" lon="10.7876717"><ele>455.0</ele><time>2026-04-18T12:10:30.751Z</time></trkpt><trkpt lat="43.2583817" lon="10.7875383"><ele>455.0</ele><time>2026-04-18T12:10:31.746Z</time></trkpt><trkpt lat="43.2583617" lon="10.78742"><ele>455.0</ele><time>2026-04-18T12:10:32.746Z</time></trkpt><trkpt lat="43.258325" lon="10.7873183"><ele>455.5</ele><time>2026-04-18T12:10:33.744Z</time></trkpt><trkpt lat="43.2582683" lon="10.787225"><ele>456.0</ele><time>2026-04-18T12:10:34.745Z</time></trkpt><trkpt lat="43.25818" lon="10.7871433"><ele>456.5</ele><time>2026-04-18T12:10:35.745Z</time></trkpt><trkpt lat="43.2580467" lon="10.7870433"><ele>457.0</ele><time>2026-04-18T12:10:36.745Z</time></trkpt><trkpt lat="43.2579083" lon="10.786935"><ele>454.0</ele><time>2026-04-18T12:10:37.751Z</time></trkpt><trkpt lat="43.2577717" lon="10.78682"><ele>451.0</ele><time>2026-04-18T12:10:38.749Z</time></trkpt><trkpt lat="43.257645" lon="10.7866967"><ele>448.0</ele><time>2026-04-18T12:10:39.748Z</time></trkpt><trkpt lat="43.257535" lon="10.78657"><ele>448.0</ele><time>2026-04-18T12:10:40.745Z</time></trkpt><trkpt lat="43.257435" lon="10.7864467"><ele>448.0</ele><time>2026-04-18T12:10:41.742Z</time></trkpt><trkpt lat="43.2573433" lon="10.7863333"><ele>448.0</ele><time>2026-04-18T12:10:42.747Z</time></trkpt><trkpt lat="43.2572617" lon="10.786225"><ele>448.0</ele><time>2026-04-18T12:10:43.743Z</time></trkpt><trkpt lat="43.2571967" lon="10.78611"><ele>445.59999999999997</ele><time>2026-04-18T12:10:44.745Z</time></trkpt><trkpt lat="43.2571567" lon="10.785995"><ele>443.19999999999993</ele><time>2026-04-18T12:10:45.747Z</time></trkpt><trkpt lat="43.257135" lon="10.7858717"><ele>440.8</ele><time>2026-04-18T12:10:46.75Z</time></trkpt><trkpt lat="43.25714" lon="10.7857167"><ele>438.4</ele><time>2026-04-18T12:10:47.745Z</time></trkpt><trkpt lat="43.25715" lon="10.7855567"><ele>436.0</ele><time>2026-04-18T12:10:48.746Z</time></trkpt><trkpt lat="43.2571517" lon="10.7854033"><ele>436.0</ele><time>2026-04-18T12:10:49.746Z</time></trkpt><trkpt lat="43.2571317" lon="10.785255"><ele>436.0</ele><time>2026-04-18T12:10:50.758Z</time></trkpt><trkpt lat="43.2570767" lon="10.7851017"><ele>436.0</ele><time>2026-04-18T12:10:51.747Z</time></trkpt><trkpt lat="43.25701" lon="10.78495"><ele>436.0</ele><time>2026-04-18T12:10:52.744Z</time></trkpt><trkpt lat="43.2569467" lon="10.78481"><ele>437.33333333333337</ele><time>2026-04-18T12:10:53.748Z</time></trkpt><trkpt lat="43.256895" lon="10.7846517"><ele>438.66666666666663</ele><time>2026-04-18T12:10:54.744Z</time></trkpt><trkpt lat="43.25685" lon="10.7844417"><ele>440.0</ele><time>2026-04-18T12:10:55.743Z</time></trkpt><trkpt lat="43.2568117" lon="10.78421"><ele>441.0</ele><time>2026-04-18T12:10:56.745Z</time></trkpt><trkpt lat="43.2567733" lon="10.7839933"><ele>442.0</ele><time>2026-04-18T12:10:57.746Z</time></trkpt><trkpt lat="43.25674" lon="10.783795"><ele>443.0</ele><time>2026-04-18T12:10:58.752Z</time></trkpt><trkpt lat="43.2567183" lon="10.7836233"><ele>444.0</ele><time>2026-04-18T12:10:59.745Z</time></trkpt><trkpt lat="43.2567033" lon="10.7834717"><ele>445.0</ele><time>2026-04-18T12:11:00.746Z</time></trkpt><trkpt lat="43.256685" lon="10.78335"><ele>446.0</ele><time>2026-04-18T12:11:01.744Z</time></trkpt><trkpt lat="43.2566567" lon="10.78324"><ele>447.0</ele><time>2026-04-18T12:11:02.747Z</time></trkpt><trkpt lat="43.2566117" lon="10.7831417"><ele>448.0</ele><time>2026-04-18T12:11:03.751Z</time></trkpt><trkpt lat="43.2565467" lon="10.78306"><ele>449.0</ele><time>2026-04-18T12:11:04.749Z</time></trkpt><trkpt lat="43.2564417" lon="10.7830333"><ele>449.5</ele><time>2026-04-18T12:11:05.749Z</time></trkpt><trkpt lat="43.2563233" lon="10.7830283"><ele>450.0</ele><time>2026-04-18T12:11:06.744Z</time></trkpt><trkpt lat="43.2561867" lon="10.7830267"><ele>450.5</ele><time>2026-04-18T12:11:07.746Z</time></trkpt><trkpt lat="43.25605" lon="10.7830167"><ele>451.0</ele><time>2026-04-18T12:11:08.745Z</time></trkpt><trkpt lat="43.25593" lon="10.783"><ele>451.0</ele><time>2026-04-18T12:11:09.743Z</time></trkpt><trkpt lat="43.2558267" lon="10.7829583"><ele>451.0</ele><time>2026-04-18T12:11:10.747Z</time></trkpt><trkpt lat="43.25573" lon="10.7828867"><ele>451.0</ele><time>2026-04-18T12:11:11.743Z</time></trkpt><trkpt lat="43.25563" lon="10.7827833"><ele>451.0</ele><time>2026-04-18T12:11:12.743Z</time></trkpt><trkpt lat="43.2555267" lon="10.78266"><ele>451.0</ele><time>2026-04-18T12:11:13.743Z</time></trkpt><trkpt lat="43.2554483" lon="10.7825383"><ele>451.0</ele><time>2026-04-18T12:11:14.746Z</time></trkpt><trkpt lat="43.25538" lon="10.7824217"><ele>451.0</ele><time>2026-04-18T12:11:15.743Z</time></trkpt><trkpt lat="43.2553417" lon="10.7823033"><ele>451.0</ele><time>2026-04-18T12:11:16.749Z</time></trkpt><trkpt lat="43.25532" lon="10.782165"><ele>451.0</ele><time>2026-04-18T12:11:17.749Z</time></trkpt><trkpt lat="43.2552967" lon="10.781995"><ele>454.0</ele><time>2026-04-18T12:11:18.749Z</time></trkpt><trkpt lat="43.255265" lon="10.7818167"><ele>457.0</ele><time>2026-04-18T12:11:19.747Z</time></trkpt><trkpt lat="43.255215" lon="10.7816617"><ele>460.0</ele><time>2026-04-18T12:11:20.748Z</time></trkpt><trkpt lat="43.255145" lon="10.7815283"><ele>463.0</ele><time>2026-04-18T12:11:21.747Z</time></trkpt><trkpt lat="43.2550567" lon="10.7813933"><ele>463.0</ele><time>2026-04-18T12:11:22.746Z</time></trkpt><trkpt lat="43.2549533" lon="10.7812733"><ele>463.0</ele><time>2026-04-18T12:11:23.742Z</time></trkpt><trkpt lat="43.2548533" lon="10.7811783"><ele>463.0</ele><time>2026-04-18T12:11:24.747Z</time></trkpt><trkpt lat="43.2547633" lon="10.7811117"><ele>463.0</ele><time>2026-04-18T12:11:25.742Z</time></trkpt><trkpt lat="43.25467" lon="10.7810917"><ele>462.0</ele><time>2026-04-18T12:11:26.741Z</time></trkpt><trkpt lat="43.2545733" lon="10.7811067"><ele>460.99999999999994</ele><time>2026-04-18T12:11:27.742Z</time></trkpt><trkpt lat="43.2544667" lon="10.7811533"><ele>459.99999999999994</ele><time>2026-04-18T12:11:28.744Z</time></trkpt><trkpt lat="43.2543567" lon="10.7811917"><ele>459.0</ele><time>2026-04-18T12:11:29.743Z</time></trkpt><trkpt lat="43.25425" lon="10.7812133"><ele>458.0</ele><time>2026-04-18T12:11:30.75Z</time></trkpt><trkpt lat="43.254145" lon="10.7811983"><ele>458.0</ele><time>2026-04-18T12:11:31.751Z</time></trkpt><trkpt lat="43.254025" lon="10.7811417"><ele>458.0</ele><time>2026-04-18T12:11:32.743Z</time></trkpt><trkpt lat="43.2539033" lon="10.781045"><ele>458.0</ele><time>2026-04-18T12:11:33.742Z</time></trkpt><trkpt lat="43.2537917" lon="10.7809367"><ele>458.0</ele><time>2026-04-18T12:11:34.744Z</time></trkpt><trkpt lat="43.2537017" lon="10.7808367"><ele>459.0</ele><time>2026-04-18T12:11:35.745Z</time></trkpt><trkpt lat="43.2536333" lon="10.7807283"><ele>460.0</ele><time>2026-04-18T12:11:36.746Z</time></trkpt><trkpt lat="43.25358" lon="10.7805917"><ele>461.0</ele><time>2026-04-18T12:11:37.748Z</time></trkpt><trkpt lat="43.2535167" lon="10.7804217"><ele>462.0</ele><time>2026-04-18T12:11:38.744Z</time></trkpt><trkpt lat="43.253435" lon="10.7802367"><ele>461.33333333333337</ele><time>2026-04-18T12:11:39.742Z</time></trkpt><trkpt lat="43.2533333" lon="10.7800517"><ele>460.6666666666667</ele><time>2026-04-18T12:11:40.741Z</time></trkpt><trkpt lat="43.253205" lon="10.77987"><ele>460.0</ele><time>2026-04-18T12:11:41.745Z</time></trkpt><trkpt lat="43.253065" lon="10.7796967"><ele>460.0</ele><time>2026-04-18T12:11:42.744Z</time></trkpt><trkpt lat="43.2529183" lon="10.7795383"><ele>460.0</ele><time>2026-04-18T12:11:43.745Z</time></trkpt><trkpt lat="43.2527717" lon="10.7793933"><ele>460.0</ele><time>2026-04-18T12:11:44.75Z</time></trkpt><trkpt lat="43.25263" lon="10.779265"><ele>461.5</ele><time>2026-04-18T12:11:45.745Z</time></trkpt><trkpt lat="43.2525" lon="10.779155"><ele>463.0</ele><time>2026-04-18T12:11:46.744Z</time></trkpt><trkpt lat="43.25238" lon="10.7790517"><ele>464.5</ele><time>2026-04-18T12:11:47.742Z</time></trkpt><trkpt lat="43.2522617" lon="10.778945"><ele>466.0</ele><time>2026-04-18T12:11:48.746Z</time></trkpt><trkpt lat="43.25213" lon="10.7788317"><ele>466.0</ele><time>2026-04-18T12:11:49.743Z</time></trkpt><trkpt lat="43.2519767" lon="10.7787067"><ele>466.0</ele><time>2026-04-18T12:11:50.746Z</time></trkpt><trkpt lat="43.251815" lon="10.778575"><ele>466.0</ele><time>2026-04-18T12:11:51.75Z</time></trkpt><trkpt lat="43.2516533" lon="10.7784567"><ele>467.33333333333337</ele><time>2026-04-18T12:11:52.747Z</time></trkpt><trkpt lat="43.2514983" lon="10.77835"><ele>468.66666666666663</ele><time>2026-04-18T12:11:53.746Z</time></trkpt><trkpt lat="43.2513517" lon="10.778255"><ele>470.0</ele><time>2026-04-18T12:11:54.747Z</time></trkpt><trkpt lat="43.25121" lon="10.7781683"><ele>470.5</ele><time>2026-04-18T12:11:55.742Z</time></trkpt><trkpt lat="43.2510767" lon="10.77809"><ele>471.0</ele><time>2026-04-18T12:11:56.746Z</time></trkpt><trkpt lat="43.250965" lon="10.7780283"><ele>471.5</ele><time>2026-04-18T12:11:57.742Z</time></trkpt><trkpt lat="43.250875" lon="10.7779867"><ele>472.0</ele><time>2026-04-18T12:11:58.741Z</time></trkpt><trkpt lat="43.2507833" lon="10.7779717"><ele>472.0</ele><time>2026-04-18T12:11:59.742Z</time></trkpt><trkpt lat="43.250685" lon="10.7779917"><ele>472.0</ele><time>2026-04-18T12:12:00.743Z</time></trkpt><trkpt lat="43.2505767" lon="10.7780267"><ele>472.0</ele><time>2026-04-18T12:12:01.745Z</time></trkpt><trkpt lat="43.2504633" lon="10.77806"><ele>472.0</ele><time>2026-04-18T12:12:02.745Z</time></trkpt><trkpt lat="43.2503367" lon="10.77808"><ele>472.8</ele><time>2026-04-18T12:12:03.748Z</time></trkpt><trkpt lat="43.2502067" lon="10.7780883"><ele>473.6</ele><time>2026-04-18T12:12:04.743Z</time></trkpt><trkpt lat="43.2500883" lon="10.7780933"><ele>474.40000000000003</ele><time>2026-04-18T12:12:05.745Z</time></trkpt><trkpt lat="43.2499833" lon="10.778095"><ele>475.20000000000005</ele><time>2026-04-18T12:12:06.743Z</time></trkpt><trkpt lat="43.24989" lon="10.77808"><ele>476.0</ele><time>2026-04-18T12:12:07.743Z</time></trkpt><trkpt lat="43.2498083" lon="10.77804"><ele>481.5</ele><time>2026-04-18T12:12:08.742Z</time></trkpt><trkpt lat="43.249735" lon="10.7779633"><ele>487.0</ele><time>2026-04-18T12:12:09.743Z</time></trkpt><trkpt lat="43.2496533" lon="10.7778667"><ele>492.5</ele><time>2026-04-18T12:12:10.742Z</time></trkpt><trkpt lat="43.2495617" lon="10.77774"><ele>498.0</ele><time>2026-04-18T12:12:11.742Z</time></trkpt><trkpt lat="43.2494617" lon="10.7775917"><ele>498.0</ele><time>2026-04-18T12:12:12.746Z</time></trkpt><trkpt lat="43.24936" lon="10.7774483"><ele>498.0</ele><time>2026-04-18T12:12:13.743Z</time></trkpt><trkpt lat="43.2492667" lon="10.777315"><ele>498.0</ele><time>2026-04-18T12:12:14.744Z</time></trkpt><trkpt lat="43.2491967" lon="10.77717"><ele>498.0</ele><time>2026-04-18T12:12:15.742Z</time></trkpt><trkpt lat="43.2491467" lon="10.7770133"><ele>498.0</ele><time>2026-04-18T12:12:16.745Z</time></trkpt><trkpt lat="43.249115" lon="10.776855"><ele>497.99999999999994</ele><time>2026-04-18T12:12:17.742Z</time></trkpt><trkpt lat="43.2490817" lon="10.7767083"><ele>497.99999999999994</ele><time>2026-04-18T12:12:18.745Z</time></trkpt><trkpt lat="43.249035" lon="10.77658"><ele>498.0</ele><time>2026-04-18T12:12:19.748Z</time></trkpt><trkpt lat="43.2489667" lon="10.7764617"><ele>498.0</ele><time>2026-04-18T12:12:20.748Z</time></trkpt><trkpt lat="43.2488733" lon="10.7763517"><ele>499.25</ele><time>2026-04-18T12:12:21.743Z</time></trkpt><trkpt lat="43.2487767" lon="10.7762233"><ele>500.5</ele><time>2026-04-18T12:12:22.748Z</time></trkpt><trkpt lat="43.24869" lon="10.776085"><ele>501.75</ele><time>2026-04-18T12:12:23.747Z</time></trkpt><trkpt lat="43.2486217" lon="10.775955"><ele>503.0</ele><time>2026-04-18T12:12:24.747Z</time></trkpt><trkpt lat="43.2485633" lon="10.7758533"><ele>502.99999999999994</ele><time>2026-04-18T12:12:25.746Z</time></trkpt><trkpt lat="43.2485183" lon="10.775775"><ele>503.0</ele><time>2026-04-18T12:12:26.745Z</time></trkpt><trkpt lat="43.2484583" lon="10.775725"><ele>503.0</ele><time>2026-04-18T12:12:27.743Z</time></trkpt><trkpt lat="43.2483833" lon="10.77574"><ele>503.0</ele><time>2026-04-18T12:12:28.742Z</time></trkpt><trkpt lat="43.2483067" lon="10.7757817"><ele>502.99999999999994</ele><time>2026-04-18T12:12:29.742Z</time></trkpt><trkpt lat="43.2482267" lon="10.77585"><ele>503.0</ele><time>2026-04-18T12:12:30.744Z</time></trkpt><trkpt lat="43.2481417" lon="10.7759017"><ele>503.5</ele><time>2026-04-18T12:12:31.743Z</time></trkpt><trkpt lat="43.248035" lon="10.7759333"><ele>504.0</ele><time>2026-04-18T12:12:32.744Z</time></trkpt><trkpt lat="43.2479167" lon="10.77593"><ele>504.5</ele><time>2026-04-18T12:12:33.745Z</time></trkpt><trkpt lat="43.247795" lon="10.77591"><ele>505.0</ele><time>2026-04-18T12:12:34.742Z</time></trkpt><trkpt lat="43.247675" lon="10.7758967"><ele>505.0</ele><time>2026-04-18T12:12:35.745Z</time></trkpt><trkpt lat="43.2475533" lon="10.7759067"><ele>505.0</ele><time>2026-04-18T12:12:36.745Z</time></trkpt><trkpt lat="43.2474117" lon="10.7759417"><ele>505.0</ele><time>2026-04-18T12:12:37.751Z</time></trkpt><trkpt lat="43.2472783" lon="10.7759883"><ele>505.0</ele><time>2026-04-18T12:12:38.746Z</time></trkpt><trkpt lat="43.2471633" lon="10.7760383"><ele>506.0</ele><time>2026-04-18T12:12:39.743Z</time></trkpt><trkpt lat="43.2470583" lon="10.7760817"><ele>507.0</ele><time>2026-04-18T12:12:40.744Z</time></trkpt><trkpt lat="43.24695" lon="10.7761067"><ele>508.0</ele><time>2026-04-18T12:12:41.745Z</time></trkpt><trkpt lat="43.24685" lon="10.7761083"><ele>509.0</ele><time>2026-04-18T12:12:42.743Z</time></trkpt><trkpt lat="43.2467667" lon="10.7760667"><ele>510.0</ele><time>2026-04-18T12:12:43.743Z</time></trkpt><trkpt lat="43.24667" lon="10.77597"><ele>510.0</ele><time>2026-04-18T12:12:44.743Z</time></trkpt><trkpt lat="43.2465633" lon="10.7758467"><ele>510.0</ele><time>2026-04-18T12:12:45.742Z</time></trkpt><trkpt lat="43.2464483" lon="10.7757083"><ele>510.0</ele><time>2026-04-18T12:12:46.746Z</time></trkpt><trkpt lat="43.24634" lon="10.7755733"><ele>510.0</ele><time>2026-04-18T12:12:47.748Z</time></trkpt><trkpt lat="43.2462367" lon="10.7754167"><ele>510.8</ele><time>2026-04-18T12:12:48.744Z</time></trkpt><trkpt lat="43.246145" lon="10.7752483"><ele>511.6</ele><time>2026-04-18T12:12:49.748Z</time></trkpt><trkpt lat="43.2460783" lon="10.77511"><ele>512.4</ele><time>2026-04-18T12:12:50.75Z</time></trkpt><trkpt lat="43.2460267" lon="10.7750033"><ele>513.2</ele><time>2026-04-18T12:12:51.745Z</time></trkpt><trkpt lat="43.24598" lon="10.774915"><ele>514.0</ele><time>2026-04-18T12:12:52.743Z</time></trkpt><trkpt lat="43.2459267" lon="10.7748683"><ele>512.7142857142857</ele><time>2026-04-18T12:12:53.743Z</time></trkpt><trkpt lat="43.2458617" lon="10.77486"><ele>511.42857142857144</ele><time>2026-04-18T12:12:54.756Z</time></trkpt><trkpt lat="43.245795" lon="10.77489"><ele>510.1428571428571</ele><time>2026-04-18T12:12:55.746Z</time></trkpt><trkpt lat="43.2457333" lon="10.7749217"><ele>508.85714285714283</ele><time>2026-04-18T12:12:56.746Z</time></trkpt><trkpt lat="43.245675" lon="10.7749567"><ele>507.57142857142856</ele><time>2026-04-18T12:12:57.746Z</time></trkpt><trkpt lat="43.2455867" lon="10.7750167"><ele>506.2857142857143</ele><time>2026-04-18T12:12:59.743Z</time></trkpt><trkpt lat="43.2455167" lon="10.7750383"><ele>505.0</ele><time>2026-04-18T12:13:02.748Z</time></trkpt><trkpt lat="43.245445" lon="10.77501"><ele>504.6666666666667</ele><time>2026-04-18T12:13:09.745Z</time></trkpt><trkpt lat="43.2453733" lon="10.7749917"><ele>504.33333333333337</ele><time>2026-04-18T12:13:12.748Z</time></trkpt><trkpt lat="43.2452917" lon="10.7749417"><ele>504.0</ele><time>2026-04-18T12:13:14.748Z</time></trkpt><trkpt lat="43.245185" lon="10.7748883"><ele>503.66666666666663</ele><time>2026-04-18T12:13:16.745Z</time></trkpt><trkpt lat="43.2451083" lon="10.7748467"><ele>503.3333333333333</ele><time>2026-04-18T12:13:17.746Z</time></trkpt><trkpt lat="43.24503" lon="10.7747917"><ele>503.0</ele><time>2026-04-18T12:13:18.743Z</time></trkpt><trkpt lat="43.2449467" lon="10.7747317"><ele>503.0</ele><time>2026-04-18T12:13:19.741Z</time></trkpt><trkpt lat="43.2448483" lon="10.7746617"><ele>503.0</ele><time>2026-04-18T12:13:20.746Z</time></trkpt><trkpt lat="43.2447467" lon="10.774585"><ele>503.0</ele><time>2026-04-18T12:13:21.74Z</time></trkpt><trkpt lat="43.244645" lon="10.7745167"><ele>503.0</ele><time>2026-04-18T12:13:22.747Z</time></trkpt><trkpt lat="43.2445433" lon="10.7744483"><ele>502.59999999999997</ele><time>2026-04-18T12:13:23.745Z</time></trkpt><trkpt lat="43.244445" lon="10.774375"><ele>502.19999999999993</ele><time>2026-04-18T12:13:24.744Z</time></trkpt><trkpt lat="43.2443567" lon="10.77431"><ele>501.8</ele><time>2026-04-18T12:13:25.744Z</time></trkpt><trkpt lat="43.2442683" lon="10.774245"><ele>501.4</ele><time>2026-04-18T12:13:26.746Z</time></trkpt><trkpt lat="43.2441833" lon="10.7741717"><ele>501.0</ele><time>2026-04-18T12:13:27.744Z</time></trkpt><trkpt lat="43.2441133" lon="10.774085"><ele>501.0</ele><time>2026-04-18T12:13:28.745Z</time></trkpt><trkpt lat="43.2440567" lon="10.7739733"><ele>501.0</ele><time>2026-04-18T12:13:29.743Z</time></trkpt><trkpt lat="43.2440183" lon="10.7738417"><ele>501.0</ele><time>2026-04-18T12:13:30.747Z</time></trkpt><trkpt lat="43.243995" lon="10.7737017"><ele>501.0</ele><time>2026-04-18T12:13:31.745Z</time></trkpt><trkpt lat="43.243975" lon="10.7735683"><ele>501.0</ele><time>2026-04-18T12:13:32.748Z</time></trkpt><trkpt lat="43.243945" lon="10.7734417"><ele>501.4</ele><time>2026-04-18T12:13:33.747Z</time></trkpt><trkpt lat="43.2439017" lon="10.7733317"><ele>501.8</ele><time>2026-04-18T12:13:34.745Z</time></trkpt><trkpt lat="43.2438383" lon="10.77324"><ele>502.19999999999993</ele><time>2026-04-18T12:13:35.746Z</time></trkpt><trkpt lat="43.2437717" lon="10.773165"><ele>502.59999999999997</ele><time>2026-04-18T12:13:36.746Z</time></trkpt><trkpt lat="43.2436983" lon="10.773085"><ele>503.0</ele><time>2026-04-18T12:13:37.749Z</time></trkpt><trkpt lat="43.2436417" lon="10.77298"><ele>503.0</ele><time>2026-04-18T12:13:38.744Z</time></trkpt><trkpt lat="43.2436067" lon="10.7728633"><ele>502.99999999999994</ele><time>2026-04-18T12:13:39.745Z</time></trkpt><trkpt lat="43.243585" lon="10.772745"><ele>502.99999999999994</ele><time>2026-04-18T12:13:40.743Z</time></trkpt><trkpt lat="43.2435783" lon="10.7726217"><ele>503.0</ele><time>2026-04-18T12:13:41.745Z</time></trkpt><trkpt lat="43.2435867" lon="10.7724783"><ele>503.0</ele><time>2026-04-18T12:13:42.741Z</time></trkpt><trkpt lat="43.2435983" lon="10.7723"><ele>503.0</ele><time>2026-04-18T12:13:43.741Z</time></trkpt><trkpt lat="43.2436083" lon="10.7721183"><ele>502.99999999999994</ele><time>2026-04-18T12:13:44.743Z</time></trkpt><trkpt lat="43.2436117" lon="10.771965"><ele>502.99999999999994</ele><time>2026-04-18T12:13:45.747Z</time></trkpt><trkpt lat="43.243615" lon="10.7718283"><ele>503.0</ele><time>2026-04-18T12:13:46.743Z</time></trkpt><trkpt lat="43.2436117" lon="10.7717133"><ele>503.0</ele><time>2026-04-18T12:13:47.747Z</time></trkpt><trkpt lat="43.243605" lon="10.7716167"><ele>503.0</ele><time>2026-04-18T12:13:48.748Z</time></trkpt><trkpt lat="43.2435833" lon="10.7715317"><ele>502.99999999999994</ele><time>2026-04-18T12:13:49.742Z</time></trkpt><trkpt lat="43.243505" lon="10.77147"><ele>502.99999999999994</ele><time>2026-04-18T12:13:50.746Z</time></trkpt><trkpt lat="43.2434033" lon="10.7714433"><ele>503.0</ele><time>2026-04-18T12:13:51.744Z</time></trkpt><trkpt lat="43.2433067" lon="10.7714267"><ele>503.0</ele><time>2026-04-18T12:13:52.744Z</time></trkpt><trkpt lat="43.2432133" lon="10.771405"><ele>503.75</ele><time>2026-04-18T12:13:53.745Z</time></trkpt><trkpt lat="43.2431217" lon="10.771365"><ele>504.5</ele><time>2026-04-18T12:13:54.749Z</time></trkpt><trkpt lat="43.243035" lon="10.7713083"><ele>505.25</ele><time>2026-04-18T12:13:55.745Z</time></trkpt><trkpt lat="43.2429833" lon="10.7711617"><ele>506.0</ele><time>2026-04-18T12:13:56.75Z</time></trkpt><trkpt lat="43.2429617" lon="10.77096"><ele>506.0</ele><time>2026-04-18T12:13:57.752Z</time></trkpt><trkpt lat="43.24294" lon="10.770775"><ele>506.0</ele><time>2026-04-18T12:13:58.744Z</time></trkpt><trkpt lat="43.2429067" lon="10.770605"><ele>506.0</ele><time>2026-04-18T12:13:59.745Z</time></trkpt><trkpt lat="43.2428533" lon="10.7704317"><ele>506.0</ele><time>2026-04-18T12:14:00.743Z</time></trkpt><trkpt lat="43.2427883" lon="10.7702633"><ele>502.5</ele><time>2026-04-18T12:14:01.747Z</time></trkpt><trkpt lat="43.2427283" lon="10.7700867"><ele>499.0</ele><time>2026-04-18T12:14:02.745Z</time></trkpt><trkpt lat="43.2426767" lon="10.769905"><ele>495.5</ele><time>2026-04-18T12:14:03.745Z</time></trkpt><trkpt lat="43.24264" lon="10.7697333"><ele>492.0</ele><time>2026-04-18T12:14:04.742Z</time></trkpt><trkpt lat="43.242605" lon="10.7695733"><ele>492.0</ele><time>2026-04-18T12:14:05.745Z</time></trkpt><trkpt lat="43.2425867" lon="10.769425"><ele>492.00000000000006</ele><time>2026-04-18T12:14:06.747Z</time></trkpt><trkpt lat="43.2425617" lon="10.7693067"><ele>492.00000000000006</ele><time>2026-04-18T12:14:07.745Z</time></trkpt><trkpt lat="43.24253" lon="10.769215"><ele>492.0</ele><time>2026-04-18T12:14:08.746Z</time></trkpt><trkpt lat="43.2424783" lon="10.7691183"><ele>492.0</ele><time>2026-04-18T12:14:09.746Z</time></trkpt><trkpt lat="43.2422783" lon="10.7690783"><ele>488.33333333333337</ele><time>2026-04-18T12:14:11.477Z</time></trkpt><trkpt lat="43.2421033" lon="10.7689967"><ele>484.6666666666667</ele><time>2026-04-18T12:14:12.749Z</time></trkpt><trkpt lat="43.2419517" lon="10.7689283"><ele>481.0</ele><time>2026-04-18T12:14:13.744Z</time></trkpt><trkpt lat="43.2418033" lon="10.7688733"><ele>481.0</ele><time>2026-04-18T12:14:14.741Z</time></trkpt><trkpt lat="43.2416733" lon="10.7688317"><ele>481.0</ele><time>2026-04-18T12:14:15.747Z</time></trkpt><trkpt lat="43.2415483" lon="10.7688183"><ele>481.0</ele><time>2026-04-18T12:14:16.748Z</time></trkpt><trkpt lat="43.2414317" lon="10.768825"><ele>481.0</ele><time>2026-04-18T12:14:17.745Z</time></trkpt><trkpt lat="43.241315" lon="10.76882"><ele>478.75</ele><time>2026-04-18T12:14:18.748Z</time></trkpt><trkpt lat="43.2411967" lon="10.7688033"><ele>476.5</ele><time>2026-04-18T12:14:19.751Z</time></trkpt><trkpt lat="43.2410717" lon="10.76878"><ele>474.25</ele><time>2026-04-18T12:14:20.744Z</time></trkpt><trkpt lat="43.2409383" lon="10.7687317"><ele>472.0</ele><time>2026-04-18T12:14:21.745Z</time></trkpt><trkpt lat="43.2408067" lon="10.7686633"><ele>472.0</ele><time>2026-04-18T12:14:22.745Z</time></trkpt><trkpt lat="43.24069" lon="10.7685883"><ele>472.00000000000006</ele><time>2026-04-18T12:14:23.745Z</time></trkpt><trkpt lat="43.2406083" lon="10.7685033"><ele>472.00000000000006</ele><time>2026-04-18T12:14:24.746Z</time></trkpt><trkpt lat="43.24055" lon="10.76844"><ele>472.0</ele><time>2026-04-18T12:14:25.746Z</time></trkpt><trkpt lat="43.2404783" lon="10.7683867"><ele>472.0</ele><time>2026-04-18T12:14:27.745Z</time></trkpt><trkpt lat="43.2405017" lon="10.7684783"><ele>470.33333333333337</ele><time>2026-04-18T12:14:32.747Z</time></trkpt><trkpt lat="43.24057" lon="10.7684667"><ele>468.6666666666667</ele><time>2026-04-18T12:14:35.746Z</time></trkpt><trkpt lat="43.2405283" lon="10.7683983"><ele>467.0</ele><time>2026-04-18T12:15:23.747Z</time></trkpt><trkpt lat="43.2405983" lon="10.7684083"><ele>465.33333333333337</ele><time>2026-04-18T12:15:27.749Z</time></trkpt><trkpt lat="43.2406467" lon="10.7682783"><ele>463.6666666666667</ele><time>2026-04-18T12:15:29.743Z</time></trkpt><trkpt lat="43.2406667" lon="10.76814"><ele>462.0</ele><time>2026-04-18T12:15:30.746Z</time></trkpt><trkpt lat="43.2406717" lon="10.7679833"><ele>462.0</ele><time>2026-04-18T12:15:31.746Z</time></trkpt><trkpt lat="43.24068" lon="10.767795"><ele>462.0</ele><time>2026-04-18T12:15:32.757Z</time></trkpt><trkpt lat="43.240695" lon="10.7676067"><ele>462.0</ele><time>2026-04-18T12:15:33.747Z</time></trkpt><trkpt lat="43.2407167" lon="10.7674367"><ele>462.0</ele><time>2026-04-18T12:15:34.746Z</time></trkpt><trkpt lat="43.2407367" lon="10.7672833"><ele>461.75</ele><time>2026-04-18T12:15:35.745Z</time></trkpt><trkpt lat="43.240755" lon="10.7671317"><ele>461.5</ele><time>2026-04-18T12:15:36.751Z</time></trkpt><trkpt lat="43.2407717" lon="10.7669683"><ele>461.25</ele><time>2026-04-18T12:15:37.748Z</time></trkpt><trkpt lat="43.2407867" lon="10.7667933"><ele>461.0</ele><time>2026-04-18T12:15:38.747Z</time></trkpt><trkpt lat="43.24081" lon="10.7666233"><ele>461.0</ele><time>2026-04-18T12:15:39.742Z</time></trkpt><trkpt lat="43.2408417" lon="10.7664733"><ele>461.0</ele><time>2026-04-18T12:15:40.745Z</time></trkpt><trkpt lat="43.2408783" lon="10.7663333"><ele>461.0</ele><time>2026-04-18T12:15:41.746Z</time></trkpt><trkpt lat="43.240915" lon="10.7662083"><ele>461.0</ele><time>2026-04-18T12:15:42.745Z</time></trkpt><trkpt lat="43.2409483" lon="10.7661017"><ele>461.0</ele><time>2026-04-18T12:15:43.745Z</time></trkpt><trkpt lat="43.240975" lon="10.7659983"><ele>461.8</ele><time>2026-04-18T12:15:44.746Z</time></trkpt><trkpt lat="43.24099" lon="10.7658917"><ele>462.6</ele><time>2026-04-18T12:15:45.745Z</time></trkpt><trkpt lat="43.2409967" lon="10.7657733"><ele>463.4</ele><time>2026-04-18T12:15:46.742Z</time></trkpt><trkpt lat="43.240995" lon="10.7656433"><ele>464.2</ele><time>2026-04-18T12:15:47.745Z</time></trkpt><trkpt lat="43.2409733" lon="10.765495"><ele>465.0</ele><time>2026-04-18T12:15:48.743Z</time></trkpt><trkpt lat="43.24094" lon="10.7653317"><ele>463.6</ele><time>2026-04-18T12:15:49.743Z</time></trkpt><trkpt lat="43.2409133" lon="10.7651667"><ele>462.2</ele><time>2026-04-18T12:15:50.753Z</time></trkpt><trkpt lat="43.2409" lon="10.76502"><ele>460.79999999999995</ele><time>2026-04-18T12:15:51.75Z</time></trkpt><trkpt lat="43.24088" lon="10.7648967"><ele>459.4</ele><time>2026-04-18T12:15:52.746Z</time></trkpt><trkpt lat="43.2408533" lon="10.7647717"><ele>458.0</ele><time>2026-04-18T12:15:53.751Z</time></trkpt><trkpt lat="43.2408183" lon="10.76465"><ele>458.0</ele><time>2026-04-18T12:15:54.749Z</time></trkpt><trkpt lat="43.2407783" lon="10.7645333"><ele>457.99999999999994</ele><time>2026-04-18T12:15:55.746Z</time></trkpt><trkpt lat="43.240715" lon="10.76442"><ele>457.99999999999994</ele><time>2026-04-18T12:15:56.746Z</time></trkpt><trkpt lat="43.24066" lon="10.7643067"><ele>458.0</ele><time>2026-04-18T12:15:57.753Z</time></trkpt><trkpt lat="43.2406067" lon="10.764195"><ele>458.0</ele><time>2026-04-18T12:15:58.747Z</time></trkpt><trkpt lat="43.2405517" lon="10.7640933"><ele>461.0</ele><time>2026-04-18T12:15:59.748Z</time></trkpt><trkpt lat="43.24049" lon="10.7640083"><ele>463.99999999999994</ele><time>2026-04-18T12:16:00.75Z</time></trkpt><trkpt lat="43.24041" lon="10.7639333"><ele>466.99999999999994</ele><time>2026-04-18T12:16:01.75Z</time></trkpt><trkpt lat="43.2403133" lon="10.76387"><ele>470.0</ele><time>2026-04-18T12:16:02.751Z</time></trkpt><trkpt lat="43.2402317" lon="10.7638117"><ele>473.0</ele><time>2026-04-18T12:16:03.748Z</time></trkpt><trkpt lat="43.2401717" lon="10.7637583"><ele>473.0</ele><time>2026-04-18T12:16:04.745Z</time></trkpt><trkpt lat="43.2401067" lon="10.7636333"><ele>472.99999999999994</ele><time>2026-04-18T12:16:06.748Z</time></trkpt><trkpt lat="43.240145" lon="10.7634983"><ele>472.99999999999994</ele><time>2026-04-18T12:16:08.748Z</time></trkpt><trkpt lat="43.2402" lon="10.7634483"><ele>473.0</ele><time>2026-04-18T12:16:09.743Z</time></trkpt><trkpt lat="43.2403033" lon="10.7634"><ele>473.0</ele><time>2026-04-18T12:16:10.744Z</time></trkpt><trkpt lat="43.2404233" lon="10.7633333"><ele>472.2</ele><time>2026-04-18T12:16:11.745Z</time></trkpt><trkpt lat="43.2405333" lon="10.7632583"><ele>471.4</ele><time>2026-04-18T12:16:12.747Z</time></trkpt><trkpt lat="43.2406283" lon="10.7631933"><ele>470.59999999999997</ele><time>2026-04-18T12:16:13.748Z</time></trkpt><trkpt lat="43.2407133" lon="10.7631383"><ele>469.79999999999995</ele><time>2026-04-18T12:16:14.747Z</time></trkpt><trkpt lat="43.2407933" lon="10.7630683"><ele>469.0</ele><time>2026-04-18T12:16:15.743Z</time></trkpt><trkpt lat="43.2408683" lon="10.7629617"><ele>468.2</ele><time>2026-04-18T12:16:16.747Z</time></trkpt><trkpt lat="43.2409467" lon="10.7628417"><ele>467.4</ele><time>2026-04-18T12:16:17.743Z</time></trkpt><trkpt lat="43.2410217" lon="10.7627383"><ele>466.6</ele><time>2026-04-18T12:16:18.743Z</time></trkpt><trkpt lat="43.2410817" lon="10.762655"><ele>465.8</ele><time>2026-04-18T12:16:19.745Z</time></trkpt><trkpt lat="43.2411233" lon="10.76258"><ele>465.0</ele><time>2026-04-18T12:16:20.742Z</time></trkpt><trkpt lat="43.2411433" lon="10.7624833"><ele>465.0</ele><time>2026-04-18T12:16:21.742Z</time></trkpt><trkpt lat="43.24115" lon="10.76236"><ele>465.0</ele><time>2026-04-18T12:16:22.743Z</time></trkpt><trkpt lat="43.2411483" lon="10.7622217"><ele>465.0</ele><time>2026-04-18T12:16:23.747Z</time></trkpt><trkpt lat="43.2411533" lon="10.762085"><ele>465.0</ele><time>2026-04-18T12:16:24.747Z</time></trkpt><trkpt lat="43.2411717" lon="10.7619517"><ele>465.0</ele><time>2026-04-18T12:16:25.746Z</time></trkpt><trkpt lat="43.2412117" lon="10.7618233"><ele>465.8333333333333</ele><time>2026-04-18T12:16:26.751Z</time></trkpt><trkpt lat="43.241265" lon="10.761705"><ele>466.66666666666663</ele><time>2026-04-18T12:16:27.743Z</time></trkpt><trkpt lat="43.2413233" lon="10.761605"><ele>467.5</ele><time>2026-04-18T12:16:28.743Z</time></trkpt><trkpt lat="43.241385" lon="10.7615183"><ele>468.3333333333333</ele><time>2026-04-18T12:16:29.749Z</time></trkpt><trkpt lat="43.2414383" lon="10.7614583"><ele>469.16666666666663</ele><time>2026-04-18T12:16:30.75Z</time></trkpt><trkpt lat="43.241505" lon="10.7613617"><ele>470.0</ele><time>2026-04-18T12:16:32.751Z</time></trkpt><trkpt lat="43.24152" lon="10.7612183"><ele>469.6</ele><time>2026-04-18T12:16:34.75Z</time></trkpt><trkpt lat="43.24148" lon="10.7611283"><ele>469.2</ele><time>2026-04-18T12:16:35.748Z</time></trkpt><trkpt lat="43.2414283" lon="10.7610183"><ele>468.79999999999995</ele><time>2026-04-18T12:16:36.743Z</time></trkpt><trkpt lat="43.2413633" lon="10.7608883"><ele>468.4</ele><time>2026-04-18T12:16:37.741Z</time></trkpt><trkpt lat="43.2412967" lon="10.7607517"><ele>468.0</ele><time>2026-04-18T12:16:38.746Z</time></trkpt><trkpt lat="43.241245" lon="10.760595"><ele>468.0</ele><time>2026-04-18T12:16:39.745Z</time></trkpt><trkpt lat="43.241215" lon="10.7604333"><ele>468.0</ele><time>2026-04-18T12:16:40.75Z</time></trkpt><trkpt lat="43.2411967" lon="10.7602783"><ele>468.0</ele><time>2026-04-18T12:16:41.743Z</time></trkpt><trkpt lat="43.2411917" lon="10.76012"><ele>468.0</ele><time>2026-04-18T12:16:42.741Z</time></trkpt><trkpt lat="43.2411933" lon="10.7599767"><ele>465.2</ele><time>2026-04-18T12:16:43.742Z</time></trkpt><trkpt lat="43.2411967" lon="10.7598333"><ele>462.4</ele><time>2026-04-18T12:16:44.744Z</time></trkpt><trkpt lat="43.241205" lon="10.7596983"><ele>459.59999999999997</ele><time>2026-04-18T12:16:45.745Z</time></trkpt><trkpt lat="43.24122" lon="10.759575"><ele>456.79999999999995</ele><time>2026-04-18T12:16:46.746Z</time></trkpt><trkpt lat="43.24123" lon="10.7594533"><ele>454.0</ele><time>2026-04-18T12:16:47.746Z</time></trkpt><trkpt lat="43.2412233" lon="10.759335"><ele>452.00000000000006</ele><time>2026-04-18T12:16:48.748Z</time></trkpt><trkpt lat="43.2412017" lon="10.75923"><ele>450.0</ele><time>2026-04-18T12:16:49.747Z</time></trkpt><trkpt lat="43.24117" lon="10.759145"><ele>448.0</ele><time>2026-04-18T12:16:50.749Z</time></trkpt><trkpt lat="43.2411333" lon="10.759"><ele>446.0</ele><time>2026-04-18T12:16:52.744Z</time></trkpt><trkpt lat="43.2411767" lon="10.75892"><ele>444.00000000000006</ele><time>2026-04-18T12:16:54.749Z</time></trkpt><trkpt lat="43.241285" lon="10.75896"><ele>442.0</ele><time>2026-04-18T12:16:56.748Z</time></trkpt><trkpt lat="43.2413217" lon="10.7590733"><ele>442.0</ele><time>2026-04-18T12:16:57.741Z</time></trkpt><trkpt lat="43.2413633" lon="10.75919"><ele>442.0</ele><time>2026-04-18T12:16:58.746Z</time></trkpt><trkpt lat="43.2413967" lon="10.75936"><ele>442.0</ele><time>2026-04-18T12:16:59.75Z</time></trkpt><trkpt lat="43.241435" lon="10.7595267"><ele>442.0</ele><time>2026-04-18T12:17:00.746Z</time></trkpt><trkpt lat="43.2414767" lon="10.7596917"><ele>441.0</ele><time>2026-04-18T12:17:01.747Z</time></trkpt><trkpt lat="43.2415133" lon="10.75983"><ele>440.00000000000006</ele><time>2026-04-18T12:17:02.745Z</time></trkpt><trkpt lat="43.2415517" lon="10.75996"><ele>439.00000000000006</ele><time>2026-04-18T12:17:03.74Z</time></trkpt><trkpt lat="43.2415867" lon="10.76007"><ele>438.0</ele><time>2026-04-18T12:17:04.742Z</time></trkpt><trkpt lat="43.241615" lon="10.760155"><ele>437.0</ele><time>2026-04-18T12:17:05.748Z</time></trkpt><trkpt lat="43.2417083" lon="10.7602383"><ele>437.0</ele><time>2026-04-18T12:17:07.753Z</time></trkpt><trkpt lat="43.2417767" lon="10.7602383"><ele>437.00000000000006</ele><time>2026-04-18T12:17:08.748Z</time></trkpt><trkpt lat="43.2418617" lon="10.76021"><ele>437.00000000000006</ele><time>2026-04-18T12:17:09.746Z</time></trkpt><trkpt lat="43.2419617" lon="10.760155"><ele>437.0</ele><time>2026-04-18T12:17:10.745Z</time></trkpt><trkpt lat="43.2420533" lon="10.7600717"><ele>437.0</ele><time>2026-04-18T12:17:11.744Z</time></trkpt><trkpt lat="43.2421417" lon="10.759975"><ele>437.0</ele><time>2026-04-18T12:17:12.744Z</time></trkpt><trkpt lat="43.2422267" lon="10.7598733"><ele>437.00000000000006</ele><time>2026-04-18T12:17:13.742Z</time></trkpt><trkpt lat="43.24231" lon="10.759775"><ele>437.00000000000006</ele><time>2026-04-18T12:17:14.745Z</time></trkpt><trkpt lat="43.2423983" lon="10.7596933"><ele>437.0</ele><time>2026-04-18T12:17:15.744Z</time></trkpt><trkpt lat="43.2424867" lon="10.75963"><ele>437.0</ele><time>2026-04-18T12:17:16.744Z</time></trkpt><trkpt lat="43.24258" lon="10.7595833"><ele>437.6</ele><time>2026-04-18T12:17:17.751Z</time></trkpt><trkpt lat="43.24267" lon="10.7595533"><ele>438.20000000000005</ele><time>2026-04-18T12:17:18.751Z</time></trkpt><trkpt lat="43.2427617" lon="10.7595367"><ele>438.8</ele><time>2026-04-18T12:17:19.749Z</time></trkpt><trkpt lat="43.2428567" lon="10.759545"><ele>439.4</ele><time>2026-04-18T12:17:20.747Z</time></trkpt><trkpt lat="43.2429583" lon="10.7596"><ele>440.0</ele><time>2026-04-18T12:17:21.749Z</time></trkpt><trkpt lat="43.24307" lon="10.7596717"><ele>437.25</ele><time>2026-04-18T12:17:22.746Z</time></trkpt><trkpt lat="43.24318" lon="10.7597517"><ele>434.5</ele><time>2026-04-18T12:17:23.744Z</time></trkpt><trkpt lat="43.243305" lon="10.7598283"><ele>431.75</ele><time>2026-04-18T12:17:24.745Z</time></trkpt><trkpt lat="43.2434267" lon="10.7599017"><ele>429.0</ele><time>2026-04-18T12:17:25.742Z</time></trkpt><trkpt lat="43.24354" lon="10.7599617"><ele>429.0</ele><time>2026-04-18T12:17:26.75Z</time></trkpt><trkpt lat="43.243665" lon="10.7600367"><ele>429.0</ele><time>2026-04-18T12:17:27.745Z</time></trkpt><trkpt lat="43.24379" lon="10.7601217"><ele>429.0</ele><time>2026-04-18T12:17:28.744Z</time></trkpt><trkpt lat="43.243905" lon="10.7602117"><ele>429.0</ele><time>2026-04-18T12:17:29.748Z</time></trkpt><trkpt lat="43.2440133" lon="10.7602867"><ele>426.79999999999995</ele><time>2026-04-18T12:17:30.745Z</time></trkpt><trkpt lat="43.24412" lon="10.7603517"><ele>424.59999999999997</ele><time>2026-04-18T12:17:31.751Z</time></trkpt><trkpt lat="43.244225" lon="10.7603917"><ele>422.4</ele><time>2026-04-18T12:17:32.746Z</time></trkpt><trkpt lat="43.24433" lon="10.76041"><ele>420.2</ele><time>2026-04-18T12:17:33.744Z</time></trkpt><trkpt lat="43.24444" lon="10.7604"><ele>418.0</ele><time>2026-04-18T12:17:34.75Z</time></trkpt><trkpt lat="43.2445467" lon="10.7603733"><ele>418.00000000000006</ele><time>2026-04-18T12:17:35.745Z</time></trkpt><trkpt lat="43.24464" lon="10.7603367"><ele>418.0</ele><time>2026-04-18T12:17:36.747Z</time></trkpt><trkpt lat="43.2447167" lon="10.76029"><ele>418.0</ele><time>2026-04-18T12:17:37.746Z</time></trkpt><trkpt lat="43.244785" lon="10.7602317"><ele>418.0</ele><time>2026-04-18T12:17:38.746Z</time></trkpt><trkpt lat="43.24484" lon="10.760155"><ele>418.00000000000006</ele><time>2026-04-18T12:17:39.745Z</time></trkpt><trkpt lat="43.244885" lon="10.7600533"><ele>418.0</ele><time>2026-04-18T12:17:40.748Z</time></trkpt><trkpt lat="43.2449083" lon="10.7599067"><ele>421.75</ele><time>2026-04-18T12:17:41.747Z</time></trkpt><trkpt lat="43.24494" lon="10.7597233"><ele>425.5</ele><time>2026-04-18T12:17:42.748Z</time></trkpt><trkpt lat="43.244965" lon="10.7595233"><ele>429.25</ele><time>2026-04-18T12:17:43.745Z</time></trkpt><trkpt lat="43.2449933" lon="10.7593533"><ele>433.0</ele><time>2026-04-18T12:17:44.749Z</time></trkpt><trkpt lat="43.245025" lon="10.7592"><ele>433.75</ele><time>2026-04-18T12:17:45.745Z</time></trkpt><trkpt lat="43.2450783" lon="10.7590633"><ele>434.5</ele><time>2026-04-18T12:17:46.74Z</time></trkpt><trkpt lat="43.2451433" lon="10.7589283"><ele>435.25</ele><time>2026-04-18T12:17:47.74Z</time></trkpt><trkpt lat="43.245235" lon="10.758795"><ele>436.0</ele><time>2026-04-18T12:17:48.744Z</time></trkpt><trkpt lat="43.2453233" lon="10.7586717"><ele>436.00000000000006</ele><time>2026-04-18T12:17:49.746Z</time></trkpt><trkpt lat="43.2454117" lon="10.7585833"><ele>436.0</ele><time>2026-04-18T12:17:50.744Z</time></trkpt><trkpt lat="43.24549" lon="10.7585017"><ele>436.0</ele><time>2026-04-18T12:17:51.744Z</time></trkpt><trkpt lat="43.2455483" lon="10.758425"><ele>436.0</ele><time>2026-04-18T12:17:52.746Z</time></trkpt><trkpt lat="43.2455983" lon="10.7583517"><ele>436.00000000000006</ele><time>2026-04-18T12:17:53.742Z</time></trkpt><trkpt lat="43.2456267" lon="10.7582667"><ele>436.0</ele><time>2026-04-18T12:17:54.741Z</time></trkpt><trkpt lat="43.2456467" lon="10.7581667"><ele>438.8</ele><time>2026-04-18T12:17:55.744Z</time></trkpt><trkpt lat="43.2456617" lon="10.7580567"><ele>441.6</ele><time>2026-04-18T12:17:56.744Z</time></trkpt><trkpt lat="43.2456783" lon="10.7579383"><ele>444.4</ele><time>2026-04-18T12:17:57.743Z</time></trkpt><trkpt lat="43.2457233" lon="10.7578133"><ele>447.2</ele><time>2026-04-18T12:17:58.746Z</time></trkpt><trkpt lat="43.2457683" lon="10.75768"><ele>450.0</ele><time>2026-04-18T12:17:59.751Z</time></trkpt><trkpt lat="43.2458117" lon="10.7575433"><ele>451.25</ele><time>2026-04-18T12:18:00.749Z</time></trkpt><trkpt lat="43.2458733" lon="10.7574133"><ele>452.5</ele><time>2026-04-18T12:18:01.745Z</time></trkpt><trkpt lat="43.2459517" lon="10.7572833"><ele>453.75</ele><time>2026-04-18T12:18:02.747Z</time></trkpt><trkpt lat="43.2460333" lon="10.75716"><ele>455.0</ele><time>2026-04-18T12:18:03.743Z</time></trkpt><trkpt lat="43.2461117" lon="10.75706"><ele>455.0</ele><time>2026-04-18T12:18:04.744Z</time></trkpt><trkpt lat="43.24619" lon="10.756985"><ele>455.0</ele><time>2026-04-18T12:18:05.74Z</time></trkpt><trkpt lat="43.246275" lon="10.7569233"><ele>455.0</ele><time>2026-04-18T12:18:06.745Z</time></trkpt><trkpt lat="43.24638" lon="10.7568767"><ele>455.0</ele><time>2026-04-18T12:18:07.746Z</time></trkpt><trkpt lat="43.246505" lon="10.7568383"><ele>455.0</ele><time>2026-04-18T12:18:08.747Z</time></trkpt><trkpt lat="43.2466417" lon="10.7568"><ele>456.75</ele><time>2026-04-18T12:18:09.744Z</time></trkpt><trkpt lat="43.2467833" lon="10.7567567"><ele>458.5</ele><time>2026-04-18T12:18:10.749Z</time></trkpt><trkpt lat="43.2469183" lon="10.7567083"><ele>460.25</ele><time>2026-04-18T12:18:11.744Z</time></trkpt><trkpt lat="43.24703" lon="10.7566667"><ele>462.0</ele><time>2026-04-18T12:18:12.751Z</time></trkpt><trkpt lat="43.2471167" lon="10.7566317"><ele>462.0</ele><time>2026-04-18T12:18:13.747Z</time></trkpt><trkpt lat="43.2471867" lon="10.75659"><ele>462.0</ele><time>2026-04-18T12:18:14.742Z</time></trkpt><trkpt lat="43.24724" lon="10.7565417"><ele>462.0</ele><time>2026-04-18T12:18:15.743Z</time></trkpt><trkpt lat="43.24727" lon="10.7564117"><ele>462.0</ele><time>2026-04-18T12:18:17.75Z</time></trkpt><trkpt lat="43.2472467" lon="10.756325"><ele>462.0</ele><time>2026-04-18T12:18:18.748Z</time></trkpt><trkpt lat="43.247205" lon="10.7562267"><ele>462.0</ele><time>2026-04-18T12:18:19.746Z</time></trkpt><trkpt lat="43.2471533" lon="10.756135"><ele>462.0</ele><time>2026-04-18T12:18:20.745Z</time></trkpt><trkpt lat="43.2471083" lon="10.7560533"><ele>462.0</ele><time>2026-04-18T12:18:21.743Z</time></trkpt><trkpt lat="43.2470867" lon="10.7559583"><ele>462.0</ele><time>2026-04-18T12:18:22.743Z</time></trkpt><trkpt lat="43.2470867" lon="10.7558633"><ele>462.0</ele><time>2026-04-18T12:18:23.744Z</time></trkpt><trkpt lat="43.2471183" lon="10.75578"><ele>462.0</ele><time>2026-04-18T12:18:24.745Z</time></trkpt><trkpt lat="43.2471683" lon="10.7556983"><ele>462.0</ele><time>2026-04-18T12:18:25.749Z</time></trkpt><trkpt lat="43.2472417" lon="10.7556117"><ele>463.25</ele><time>2026-04-18T12:18:26.747Z</time></trkpt><trkpt lat="43.24737" lon="10.7555017"><ele>464.5</ele><time>2026-04-18T12:18:27.743Z</time></trkpt><trkpt lat="43.2474817" lon="10.755375"><ele>465.75</ele><time>2026-04-18T12:18:28.743Z</time></trkpt><trkpt lat="43.2475867" lon="10.7552567"><ele>467.0</ele><time>2026-04-18T12:18:29.744Z</time></trkpt><trkpt lat="43.2476817" lon="10.7551683"><ele>467.0</ele><time>2026-04-18T12:18:30.747Z</time></trkpt><trkpt lat="43.2477567" lon="10.75508"><ele>467.0</ele><time>2026-04-18T12:18:31.746Z</time></trkpt><trkpt lat="43.24783" lon="10.7549767"><ele>467.0</ele><time>2026-04-18T12:18:32.747Z</time></trkpt><trkpt lat="43.2479083" lon="10.7548433"><ele>467.0</ele><time>2026-04-18T12:18:33.749Z</time></trkpt><trkpt lat="43.2479933" lon="10.7547167"><ele>467.0</ele><time>2026-04-18T12:18:34.745Z</time></trkpt><trkpt lat="43.248065" lon="10.7545833"><ele>467.0</ele><time>2026-04-18T12:18:35.743Z</time></trkpt><trkpt lat="43.2481217" lon="10.75445"><ele>467.0</ele><time>2026-04-18T12:18:36.741Z</time></trkpt><trkpt lat="43.24817" lon="10.7543083"><ele>467.0</ele><time>2026-04-18T12:18:37.744Z</time></trkpt><trkpt lat="43.2482133" lon="10.7541483"><ele>467.75</ele><time>2026-04-18T12:18:38.743Z</time></trkpt><trkpt lat="43.2482533" lon="10.75397"><ele>468.5</ele><time>2026-04-18T12:18:39.746Z</time></trkpt><trkpt lat="43.2482933" lon="10.7537817"><ele>469.25</ele><time>2026-04-18T12:18:40.743Z</time></trkpt><trkpt lat="43.2483267" lon="10.753605"><ele>470.0</ele><time>2026-04-18T12:18:41.742Z</time></trkpt><trkpt lat="43.2483633" lon="10.7534467"><ele>472.2</ele><time>2026-04-18T12:18:42.743Z</time></trkpt><trkpt lat="43.2484083" lon="10.753295"><ele>474.4</ele><time>2026-04-18T12:18:43.743Z</time></trkpt><trkpt lat="43.2484517" lon="10.7531533"><ele>476.6</ele><time>2026-04-18T12:18:44.744Z</time></trkpt><trkpt lat="43.2484833" lon="10.75302"><ele>478.8</ele><time>2026-04-18T12:18:45.743Z</time></trkpt><trkpt lat="43.24851" lon="10.7528717"><ele>481.0</ele><time>2026-04-18T12:18:46.746Z</time></trkpt><trkpt lat="43.2485233" lon="10.752695"><ele>483.0</ele><time>2026-04-18T12:18:47.744Z</time></trkpt><trkpt lat="43.2485333" lon="10.7525083"><ele>485.0</ele><time>2026-04-18T12:18:48.746Z</time></trkpt><trkpt lat="43.248545" lon="10.7523367"><ele>487.0</ele><time>2026-04-18T12:18:49.744Z</time></trkpt><trkpt lat="43.2485533" lon="10.752185"><ele>489.0</ele><time>2026-04-18T12:18:50.747Z</time></trkpt><trkpt lat="43.2485583" lon="10.7520383"><ele>489.0</ele><time>2026-04-18T12:18:51.745Z</time></trkpt><trkpt lat="43.2485567" lon="10.751895"><ele>489.0</ele><time>2026-04-18T12:18:52.742Z</time></trkpt><trkpt lat="43.2485467" lon="10.7517483"><ele>489.0</ele><time>2026-04-18T12:18:53.746Z</time></trkpt><trkpt lat="43.2485333" lon="10.7516083"><ele>489.0</ele><time>2026-04-18T12:18:54.747Z</time></trkpt><trkpt lat="43.24853" lon="10.75147"><ele>489.0</ele><time>2026-04-18T12:18:55.749Z</time></trkpt><trkpt lat="43.2485417" lon="10.7513117"><ele>487.66666666666663</ele><time>2026-04-18T12:18:56.746Z</time></trkpt><trkpt lat="43.24857" lon="10.75112"><ele>486.3333333333333</ele><time>2026-04-18T12:18:57.747Z</time></trkpt><trkpt lat="43.2486083" lon="10.7509017"><ele>485.0</ele><time>2026-04-18T12:18:58.744Z</time></trkpt><trkpt lat="43.2486467" lon="10.750675"><ele>485.0</ele><time>2026-04-18T12:18:59.741Z</time></trkpt><trkpt lat="43.248675" lon="10.750445"><ele>485.0</ele><time>2026-04-18T12:19:00.741Z</time></trkpt><trkpt lat="43.248685" lon="10.75022"><ele>485.0</ele><time>2026-04-18T12:19:01.742Z</time></trkpt><trkpt lat="43.2486817" lon="10.7500117"><ele>485.0</ele><time>2026-04-18T12:19:02.745Z</time></trkpt><trkpt lat="43.2486767" lon="10.7498117"><ele>485.0</ele><time>2026-04-18T12:19:03.747Z</time></trkpt><trkpt lat="43.2486717" lon="10.7496283"><ele>485.0</ele><time>2026-04-18T12:19:04.747Z</time></trkpt><trkpt lat="43.24866" lon="10.7494433"><ele>485.0</ele><time>2026-04-18T12:19:05.747Z</time></trkpt><trkpt lat="43.248635" lon="10.7492417"><ele>485.25</ele><time>2026-04-18T12:19:06.747Z</time></trkpt><trkpt lat="43.2485933" lon="10.7490383"><ele>485.5</ele><time>2026-04-18T12:19:07.751Z</time></trkpt><trkpt lat="43.2485517" lon="10.7488533"><ele>485.75</ele><time>2026-04-18T12:19:08.746Z</time></trkpt><trkpt lat="43.2485117" lon="10.7486917"><ele>486.0</ele><time>2026-04-18T12:19:09.746Z</time></trkpt><trkpt lat="43.24847" lon="10.74855"><ele>486.6666666666667</ele><time>2026-04-18T12:19:10.746Z</time></trkpt><trkpt lat="43.2484283" lon="10.7484333"><ele>487.33333333333337</ele><time>2026-04-18T12:19:11.744Z</time></trkpt><trkpt lat="43.2484033" lon="10.74834"><ele>488.0</ele><time>2026-04-18T12:19:12.746Z</time></trkpt><trkpt lat="43.2484267" lon="10.7482033"><ele>488.6666666666667</ele><time>2026-04-18T12:19:14.744Z</time></trkpt><trkpt lat="43.2485117" lon="10.7481417"><ele>489.33333333333337</ele><time>2026-04-18T12:19:16.742Z</time></trkpt><trkpt lat="43.2485767" lon="10.7481567"><ele>490.0</ele><time>2026-04-18T12:19:17.751Z</time></trkpt><trkpt lat="43.2486717" lon="10.7482"><ele>490.0</ele><time>2026-04-18T12:19:18.745Z</time></trkpt><trkpt lat="43.2488067" lon="10.748315"><ele>490.0</ele><time>2026-04-18T12:19:19.747Z</time></trkpt><trkpt lat="43.2489233" lon="10.74842"><ele>490.0</ele><time>2026-04-18T12:19:20.751Z</time></trkpt><trkpt lat="43.2490333" lon="10.7485217"><ele>490.0</ele><time>2026-04-18T12:19:21.747Z</time></trkpt><trkpt lat="43.2491383" lon="10.7486167"><ele>491.0</ele><time>2026-04-18T12:19:22.746Z</time></trkpt><trkpt lat="43.249235" lon="10.7486883"><ele>492.0</ele><time>2026-04-18T12:19:23.74Z</time></trkpt><trkpt lat="43.249335" lon="10.74875"><ele>493.0</ele><time>2026-04-18T12:19:24.746Z</time></trkpt><trkpt lat="43.2494383" lon="10.7487933"><ele>494.0</ele><time>2026-04-18T12:19:25.742Z</time></trkpt><trkpt lat="43.2495483" lon="10.7488067"><ele>495.0</ele><time>2026-04-18T12:19:26.748Z</time></trkpt><trkpt lat="43.2496667" lon="10.7487917"><ele>495.0</ele><time>2026-04-18T12:19:27.741Z</time></trkpt><trkpt lat="43.24978" lon="10.7487617"><ele>495.0</ele><time>2026-04-18T12:19:28.742Z</time></trkpt><trkpt lat="43.2498867" lon="10.7487383"><ele>495.0</ele><time>2026-04-18T12:19:29.743Z</time></trkpt><trkpt lat="43.2499917" lon="10.7487117"><ele>495.0</ele><time>2026-04-18T12:19:30.743Z</time></trkpt><trkpt lat="43.25009" lon="10.7486717"><ele>495.0</ele><time>2026-04-18T12:19:31.746Z</time></trkpt><trkpt lat="43.2501933" lon="10.7486"><ele>494.4</ele><time>2026-04-18T12:19:32.745Z</time></trkpt><trkpt lat="43.2502983" lon="10.748505"><ele>493.8</ele><time>2026-04-18T12:19:33.743Z</time></trkpt><trkpt lat="43.2503983" lon="10.7484217"><ele>493.20000000000005</ele><time>2026-04-18T12:19:34.744Z</time></trkpt><trkpt lat="43.2504917" lon="10.7483517"><ele>492.6</ele><time>2026-04-18T12:19:35.747Z</time></trkpt><trkpt lat="43.2505783" lon="10.748285"><ele>492.0</ele><time>2026-04-18T12:19:36.749Z</time></trkpt><trkpt lat="43.2506483" lon="10.7482117"><ele>492.0</ele><time>2026-04-18T12:19:37.747Z</time></trkpt><trkpt lat="43.25071" lon="10.7481283"><ele>492.00000000000006</ele><time>2026-04-18T12:19:38.749Z</time></trkpt><trkpt lat="43.250755" lon="10.74801"><ele>492.00000000000006</ele><time>2026-04-18T12:19:39.745Z</time></trkpt><trkpt lat="43.2508" lon="10.7478817"><ele>492.0</ele><time>2026-04-18T12:19:40.745Z</time></trkpt><trkpt lat="43.25085" lon="10.7477433"><ele>492.0</ele><time>2026-04-18T12:19:41.741Z</time></trkpt><trkpt lat="43.250905" lon="10.747575"><ele>492.0</ele><time>2026-04-18T12:19:42.742Z</time></trkpt><trkpt lat="43.250985" lon="10.7474083"><ele>492.0</ele><time>2026-04-18T12:19:43.742Z</time></trkpt><trkpt lat="43.251075" lon="10.7472483"><ele>492.0</ele><time>2026-04-18T12:19:44.744Z</time></trkpt><trkpt lat="43.251175" lon="10.7471067"><ele>492.0</ele><time>2026-04-18T12:19:45.748Z</time></trkpt><trkpt lat="43.2512617" lon="10.7469667"><ele>492.40000000000003</ele><time>2026-04-18T12:19:46.749Z</time></trkpt><trkpt lat="43.2513433" lon="10.7468333"><ele>492.80000000000007</ele><time>2026-04-18T12:19:47.748Z</time></trkpt><trkpt lat="43.2514117" lon="10.7467017"><ele>493.2</ele><time>2026-04-18T12:19:48.745Z</time></trkpt><trkpt lat="43.2514633" lon="10.746575"><ele>493.6</ele><time>2026-04-18T12:19:49.746Z</time></trkpt><trkpt lat="43.2515083" lon="10.74646"><ele>494.0</ele><time>2026-04-18T12:19:50.746Z</time></trkpt><trkpt lat="43.25156" lon="10.7463717"><ele>494.0</ele><time>2026-04-18T12:19:51.743Z</time></trkpt><trkpt lat="43.2516133" lon="10.7463067"><ele>494.0</ele><time>2026-04-18T12:19:52.746Z</time></trkpt><trkpt lat="43.2516683" lon="10.7462583"><ele>494.0</ele><time>2026-04-18T12:19:53.743Z</time></trkpt><trkpt lat="43.2517717" lon="10.746285"><ele>494.0</ele><time>2026-04-18T12:19:55.745Z</time></trkpt><trkpt lat="43.2518433" lon="10.7463933"><ele>494.0</ele><time>2026-04-18T12:19:56.742Z</time></trkpt><trkpt lat="43.2519117" lon="10.746515"><ele>494.0</ele><time>2026-04-18T12:19:57.748Z</time></trkpt><trkpt lat="43.2519817" lon="10.74666"><ele>494.0</ele><time>2026-04-18T12:19:58.743Z</time></trkpt><trkpt lat="43.2520567" lon="10.7467917"><ele>494.0</ele><time>2026-04-18T12:19:59.742Z</time></trkpt><trkpt lat="43.2521317" lon="10.7469083"><ele>494.0</ele><time>2026-04-18T12:20:00.745Z</time></trkpt><trkpt lat="43.2522183" lon="10.747005"><ele>495.0</ele><time>2026-04-18T12:20:01.747Z</time></trkpt><trkpt lat="43.2523233" lon="10.74708"><ele>496.0</ele><time>2026-04-18T12:20:02.748Z</time></trkpt><trkpt lat="43.2524383" lon="10.7471283"><ele>497.0</ele><time>2026-04-18T12:20:03.744Z</time></trkpt><trkpt lat="43.2525567" lon="10.747145"><ele>498.0</ele><time>2026-04-18T12:20:04.747Z</time></trkpt><trkpt lat="43.25267" lon="10.7471433"><ele>498.0</ele><time>2026-04-18T12:20:05.744Z</time></trkpt><trkpt lat="43.25277" lon="10.7471383"><ele>497.99999999999994</ele><time>2026-04-18T12:20:06.749Z</time></trkpt><trkpt lat="43.2528533" lon="10.747135"><ele>497.99999999999994</ele><time>2026-04-18T12:20:07.75Z</time></trkpt><trkpt lat="43.2529267" lon="10.747145"><ele>498.0</ele><time>2026-04-18T12:20:08.754Z</time></trkpt><trkpt lat="43.25302" lon="10.7472567"><ele>498.0</ele><time>2026-04-18T12:20:10.75Z</time></trkpt><trkpt lat="43.253045" lon="10.7473967"><ele>498.0</ele><time>2026-04-18T12:20:11.743Z</time></trkpt><trkpt lat="43.2530767" lon="10.7475667"><ele>497.99999999999994</ele><time>2026-04-18T12:20:12.743Z</time></trkpt><trkpt lat="43.2531133" lon="10.7477233"><ele>497.99999999999994</ele><time>2026-04-18T12:20:13.75Z</time></trkpt><trkpt lat="43.2531467" lon="10.7478567"><ele>498.0</ele><time>2026-04-18T12:20:14.75Z</time></trkpt><trkpt lat="43.2531933" lon="10.7479667"><ele>498.0</ele><time>2026-04-18T12:20:15.748Z</time></trkpt><trkpt lat="43.2532433" lon="10.7480733"><ele>495.2</ele><time>2026-04-18T12:20:16.75Z</time></trkpt><trkpt lat="43.2533383" lon="10.748155"><ele>492.4</ele><time>2026-04-18T12:20:17.747Z</time></trkpt><trkpt lat="43.253445" lon="10.7482267"><ele>489.59999999999997</ele><time>2026-04-18T12:20:18.746Z</time></trkpt><trkpt lat="43.25354" lon="10.7482867"><ele>486.79999999999995</ele><time>2026-04-18T12:20:19.745Z</time></trkpt><trkpt lat="43.2536183" lon="10.7483467"><ele>484.0</ele><time>2026-04-18T12:20:20.75Z</time></trkpt><trkpt lat="43.2536883" lon="10.7484167"><ele>484.0</ele><time>2026-04-18T12:20:21.747Z</time></trkpt><trkpt lat="43.2537483" lon="10.7485033"><ele>484.0</ele><time>2026-04-18T12:20:22.749Z</time></trkpt><trkpt lat="43.2537833" lon="10.7486267"><ele>484.0</ele><time>2026-04-18T12:20:23.749Z</time></trkpt><trkpt lat="43.2537917" lon="10.7488017"><ele>484.0</ele><time>2026-04-18T12:20:24.742Z</time></trkpt><trkpt lat="43.2538" lon="10.74897"><ele>484.0</ele><time>2026-04-18T12:20:25.743Z</time></trkpt><trkpt lat="43.2538167" lon="10.7491283"><ele>484.25</ele><time>2026-04-18T12:20:26.759Z</time></trkpt><trkpt lat="43.2538567" lon="10.7492667"><ele>484.5</ele><time>2026-04-18T12:20:27.741Z</time></trkpt><trkpt lat="43.2539217" lon="10.7493933"><ele>484.75</ele><time>2026-04-18T12:20:28.743Z</time></trkpt><trkpt lat="43.2540083" lon="10.7495017"><ele>485.0</ele><time>2026-04-18T12:20:29.743Z</time></trkpt><trkpt lat="43.2541017" lon="10.749605"><ele>485.2</ele><time>2026-04-18T12:20:30.744Z</time></trkpt><trkpt lat="43.2541867" lon="10.7496983"><ele>485.4</ele><time>2026-04-18T12:20:31.742Z</time></trkpt><trkpt lat="43.2542683" lon="10.749785"><ele>485.6</ele><time>2026-04-18T12:20:32.752Z</time></trkpt><trkpt lat="43.2543517" lon="10.7498633"><ele>485.8</ele><time>2026-04-18T12:20:33.751Z</time></trkpt><trkpt lat="43.2544483" lon="10.74991"><ele>486.0</ele><time>2026-04-18T12:20:34.751Z</time></trkpt><trkpt lat="43.2545633" lon="10.7499233"><ele>486.0</ele><time>2026-04-18T12:20:35.746Z</time></trkpt><trkpt lat="43.254675" lon="10.7499317"><ele>486.0</ele><time>2026-04-18T12:20:36.75Z</time></trkpt><trkpt lat="43.2547833" lon="10.74994"><ele>486.0</ele><time>2026-04-18T12:20:37.749Z</time></trkpt><trkpt lat="43.2548883" lon="10.74996"><ele>486.0</ele><time>2026-04-18T12:20:38.749Z</time></trkpt><trkpt lat="43.2550033" lon="10.7499783"><ele>486.0</ele><time>2026-04-18T12:20:39.75Z</time></trkpt><trkpt lat="43.2551117" lon="10.7499683"><ele>483.8</ele><time>2026-04-18T12:20:40.744Z</time></trkpt><trkpt lat="43.2552317" lon="10.7499317"><ele>481.6</ele><time>2026-04-18T12:20:41.743Z</time></trkpt><trkpt lat="43.25533" lon="10.7498917"><ele>479.4</ele><time>2026-04-18T12:20:42.75Z</time></trkpt><trkpt lat="43.2554217" lon="10.7498617"><ele>477.2</ele><time>2026-04-18T12:20:43.748Z</time></trkpt><trkpt lat="43.2555017" lon="10.7498467"><ele>475.0</ele><time>2026-04-18T12:20:44.748Z</time></trkpt><trkpt lat="43.2555783" lon="10.7498517"><ele>474.2</ele><time>2026-04-18T12:20:45.746Z</time></trkpt><trkpt lat="43.2556517" lon="10.7498733"><ele>473.4</ele><time>2026-04-18T12:20:46.746Z</time></trkpt><trkpt lat="43.2557117" lon="10.74998"><ele>472.6</ele><time>2026-04-18T12:20:47.746Z</time></trkpt><trkpt lat="43.255765" lon="10.75011"><ele>471.8</ele><time>2026-04-18T12:20:48.744Z</time></trkpt><trkpt lat="43.255825" lon="10.75023"><ele>471.0</ele><time>2026-04-18T12:20:49.745Z</time></trkpt><trkpt lat="43.2559017" lon="10.7503283"><ele>471.0</ele><time>2026-04-18T12:20:50.742Z</time></trkpt><trkpt lat="43.2559867" lon="10.7504067"><ele>471.0</ele><time>2026-04-18T12:20:51.747Z</time></trkpt><trkpt lat="43.2560783" lon="10.7504517"><ele>471.0</ele><time>2026-04-18T12:20:52.744Z</time></trkpt><trkpt lat="43.2561717" lon="10.7504883"><ele>471.0</ele><time>2026-04-18T12:20:53.752Z</time></trkpt><trkpt lat="43.2562417" lon="10.7505517"><ele>471.0</ele><time>2026-04-18T12:20:54.751Z</time></trkpt><trkpt lat="43.2563183" lon="10.7506333"><ele>471.0</ele><time>2026-04-18T12:20:55.746Z</time></trkpt><trkpt lat="43.2563883" lon="10.7507483"><ele>471.0</ele><time>2026-04-18T12:20:56.747Z</time></trkpt><trkpt lat="43.25647" lon="10.750915"><ele>471.0</ele><time>2026-04-18T12:20:57.745Z</time></trkpt><trkpt lat="43.2565467" lon="10.7510917"><ele>471.0</ele><time>2026-04-18T12:20:58.744Z</time></trkpt><trkpt lat="43.2566317" lon="10.751255"><ele>469.0</ele><time>2026-04-18T12:20:59.74Z</time></trkpt><trkpt lat="43.2567083" lon="10.7514233"><ele>467.0</ele><time>2026-04-18T12:21:00.743Z</time></trkpt><trkpt lat="43.25678" lon="10.751565"><ele>465.0</ele><time>2026-04-18T12:21:01.749Z</time></trkpt><trkpt lat="43.2568617" lon="10.7516867"><ele>463.0</ele><time>2026-04-18T12:21:02.752Z</time></trkpt><trkpt lat="43.2569467" lon="10.7517867"><ele>462.5</ele><time>2026-04-18T12:21:03.749Z</time></trkpt><trkpt lat="43.2570367" lon="10.7518767"><ele>462.0</ele><time>2026-04-18T12:21:04.746Z</time></trkpt><trkpt lat="43.2571367" lon="10.75197"><ele>461.5</ele><time>2026-04-18T12:21:05.742Z</time></trkpt><trkpt lat="43.2572567" lon="10.7520617"><ele>461.0</ele><time>2026-04-18T12:21:06.742Z</time></trkpt><trkpt lat="43.2573733" lon="10.7521567"><ele>461.0</ele><time>2026-04-18T12:21:07.744Z</time></trkpt><trkpt lat="43.2574833" lon="10.7522433"><ele>461.0</ele><time>2026-04-18T12:21:08.748Z</time></trkpt><trkpt lat="43.2575867" lon="10.752315"><ele>461.0</ele><time>2026-04-18T12:21:09.747Z</time></trkpt><trkpt lat="43.2576867" lon="10.75237"><ele>461.0</ele><time>2026-04-18T12:21:10.745Z</time></trkpt><trkpt lat="43.2577917" lon="10.7524033"><ele>461.0</ele><time>2026-04-18T12:21:11.745Z</time></trkpt><trkpt lat="43.2579017" lon="10.75241"><ele>461.0</ele><time>2026-04-18T12:21:12.743Z</time></trkpt><trkpt lat="43.2580267" lon="10.7524017"><ele>461.0</ele><time>2026-04-18T12:21:13.749Z</time></trkpt><trkpt lat="43.258165" lon="10.75238"><ele>461.0</ele><time>2026-04-18T12:21:14.75Z</time></trkpt><trkpt lat="43.2582967" lon="10.7523583"><ele>462.25</ele><time>2026-04-18T12:21:15.745Z</time></trkpt><trkpt lat="43.2584283" lon="10.7523167"><ele>463.5</ele><time>2026-04-18T12:21:16.743Z</time></trkpt><trkpt lat="43.2585683" lon="10.7522467"><ele>464.75</ele><time>2026-04-18T12:21:17.743Z</time></trkpt><trkpt lat="43.25869" lon="10.752175"><ele>466.0</ele><time>2026-04-18T12:21:18.748Z</time></trkpt><trkpt lat="43.2588" lon="10.7521017"><ele>466.0</ele><time>2026-04-18T12:21:19.746Z</time></trkpt><trkpt lat="43.2589017" lon="10.75204"><ele>466.0</ele><time>2026-04-18T12:21:20.747Z</time></trkpt><trkpt lat="43.259005" lon="10.752005"><ele>466.0</ele><time>2026-04-18T12:21:21.75Z</time></trkpt><trkpt lat="43.2591133" lon="10.7519983"><ele>466.0</ele><time>2026-04-18T12:21:22.746Z</time></trkpt><trkpt lat="43.2592317" lon="10.7520117"><ele>466.0</ele><time>2026-04-18T12:21:23.748Z</time></trkpt><trkpt lat="43.259345" lon="10.752035"><ele>465.83333333333337</ele><time>2026-04-18T12:21:24.745Z</time></trkpt><trkpt lat="43.2594467" lon="10.752065"><ele>465.6666666666667</ele><time>2026-04-18T12:21:25.745Z</time></trkpt><trkpt lat="43.2595233" lon="10.7521033"><ele>465.5</ele><time>2026-04-18T12:21:26.745Z</time></trkpt><trkpt lat="43.259595" lon="10.7521467"><ele>465.33333333333337</ele><time>2026-04-18T12:21:27.744Z</time></trkpt><trkpt lat="43.2596567" lon="10.7522083"><ele>465.1666666666667</ele><time>2026-04-18T12:21:28.748Z</time></trkpt><trkpt lat="43.259665" lon="10.752315"><ele>465.0</ele><time>2026-04-18T12:21:29.748Z</time></trkpt><trkpt lat="43.2596683" lon="10.7524283"><ele>465.0</ele><time>2026-04-18T12:21:30.744Z</time></trkpt><trkpt lat="43.2596533" lon="10.75255"><ele>465.0</ele><time>2026-04-18T12:21:31.744Z</time></trkpt><trkpt lat="43.2596033" lon="10.752715"><ele>465.0</ele><time>2026-04-18T12:21:32.746Z</time></trkpt><trkpt lat="43.2595433" lon="10.75287"><ele>465.0</ele><time>2026-04-18T12:21:33.742Z</time></trkpt><trkpt lat="43.259505" lon="10.752995"><ele>465.0</ele><time>2026-04-18T12:21:34.743Z</time></trkpt><trkpt lat="43.2594933" lon="10.753095"><ele>463.0</ele><time>2026-04-18T12:21:35.747Z</time></trkpt><trkpt lat="43.25949" lon="10.7532283"><ele>461.0</ele><time>2026-04-18T12:21:36.749Z</time></trkpt><trkpt lat="43.259505" lon="10.753355"><ele>459.0</ele><time>2026-04-18T12:21:37.749Z</time></trkpt><trkpt lat="43.2595467" lon="10.7534767"><ele>457.0</ele><time>2026-04-18T12:21:38.749Z</time></trkpt><trkpt lat="43.2596317" lon="10.7536167"><ele>455.0</ele><time>2026-04-18T12:21:39.744Z</time></trkpt><trkpt lat="43.2597183" lon="10.7537367"><ele>455.75</ele><time>2026-04-18T12:21:40.743Z</time></trkpt><trkpt lat="43.2598133" lon="10.7538467"><ele>456.5</ele><time>2026-04-18T12:21:41.746Z</time></trkpt><trkpt lat="43.2599183" lon="10.7539417"><ele>457.25</ele><time>2026-04-18T12:21:42.744Z</time></trkpt><trkpt lat="43.2600367" lon="10.7540267"><ele>458.0</ele><time>2026-04-18T12:21:43.744Z</time></trkpt><trkpt lat="43.2601683" lon="10.7540933"><ele>458.0</ele><time>2026-04-18T12:21:44.744Z</time></trkpt><trkpt lat="43.260295" lon="10.754135"><ele>458.0</ele><time>2026-04-18T12:21:45.744Z</time></trkpt><trkpt lat="43.2604133" lon="10.75415"><ele>458.0</ele><time>2026-04-18T12:21:46.746Z</time></trkpt><trkpt lat="43.26053" lon="10.754135"><ele>458.0</ele><time>2026-04-18T12:21:47.749Z</time></trkpt><trkpt lat="43.2606433" lon="10.7541033"><ele>458.0</ele><time>2026-04-18T12:21:48.747Z</time></trkpt><trkpt lat="43.2607467" lon="10.7540633"><ele>458.0</ele><time>2026-04-18T12:21:49.747Z</time></trkpt><trkpt lat="43.2608333" lon="10.75402"><ele>458.0</ele><time>2026-04-18T12:21:50.746Z</time></trkpt><trkpt lat="43.2589017" lon="10.75204"><ele>459.4</ele><time>2026-04-18T12:21:20.747Z</time></trkpt><trkpt lat="43.259005" lon="10.752005"><ele>460.79999999999995</ele><time>2026-04-18T12:21:21.75Z</time></trkpt><trkpt lat="43.2591133" lon="10.7519983"><ele>462.2</ele><time>2026-04-18T12:21:22.746Z</time></trkpt><trkpt lat="43.2592317" lon="10.7520117"><ele>463.6</ele><time>2026-04-18T12:21:23.748Z</time></trkpt><trkpt lat="43.259345" lon="10.752035"><ele>465.0</ele><time>2026-04-18T12:21:24.745Z</time></trkpt><trkpt lat="43.2594467" lon="10.752065"><ele>465.0</ele><time>2026-04-18T12:21:25.745Z</time></trkpt><trkpt lat="43.2595233" lon="10.7521033"><ele>465.0</ele><time>2026-04-18T12:21:26.745Z</time></trkpt><trkpt lat="43.259595" lon="10.7521467"><ele>465.0</ele><time>2026-04-18T12:21:27.744Z</time></trkpt><trkpt lat="43.2596567" lon="10.7522083"><ele>465.0</ele><time>2026-04-18T12:21:28.748Z</time></trkpt><trkpt lat="43.259665" lon="10.752315"><ele>465.0</ele><time>2026-04-18T12:21:29.748Z</time></trkpt><trkpt lat="43.2596683" lon="10.7524283"><ele>465.0</ele><time>2026-04-18T12:21:30.744Z</time></trkpt><trkpt lat="43.2596533" lon="10.75255"><ele>463.0</ele><time>2026-04-18T12:21:31.744Z</time></trkpt><trkpt lat="43.2596033" lon="10.752715"><ele>461.0</ele><time>2026-04-18T12:21:32.746Z</time></trkpt><trkpt lat="43.2595433" lon="10.75287"><ele>459.0</ele><time>2026-04-18T12:21:33.742Z</time></trkpt><trkpt lat="43.259505" lon="10.752995"><ele>457.0</ele><time>2026-04-18T12:21:34.743Z</time></trkpt><trkpt lat="43.2594933" lon="10.753095"><ele>455.0</ele><time>2026-04-18T12:21:35.747Z</time></trkpt><trkpt lat="43.25949" lon="10.7532283"><ele>455.0</ele><time>2026-04-18T12:21:36.749Z</time></trkpt><trkpt lat="43.259505" lon="10.753355"><ele>455.0</ele><time>2026-04-18T12:21:37.749Z</time></trkpt><trkpt lat="43.2595467" lon="10.7534767"><ele>455.0</ele><time>2026-04-18T12:21:38.749Z</time></trkpt><trkpt lat="43.2596317" lon="10.7536167"><ele>455.0</ele><time>2026-04-18T12:21:39.744Z</time></trkpt><trkpt lat="43.2597183" lon="10.7537367"><ele>455.0</ele><time>2026-04-18T12:21:40.743Z</time></trkpt><trkpt lat="43.2598133" lon="10.7538467"><ele>455.75</ele><time>2026-04-18T12:21:41.746Z</time></trkpt><trkpt lat="43.2599183" lon="10.7539417"><ele>456.5</ele><time>2026-04-18T12:21:42.744Z</time></trkpt><trkpt lat="43.2600367" lon="10.7540267"><ele>457.25</ele><time>2026-04-18T12:21:43.744Z</time></trkpt><trkpt lat="43.2601683" lon="10.7540933"><ele>458.0</ele><time>2026-04-18T12:21:44.744Z</time></trkpt><trkpt lat="43.260295" lon="10.754135"><ele>458.0</ele><time>2026-04-18T12:21:45.744Z</time></trkpt><trkpt lat="43.2604133" lon="10.75415"><ele>458.0</ele><time>2026-04-18T12:21:46.746Z</time></trkpt><trkpt lat="43.26053" lon="10.754135"><ele>458.0</ele><time>2026-04-18T12:21:47.749Z</time></trkpt><trkpt lat="43.2606433" lon="10.7541033"><ele>458.0</ele><time>2026-04-18T12:21:48.747Z</time></trkpt><trkpt lat="43.2607467" lon="10.7540633"><ele>457.99999999999994</ele><time>2026-04-18T12:21:49.747Z</time></trkpt><trkpt lat="43.2608333" lon="10.75402"><ele>458.0</ele><time>2026-04-18T12:21:50.746Z</time></trkpt><trkpt lat="43.2609033" lon="10.7539617"><ele>458.0</ele><time>2026-04-18T12:21:51.749Z</time></trkpt><trkpt lat="43.2609667" lon="10.75389"><ele>458.0</ele><time>2026-04-18T12:21:52.742Z</time></trkpt><trkpt lat="43.2610067" lon="10.7537917"><ele>457.99999999999994</ele><time>2026-04-18T12:21:53.75Z</time></trkpt><trkpt lat="43.2610567" lon="10.7536967"><ele>458.0</ele><time>2026-04-18T12:21:54.745Z</time></trkpt><trkpt lat="43.2611133" lon="10.7536133"><ele>458.0</ele><time>2026-04-18T12:21:55.743Z</time></trkpt><trkpt lat="43.2611733" lon="10.7535467"><ele>457.99999999999994</ele><time>2026-04-18T12:21:56.743Z</time></trkpt><trkpt lat="43.26124" lon="10.75349"><ele>457.99999999999994</ele><time>2026-04-18T12:21:57.743Z</time></trkpt><trkpt lat="43.26132" lon="10.7534333"><ele>458.0</ele><time>2026-04-18T12:21:58.742Z</time></trkpt><trkpt lat="43.261425" lon="10.75335"><ele>458.0</ele><time>2026-04-18T12:21:59.749Z</time></trkpt><trkpt lat="43.2615133" lon="10.7532467"><ele>459.59999999999997</ele><time>2026-04-18T12:22:00.745Z</time></trkpt><trkpt lat="43.2615983" lon="10.7531583"><ele>461.19999999999993</ele><time>2026-04-18T12:22:01.745Z</time></trkpt><trkpt lat="43.2616767" lon="10.753085"><ele>462.8</ele><time>2026-04-18T12:22:02.745Z</time></trkpt><trkpt lat="43.261745" lon="10.753015"><ele>464.4</ele><time>2026-04-18T12:22:03.747Z</time></trkpt><trkpt lat="43.2618217" lon="10.7529717"><ele>466.0</ele><time>2026-04-18T12:22:04.748Z</time></trkpt><trkpt lat="43.2619367" lon="10.7529833"><ele>466.0</ele><time>2026-04-18T12:22:05.746Z</time></trkpt><trkpt lat="43.2620467" lon="10.7530583"><ele>466.0</ele><time>2026-04-18T12:22:06.749Z</time></trkpt><trkpt lat="43.2621433" lon="10.7531417"><ele>466.0</ele><time>2026-04-18T12:22:07.743Z</time></trkpt><trkpt lat="43.26223" lon="10.75321"><ele>466.0</ele><time>2026-04-18T12:22:08.754Z</time></trkpt><trkpt lat="43.262305" lon="10.753245"><ele>466.0</ele><time>2026-04-18T12:22:09.743Z</time></trkpt><trkpt lat="43.26237" lon="10.7532483"><ele>464.8</ele><time>2026-04-18T12:22:10.745Z</time></trkpt><trkpt lat="43.2624533" lon="10.7532133"><ele>463.6</ele><time>2026-04-18T12:22:11.752Z</time></trkpt><trkpt lat="43.2625417" lon="10.753195"><ele>462.4</ele><time>2026-04-18T12:22:12.749Z</time></trkpt><trkpt lat="43.2626283" lon="10.7532"><ele>461.2</ele><time>2026-04-18T12:22:13.743Z</time></trkpt><trkpt lat="43.2627267" lon="10.753265"><ele>460.0</ele><time>2026-04-18T12:22:14.747Z</time></trkpt><trkpt lat="43.2628267" lon="10.7533517"><ele>460.0</ele><time>2026-04-18T12:22:15.742Z</time></trkpt><trkpt lat="43.26295" lon="10.75342"><ele>460.0</ele><time>2026-04-18T12:22:16.746Z</time></trkpt><trkpt lat="43.26309" lon="10.7534717"><ele>460.0</ele><time>2026-04-18T12:22:17.75Z</time></trkpt><trkpt lat="43.2632267" lon="10.7535117"><ele>460.0</ele><time>2026-04-18T12:22:18.746Z</time></trkpt><trkpt lat="43.2633433" lon="10.75356"><ele>456.5</ele><time>2026-04-18T12:22:19.748Z</time></trkpt><trkpt lat="43.2634483" lon="10.7536117"><ele>453.0</ele><time>2026-04-18T12:22:20.751Z</time></trkpt><trkpt lat="43.263545" lon="10.753695"><ele>449.5</ele><time>2026-04-18T12:22:21.744Z</time></trkpt><trkpt lat="43.26364" lon="10.753815"><ele>446.0</ele><time>2026-04-18T12:22:22.748Z</time></trkpt><trkpt lat="43.26373" lon="10.75396"><ele>446.0</ele><time>2026-04-18T12:22:23.745Z</time></trkpt><trkpt lat="43.2637783" lon="10.75416"><ele>446.0</ele><time>2026-04-18T12:22:24.743Z</time></trkpt><trkpt lat="43.263825" lon="10.754345"><ele>446.0</ele><time>2026-04-18T12:22:25.749Z</time></trkpt><trkpt lat="43.26388" lon="10.754495"><ele>446.0</ele><time>2026-04-18T12:22:26.745Z</time></trkpt><trkpt lat="43.26393" lon="10.7546233"><ele>447.6</ele><time>2026-04-18T12:22:27.743Z</time></trkpt><trkpt lat="43.263995" lon="10.7547167"><ele>449.20000000000005</ele><time>2026-04-18T12:22:28.743Z</time></trkpt><trkpt lat="43.2640733" lon="10.7547783"><ele>450.79999999999995</ele><time>2026-04-18T12:22:29.742Z</time></trkpt><trkpt lat="43.264175" lon="10.7548217"><ele>452.4</ele><time>2026-04-18T12:22:30.741Z</time></trkpt><trkpt lat="43.26431" lon="10.75486"><ele>454.0</ele><time>2026-04-18T12:22:31.75Z</time></trkpt><trkpt lat="43.2644517" lon="10.754895"><ele>454.0</ele><time>2026-04-18T12:22:32.745Z</time></trkpt><trkpt lat="43.26459" lon="10.7549433"><ele>454.0</ele><time>2026-04-18T12:22:33.746Z</time></trkpt><trkpt lat="43.264725" lon="10.7549933"><ele>454.0</ele><time>2026-04-18T12:22:34.746Z</time></trkpt><trkpt lat="43.2648433" lon="10.75504"><ele>454.0</ele><time>2026-04-18T12:22:35.744Z</time></trkpt><trkpt lat="43.2649567" lon="10.7550767"><ele>455.79999999999995</ele><time>2026-04-18T12:22:36.745Z</time></trkpt><trkpt lat="43.2650567" lon="10.7551017"><ele>457.59999999999997</ele><time>2026-04-18T12:22:37.743Z</time></trkpt><trkpt lat="43.2651583" lon="10.7551083"><ele>459.4</ele><time>2026-04-18T12:22:38.749Z</time></trkpt><trkpt lat="43.2652683" lon="10.7550917"><ele>461.2</ele><time>2026-04-18T12:22:39.744Z</time></trkpt><trkpt lat="43.265385" lon="10.7550583"><ele>463.0</ele><time>2026-04-18T12:22:40.745Z</time></trkpt><trkpt lat="43.2655033" lon="10.7550317"><ele>460.0</ele><time>2026-04-18T12:22:41.746Z</time></trkpt><trkpt lat="43.265625" lon="10.7550167"><ele>457.0</ele><time>2026-04-18T12:22:42.742Z</time></trkpt><trkpt lat="43.2657483" lon="10.7550017"><ele>454.0</ele><time>2026-04-18T12:22:43.746Z</time></trkpt><trkpt lat="43.2658733" lon="10.75498"><ele>451.0</ele><time>2026-04-18T12:22:44.744Z</time></trkpt><trkpt lat="43.2659917" lon="10.754945"><ele>451.0</ele><time>2026-04-18T12:22:45.744Z</time></trkpt><trkpt lat="43.266105" lon="10.754915"><ele>451.0</ele><time>2026-04-18T12:22:46.75Z</time></trkpt><trkpt lat="43.2662233" lon="10.7549017"><ele>451.0</ele><time>2026-04-18T12:22:47.745Z</time></trkpt><trkpt lat="43.26634" lon="10.75492"><ele>451.0</ele><time>2026-04-18T12:22:48.745Z</time></trkpt><trkpt lat="43.26646" lon="10.75498"><ele>448.75</ele><time>2026-04-18T12:22:49.749Z</time></trkpt><trkpt lat="43.2665833" lon="10.755065"><ele>446.5</ele><time>2026-04-18T12:22:50.75Z</time></trkpt><trkpt lat="43.26672" lon="10.7551633"><ele>444.25</ele><time>2026-04-18T12:22:51.747Z</time></trkpt><trkpt lat="43.2668583" lon="10.7552617"><ele>442.0</ele><time>2026-04-18T12:22:52.744Z</time></trkpt><trkpt lat="43.2669917" lon="10.755345"><ele>442.0</ele><time>2026-04-18T12:22:53.746Z</time></trkpt><trkpt lat="43.2671183" lon="10.7554067"><ele>442.0</ele><time>2026-04-18T12:22:54.752Z</time></trkpt><trkpt lat="43.2672367" lon="10.75545"><ele>442.0</ele><time>2026-04-18T12:22:55.749Z</time></trkpt><trkpt lat="43.2673483" lon="10.7554617"><ele>442.0</ele><time>2026-04-18T12:22:56.746Z</time></trkpt><trkpt lat="43.267455" lon="10.7554433"><ele>442.0</ele><time>2026-04-18T12:22:57.747Z</time></trkpt><trkpt lat="43.2675633" lon="10.7553917"><ele>442.0</ele><time>2026-04-18T12:22:58.743Z</time></trkpt><trkpt lat="43.2676683" lon="10.755305"><ele>442.0</ele><time>2026-04-18T12:22:59.746Z</time></trkpt><trkpt lat="43.2677617" lon="10.7552067"><ele>442.0</ele><time>2026-04-18T12:23:00.746Z</time></trkpt><trkpt lat="43.2678433" lon="10.7551117"><ele>442.20000000000005</ele><time>2026-04-18T12:23:01.745Z</time></trkpt><trkpt lat="43.2679167" lon="10.7550433"><ele>442.40000000000003</ele><time>2026-04-18T12:23:02.747Z</time></trkpt><trkpt lat="43.2679833" lon="10.7550067"><ele>442.59999999999997</ele><time>2026-04-18T12:23:03.744Z</time></trkpt><trkpt lat="43.2681017" lon="10.7550217"><ele>442.79999999999995</ele><time>2026-04-18T12:23:05.744Z</time></trkpt><trkpt lat="43.26817" lon="10.7550817"><ele>443.0</ele><time>2026-04-18T12:23:06.744Z</time></trkpt><trkpt lat="43.2682317" lon="10.7552167"><ele>443.0</ele><time>2026-04-18T12:23:07.744Z</time></trkpt><trkpt lat="43.2683117" lon="10.7553667"><ele>443.0</ele><time>2026-04-18T12:23:08.755Z</time></trkpt><trkpt lat="43.2684167" lon="10.7555367"><ele>443.0</ele><time>2026-04-18T12:23:09.742Z</time></trkpt><trkpt lat="43.26855" lon="10.755715"><ele>443.0</ele><time>2026-04-18T12:23:10.752Z</time></trkpt><trkpt lat="43.2687" lon="10.75589"><ele>443.0</ele><time>2026-04-18T12:23:11.747Z</time></trkpt><trkpt lat="43.268845" lon="10.75606"><ele>443.0</ele><time>2026-04-18T12:23:12.747Z</time></trkpt><trkpt lat="43.26899" lon="10.756215"><ele>442.0</ele><time>2026-04-18T12:23:13.746Z</time></trkpt><trkpt lat="43.2691417" lon="10.75636"><ele>441.0</ele><time>2026-04-18T12:23:14.743Z</time></trkpt><trkpt lat="43.269295" lon="10.7564967"><ele>440.0</ele><time>2026-04-18T12:23:15.743Z</time></trkpt><trkpt lat="43.269445" lon="10.7566117"><ele>440.0</ele><time>2026-04-18T12:23:16.74Z</time></trkpt><trkpt lat="43.2695867" lon="10.7567083"><ele>440.0</ele><time>2026-04-18T12:23:17.742Z</time></trkpt><trkpt lat="43.2697083" lon="10.75678"><ele>440.0</ele><time>2026-04-18T12:23:18.743Z</time></trkpt><trkpt lat="43.26983" lon="10.7568217"><ele>440.0</ele><time>2026-04-18T12:23:19.744Z</time></trkpt><trkpt lat="43.2699617" lon="10.7568367"><ele>440.25</ele><time>2026-04-18T12:23:20.758Z</time></trkpt><trkpt lat="43.2701083" lon="10.756845"><ele>440.5</ele><time>2026-04-18T12:23:21.746Z</time></trkpt><trkpt lat="43.2702517" lon="10.7568667"><ele>440.75</ele><time>2026-04-18T12:23:22.751Z</time></trkpt><trkpt lat="43.2703867" lon="10.75691"><ele>441.0</ele><time>2026-04-18T12:23:23.749Z</time></trkpt><trkpt lat="43.270515" lon="10.7569767"><ele>443.4</ele><time>2026-04-18T12:23:24.748Z</time></trkpt><trkpt lat="43.2706217" lon="10.7570583"><ele>445.8</ele><time>2026-04-18T12:23:25.747Z</time></trkpt><trkpt lat="43.2707117" lon="10.75714"><ele>448.19999999999993</ele><time>2026-04-18T12:23:26.746Z</time></trkpt><trkpt lat="43.2707683" lon="10.7572317"><ele>450.59999999999997</ele><time>2026-04-18T12:23:27.743Z</time></trkpt><trkpt lat="43.2708067" lon="10.7573317"><ele>453.0</ele><time>2026-04-18T12:23:28.745Z</time></trkpt><trkpt lat="43.2708183" lon="10.7574483"><ele>453.0</ele><time>2026-04-18T12:23:29.746Z</time></trkpt><trkpt lat="43.27081" lon="10.7575817"><ele>452.99999999999994</ele><time>2026-04-18T12:23:30.744Z</time></trkpt><trkpt lat="43.2708017" lon="10.7577167"><ele>452.99999999999994</ele><time>2026-04-18T12:23:31.749Z</time></trkpt><trkpt lat="43.270815" lon="10.75784"><ele>453.0</ele><time>2026-04-18T12:23:32.749Z</time></trkpt><trkpt lat="43.270845" lon="10.7579667"><ele>453.0</ele><time>2026-04-18T12:23:33.745Z</time></trkpt><trkpt lat="43.2708883" lon="10.758095"><ele>453.59999999999997</ele><time>2026-04-18T12:23:34.746Z</time></trkpt><trkpt lat="43.2709317" lon="10.758225"><ele>454.19999999999993</ele><time>2026-04-18T12:23:35.744Z</time></trkpt><trkpt lat="43.2709567" lon="10.758345"><ele>454.8</ele><time>2026-04-18T12:23:36.745Z</time></trkpt><trkpt lat="43.2709567" lon="10.7584667"><ele>455.4</ele><time>2026-04-18T12:23:37.746Z</time></trkpt><trkpt lat="43.2709333" lon="10.7586033"><ele>456.0</ele><time>2026-04-18T12:23:38.744Z</time></trkpt><trkpt lat="43.2709067" lon="10.7587533"><ele>456.8</ele><time>2026-04-18T12:23:39.743Z</time></trkpt><trkpt lat="43.2708717" lon="10.7589083"><ele>457.6</ele><time>2026-04-18T12:23:40.743Z</time></trkpt><trkpt lat="43.2708333" lon="10.7590433"><ele>458.4</ele><time>2026-04-18T12:23:41.747Z</time></trkpt><trkpt lat="43.27079" lon="10.7591583"><ele>459.2</ele><time>2026-04-18T12:23:42.745Z</time></trkpt><trkpt lat="43.27076" lon="10.75926"><ele>460.0</ele><time>2026-04-18T12:23:43.741Z</time></trkpt><trkpt lat="43.2707467" lon="10.7593567"><ele>460.2</ele><time>2026-04-18T12:23:44.751Z</time></trkpt><trkpt lat="43.270745" lon="10.7594517"><ele>460.4</ele><time>2026-04-18T12:23:45.745Z</time></trkpt><trkpt lat="43.2707633" lon="10.7595667"><ele>460.6</ele><time>2026-04-18T12:23:46.743Z</time></trkpt><trkpt lat="43.2707917" lon="10.7597"><ele>460.8</ele><time>2026-04-18T12:23:47.747Z</time></trkpt><trkpt lat="43.2708117" lon="10.759845"><ele>461.0</ele><time>2026-04-18T12:23:48.746Z</time></trkpt><trkpt lat="43.270815" lon="10.7600033"><ele>461.0</ele><time>2026-04-18T12:23:49.751Z</time></trkpt><trkpt lat="43.2708017" lon="10.7601717"><ele>461.0</ele><time>2026-04-18T12:23:50.746Z</time></trkpt><trkpt lat="43.2707833" lon="10.7603517"><ele>461.0</ele><time>2026-04-18T12:23:51.746Z</time></trkpt><trkpt lat="43.270775" lon="10.7605333"><ele>461.0</ele><time>2026-04-18T12:23:52.743Z</time></trkpt><trkpt lat="43.2707717" lon="10.760705"><ele>460.99999999999994</ele><time>2026-04-18T12:23:53.744Z</time></trkpt><trkpt lat="43.2707667" lon="10.7608533"><ele>461.0</ele><time>2026-04-18T12:23:54.744Z</time></trkpt><trkpt lat="43.2707617" lon="10.760975"><ele>461.0</ele><time>2026-04-18T12:23:55.746Z</time></trkpt><trkpt lat="43.27077" lon="10.7610717"><ele>461.0</ele><time>2026-04-18T12:23:56.747Z</time></trkpt><trkpt lat="43.2707983" lon="10.7611517"><ele>460.99999999999994</ele><time>2026-04-18T12:23:57.747Z</time></trkpt><trkpt lat="43.2708567" lon="10.761215"><ele>461.0</ele><time>2026-04-18T12:23:58.747Z</time></trkpt><trkpt lat="43.2709367" lon="10.7612633"><ele>461.0</ele><time>2026-04-18T12:23:59.746Z</time></trkpt><trkpt lat="43.271035" lon="10.7612967"><ele>461.0</ele><time>2026-04-18T12:24:00.744Z</time></trkpt><trkpt lat="43.2711417" lon="10.76131"><ele>461.0</ele><time>2026-04-18T12:24:01.745Z</time></trkpt><trkpt lat="43.2712533" lon="10.761305"><ele>461.0</ele><time>2026-04-18T12:24:02.742Z</time></trkpt><trkpt lat="43.2713667" lon="10.7612883"><ele>461.0</ele><time>2026-04-18T12:24:03.742Z</time></trkpt><trkpt lat="43.2714717" lon="10.7612583"><ele>460.3333333333333</ele><time>2026-04-18T12:24:04.747Z</time></trkpt><trkpt lat="43.2715567" lon="10.761215"><ele>459.66666666666663</ele><time>2026-04-18T12:24:05.748Z</time></trkpt><trkpt lat="43.271625" lon="10.7611617"><ele>459.0</ele><time>2026-04-18T12:24:06.751Z</time></trkpt><trkpt lat="43.2716717" lon="10.7610917"><ele>458.33333333333337</ele><time>2026-04-18T12:24:07.743Z</time></trkpt><trkpt lat="43.2717067" lon="10.7610017"><ele>457.6666666666667</ele><time>2026-04-18T12:24:08.748Z</time></trkpt><trkpt lat="43.27173" lon="10.7608883"><ele>457.0</ele><time>2026-04-18T12:24:09.743Z</time></trkpt><trkpt lat="43.2717517" lon="10.7607617"><ele>460.6</ele><time>2026-04-18T12:24:10.744Z</time></trkpt><trkpt lat="43.2717783" lon="10.76063"><ele>464.20000000000005</ele><time>2026-04-18T12:24:11.742Z</time></trkpt><trkpt lat="43.2718067" lon="10.7605033"><ele>467.8</ele><time>2026-04-18T12:24:12.746Z</time></trkpt><trkpt lat="43.271845" lon="10.7603917"><ele>471.4</ele><time>2026-04-18T12:24:13.744Z</time></trkpt><trkpt lat="43.27189" lon="10.7602917"><ele>475.0</ele><time>2026-04-18T12:24:14.746Z</time></trkpt><trkpt lat="43.271945" lon="10.7602"><ele>475.6</ele><time>2026-04-18T12:24:15.746Z</time></trkpt><trkpt lat="43.2720117" lon="10.76012"><ele>476.2</ele><time>2026-04-18T12:24:16.742Z</time></trkpt><trkpt lat="43.27208" lon="10.7600633"><ele>476.79999999999995</ele><time>2026-04-18T12:24:17.747Z</time></trkpt><trkpt lat="43.2721583" lon="10.76003"><ele>477.4</ele><time>2026-04-18T12:24:18.747Z</time></trkpt><trkpt lat="43.2722533" lon="10.76002"><ele>478.0</ele><time>2026-04-18T12:24:19.748Z</time></trkpt><trkpt lat="43.27238" lon="10.7600517"><ele>479.0</ele><time>2026-04-18T12:24:20.749Z</time></trkpt><trkpt lat="43.272505" lon="10.76009"><ele>479.99999999999994</ele><time>2026-04-18T12:24:21.752Z</time></trkpt><trkpt lat="43.272615" lon="10.7601183"><ele>480.99999999999994</ele><time>2026-04-18T12:24:22.749Z</time></trkpt><trkpt lat="43.2727117" lon="10.7601283"><ele>482.0</ele><time>2026-04-18T12:24:23.75Z</time></trkpt><trkpt lat="43.272805" lon="10.7601133"><ele>483.0</ele><time>2026-04-18T12:24:24.748Z</time></trkpt><trkpt lat="43.2728883" lon="10.7600683"><ele>483.0</ele><time>2026-04-18T12:24:25.743Z</time></trkpt><trkpt lat="43.2729667" lon="10.7599833"><ele>483.0</ele><time>2026-04-18T12:24:26.747Z</time></trkpt><trkpt lat="43.2730533" lon="10.7598817"><ele>483.0</ele><time>2026-04-18T12:24:27.745Z</time></trkpt><trkpt lat="43.2731467" lon="10.7597683"><ele>483.0</ele><time>2026-04-18T12:24:28.748Z</time></trkpt><trkpt lat="43.2732333" lon="10.759655"><ele>483.1666666666667</ele><time>2026-04-18T12:24:29.742Z</time></trkpt><trkpt lat="43.2733067" lon="10.7595617"><ele>483.33333333333337</ele><time>2026-04-18T12:24:30.744Z</time></trkpt><trkpt lat="43.27337" lon="10.759475"><ele>483.5</ele><time>2026-04-18T12:24:31.747Z</time></trkpt><trkpt lat="43.2734283" lon="10.7593967"><ele>483.6666666666667</ele><time>2026-04-18T12:24:32.75Z</time></trkpt><trkpt lat="43.27349" lon="10.7593283"><ele>483.83333333333337</ele><time>2026-04-18T12:24:33.746Z</time></trkpt><trkpt lat="43.2735517" lon="10.7592817"><ele>484.0</ele><time>2026-04-18T12:24:34.743Z</time></trkpt><trkpt lat="43.2736483" lon="10.7592117"><ele>484.0</ele><time>2026-04-18T12:24:36.745Z</time></trkpt><trkpt lat="43.273775" lon="10.7591533"><ele>484.0</ele><time>2026-04-18T12:24:38.747Z</time></trkpt><trkpt lat="43.2738667" lon="10.7591283"><ele>484.0</ele><time>2026-04-18T12:24:39.749Z</time></trkpt><trkpt lat="43.2739733" lon="10.7591"><ele>484.0</ele><time>2026-04-18T12:24:40.747Z</time></trkpt><trkpt lat="43.274095" lon="10.7590567"><ele>486.2</ele><time>2026-04-18T12:24:41.747Z</time></trkpt><trkpt lat="43.2742117" lon="10.7590067"><ele>488.4</ele><time>2026-04-18T12:24:42.749Z</time></trkpt><trkpt lat="43.2743133" lon="10.7589633"><ele>490.6</ele><time>2026-04-18T12:24:43.744Z</time></trkpt><trkpt lat="43.2744083" lon="10.758935"><ele>492.8</ele><time>2026-04-18T12:24:44.745Z</time></trkpt><trkpt lat="43.2745" lon="10.7589217"><ele>495.0</ele><time>2026-04-18T12:24:45.743Z</time></trkpt><trkpt lat="43.2745933" lon="10.758925"><ele>495.0</ele><time>2026-04-18T12:24:46.743Z</time></trkpt><trkpt lat="43.2746817" lon="10.758945"><ele>495.0</ele><time>2026-04-18T12:24:47.746Z</time></trkpt><trkpt lat="43.2747633" lon="10.7589633"><ele>495.0</ele><time>2026-04-18T12:24:48.742Z</time></trkpt><trkpt lat="43.2748367" lon="10.7589633"><ele>495.0</ele><time>2026-04-18T12:24:49.744Z</time></trkpt><trkpt lat="43.274905" lon="10.758935"><ele>495.0</ele><time>2026-04-18T12:24:50.747Z</time></trkpt><trkpt lat="43.2749683" lon="10.758875"><ele>495.0</ele><time>2026-04-18T12:24:51.749Z</time></trkpt><trkpt lat="43.2750283" lon="10.7588017"><ele>494.6666666666667</ele><time>2026-04-18T12:24:52.746Z</time></trkpt><trkpt lat="43.2750867" lon="10.7587267"><ele>494.33333333333337</ele><time>2026-04-18T12:24:53.751Z</time></trkpt><trkpt lat="43.275145" lon="10.7586583"><ele>494.0</ele><time>2026-04-18T12:24:54.75Z</time></trkpt><trkpt lat="43.27521" lon="10.758615"><ele>493.6666666666667</ele><time>2026-04-18T12:24:55.745Z</time></trkpt><trkpt lat="43.27528" lon="10.7585983"><ele>493.33333333333337</ele><time>2026-04-18T12:24:56.746Z</time></trkpt><trkpt lat="43.2753717" lon="10.7586533"><ele>493.0</ele><time>2026-04-18T12:24:57.745Z</time></trkpt><trkpt lat="43.2754717" lon="10.75872"><ele>493.00000000000006</ele><time>2026-04-18T12:24:58.744Z</time></trkpt><trkpt lat="43.2755717" lon="10.75878"><ele>493.0</ele><time>2026-04-18T12:24:59.744Z</time></trkpt><trkpt lat="43.2756617" lon="10.75882"><ele>493.0</ele><time>2026-04-18T12:25:00.742Z</time></trkpt><trkpt lat="43.2757467" lon="10.7588383"><ele>493.0</ele><time>2026-04-18T12:25:01.743Z</time></trkpt><trkpt lat="43.2758233" lon="10.758835"><ele>493.00000000000006</ele><time>2026-04-18T12:25:02.747Z</time></trkpt><trkpt lat="43.275895" lon="10.7588083"><ele>493.0</ele><time>2026-04-18T12:25:03.743Z</time></trkpt><trkpt lat="43.275955" lon="10.758755"><ele>492.2</ele><time>2026-04-18T12:25:04.743Z</time></trkpt><trkpt lat="43.2760083" lon="10.7586783"><ele>491.4</ele><time>2026-04-18T12:25:05.745Z</time></trkpt><trkpt lat="43.2760433" lon="10.7585733"><ele>490.59999999999997</ele><time>2026-04-18T12:25:06.746Z</time></trkpt><trkpt lat="43.2760417" lon="10.7584133"><ele>489.79999999999995</ele><time>2026-04-18T12:25:07.746Z</time></trkpt><trkpt lat="43.2760417" lon="10.7582383"><ele>489.0</ele><time>2026-04-18T12:25:08.744Z</time></trkpt><trkpt lat="43.2760467" lon="10.7580617"><ele>489.0</ele><time>2026-04-18T12:25:09.741Z</time></trkpt><trkpt lat="43.2760533" lon="10.7579017"><ele>489.0</ele><time>2026-04-18T12:25:10.744Z</time></trkpt><trkpt lat="43.2760667" lon="10.75777"><ele>489.0</ele><time>2026-04-18T12:25:11.744Z</time></trkpt><trkpt lat="43.27609" lon="10.7576467"><ele>489.0</ele><time>2026-04-18T12:25:12.743Z</time></trkpt><trkpt lat="43.2761283" lon="10.757525"><ele>489.0</ele><time>2026-04-18T12:25:13.748Z</time></trkpt><trkpt lat="43.2761883" lon="10.757405"><ele>489.0</ele><time>2026-04-18T12:25:14.748Z</time></trkpt><trkpt lat="43.2762467" lon="10.757295"><ele>489.0</ele><time>2026-04-18T12:25:15.747Z</time></trkpt><trkpt lat="43.2762967" lon="10.7571983"><ele>489.0</ele><time>2026-04-18T12:25:16.746Z</time></trkpt><trkpt lat="43.2763483" lon="10.7571067"><ele>489.0</ele><time>2026-04-18T12:25:17.745Z</time></trkpt><trkpt lat="43.2764033" lon="10.7570317"><ele>489.0</ele><time>2026-04-18T12:25:18.742Z</time></trkpt><trkpt lat="43.276475" lon="10.7569783"><ele>489.0</ele><time>2026-04-18T12:25:19.743Z</time></trkpt><trkpt lat="43.2765767" lon="10.756955"><ele>484.66666666666663</ele><time>2026-04-18T12:25:20.744Z</time></trkpt><trkpt lat="43.27672" lon="10.7569517"><ele>480.3333333333333</ele><time>2026-04-18T12:25:21.746Z</time></trkpt><trkpt lat="43.2768717" lon="10.7569283"><ele>476.0</ele><time>2026-04-18T12:25:22.75Z</time></trkpt><trkpt lat="43.2770233" lon="10.7568867"><ele>475.75</ele><time>2026-04-18T12:25:23.742Z</time></trkpt><trkpt lat="43.2771617" lon="10.7568383"><ele>475.5</ele><time>2026-04-18T12:25:24.751Z</time></trkpt><trkpt lat="43.2772867" lon="10.7567917"><ele>475.25</ele><time>2026-04-18T12:25:25.744Z</time></trkpt><trkpt lat="43.277395" lon="10.7567483"><ele>475.0</ele><time>2026-04-18T12:25:26.749Z</time></trkpt><trkpt lat="43.2774883" lon="10.7566983"><ele>475.0</ele><time>2026-04-18T12:25:27.75Z</time></trkpt><trkpt lat="43.2775783" lon="10.756625"><ele>475.0</ele><time>2026-04-18T12:25:28.745Z</time></trkpt><trkpt lat="43.277665" lon="10.7565183"><ele>475.0</ele><time>2026-04-18T12:25:29.747Z</time></trkpt><trkpt lat="43.2777533" lon="10.7563733"><ele>475.0</ele><time>2026-04-18T12:25:30.747Z</time></trkpt><trkpt lat="43.277835" lon="10.756205"><ele>475.0</ele><time>2026-04-18T12:25:31.743Z</time></trkpt><trkpt lat="43.277905" lon="10.75604"><ele>475.0</ele><time>2026-04-18T12:25:32.744Z</time></trkpt><trkpt lat="43.27796" lon="10.7559033"><ele>475.0</ele><time>2026-04-18T12:25:33.74Z</time></trkpt><trkpt lat="43.2780133" lon="10.7557983"><ele>475.0</ele><time>2026-04-18T12:25:34.747Z</time></trkpt><trkpt lat="43.2780733" lon="10.75571"><ele>475.0</ele><time>2026-04-18T12:25:35.741Z</time></trkpt><trkpt lat="43.2781367" lon="10.755645"><ele>473.6666666666667</ele><time>2026-04-18T12:25:36.741Z</time></trkpt><trkpt lat="43.2782067" lon="10.7556183"><ele>472.33333333333337</ele><time>2026-04-18T12:25:37.743Z</time></trkpt><trkpt lat="43.2782833" lon="10.7556433"><ele>471.0</ele><time>2026-04-18T12:25:38.746Z</time></trkpt><trkpt lat="43.27836" lon="10.7556917"><ele>469.66666666666663</ele><time>2026-04-18T12:25:39.741Z</time></trkpt><trkpt lat="43.27843" lon="10.7557683"><ele>468.3333333333333</ele><time>2026-04-18T12:25:40.744Z</time></trkpt><trkpt lat="43.2785" lon="10.7558967"><ele>467.0</ele><time>2026-04-18T12:25:41.74Z</time></trkpt><trkpt lat="43.2785617" lon="10.7560733"><ele>466.6</ele><time>2026-04-18T12:25:42.744Z</time></trkpt><trkpt lat="43.2786267" lon="10.7562267"><ele>466.20000000000005</ele><time>2026-04-18T12:25:43.745Z</time></trkpt><trkpt lat="43.278685" lon="10.7563533"><ele>465.8</ele><time>2026-04-18T12:25:44.745Z</time></trkpt><trkpt lat="43.27873" lon="10.7564333"><ele>465.4</ele><time>2026-04-18T12:25:45.744Z</time></trkpt><trkpt lat="43.2788117" lon="10.7565117"><ele>465.0</ele><time>2026-04-18T12:25:47.74Z</time></trkpt><trkpt lat="43.2789117" lon="10.7565117"><ele>464.2</ele><time>2026-04-18T12:25:49.745Z</time></trkpt><trkpt lat="43.27897" lon="10.75643"><ele>463.4</ele><time>2026-04-18T12:25:50.744Z</time></trkpt><trkpt lat="43.279015" lon="10.756325"><ele>462.6</ele><time>2026-04-18T12:25:51.745Z</time></trkpt><trkpt lat="43.279055" lon="10.7562"><ele>461.8</ele><time>2026-04-18T12:25:52.75Z</time></trkpt><trkpt lat="43.2790917" lon="10.7560667"><ele>461.0</ele><time>2026-04-18T12:25:53.747Z</time></trkpt><trkpt lat="43.279125" lon="10.7559433"><ele>461.0</ele><time>2026-04-18T12:25:54.744Z</time></trkpt><trkpt lat="43.2791517" lon="10.7558117"><ele>461.0</ele><time>2026-04-18T12:25:55.744Z</time></trkpt><trkpt lat="43.2791717" lon="10.7556583"><ele>461.0</ele><time>2026-04-18T12:25:56.749Z</time></trkpt><trkpt lat="43.2791567" lon="10.7554983"><ele>461.0</ele><time>2026-04-18T12:25:57.742Z</time></trkpt><trkpt lat="43.279135" lon="10.75535"><ele>461.0</ele><time>2026-04-18T12:25:58.741Z</time></trkpt><trkpt lat="43.2791233" lon="10.755225"><ele>460.49999999999994</ele><time>2026-04-18T12:25:59.744Z</time></trkpt><trkpt lat="43.2791267" lon="10.7551183"><ele>460.0</ele><time>2026-04-18T12:26:00.742Z</time></trkpt><trkpt lat="43.279145" lon="10.75502"><ele>459.5</ele><time>2026-04-18T12:26:01.743Z</time></trkpt><trkpt lat="43.2791817" lon="10.754925"><ele>459.0</ele><time>2026-04-18T12:26:02.747Z</time></trkpt><trkpt lat="43.2792317" lon="10.75483"><ele>458.49999999999994</ele><time>2026-04-18T12:26:03.742Z</time></trkpt><trkpt lat="43.2793183" lon="10.7547183"><ele>458.0</ele><time>2026-04-18T12:26:04.747Z</time></trkpt><trkpt lat="43.2794133" lon="10.75459"><ele>458.0</ele><time>2026-04-18T12:26:05.746Z</time></trkpt><trkpt lat="43.2794933" lon="10.75446"><ele>458.0</ele><time>2026-04-18T12:26:06.745Z</time></trkpt><trkpt lat="43.2795383" lon="10.7543333"><ele>458.0</ele><time>2026-04-18T12:26:07.745Z</time></trkpt><trkpt lat="43.279565" lon="10.754185"><ele>458.0</ele><time>2026-04-18T12:26:08.749Z</time></trkpt><trkpt lat="43.2795883" lon="10.7540083"><ele>457.25</ele><time>2026-04-18T12:26:09.746Z</time></trkpt><trkpt lat="43.2796183" lon="10.75383"><ele>456.5</ele><time>2026-04-18T12:26:10.743Z</time></trkpt><trkpt lat="43.2796633" lon="10.753665"><ele>455.75</ele><time>2026-04-18T12:26:11.748Z</time></trkpt><trkpt lat="43.2797117" lon="10.7535017"><ele>455.0</ele><time>2026-04-18T12:26:12.749Z</time></trkpt><trkpt lat="43.2797567" lon="10.7533467"><ele>454.4</ele><time>2026-04-18T12:26:13.743Z</time></trkpt><trkpt lat="43.279795" lon="10.753185"><ele>453.8</ele><time>2026-04-18T12:26:14.748Z</time></trkpt><trkpt lat="43.2798233" lon="10.7530233"><ele>453.20000000000005</ele><time>2026-04-18T12:26:15.743Z</time></trkpt><trkpt lat="43.279845" lon="10.7528783"><ele>452.6</ele><time>2026-04-18T12:26:16.743Z</time></trkpt><trkpt lat="43.279865" lon="10.75275"><ele>452.0</ele><time>2026-04-18T12:26:17.744Z</time></trkpt><trkpt lat="43.27989" lon="10.7526367"><ele>452.0</ele><time>2026-04-18T12:26:18.743Z</time></trkpt><trkpt lat="43.2799317" lon="10.7525317"><ele>452.00000000000006</ele><time>2026-04-18T12:26:19.743Z</time></trkpt><trkpt lat="43.2799917" lon="10.7524467"><ele>452.00000000000006</ele><time>2026-04-18T12:26:20.748Z</time></trkpt><trkpt lat="43.280065" lon="10.75238"><ele>452.0</ele><time>2026-04-18T12:26:21.747Z</time></trkpt><trkpt lat="43.2801767" lon="10.7523367"><ele>452.0</ele><time>2026-04-18T12:26:22.746Z</time></trkpt><trkpt lat="43.2803" lon="10.7523017"><ele>452.0</ele><time>2026-04-18T12:26:23.747Z</time></trkpt><trkpt lat="43.28042" lon="10.7522517"><ele>452.0</ele><time>2026-04-18T12:26:24.75Z</time></trkpt><trkpt lat="43.280555" lon="10.7522133"><ele>452.0</ele><time>2026-04-18T12:26:25.748Z</time></trkpt><trkpt lat="43.2807017" lon="10.752175"><ele>452.0</ele><time>2026-04-18T12:26:26.747Z</time></trkpt><trkpt lat="43.2808533" lon="10.75215"><ele>451.75</ele><time>2026-04-18T12:26:27.744Z</time></trkpt><trkpt lat="43.2810017" lon="10.75214"><ele>451.5</ele><time>2026-04-18T12:26:28.74Z</time></trkpt><trkpt lat="43.28113" lon="10.7521283"><ele>451.25</ele><time>2026-04-18T12:26:29.746Z</time></trkpt><trkpt lat="43.281235" lon="10.7521183"><ele>451.0</ele><time>2026-04-18T12:26:30.752Z</time></trkpt><trkpt lat="43.2813317" lon="10.7521083"><ele>451.00000000000006</ele><time>2026-04-18T12:26:31.749Z</time></trkpt><trkpt lat="43.2814117" lon="10.7520967"><ele>451.0</ele><time>2026-04-18T12:26:32.747Z</time></trkpt><trkpt lat="43.2814817" lon="10.752075"><ele>451.0</ele><time>2026-04-18T12:26:33.745Z</time></trkpt><trkpt lat="43.2815433" lon="10.752035"><ele>451.0</ele><time>2026-04-18T12:26:34.745Z</time></trkpt><trkpt lat="43.2815983" lon="10.75198"><ele>451.00000000000006</ele><time>2026-04-18T12:26:35.747Z</time></trkpt><trkpt lat="43.28165" lon="10.751925"><ele>451.0</ele><time>2026-04-18T12:26:36.744Z</time></trkpt><trkpt lat="43.281725" lon="10.751805"><ele>449.20000000000005</ele><time>2026-04-18T12:26:38.747Z</time></trkpt><trkpt lat="43.281755" lon="10.75163"><ele>447.40000000000003</ele><time>2026-04-18T12:26:40.751Z</time></trkpt><trkpt lat="43.281765" lon="10.7515"><ele>445.6</ele><time>2026-04-18T12:26:41.745Z</time></trkpt><trkpt lat="43.2817717" lon="10.7513567"><ele>443.8</ele><time>2026-04-18T12:26:42.747Z</time></trkpt><trkpt lat="43.28178" lon="10.7512183"><ele>442.0</ele><time>2026-04-18T12:26:43.743Z</time></trkpt><trkpt lat="43.2817883" lon="10.7510983"><ele>441.1666666666667</ele><time>2026-04-18T12:26:44.749Z</time></trkpt><trkpt lat="43.2817983" lon="10.750985"><ele>440.33333333333337</ele><time>2026-04-18T12:26:45.744Z</time></trkpt><trkpt lat="43.2818" lon="10.7508833"><ele>439.5</ele><time>2026-04-18T12:26:46.743Z</time></trkpt><trkpt lat="43.2817933" lon="10.750785"><ele>438.66666666666663</ele><time>2026-04-18T12:26:47.743Z</time></trkpt><trkpt lat="43.2817783" lon="10.7506883"><ele>437.8333333333333</ele><time>2026-04-18T12:26:48.741Z</time></trkpt><trkpt lat="43.2817417" lon="10.7505917"><ele>437.0</ele><time>2026-04-18T12:26:49.747Z</time></trkpt><trkpt lat="43.2816967" lon="10.750495"><ele>436.99999999999994</ele><time>2026-04-18T12:26:50.747Z</time></trkpt><trkpt lat="43.2816533" lon="10.7503917"><ele>437.0</ele><time>2026-04-18T12:26:51.746Z</time></trkpt><trkpt lat="43.2816183" lon="10.7502867"><ele>437.0</ele><time>2026-04-18T12:26:52.748Z</time></trkpt><trkpt lat="43.2815983" lon="10.7501717"><ele>437.0</ele><time>2026-04-18T12:26:53.745Z</time></trkpt><trkpt lat="43.2815933" lon="10.750055"><ele>436.99999999999994</ele><time>2026-04-18T12:26:54.747Z</time></trkpt><trkpt lat="43.2816067" lon="10.7499367"><ele>437.0</ele><time>2026-04-18T12:26:55.742Z</time></trkpt><trkpt lat="43.2816383" lon="10.74982"><ele>436.16666666666663</ele><time>2026-04-18T12:26:56.748Z</time></trkpt><trkpt lat="43.2816783" lon="10.7496983"><ele>435.3333333333333</ele><time>2026-04-18T12:26:57.75Z</time></trkpt><trkpt lat="43.2817233" lon="10.7495867"><ele>434.5</ele><time>2026-04-18T12:26:58.743Z</time></trkpt><trkpt lat="43.2817733" lon="10.74948"><ele>433.66666666666663</ele><time>2026-04-18T12:26:59.757Z</time></trkpt><trkpt lat="43.281815" lon="10.74938"><ele>432.8333333333333</ele><time>2026-04-18T12:27:00.744Z</time></trkpt><trkpt lat="43.2818567" lon="10.7492983"><ele>432.0</ele><time>2026-04-18T12:27:01.744Z</time></trkpt><trkpt lat="43.2819" lon="10.7492233"><ele>431.8333333333333</ele><time>2026-04-18T12:27:02.751Z</time></trkpt><trkpt lat="43.2819483" lon="10.749165"><ele>431.66666666666663</ele><time>2026-04-18T12:27:03.746Z</time></trkpt><trkpt lat="43.2820817" lon="10.74912"><ele>431.5</ele><time>2026-04-18T12:27:05.746Z</time></trkpt><trkpt lat="43.2821517" lon="10.7491067"><ele>431.3333333333333</ele><time>2026-04-18T12:27:06.745Z</time></trkpt><trkpt lat="43.2822217" lon="10.7490867"><ele>431.16666666666663</ele><time>2026-04-18T12:27:07.743Z</time></trkpt><trkpt lat="43.2822917" lon="10.7490567"><ele>431.0</ele><time>2026-04-18T12:27:08.744Z</time></trkpt><trkpt lat="43.2823533" lon="10.7489983"><ele>431.0</ele><time>2026-04-18T12:27:09.745Z</time></trkpt><trkpt lat="43.2823933" lon="10.748925"><ele>431.0</ele><time>2026-04-18T12:27:10.745Z</time></trkpt><trkpt lat="43.282415" lon="10.7488417"><ele>431.0</ele><time>2026-04-18T12:27:11.747Z</time></trkpt><trkpt lat="43.28238" lon="10.7487267"><ele>431.0</ele><time>2026-04-18T12:27:12.751Z</time></trkpt><trkpt lat="43.282355" lon="10.74863"><ele>431.0</ele><time>2026-04-18T12:27:13.746Z</time></trkpt><trkpt lat="43.282345" lon="10.748535"><ele>431.0</ele><time>2026-04-18T12:27:14.752Z</time></trkpt><trkpt lat="43.2823483" lon="10.7484283"><ele>431.0</ele><time>2026-04-18T12:27:15.744Z</time></trkpt><trkpt lat="43.2823717" lon="10.7483067"><ele>428.20000000000005</ele><time>2026-04-18T12:27:16.744Z</time></trkpt><trkpt lat="43.2824183" lon="10.7481967"><ele>425.40000000000003</ele><time>2026-04-18T12:27:17.743Z</time></trkpt><trkpt lat="43.2824817" lon="10.7480967"><ele>422.6</ele><time>2026-04-18T12:27:18.744Z</time></trkpt><trkpt lat="43.2825567" lon="10.7480067"><ele>419.8</ele><time>2026-04-18T12:27:19.749Z</time></trkpt><trkpt lat="43.2826367" lon="10.7479267"><ele>417.0</ele><time>2026-04-18T12:27:20.753Z</time></trkpt><trkpt lat="43.2827117" lon="10.747845"><ele>417.0</ele><time>2026-04-18T12:27:21.753Z</time></trkpt><trkpt lat="43.2827817" lon="10.747775"><ele>417.0</ele><time>2026-04-18T12:27:22.745Z</time></trkpt><trkpt lat="43.28284" lon="10.747715"><ele>417.0</ele><time>2026-04-18T12:27:23.745Z</time></trkpt><trkpt lat="43.2828983" lon="10.7476733"><ele>417.0</ele><time>2026-04-18T12:27:24.747Z</time></trkpt><trkpt lat="43.2830133" lon="10.7476117"><ele>417.0</ele><time>2026-04-18T12:27:26.748Z</time></trkpt><trkpt lat="43.28307" lon="10.7475667"><ele>417.0</ele><time>2026-04-18T12:27:27.746Z</time></trkpt><trkpt lat="43.2831217" lon="10.7475017"><ele>416.5714285714286</ele><time>2026-04-18T12:27:28.745Z</time></trkpt><trkpt lat="43.2831583" lon="10.7474133"><ele>416.1428571428571</ele><time>2026-04-18T12:27:29.742Z</time></trkpt><trkpt lat="43.2832017" lon="10.7473217"><ele>415.7142857142857</ele><time>2026-04-18T12:27:30.747Z</time></trkpt><trkpt lat="43.2832417" lon="10.74723"><ele>415.28571428571433</ele><time>2026-04-18T12:27:31.749Z</time></trkpt><trkpt lat="43.2833" lon="10.7471667"><ele>414.8571428571429</ele><time>2026-04-18T12:27:32.748Z</time></trkpt><trkpt lat="43.2833583" lon="10.747115"><ele>414.42857142857144</ele><time>2026-04-18T12:27:33.747Z</time></trkpt><trkpt lat="43.2834267" lon="10.7470983"><ele>414.0</ele><time>2026-04-18T12:27:34.744Z</time></trkpt><trkpt lat="43.2834983" lon="10.7470933"><ele>414.0</ele><time>2026-04-18T12:27:35.746Z</time></trkpt><trkpt lat="43.283565" lon="10.7470983"><ele>414.0</ele><time>2026-04-18T12:27:36.747Z</time></trkpt><trkpt lat="43.2836283" lon="10.7470883"><ele>414.0</ele><time>2026-04-18T12:27:37.751Z</time></trkpt><trkpt lat="43.28372" lon="10.7470267"><ele>414.0</ele><time>2026-04-18T12:27:39.753Z</time></trkpt><trkpt lat="43.2837567" lon="10.7469383"><ele>414.0</ele><time>2026-04-18T12:27:41.751Z</time></trkpt><trkpt lat="43.283745" lon="10.7468433"><ele>414.0</ele><time>2026-04-18T12:27:43.745Z</time></trkpt><trkpt lat="43.283665" lon="10.7467367"><ele>412.0</ele><time>2026-04-18T12:27:45.749Z</time></trkpt><trkpt lat="43.2835917" lon="10.7466767"><ele>410.0</ele><time>2026-04-18T12:27:46.752Z</time></trkpt><trkpt lat="43.2835217" lon="10.7466233"><ele>408.0</ele><time>2026-04-18T12:27:47.749Z</time></trkpt><trkpt lat="43.2834567" lon="10.7465733"><ele>406.0</ele><time>2026-04-18T12:27:48.747Z</time></trkpt><trkpt lat="43.2833733" lon="10.7464517"><ele>404.0</ele><time>2026-04-18T12:27:50.761Z</time></trkpt><trkpt lat="43.2833417" lon="10.7463533"><ele>402.0</ele><time>2026-04-18T12:27:51.747Z</time></trkpt><trkpt lat="43.283345" lon="10.7462233"><ele>402.0</ele><time>2026-04-18T12:27:52.748Z</time></trkpt><trkpt lat="43.2833517" lon="10.74609"><ele>402.0</ele><time>2026-04-18T12:27:53.745Z</time></trkpt><trkpt lat="43.2834167" lon="10.7459417"><ele>402.0</ele><time>2026-04-18T12:27:54.745Z</time></trkpt><trkpt lat="43.2834817" lon="10.7458"><ele>402.0</ele><time>2026-04-18T12:27:55.745Z</time></trkpt><trkpt lat="43.2835517" lon="10.7456683"><ele>400.5</ele><time>2026-04-18T12:27:56.746Z</time></trkpt><trkpt lat="43.283605" lon="10.7455567"><ele>399.0</ele><time>2026-04-18T12:27:57.742Z</time></trkpt><trkpt lat="43.2836517" lon="10.745445"><ele>397.5</ele><time>2026-04-18T12:27:58.741Z</time></trkpt><trkpt lat="43.283685" lon="10.7453383"><ele>396.0</ele><time>2026-04-18T12:27:59.749Z</time></trkpt><trkpt lat="43.283705" lon="10.74524"><ele>394.5</ele><time>2026-04-18T12:28:00.747Z</time></trkpt><trkpt lat="43.28371" lon="10.7451383"><ele>393.0</ele><time>2026-04-18T12:28:01.746Z</time></trkpt><trkpt lat="43.2836967" lon="10.7450267"><ele>392.2</ele><time>2026-04-18T12:28:02.748Z</time></trkpt><trkpt lat="43.28366" lon="10.7449083"><ele>391.4</ele><time>2026-04-18T12:28:03.743Z</time></trkpt><trkpt lat="43.2836167" lon="10.744795"><ele>390.59999999999997</ele><time>2026-04-18T12:28:04.744Z</time></trkpt><trkpt lat="43.2835667" lon="10.7446733"><ele>389.79999999999995</ele><time>2026-04-18T12:28:05.746Z</time></trkpt><trkpt lat="43.2835233" lon="10.7445467"><ele>389.0</ele><time>2026-04-18T12:28:06.747Z</time></trkpt><trkpt lat="43.2834717" lon="10.7444183"><ele>388.4</ele><time>2026-04-18T12:28:07.75Z</time></trkpt><trkpt lat="43.2834133" lon="10.7442917"><ele>387.79999999999995</ele><time>2026-04-18T12:28:08.751Z</time></trkpt><trkpt lat="43.28335" lon="10.74417"><ele>387.20000000000005</ele><time>2026-04-18T12:28:09.746Z</time></trkpt><trkpt lat="43.2832767" lon="10.744045"><ele>386.6</ele><time>2026-04-18T12:28:10.748Z</time></trkpt><trkpt lat="43.28321" lon="10.7439233"><ele>386.0</ele><time>2026-04-18T12:28:11.746Z</time></trkpt><trkpt lat="43.2831483" lon="10.7438083"><ele>384.0</ele><time>2026-04-18T12:28:12.745Z</time></trkpt><trkpt lat="43.2830867" lon="10.74369"><ele>382.0</ele><time>2026-04-18T12:28:13.747Z</time></trkpt><trkpt lat="43.283035" lon="10.7435783"><ele>380.0</ele><time>2026-04-18T12:28:14.746Z</time></trkpt><trkpt lat="43.28299" lon="10.743465"><ele>378.0</ele><time>2026-04-18T12:28:15.745Z</time></trkpt><trkpt lat="43.2829517" lon="10.74337"><ele>376.0</ele><time>2026-04-18T12:28:16.746Z</time></trkpt><trkpt lat="43.2829233" lon="10.7432617"><ele>376.8</ele><time>2026-04-18T12:28:17.747Z</time></trkpt><trkpt lat="43.282915" lon="10.743145"><ele>377.6</ele><time>2026-04-18T12:28:18.743Z</time></trkpt><trkpt lat="43.282915" lon="10.7430467"><ele>378.4</ele><time>2026-04-18T12:28:19.746Z</time></trkpt><trkpt lat="43.2829467" lon="10.7428933"><ele>379.2</ele><time>2026-04-18T12:28:21.749Z</time></trkpt><trkpt lat="43.2830517" lon="10.7428"><ele>380.0</ele><time>2026-04-18T12:28:23.746Z</time></trkpt><trkpt lat="43.2831333" lon="10.7427783"><ele>380.0</ele><time>2026-04-18T12:28:24.749Z</time></trkpt><trkpt lat="43.2832033" lon="10.7427417"><ele>380.0</ele><time>2026-04-18T12:28:25.744Z</time></trkpt><trkpt lat="43.283265" lon="10.7426883"><ele>380.0</ele><time>2026-04-18T12:28:26.753Z</time></trkpt><trkpt lat="43.2833267" lon="10.7426317"><ele>380.0</ele><time>2026-04-18T12:28:27.753Z</time></trkpt><trkpt lat="43.2833867" lon="10.7425867"><ele>380.0</ele><time>2026-04-18T12:28:28.748Z</time></trkpt><trkpt lat="43.2835117" lon="10.7425617"><ele>380.0</ele><time>2026-04-18T12:28:30.744Z</time></trkpt><trkpt lat="43.2835783" lon="10.742595"><ele>380.0</ele><time>2026-04-18T12:28:31.744Z</time></trkpt><trkpt lat="43.283655" lon="10.7426567"><ele>380.0</ele><time>2026-04-18T12:28:32.742Z</time></trkpt><trkpt lat="43.283725" lon="10.7427233"><ele>380.0</ele><time>2026-04-18T12:28:33.74Z</time></trkpt><trkpt lat="43.2837933" lon="10.7427867"><ele>380.0</ele><time>2026-04-18T12:28:34.746Z</time></trkpt><trkpt lat="43.283855" lon="10.74284"><ele>380.0</ele><time>2026-04-18T12:28:35.745Z</time></trkpt><trkpt lat="43.2839233" lon="10.74288"><ele>380.0</ele><time>2026-04-18T12:28:36.743Z</time></trkpt><trkpt lat="43.2840117" lon="10.7429117"><ele>379.0</ele><time>2026-04-18T12:28:37.742Z</time></trkpt><trkpt lat="43.2841117" lon="10.7429417"><ele>378.0</ele><time>2026-04-18T12:28:38.744Z</time></trkpt><trkpt lat="43.284205" lon="10.7429767"><ele>377.0</ele><time>2026-04-18T12:28:39.744Z</time></trkpt><trkpt lat="43.284285" lon="10.7430183"><ele>376.0</ele><time>2026-04-18T12:28:40.747Z</time></trkpt><trkpt lat="43.2843583" lon="10.7430517"><ele>375.0</ele><time>2026-04-18T12:28:41.746Z</time></trkpt><trkpt lat="43.2844283" lon="10.7430667"><ele>374.0</ele><time>2026-04-18T12:28:42.745Z</time></trkpt><trkpt lat="43.2844917" lon="10.74307"><ele>374.0</ele><time>2026-04-18T12:28:43.746Z</time></trkpt><trkpt lat="43.2845633" lon="10.7430567"><ele>374.0</ele><time>2026-04-18T12:28:44.743Z</time></trkpt><trkpt lat="43.28465" lon="10.74302"><ele>374.0</ele><time>2026-04-18T12:28:45.749Z</time></trkpt><trkpt lat="43.2847333" lon="10.7429933"><ele>374.0</ele><time>2026-04-18T12:28:46.744Z</time></trkpt><trkpt lat="43.28481" lon="10.7429833"><ele>374.0</ele><time>2026-04-18T12:28:47.746Z</time></trkpt><trkpt lat="43.2848933" lon="10.7429867"><ele>374.0</ele><time>2026-04-18T12:28:48.742Z</time></trkpt><trkpt lat="43.284975" lon="10.743015"><ele>372.6666666666667</ele><time>2026-04-18T12:28:49.743Z</time></trkpt><trkpt lat="43.285055" lon="10.7430733"><ele>371.33333333333337</ele><time>2026-04-18T12:28:50.748Z</time></trkpt><trkpt lat="43.2851283" lon="10.74314"><ele>370.0</ele><time>2026-04-18T12:28:51.742Z</time></trkpt><trkpt lat="43.285195" lon="10.74321"><ele>368.6666666666667</ele><time>2026-04-18T12:28:52.746Z</time></trkpt><trkpt lat="43.28526" lon="10.7432783"><ele>367.3333333333333</ele><time>2026-04-18T12:28:53.749Z</time></trkpt><trkpt lat="43.28533" lon="10.7433267"><ele>366.0</ele><time>2026-04-18T12:28:54.75Z</time></trkpt><trkpt lat="43.2853983" lon="10.7433633"><ele>366.0</ele><time>2026-04-18T12:28:55.753Z</time></trkpt><trkpt lat="43.2854667" lon="10.7433917"><ele>366.0</ele><time>2026-04-18T12:28:56.752Z</time></trkpt><trkpt lat="43.2855333" lon="10.7434183"><ele>366.0</ele><time>2026-04-18T12:28:57.75Z</time></trkpt><trkpt lat="43.28559" lon="10.7434583"><ele>366.0</ele><time>2026-04-18T12:28:58.744Z</time></trkpt><trkpt lat="43.2856467" lon="10.7435167"><ele>366.0</ele><time>2026-04-18T12:28:59.746Z</time></trkpt><trkpt lat="43.2856933" lon="10.7435983"><ele>366.0</ele><time>2026-04-18T12:29:00.746Z</time></trkpt><trkpt lat="43.28573" lon="10.7436867"><ele>366.0</ele><time>2026-04-18T12:29:01.749Z</time></trkpt><trkpt lat="43.2857483" lon="10.7437783"><ele>366.1666666666667</ele><time>2026-04-18T12:29:02.749Z</time></trkpt><trkpt lat="43.2858017" lon="10.7439133"><ele>366.3333333333333</ele><time>2026-04-18T12:29:04.745Z</time></trkpt><trkpt lat="43.285855" lon="10.743975"><ele>366.5</ele><time>2026-04-18T12:29:06.752Z</time></trkpt><trkpt lat="43.2859333" lon="10.743885"><ele>366.66666666666663</ele><time>2026-04-18T12:29:08.743Z</time></trkpt><trkpt lat="43.285945" lon="10.7437833"><ele>366.8333333333333</ele><time>2026-04-18T12:29:09.746Z</time></trkpt><trkpt lat="43.285945" lon="10.7436617"><ele>367.0</ele><time>2026-04-18T12:29:10.745Z</time></trkpt><trkpt lat="43.2859483" lon="10.7435383"><ele>365.40000000000003</ele><time>2026-04-18T12:29:11.745Z</time></trkpt><trkpt lat="43.2859433" lon="10.74342"><ele>363.8</ele><time>2026-04-18T12:29:12.752Z</time></trkpt><trkpt lat="43.2859567" lon="10.74331"><ele>362.2</ele><time>2026-04-18T12:29:13.748Z</time></trkpt><trkpt lat="43.285965" lon="10.7431967"><ele>360.6</ele><time>2026-04-18T12:29:14.746Z</time></trkpt><trkpt lat="43.2860017" lon="10.74308"><ele>359.0</ele><time>2026-04-18T12:29:15.743Z</time></trkpt><trkpt lat="43.2860733" lon="10.74294"><ele>359.0</ele><time>2026-04-18T12:29:16.744Z</time></trkpt><trkpt lat="43.2861417" lon="10.7427983"><ele>359.0</ele><time>2026-04-18T12:29:17.742Z</time></trkpt><trkpt lat="43.28621" lon="10.7426417"><ele>359.0</ele><time>2026-04-18T12:29:18.747Z</time></trkpt><trkpt lat="43.2862767" lon="10.7424967"><ele>359.0</ele><time>2026-04-18T12:29:19.743Z</time></trkpt><trkpt lat="43.28632" lon="10.7423533"><ele>357.0</ele><time>2026-04-18T12:29:20.745Z</time></trkpt><trkpt lat="43.2863467" lon="10.7422167"><ele>355.0</ele><time>2026-04-18T12:29:21.747Z</time></trkpt><trkpt lat="43.2863767" lon="10.7420917"><ele>353.0</ele><time>2026-04-18T12:29:22.741Z</time></trkpt><trkpt lat="43.2864117" lon="10.7419667"><ele>351.0</ele><time>2026-04-18T12:29:23.748Z</time></trkpt><trkpt lat="43.2864517" lon="10.741835"><ele>349.0</ele><time>2026-04-18T12:29:24.746Z</time></trkpt><trkpt lat="43.2864983" lon="10.7416883"><ele>349.0</ele><time>2026-04-18T12:29:25.742Z</time></trkpt><trkpt lat="43.28655" lon="10.741545"><ele>349.0</ele><time>2026-04-18T12:29:26.745Z</time></trkpt><trkpt lat="43.286605" lon="10.74141"><ele>349.0</ele><time>2026-04-18T12:29:27.745Z</time></trkpt><trkpt lat="43.28666" lon="10.741275"><ele>349.0</ele><time>2026-04-18T12:29:28.749Z</time></trkpt><trkpt lat="43.28671" lon="10.74114"><ele>344.25</ele><time>2026-04-18T12:29:29.75Z</time></trkpt><trkpt lat="43.2867533" lon="10.7409917"><ele>339.5</ele><time>2026-04-18T12:29:30.745Z</time></trkpt><trkpt lat="43.2868" lon="10.740845"><ele>334.75</ele><time>2026-04-18T12:29:31.743Z</time></trkpt><trkpt lat="43.2868467" lon="10.7407"><ele>330.0</ele><time>2026-04-18T12:29:32.75Z</time></trkpt><trkpt lat="43.2869" lon="10.7405633"><ele>330.0</ele><time>2026-04-18T12:29:33.749Z</time></trkpt><trkpt lat="43.2869517" lon="10.7404333"><ele>330.0</ele><time>2026-04-18T12:29:34.751Z</time></trkpt><trkpt lat="43.287" lon="10.740315"><ele>330.0</ele><time>2026-04-18T12:29:35.75Z</time></trkpt><trkpt lat="43.28705" lon="10.740215"><ele>330.0</ele><time>2026-04-18T12:29:36.744Z</time></trkpt><trkpt lat="43.2871083" lon="10.740125"><ele>330.0</ele><time>2026-04-18T12:29:37.745Z</time></trkpt><trkpt lat="43.2871717" lon="10.7400383"><ele>331.6</ele><time>2026-04-18T12:29:38.747Z</time></trkpt><trkpt lat="43.2872367" lon="10.739945"><ele>333.2</ele><time>2026-04-18T12:29:39.747Z</time></trkpt><trkpt lat="43.2872983" lon="10.7398467"><ele>334.79999999999995</ele><time>2026-04-18T12:29:40.748Z</time></trkpt><trkpt lat="43.28735" lon="10.7397467"><ele>336.4</ele><time>2026-04-18T12:29:41.745Z</time></trkpt><trkpt lat="43.2874" lon="10.739635"><ele>338.0</ele><time>2026-04-18T12:29:42.753Z</time></trkpt><trkpt lat="43.28745" lon="10.7395333"><ele>338.0</ele><time>2026-04-18T12:29:43.746Z</time></trkpt><trkpt lat="43.2875" lon="10.7394467"><ele>338.0</ele><time>2026-04-18T12:29:44.747Z</time></trkpt><trkpt lat="43.2875517" lon="10.7393783"><ele>338.0</ele><time>2026-04-18T12:29:45.744Z</time></trkpt><trkpt lat="43.287605" lon="10.739325"><ele>338.0</ele><time>2026-04-18T12:29:46.745Z</time></trkpt><trkpt lat="43.2877117" lon="10.73927"><ele>338.0</ele><time>2026-04-18T12:29:48.748Z</time></trkpt><trkpt lat="43.2878317" lon="10.7393567"><ele>338.0</ele><time>2026-04-18T12:29:50.743Z</time></trkpt><trkpt lat="43.287885" lon="10.739465"><ele>338.0</ele><time>2026-04-18T12:29:51.745Z</time></trkpt><trkpt lat="43.2879383" lon="10.7395467"><ele>338.0</ele><time>2026-04-18T12:29:52.744Z</time></trkpt><trkpt lat="43.287995" lon="10.7396033"><ele>338.0</ele><time>2026-04-18T12:29:53.75Z</time></trkpt><trkpt lat="43.2880917" lon="10.7396233"><ele>338.0</ele><time>2026-04-18T12:29:55.745Z</time></trkpt><trkpt lat="43.2881317" lon="10.7395267"><ele>338.0</ele><time>2026-04-18T12:29:56.748Z</time></trkpt><trkpt lat="43.2881583" lon="10.7393833"><ele>336.0</ele><time>2026-04-18T12:29:57.751Z</time></trkpt><trkpt lat="43.288205" lon="10.739235"><ele>334.0</ele><time>2026-04-18T12:29:58.744Z</time></trkpt><trkpt lat="43.28826" lon="10.7390933"><ele>332.0</ele><time>2026-04-18T12:29:59.746Z</time></trkpt><trkpt lat="43.2883217" lon="10.73897"><ele>330.0</ele><time>2026-04-18T12:30:00.745Z</time></trkpt><trkpt lat="43.2883967" lon="10.73885"><ele>330.0</ele><time>2026-04-18T12:30:01.74Z</time></trkpt><trkpt lat="43.2884733" lon="10.7387333"><ele>330.0</ele><time>2026-04-18T12:30:02.746Z</time></trkpt><trkpt lat="43.2885583" lon="10.738625"><ele>330.0</ele><time>2026-04-18T12:30:03.747Z</time></trkpt><trkpt lat="43.2886467" lon="10.73854"><ele>330.0</ele><time>2026-04-18T12:30:04.752Z</time></trkpt><trkpt lat="43.2887617" lon="10.738455"><ele>329.25</ele><time>2026-04-18T12:30:05.75Z</time></trkpt><trkpt lat="43.28888" lon="10.7383717"><ele>328.5</ele><time>2026-04-18T12:30:06.746Z</time></trkpt><trkpt lat="43.2890017" lon="10.738295"><ele>327.75</ele><time>2026-04-18T12:30:07.744Z</time></trkpt><trkpt lat="43.2891117" lon="10.7382267"><ele>327.0</ele><time>2026-04-18T12:30:08.746Z</time></trkpt><trkpt lat="43.2892083" lon="10.7381483"><ele>327.0</ele><time>2026-04-18T12:30:09.744Z</time></trkpt><trkpt lat="43.2892983" lon="10.7380717"><ele>327.0</ele><time>2026-04-18T12:30:10.743Z</time></trkpt><trkpt lat="43.2893917" lon="10.7380017"><ele>327.0</ele><time>2026-04-18T12:30:11.745Z</time></trkpt><trkpt lat="43.2894783" lon="10.737935"><ele>327.0</ele><time>2026-04-18T12:30:12.746Z</time></trkpt><trkpt lat="43.2895717" lon="10.73786"><ele>327.0</ele><time>2026-04-18T12:30:13.75Z</time></trkpt><trkpt lat="43.28967" lon="10.7377417"><ele>324.5</ele><time>2026-04-18T12:30:14.753Z</time></trkpt><trkpt lat="43.2897683" lon="10.737625"><ele>322.0</ele><time>2026-04-18T12:30:15.745Z</time></trkpt><trkpt lat="43.2898617" lon="10.7375183"><ele>319.5</ele><time>2026-04-18T12:30:16.746Z</time></trkpt><trkpt lat="43.28995" lon="10.7374283"><ele>317.0</ele><time>2026-04-18T12:30:17.746Z</time></trkpt><trkpt lat="43.2900333" lon="10.73734"><ele>317.0</ele><time>2026-04-18T12:30:18.746Z</time></trkpt><trkpt lat="43.2901067" lon="10.7372583"><ele>317.0</ele><time>2026-04-18T12:30:19.743Z</time></trkpt><trkpt lat="43.2901717" lon="10.73718"><ele>317.0</ele><time>2026-04-18T12:30:20.746Z</time></trkpt><trkpt lat="43.29023" lon="10.7370883"><ele>317.0</ele><time>2026-04-18T12:30:21.745Z</time></trkpt><trkpt lat="43.290285" lon="10.737"><ele>317.0</ele><time>2026-04-18T12:30:22.743Z</time></trkpt><trkpt lat="43.2903233" lon="10.7369017"><ele>317.0</ele><time>2026-04-18T12:30:23.745Z</time></trkpt><trkpt lat="43.290365" lon="10.7367967"><ele>314.6666666666667</ele><time>2026-04-18T12:30:24.748Z</time></trkpt><trkpt lat="43.2903983" lon="10.7366883"><ele>312.33333333333337</ele><time>2026-04-18T12:30:25.743Z</time></trkpt><trkpt lat="43.2904133" lon="10.7365767"><ele>310.0</ele><time>2026-04-18T12:30:26.749Z</time></trkpt><trkpt lat="43.2903967" lon="10.7364567"><ele>307.6666666666667</ele><time>2026-04-18T12:30:27.744Z</time></trkpt><trkpt lat="43.2903817" lon="10.7363483"><ele>305.3333333333333</ele><time>2026-04-18T12:30:28.745Z</time></trkpt><trkpt lat="43.2903367" lon="10.7362383"><ele>303.0</ele><time>2026-04-18T12:30:29.742Z</time></trkpt><trkpt lat="43.29029" lon="10.7361317"><ele>303.0</ele><time>2026-04-18T12:30:30.746Z</time></trkpt><trkpt lat="43.2902483" lon="10.7360467"><ele>303.0</ele><time>2026-04-18T12:30:31.742Z</time></trkpt><trkpt lat="43.2902" lon="10.7359833"><ele>303.0</ele><time>2026-04-18T12:30:32.751Z</time></trkpt><trkpt lat="43.2901233" lon="10.7359333"><ele>303.0</ele><time>2026-04-18T12:30:33.746Z</time></trkpt><trkpt lat="43.29003" lon="10.73589"><ele>303.0</ele><time>2026-04-18T12:30:34.754Z</time></trkpt><trkpt lat="43.2899067" lon="10.73585"><ele>303.0</ele><time>2026-04-18T12:30:35.747Z</time></trkpt><trkpt lat="43.2897817" lon="10.735815"><ele>303.0</ele><time>2026-04-18T12:30:36.75Z</time></trkpt><trkpt lat="43.2896483" lon="10.73578"><ele>303.0</ele><time>2026-04-18T12:30:37.747Z</time></trkpt><trkpt lat="43.2895333" lon="10.7357433"><ele>303.0</ele><time>2026-04-18T12:30:38.745Z</time></trkpt><trkpt lat="43.289435" lon="10.7356983"><ele>301.0</ele><time>2026-04-18T12:30:39.745Z</time></trkpt><trkpt lat="43.2893567" lon="10.735645"><ele>299.0</ele><time>2026-04-18T12:30:40.746Z</time></trkpt><trkpt lat="43.2892917" lon="10.73558"><ele>297.0</ele><time>2026-04-18T12:30:41.746Z</time></trkpt><trkpt lat="43.2892367" lon="10.735495"><ele>295.0</ele><time>2026-04-18T12:30:42.746Z</time></trkpt><trkpt lat="43.2892033" lon="10.7353917"><ele>293.0</ele><time>2026-04-18T12:30:43.745Z</time></trkpt><trkpt lat="43.28919" lon="10.7352667"><ele>291.0</ele><time>2026-04-18T12:30:44.746Z</time></trkpt><trkpt lat="43.2891967" lon="10.73511"><ele>291.0</ele><time>2026-04-18T12:30:45.744Z</time></trkpt><trkpt lat="43.2891983" lon="10.7349383"><ele>291.0</ele><time>2026-04-18T12:30:46.74Z</time></trkpt><trkpt lat="43.28919" lon="10.7347933"><ele>291.0</ele><time>2026-04-18T12:30:47.745Z</time></trkpt><trkpt lat="43.2891633" lon="10.734665"><ele>291.0</ele><time>2026-04-18T12:30:48.741Z</time></trkpt><trkpt lat="43.2891333" lon="10.7345583"><ele>291.0</ele><time>2026-04-18T12:30:49.742Z</time></trkpt><trkpt lat="43.2891117" lon="10.7344633"><ele>289.0</ele><time>2026-04-18T12:30:50.747Z</time></trkpt><trkpt lat="43.2891083" lon="10.7343767"><ele>287.0</ele><time>2026-04-18T12:30:51.742Z</time></trkpt><trkpt lat="43.28915" lon="10.7342083"><ele>285.0</ele><time>2026-04-18T12:30:53.743Z</time></trkpt><trkpt lat="43.2892217" lon="10.7341083"><ele>283.0</ele><time>2026-04-18T12:30:54.745Z</time></trkpt><trkpt lat="43.2893133" lon="10.73401"><ele>281.0</ele><time>2026-04-18T12:30:55.749Z</time></trkpt><trkpt lat="43.2894067" lon="10.7339133"><ele>281.0</ele><time>2026-04-18T12:30:56.745Z</time></trkpt><trkpt lat="43.28949" lon="10.7338183"><ele>281.0</ele><time>2026-04-18T12:30:57.742Z</time></trkpt><trkpt lat="43.2895667" lon="10.73372"><ele>281.0</ele><time>2026-04-18T12:30:58.743Z</time></trkpt><trkpt lat="43.28963" lon="10.7336133"><ele>281.0</ele><time>2026-04-18T12:30:59.742Z</time></trkpt><trkpt lat="43.2896867" lon="10.7335167"><ele>281.0</ele><time>2026-04-18T12:31:00.745Z</time></trkpt><trkpt lat="43.2897383" lon="10.7334283"><ele>281.2</ele><time>2026-04-18T12:31:01.746Z</time></trkpt><trkpt lat="43.2897967" lon="10.7333583"><ele>281.40000000000003</ele><time>2026-04-18T12:31:02.749Z</time></trkpt><trkpt lat="43.2898667" lon="10.7333033"><ele>281.6</ele><time>2026-04-18T12:31:03.746Z</time></trkpt><trkpt lat="43.289955" lon="10.733265"><ele>281.8</ele><time>2026-04-18T12:31:04.746Z</time></trkpt><trkpt lat="43.29006" lon="10.7332583"><ele>282.0</ele><time>2026-04-18T12:31:05.745Z</time></trkpt><trkpt lat="43.2901667" lon="10.7332767"><ele>282.0</ele><time>2026-04-18T12:31:06.742Z</time></trkpt><trkpt lat="43.2902717" lon="10.7332967"><ele>282.0</ele><time>2026-04-18T12:31:07.744Z</time></trkpt><trkpt lat="43.2903733" lon="10.7333367"><ele>282.0</ele><time>2026-04-18T12:31:08.745Z</time></trkpt><trkpt lat="43.2904717" lon="10.7333883"><ele>282.0</ele><time>2026-04-18T12:31:09.744Z</time></trkpt><trkpt lat="43.29055" lon="10.73347"><ele>282.0</ele><time>2026-04-18T12:31:10.748Z</time></trkpt><trkpt lat="43.2906083" lon="10.7335583"><ele>283.0</ele><time>2026-04-18T12:31:11.743Z</time></trkpt><trkpt lat="43.2906517" lon="10.7336367"><ele>284.0</ele><time>2026-04-18T12:31:12.746Z</time></trkpt><trkpt lat="43.290665" lon="10.7337283"><ele>285.0</ele><time>2026-04-18T12:31:13.749Z</time></trkpt><trkpt lat="43.2906867" lon="10.7338167"><ele>286.0</ele><time>2026-04-18T12:31:14.746Z</time></trkpt><trkpt lat="43.290745" lon="10.73396"><ele>287.0</ele><time>2026-04-18T12:31:16.746Z</time></trkpt><trkpt lat="43.2908117" lon="10.73402"><ele>288.0</ele><time>2026-04-18T12:31:17.748Z</time></trkpt><trkpt lat="43.2908867" lon="10.7340733"><ele>288.0</ele><time>2026-04-18T12:31:18.745Z</time></trkpt><trkpt lat="43.2909783" lon="10.734095"><ele>288.0</ele><time>2026-04-18T12:31:19.751Z</time></trkpt><trkpt lat="43.2910667" lon="10.7341"><ele>288.0</ele><time>2026-04-18T12:31:20.747Z</time></trkpt><trkpt lat="43.2911583" lon="10.7341183"><ele>288.0</ele><time>2026-04-18T12:31:21.742Z</time></trkpt><trkpt lat="43.2912483" lon="10.7341517"><ele>288.0</ele><time>2026-04-18T12:31:22.749Z</time></trkpt><trkpt lat="43.2913333" lon="10.734205"><ele>288.0</ele><time>2026-04-18T12:31:23.741Z</time></trkpt><trkpt lat="43.2914067" lon="10.73429"><ele>288.0</ele><time>2026-04-18T12:31:24.745Z</time></trkpt><trkpt lat="43.2914667" lon="10.7343833"><ele>288.0</ele><time>2026-04-18T12:31:25.743Z</time></trkpt><trkpt lat="43.291515" lon="10.7344817"><ele>288.0</ele><time>2026-04-18T12:31:26.752Z</time></trkpt><trkpt lat="43.2915533" lon="10.734595"><ele>288.0</ele><time>2026-04-18T12:31:27.744Z</time></trkpt><trkpt lat="43.2915817" lon="10.734705"><ele>288.0</ele><time>2026-04-18T12:31:28.745Z</time></trkpt><trkpt lat="43.2916017" lon="10.7348"><ele>287.6</ele><time>2026-04-18T12:31:29.744Z</time></trkpt><trkpt lat="43.2916217" lon="10.7348833"><ele>287.20000000000005</ele><time>2026-04-18T12:31:30.743Z</time></trkpt><trkpt lat="43.291685" lon="10.7349817"><ele>286.8</ele><time>2026-04-18T12:31:32.744Z</time></trkpt><trkpt lat="43.2917883" lon="10.734955"><ele>286.40000000000003</ele><time>2026-04-18T12:31:34.744Z</time></trkpt><trkpt lat="43.291895" lon="10.73485"><ele>286.0</ele><time>2026-04-18T12:31:36.748Z</time></trkpt><trkpt lat="43.2919417" lon="10.7347867"><ele>286.0</ele><time>2026-04-18T12:31:37.745Z</time></trkpt><trkpt lat="43.2919967" lon="10.734695"><ele>286.0</ele><time>2026-04-18T12:31:38.747Z</time></trkpt><trkpt lat="43.2920483" lon="10.73459"><ele>286.0</ele><time>2026-04-18T12:31:39.745Z</time></trkpt><trkpt lat="43.2920883" lon="10.7344683"><ele>286.0</ele><time>2026-04-18T12:31:40.741Z</time></trkpt><trkpt lat="43.2921133" lon="10.7343467"><ele>286.0</ele><time>2026-04-18T12:31:41.749Z</time></trkpt><trkpt lat="43.2921483" lon="10.7342183"><ele>286.0</ele><time>2026-04-18T12:31:42.743Z</time></trkpt><trkpt lat="43.292175" lon="10.734095"><ele>286.0</ele><time>2026-04-18T12:31:43.741Z</time></trkpt><trkpt lat="43.2922" lon="10.7339867"><ele>286.0</ele><time>2026-04-18T12:31:44.746Z</time></trkpt><trkpt lat="43.2922283" lon="10.73387"><ele>286.0</ele><time>2026-04-18T12:31:45.747Z</time></trkpt><trkpt lat="43.29225" lon="10.7337383"><ele>286.0</ele><time>2026-04-18T12:31:46.743Z</time></trkpt><trkpt lat="43.2922667" lon="10.7336083"><ele>283.3333333333333</ele><time>2026-04-18T12:31:47.743Z</time></trkpt><trkpt lat="43.292275" lon="10.733475"><ele>280.66666666666663</ele><time>2026-04-18T12:31:48.745Z</time></trkpt><trkpt lat="43.2922983" lon="10.7333533"><ele>278.0</ele><time>2026-04-18T12:31:49.745Z</time></trkpt><trkpt lat="43.2923183" lon="10.7332417"><ele>275.3333333333333</ele><time>2026-04-18T12:31:50.744Z</time></trkpt><trkpt lat="43.2923367" lon="10.7331333"><ele>272.6666666666667</ele><time>2026-04-18T12:31:51.741Z</time></trkpt><trkpt lat="43.2923567" lon="10.7330383"><ele>270.0</ele><time>2026-04-18T12:31:52.745Z</time></trkpt><trkpt lat="43.2923883" lon="10.7329517"><ele>270.0</ele><time>2026-04-18T12:31:53.745Z</time></trkpt><trkpt lat="43.2924717" lon="10.7329133"><ele>270.0</ele><time>2026-04-18T12:31:54.746Z</time></trkpt><trkpt lat="43.2925617" lon="10.7328767"><ele>270.0</ele><time>2026-04-18T12:31:55.749Z</time></trkpt><trkpt lat="43.292645" lon="10.73286"><ele>270.0</ele><time>2026-04-18T12:31:56.742Z</time></trkpt><trkpt lat="43.2927717" lon="10.7328233"><ele>270.0</ele><time>2026-04-18T12:31:58.743Z</time></trkpt><trkpt lat="43.292845" lon="10.7328233"><ele>270.0</ele><time>2026-04-18T12:31:59.744Z</time></trkpt><trkpt lat="43.2929633" lon="10.7328383"><ele>270.0</ele><time>2026-04-18T12:32:01.749Z</time></trkpt><trkpt lat="43.2930617" lon="10.7328217"><ele>270.0</ele><time>2026-04-18T12:32:03.743Z</time></trkpt><trkpt lat="43.2931217" lon="10.7327283"><ele>270.0</ele><time>2026-04-18T12:32:05.744Z</time></trkpt><trkpt lat="43.2931267" lon="10.7325617"><ele>270.0</ele><time>2026-04-18T12:32:07.749Z</time></trkpt><trkpt lat="43.2931283" lon="10.73247"><ele>269.57142857142856</ele><time>2026-04-18T12:32:08.749Z</time></trkpt><trkpt lat="43.2931317" lon="10.7323667"><ele>269.1428571428571</ele><time>2026-04-18T12:32:09.748Z</time></trkpt><trkpt lat="43.293145" lon="10.7322633"><ele>268.7142857142857</ele><time>2026-04-18T12:32:10.745Z</time></trkpt><trkpt lat="43.29316" lon="10.7321583"><ele>268.2857142857143</ele><time>2026-04-18T12:32:11.746Z</time></trkpt><trkpt lat="43.2931633" lon="10.7320567"><ele>267.8571428571429</ele><time>2026-04-18T12:32:12.748Z</time></trkpt><trkpt lat="43.2931583" lon="10.7319633"><ele>267.42857142857144</ele><time>2026-04-18T12:32:13.743Z</time></trkpt><trkpt lat="43.2931383" lon="10.731875"><ele>267.0</ele><time>2026-04-18T12:32:14.745Z</time></trkpt><trkpt lat="43.2931" lon="10.7317783"><ele>262.8333333333333</ele><time>2026-04-18T12:32:15.747Z</time></trkpt><trkpt lat="43.29305" lon="10.7316917"><ele>258.6666666666667</ele><time>2026-04-18T12:32:16.746Z</time></trkpt><trkpt lat="43.293" lon="10.7315983"><ele>254.5</ele><time>2026-04-18T12:32:17.745Z</time></trkpt><trkpt lat="43.292965" lon="10.7314983"><ele>250.33333333333334</ele><time>2026-04-18T12:32:18.75Z</time></trkpt><trkpt lat="43.292945" lon="10.7314017"><ele>246.16666666666669</ele><time>2026-04-18T12:32:19.745Z</time></trkpt><trkpt lat="43.29295" lon="10.7313083"><ele>242.0</ele><time>2026-04-18T12:32:20.747Z</time></trkpt><trkpt lat="43.2929683" lon="10.73122"><ele>242.0</ele><time>2026-04-18T12:32:21.747Z</time></trkpt><trkpt lat="43.2930183" lon="10.7311333"><ele>242.0</ele><time>2026-04-18T12:32:22.742Z</time></trkpt><trkpt lat="43.29307" lon="10.7310283"><ele>242.0</ele><time>2026-04-18T12:32:23.742Z</time></trkpt><trkpt lat="43.2931217" lon="10.7309"><ele>242.0</ele><time>2026-04-18T12:32:24.746Z</time></trkpt><trkpt lat="43.29316" lon="10.73075"><ele>242.0</ele><time>2026-04-18T12:32:25.743Z</time></trkpt><trkpt lat="43.2932067" lon="10.7305967"><ele>242.2</ele><time>2026-04-18T12:32:26.749Z</time></trkpt><trkpt lat="43.293255" lon="10.730455"><ele>242.39999999999998</ele><time>2026-04-18T12:32:27.746Z</time></trkpt><trkpt lat="43.293295" lon="10.73033"><ele>242.60000000000002</ele><time>2026-04-18T12:32:28.75Z</time></trkpt><trkpt lat="43.2933433" lon="10.7302267"><ele>242.8</ele><time>2026-04-18T12:32:29.748Z</time></trkpt><trkpt lat="43.29339" lon="10.7301367"><ele>243.0</ele><time>2026-04-18T12:32:30.749Z</time></trkpt><trkpt lat="43.2934517" lon="10.7300583"><ele>243.0</ele><time>2026-04-18T12:32:31.752Z</time></trkpt><trkpt lat="43.2935183" lon="10.72999"><ele>243.0</ele><time>2026-04-18T12:32:32.75Z</time></trkpt><trkpt lat="43.2935917" lon="10.7299417"><ele>243.0</ele><time>2026-04-18T12:32:33.751Z</time></trkpt><trkpt lat="43.2936667" lon="10.7299117"><ele>243.0</ele><time>2026-04-18T12:32:34.744Z</time></trkpt><trkpt lat="43.2937433" lon="10.7298967"><ele>243.0</ele><time>2026-04-18T12:32:35.745Z</time></trkpt><trkpt lat="43.293825" lon="10.7298917"><ele>243.0</ele><time>2026-04-18T12:32:36.743Z</time></trkpt><trkpt lat="43.2939017" lon="10.72988"><ele>245.2</ele><time>2026-04-18T12:32:37.746Z</time></trkpt><trkpt lat="43.293975" lon="10.7298517"><ele>247.4</ele><time>2026-04-18T12:32:38.749Z</time></trkpt><trkpt lat="43.294045" lon="10.72982"><ele>249.59999999999997</ele><time>2026-04-18T12:32:39.75Z</time></trkpt><trkpt lat="43.2941083" lon="10.729775"><ele>251.79999999999998</ele><time>2026-04-18T12:32:40.752Z</time></trkpt><trkpt lat="43.2942133" lon="10.7296917"><ele>254.0</ele><time>2026-04-18T12:32:42.745Z</time></trkpt><trkpt lat="43.2943167" lon="10.7296483"><ele>254.00000000000003</ele><time>2026-04-18T12:32:44.746Z</time></trkpt><trkpt lat="43.294395" lon="10.72962"><ele>254.0</ele><time>2026-04-18T12:32:46.745Z</time></trkpt><trkpt lat="43.294465" lon="10.7296033"><ele>254.0</ele><time>2026-04-18T12:32:49.744Z</time></trkpt><trkpt lat="43.294505" lon="10.7296783"><ele>254.0</ele><time>2026-04-18T12:32:52.752Z</time></trkpt><trkpt lat="43.2946033" lon="10.7297917"><ele>254.00000000000003</ele><time>2026-04-18T12:40:49.746Z</time></trkpt><trkpt lat="43.2946917" lon="10.729735"><ele>254.0</ele><time>2026-04-18T12:40:51.747Z</time></trkpt><trkpt lat="43.2947283" lon="10.7296067"><ele>252.0</ele><time>2026-04-18T12:40:53.744Z</time></trkpt><trkpt lat="43.2947567" lon="10.7294517"><ele>249.99999999999997</ele><time>2026-04-18T12:40:55.742Z</time></trkpt><trkpt lat="43.2948333" lon="10.729335"><ele>247.99999999999997</ele><time>2026-04-18T12:40:57.743Z</time></trkpt><trkpt lat="43.29489" lon="10.729285"><ele>246.0</ele><time>2026-04-18T12:40:58.745Z</time></trkpt><trkpt lat="43.2949583" lon="10.72923"><ele>244.0</ele><time>2026-04-18T12:40:59.746Z</time></trkpt><trkpt lat="43.2950483" lon="10.72916"><ele>244.0</ele><time>2026-04-18T12:41:00.745Z</time></trkpt><trkpt lat="43.2951433" lon="10.7290917"><ele>244.0</ele><time>2026-04-18T12:41:01.744Z</time></trkpt><trkpt lat="43.29523" lon="10.729015"><ele>244.0</ele><time>2026-04-18T12:41:02.744Z</time></trkpt><trkpt lat="43.29533" lon="10.7289233"><ele>244.0</ele><time>2026-04-18T12:41:03.748Z</time></trkpt><trkpt lat="43.2954283" lon="10.7288017"><ele>244.0</ele><time>2026-04-18T12:41:04.748Z</time></trkpt><trkpt lat="43.2955267" lon="10.7286383"><ele>244.0</ele><time>2026-04-18T12:41:05.744Z</time></trkpt><trkpt lat="43.2956167" lon="10.728465"><ele>244.0</ele><time>2026-04-18T12:41:06.744Z</time></trkpt><trkpt lat="43.2957" lon="10.7283033"><ele>239.39999999999998</ele><time>2026-04-18T12:41:07.744Z</time></trkpt><trkpt lat="43.2957633" lon="10.7281717"><ele>234.79999999999998</ele><time>2026-04-18T12:41:08.743Z</time></trkpt><trkpt lat="43.2958133" lon="10.7280617"><ele>230.20000000000002</ele><time>2026-04-18T12:41:09.744Z</time></trkpt><trkpt lat="43.2958467" lon="10.72796"><ele>225.60000000000002</ele><time>2026-04-18T12:41:10.742Z</time></trkpt><trkpt lat="43.2958667" lon="10.7278567"><ele>221.0</ele><time>2026-04-18T12:41:11.745Z</time></trkpt><trkpt lat="43.2958717" lon="10.72774"><ele>219.75</ele><time>2026-04-18T12:41:12.741Z</time></trkpt><trkpt lat="43.295845" lon="10.7276283"><ele>218.5</ele><time>2026-04-18T12:41:13.742Z</time></trkpt><trkpt lat="43.295755" lon="10.727505"><ele>217.25</ele><time>2026-04-18T12:41:14.743Z</time></trkpt><trkpt lat="43.2956517" lon="10.72737"><ele>216.0</ele><time>2026-04-18T12:41:15.745Z</time></trkpt><trkpt lat="43.2955433" lon="10.7272483"><ele>215.4</ele><time>2026-04-18T12:41:16.743Z</time></trkpt><trkpt lat="43.2954467" lon="10.7271567"><ele>214.8</ele><time>2026-04-18T12:41:17.745Z</time></trkpt><trkpt lat="43.29538" lon="10.7270733"><ele>214.20000000000002</ele><time>2026-04-18T12:41:18.747Z</time></trkpt><trkpt lat="43.295345" lon="10.7269917"><ele>213.60000000000002</ele><time>2026-04-18T12:41:19.748Z</time></trkpt><trkpt lat="43.29537" lon="10.7268283"><ele>213.0</ele><time>2026-04-18T12:41:21.747Z</time></trkpt><trkpt lat="43.2954333" lon="10.7267517"><ele>213.0</ele><time>2026-04-18T12:41:22.745Z</time></trkpt><trkpt lat="43.2955133" lon="10.7266933"><ele>213.0</ele><time>2026-04-18T12:41:23.746Z</time></trkpt><trkpt lat="43.2956" lon="10.7266633"><ele>213.0</ele><time>2026-04-18T12:41:24.744Z</time></trkpt><trkpt lat="43.295685" lon="10.7266717"><ele>213.0</ele><time>2026-04-18T12:41:25.742Z</time></trkpt><trkpt lat="43.2957733" lon="10.72672"><ele>213.0</ele><time>2026-04-18T12:41:26.746Z</time></trkpt><trkpt lat="43.2958933" lon="10.7268133"><ele>213.60000000000002</ele><time>2026-04-18T12:41:27.744Z</time></trkpt><trkpt lat="43.2960033" lon="10.7269167"><ele>214.20000000000002</ele><time>2026-04-18T12:41:28.744Z</time></trkpt><trkpt lat="43.2960967" lon="10.727015"><ele>214.8</ele><time>2026-04-18T12:41:29.743Z</time></trkpt><trkpt lat="43.296175" lon="10.7270883"><ele>215.4</ele><time>2026-04-18T12:41:30.743Z</time></trkpt><trkpt lat="43.29625" lon="10.7271383"><ele>216.0</ele><time>2026-04-18T12:41:31.741Z</time></trkpt><trkpt lat="43.29635" lon="10.7271017"><ele>216.0</ele><time>2026-04-18T12:41:33.747Z</time></trkpt><trkpt lat="43.29638" lon="10.72695"><ele>216.00000000000003</ele><time>2026-04-18T12:41:35.746Z</time></trkpt><trkpt lat="43.2963833" lon="10.7267783"><ele>216.00000000000003</ele><time>2026-04-18T12:41:37.747Z</time></trkpt><trkpt lat="43.2963917" lon="10.726685"><ele>216.0</ele><time>2026-04-18T12:41:38.744Z</time></trkpt><trkpt lat="43.2964083" lon="10.7265833"><ele>216.0</ele><time>2026-04-18T12:41:39.749Z</time></trkpt><trkpt lat="43.2964417" lon="10.7264633"><ele>212.20000000000002</ele><time>2026-04-18T12:41:40.741Z</time></trkpt><trkpt lat="43.296485" lon="10.7263367"><ele>208.40000000000003</ele><time>2026-04-18T12:41:41.746Z</time></trkpt><trkpt lat="43.2965117" lon="10.7262183"><ele>204.6</ele><time>2026-04-18T12:41:42.75Z</time></trkpt><trkpt lat="43.2965167" lon="10.7261"><ele>200.8</ele><time>2026-04-18T12:41:43.743Z</time></trkpt><trkpt lat="43.2964683" lon="10.72597"><ele>197.0</ele><time>2026-04-18T12:41:44.748Z</time></trkpt><trkpt lat="43.2964217" lon="10.72583"><ele>197.0</ele><time>2026-04-18T12:41:45.744Z</time></trkpt><trkpt lat="43.2963883" lon="10.7256867"><ele>197.0</ele><time>2026-04-18T12:41:46.751Z</time></trkpt><trkpt lat="43.296395" lon="10.7255583"><ele>197.0</ele><time>2026-04-18T12:41:47.745Z</time></trkpt><trkpt lat="43.2964267" lon="10.7254367"><ele>197.0</ele><time>2026-04-18T12:41:48.746Z</time></trkpt><trkpt lat="43.2964817" lon="10.725315"><ele>197.0</ele><time>2026-04-18T12:41:49.749Z</time></trkpt><trkpt lat="43.2965517" lon="10.7252017"><ele>194.0</ele><time>2026-04-18T12:41:50.747Z</time></trkpt><trkpt lat="43.2966433" lon="10.7250917"><ele>191.0</ele><time>2026-04-18T12:41:51.748Z</time></trkpt><trkpt lat="43.29676" lon="10.7250033"><ele>188.0</ele><time>2026-04-18T12:41:52.743Z</time></trkpt><trkpt lat="43.2968983" lon="10.724935"><ele>185.0</ele><time>2026-04-18T12:41:53.747Z</time></trkpt><trkpt lat="43.2970583" lon="10.724865"><ele>185.0</ele><time>2026-04-18T12:41:54.743Z</time></trkpt><trkpt lat="43.297225" lon="10.724795"><ele>185.0</ele><time>2026-04-18T12:41:55.742Z</time></trkpt><trkpt lat="43.2973783" lon="10.7247367"><ele>185.0</ele><time>2026-04-18T12:41:56.746Z</time></trkpt><trkpt lat="43.2975117" lon="10.7246883"><ele>185.0</ele><time>2026-04-18T12:41:57.744Z</time></trkpt><trkpt lat="43.2976233" lon="10.7246517"><ele>185.0</ele><time>2026-04-18T12:41:58.745Z</time></trkpt><trkpt lat="43.2977183" lon="10.7246117"><ele>185.0</ele><time>2026-04-18T12:41:59.744Z</time></trkpt><trkpt lat="43.29781" lon="10.7245883"><ele>185.0</ele><time>2026-04-18T12:42:00.749Z</time></trkpt><trkpt lat="43.2978983" lon="10.72457"><ele>185.0</ele><time>2026-04-18T12:42:01.746Z</time></trkpt><trkpt lat="43.2979917" lon="10.7245583"><ele>185.0</ele><time>2026-04-18T12:42:02.744Z</time></trkpt><trkpt lat="43.2980733" lon="10.7245333"><ele>185.0</ele><time>2026-04-18T12:42:03.745Z</time></trkpt><trkpt lat="43.298155" lon="10.7245067"><ele>185.0</ele><time>2026-04-18T12:42:04.744Z</time></trkpt><trkpt lat="43.2982433" lon="10.7244933"><ele>185.0</ele><time>2026-04-18T12:42:05.745Z</time></trkpt><trkpt lat="43.2983267" lon="10.7244933"><ele>185.0</ele><time>2026-04-18T12:42:06.743Z</time></trkpt><trkpt lat="43.2984133" lon="10.724515"><ele>185.0</ele><time>2026-04-18T12:42:07.747Z</time></trkpt><trkpt lat="43.2985017" lon="10.7245617"><ele>185.0</ele><time>2026-04-18T12:42:08.746Z</time></trkpt><trkpt lat="43.2986083" lon="10.7246267"><ele>185.0</ele><time>2026-04-18T12:42:09.744Z</time></trkpt><trkpt lat="43.2987067" lon="10.7246933"><ele>185.0</ele><time>2026-04-18T12:42:10.744Z</time></trkpt><trkpt lat="43.2988033" lon="10.72478"><ele>185.0</ele><time>2026-04-18T12:42:11.746Z</time></trkpt><trkpt lat="43.2988917" lon="10.7248683"><ele>183.33333333333331</ele><time>2026-04-18T12:42:12.745Z</time></trkpt><trkpt lat="43.29897" lon="10.7249417"><ele>181.66666666666666</ele><time>2026-04-18T12:42:13.742Z</time></trkpt><trkpt lat="43.2990367" lon="10.725005"><ele>180.0</ele><time>2026-04-18T12:42:14.742Z</time></trkpt><trkpt lat="43.2991033" lon="10.7250633"><ele>178.33333333333334</ele><time>2026-04-18T12:42:15.744Z</time></trkpt><trkpt lat="43.2991733" lon="10.725105"><ele>176.66666666666669</ele><time>2026-04-18T12:42:16.747Z</time></trkpt><trkpt lat="43.2992533" lon="10.7251217"><ele>175.0</ele><time>2026-04-18T12:42:17.747Z</time></trkpt><trkpt lat="43.2993517" lon="10.72511"><ele>175.0</ele><time>2026-04-18T12:42:18.746Z</time></trkpt><trkpt lat="43.29945" lon="10.72508"><ele>175.0</ele><time>2026-04-18T12:42:19.743Z</time></trkpt><trkpt lat="43.2995467" lon="10.7250567"><ele>175.0</ele><time>2026-04-18T12:42:20.743Z</time></trkpt><trkpt lat="43.2996267" lon="10.7250533"><ele>175.0</ele><time>2026-04-18T12:42:21.741Z</time></trkpt><trkpt lat="43.2997033" lon="10.7250967"><ele>175.0</ele><time>2026-04-18T12:42:22.744Z</time></trkpt><trkpt lat="43.2997833" lon="10.7251733"><ele>174.0</ele><time>2026-04-18T12:42:23.746Z</time></trkpt><trkpt lat="43.2998533" lon="10.72528"><ele>173.0</ele><time>2026-04-18T12:42:24.748Z</time></trkpt><trkpt lat="43.2999317" lon="10.72539"><ele>172.0</ele><time>2026-04-18T12:42:25.743Z</time></trkpt><trkpt lat="43.299995" lon="10.7254883"><ele>171.0</ele><time>2026-04-18T12:42:26.743Z</time></trkpt><trkpt lat="43.3000483" lon="10.7255683"><ele>170.0</ele><time>2026-04-18T12:42:27.745Z</time></trkpt><trkpt lat="43.3001083" lon="10.7256433"><ele>170.0</ele><time>2026-04-18T12:42:28.744Z</time></trkpt><trkpt lat="43.3001783" lon="10.7257167"><ele>170.0</ele><time>2026-04-18T12:42:29.743Z</time></trkpt><trkpt lat="43.3002517" lon="10.7257717"><ele>170.0</ele><time>2026-04-18T12:42:30.747Z</time></trkpt><trkpt lat="43.3003283" lon="10.7257967"><ele>170.0</ele><time>2026-04-18T12:42:31.748Z</time></trkpt><trkpt lat="43.3004017" lon="10.7258017"><ele>170.0</ele><time>2026-04-18T12:42:32.748Z</time></trkpt><trkpt lat="43.3005067" lon="10.72575"><ele>170.0</ele><time>2026-04-18T12:42:34.745Z</time></trkpt><trkpt lat="43.3005433" lon="10.7256717"><ele>170.0</ele><time>2026-04-18T12:42:35.745Z</time></trkpt><trkpt lat="43.3005467" lon="10.72556"><ele>170.0</ele><time>2026-04-18T12:42:36.749Z</time></trkpt><trkpt lat="43.3005233" lon="10.7254333"><ele>170.0</ele><time>2026-04-18T12:42:37.741Z</time></trkpt><trkpt lat="43.3005133" lon="10.7253183"><ele>170.0</ele><time>2026-04-18T12:42:38.746Z</time></trkpt><trkpt lat="43.3005183" lon="10.725205"><ele>170.0</ele><time>2026-04-18T12:42:39.743Z</time></trkpt><trkpt lat="43.3005417" lon="10.7250833"><ele>170.0</ele><time>2026-04-18T12:42:40.745Z</time></trkpt><trkpt lat="43.3005917" lon="10.72494"><ele>169.0</ele><time>2026-04-18T12:42:41.742Z</time></trkpt><trkpt lat="43.3006683" lon="10.7247917"><ele>168.0</ele><time>2026-04-18T12:42:42.742Z</time></trkpt><trkpt lat="43.300725" lon="10.7246367"><ele>167.0</ele><time>2026-04-18T12:42:43.745Z</time></trkpt><trkpt lat="43.3007667" lon="10.7244883"><ele>166.0</ele><time>2026-04-18T12:42:44.743Z</time></trkpt><trkpt lat="43.3007933" lon="10.7243183"><ele>164.20000000000002</ele><time>2026-04-18T12:42:45.743Z</time></trkpt><trkpt lat="43.300805" lon="10.72415"><ele>162.4</ele><time>2026-04-18T12:42:46.749Z</time></trkpt><trkpt lat="43.3008067" lon="10.7240033"><ele>160.6</ele><time>2026-04-18T12:42:47.746Z</time></trkpt><trkpt lat="43.300815" lon="10.7238833"><ele>158.8</ele><time>2026-04-18T12:42:48.746Z</time></trkpt><trkpt lat="43.3008283" lon="10.7237717"><ele>157.0</ele><time>2026-04-18T12:42:49.745Z</time></trkpt><trkpt lat="43.3008633" lon="10.7236833"><ele>157.0</ele><time>2026-04-18T12:42:50.747Z</time></trkpt><trkpt lat="43.30092" lon="10.7235967"><ele>157.0</ele><time>2026-04-18T12:42:51.743Z</time></trkpt><trkpt lat="43.300995" lon="10.7235283"><ele>157.0</ele><time>2026-04-18T12:42:52.747Z</time></trkpt><trkpt lat="43.3010967" lon="10.7234883"><ele>157.0</ele><time>2026-04-18T12:42:53.741Z</time></trkpt><trkpt lat="43.3011983" lon="10.72347"><ele>157.0</ele><time>2026-04-18T12:42:54.744Z</time></trkpt><trkpt lat="43.3012983" lon="10.7234633"><ele>156.5</ele><time>2026-04-18T12:42:55.744Z</time></trkpt><trkpt lat="43.3013917" lon="10.7234483"><ele>156.0</ele><time>2026-04-18T12:42:56.747Z</time></trkpt><trkpt lat="43.3014817" lon="10.723425"><ele>155.5</ele><time>2026-04-18T12:42:57.742Z</time></trkpt><trkpt lat="43.3015583" lon="10.723395"><ele>155.0</ele><time>2026-04-18T12:42:58.743Z</time></trkpt><trkpt lat="43.301625" lon="10.7233367"><ele>154.5</ele><time>2026-04-18T12:42:59.744Z</time></trkpt><trkpt lat="43.3016933" lon="10.7232583"><ele>154.0</ele><time>2026-04-18T12:43:00.745Z</time></trkpt><trkpt lat="43.3017483" lon="10.7231117"><ele>154.0</ele><time>2026-04-18T12:43:01.742Z</time></trkpt><trkpt lat="43.3017883" lon="10.7229583"><ele>154.0</ele><time>2026-04-18T12:43:02.745Z</time></trkpt><trkpt lat="43.3018217" lon="10.7228217"><ele>154.0</ele><time>2026-04-18T12:43:03.743Z</time></trkpt><trkpt lat="43.3018567" lon="10.7226983"><ele>154.0</ele><time>2026-04-18T12:43:04.745Z</time></trkpt><trkpt lat="43.3019033" lon="10.7225767"><ele>154.0</ele><time>2026-04-18T12:43:05.749Z</time></trkpt><trkpt lat="43.301965" lon="10.7224633"><ele>152.4</ele><time>2026-04-18T12:43:06.748Z</time></trkpt><trkpt lat="43.3020333" lon="10.7223617"><ele>150.8</ele><time>2026-04-18T12:43:07.748Z</time></trkpt><trkpt lat="43.3021117" lon="10.722295"><ele>149.2</ele><time>2026-04-18T12:43:08.748Z</time></trkpt><trkpt lat="43.3021983" lon="10.7222533"><ele>147.6</ele><time>2026-04-18T12:43:09.743Z</time></trkpt><trkpt lat="43.3022967" lon="10.7222333"><ele>146.0</ele><time>2026-04-18T12:43:10.744Z</time></trkpt><trkpt lat="43.3024033" lon="10.722235"><ele>146.0</ele><time>2026-04-18T12:43:11.744Z</time></trkpt><trkpt lat="43.3025117" lon="10.722245"><ele>146.0</ele><time>2026-04-18T12:43:12.745Z</time></trkpt><trkpt lat="43.3026133" lon="10.722265"><ele>146.0</ele><time>2026-04-18T12:43:13.745Z</time></trkpt><trkpt lat="43.3027167" lon="10.7222883"><ele>146.0</ele><time>2026-04-18T12:43:14.743Z</time></trkpt><trkpt lat="43.302805" lon="10.72232"><ele>146.0</ele><time>2026-04-18T12:43:15.746Z</time></trkpt><trkpt lat="43.302885" lon="10.7223633"><ele>146.0</ele><time>2026-04-18T12:43:16.751Z</time></trkpt><trkpt lat="43.3029583" lon="10.722415"><ele>146.0</ele><time>2026-04-18T12:43:17.743Z</time></trkpt><trkpt lat="43.30302" lon="10.7224833"><ele>146.0</ele><time>2026-04-18T12:43:18.746Z</time></trkpt><trkpt lat="43.303075" lon="10.7225717"><ele>146.0</ele><time>2026-04-18T12:43:19.746Z</time></trkpt><trkpt lat="43.3031283" lon="10.7226767"><ele>146.0</ele><time>2026-04-18T12:43:20.751Z</time></trkpt><trkpt lat="43.3031883" lon="10.722795"><ele>146.0</ele><time>2026-04-18T12:43:21.747Z</time></trkpt><trkpt lat="43.3032467" lon="10.72291"><ele>144.0</ele><time>2026-04-18T12:43:22.747Z</time></trkpt><trkpt lat="43.3032967" lon="10.7230217"><ele>142.0</ele><time>2026-04-18T12:43:23.748Z</time></trkpt><trkpt lat="43.3033367" lon="10.723145"><ele>140.0</ele><time>2026-04-18T12:43:24.749Z</time></trkpt><trkpt lat="43.30336" lon="10.7232767"><ele>138.0</ele><time>2026-04-18T12:43:25.746Z</time></trkpt><trkpt lat="43.30339" lon="10.723425"><ele>136.0</ele><time>2026-04-18T12:43:26.745Z</time></trkpt><trkpt lat="43.3034233" lon="10.723565"><ele>135.83333333333334</ele><time>2026-04-18T12:43:27.742Z</time></trkpt><trkpt lat="43.3034533" lon="10.723685"><ele>135.66666666666669</ele><time>2026-04-18T12:43:28.743Z</time></trkpt><trkpt lat="43.3034917" lon="10.7237867"><ele>135.5</ele><time>2026-04-18T12:43:29.743Z</time></trkpt><trkpt lat="43.3035283" lon="10.7238683"><ele>135.33333333333334</ele><time>2026-04-18T12:43:30.758Z</time></trkpt><trkpt lat="43.3035667" lon="10.7239383"><ele>135.16666666666666</ele><time>2026-04-18T12:43:31.75Z</time></trkpt><trkpt lat="43.3036333" lon="10.72405"><ele>135.0</ele><time>2026-04-18T12:43:33.748Z</time></trkpt><trkpt lat="43.3037117" lon="10.7241767"><ele>135.0</ele><time>2026-04-18T12:43:35.744Z</time></trkpt><trkpt lat="43.3037583" lon="10.72426"><ele>135.0</ele><time>2026-04-18T12:43:36.746Z</time></trkpt><trkpt lat="43.30381" lon="10.7243383"><ele>135.0</ele><time>2026-04-18T12:43:37.743Z</time></trkpt><trkpt lat="43.3038567" lon="10.724405"><ele>135.0</ele><time>2026-04-18T12:43:38.751Z</time></trkpt><trkpt lat="43.303925" lon="10.724485"><ele>135.0</ele><time>2026-04-18T12:43:40.744Z</time></trkpt><trkpt lat="43.3038533" lon="10.7243933"><ele>135.0</ele><time>2026-04-18T12:44:15.746Z</time></trkpt><trkpt lat="43.3037667" lon="10.7242767"><ele>135.0</ele><time>2026-04-18T12:44:17.745Z</time></trkpt><trkpt lat="43.3037217" lon="10.7242067"><ele>135.0</ele><time>2026-04-18T12:44:18.742Z</time></trkpt><trkpt lat="43.303675" lon="10.7241333"><ele>135.0</ele><time>2026-04-18T12:44:19.744Z</time></trkpt><trkpt lat="43.30363" lon="10.7240633"><ele>135.0</ele><time>2026-04-18T12:44:20.745Z</time></trkpt><trkpt lat="43.30358" lon="10.7239933"><ele>135.0</ele><time>2026-04-18T12:44:21.746Z</time></trkpt><trkpt lat="43.303535" lon="10.723925"><ele>135.0</ele><time>2026-04-18T12:44:22.743Z</time></trkpt><trkpt lat="43.3034783" lon="10.7237917"><ele>135.0</ele><time>2026-04-18T12:44:24.743Z</time></trkpt><trkpt lat="43.3034817" lon="10.7236533"><ele>135.0</ele><time>2026-04-18T12:44:26.749Z</time></trkpt><trkpt lat="43.3035233" lon="10.7234917"><ele>135.0</ele><time>2026-04-18T12:44:28.743Z</time></trkpt><trkpt lat="43.30354" lon="10.7233933"><ele>135.0</ele><time>2026-04-18T12:44:29.74Z</time></trkpt><trkpt lat="43.303555" lon="10.7232833"><ele>135.0</ele><time>2026-04-18T12:44:30.742Z</time></trkpt><trkpt lat="43.3035683" lon="10.7231767"><ele>135.16666666666666</ele><time>2026-04-18T12:44:31.74Z</time></trkpt><trkpt lat="43.3035767" lon="10.7230667"><ele>135.33333333333334</ele><time>2026-04-18T12:44:32.744Z</time></trkpt><trkpt lat="43.30357" lon="10.7229583"><ele>135.5</ele><time>2026-04-18T12:44:33.747Z</time></trkpt><trkpt lat="43.3035617" lon="10.7228533"><ele>135.66666666666669</ele><time>2026-04-18T12:44:34.745Z</time></trkpt><trkpt lat="43.3035683" lon="10.7227483"><ele>135.83333333333334</ele><time>2026-04-18T12:44:35.743Z</time></trkpt><trkpt lat="43.3035833" lon="10.7226333"><ele>136.0</ele><time>2026-04-18T12:44:36.742Z</time></trkpt><trkpt lat="43.3036083" lon="10.7225133"><ele>135.4</ele><time>2026-04-18T12:44:37.742Z</time></trkpt><trkpt lat="43.303635" lon="10.7224033"><ele>134.8</ele><time>2026-04-18T12:44:38.748Z</time></trkpt><trkpt lat="43.3036783" lon="10.7222783"><ele>134.20000000000002</ele><time>2026-04-18T12:44:39.746Z</time></trkpt><trkpt lat="43.30373" lon="10.7221517"><ele>133.6</ele><time>2026-04-18T12:44:40.746Z</time></trkpt><trkpt lat="43.3037833" lon="10.7220317"><ele>133.0</ele><time>2026-04-18T12:44:41.744Z</time></trkpt><trkpt lat="43.303835" lon="10.7219217"><ele>132.5</ele><time>2026-04-18T12:44:42.745Z</time></trkpt><trkpt lat="43.3038833" lon="10.7218183"><ele>132.0</ele><time>2026-04-18T12:44:43.749Z</time></trkpt><trkpt lat="43.3039367" lon="10.7217233"><ele>131.5</ele><time>2026-04-18T12:44:44.744Z</time></trkpt><trkpt lat="43.3039867" lon="10.721625"><ele>131.0</ele><time>2026-04-18T12:44:45.744Z</time></trkpt><trkpt lat="43.304035" lon="10.72152"><ele>130.5</ele><time>2026-04-18T12:44:46.743Z</time></trkpt><trkpt lat="43.304085" lon="10.721415"><ele>130.0</ele><time>2026-04-18T12:44:47.747Z</time></trkpt><trkpt lat="43.3041467" lon="10.721315"><ele>128.83333333333334</ele><time>2026-04-18T12:44:48.742Z</time></trkpt><trkpt lat="43.304205" lon="10.72122"><ele>127.66666666666667</ele><time>2026-04-18T12:44:49.745Z</time></trkpt><trkpt lat="43.3042583" lon="10.7211283"><ele>126.5</ele><time>2026-04-18T12:44:50.747Z</time></trkpt><trkpt lat="43.3043083" lon="10.7210367"><ele>125.33333333333334</ele><time>2026-04-18T12:44:51.744Z</time></trkpt><trkpt lat="43.3043567" lon="10.7209467"><ele>124.16666666666667</ele><time>2026-04-18T12:44:52.742Z</time></trkpt><trkpt lat="43.304405" lon="10.7208667"><ele>123.0</ele><time>2026-04-18T12:44:53.747Z</time></trkpt><trkpt lat="43.304455" lon="10.7207983"><ele>123.0</ele><time>2026-04-18T12:44:54.749Z</time></trkpt><trkpt lat="43.3045233" lon="10.7207383"><ele>123.0</ele><time>2026-04-18T12:44:55.742Z</time></trkpt><trkpt lat="43.3045933" lon="10.7206967"><ele>123.0</ele><time>2026-04-18T12:44:56.741Z</time></trkpt><trkpt lat="43.30468" lon="10.7206867"><ele>123.0</ele><time>2026-04-18T12:44:57.741Z</time></trkpt><trkpt lat="43.3047667" lon="10.7206867"><ele>123.0</ele><time>2026-04-18T12:44:58.745Z</time></trkpt><trkpt lat="43.3048483" lon="10.72068"><ele>123.0</ele><time>2026-04-18T12:44:59.745Z</time></trkpt><trkpt lat="43.304925" lon="10.72067"><ele>120.66666666666667</ele><time>2026-04-18T12:45:00.744Z</time></trkpt><trkpt lat="43.305" lon="10.720655"><ele>118.33333333333334</ele><time>2026-04-18T12:45:01.742Z</time></trkpt><trkpt lat="43.3050717" lon="10.720625"><ele>116.0</ele><time>2026-04-18T12:45:02.746Z</time></trkpt><trkpt lat="43.3051383" lon="10.720595"><ele>113.66666666666667</ele><time>2026-04-18T12:45:03.746Z</time></trkpt><trkpt lat="43.3052" lon="10.720545"><ele>111.33333333333334</ele><time>2026-04-18T12:45:04.745Z</time></trkpt><trkpt lat="43.3052617" lon="10.7204717"><ele>109.0</ele><time>2026-04-18T12:45:05.745Z</time></trkpt><trkpt lat="43.30531" lon="10.7203833"><ele>109.0</ele><time>2026-04-18T12:45:06.744Z</time></trkpt><trkpt lat="43.305345" lon="10.7202717"><ele>109.0</ele><time>2026-04-18T12:45:07.741Z</time></trkpt><trkpt lat="43.305375" lon="10.7201483"><ele>109.0</ele><time>2026-04-18T12:45:08.746Z</time></trkpt><trkpt lat="43.3053983" lon="10.7200233"><ele>109.0</ele><time>2026-04-18T12:45:09.743Z</time></trkpt><trkpt lat="43.3054167" lon="10.7199033"><ele>109.0</ele><time>2026-04-18T12:45:10.744Z</time></trkpt><trkpt lat="43.3054367" lon="10.719785"><ele>110.00000000000001</ele><time>2026-04-18T12:45:11.744Z</time></trkpt><trkpt lat="43.3054433" lon="10.7196683"><ele>111.0</ele><time>2026-04-18T12:45:12.745Z</time></trkpt><trkpt lat="43.3054717" lon="10.7195783"><ele>112.0</ele><time>2026-04-18T12:45:13.748Z</time></trkpt><trkpt lat="43.30546" lon="10.7194083"><ele>113.0</ele><time>2026-04-18T12:45:15.741Z</time></trkpt><trkpt lat="43.3054317" lon="10.7193267"><ele>114.00000000000001</ele><time>2026-04-18T12:45:16.742Z</time></trkpt><trkpt lat="43.305395" lon="10.7192483"><ele>115.0</ele><time>2026-04-18T12:45:17.742Z</time></trkpt><trkpt lat="43.30539" lon="10.7191417"><ele>115.0</ele><time>2026-04-18T12:45:18.744Z</time></trkpt><trkpt lat="43.30537" lon="10.718995"><ele>115.0</ele><time>2026-04-18T12:45:19.747Z</time></trkpt><trkpt lat="43.3053617" lon="10.7188467"><ele>115.0</ele><time>2026-04-18T12:45:20.745Z</time></trkpt><trkpt lat="43.305365" lon="10.7187117"><ele>115.0</ele><time>2026-04-18T12:45:21.745Z</time></trkpt><trkpt lat="43.3053817" lon="10.7185917"><ele>115.0</ele><time>2026-04-18T12:45:22.745Z</time></trkpt><trkpt lat="43.305415" lon="10.7184933"><ele>115.00000000000001</ele><time>2026-04-18T12:45:23.744Z</time></trkpt><trkpt lat="43.305465" lon="10.71842"><ele>115.0</ele><time>2026-04-18T12:45:24.747Z</time></trkpt><trkpt lat="43.305545" lon="10.71838"><ele>115.0</ele><time>2026-04-18T12:45:25.744Z</time></trkpt><trkpt lat="43.3056317" lon="10.7183567"><ele>115.0</ele><time>2026-04-18T12:45:26.746Z</time></trkpt><trkpt lat="43.3057117" lon="10.7183217"><ele>115.00000000000001</ele><time>2026-04-18T12:45:27.745Z</time></trkpt><trkpt lat="43.3057967" lon="10.71832"><ele>115.0</ele><time>2026-04-18T12:45:28.748Z</time></trkpt><trkpt lat="43.305875" lon="10.7183033"><ele>112.50000000000001</ele><time>2026-04-18T12:45:29.749Z</time></trkpt><trkpt lat="43.3059483" lon="10.71825"><ele>110.0</ele><time>2026-04-18T12:45:30.747Z</time></trkpt><trkpt lat="43.3060183" lon="10.7182"><ele>107.5</ele><time>2026-04-18T12:45:31.747Z</time></trkpt><trkpt lat="43.3060717" lon="10.718105"><ele>105.0</ele><time>2026-04-18T12:45:32.747Z</time></trkpt><trkpt lat="43.306115" lon="10.718015"><ele>102.50000000000001</ele><time>2026-04-18T12:45:33.748Z</time></trkpt><trkpt lat="43.3061417" lon="10.7178933"><ele>100.0</ele><time>2026-04-18T12:45:34.742Z</time></trkpt><trkpt lat="43.3061667" lon="10.7177867"><ele>100.00000000000001</ele><time>2026-04-18T12:45:35.743Z</time></trkpt><trkpt lat="43.3061833" lon="10.7176667"><ele>100.0</ele><time>2026-04-18T12:45:36.748Z</time></trkpt><trkpt lat="43.3062167" lon="10.71757"><ele>100.0</ele><time>2026-04-18T12:45:37.743Z</time></trkpt><trkpt lat="43.3062567" lon="10.7174783"><ele>100.0</ele><time>2026-04-18T12:45:38.746Z</time></trkpt><trkpt lat="43.3063267" lon="10.7174067"><ele>100.00000000000001</ele><time>2026-04-18T12:45:39.743Z</time></trkpt><trkpt lat="43.3064217" lon="10.717365"><ele>100.0</ele><time>2026-04-18T12:45:40.742Z</time></trkpt><trkpt lat="43.3065017" lon="10.7173167"><ele>98.33333333333334</ele><time>2026-04-18T12:45:41.743Z</time></trkpt><trkpt lat="43.3065767" lon="10.71726"><ele>96.66666666666667</ele><time>2026-04-18T12:45:42.74Z</time></trkpt><trkpt lat="43.3066467" lon="10.71723"><ele>95.0</ele><time>2026-04-18T12:45:43.75Z</time></trkpt><trkpt lat="43.3066983" lon="10.7171667"><ele>93.33333333333334</ele><time>2026-04-18T12:45:44.745Z</time></trkpt><trkpt lat="43.3067433" lon="10.7170783"><ele>91.66666666666667</ele><time>2026-04-18T12:45:45.743Z</time></trkpt><trkpt lat="43.306785" lon="10.71699"><ele>90.0</ele><time>2026-04-18T12:45:46.746Z</time></trkpt><trkpt lat="43.306805" lon="10.71688"><ele>90.0</ele><time>2026-04-18T12:45:47.743Z</time></trkpt><trkpt lat="43.3068167" lon="10.7167833"><ele>90.0</ele><time>2026-04-18T12:45:48.746Z</time></trkpt><trkpt lat="43.306815" lon="10.7165983"><ele>90.0</ele><time>2026-04-18T12:45:50.744Z</time></trkpt><trkpt lat="43.3068017" lon="10.7164917"><ele>90.0</ele><time>2026-04-18T12:45:51.749Z</time></trkpt><trkpt lat="43.3067967" lon="10.7163967"><ele>90.0</ele><time>2026-04-18T12:45:52.748Z</time></trkpt><trkpt lat="43.3067783" lon="10.71626"><ele>90.0</ele><time>2026-04-18T12:45:54.745Z</time></trkpt><trkpt lat="43.3068117" lon="10.7161683"><ele>90.0</ele><time>2026-04-18T12:45:57.75Z</time></trkpt><trkpt lat="43.3068633" lon="10.716235"><ele>90.0</ele><time>2026-04-18T12:46:10.746Z</time></trkpt><trkpt lat="43.3069167" lon="10.71642"><ele>90.0</ele><time>2026-04-18T12:46:12.747Z</time></trkpt><trkpt lat="43.30695" lon="10.7165417"><ele>90.0</ele><time>2026-04-18T12:46:13.747Z</time></trkpt><trkpt lat="43.307" lon="10.7166467"><ele>90.0</ele><time>2026-04-18T12:46:14.746Z</time></trkpt><trkpt lat="43.3070367" lon="10.7167583"><ele>90.0</ele><time>2026-04-18T12:46:15.748Z</time></trkpt><trkpt lat="43.3070733" lon="10.7168783"><ele>90.0</ele><time>2026-04-18T12:46:16.743Z</time></trkpt><trkpt lat="43.3070933" lon="10.7170233"><ele>90.0</ele><time>2026-04-18T12:46:17.745Z</time></trkpt><trkpt lat="43.3071383" lon="10.7171517"><ele>90.0</ele><time>2026-04-18T12:46:18.744Z</time></trkpt><trkpt lat="43.3071433" lon="10.71729"><ele>89.83333333333333</ele><time>2026-04-18T12:46:19.746Z</time></trkpt><trkpt lat="43.3071667" lon="10.7174067"><ele>89.66666666666667</ele><time>2026-04-18T12:46:20.747Z</time></trkpt><trkpt lat="43.307155" lon="10.7175167"><ele>89.5</ele><time>2026-04-18T12:46:21.743Z</time></trkpt><trkpt lat="43.30715" lon="10.7176133"><ele>89.33333333333334</ele><time>2026-04-18T12:46:22.746Z</time></trkpt><trkpt lat="43.3071117" lon="10.7177033"><ele>89.16666666666667</ele><time>2026-04-18T12:46:23.745Z</time></trkpt><trkpt lat="43.30707" lon="10.7177833"><ele>89.0</ele><time>2026-04-18T12:46:24.745Z</time></trkpt><trkpt lat="43.307005" lon="10.7178383"><ele>88.16666666666667</ele><time>2026-04-18T12:46:25.747Z</time></trkpt><trkpt lat="43.3069467" lon="10.7178883"><ele>87.33333333333334</ele><time>2026-04-18T12:46:26.747Z</time></trkpt><trkpt lat="43.306895" lon="10.7179933"><ele>86.5</ele><time>2026-04-18T12:46:28.75Z</time></trkpt><trkpt lat="43.3069283" lon="10.7181367"><ele>85.66666666666667</ele><time>2026-04-18T12:46:30.742Z</time></trkpt><trkpt lat="43.3069683" lon="10.7182467"><ele>84.83333333333333</ele><time>2026-04-18T12:46:31.742Z</time></trkpt><trkpt lat="43.3070117" lon="10.7183517"><ele>84.0</ele><time>2026-04-18T12:46:32.745Z</time></trkpt><trkpt lat="43.3070083" lon="10.7184717"><ele>83.4</ele><time>2026-04-18T12:46:33.749Z</time></trkpt><trkpt lat="43.3070033" lon="10.718585"><ele>82.80000000000001</ele><time>2026-04-18T12:46:34.749Z</time></trkpt><trkpt lat="43.306975" lon="10.7187183"><ele>82.19999999999999</ele><time>2026-04-18T12:46:35.747Z</time></trkpt><trkpt lat="43.30694" lon="10.7188517"><ele>81.6</ele><time>2026-04-18T12:46:36.74Z</time></trkpt><trkpt lat="43.306915" lon="10.718975"><ele>81.0</ele><time>2026-04-18T12:46:37.74Z</time></trkpt><trkpt lat="43.3069283" lon="10.71909"><ele>81.0</ele><time>2026-04-18T12:46:38.75Z</time></trkpt><trkpt lat="43.306955" lon="10.7191933"><ele>81.0</ele><time>2026-04-18T12:46:39.745Z</time></trkpt><trkpt lat="43.3069517" lon="10.71931"><ele>81.0</ele><time>2026-04-18T12:46:40.742Z</time></trkpt><trkpt lat="43.3069583" lon="10.7194"><ele>81.0</ele><time>2026-04-18T12:46:41.744Z</time></trkpt><trkpt lat="43.306975" lon="10.719515"><ele>81.0</ele><time>2026-04-18T12:46:43.751Z</time></trkpt><trkpt lat="43.3070467" lon="10.7194933"><ele>81.0</ele><time>2026-04-18T12:46:45.743Z</time></trkpt><trkpt lat="43.3071233" lon="10.7193717"><ele>81.0</ele><time>2026-04-18T12:46:47.747Z</time></trkpt><trkpt lat="43.3071533" lon="10.7192383"><ele>81.0</ele><time>2026-04-18T12:46:48.745Z</time></trkpt><trkpt lat="43.307205" lon="10.7190533"><ele>81.0</ele><time>2026-04-18T12:46:49.742Z</time></trkpt><trkpt lat="43.3072567" lon="10.71886"><ele>81.0</ele><time>2026-04-18T12:46:50.747Z</time></trkpt><trkpt lat="43.3073083" lon="10.71862"><ele>78.33333333333333</ele><time>2026-04-18T12:46:51.744Z</time></trkpt><trkpt lat="43.307395" lon="10.7183583"><ele>75.66666666666666</ele><time>2026-04-18T12:46:52.745Z</time></trkpt><trkpt lat="43.3074667" lon="10.718145"><ele>73.0</ele><time>2026-04-18T12:46:53.742Z</time></trkpt><trkpt lat="43.30751" lon="10.7179483"><ele>73.0</ele><time>2026-04-18T12:46:54.745Z</time></trkpt><trkpt lat="43.307515" lon="10.7177683"><ele>73.0</ele><time>2026-04-18T12:46:55.744Z</time></trkpt><trkpt lat="43.3075683" lon="10.717585"><ele>73.0</ele><time>2026-04-18T12:46:56.743Z</time></trkpt><trkpt lat="43.307605" lon="10.7174317"><ele>73.0</ele><time>2026-04-18T12:46:57.741Z</time></trkpt><trkpt lat="43.3076583" lon="10.71727"><ele>73.2</ele><time>2026-04-18T12:46:58.747Z</time></trkpt><trkpt lat="43.3076917" lon="10.717125"><ele>73.4</ele><time>2026-04-18T12:46:59.743Z</time></trkpt><trkpt lat="43.307735" lon="10.716985"><ele>73.60000000000001</ele><time>2026-04-18T12:47:00.743Z</time></trkpt><trkpt lat="43.30777" lon="10.7168517"><ele>73.8</ele><time>2026-04-18T12:47:01.745Z</time></trkpt><trkpt lat="43.3077917" lon="10.7167317"><ele>74.0</ele><time>2026-04-18T12:47:02.753Z</time></trkpt><trkpt lat="43.30784" lon="10.716625"><ele>74.33333333333334</ele><time>2026-04-18T12:47:03.75Z</time></trkpt><trkpt lat="43.307875" lon="10.7165167"><ele>74.66666666666667</ele><time>2026-04-18T12:47:04.741Z</time></trkpt><trkpt lat="43.3079133" lon="10.7164233"><ele>75.0</ele><time>2026-04-18T12:47:05.743Z</time></trkpt><trkpt lat="43.3079717" lon="10.7163433"><ele>75.33333333333333</ele><time>2026-04-18T12:47:06.748Z</time></trkpt><trkpt lat="43.3080533" lon="10.7162783"><ele>75.66666666666666</ele><time>2026-04-18T12:47:07.747Z</time></trkpt><trkpt lat="43.3081367" lon="10.7162117"><ele>76.0</ele><time>2026-04-18T12:47:08.745Z</time></trkpt><trkpt lat="43.3082267" lon="10.71614"><ele>75.39999999999999</ele><time>2026-04-18T12:47:09.743Z</time></trkpt><trkpt lat="43.3083183" lon="10.7160717"><ele>74.8</ele><time>2026-04-18T12:47:10.746Z</time></trkpt><trkpt lat="43.3083933" lon="10.7159933"><ele>74.19999999999999</ele><time>2026-04-18T12:47:11.742Z</time></trkpt><trkpt lat="43.3084717" lon="10.71593"><ele>73.6</ele><time>2026-04-18T12:47:12.746Z</time></trkpt><trkpt lat="43.3085267" lon="10.715835"><ele>73.0</ele><time>2026-04-18T12:47:13.745Z</time></trkpt><trkpt lat="43.308565" lon="10.71574"><ele>73.0</ele><time>2026-04-18T12:47:14.744Z</time></trkpt><trkpt lat="43.30858" lon="10.7156333"><ele>73.0</ele><time>2026-04-18T12:47:15.749Z</time></trkpt><trkpt lat="43.30859" lon="10.7155217"><ele>73.0</ele><time>2026-04-18T12:47:16.742Z</time></trkpt><trkpt lat="43.3086167" lon="10.7154333"><ele>73.0</ele><time>2026-04-18T12:47:17.746Z</time></trkpt><trkpt lat="43.308635" lon="10.715345"><ele>73.0</ele><time>2026-04-18T12:47:18.744Z</time></trkpt><trkpt lat="43.3087183" lon="10.7152333"><ele>73.0</ele><time>2026-04-18T12:47:20.744Z</time></trkpt><trkpt lat="43.3088083" lon="10.715135"><ele>73.66666666666666</ele><time>2026-04-18T12:47:22.746Z</time></trkpt><trkpt lat="43.3088583" lon="10.7150783"><ele>74.33333333333333</ele><time>2026-04-18T12:47:23.745Z</time></trkpt><trkpt lat="43.30892" lon="10.7150167"><ele>75.0</ele><time>2026-04-18T12:47:24.749Z</time></trkpt><trkpt lat="43.308975" lon="10.7149083"><ele>75.66666666666667</ele><time>2026-04-18T12:47:25.746Z</time></trkpt><trkpt lat="43.309045" lon="10.7148017"><ele>76.33333333333334</ele><time>2026-04-18T12:47:26.751Z</time></trkpt><trkpt lat="43.3091133" lon="10.7147"><ele>77.0</ele><time>2026-04-18T12:47:27.745Z</time></trkpt><trkpt lat="43.3091583" lon="10.7145867"><ele>75.5</ele><time>2026-04-18T12:47:28.744Z</time></trkpt><trkpt lat="43.3092" lon="10.7144767"><ele>74.0</ele><time>2026-04-18T12:47:29.746Z</time></trkpt><trkpt lat="43.30924" lon="10.71437"><ele>72.5</ele><time>2026-04-18T12:47:30.748Z</time></trkpt><trkpt lat="43.3092933" lon="10.7142733"><ele>71.0</ele><time>2026-04-18T12:47:31.749Z</time></trkpt><trkpt lat="43.3093517" lon="10.7141767"><ele>69.5</ele><time>2026-04-18T12:47:32.748Z</time></trkpt><trkpt lat="43.3094" lon="10.714075"><ele>68.0</ele><time>2026-04-18T12:47:33.744Z</time></trkpt><trkpt lat="43.3094683" lon="10.714"><ele>68.0</ele><time>2026-04-18T12:47:34.74Z</time></trkpt><trkpt lat="43.3095633" lon="10.7139633"><ele>68.0</ele><time>2026-04-18T12:47:35.742Z</time></trkpt><trkpt lat="43.3096767" lon="10.7139583"><ele>68.0</ele><time>2026-04-18T12:47:36.749Z</time></trkpt><trkpt lat="43.3097717" lon="10.713935"><ele>68.0</ele><time>2026-04-18T12:47:37.75Z</time></trkpt><trkpt lat="43.30985" lon="10.7138833"><ele>68.0</ele><time>2026-04-18T12:47:38.751Z</time></trkpt><trkpt lat="43.30993" lon="10.713815"><ele>68.0</ele><time>2026-04-18T12:47:39.743Z</time></trkpt><trkpt lat="43.3100117" lon="10.7136917"><ele>68.0</ele><time>2026-04-18T12:47:40.746Z</time></trkpt><trkpt lat="43.3101167" lon="10.7135733"><ele>68.0</ele><time>2026-04-18T12:47:41.747Z</time></trkpt><trkpt lat="43.3102217" lon="10.713465"><ele>68.0</ele><time>2026-04-18T12:47:42.742Z</time></trkpt><trkpt lat="43.310305" lon="10.7133783"><ele>67.4</ele><time>2026-04-18T12:47:43.748Z</time></trkpt><trkpt lat="43.310365" lon="10.7133083"><ele>66.8</ele><time>2026-04-18T12:47:44.743Z</time></trkpt><trkpt lat="43.3104133" lon="10.713225"><ele>66.2</ele><time>2026-04-18T12:47:46.741Z</time></trkpt><trkpt lat="43.310485" lon="10.7131383"><ele>65.6</ele><time>2026-04-18T12:47:59.751Z</time></trkpt><trkpt lat="43.31055" lon="10.7130583"><ele>65.0</ele><time>2026-04-18T12:48:01.749Z</time></trkpt><trkpt lat="43.3106417" lon="10.71296"><ele>64.83333333333334</ele><time>2026-04-18T12:48:03.743Z</time></trkpt><trkpt lat="43.310685" lon="10.71289"><ele>64.66666666666667</ele><time>2026-04-18T12:48:04.745Z</time></trkpt><trkpt lat="43.3107317" lon="10.7128317"><ele>64.5</ele><time>2026-04-18T12:48:05.743Z</time></trkpt><trkpt lat="43.3108133" lon="10.712725"><ele>64.33333333333333</ele><time>2026-04-18T12:48:07.746Z</time></trkpt><trkpt lat="43.31089" lon="10.712635"><ele>64.16666666666666</ele><time>2026-04-18T12:48:09.743Z</time></trkpt><trkpt lat="43.3109517" lon="10.712575"><ele>64.0</ele><time>2026-04-18T12:48:11.743Z</time></trkpt><trkpt lat="43.3108717" lon="10.7126467"><ele>63.99999999999999</ele><time>2026-04-18T12:48:25.749Z</time></trkpt><trkpt lat="43.3108217" lon="10.712735"><ele>64.0</ele><time>2026-04-18T12:48:26.747Z</time></trkpt><trkpt lat="43.3107633" lon="10.7128033"><ele>64.0</ele><time>2026-04-18T12:48:27.747Z</time></trkpt><trkpt lat="43.3107117" lon="10.7128767"><ele>64.0</ele><time>2026-04-18T12:48:28.751Z</time></trkpt><trkpt lat="43.31066" lon="10.7129417"><ele>63.99999999999999</ele><time>2026-04-18T12:48:29.748Z</time></trkpt><trkpt lat="43.3105717" lon="10.7130333"><ele>64.0</ele><time>2026-04-18T12:48:31.747Z</time></trkpt><trkpt lat="43.3104967" lon="10.7130567"><ele>64.0</ele><time>2026-04-18T12:48:33.743Z</time></trkpt><trkpt lat="43.31045" lon="10.71293"><ele>64.0</ele><time>2026-04-18T12:48:36.746Z</time></trkpt><trkpt lat="43.31048" lon="10.7127967"><ele>64.0</ele><time>2026-04-18T12:48:37.748Z</time></trkpt><trkpt lat="43.3105167" lon="10.7126567"><ele>64.0</ele><time>2026-04-18T12:48:38.751Z</time></trkpt><trkpt lat="43.3105517" lon="10.7125133"><ele>64.0</ele><time>2026-04-18T12:48:39.748Z</time></trkpt><trkpt lat="43.3105983" lon="10.71234"><ele>64.0</ele><time>2026-04-18T12:48:40.746Z</time></trkpt><trkpt lat="43.3106583" lon="10.71213"><ele>64.0</ele><time>2026-04-18T12:48:41.744Z</time></trkpt><trkpt lat="43.3107383" lon="10.7118933"><ele>64.0</ele><time>2026-04-18T12:48:42.746Z</time></trkpt><trkpt lat="43.3108317" lon="10.7116367"><ele>63.5</ele><time>2026-04-18T12:48:43.742Z</time></trkpt><trkpt lat="43.3109283" lon="10.7113533"><ele>63.0</ele><time>2026-04-18T12:48:44.75Z</time></trkpt><trkpt lat="43.3110283" lon="10.7110467"><ele>62.5</ele><time>2026-04-18T12:48:45.746Z</time></trkpt><trkpt lat="43.311135" lon="10.71073"><ele>62.0</ele><time>2026-04-18T12:48:46.746Z</time></trkpt><trkpt lat="43.31125" lon="10.7104067"><ele>62.0</ele><time>2026-04-18T12:48:47.746Z</time></trkpt><trkpt lat="43.3113633" lon="10.7100917"><ele>62.0</ele><time>2026-04-18T12:48:48.749Z</time></trkpt><trkpt lat="43.31148" lon="10.7097917"><ele>61.5</ele><time>2026-04-18T12:48:49.743Z</time></trkpt><trkpt lat="43.311675" lon="10.70932"><ele>61.0</ele><time>2026-04-18T12:48:51.243Z</time></trkpt><trkpt lat="43.3117733" lon="10.7090417"><ele>61.0</ele><time>2026-04-18T12:48:52.247Z</time></trkpt><trkpt lat="43.31192" lon="10.70865"><ele>61.0</ele><time>2026-04-18T12:48:53.744Z</time></trkpt><trkpt lat="43.312005" lon="10.7084"><ele>60.666666666666664</ele><time>2026-04-18T12:48:54.745Z</time></trkpt><trkpt lat="43.3120933" lon="10.70815"><ele>60.33333333333333</ele><time>2026-04-18T12:48:55.744Z</time></trkpt><trkpt lat="43.3121867" lon="10.7079017"><ele>60.0</ele><time>2026-04-18T12:48:56.746Z</time></trkpt><trkpt lat="43.31228" lon="10.70766"><ele>60.66666666666667</ele><time>2026-04-18T12:48:57.751Z</time></trkpt><trkpt lat="43.3123717" lon="10.7074167"><ele>61.333333333333336</ele><time>2026-04-18T12:48:58.743Z</time></trkpt><trkpt lat="43.312465" lon="10.70717"><ele>62.0</ele><time>2026-04-18T12:48:59.746Z</time></trkpt><trkpt lat="43.3125633" lon="10.7069133"><ele>65.0</ele><time>2026-04-18T12:49:00.744Z</time></trkpt><trkpt lat="43.3105717" lon="10.7130333"><ele>65.0</ele><time>2026-04-18T12:48:31.747Z</time></trkpt><trkpt lat="43.3104967" lon="10.7130567"><ele>65.0</ele><time>2026-04-18T12:48:33.743Z</time></trkpt><trkpt lat="43.31045" lon="10.71293"><ele>65.0</ele><time>2026-04-18T12:48:36.746Z</time></trkpt><trkpt lat="43.31048" lon="10.7127967"><ele>65.0</ele><time>2026-04-18T12:48:37.748Z</time></trkpt><trkpt lat="43.3105167" lon="10.7126567"><ele>65.0</ele><time>2026-04-18T12:48:38.751Z</time></trkpt><trkpt lat="43.3105517" lon="10.7125133"><ele>64.66666666666667</ele><time>2026-04-18T12:48:39.748Z</time></trkpt><trkpt lat="43.3105983" lon="10.71234"><ele>64.33333333333333</ele><time>2026-04-18T12:48:40.746Z</time></trkpt><trkpt lat="43.3106583" lon="10.71213"><ele>64.0</ele><time>2026-04-18T12:48:41.744Z</time></trkpt><trkpt lat="43.3107383" lon="10.7118933"><ele>63.666666666666664</ele><time>2026-04-18T12:48:42.746Z</time></trkpt><trkpt lat="43.3108317" lon="10.7116367"><ele>63.33333333333333</ele><time>2026-04-18T12:48:43.742Z</time></trkpt><trkpt lat="43.3109283" lon="10.7113533"><ele>63.0</ele><time>2026-04-18T12:48:44.75Z</time></trkpt><trkpt lat="43.3110283" lon="10.7110467"><ele>62.5</ele><time>2026-04-18T12:48:45.746Z</time></trkpt><trkpt lat="43.311135" lon="10.71073"><ele>62.0</ele><time>2026-04-18T12:48:46.746Z</time></trkpt><trkpt lat="43.31125" lon="10.7104067"><ele>62.0</ele><time>2026-04-18T12:48:47.746Z</time></trkpt><trkpt lat="43.3113633" lon="10.7100917"><ele>62.0</ele><time>2026-04-18T12:48:48.749Z</time></trkpt><trkpt lat="43.31148" lon="10.7097917"><ele>61.5</ele><time>2026-04-18T12:48:49.743Z</time></trkpt><trkpt lat="43.311675" lon="10.70932"><ele>61.0</ele><time>2026-04-18T12:48:51.243Z</time></trkpt><trkpt lat="43.3117733" lon="10.7090417"><ele>61.0</ele><time>2026-04-18T12:48:52.247Z</time></trkpt><trkpt lat="43.31192" lon="10.70865"><ele>61.0</ele><time>2026-04-18T12:48:53.744Z</time></trkpt><trkpt lat="43.312005" lon="10.7084"><ele>60.666666666666664</ele><time>2026-04-18T12:48:54.745Z</time></trkpt><trkpt lat="43.3120933" lon="10.70815"><ele>60.33333333333333</ele><time>2026-04-18T12:48:55.744Z</time></trkpt><trkpt lat="43.3121867" lon="10.7079017"><ele>60.0</ele><time>2026-04-18T12:48:56.746Z</time></trkpt><trkpt lat="43.31228" lon="10.70766"><ele>60.66666666666667</ele><time>2026-04-18T12:48:57.751Z</time></trkpt><trkpt lat="43.3123717" lon="10.7074167"><ele>61.333333333333336</ele><time>2026-04-18T12:48:58.743Z</time></trkpt><trkpt lat="43.312465" lon="10.70717"><ele>62.0</ele><time>2026-04-18T12:48:59.746Z</time></trkpt><trkpt lat="43.3125633" lon="10.7069133"><ele>62.66666666666667</ele><time>2026-04-18T12:49:00.744Z</time></trkpt><trkpt lat="43.3126633" lon="10.7066417"><ele>63.33333333333333</ele><time>2026-04-18T12:49:01.748Z</time></trkpt><trkpt lat="43.312755" lon="10.7063617"><ele>64.0</ele><time>2026-04-18T12:49:02.748Z</time></trkpt><trkpt lat="43.3128283" lon="10.7060833"><ele>66.0</ele><time>2026-04-18T12:49:03.743Z</time></trkpt><trkpt lat="43.3128933" lon="10.7058233"><ele>68.0</ele><time>2026-04-18T12:49:04.743Z</time></trkpt><trkpt lat="43.3129567" lon="10.70558"><ele>70.0</ele><time>2026-04-18T12:49:05.744Z</time></trkpt><trkpt lat="43.31301" lon="10.7053467"><ele>70.33333333333333</ele><time>2026-04-18T12:49:06.75Z</time></trkpt><trkpt lat="43.313055" lon="10.70512"><ele>70.66666666666667</ele><time>2026-04-18T12:49:07.749Z</time></trkpt><trkpt lat="43.3130983" lon="10.7048867"><ele>71.0</ele><time>2026-04-18T12:49:08.746Z</time></trkpt><trkpt lat="43.313155" lon="10.70465"><ele>72.66666666666667</ele><time>2026-04-18T12:49:09.749Z</time></trkpt><trkpt lat="43.3132283" lon="10.704405"><ele>74.33333333333333</ele><time>2026-04-18T12:49:10.745Z</time></trkpt><trkpt lat="43.313325" lon="10.7041567"><ele>76.0</ele><time>2026-04-18T12:49:11.746Z</time></trkpt><trkpt lat="43.313445" lon="10.7039067"><ele>76.0</ele><time>2026-04-18T12:49:12.747Z</time></trkpt><trkpt lat="43.3135733" lon="10.70365"><ele>76.0</ele><time>2026-04-18T12:49:13.747Z</time></trkpt><trkpt lat="43.3136833" lon="10.7033683"><ele>77.0</ele><time>2026-04-18T12:49:14.747Z</time></trkpt><trkpt lat="43.3137817" lon="10.7030883"><ele>78.0</ele><time>2026-04-18T12:49:15.748Z</time></trkpt><trkpt lat="43.313865" lon="10.7028267"><ele>79.0</ele><time>2026-04-18T12:49:16.741Z</time></trkpt><trkpt lat="43.3139417" lon="10.7025833"><ele>79.0</ele><time>2026-04-18T12:49:17.744Z</time></trkpt><trkpt lat="43.3140133" lon="10.7023667"><ele>79.0</ele><time>2026-04-18T12:49:18.747Z</time></trkpt><trkpt lat="43.3140833" lon="10.7021733"><ele>79.0</ele><time>2026-04-18T12:49:19.743Z</time></trkpt><trkpt lat="43.3141367" lon="10.701995"><ele>80.25</ele><time>2026-04-18T12:49:20.745Z</time></trkpt><trkpt lat="43.31416" lon="10.7018217"><ele>81.5</ele><time>2026-04-18T12:49:21.75Z</time></trkpt><trkpt lat="43.314135" lon="10.701655"><ele>82.75</ele><time>2026-04-18T12:49:22.747Z</time></trkpt><trkpt lat="43.3140567" lon="10.70152"><ele>84.0</ele><time>2026-04-18T12:49:23.746Z</time></trkpt><trkpt lat="43.3139383" lon="10.7014183"><ele>86.25</ele><time>2026-04-18T12:49:24.747Z</time></trkpt><trkpt lat="43.313825" lon="10.7013217"><ele>88.5</ele><time>2026-04-18T12:49:25.744Z</time></trkpt><trkpt lat="43.313755" lon="10.7011617"><ele>90.75</ele><time>2026-04-18T12:49:26.747Z</time></trkpt><trkpt lat="43.3137183" lon="10.7009483"><ele>93.0</ele><time>2026-04-18T12:49:27.75Z</time></trkpt><trkpt lat="43.3137133" lon="10.7007017"><ele>93.66666666666667</ele><time>2026-04-18T12:49:28.749Z</time></trkpt><trkpt lat="43.313725" lon="10.70045"><ele>94.33333333333334</ele><time>2026-04-18T12:49:29.754Z</time></trkpt><trkpt lat="43.3137267" lon="10.7002117"><ele>95.0</ele><time>2026-04-18T12:49:30.742Z</time></trkpt><trkpt lat="43.3137583" lon="10.69996"><ele>95.66666666666667</ele><time>2026-04-18T12:49:31.75Z</time></trkpt><trkpt lat="43.31382" lon="10.69971"><ele>96.33333333333334</ele><time>2026-04-18T12:49:32.75Z</time></trkpt><trkpt lat="43.3138783" lon="10.6994767"><ele>97.0</ele><time>2026-04-18T12:49:33.744Z</time></trkpt><trkpt lat="43.3139333" lon="10.6992567"><ele>95.33333333333334</ele><time>2026-04-18T12:49:34.743Z</time></trkpt><trkpt lat="43.3139833" lon="10.6990417"><ele>93.66666666666667</ele><time>2026-04-18T12:49:35.746Z</time></trkpt><trkpt lat="43.314025" lon="10.6988233"><ele>92.0</ele><time>2026-04-18T12:49:36.744Z</time></trkpt><trkpt lat="43.31404" lon="10.6986033"><ele>90.0</ele><time>2026-04-18T12:49:37.742Z</time></trkpt><trkpt lat="43.3140383" lon="10.698385"><ele>88.0</ele><time>2026-04-18T12:49:38.758Z</time></trkpt><trkpt lat="43.314035" lon="10.698175"><ele>86.0</ele><time>2026-04-18T12:49:39.745Z</time></trkpt><trkpt lat="43.314035" lon="10.697975"><ele>86.0</ele><time>2026-04-18T12:49:40.751Z</time></trkpt><trkpt lat="43.3140383" lon="10.6977817"><ele>86.0</ele><time>2026-04-18T12:49:41.743Z</time></trkpt><trkpt lat="43.31405" lon="10.6975967"><ele>86.0</ele><time>2026-04-18T12:49:42.743Z</time></trkpt><trkpt lat="43.3140567" lon="10.697425"><ele>86.0</ele><time>2026-04-18T12:49:43.742Z</time></trkpt><trkpt lat="43.31405" lon="10.6972683"><ele>86.4</ele><time>2026-04-18T12:49:44.756Z</time></trkpt><trkpt lat="43.3140167" lon="10.6971367"><ele>86.8</ele><time>2026-04-18T12:49:45.745Z</time></trkpt><trkpt lat="43.31394" lon="10.6970467"><ele>87.2</ele><time>2026-04-18T12:49:46.768Z</time></trkpt><trkpt lat="43.313835" lon="10.697005"><ele>87.60000000000001</ele><time>2026-04-18T12:49:47.744Z</time></trkpt><trkpt lat="43.3137217" lon="10.6969833"><ele>88.0</ele><time>2026-04-18T12:49:48.749Z</time></trkpt><trkpt lat="43.3136083" lon="10.6970033"><ele>88.0</ele><time>2026-04-18T12:49:49.745Z</time></trkpt><trkpt lat="43.3134733" lon="10.6971167"><ele>88.0</ele><time>2026-04-18T12:49:50.747Z</time></trkpt><trkpt lat="43.313365" lon="10.6972"><ele>88.0</ele><time>2026-04-18T12:49:51.744Z</time></trkpt><trkpt lat="43.3132633" lon="10.6972333"><ele>88.0</ele><time>2026-04-18T12:49:52.746Z</time></trkpt><trkpt lat="43.3131717" lon="10.6972067"><ele>88.0</ele><time>2026-04-18T12:49:53.74Z</time></trkpt><trkpt lat="43.3131033" lon="10.6971233"><ele>88.0</ele><time>2026-04-18T12:49:54.742Z</time></trkpt><trkpt lat="43.313075" lon="10.69699"><ele>88.0</ele><time>2026-04-18T12:49:55.742Z</time></trkpt><trkpt lat="43.31308" lon="10.696835"><ele>88.0</ele><time>2026-04-18T12:49:56.743Z</time></trkpt><trkpt lat="43.3131367" lon="10.6966733"><ele>88.0</ele><time>2026-04-18T12:49:57.746Z</time></trkpt><trkpt lat="43.3132267" lon="10.6965117"><ele>88.0</ele><time>2026-04-18T12:49:58.744Z</time></trkpt><trkpt lat="43.3133167" lon="10.696335"><ele>88.0</ele><time>2026-04-18T12:49:59.744Z</time></trkpt><trkpt lat="43.3134217" lon="10.6961533"><ele>88.0</ele><time>2026-04-18T12:50:00.745Z</time></trkpt><trkpt lat="43.313525" lon="10.6959767"><ele>88.0</ele><time>2026-04-18T12:50:01.745Z</time></trkpt><trkpt lat="43.3136167" lon="10.6958017"><ele>88.0</ele><time>2026-04-18T12:50:02.753Z</time></trkpt><trkpt lat="43.3137083" lon="10.695645"><ele>88.0</ele><time>2026-04-18T12:50:03.744Z</time></trkpt><trkpt lat="43.3137917" lon="10.695505"><ele>88.0</ele><time>2026-04-18T12:50:04.748Z</time></trkpt><trkpt lat="43.313855" lon="10.69537"><ele>88.0</ele><time>2026-04-18T12:50:05.745Z</time></trkpt><trkpt lat="43.3139083" lon="10.695225"><ele>88.0</ele><time>2026-04-18T12:50:06.743Z</time></trkpt><trkpt lat="43.313935" lon="10.69507"><ele>88.0</ele><time>2026-04-18T12:50:07.746Z</time></trkpt><trkpt lat="43.3139167" lon="10.6949167"><ele>88.0</ele><time>2026-04-18T12:50:08.747Z</time></trkpt><trkpt lat="43.3138567" lon="10.694785"><ele>88.0</ele><time>2026-04-18T12:50:09.745Z</time></trkpt><trkpt lat="43.3137667" lon="10.6946817"><ele>88.0</ele><time>2026-04-18T12:50:10.743Z</time></trkpt><trkpt lat="43.3136833" lon="10.6945817"><ele>88.0</ele><time>2026-04-18T12:50:11.744Z</time></trkpt><trkpt lat="43.3135983" lon="10.6944883"><ele>88.0</ele><time>2026-04-18T12:50:12.742Z</time></trkpt><trkpt lat="43.31353" lon="10.6943783"><ele>88.0</ele><time>2026-04-18T12:50:13.744Z</time></trkpt><trkpt lat="43.3134833" lon="10.6942517"><ele>86.75</ele><time>2026-04-18T12:50:14.747Z</time></trkpt><trkpt lat="43.3134617" lon="10.69411"><ele>85.5</ele><time>2026-04-18T12:50:15.744Z</time></trkpt><trkpt lat="43.3134883" lon="10.69396"><ele>84.25</ele><time>2026-04-18T12:50:16.746Z</time></trkpt><trkpt lat="43.31354" lon="10.6938083"><ele>83.0</ele><time>2026-04-18T12:50:17.742Z</time></trkpt><trkpt lat="43.3136017" lon="10.6936567"><ele>83.25</ele><time>2026-04-18T12:50:18.742Z</time></trkpt><trkpt lat="43.3136767" lon="10.6935017"><ele>83.5</ele><time>2026-04-18T12:50:19.745Z</time></trkpt><trkpt lat="43.3137433" lon="10.6933433"><ele>83.75</ele><time>2026-04-18T12:50:20.744Z</time></trkpt><trkpt lat="43.3138083" lon="10.6931933"><ele>84.0</ele><time>2026-04-18T12:50:21.745Z</time></trkpt><trkpt lat="43.3138683" lon="10.693045"><ele>80.75</ele><time>2026-04-18T12:50:22.747Z</time></trkpt><trkpt lat="43.3139283" lon="10.6929"><ele>77.5</ele><time>2026-04-18T12:50:23.745Z</time></trkpt><trkpt lat="43.313975" lon="10.692745"><ele>74.25</ele><time>2026-04-18T12:50:24.747Z</time></trkpt><trkpt lat="43.3140167" lon="10.6925767"><ele>71.0</ele><time>2026-04-18T12:50:25.745Z</time></trkpt><trkpt lat="43.3140633" lon="10.69239"><ele>70.66666666666667</ele><time>2026-04-18T12:50:26.746Z</time></trkpt><trkpt lat="43.314105" lon="10.6921867"><ele>70.33333333333333</ele><time>2026-04-18T12:50:27.745Z</time></trkpt><trkpt lat="43.3141483" lon="10.6919683"><ele>70.0</ele><time>2026-04-18T12:50:28.744Z</time></trkpt><trkpt lat="43.3141983" lon="10.69175"><ele>70.0</ele><time>2026-04-18T12:50:29.747Z</time></trkpt><trkpt lat="43.3142667" lon="10.691545"><ele>70.0</ele><time>2026-04-18T12:50:30.747Z</time></trkpt><trkpt lat="43.31433" lon="10.6913433"><ele>70.0</ele><time>2026-04-18T12:50:31.744Z</time></trkpt><trkpt lat="43.3143917" lon="10.6911383"><ele>71.66666666666666</ele><time>2026-04-18T12:50:32.748Z</time></trkpt><trkpt lat="43.31445" lon="10.6909167"><ele>73.33333333333333</ele><time>2026-04-18T12:50:33.744Z</time></trkpt><trkpt lat="43.3144933" lon="10.6906783"><ele>75.0</ele><time>2026-04-18T12:50:34.745Z</time></trkpt><trkpt lat="43.314525" lon="10.690445"><ele>73.66666666666667</ele><time>2026-04-18T12:50:35.743Z</time></trkpt><trkpt lat="43.3145433" lon="10.6902183"><ele>72.33333333333334</ele><time>2026-04-18T12:50:36.744Z</time></trkpt><trkpt lat="43.3145517" lon="10.69"><ele>71.0</ele><time>2026-04-18T12:50:37.743Z</time></trkpt><trkpt lat="43.3145517" lon="10.6897817"><ele>71.0</ele><time>2026-04-18T12:50:38.744Z</time></trkpt><trkpt lat="43.3145417" lon="10.6895583"><ele>71.0</ele><time>2026-04-18T12:50:39.74Z</time></trkpt><trkpt lat="43.3145117" lon="10.6893317"><ele>71.0</ele><time>2026-04-18T12:50:40.741Z</time></trkpt><trkpt lat="43.3144667" lon="10.689115"><ele>69.5</ele><time>2026-04-18T12:50:41.741Z</time></trkpt><trkpt lat="43.3144067" lon="10.688915"><ele>68.0</ele><time>2026-04-18T12:50:42.744Z</time></trkpt><trkpt lat="43.314335" lon="10.6887417"><ele>66.5</ele><time>2026-04-18T12:50:43.749Z</time></trkpt><trkpt lat="43.3142417" lon="10.6885917"><ele>65.0</ele><time>2026-04-18T12:50:44.745Z</time></trkpt><trkpt lat="43.31415" lon="10.6884333"><ele>64.0</ele><time>2026-04-18T12:50:45.742Z</time></trkpt><trkpt lat="43.31407" lon="10.6882467"><ele>63.0</ele><time>2026-04-18T12:50:46.747Z</time></trkpt><trkpt lat="43.314025" lon="10.688025"><ele>62.0</ele><time>2026-04-18T12:50:47.744Z</time></trkpt><trkpt lat="43.3139967" lon="10.6878033"><ele>61.75</ele><time>2026-04-18T12:50:48.741Z</time></trkpt><trkpt lat="43.3139817" lon="10.6876033"><ele>61.5</ele><time>2026-04-18T12:50:49.744Z</time></trkpt><trkpt lat="43.314015" lon="10.6874183"><ele>61.25</ele><time>2026-04-18T12:50:50.746Z</time></trkpt><trkpt lat="43.31407" lon="10.687235"><ele>61.0</ele><time>2026-04-18T12:50:51.744Z</time></trkpt><trkpt lat="43.3141433" lon="10.6870283"><ele>59.0</ele><time>2026-04-18T12:50:52.743Z</time></trkpt><trkpt lat="43.31421" lon="10.6867983"><ele>57.0</ele><time>2026-04-18T12:50:53.744Z</time></trkpt><trkpt lat="43.3142817" lon="10.6865617"><ele>55.0</ele><time>2026-04-18T12:50:54.744Z</time></trkpt><trkpt lat="43.314335" lon="10.6863267"><ele>55.0</ele><time>2026-04-18T12:50:55.747Z</time></trkpt><trkpt lat="43.31439" lon="10.6861"><ele>55.0</ele><time>2026-04-18T12:50:56.746Z</time></trkpt><trkpt lat="43.31443" lon="10.6858733"><ele>55.0</ele><time>2026-04-18T12:50:57.744Z</time></trkpt><trkpt lat="43.314455" lon="10.68564"><ele>54.0</ele><time>2026-04-18T12:50:58.743Z</time></trkpt><trkpt lat="43.3144583" lon="10.68539"><ele>53.0</ele><time>2026-04-18T12:50:59.745Z</time></trkpt><trkpt lat="43.3144183" lon="10.6851167"><ele>52.0</ele><time>2026-04-18T12:51:00.746Z</time></trkpt><trkpt lat="43.314335" lon="10.6848483"><ele>50.666666666666664</ele><time>2026-04-18T12:51:01.747Z</time></trkpt><trkpt lat="43.31425" lon="10.6845967"><ele>49.33333333333333</ele><time>2026-04-18T12:51:02.744Z</time></trkpt><trkpt lat="43.31418" lon="10.6843633"><ele>48.0</ele><time>2026-04-18T12:51:03.75Z</time></trkpt><trkpt lat="43.3141217" lon="10.68415"><ele>47.666666666666664</ele><time>2026-04-18T12:51:04.742Z</time></trkpt><trkpt lat="43.3140633" lon="10.6839483"><ele>47.33333333333333</ele><time>2026-04-18T12:51:05.747Z</time></trkpt><trkpt lat="43.3140083" lon="10.6837517"><ele>47.0</ele><time>2026-04-18T12:51:06.743Z</time></trkpt><trkpt lat="43.3139767" lon="10.683535"><ele>46.0</ele><time>2026-04-18T12:51:07.744Z</time></trkpt><trkpt lat="43.3139683" lon="10.6832983"><ele>45.0</ele><time>2026-04-18T12:51:08.743Z</time></trkpt><trkpt lat="43.313995" lon="10.6830383"><ele>44.0</ele><time>2026-04-18T12:51:09.747Z</time></trkpt><trkpt lat="43.3140417" lon="10.682765"><ele>43.666666666666664</ele><time>2026-04-18T12:51:10.742Z</time></trkpt><trkpt lat="43.3140883" lon="10.6824783"><ele>43.333333333333336</ele><time>2026-04-18T12:51:11.75Z</time></trkpt><trkpt lat="43.31414" lon="10.6821717"><ele>43.0</ele><time>2026-04-18T12:51:12.745Z</time></trkpt><trkpt lat="43.31417" lon="10.68184"><ele>42.5</ele><time>2026-04-18T12:51:13.752Z</time></trkpt><trkpt lat="43.3142183" lon="10.6815083"><ele>42.0</ele><time>2026-04-18T12:51:14.756Z</time></trkpt><trkpt lat="43.314255" lon="10.6811867"><ele>42.0</ele><time>2026-04-18T12:51:15.743Z</time></trkpt><trkpt lat="43.3143" lon="10.68088"><ele>42.0</ele><time>2026-04-18T12:51:16.747Z</time></trkpt><trkpt lat="43.3143383" lon="10.6805883"><ele>42.0</ele><time>2026-04-18T12:51:17.75Z</time></trkpt><trkpt lat="43.3143783" lon="10.680315"><ele>41.666666666666664</ele><time>2026-04-18T12:51:18.746Z</time></trkpt><trkpt lat="43.3144117" lon="10.6800483"><ele>41.33333333333333</ele><time>2026-04-18T12:51:19.745Z</time></trkpt><trkpt lat="43.3144233" lon="10.6797767"><ele>41.0</ele><time>2026-04-18T12:51:20.745Z</time></trkpt><trkpt lat="43.3143933" lon="10.6794933"><ele>40.0</ele><time>2026-04-18T12:51:21.749Z</time></trkpt><trkpt lat="43.3143317" lon="10.6791983"><ele>39.0</ele><time>2026-04-18T12:51:22.743Z</time></trkpt><trkpt lat="43.31425" lon="10.67889"><ele>39.0</ele><time>2026-04-18T12:51:23.746Z</time></trkpt><trkpt lat="43.3141583" lon="10.6785617"><ele>39.0</ele><time>2026-04-18T12:51:24.753Z</time></trkpt><trkpt lat="43.31407" lon="10.67823"><ele>39.0</ele><time>2026-04-18T12:51:25.746Z</time></trkpt><trkpt lat="43.3139917" lon="10.6779067"><ele>39.0</ele><time>2026-04-18T12:51:26.746Z</time></trkpt><trkpt lat="43.313915" lon="10.6776017"><ele>39.333333333333336</ele><time>2026-04-18T12:51:27.744Z</time></trkpt><trkpt lat="43.3138433" lon="10.67733"><ele>39.66666666666667</ele><time>2026-04-18T12:51:28.746Z</time></trkpt><trkpt lat="43.3137833" lon="10.6771033"><ele>40.0</ele><time>2026-04-18T12:51:29.744Z</time></trkpt><trkpt lat="43.3137233" lon="10.676915"><ele>40.25</ele><time>2026-04-18T12:51:30.742Z</time></trkpt><trkpt lat="43.313665" lon="10.6767517"><ele>40.5</ele><time>2026-04-18T12:51:31.744Z</time></trkpt><trkpt lat="43.3135933" lon="10.6766133"><ele>40.75</ele><time>2026-04-18T12:51:32.744Z</time></trkpt><trkpt lat="43.313505" lon="10.6764933"><ele>41.0</ele><time>2026-04-18T12:51:33.744Z</time></trkpt><trkpt lat="43.3134083" lon="10.6763883"><ele>41.0</ele><time>2026-04-18T12:51:34.742Z</time></trkpt><trkpt lat="43.31331" lon="10.6763083"><ele>41.0</ele><time>2026-04-18T12:51:35.751Z</time></trkpt><trkpt lat="43.313215" lon="10.6762367"><ele>41.0</ele><time>2026-04-18T12:51:36.745Z</time></trkpt><trkpt lat="43.3131267" lon="10.6761633"><ele>41.0</ele><time>2026-04-18T12:51:37.752Z</time></trkpt><trkpt lat="43.313045" lon="10.6760933"><ele>41.0</ele><time>2026-04-18T12:51:38.748Z</time></trkpt><trkpt lat="43.3129817" lon="10.6760267"><ele>40.666666666666664</ele><time>2026-04-18T12:51:39.744Z</time></trkpt><trkpt lat="43.3128933" lon="10.6759317"><ele>40.33333333333333</ele><time>2026-04-18T12:51:41.744Z</time></trkpt><trkpt lat="43.31287" lon="10.675825"><ele>40.0</ele><time>2026-04-18T12:51:44.751Z</time></trkpt><trkpt lat="43.31291" lon="10.675715"><ele>39.666666666666664</ele><time>2026-04-18T12:51:47.747Z</time></trkpt><trkpt lat="43.3129517" lon="10.67565"><ele>39.333333333333336</ele><time>2026-04-18T12:51:48.744Z</time></trkpt><trkpt lat="43.313005" lon="10.6755733"><ele>39.0</ele><time>2026-04-18T12:51:49.749Z</time></trkpt><trkpt lat="43.3130667" lon="10.675475"><ele>39.25</ele><time>2026-04-18T12:51:50.754Z</time></trkpt><trkpt lat="43.31313" lon="10.6753583"><ele>39.5</ele><time>2026-04-18T12:51:51.747Z</time></trkpt><trkpt lat="43.3132517" lon="10.6752467"><ele>39.75</ele><time>2026-04-18T12:51:52.743Z</time></trkpt><trkpt lat="43.3133767" lon="10.675135"><ele>40.0</ele><time>2026-04-18T12:51:53.743Z</time></trkpt><trkpt lat="43.3134917" lon="10.6750183"><ele>40.333333333333336</ele><time>2026-04-18T12:51:54.747Z</time></trkpt><trkpt lat="43.313605" lon="10.6748933"><ele>40.666666666666664</ele><time>2026-04-18T12:51:55.746Z</time></trkpt><trkpt lat="43.31372" lon="10.6747617"><ele>41.0</ele><time>2026-04-18T12:51:56.746Z</time></trkpt><trkpt lat="43.3138383" lon="10.6746233"><ele>40.0</ele><time>2026-04-18T12:51:57.745Z</time></trkpt><trkpt lat="43.3139583" lon="10.6744817"><ele>39.0</ele><time>2026-04-18T12:51:58.741Z</time></trkpt><trkpt lat="43.3140783" lon="10.6743367"><ele>38.0</ele><time>2026-04-18T12:51:59.747Z</time></trkpt><trkpt lat="43.3142067" lon="10.6741983"><ele>38.0</ele><time>2026-04-18T12:52:00.748Z</time></trkpt><trkpt lat="43.3143317" lon="10.674055"><ele>38.0</ele><time>2026-04-18T12:52:01.747Z</time></trkpt><trkpt lat="43.3144633" lon="10.6739183"><ele>38.0</ele><time>2026-04-18T12:52:02.749Z</time></trkpt><trkpt lat="43.3145983" lon="10.6737817"><ele>39.0</ele><time>2026-04-18T12:52:03.744Z</time></trkpt><trkpt lat="43.31474" lon="10.6736483"><ele>40.0</ele><time>2026-04-18T12:52:04.748Z</time></trkpt><trkpt lat="43.3148883" lon="10.6735067"><ele>41.0</ele><time>2026-04-18T12:52:05.75Z</time></trkpt><trkpt lat="43.3150483" lon="10.6733667"><ele>41.0</ele><time>2026-04-18T12:52:06.748Z</time></trkpt><trkpt lat="43.3152067" lon="10.6732167"><ele>41.0</ele><time>2026-04-18T12:52:07.744Z</time></trkpt><trkpt lat="43.3153717" lon="10.6730717"><ele>41.0</ele><time>2026-04-18T12:52:08.751Z</time></trkpt><trkpt lat="43.3155367" lon="10.6729167"><ele>40.33333333333333</ele><time>2026-04-18T12:52:09.745Z</time></trkpt><trkpt lat="43.3157033" lon="10.6727633"><ele>39.666666666666664</ele><time>2026-04-18T12:52:10.742Z</time></trkpt><trkpt lat="43.3158767" lon="10.6726183"><ele>39.0</ele><time>2026-04-18T12:52:11.747Z</time></trkpt><trkpt lat="43.316045" lon="10.6724633"><ele>39.0</ele><time>2026-04-18T12:52:12.747Z</time></trkpt><trkpt lat="43.3162167" lon="10.6723083"><ele>39.0</ele><time>2026-04-18T12:52:13.747Z</time></trkpt><trkpt lat="43.3163883" lon="10.6721467"><ele>39.0</ele><time>2026-04-18T12:52:14.748Z</time></trkpt><trkpt lat="43.3165583" lon="10.6719967"><ele>39.0</ele><time>2026-04-18T12:52:15.746Z</time></trkpt><trkpt lat="43.3167217" lon="10.6718533"><ele>39.0</ele><time>2026-04-18T12:52:16.746Z</time></trkpt><trkpt lat="43.3168767" lon="10.671715"><ele>39.0</ele><time>2026-04-18T12:52:17.744Z</time></trkpt><trkpt lat="43.3170267" lon="10.6715817"><ele>39.0</ele><time>2026-04-18T12:52:18.746Z</time></trkpt><trkpt lat="43.3171717" lon="10.67146"><ele>39.0</ele><time>2026-04-18T12:52:19.748Z</time></trkpt><trkpt lat="43.31731" lon="10.6713467"><ele>39.0</ele><time>2026-04-18T12:52:20.752Z</time></trkpt><trkpt lat="43.317445" lon="10.6712417"><ele>38.75</ele><time>2026-04-18T12:52:21.749Z</time></trkpt><trkpt lat="43.3175767" lon="10.6711467"><ele>38.5</ele><time>2026-04-18T12:52:22.749Z</time></trkpt><trkpt lat="43.3177033" lon="10.6710533"><ele>38.25</ele><time>2026-04-18T12:52:23.746Z</time></trkpt><trkpt lat="43.3178217" lon="10.670965"><ele>38.0</ele><time>2026-04-18T12:52:24.749Z</time></trkpt><trkpt lat="43.3179383" lon="10.6708817"><ele>37.75</ele><time>2026-04-18T12:52:25.748Z</time></trkpt><trkpt lat="43.318055" lon="10.6708067"><ele>37.5</ele><time>2026-04-18T12:52:26.752Z</time></trkpt><trkpt lat="43.31818" lon="10.6707383"><ele>37.25</ele><time>2026-04-18T12:52:27.744Z</time></trkpt><trkpt lat="43.318315" lon="10.6706633"><ele>37.0</ele><time>2026-04-18T12:52:28.744Z</time></trkpt><trkpt lat="43.3184583" lon="10.6705817"><ele>36.66666666666667</ele><time>2026-04-18T12:52:29.744Z</time></trkpt><trkpt lat="43.3186133" lon="10.6705067"><ele>36.333333333333336</ele><time>2026-04-18T12:52:30.745Z</time></trkpt><trkpt lat="43.3187767" lon="10.6704233"><ele>36.0</ele><time>2026-04-18T12:52:31.747Z</time></trkpt><trkpt lat="43.3189417" lon="10.6703517"><ele>36.0</ele><time>2026-04-18T12:52:32.742Z</time></trkpt><trkpt lat="43.3191067" lon="10.6702867"><ele>36.0</ele><time>2026-04-18T12:52:33.742Z</time></trkpt><trkpt lat="43.31928" lon="10.670235"><ele>36.0</ele><time>2026-04-18T12:52:34.744Z</time></trkpt><trkpt lat="43.31945" lon="10.6701783"><ele>35.666666666666664</ele><time>2026-04-18T12:52:35.747Z</time></trkpt><trkpt lat="43.3196183" lon="10.6701283"><ele>35.33333333333333</ele><time>2026-04-18T12:52:36.752Z</time></trkpt><trkpt lat="43.319785" lon="10.6700833"><ele>35.0</ele><time>2026-04-18T12:52:37.746Z</time></trkpt><trkpt lat="43.3199517" lon="10.6700433"><ele>35.666666666666664</ele><time>2026-04-18T12:52:38.747Z</time></trkpt><trkpt lat="43.3201233" lon="10.670015"><ele>36.333333333333336</ele><time>2026-04-18T12:52:39.744Z</time></trkpt><trkpt lat="43.3203017" lon="10.6699883"><ele>37.0</ele><time>2026-04-18T12:52:40.746Z</time></trkpt><trkpt lat="43.3204833" lon="10.6699533"><ele>37.0</ele><time>2026-04-18T12:52:41.745Z</time></trkpt><trkpt lat="43.32067" lon="10.6699283"><ele>37.0</ele><time>2026-04-18T12:52:42.747Z</time></trkpt><trkpt lat="43.320865" lon="10.669905"><ele>37.0</ele><time>2026-04-18T12:52:43.749Z</time></trkpt><trkpt lat="43.3210633" lon="10.6698867"><ele>37.0</ele><time>2026-04-18T12:52:44.754Z</time></trkpt><trkpt lat="43.32127" lon="10.6698717"><ele>37.0</ele><time>2026-04-18T12:52:45.75Z</time></trkpt><trkpt lat="43.32148" lon="10.66986"><ele>37.0</ele><time>2026-04-18T12:52:46.746Z</time></trkpt><trkpt lat="43.321685" lon="10.6698467"><ele>37.0</ele><time>2026-04-18T12:52:47.75Z</time></trkpt><trkpt lat="43.3218833" lon="10.6698467"><ele>37.0</ele><time>2026-04-18T12:52:48.749Z</time></trkpt><trkpt lat="43.3220717" lon="10.66985"><ele>37.0</ele><time>2026-04-18T12:52:49.748Z</time></trkpt><trkpt lat="43.3222583" lon="10.66985"><ele>37.333333333333336</ele><time>2026-04-18T12:52:50.741Z</time></trkpt><trkpt lat="43.32244" lon="10.6698483"><ele>37.666666666666664</ele><time>2026-04-18T12:52:51.746Z</time></trkpt><trkpt lat="43.3226133" lon="10.669845"><ele>38.0</ele><time>2026-04-18T12:52:52.746Z</time></trkpt><trkpt lat="43.3227817" lon="10.6698467"><ele>38.0</ele><time>2026-04-18T12:52:53.749Z</time></trkpt><trkpt lat="43.3229517" lon="10.6698417"><ele>38.0</ele><time>2026-04-18T12:52:54.748Z</time></trkpt><trkpt lat="43.3231167" lon="10.6698533"><ele>38.0</ele><time>2026-04-18T12:52:55.747Z</time></trkpt><trkpt lat="43.323285" lon="10.6698383"><ele>36.666666666666664</ele><time>2026-04-18T12:52:56.752Z</time></trkpt><trkpt lat="43.3234517" lon="10.6698317"><ele>35.333333333333336</ele><time>2026-04-18T12:52:57.749Z</time></trkpt><trkpt lat="43.3236167" lon="10.6698317"><ele>34.0</ele><time>2026-04-18T12:52:58.745Z</time></trkpt><trkpt lat="43.3237783" lon="10.6698267"><ele>34.66666666666667</ele><time>2026-04-18T12:52:59.745Z</time></trkpt><trkpt lat="43.32394" lon="10.6698167"><ele>35.333333333333336</ele><time>2026-04-18T12:53:00.749Z</time></trkpt><trkpt lat="43.324105" lon="10.669805"><ele>36.0</ele><time>2026-04-18T12:53:01.745Z</time></trkpt><trkpt lat="43.3242767" lon="10.6698083"><ele>36.0</ele><time>2026-04-18T12:53:02.746Z</time></trkpt><trkpt lat="43.3244533" lon="10.66982"><ele>36.0</ele><time>2026-04-18T12:53:03.745Z</time></trkpt><trkpt lat="43.3246317" lon="10.6698467"><ele>36.0</ele><time>2026-04-18T12:53:04.752Z</time></trkpt><trkpt lat="43.3248133" lon="10.6698783"><ele>36.0</ele><time>2026-04-18T12:53:05.744Z</time></trkpt><trkpt lat="43.324995" lon="10.6699167"><ele>36.0</ele><time>2026-04-18T12:53:06.746Z</time></trkpt><trkpt lat="43.325175" lon="10.6699617"><ele>36.0</ele><time>2026-04-18T12:53:07.742Z</time></trkpt><trkpt lat="43.325355" lon="10.6700017"><ele>36.0</ele><time>2026-04-18T12:53:08.744Z</time></trkpt><trkpt lat="43.3255317" lon="10.6700417"><ele>36.0</ele><time>2026-04-18T12:53:09.743Z</time></trkpt><trkpt lat="43.325705" lon="10.6700767"><ele>36.0</ele><time>2026-04-18T12:53:10.746Z</time></trkpt><trkpt lat="43.3258717" lon="10.67011"><ele>36.0</ele><time>2026-04-18T12:53:11.744Z</time></trkpt><trkpt lat="43.3260383" lon="10.6701483"><ele>36.0</ele><time>2026-04-18T12:53:12.744Z</time></trkpt><trkpt lat="43.3262083" lon="10.6701883"><ele>36.0</ele><time>2026-04-18T12:53:13.744Z</time></trkpt><trkpt lat="43.3263783" lon="10.67022"><ele>35.666666666666664</ele><time>2026-04-18T12:53:14.742Z</time></trkpt><trkpt lat="43.3265433" lon="10.6702567"><ele>35.33333333333333</ele><time>2026-04-18T12:53:15.741Z</time></trkpt><trkpt lat="43.3267117" lon="10.670285"><ele>35.0</ele><time>2026-04-18T12:53:16.745Z</time></trkpt><trkpt lat="43.32688" lon="10.67032"><ele>35.666666666666664</ele><time>2026-04-18T12:53:17.748Z</time></trkpt><trkpt lat="43.32705" lon="10.670355"><ele>36.333333333333336</ele><time>2026-04-18T12:53:18.746Z</time></trkpt><trkpt lat="43.327215" lon="10.670385"><ele>37.0</ele><time>2026-04-18T12:53:19.746Z</time></trkpt><trkpt lat="43.3273783" lon="10.6704133"><ele>37.0</ele><time>2026-04-18T12:53:20.751Z</time></trkpt><trkpt lat="43.327535" lon="10.670445"><ele>37.0</ele><time>2026-04-18T12:53:21.749Z</time></trkpt><trkpt lat="43.327685" lon="10.6704783"><ele>37.0</ele><time>2026-04-18T12:53:22.747Z</time></trkpt><trkpt lat="43.3278283" lon="10.6705083"><ele>37.0</ele><time>2026-04-18T12:53:23.746Z</time></trkpt><trkpt lat="43.327965" lon="10.6705367"><ele>37.0</ele><time>2026-04-18T12:53:24.747Z</time></trkpt><trkpt lat="43.3280983" lon="10.6705633"><ele>37.0</ele><time>2026-04-18T12:53:25.748Z</time></trkpt><trkpt lat="43.3282283" lon="10.67059"><ele>37.0</ele><time>2026-04-18T12:53:26.746Z</time></trkpt><trkpt lat="43.3283533" lon="10.6706167"><ele>36.800000000000004</ele><time>2026-04-18T12:53:27.745Z</time></trkpt><trkpt lat="43.3284717" lon="10.6706267"><ele>36.6</ele><time>2026-04-18T12:53:28.747Z</time></trkpt><trkpt lat="43.328585" lon="10.6706183"><ele>36.400000000000006</ele><time>2026-04-18T12:53:29.744Z</time></trkpt><trkpt lat="43.3286917" lon="10.670585"><ele>36.2</ele><time>2026-04-18T12:53:30.747Z</time></trkpt><trkpt lat="43.3287867" lon="10.670545"><ele>36.0</ele><time>2026-04-18T12:53:31.75Z</time></trkpt><trkpt lat="43.3288767" lon="10.6705167"><ele>36.166666666666664</ele><time>2026-04-18T12:53:32.746Z</time></trkpt><trkpt lat="43.3289667" lon="10.67052"><ele>36.333333333333336</ele><time>2026-04-18T12:53:33.747Z</time></trkpt><trkpt lat="43.3290517" lon="10.6705617"><ele>36.5</ele><time>2026-04-18T12:53:34.745Z</time></trkpt><trkpt lat="43.3291267" lon="10.6706033"><ele>36.66666666666667</ele><time>2026-04-18T12:53:35.748Z</time></trkpt><trkpt lat="43.3292017" lon="10.6706033"><ele>36.833333333333336</ele><time>2026-04-18T12:53:36.743Z</time></trkpt><trkpt lat="43.3292633" lon="10.6705533"><ele>37.0</ele><time>2026-04-18T12:53:37.748Z</time></trkpt><trkpt lat="43.3292983" lon="10.6704717"><ele>37.0</ele><time>2026-04-18T12:53:38.747Z</time></trkpt><trkpt lat="43.3293083" lon="10.6703617"><ele>37.0</ele><time>2026-04-18T12:53:39.744Z</time></trkpt><trkpt lat="43.3292833" lon="10.670235"><ele>37.0</ele><time>2026-04-18T12:53:40.745Z</time></trkpt><trkpt lat="43.329235" lon="10.6700883"><ele>37.0</ele><time>2026-04-18T12:53:41.743Z</time></trkpt><trkpt lat="43.3291967" lon="10.6699383"><ele>37.0</ele><time>2026-04-18T12:53:42.742Z</time></trkpt><trkpt lat="43.3291583" lon="10.6697817"><ele>36.6</ele><time>2026-04-18T12:53:43.747Z</time></trkpt><trkpt lat="43.3291317" lon="10.6696267"><ele>36.2</ele><time>2026-04-18T12:53:44.745Z</time></trkpt><trkpt lat="43.3291067" lon="10.66948"><ele>35.8</ele><time>2026-04-18T12:53:45.746Z</time></trkpt><trkpt lat="43.3290833" lon="10.6693383"><ele>35.4</ele><time>2026-04-18T12:53:46.744Z</time></trkpt><trkpt lat="43.3290617" lon="10.6692017"><ele>35.0</ele><time>2026-04-18T12:53:47.746Z</time></trkpt><trkpt lat="43.3290433" lon="10.6690683"><ele>34.8</ele><time>2026-04-18T12:53:48.748Z</time></trkpt><trkpt lat="43.329025" lon="10.6689367"><ele>34.6</ele><time>2026-04-18T12:53:49.746Z</time></trkpt><trkpt lat="43.329005" lon="10.66881"><ele>34.4</ele><time>2026-04-18T12:53:50.748Z</time></trkpt><trkpt lat="43.328985" lon="10.6686883"><ele>34.2</ele><time>2026-04-18T12:53:51.744Z</time></trkpt><trkpt lat="43.328965" lon="10.668565"><ele>34.0</ele><time>2026-04-18T12:53:52.746Z</time></trkpt><trkpt lat="43.3289433" lon="10.6684417"><ele>34.4</ele><time>2026-04-18T12:53:53.747Z</time></trkpt><trkpt lat="43.3289217" lon="10.668315"><ele>34.8</ele><time>2026-04-18T12:53:54.748Z</time></trkpt><trkpt lat="43.3289033" lon="10.668185"><ele>35.2</ele><time>2026-04-18T12:53:55.744Z</time></trkpt><trkpt lat="43.328885" lon="10.66805"><ele>35.6</ele><time>2026-04-18T12:53:56.753Z</time></trkpt><trkpt lat="43.3288667" lon="10.66791"><ele>36.0</ele><time>2026-04-18T12:53:57.748Z</time></trkpt><trkpt lat="43.3288433" lon="10.6677617"><ele>36.25</ele><time>2026-04-18T12:53:58.746Z</time></trkpt><trkpt lat="43.3288117" lon="10.6676083"><ele>36.5</ele><time>2026-04-18T12:53:59.748Z</time></trkpt><trkpt lat="43.328785" lon="10.66744"><ele>36.75</ele><time>2026-04-18T12:54:00.743Z</time></trkpt><trkpt lat="43.3287533" lon="10.6672533"><ele>37.0</ele><time>2026-04-18T12:54:01.744Z</time></trkpt><trkpt lat="43.3287167" lon="10.6670517"><ele>37.0</ele><time>2026-04-18T12:54:02.744Z</time></trkpt><trkpt lat="43.3286783" lon="10.666835"><ele>37.0</ele><time>2026-04-18T12:54:03.743Z</time></trkpt><trkpt lat="43.3286467" lon="10.66661"><ele>37.0</ele><time>2026-04-18T12:54:04.744Z</time></trkpt><trkpt lat="43.328615" lon="10.666385"><ele>37.0</ele><time>2026-04-18T12:54:05.747Z</time></trkpt><trkpt lat="43.328585" lon="10.6661733"><ele>37.0</ele><time>2026-04-18T12:54:06.746Z</time></trkpt><trkpt lat="43.3285567" lon="10.6659717"><ele>37.0</ele><time>2026-04-18T12:54:07.74Z</time></trkpt><trkpt lat="43.3285417" lon="10.6657667"><ele>37.25</ele><time>2026-04-18T12:54:08.743Z</time></trkpt><trkpt lat="43.32852" lon="10.6655683"><ele>37.5</ele><time>2026-04-18T12:54:09.743Z</time></trkpt><trkpt lat="43.3285167" lon="10.6653733"><ele>37.75</ele><time>2026-04-18T12:54:10.744Z</time></trkpt><trkpt lat="43.3285033" lon="10.6651833"><ele>38.0</ele><time>2026-04-18T12:54:11.741Z</time></trkpt><trkpt lat="43.328495" lon="10.6649933"><ele>38.0</ele><time>2026-04-18T12:54:12.748Z</time></trkpt><trkpt lat="43.3284833" lon="10.6648"><ele>38.0</ele><time>2026-04-18T12:54:13.744Z</time></trkpt><trkpt lat="43.3284683" lon="10.664595"><ele>38.0</ele><time>2026-04-18T12:54:14.748Z</time></trkpt><trkpt lat="43.3284617" lon="10.66437"><ele>37.0</ele><time>2026-04-18T12:54:15.745Z</time></trkpt><trkpt lat="43.3284667" lon="10.664125"><ele>36.0</ele><time>2026-04-18T12:54:16.743Z</time></trkpt><trkpt lat="43.3284833" lon="10.6638683"><ele>35.0</ele><time>2026-04-18T12:54:17.744Z</time></trkpt><trkpt lat="43.32853" lon="10.6636133"><ele>35.0</ele><time>2026-04-18T12:54:18.745Z</time></trkpt><trkpt lat="43.3286083" lon="10.663365"><ele>35.0</ele><time>2026-04-18T12:54:19.745Z</time></trkpt><trkpt lat="43.328705" lon="10.6631267"><ele>35.0</ele><time>2026-04-18T12:54:20.744Z</time></trkpt><trkpt lat="43.3288367" lon="10.6629083"><ele>35.0</ele><time>2026-04-18T12:54:21.744Z</time></trkpt><trkpt lat="43.3289983" lon="10.6627117"><ele>35.0</ele><time>2026-04-18T12:54:22.744Z</time></trkpt><trkpt lat="43.32919" lon="10.6625333"><ele>35.0</ele><time>2026-04-18T12:54:23.746Z</time></trkpt><trkpt lat="43.3294033" lon="10.66239"><ele>35.0</ele><time>2026-04-18T12:54:24.742Z</time></trkpt><trkpt lat="43.3296283" lon="10.6622617"><ele>35.0</ele><time>2026-04-18T12:54:25.745Z</time></trkpt><trkpt lat="43.3298567" lon="10.6621583"><ele>36.5</ele><time>2026-04-18T12:54:26.747Z</time></trkpt><trkpt lat="43.3300733" lon="10.6620567"><ele>38.0</ele><time>2026-04-18T12:54:27.748Z</time></trkpt><trkpt lat="43.3302867" lon="10.66196"><ele>37.0</ele><time>2026-04-18T12:54:28.746Z</time></trkpt><trkpt lat="43.3304983" lon="10.6618517"><ele>36.0</ele><time>2026-04-18T12:54:29.75Z</time></trkpt><trkpt lat="43.330705" lon="10.66173"><ele>37.333333333333336</ele><time>2026-04-18T12:54:30.751Z</time></trkpt><trkpt lat="43.3309083" lon="10.6615967"><ele>38.66666666666667</ele><time>2026-04-18T12:54:31.746Z</time></trkpt><trkpt lat="43.3311067" lon="10.6614533"><ele>40.0</ele><time>2026-04-18T12:54:32.749Z</time></trkpt><trkpt lat="43.3312967" lon="10.661295"><ele>38.66666666666667</ele><time>2026-04-18T12:54:33.744Z</time></trkpt><trkpt lat="43.3314717" lon="10.6611267"><ele>37.333333333333336</ele><time>2026-04-18T12:54:34.75Z</time></trkpt><trkpt lat="43.331635" lon="10.660965"><ele>36.0</ele><time>2026-04-18T12:54:35.747Z</time></trkpt><trkpt lat="43.331785" lon="10.6607967"><ele>36.0</ele><time>2026-04-18T12:54:36.75Z</time></trkpt><trkpt lat="43.3319317" lon="10.6606317"><ele>36.0</ele><time>2026-04-18T12:54:37.747Z</time></trkpt><trkpt lat="43.33207" lon="10.6604533"><ele>36.0</ele><time>2026-04-18T12:54:38.748Z</time></trkpt><trkpt lat="43.332205" lon="10.66026"><ele>37.0</ele><time>2026-04-18T12:54:39.747Z</time></trkpt><trkpt lat="43.3323367" lon="10.66006"><ele>38.0</ele><time>2026-04-18T12:54:40.743Z</time></trkpt><trkpt lat="43.3324667" lon="10.65985"><ele>39.0</ele><time>2026-04-18T12:54:41.743Z</time></trkpt><trkpt lat="43.33259" lon="10.6596283"><ele>37.666666666666664</ele><time>2026-04-18T12:54:42.744Z</time></trkpt><trkpt lat="43.332715" lon="10.6594133"><ele>36.33333333333333</ele><time>2026-04-18T12:54:43.745Z</time></trkpt><trkpt lat="43.3328317" lon="10.6591967"><ele>35.0</ele><time>2026-04-18T12:54:44.75Z</time></trkpt><trkpt lat="43.3329483" lon="10.6589817"><ele>35.33333333333333</ele><time>2026-04-18T12:54:45.744Z</time></trkpt><trkpt lat="43.333065" lon="10.658765"><ele>35.666666666666664</ele><time>2026-04-18T12:54:46.743Z</time></trkpt><trkpt lat="43.3331833" lon="10.6585417"><ele>36.0</ele><time>2026-04-18T12:54:47.746Z</time></trkpt><trkpt lat="43.3333033" lon="10.6583133"><ele>34.0</ele><time>2026-04-18T12:54:48.745Z</time></trkpt><trkpt lat="43.33343" lon="10.6580583"><ele>32.0</ele><time>2026-04-18T12:54:49.748Z</time></trkpt><trkpt lat="43.3335683" lon="10.6577933"><ele>32.0</ele><time>2026-04-18T12:54:50.749Z</time></trkpt><trkpt lat="43.3337183" lon="10.657515"><ele>32.0</ele><time>2026-04-18T12:54:51.745Z</time></trkpt><trkpt lat="43.3338783" lon="10.6572367"><ele>32.5</ele><time>2026-04-18T12:54:52.742Z</time></trkpt><trkpt lat="43.3340333" lon="10.6569633"><ele>33.0</ele><time>2026-04-18T12:54:53.744Z</time></trkpt><trkpt lat="43.3341717" lon="10.65669"><ele>33.0</ele><time>2026-04-18T12:54:54.749Z</time></trkpt><trkpt lat="43.33431" lon="10.65642"><ele>33.0</ele><time>2026-04-18T12:54:55.746Z</time></trkpt><trkpt lat="43.334455" lon="10.6561467"><ele>32.0</ele><time>2026-04-18T12:54:56.746Z</time></trkpt><trkpt lat="43.3346033" lon="10.6558617"><ele>31.0</ele><time>2026-04-18T12:54:57.745Z</time></trkpt><trkpt lat="43.3347567" lon="10.6555783"><ele>32.0</ele><time>2026-04-18T12:54:58.746Z</time></trkpt><trkpt lat="43.3349083" lon="10.65531"><ele>33.0</ele><time>2026-04-18T12:54:59.747Z</time></trkpt><trkpt lat="43.3350517" lon="10.6550517"><ele>33.0</ele><time>2026-04-18T12:55:00.745Z</time></trkpt><trkpt lat="43.335185" lon="10.6548033"><ele>33.0</ele><time>2026-04-18T12:55:01.744Z</time></trkpt><trkpt lat="43.335315" lon="10.6545717"><ele>33.0</ele><time>2026-04-18T12:55:02.743Z</time></trkpt><trkpt lat="43.33544" lon="10.6543517"><ele>32.0</ele><time>2026-04-18T12:55:03.746Z</time></trkpt><trkpt lat="43.3355517" lon="10.65415"><ele>31.0</ele><time>2026-04-18T12:55:04.741Z</time></trkpt><trkpt lat="43.3356533" lon="10.6539733"><ele>30.0</ele><time>2026-04-18T12:55:05.744Z</time></trkpt><trkpt lat="43.3357433" lon="10.6538133"><ele>30.75</ele><time>2026-04-18T12:55:06.745Z</time></trkpt><trkpt lat="43.3358317" lon="10.6536783"><ele>31.5</ele><time>2026-04-18T12:55:07.744Z</time></trkpt><trkpt lat="43.3359083" lon="10.653555"><ele>32.25</ele><time>2026-04-18T12:55:08.746Z</time></trkpt><trkpt lat="43.33598" lon="10.6534417"><ele>33.0</ele><time>2026-04-18T12:55:09.747Z</time></trkpt><trkpt lat="43.3360433" lon="10.6533267"><ele>33.0</ele><time>2026-04-18T12:55:10.745Z</time></trkpt><trkpt lat="43.3361067" lon="10.65322"><ele>33.0</ele><time>2026-04-18T12:55:11.742Z</time></trkpt><trkpt lat="43.33617" lon="10.653125"><ele>33.0</ele><time>2026-04-18T12:55:12.743Z</time></trkpt><trkpt lat="43.336235" lon="10.6530433"><ele>33.0</ele><time>2026-04-18T12:55:13.747Z</time></trkpt><trkpt lat="43.3363133" lon="10.6529867"><ele>33.0</ele><time>2026-04-18T12:55:14.745Z</time></trkpt><trkpt lat="43.3364083" lon="10.6529717"><ele>33.0</ele><time>2026-04-18T12:55:15.746Z</time></trkpt><trkpt lat="43.3365" lon="10.6529433"><ele>33.0</ele><time>2026-04-18T12:55:16.741Z</time></trkpt><trkpt lat="43.336565" lon="10.6528617"><ele>33.0</ele><time>2026-04-18T12:55:17.745Z</time></trkpt><trkpt lat="43.3366017" lon="10.6527433"><ele>33.0</ele><time>2026-04-18T12:55:18.74Z</time></trkpt><trkpt lat="43.3366267" lon="10.6526133"><ele>33.0</ele><time>2026-04-18T12:55:19.742Z</time></trkpt><trkpt lat="43.3366533" lon="10.6524917"><ele>33.0</ele><time>2026-04-18T12:55:20.741Z</time></trkpt><trkpt lat="43.3367083" lon="10.6523633"><ele>33.0</ele><time>2026-04-18T12:55:21.745Z</time></trkpt><trkpt lat="43.3367867" lon="10.6522367"><ele>33.0</ele><time>2026-04-18T12:55:22.748Z</time></trkpt><trkpt lat="43.3368733" lon="10.6520983"><ele>33.0</ele><time>2026-04-18T12:55:23.744Z</time></trkpt><trkpt lat="43.33697" lon="10.6519533"><ele>32.666666666666664</ele><time>2026-04-18T12:55:24.744Z</time></trkpt><trkpt lat="43.3370733" lon="10.65179"><ele>32.33333333333333</ele><time>2026-04-18T12:55:25.746Z</time></trkpt><trkpt lat="43.337185" lon="10.6515983"><ele>32.0</ele><time>2026-04-18T12:55:26.746Z</time></trkpt><trkpt lat="43.3373167" lon="10.65139"><ele>32.0</ele><time>2026-04-18T12:55:27.749Z</time></trkpt><trkpt lat="43.3374717" lon="10.65118"><ele>32.0</ele><time>2026-04-18T12:55:28.746Z</time></trkpt><trkpt lat="43.337635" lon="10.6509667"><ele>32.0</ele><time>2026-04-18T12:55:29.749Z</time></trkpt><trkpt lat="43.337795" lon="10.65074"><ele>32.0</ele><time>2026-04-18T12:55:30.745Z</time></trkpt><trkpt lat="43.3379433" lon="10.65051"><ele>32.0</ele><time>2026-04-18T12:55:31.746Z</time></trkpt><trkpt lat="43.3380867" lon="10.65029"><ele>32.0</ele><time>2026-04-18T12:55:32.746Z</time></trkpt><trkpt lat="43.3382183" lon="10.6500617"><ele>32.0</ele><time>2026-04-18T12:55:33.747Z</time></trkpt><trkpt lat="43.3383417" lon="10.6498267"><ele>32.0</ele><time>2026-04-18T12:55:34.744Z</time></trkpt><trkpt lat="43.33846" lon="10.6495883"><ele>32.0</ele><time>2026-04-18T12:55:35.744Z</time></trkpt><trkpt lat="43.3385683" lon="10.6493433"><ele>32.0</ele><time>2026-04-18T12:55:36.743Z</time></trkpt><trkpt lat="43.3386717" lon="10.6490933"><ele>32.0</ele><time>2026-04-18T12:55:37.746Z</time></trkpt><trkpt lat="43.33876" lon="10.6488333"><ele>32.0</ele><time>2026-04-18T12:55:38.743Z</time></trkpt><trkpt lat="43.338845" lon="10.6485717"><ele>32.0</ele><time>2026-04-18T12:55:39.745Z</time></trkpt><trkpt lat="43.3389233" lon="10.64831"><ele>32.0</ele><time>2026-04-18T12:55:40.747Z</time></trkpt><trkpt lat="43.3389967" lon="10.648045"><ele>32.0</ele><time>2026-04-18T12:55:41.744Z</time></trkpt><trkpt lat="43.3390617" lon="10.64778"><ele>32.0</ele><time>2026-04-18T12:55:42.745Z</time></trkpt><trkpt lat="43.3391217" lon="10.64752"><ele>32.0</ele><time>2026-04-18T12:55:43.747Z</time></trkpt><trkpt lat="43.3391817" lon="10.6472667"><ele>32.0</ele><time>2026-04-18T12:55:44.745Z</time></trkpt><trkpt lat="43.339245" lon="10.6470183"><ele>32.0</ele><time>2026-04-18T12:55:45.744Z</time></trkpt><trkpt lat="43.3393" lon="10.64678"><ele>32.0</ele><time>2026-04-18T12:55:46.745Z</time></trkpt><trkpt lat="43.339355" lon="10.646545"><ele>32.0</ele><time>2026-04-18T12:55:47.744Z</time></trkpt><trkpt lat="43.339415" lon="10.646315"><ele>31.666666666666664</ele><time>2026-04-18T12:55:48.744Z</time></trkpt><trkpt lat="43.33947" lon="10.64609"><ele>31.333333333333336</ele><time>2026-04-18T12:55:49.741Z</time></trkpt><trkpt lat="43.3395167" lon="10.6458733"><ele>31.0</ele><time>2026-04-18T12:55:50.747Z</time></trkpt><trkpt lat="43.3395667" lon="10.6456683"><ele>31.0</ele><time>2026-04-18T12:55:51.741Z</time></trkpt><trkpt lat="43.3396117" lon="10.6454733"><ele>31.0</ele><time>2026-04-18T12:55:52.745Z</time></trkpt><trkpt lat="43.3396533" lon="10.64528"><ele>31.0</ele><time>2026-04-18T12:55:53.744Z</time></trkpt><trkpt lat="43.3397017" lon="10.6450917"><ele>31.0</ele><time>2026-04-18T12:55:54.744Z</time></trkpt><trkpt lat="43.3397483" lon="10.6449067"><ele>31.0</ele><time>2026-04-18T12:55:55.746Z</time></trkpt><trkpt lat="43.339795" lon="10.6447317"><ele>31.0</ele><time>2026-04-18T12:55:56.744Z</time></trkpt><trkpt lat="43.3398317" lon="10.64458"><ele>31.0</ele><time>2026-04-18T12:55:57.745Z</time></trkpt><trkpt lat="43.33986" lon="10.64447"><ele>31.0</ele><time>2026-04-18T12:55:58.744Z</time></trkpt><trkpt lat="43.339885" lon="10.6443867"><ele>31.0</ele><time>2026-04-18T12:55:59.744Z</time></trkpt><trkpt lat="43.339955" lon="10.6442783"><ele>31.0</ele><time>2026-04-18T12:56:01.743Z</time></trkpt><trkpt lat="43.34005" lon="10.6442917"><ele>31.0</ele><time>2026-04-18T12:56:03.745Z</time></trkpt><trkpt lat="43.3401333" lon="10.6444183"><ele>31.0</ele><time>2026-04-18T12:56:05.742Z</time></trkpt><trkpt lat="43.3401533" lon="10.64451"><ele>31.0</ele><time>2026-04-18T12:56:06.743Z</time></trkpt><trkpt lat="43.3401683" lon="10.6446717"><ele>31.0</ele><time>2026-04-18T12:56:08.749Z</time></trkpt><trkpt lat="43.3401883" lon="10.6448483"><ele>31.000000000000004</ele><time>2026-04-18T12:56:10.743Z</time></trkpt><trkpt lat="43.34021" lon="10.6449633"><ele>31.0</ele><time>2026-04-18T12:56:11.741Z</time></trkpt><trkpt lat="43.34022" lon="10.6450817"><ele>31.0</ele><time>2026-04-18T12:56:12.744Z</time></trkpt><trkpt lat="43.3402217" lon="10.64518"><ele>31.0</ele><time>2026-04-18T12:56:13.751Z</time></trkpt><trkpt lat="43.3402233" lon="10.645295"><ele>31.000000000000004</ele><time>2026-04-18T12:56:15.745Z</time></trkpt><trkpt lat="43.34021" lon="10.6451733"><ele>31.0</ele><time>2026-04-18T12:56:24.743Z</time></trkpt><trkpt lat="43.3401767" lon="10.64508"><ele>31.0</ele><time>2026-04-18T12:56:26.745Z</time></trkpt><trkpt lat="43.3401717" lon="10.6449333"><ele>31.0</ele><time>2026-04-18T12:56:28.745Z</time></trkpt><trkpt lat="43.3401833" lon="10.644815"><ele>31.0</ele><time>2026-04-18T12:56:30.744Z</time></trkpt><trkpt lat="43.3402817" lon="10.64481"><ele>31.0</ele><time>2026-04-18T12:56:33.747Z</time></trkpt><trkpt lat="43.3404067" lon="10.6448817"><ele>31.0</ele><time>2026-04-18T12:56:35.745Z</time></trkpt><trkpt lat="43.3404917" lon="10.6449317"><ele>31.5</ele><time>2026-04-18T12:56:36.747Z</time></trkpt><trkpt lat="43.34059" lon="10.6450017"><ele>32.0</ele><time>2026-04-18T12:56:37.745Z</time></trkpt><trkpt lat="43.3407017" lon="10.645085"><ele>32.5</ele><time>2026-04-18T12:56:38.743Z</time></trkpt><trkpt lat="43.3408167" lon="10.645185"><ele>33.0</ele><time>2026-04-18T12:56:39.741Z</time></trkpt><trkpt lat="43.3409433" lon="10.6452983"><ele>33.0</ele><time>2026-04-18T12:56:40.744Z</time></trkpt><trkpt lat="43.34109" lon="10.6454317"><ele>33.0</ele><time>2026-04-18T12:56:41.745Z</time></trkpt><trkpt lat="43.3412517" lon="10.64558"><ele>33.0</ele><time>2026-04-18T12:56:42.74Z</time></trkpt><trkpt lat="43.34141" lon="10.6457283"><ele>32.666666666666664</ele><time>2026-04-18T12:56:43.744Z</time></trkpt><trkpt lat="43.3415533" lon="10.6458767"><ele>32.33333333333333</ele><time>2026-04-18T12:56:44.742Z</time></trkpt><trkpt lat="43.341675" lon="10.6460233"><ele>32.0</ele><time>2026-04-18T12:56:45.739Z</time></trkpt><trkpt lat="43.34179" lon="10.646145"><ele>32.0</ele><time>2026-04-18T12:56:46.742Z</time></trkpt><trkpt lat="43.341915" lon="10.646245"><ele>32.0</ele><time>2026-04-18T12:56:47.746Z</time></trkpt><trkpt lat="43.3420617" lon="10.646325"><ele>32.0</ele><time>2026-04-18T12:56:48.745Z</time></trkpt><trkpt lat="43.34224" lon="10.6463817"><ele>33.33333333333333</ele><time>2026-04-18T12:56:49.745Z</time></trkpt><trkpt lat="43.342425" lon="10.64644"><ele>34.666666666666664</ele><time>2026-04-18T12:56:50.747Z</time></trkpt><trkpt lat="43.3426067" lon="10.64651"><ele>36.0</ele><time>2026-04-18T12:56:51.749Z</time></trkpt><trkpt lat="43.3427733" lon="10.6465917"><ele>36.0</ele><time>2026-04-18T12:56:52.746Z</time></trkpt><trkpt lat="43.342925" lon="10.6466533"><ele>36.0</ele><time>2026-04-18T12:56:53.747Z</time></trkpt><trkpt lat="43.3430733" lon="10.6466883"><ele>36.0</ele><time>2026-04-18T12:56:54.744Z</time></trkpt><trkpt lat="43.34323" lon="10.6466967"><ele>36.75</ele><time>2026-04-18T12:56:55.743Z</time></trkpt><trkpt lat="43.3433883" lon="10.646695"><ele>37.5</ele><time>2026-04-18T12:56:56.743Z</time></trkpt><trkpt lat="43.3435367" lon="10.646695"><ele>38.25</ele><time>2026-04-18T12:56:57.744Z</time></trkpt><trkpt lat="43.343675" lon="10.6467"><ele>39.0</ele><time>2026-04-18T12:56:58.749Z</time></trkpt><trkpt lat="43.343805" lon="10.6467183"><ele>39.0</ele><time>2026-04-18T12:56:59.744Z</time></trkpt><trkpt lat="43.3439283" lon="10.6467533"><ele>39.0</ele><time>2026-04-18T12:57:00.742Z</time></trkpt><trkpt lat="43.3440517" lon="10.6467817"><ele>39.0</ele><time>2026-04-18T12:57:01.743Z</time></trkpt><trkpt lat="43.3441783" lon="10.6468117"><ele>39.0</ele><time>2026-04-18T12:57:02.747Z</time></trkpt><trkpt lat="43.3443133" lon="10.6468533"><ele>39.0</ele><time>2026-04-18T12:57:03.745Z</time></trkpt><trkpt lat="43.3444467" lon="10.6468917"><ele>39.0</ele><time>2026-04-18T12:57:04.741Z</time></trkpt><trkpt lat="43.3445717" lon="10.6469267"><ele>39.0</ele><time>2026-04-18T12:57:05.744Z</time></trkpt><trkpt lat="43.3446917" lon="10.6469683"><ele>39.0</ele><time>2026-04-18T12:57:06.746Z</time></trkpt><trkpt lat="43.34482" lon="10.6470067"><ele>39.0</ele><time>2026-04-18T12:57:07.747Z</time></trkpt><trkpt lat="43.3449617" lon="10.6470517"><ele>39.0</ele><time>2026-04-18T12:57:08.75Z</time></trkpt><trkpt lat="43.345105" lon="10.6471183"><ele>39.0</ele><time>2026-04-18T12:57:09.748Z</time></trkpt><trkpt lat="43.345245" lon="10.6471933"><ele>39.0</ele><time>2026-04-18T12:57:10.747Z</time></trkpt><trkpt lat="43.34538" lon="10.6472517"><ele>39.0</ele><time>2026-04-18T12:57:11.746Z</time></trkpt><trkpt lat="43.3455233" lon="10.647285"><ele>39.0</ele><time>2026-04-18T12:57:12.748Z</time></trkpt><trkpt lat="43.34567" lon="10.6473033"><ele>39.0</ele><time>2026-04-18T12:57:13.747Z</time></trkpt><trkpt lat="43.3458417" lon="10.6473417"><ele>40.0</ele><time>2026-04-18T12:57:14.748Z</time></trkpt><trkpt lat="43.346025" lon="10.6473683"><ele>41.0</ele><time>2026-04-18T12:57:15.749Z</time></trkpt><trkpt lat="43.3462067" lon="10.6474083"><ele>42.0</ele><time>2026-04-18T12:57:16.74Z</time></trkpt><trkpt lat="43.3463783" lon="10.6474567"><ele>42.0</ele><time>2026-04-18T12:57:17.748Z</time></trkpt><trkpt lat="43.3465483" lon="10.6475233"><ele>42.0</ele><time>2026-04-18T12:57:18.747Z</time></trkpt><trkpt lat="43.3467167" lon="10.647585"><ele>42.0</ele><time>2026-04-18T12:57:19.743Z</time></trkpt><trkpt lat="43.346885" lon="10.647655"><ele>42.0</ele><time>2026-04-18T12:57:20.75Z</time></trkpt><trkpt lat="43.34706" lon="10.6477333"><ele>42.0</ele><time>2026-04-18T12:57:21.745Z</time></trkpt><trkpt lat="43.3472417" lon="10.6478267"><ele>42.0</ele><time>2026-04-18T12:57:22.745Z</time></trkpt><trkpt lat="43.3474383" lon="10.6479183"><ele>41.333333333333336</ele><time>2026-04-18T12:57:23.742Z</time></trkpt><trkpt lat="43.347645" lon="10.6480133"><ele>40.66666666666667</ele><time>2026-04-18T12:57:24.744Z</time></trkpt><trkpt lat="43.34785" lon="10.648105"><ele>40.0</ele><time>2026-04-18T12:57:25.744Z</time></trkpt><trkpt lat="43.34806" lon="10.64819"><ele>40.0</ele><time>2026-04-18T12:57:26.748Z</time></trkpt><trkpt lat="43.3482767" lon="10.648285"><ele>40.0</ele><time>2026-04-18T12:57:27.744Z</time></trkpt><trkpt lat="43.3485" lon="10.6483867"><ele>40.0</ele><time>2026-04-18T12:57:28.744Z</time></trkpt><trkpt lat="43.3487167" lon="10.6484767"><ele>40.0</ele><time>2026-04-18T12:57:29.745Z</time></trkpt><trkpt lat="43.3489217" lon="10.64856"><ele>40.0</ele><time>2026-04-18T12:57:30.744Z</time></trkpt><trkpt lat="43.349115" lon="10.6486383"><ele>40.0</ele><time>2026-04-18T12:57:31.748Z</time></trkpt><trkpt lat="43.3493" lon="10.64871"><ele>40.0</ele><time>2026-04-18T12:57:32.752Z</time></trkpt><trkpt lat="43.349475" lon="10.64878"><ele>40.0</ele><time>2026-04-18T12:57:33.746Z</time></trkpt><trkpt lat="43.3496533" lon="10.6488467"><ele>41.333333333333336</ele><time>2026-04-18T12:57:34.743Z</time></trkpt><trkpt lat="43.3498433" lon="10.6489317"><ele>42.666666666666664</ele><time>2026-04-18T12:57:35.744Z</time></trkpt><trkpt lat="43.350045" lon="10.6490217"><ele>44.0</ele><time>2026-04-18T12:57:36.745Z</time></trkpt><trkpt lat="43.3502517" lon="10.6491267"><ele>44.0</ele><time>2026-04-18T12:57:37.747Z</time></trkpt><trkpt lat="43.3504633" lon="10.649245"><ele>44.0</ele><time>2026-04-18T12:57:38.749Z</time></trkpt><trkpt lat="43.3506933" lon="10.6493533"><ele>42.5</ele><time>2026-04-18T12:57:39.746Z</time></trkpt><trkpt lat="43.350925" lon="10.6494717"><ele>41.0</ele><time>2026-04-18T12:57:40.741Z</time></trkpt><trkpt lat="43.3511483" lon="10.6495867"><ele>41.0</ele><time>2026-04-18T12:57:41.751Z</time></trkpt><trkpt lat="43.35136" lon="10.6497017"><ele>41.0</ele><time>2026-04-18T12:57:42.745Z</time></trkpt><trkpt lat="43.3515667" lon="10.6498033"><ele>41.0</ele><time>2026-04-18T12:57:43.744Z</time></trkpt><trkpt lat="43.3517667" lon="10.6499067"><ele>42.33333333333333</ele><time>2026-04-18T12:57:44.747Z</time></trkpt><trkpt lat="43.3519667" lon="10.650015"><ele>43.666666666666664</ele><time>2026-04-18T12:57:45.746Z</time></trkpt><trkpt lat="43.35218" lon="10.6501183"><ele>45.0</ele><time>2026-04-18T12:57:46.746Z</time></trkpt><trkpt lat="43.3524" lon="10.6502367"><ele>45.5</ele><time>2026-04-18T12:57:47.743Z</time></trkpt><trkpt lat="43.35262" lon="10.6503433"><ele>46.0</ele><time>2026-04-18T12:57:48.745Z</time></trkpt><trkpt lat="43.3528283" lon="10.6504517"><ele>46.0</ele><time>2026-04-18T12:57:49.746Z</time></trkpt><trkpt lat="43.353025" lon="10.6505567"><ele>46.0</ele><time>2026-04-18T12:57:50.746Z</time></trkpt><trkpt lat="43.3532117" lon="10.650655"><ele>46.0</ele><time>2026-04-18T12:57:51.746Z</time></trkpt><trkpt lat="43.3533883" lon="10.6507533"><ele>46.66666666666667</ele><time>2026-04-18T12:57:52.743Z</time></trkpt><trkpt lat="43.3535583" lon="10.6508333"><ele>47.333333333333336</ele><time>2026-04-18T12:57:53.744Z</time></trkpt><trkpt lat="43.3537217" lon="10.650905"><ele>48.0</ele><time>2026-04-18T12:57:54.746Z</time></trkpt><trkpt lat="43.3538833" lon="10.65097"><ele>49.33333333333333</ele><time>2026-04-18T12:57:55.742Z</time></trkpt><trkpt lat="43.3540567" lon="10.6510133"><ele>50.666666666666664</ele><time>2026-04-18T12:57:56.744Z</time></trkpt><trkpt lat="43.35424" lon="10.6510383"><ele>52.0</ele><time>2026-04-18T12:57:57.746Z</time></trkpt><trkpt lat="43.3544233" lon="10.651075"><ele>51.666666666666664</ele><time>2026-04-18T12:57:58.747Z</time></trkpt><trkpt lat="43.3546" lon="10.651135"><ele>51.33333333333333</ele><time>2026-04-18T12:57:59.746Z</time></trkpt><trkpt lat="43.3547683" lon="10.6512283"><ele>51.0</ele><time>2026-04-18T12:58:00.749Z</time></trkpt><trkpt lat="43.35496" lon="10.6512867"><ele>51.0</ele><time>2026-04-18T12:58:01.744Z</time></trkpt><trkpt lat="43.3551383" lon="10.651335"><ele>51.0</ele><time>2026-04-18T12:58:02.748Z</time></trkpt><trkpt lat="43.3552933" lon="10.6514117"><ele>51.0</ele><time>2026-04-18T12:58:03.742Z</time></trkpt><trkpt lat="43.35544" lon="10.6514617"><ele>52.25</ele><time>2026-04-18T12:58:04.744Z</time></trkpt><trkpt lat="43.355585" lon="10.6514883"><ele>53.5</ele><time>2026-04-18T12:58:05.743Z</time></trkpt><trkpt lat="43.3557367" lon="10.651505"><ele>54.75</ele><time>2026-04-18T12:58:06.744Z</time></trkpt><trkpt lat="43.3558817" lon="10.651545"><ele>56.0</ele><time>2026-04-18T12:58:07.748Z</time></trkpt><trkpt lat="43.356015" lon="10.6516017"><ele>56.0</ele><time>2026-04-18T12:58:08.744Z</time></trkpt><trkpt lat="43.3561617" lon="10.6516583"><ele>56.0</ele><time>2026-04-18T12:58:09.743Z</time></trkpt><trkpt lat="43.35632" lon="10.6517433"><ele>56.0</ele><time>2026-04-18T12:58:10.742Z</time></trkpt><trkpt lat="43.3564817" lon="10.6518833"><ele>55.66666666666667</ele><time>2026-04-18T12:58:11.742Z</time></trkpt><trkpt lat="43.3566417" lon="10.6520333"><ele>55.33333333333333</ele><time>2026-04-18T12:58:12.743Z</time></trkpt><trkpt lat="43.356805" lon="10.6521483"><ele>55.0</ele><time>2026-04-18T12:58:13.743Z</time></trkpt><trkpt lat="43.3569683" lon="10.6522433"><ele>55.0</ele><time>2026-04-18T12:58:14.742Z</time></trkpt><trkpt lat="43.3571133" lon="10.652355"><ele>55.0</ele><time>2026-04-18T12:58:15.741Z</time></trkpt><trkpt lat="43.3572517" lon="10.6524567"><ele>55.0</ele><time>2026-04-18T12:58:16.747Z</time></trkpt><trkpt lat="43.3573917" lon="10.6525467"><ele>56.666666666666664</ele><time>2026-04-18T12:58:17.744Z</time></trkpt><trkpt lat="43.35754" lon="10.6526333"><ele>58.33333333333333</ele><time>2026-04-18T12:58:18.743Z</time></trkpt><trkpt lat="43.35769" lon="10.65275"><ele>60.0</ele><time>2026-04-18T12:58:19.748Z</time></trkpt><trkpt lat="43.3578433" lon="10.6527867"><ele>58.66666666666667</ele><time>2026-04-18T12:58:20.743Z</time></trkpt><trkpt lat="43.3579983" lon="10.6528517"><ele>57.333333333333336</ele><time>2026-04-18T12:58:21.745Z</time></trkpt><trkpt lat="43.358155" lon="10.6529"><ele>56.0</ele><time>2026-04-18T12:58:22.741Z</time></trkpt><trkpt lat="43.3583133" lon="10.6529217"><ele>56.0</ele><time>2026-04-18T12:58:23.746Z</time></trkpt><trkpt lat="43.3584717" lon="10.6529517"><ele>56.0</ele><time>2026-04-18T12:58:24.742Z</time></trkpt><trkpt lat="43.35863" lon="10.65296"><ele>56.0</ele><time>2026-04-18T12:58:25.744Z</time></trkpt><trkpt lat="43.35877" lon="10.6529917"><ele>57.66666666666667</ele><time>2026-04-18T12:58:26.741Z</time></trkpt><trkpt lat="43.3589217" lon="10.6529983"><ele>59.33333333333333</ele><time>2026-04-18T12:58:27.74Z</time></trkpt><trkpt lat="43.3590767" lon="10.6530567"><ele>61.0</ele><time>2026-04-18T12:58:28.742Z</time></trkpt><trkpt lat="43.3592267" lon="10.65313"><ele>61.0</ele><time>2026-04-18T12:58:29.749Z</time></trkpt><trkpt lat="43.3593683" lon="10.6532133"><ele>61.0</ele><time>2026-04-18T12:58:30.743Z</time></trkpt><trkpt lat="43.3595217" lon="10.6532667"><ele>61.0</ele><time>2026-04-18T12:58:31.746Z</time></trkpt><trkpt lat="43.3596667" lon="10.6533083"><ele>61.5</ele><time>2026-04-18T12:58:32.743Z</time></trkpt><trkpt lat="43.3598083" lon="10.65331"><ele>62.0</ele><time>2026-04-18T12:58:33.742Z</time></trkpt><trkpt lat="43.3599317" lon="10.6533183"><ele>62.5</ele><time>2026-04-18T12:58:34.743Z</time></trkpt><trkpt lat="43.36006" lon="10.653335"><ele>63.0</ele><time>2026-04-18T12:58:35.743Z</time></trkpt><trkpt lat="43.3601933" lon="10.65337"><ele>63.0</ele><time>2026-04-18T12:58:36.741Z</time></trkpt><trkpt lat="43.3603333" lon="10.6534533"><ele>63.0</ele><time>2026-04-18T12:58:37.742Z</time></trkpt><trkpt lat="43.3604833" lon="10.65355"><ele>63.0</ele><time>2026-04-18T12:58:38.742Z</time></trkpt><trkpt lat="43.3606333" lon="10.65361"><ele>63.25</ele><time>2026-04-18T12:58:39.741Z</time></trkpt><trkpt lat="43.36077" lon="10.653665"><ele>63.5</ele><time>2026-04-18T12:58:40.74Z</time></trkpt><trkpt lat="43.36089" lon="10.6537217"><ele>63.75</ele><time>2026-04-18T12:58:41.743Z</time></trkpt><trkpt lat="43.3610083" lon="10.6537783"><ele>64.0</ele><time>2026-04-18T12:58:42.74Z</time></trkpt><trkpt lat="43.3611217" lon="10.6538617"><ele>64.0</ele><time>2026-04-18T12:58:43.744Z</time></trkpt><trkpt lat="43.3612317" lon="10.6539617"><ele>64.0</ele><time>2026-04-18T12:58:44.745Z</time></trkpt><trkpt lat="43.3613367" lon="10.6540767"><ele>64.0</ele><time>2026-04-18T12:58:45.754Z</time></trkpt><trkpt lat="43.3614483" lon="10.6541967"><ele>64.0</ele><time>2026-04-18T12:58:46.748Z</time></trkpt><trkpt lat="43.3615633" lon="10.654325"><ele>65.0</ele><time>2026-04-18T12:58:47.746Z</time></trkpt><trkpt lat="43.361645" lon="10.6544633"><ele>66.0</ele><time>2026-04-18T12:58:48.747Z</time></trkpt><trkpt lat="43.361725" lon="10.6545733"><ele>67.0</ele><time>2026-04-18T12:58:49.746Z</time></trkpt><trkpt lat="43.361825" lon="10.6546433"><ele>68.0</ele><time>2026-04-18T12:58:50.743Z</time></trkpt><trkpt lat="43.3619367" lon="10.6546967"><ele>68.0</ele><time>2026-04-18T12:58:51.741Z</time></trkpt><trkpt lat="43.3620583" lon="10.6547333"><ele>68.0</ele><time>2026-04-18T12:58:52.742Z</time></trkpt><trkpt lat="43.3621933" lon="10.6547583"><ele>68.0</ele><time>2026-04-18T12:58:53.745Z</time></trkpt><trkpt lat="43.3623083" lon="10.6548083"><ele>68.0</ele><time>2026-04-18T12:58:54.748Z</time></trkpt><trkpt lat="43.3624083" lon="10.65487"><ele>71.25</ele><time>2026-04-18T12:58:55.749Z</time></trkpt><trkpt lat="43.3625117" lon="10.654915"><ele>74.5</ele><time>2026-04-18T12:58:56.743Z</time></trkpt><trkpt lat="43.3626333" lon="10.6549067"><ele>77.75</ele><time>2026-04-18T12:58:57.744Z</time></trkpt><trkpt lat="43.3627533" lon="10.654855"><ele>81.0</ele><time>2026-04-18T12:58:58.747Z</time></trkpt><trkpt lat="43.36286" lon="10.6548733"><ele>81.0</ele><time>2026-04-18T12:58:59.747Z</time></trkpt><trkpt lat="43.3629533" lon="10.6549333"><ele>81.0</ele><time>2026-04-18T12:59:00.744Z</time></trkpt><trkpt lat="43.36303" lon="10.655035"><ele>81.0</ele><time>2026-04-18T12:59:01.743Z</time></trkpt><trkpt lat="43.3630867" lon="10.6551267"><ele>81.0</ele><time>2026-04-18T12:59:02.745Z</time></trkpt><trkpt lat="43.3631417" lon="10.6551983"><ele>81.0</ele><time>2026-04-18T12:59:03.741Z</time></trkpt><trkpt lat="43.363215" lon="10.6552367"><ele>80.8</ele><time>2026-04-18T12:59:04.752Z</time></trkpt><trkpt lat="43.3633133" lon="10.65522"><ele>80.6</ele><time>2026-04-18T12:59:05.744Z</time></trkpt><trkpt lat="43.3634333" lon="10.65521"><ele>80.4</ele><time>2026-04-18T12:59:06.745Z</time></trkpt><trkpt lat="43.3635267" lon="10.655265"><ele>80.2</ele><time>2026-04-18T12:59:07.745Z</time></trkpt><trkpt lat="43.3636183" lon="10.65532"><ele>80.0</ele><time>2026-04-18T12:59:08.746Z</time></trkpt><trkpt lat="43.363695" lon="10.65532"><ele>81.5</ele><time>2026-04-18T12:59:09.744Z</time></trkpt><trkpt lat="43.36374" lon="10.6552583"><ele>83.0</ele><time>2026-04-18T12:59:10.745Z</time></trkpt><trkpt lat="43.363765" lon="10.6551583"><ele>84.5</ele><time>2026-04-18T12:59:11.743Z</time></trkpt><trkpt lat="43.36376" lon="10.6550633"><ele>86.0</ele><time>2026-04-18T12:59:12.744Z</time></trkpt><trkpt lat="43.3637333" lon="10.6549617"><ele>87.5</ele><time>2026-04-18T12:59:13.742Z</time></trkpt><trkpt lat="43.36365" lon="10.654845"><ele>89.0</ele><time>2026-04-18T12:59:14.744Z</time></trkpt><trkpt lat="43.3635667" lon="10.6547167"><ele>89.0</ele><time>2026-04-18T12:59:15.743Z</time></trkpt><trkpt lat="43.3635183" lon="10.6545783"><ele>89.0</ele><time>2026-04-18T12:59:16.746Z</time></trkpt><trkpt lat="43.3634617" lon="10.6544617"><ele>89.0</ele><time>2026-04-18T12:59:17.743Z</time></trkpt><trkpt lat="43.3633917" lon="10.6543783"><ele>89.0</ele><time>2026-04-18T12:59:18.741Z</time></trkpt><trkpt lat="43.3633117" lon="10.6543333"><ele>89.0</ele><time>2026-04-18T12:59:19.74Z</time></trkpt><trkpt lat="43.3632567" lon="10.6542833"><ele>91.0</ele><time>2026-04-18T12:59:20.75Z</time></trkpt><trkpt lat="43.3632233" lon="10.654205"><ele>93.0</ele><time>2026-04-18T12:59:22.743Z</time></trkpt><trkpt lat="43.363295" lon="10.6541633"><ele>95.0</ele><time>2026-04-18T12:59:24.743Z</time></trkpt><trkpt lat="43.3634183" lon="10.6542"><ele>97.0</ele><time>2026-04-18T12:59:26.749Z</time></trkpt><trkpt lat="43.3635233" lon="10.6542433"><ele>99.0</ele><time>2026-04-18T12:59:27.746Z</time></trkpt><trkpt lat="43.36366" lon="10.6542483"><ele>99.0</ele><time>2026-04-18T12:59:28.744Z</time></trkpt><trkpt lat="43.363795" lon="10.654295"><ele>99.0</ele><time>2026-04-18T12:59:29.743Z</time></trkpt><trkpt lat="43.36393" lon="10.6543767"><ele>99.0</ele><time>2026-04-18T12:59:30.741Z</time></trkpt><trkpt lat="43.3640467" lon="10.6545"><ele>99.0</ele><time>2026-04-18T12:59:31.74Z</time></trkpt><trkpt lat="43.3641483" lon="10.6546267"><ele>99.75</ele><time>2026-04-18T12:59:32.744Z</time></trkpt><trkpt lat="43.3642433" lon="10.65475"><ele>100.5</ele><time>2026-04-18T12:59:33.743Z</time></trkpt><trkpt lat="43.3643567" lon="10.6548333"><ele>101.25</ele><time>2026-04-18T12:59:34.747Z</time></trkpt><trkpt lat="43.3644817" lon="10.65489"><ele>102.0</ele><time>2026-04-18T12:59:35.745Z</time></trkpt><trkpt lat="43.3646117" lon="10.6549133"><ele>104.19999999999999</ele><time>2026-04-18T12:59:36.748Z</time></trkpt><trkpt lat="43.3647317" lon="10.6549317"><ele>106.4</ele><time>2026-04-18T12:59:37.746Z</time></trkpt><trkpt lat="43.3648467" lon="10.654975"><ele>108.60000000000001</ele><time>2026-04-18T12:59:38.744Z</time></trkpt><trkpt lat="43.364945" lon="10.6550333"><ele>110.80000000000001</ele><time>2026-04-18T12:59:39.744Z</time></trkpt><trkpt lat="43.3650417" lon="10.6550567"><ele>113.0</ele><time>2026-04-18T12:59:40.743Z</time></trkpt><trkpt lat="43.3651433" lon="10.655025"><ele>113.0</ele><time>2026-04-18T12:59:41.741Z</time></trkpt><trkpt lat="43.3652633" lon="10.6549617"><ele>113.0</ele><time>2026-04-18T12:59:42.742Z</time></trkpt><trkpt lat="43.3653933" lon="10.6548867"><ele>113.0</ele><time>2026-04-18T12:59:43.741Z</time></trkpt><trkpt lat="43.3655333" lon="10.65479"><ele>113.0</ele><time>2026-04-18T12:59:44.741Z</time></trkpt><trkpt lat="43.3656683" lon="10.654765"><ele>113.0</ele><time>2026-04-18T12:59:45.746Z</time></trkpt><trkpt lat="43.3657917" lon="10.6547433"><ele>113.00000000000001</ele><time>2026-04-18T12:59:46.746Z</time></trkpt><trkpt lat="43.3659067" lon="10.654735"><ele>113.00000000000001</ele><time>2026-04-18T12:59:47.747Z</time></trkpt><trkpt lat="43.3659933" lon="10.6547667"><ele>113.0</ele><time>2026-04-18T12:59:48.744Z</time></trkpt><trkpt lat="43.3660683" lon="10.65477"><ele>113.0</ele><time>2026-04-18T12:59:49.745Z</time></trkpt><trkpt lat="43.36613" lon="10.6547467"><ele>113.0</ele><time>2026-04-18T12:59:50.744Z</time></trkpt><trkpt lat="43.36619" lon="10.6545817"><ele>113.0</ele><time>2026-04-18T12:59:52.742Z</time></trkpt><trkpt lat="43.366205" lon="10.654425"><ele>113.0</ele><time>2026-04-18T12:59:53.747Z</time></trkpt><trkpt lat="43.366215" lon="10.6542517"><ele>113.0</ele><time>2026-04-18T12:59:54.744Z</time></trkpt><trkpt lat="43.3662583" lon="10.6540783"><ele>116.5</ele><time>2026-04-18T12:59:55.746Z</time></trkpt><trkpt lat="43.3663333" lon="10.653885"><ele>120.0</ele><time>2026-04-18T12:59:56.744Z</time></trkpt><trkpt lat="43.3663567" lon="10.6536783"><ele>123.5</ele><time>2026-04-18T12:59:57.741Z</time></trkpt><trkpt lat="43.3663967" lon="10.6535117"><ele>127.0</ele><time>2026-04-18T12:59:58.742Z</time></trkpt><trkpt lat="43.36644" lon="10.653385"><ele>127.6</ele><time>2026-04-18T12:59:59.742Z</time></trkpt><trkpt lat="43.3665067" lon="10.6533167"><ele>128.2</ele><time>2026-04-18T13:00:00.751Z</time></trkpt><trkpt lat="43.3666017" lon="10.6533017"><ele>128.8</ele><time>2026-04-18T13:00:01.748Z</time></trkpt><trkpt lat="43.3667117" lon="10.6532917"><ele>129.4</ele><time>2026-04-18T13:00:02.745Z</time></trkpt><trkpt lat="43.3668517" lon="10.6532617"><ele>130.0</ele><time>2026-04-18T13:00:03.746Z</time></trkpt><trkpt lat="43.367025" lon="10.6532583"><ele>129.33333333333334</ele><time>2026-04-18T13:00:04.748Z</time></trkpt><trkpt lat="43.3672017" lon="10.6532317"><ele>128.66666666666666</ele><time>2026-04-18T13:00:05.749Z</time></trkpt><trkpt lat="43.36735" lon="10.6531367"><ele>128.0</ele><time>2026-04-18T13:00:06.744Z</time></trkpt><trkpt lat="43.3675067" lon="10.6530933"><ele>128.0</ele><time>2026-04-18T13:00:07.741Z</time></trkpt><trkpt lat="43.3676217" lon="10.6530083"><ele>128.0</ele><time>2026-04-18T13:00:08.743Z</time></trkpt><trkpt lat="43.3677533" lon="10.6529917"><ele>128.0</ele><time>2026-04-18T13:00:09.751Z</time></trkpt><trkpt lat="43.3678767" lon="10.653"><ele>128.0</ele><time>2026-04-18T13:00:10.748Z</time></trkpt><trkpt lat="43.368005" lon="10.6530317"><ele>128.8</ele><time>2026-04-18T13:00:11.744Z</time></trkpt><trkpt lat="43.3681167" lon="10.6530483"><ele>129.60000000000002</ele><time>2026-04-18T13:00:12.747Z</time></trkpt><trkpt lat="43.3681633" lon="10.6529883"><ele>130.39999999999998</ele><time>2026-04-18T13:00:13.745Z</time></trkpt><trkpt lat="43.3681817" lon="10.6528967"><ele>131.2</ele><time>2026-04-18T13:00:14.744Z</time></trkpt><trkpt lat="43.36826" lon="10.6527933"><ele>132.0</ele><time>2026-04-18T13:00:15.743Z</time></trkpt><trkpt lat="43.3683283" lon="10.6526933"><ele>135.0</ele><time>2026-04-18T13:00:16.741Z</time></trkpt><trkpt lat="43.36842" lon="10.6526033"><ele>138.0</ele><time>2026-04-18T13:00:17.741Z</time></trkpt><trkpt lat="43.3685133" lon="10.6525333"><ele>141.0</ele><time>2026-04-18T13:00:18.745Z</time></trkpt><trkpt lat="43.3686017" lon="10.6524983"><ele>144.0</ele><time>2026-04-18T13:00:19.751Z</time></trkpt><trkpt lat="43.3686833" lon="10.6524917"><ele>147.0</ele><time>2026-04-18T13:00:20.749Z</time></trkpt><trkpt lat="43.3687583" lon="10.6525317"><ele>147.0</ele><time>2026-04-18T13:00:21.746Z</time></trkpt><trkpt lat="43.36882" lon="10.65261"><ele>147.0</ele><time>2026-04-18T13:00:22.744Z</time></trkpt><trkpt lat="43.36886" lon="10.6526967"><ele>147.0</ele><time>2026-04-18T13:00:23.745Z</time></trkpt><trkpt lat="43.368905" lon="10.652765"><ele>147.0</ele><time>2026-04-18T13:00:24.741Z</time></trkpt><trkpt lat="43.3689517" lon="10.65283"><ele>147.0</ele><time>2026-04-18T13:00:25.749Z</time></trkpt><trkpt lat="43.3690117" lon="10.6528917"><ele>147.0</ele><time>2026-04-18T13:00:26.746Z</time></trkpt><trkpt lat="43.3690833" lon="10.6529433"><ele>147.0</ele><time>2026-04-18T13:00:27.742Z</time></trkpt><trkpt lat="43.36917" lon="10.6529633"><ele>144.75</ele><time>2026-04-18T13:00:28.741Z</time></trkpt><trkpt lat="43.36927" lon="10.6529617"><ele>142.5</ele><time>2026-04-18T13:00:29.742Z</time></trkpt><trkpt lat="43.3693867" lon="10.652945"><ele>140.25</ele><time>2026-04-18T13:00:30.748Z</time></trkpt><trkpt lat="43.369515" lon="10.6529183"><ele>138.0</ele><time>2026-04-18T13:00:31.747Z</time></trkpt><trkpt lat="43.369645" lon="10.6528883"><ele>138.20000000000002</ele><time>2026-04-18T13:00:32.749Z</time></trkpt><trkpt lat="43.3697567" lon="10.6528583"><ele>138.4</ele><time>2026-04-18T13:00:33.747Z</time></trkpt><trkpt lat="43.3698567" lon="10.6528267"><ele>138.60000000000002</ele><time>2026-04-18T13:00:34.744Z</time></trkpt><trkpt lat="43.3699517" lon="10.65277"><ele>138.8</ele><time>2026-04-18T13:00:35.744Z</time></trkpt><trkpt lat="43.3700417" lon="10.6527017"><ele>139.0</ele><time>2026-04-18T13:00:36.741Z</time></trkpt><trkpt lat="43.3701233" lon="10.6526617"><ele>142.4</ele><time>2026-04-18T13:00:37.745Z</time></trkpt><trkpt lat="43.3702267" lon="10.6526533"><ele>145.8</ele><time>2026-04-18T13:00:38.752Z</time></trkpt><trkpt lat="43.37034" lon="10.6526633"><ele>149.2</ele><time>2026-04-18T13:00:39.746Z</time></trkpt><trkpt lat="43.37045" lon="10.6526717"><ele>152.6</ele><time>2026-04-18T13:00:40.744Z</time></trkpt><trkpt lat="43.37055" lon="10.6526733"><ele>156.0</ele><time>2026-04-18T13:00:41.746Z</time></trkpt><trkpt lat="43.37063" lon="10.6526767"><ele>156.0</ele><time>2026-04-18T13:00:42.742Z</time></trkpt><trkpt lat="43.3707017" lon="10.6526517"><ele>156.0</ele><time>2026-04-18T13:00:43.742Z</time></trkpt><trkpt lat="43.37077" lon="10.6526133"><ele>156.0</ele><time>2026-04-18T13:00:44.744Z</time></trkpt><trkpt lat="43.3708367" lon="10.652545"><ele>156.0</ele><time>2026-04-18T13:00:45.744Z</time></trkpt><trkpt lat="43.3708917" lon="10.6524733"><ele>156.0</ele><time>2026-04-18T13:00:46.744Z</time></trkpt><trkpt lat="43.3709367" lon="10.6523333"><ele>156.0</ele><time>2026-04-18T13:00:48.743Z</time></trkpt><trkpt lat="43.3708667" lon="10.6522467"><ele>156.0</ele><time>2026-04-18T13:00:50.749Z</time></trkpt><trkpt lat="43.370735" lon="10.6522167"><ele>156.0</ele><time>2026-04-18T13:00:52.745Z</time></trkpt><trkpt lat="43.37065" lon="10.6521917"><ele>156.0</ele><time>2026-04-18T13:00:53.748Z</time></trkpt><trkpt lat="43.3705717" lon="10.652145"><ele>156.0</ele><time>2026-04-18T13:00:54.743Z</time></trkpt><trkpt lat="43.3704967" lon="10.652075"><ele>156.0</ele><time>2026-04-18T13:00:55.743Z</time></trkpt><trkpt lat="43.3704183" lon="10.6520183"><ele>157.0</ele><time>2026-04-18T13:00:56.744Z</time></trkpt><trkpt lat="43.370345" lon="10.65198"><ele>158.0</ele><time>2026-04-18T13:00:57.743Z</time></trkpt><trkpt lat="43.3702567" lon="10.651975"><ele>159.0</ele><time>2026-04-18T13:00:58.741Z</time></trkpt><trkpt lat="43.3701433" lon="10.65201"><ele>160.0</ele><time>2026-04-18T13:00:59.745Z</time></trkpt><trkpt lat="43.370025" lon="10.6520467"><ele>161.0</ele><time>2026-04-18T13:01:00.743Z</time></trkpt><trkpt lat="43.3699067" lon="10.652075"><ele>161.0</ele><time>2026-04-18T13:01:01.746Z</time></trkpt><trkpt lat="43.3698033" lon="10.65209"><ele>161.0</ele><time>2026-04-18T13:01:02.747Z</time></trkpt><trkpt lat="43.3697133" lon="10.65208"><ele>161.0</ele><time>2026-04-18T13:01:03.744Z</time></trkpt><trkpt lat="43.3696233" lon="10.6520417"><ele>161.0</ele><time>2026-04-18T13:01:04.746Z</time></trkpt><trkpt lat="43.3695333" lon="10.6519683"><ele>161.0</ele><time>2026-04-18T13:01:05.746Z</time></trkpt><trkpt lat="43.369455" lon="10.6518817"><ele>162.0</ele><time>2026-04-18T13:01:06.747Z</time></trkpt><trkpt lat="43.369395" lon="10.6517967"><ele>163.0</ele><time>2026-04-18T13:01:07.745Z</time></trkpt><trkpt lat="43.3693517" lon="10.6517017"><ele>164.0</ele><time>2026-04-18T13:01:08.749Z</time></trkpt><trkpt lat="43.36935" lon="10.6515867"><ele>165.0</ele><time>2026-04-18T13:01:09.747Z</time></trkpt><trkpt lat="43.36937" lon="10.6514517"><ele>166.0</ele><time>2026-04-18T13:01:10.748Z</time></trkpt><trkpt lat="43.3694083" lon="10.6513067"><ele>166.0</ele><time>2026-04-18T13:01:11.748Z</time></trkpt><trkpt lat="43.36945" lon="10.6511767"><ele>166.0</ele><time>2026-04-18T13:01:12.743Z</time></trkpt><trkpt lat="43.3695083" lon="10.6510683"><ele>166.0</ele><time>2026-04-18T13:01:13.743Z</time></trkpt><trkpt lat="43.3695633" lon="10.6509683"><ele>166.0</ele><time>2026-04-18T13:01:14.744Z</time></trkpt><trkpt lat="43.3696367" lon="10.65088"><ele>166.0</ele><time>2026-04-18T13:01:15.743Z</time></trkpt><trkpt lat="43.369725" lon="10.6508317"><ele>168.0</ele><time>2026-04-18T13:01:16.744Z</time></trkpt><trkpt lat="43.3698167" lon="10.650795"><ele>170.0</ele><time>2026-04-18T13:01:17.741Z</time></trkpt><trkpt lat="43.3699033" lon="10.650785"><ele>172.0</ele><time>2026-04-18T13:01:18.748Z</time></trkpt><trkpt lat="43.3699867" lon="10.650795"><ele>174.0</ele><time>2026-04-18T13:01:19.743Z</time></trkpt><trkpt lat="43.37007" lon="10.6508033"><ele>176.0</ele><time>2026-04-18T13:01:20.745Z</time></trkpt><trkpt lat="43.3701633" lon="10.6508133"><ele>178.0</ele><time>2026-04-18T13:01:21.745Z</time></trkpt><trkpt lat="43.3702567" lon="10.6508317"><ele>178.0</ele><time>2026-04-18T13:01:22.746Z</time></trkpt><trkpt lat="43.3703467" lon="10.6508633"><ele>178.0</ele><time>2026-04-18T13:01:23.746Z</time></trkpt><trkpt lat="43.370425" lon="10.6508983"><ele>178.0</ele><time>2026-04-18T13:01:24.744Z</time></trkpt><trkpt lat="43.370505" lon="10.6509183"><ele>178.0</ele><time>2026-04-18T13:01:25.744Z</time></trkpt><trkpt lat="43.3705817" lon="10.6509167"><ele>178.0</ele><time>2026-04-18T13:01:26.745Z</time></trkpt><trkpt lat="43.3706533" lon="10.65089"><ele>178.0</ele><time>2026-04-18T13:01:27.746Z</time></trkpt><trkpt lat="43.370725" lon="10.65079"><ele>178.0</ele><time>2026-04-18T13:01:28.749Z</time></trkpt><trkpt lat="43.37081" lon="10.6506533"><ele>178.0</ele><time>2026-04-18T13:01:29.751Z</time></trkpt><trkpt lat="43.3709117" lon="10.6504967"><ele>178.0</ele><time>2026-04-18T13:01:30.749Z</time></trkpt><trkpt lat="43.3710283" lon="10.6503333"><ele>177.0</ele><time>2026-04-18T13:01:31.745Z</time></trkpt><trkpt lat="43.3711383" lon="10.6501783"><ele>176.0</ele><time>2026-04-18T13:01:32.746Z</time></trkpt><trkpt lat="43.3712367" lon="10.65004"><ele>175.0</ele><time>2026-04-18T13:01:33.746Z</time></trkpt><trkpt lat="43.3713267" lon="10.6499133"><ele>174.0</ele><time>2026-04-18T13:01:34.743Z</time></trkpt><trkpt lat="43.3714017" lon="10.6497833"><ele>174.6</ele><time>2026-04-18T13:01:35.742Z</time></trkpt><trkpt lat="43.3714583" lon="10.6496483"><ele>175.2</ele><time>2026-04-18T13:01:36.743Z</time></trkpt><trkpt lat="43.3714983" lon="10.6495167"><ele>175.79999999999998</ele><time>2026-04-18T13:01:37.748Z</time></trkpt><trkpt lat="43.3715233" lon="10.649395"><ele>176.39999999999998</ele><time>2026-04-18T13:01:38.749Z</time></trkpt><trkpt lat="43.3715383" lon="10.6492817"><ele>177.0</ele><time>2026-04-18T13:01:39.742Z</time></trkpt><trkpt lat="43.3715483" lon="10.6491867"><ele>177.0</ele><time>2026-04-18T13:01:40.745Z</time></trkpt><trkpt lat="43.3715767" lon="10.6490633"><ele>177.0</ele><time>2026-04-18T13:01:42.742Z</time></trkpt><trkpt lat="43.37172" lon="10.6490483"><ele>177.0</ele><time>2026-04-18T13:02:37.744Z</time></trkpt><trkpt lat="43.3717983" lon="10.6490417"><ele>177.0</ele><time>2026-04-18T13:02:38.745Z</time></trkpt><trkpt lat="43.3718867" lon="10.6490367"><ele>177.0</ele><time>2026-04-18T13:02:39.745Z</time></trkpt><trkpt lat="43.371985" lon="10.64903"><ele>177.0</ele><time>2026-04-18T13:02:40.744Z</time></trkpt><trkpt lat="43.3720867" lon="10.6490267"><ele>177.0</ele><time>2026-04-18T13:02:41.741Z</time></trkpt><trkpt lat="43.37219" lon="10.6490233"><ele>177.0</ele><time>2026-04-18T13:02:42.743Z</time></trkpt><trkpt lat="43.3722983" lon="10.6490183"><ele>177.0</ele><time>2026-04-18T13:02:43.74Z</time></trkpt><trkpt lat="43.3724167" lon="10.6490133"><ele>177.0</ele><time>2026-04-18T13:02:44.745Z</time></trkpt><trkpt lat="43.3725433" lon="10.6490067"><ele>177.25</ele><time>2026-04-18T13:02:45.748Z</time></trkpt><trkpt lat="43.3726767" lon="10.649"><ele>177.5</ele><time>2026-04-18T13:02:46.744Z</time></trkpt><trkpt lat="43.372815" lon="10.6489917"><ele>177.75</ele><time>2026-04-18T13:02:47.744Z</time></trkpt><trkpt lat="43.3729467" lon="10.648985"><ele>178.0</ele><time>2026-04-18T13:02:48.744Z</time></trkpt><trkpt lat="43.3730683" lon="10.64898"><ele>178.4</ele><time>2026-04-18T13:02:49.744Z</time></trkpt><trkpt lat="43.3731783" lon="10.648975"><ele>178.8</ele><time>2026-04-18T13:02:50.746Z</time></trkpt><trkpt lat="43.3732783" lon="10.6489667"><ele>179.2</ele><time>2026-04-18T13:02:51.745Z</time></trkpt><trkpt lat="43.373375" lon="10.6489567"><ele>179.6</ele><time>2026-04-18T13:02:52.746Z</time></trkpt><trkpt lat="43.3734717" lon="10.6489483"><ele>180.0</ele><time>2026-04-18T13:02:53.743Z</time></trkpt><trkpt lat="43.3735733" lon="10.64894"><ele>180.0</ele><time>2026-04-18T13:02:54.747Z</time></trkpt><trkpt lat="43.37368" lon="10.64893"><ele>180.0</ele><time>2026-04-18T13:02:55.741Z</time></trkpt><trkpt lat="43.37378" lon="10.6489233"><ele>180.0</ele><time>2026-04-18T13:02:56.745Z</time></trkpt><trkpt lat="43.3738717" lon="10.648915"><ele>180.0</ele><time>2026-04-18T13:02:57.746Z</time></trkpt><trkpt lat="43.3739567" lon="10.6489"><ele>180.0</ele><time>2026-04-18T13:02:58.745Z</time></trkpt><trkpt lat="43.37404" lon="10.6488667"><ele>180.5</ele><time>2026-04-18T13:02:59.745Z</time></trkpt><trkpt lat="43.3741233" lon="10.6488133"><ele>181.0</ele><time>2026-04-18T13:03:00.745Z</time></trkpt><trkpt lat="43.3742167" lon="10.6487267"><ele>181.5</ele><time>2026-04-18T13:03:01.748Z</time></trkpt><trkpt lat="43.3743383" lon="10.6486217"><ele>182.0</ele><time>2026-04-18T13:03:02.745Z</time></trkpt><trkpt lat="43.3744667" lon="10.64851"><ele>182.0</ele><time>2026-04-18T13:03:03.746Z</time></trkpt><trkpt lat="43.3745917" lon="10.6484"><ele>182.0</ele><time>2026-04-18T13:03:04.745Z</time></trkpt><trkpt lat="43.3747083" lon="10.6482883"><ele>182.0</ele><time>2026-04-18T13:03:05.751Z</time></trkpt><trkpt lat="43.37482" lon="10.6481867"><ele>182.0</ele><time>2026-04-18T13:03:06.751Z</time></trkpt><trkpt lat="43.3749333" lon="10.648085"><ele>180.75</ele><time>2026-04-18T13:03:07.748Z</time></trkpt><trkpt lat="43.37504" lon="10.6479883"><ele>179.5</ele><time>2026-04-18T13:03:08.743Z</time></trkpt><trkpt lat="43.3751433" lon="10.6479"><ele>178.25</ele><time>2026-04-18T13:03:09.748Z</time></trkpt><trkpt lat="43.375245" lon="10.64783"><ele>177.0</ele><time>2026-04-18T13:03:10.747Z</time></trkpt><trkpt lat="43.3753567" lon="10.64778"><ele>181.25</ele><time>2026-04-18T13:03:11.747Z</time></trkpt><trkpt lat="43.3754833" lon="10.6477583"><ele>185.5</ele><time>2026-04-18T13:03:12.743Z</time></trkpt><trkpt lat="43.3756267" lon="10.6477567"><ele>189.75</ele><time>2026-04-18T13:03:13.747Z</time></trkpt><trkpt lat="43.3757683" lon="10.647765"><ele>194.0</ele><time>2026-04-18T13:03:14.745Z</time></trkpt><trkpt lat="43.3759067" lon="10.6477783"><ele>194.0</ele><time>2026-04-18T13:03:15.745Z</time></trkpt><trkpt lat="43.3760217" lon="10.6477967"><ele>194.0</ele><time>2026-04-18T13:03:16.746Z</time></trkpt><trkpt lat="43.3761167" lon="10.647805"><ele>194.0</ele><time>2026-04-18T13:03:17.744Z</time></trkpt><trkpt lat="43.3762083" lon="10.6477883"><ele>194.0</ele><time>2026-04-18T13:03:18.742Z</time></trkpt><trkpt lat="43.376295" lon="10.647745"><ele>194.0</ele><time>2026-04-18T13:03:19.746Z</time></trkpt><trkpt lat="43.3763883" lon="10.64769"><ele>194.0</ele><time>2026-04-18T13:03:20.743Z</time></trkpt><trkpt lat="43.37649" lon="10.6476633"><ele>194.0</ele><time>2026-04-18T13:03:21.747Z</time></trkpt><trkpt lat="43.3766083" lon="10.6476683"><ele>194.0</ele><time>2026-04-18T13:03:22.748Z</time></trkpt><trkpt lat="43.3767267" lon="10.64768"><ele>194.0</ele><time>2026-04-18T13:03:23.746Z</time></trkpt><trkpt lat="43.376855" lon="10.6476783"><ele>194.0</ele><time>2026-04-18T13:03:24.744Z</time></trkpt><trkpt lat="43.3770017" lon="10.6476533"><ele>194.0</ele><time>2026-04-18T13:03:25.745Z</time></trkpt><trkpt lat="43.3771633" lon="10.6476183"><ele>194.0</ele><time>2026-04-18T13:03:26.747Z</time></trkpt><trkpt lat="43.3773183" lon="10.6475883"><ele>176.0</ele><time>2026-04-18T13:03:27.746Z</time></trkpt><trkpt lat="43.3738717" lon="10.648915"><ele>176.0</ele><time>2026-04-18T13:02:57.746Z</time></trkpt><trkpt lat="43.3739567" lon="10.6489"><ele>176.0</ele><time>2026-04-18T13:02:58.745Z</time></trkpt><trkpt lat="43.37404" lon="10.6488667"><ele>176.0</ele><time>2026-04-18T13:02:59.745Z</time></trkpt><trkpt lat="43.3741233" lon="10.6488133"><ele>176.0</ele><time>2026-04-18T13:03:00.745Z</time></trkpt><trkpt lat="43.3742167" lon="10.6487267"><ele>176.0</ele><time>2026-04-18T13:03:01.748Z</time></trkpt><trkpt lat="43.3743383" lon="10.6486217"><ele>176.25</ele><time>2026-04-18T13:03:02.745Z</time></trkpt><trkpt lat="43.3744667" lon="10.64851"><ele>176.5</ele><time>2026-04-18T13:03:03.746Z</time></trkpt><trkpt lat="43.3745917" lon="10.6484"><ele>176.75</ele><time>2026-04-18T13:03:04.745Z</time></trkpt><trkpt lat="43.3747083" lon="10.6482883"><ele>177.0</ele><time>2026-04-18T13:03:05.751Z</time></trkpt><trkpt lat="43.37482" lon="10.6481867"><ele>177.0</ele><time>2026-04-18T13:03:06.751Z</time></trkpt><trkpt lat="43.3749333" lon="10.648085"><ele>177.0</ele><time>2026-04-18T13:03:07.748Z</time></trkpt><trkpt lat="43.37504" lon="10.6479883"><ele>177.0</ele><time>2026-04-18T13:03:08.743Z</time></trkpt><trkpt lat="43.3751433" lon="10.6479"><ele>177.0</ele><time>2026-04-18T13:03:09.748Z</time></trkpt><trkpt lat="43.375245" lon="10.64783"><ele>181.25</ele><time>2026-04-18T13:03:10.747Z</time></trkpt><trkpt lat="43.3753567" lon="10.64778"><ele>185.5</ele><time>2026-04-18T13:03:11.747Z</time></trkpt><trkpt lat="43.3754833" lon="10.6477583"><ele>189.75</ele><time>2026-04-18T13:03:12.743Z</time></trkpt><trkpt lat="43.3756267" lon="10.6477567"><ele>194.0</ele><time>2026-04-18T13:03:13.747Z</time></trkpt><trkpt lat="43.3757683" lon="10.647765"><ele>194.2</ele><time>2026-04-18T13:03:14.745Z</time></trkpt><trkpt lat="43.3759067" lon="10.6477783"><ele>194.39999999999998</ele><time>2026-04-18T13:03:15.745Z</time></trkpt><trkpt lat="43.3760217" lon="10.6477967"><ele>194.6</ele><time>2026-04-18T13:03:16.746Z</time></trkpt><trkpt lat="43.3761167" lon="10.647805"><ele>194.8</ele><time>2026-04-18T13:03:17.744Z</time></trkpt><trkpt lat="43.3762083" lon="10.6477883"><ele>195.0</ele><time>2026-04-18T13:03:18.742Z</time></trkpt><trkpt lat="43.376295" lon="10.647745"><ele>194.8</ele><time>2026-04-18T13:03:19.746Z</time></trkpt><trkpt lat="43.3763883" lon="10.64769"><ele>194.6</ele><time>2026-04-18T13:03:20.743Z</time></trkpt><trkpt lat="43.37649" lon="10.6476633"><ele>194.39999999999998</ele><time>2026-04-18T13:03:21.747Z</time></trkpt><trkpt lat="43.3766083" lon="10.6476683"><ele>194.2</ele><time>2026-04-18T13:03:22.748Z</time></trkpt><trkpt lat="43.3767267" lon="10.64768"><ele>194.0</ele><time>2026-04-18T13:03:23.746Z</time></trkpt><trkpt lat="43.376855" lon="10.6476783"><ele>194.0</ele><time>2026-04-18T13:03:24.744Z</time></trkpt><trkpt lat="43.3770017" lon="10.6476533"><ele>194.0</ele><time>2026-04-18T13:03:25.745Z</time></trkpt><trkpt lat="43.3771633" lon="10.6476183"><ele>194.0</ele><time>2026-04-18T13:03:26.747Z</time></trkpt><trkpt lat="43.3773183" lon="10.6475883"><ele>193.0</ele><time>2026-04-18T13:03:27.746Z</time></trkpt><trkpt lat="43.377455" lon="10.6475633"><ele>192.0</ele><time>2026-04-18T13:03:28.745Z</time></trkpt><trkpt lat="43.3775667" lon="10.6475383"><ele>191.0</ele><time>2026-04-18T13:03:29.746Z</time></trkpt><trkpt lat="43.3776633" lon="10.647505"><ele>190.0</ele><time>2026-04-18T13:03:30.744Z</time></trkpt><trkpt lat="43.3777633" lon="10.647455"><ele>190.0</ele><time>2026-04-18T13:03:31.744Z</time></trkpt><trkpt lat="43.3778683" lon="10.6473617"><ele>190.0</ele><time>2026-04-18T13:03:32.746Z</time></trkpt><trkpt lat="43.3779933" lon="10.6472417"><ele>190.0</ele><time>2026-04-18T13:03:33.746Z</time></trkpt><trkpt lat="43.3781267" lon="10.64711"><ele>190.0</ele><time>2026-04-18T13:03:34.745Z</time></trkpt><trkpt lat="43.3782517" lon="10.64698"><ele>192.0</ele><time>2026-04-18T13:03:35.745Z</time></trkpt><trkpt lat="43.3783617" lon="10.646855"><ele>194.0</ele><time>2026-04-18T13:03:36.745Z</time></trkpt><trkpt lat="43.3784717" lon="10.6467433"><ele>196.0</ele><time>2026-04-18T13:03:37.747Z</time></trkpt><trkpt lat="43.3785867" lon="10.6466417"><ele>198.0</ele><time>2026-04-18T13:03:38.744Z</time></trkpt><trkpt lat="43.3787217" lon="10.6465433"><ele>195.0</ele><time>2026-04-18T13:03:39.741Z</time></trkpt><trkpt lat="43.37886" lon="10.646455"><ele>192.0</ele><time>2026-04-18T13:03:40.749Z</time></trkpt><trkpt lat="43.378995" lon="10.64638"><ele>189.0</ele><time>2026-04-18T13:03:41.743Z</time></trkpt><trkpt lat="43.3791317" lon="10.64633"><ele>186.0</ele><time>2026-04-18T13:03:42.754Z</time></trkpt><trkpt lat="43.3792683" lon="10.6463133"><ele>186.0</ele><time>2026-04-18T13:03:43.747Z</time></trkpt><trkpt lat="43.3793967" lon="10.6463"><ele>186.0</ele><time>2026-04-18T13:03:44.748Z</time></trkpt><trkpt lat="43.3795183" lon="10.6462617"><ele>186.0</ele><time>2026-04-18T13:03:45.745Z</time></trkpt><trkpt lat="43.37966" lon="10.646205"><ele>186.0</ele><time>2026-04-18T13:03:46.742Z</time></trkpt><trkpt lat="43.3797983" lon="10.6461467"><ele>189.75</ele><time>2026-04-18T13:03:47.745Z</time></trkpt><trkpt lat="43.37993" lon="10.6461"><ele>193.5</ele><time>2026-04-18T13:03:48.745Z</time></trkpt><trkpt lat="43.3800683" lon="10.6460583"><ele>197.25</ele><time>2026-04-18T13:03:49.744Z</time></trkpt><trkpt lat="43.3802133" lon="10.6460283"><ele>201.0</ele><time>2026-04-18T13:03:50.747Z</time></trkpt><trkpt lat="43.38035" lon="10.6460033"><ele>201.0</ele><time>2026-04-18T13:03:51.742Z</time></trkpt><trkpt lat="43.3804667" lon="10.6459817"><ele>201.0</ele><time>2026-04-18T13:03:52.743Z</time></trkpt><trkpt lat="43.3805833" lon="10.6459633"><ele>201.0</ele><time>2026-04-18T13:03:53.746Z</time></trkpt><trkpt lat="43.3806833" lon="10.64596"><ele>201.0</ele><time>2026-04-18T13:03:54.748Z</time></trkpt><trkpt lat="43.38078" lon="10.6458983"><ele>201.0</ele><time>2026-04-18T13:03:55.745Z</time></trkpt><trkpt lat="43.380865" lon="10.6458267"><ele>199.60000000000002</ele><time>2026-04-18T13:03:56.748Z</time></trkpt><trkpt lat="43.3809383" lon="10.6457183"><ele>198.2</ele><time>2026-04-18T13:03:57.749Z</time></trkpt><trkpt lat="43.3810033" lon="10.645595"><ele>196.8</ele><time>2026-04-18T13:03:58.75Z</time></trkpt><trkpt lat="43.3810533" lon="10.6454783"><ele>195.39999999999998</ele><time>2026-04-18T13:03:59.744Z</time></trkpt><trkpt lat="43.3811033" lon="10.645395"><ele>194.0</ele><time>2026-04-18T13:04:00.746Z</time></trkpt><trkpt lat="43.381195" lon="10.6453383"><ele>194.00000000000003</ele><time>2026-04-18T13:04:02.744Z</time></trkpt><trkpt lat="43.381285" lon="10.6454167"><ele>194.0</ele><time>2026-04-18T13:04:04.744Z</time></trkpt><trkpt lat="43.3813483" lon="10.645475"><ele>194.0</ele><time>2026-04-18T13:04:05.749Z</time></trkpt><trkpt lat="43.3814233" lon="10.645525"><ele>194.0</ele><time>2026-04-18T13:04:06.746Z</time></trkpt><trkpt lat="43.3815083" lon="10.6455567"><ele>194.00000000000003</ele><time>2026-04-18T13:04:07.747Z</time></trkpt><trkpt lat="43.3815933" lon="10.6455667"><ele>194.0</ele><time>2026-04-18T13:04:08.747Z</time></trkpt><trkpt lat="43.38167" lon="10.6455533"><ele>193.79999999999998</ele><time>2026-04-18T13:04:09.747Z</time></trkpt><trkpt lat="43.3817483" lon="10.6455033"><ele>193.6</ele><time>2026-04-18T13:04:10.742Z</time></trkpt><trkpt lat="43.3818233" lon="10.6454367"><ele>193.4</ele><time>2026-04-18T13:04:11.744Z</time></trkpt><trkpt lat="43.3819017" lon="10.64533"><ele>193.2</ele><time>2026-04-18T13:04:12.741Z</time></trkpt><trkpt lat="43.38197" lon="10.6451967"><ele>193.0</ele><time>2026-04-18T13:04:13.742Z</time></trkpt><trkpt lat="43.382035" lon="10.64509"><ele>195.60000000000002</ele><time>2026-04-18T13:04:14.745Z</time></trkpt><trkpt lat="43.3821017" lon="10.6450033"><ele>198.20000000000002</ele><time>2026-04-18T13:04:15.749Z</time></trkpt><trkpt lat="43.382185" lon="10.644935"><ele>200.8</ele><time>2026-04-18T13:04:16.74Z</time></trkpt><trkpt lat="43.38228" lon="10.644885"><ele>203.4</ele><time>2026-04-18T13:04:17.743Z</time></trkpt><trkpt lat="43.3823783" lon="10.64483"><ele>206.0</ele><time>2026-04-18T13:04:18.747Z</time></trkpt><trkpt lat="43.3824783" lon="10.64477"><ele>206.4</ele><time>2026-04-18T13:04:19.746Z</time></trkpt><trkpt lat="43.3825717" lon="10.6446883"><ele>206.8</ele><time>2026-04-18T13:04:20.749Z</time></trkpt><trkpt lat="43.38265" lon="10.6445883"><ele>207.20000000000002</ele><time>2026-04-18T13:04:21.744Z</time></trkpt><trkpt lat="43.3827033" lon="10.64447"><ele>207.60000000000002</ele><time>2026-04-18T13:04:22.749Z</time></trkpt><trkpt lat="43.3827517" lon="10.6443333"><ele>208.0</ele><time>2026-04-18T13:04:23.748Z</time></trkpt><trkpt lat="43.3827933" lon="10.6441783"><ele>209.4</ele><time>2026-04-18T13:04:24.751Z</time></trkpt><trkpt lat="43.3828367" lon="10.64403"><ele>210.8</ele><time>2026-04-18T13:04:25.744Z</time></trkpt><trkpt lat="43.3828933" lon="10.643915"><ele>212.2</ele><time>2026-04-18T13:04:26.751Z</time></trkpt><trkpt lat="43.38296" lon="10.643835"><ele>213.6</ele><time>2026-04-18T13:04:27.745Z</time></trkpt><trkpt lat="43.3830233" lon="10.6437767"><ele>215.0</ele><time>2026-04-18T13:04:28.747Z</time></trkpt><trkpt lat="43.383095" lon="10.643745"><ele>215.0</ele><time>2026-04-18T13:04:29.745Z</time></trkpt><trkpt lat="43.3831733" lon="10.64371"><ele>215.0</ele><time>2026-04-18T13:04:30.748Z</time></trkpt><trkpt lat="43.3832583" lon="10.643675"><ele>215.0</ele><time>2026-04-18T13:04:31.75Z</time></trkpt><trkpt lat="43.3833367" lon="10.6436133"><ele>215.0</ele><time>2026-04-18T13:04:32.75Z</time></trkpt><trkpt lat="43.383405" lon="10.6435233"><ele>215.0</ele><time>2026-04-18T13:04:33.746Z</time></trkpt><trkpt lat="43.3834833" lon="10.643425"><ele>217.8</ele><time>2026-04-18T13:04:34.744Z</time></trkpt><trkpt lat="43.3835633" lon="10.6433333"><ele>220.6</ele><time>2026-04-18T13:04:35.75Z</time></trkpt><trkpt lat="43.3836283" lon="10.6432333"><ele>223.39999999999998</ele><time>2026-04-18T13:04:36.749Z</time></trkpt><trkpt lat="43.383685" lon="10.643105"><ele>226.2</ele><time>2026-04-18T13:04:37.749Z</time></trkpt><trkpt lat="43.3837417" lon="10.64297"><ele>229.0</ele><time>2026-04-18T13:04:38.748Z</time></trkpt><trkpt lat="43.3837983" lon="10.6428533"><ele>230.6</ele><time>2026-04-18T13:04:39.754Z</time></trkpt><trkpt lat="43.3838683" lon="10.642765"><ele>232.2</ele><time>2026-04-18T13:04:40.746Z</time></trkpt><trkpt lat="43.3839633" lon="10.6426967"><ele>233.79999999999998</ele><time>2026-04-18T13:04:41.745Z</time></trkpt><trkpt lat="43.3840483" lon="10.6426283"><ele>235.39999999999998</ele><time>2026-04-18T13:04:42.745Z</time></trkpt><trkpt lat="43.3841267" lon="10.6425667"><ele>237.0</ele><time>2026-04-18T13:04:43.747Z</time></trkpt><trkpt lat="43.3842" lon="10.6424933"><ele>237.0</ele><time>2026-04-18T13:04:44.744Z</time></trkpt><trkpt lat="43.3842683" lon="10.6424033"><ele>237.0</ele><time>2026-04-18T13:04:45.743Z</time></trkpt><trkpt lat="43.3843417" lon="10.6423217"><ele>237.0</ele><time>2026-04-18T13:04:46.751Z</time></trkpt><trkpt lat="43.384435" lon="10.6422417"><ele>237.0</ele><time>2026-04-18T13:04:47.746Z</time></trkpt><trkpt lat="43.3845483" lon="10.64215"><ele>237.0</ele><time>2026-04-18T13:04:48.749Z</time></trkpt><trkpt lat="43.3846783" lon="10.64203"><ele>239.66666666666669</ele><time>2026-04-18T13:04:49.747Z</time></trkpt><trkpt lat="43.38481" lon="10.6418867"><ele>242.33333333333334</ele><time>2026-04-18T13:04:50.746Z</time></trkpt><trkpt lat="43.384935" lon="10.6417667"><ele>245.0</ele><time>2026-04-18T13:04:51.746Z</time></trkpt><trkpt lat="43.3850567" lon="10.6416517"><ele>245.0</ele><time>2026-04-18T13:04:52.744Z</time></trkpt><trkpt lat="43.3851733" lon="10.6415333"><ele>245.0</ele><time>2026-04-18T13:04:53.743Z</time></trkpt><trkpt lat="43.385275" lon="10.6414467"><ele>245.0</ele><time>2026-04-18T13:04:54.744Z</time></trkpt><trkpt lat="43.3853467" lon="10.6413883"><ele>245.0</ele><time>2026-04-18T13:04:55.748Z</time></trkpt><trkpt lat="43.3854133" lon="10.64136"><ele>245.0</ele><time>2026-04-18T13:04:56.746Z</time></trkpt><trkpt lat="43.3855233" lon="10.6413767"><ele>247.0</ele><time>2026-04-18T13:04:58.747Z</time></trkpt><trkpt lat="43.3856417" lon="10.6414817"><ele>249.0</ele><time>2026-04-18T13:05:00.744Z</time></trkpt><trkpt lat="43.3857017" lon="10.6415917"><ele>251.0</ele><time>2026-04-18T13:05:01.743Z</time></trkpt><trkpt lat="43.385755" lon="10.6417183"><ele>253.0</ele><time>2026-04-18T13:05:02.752Z</time></trkpt><trkpt lat="43.3857617" lon="10.641895"><ele>252.75</ele><time>2026-04-18T13:05:03.745Z</time></trkpt><trkpt lat="43.3857667" lon="10.6420533"><ele>252.5</ele><time>2026-04-18T13:05:04.745Z</time></trkpt><trkpt lat="43.38578" lon="10.6422367"><ele>252.25</ele><time>2026-04-18T13:05:05.745Z</time></trkpt><trkpt lat="43.3857583" lon="10.6424067"><ele>252.0</ele><time>2026-04-18T13:05:06.745Z</time></trkpt><trkpt lat="43.3857317" lon="10.6425483"><ele>252.0</ele><time>2026-04-18T13:05:07.746Z</time></trkpt><trkpt lat="43.385725" lon="10.64269"><ele>252.0</ele><time>2026-04-18T13:05:08.752Z</time></trkpt><trkpt lat="43.3857217" lon="10.6428167"><ele>252.0</ele><time>2026-04-18T13:05:09.751Z</time></trkpt><trkpt lat="43.3857467" lon="10.6429383"><ele>252.0</ele><time>2026-04-18T13:05:10.745Z</time></trkpt><trkpt lat="43.3857667" lon="10.6430517"><ele>252.0</ele><time>2026-04-18T13:05:11.745Z</time></trkpt><trkpt lat="43.38578" lon="10.6431517"><ele>252.0</ele><time>2026-04-18T13:05:12.745Z</time></trkpt><trkpt lat="43.385825" lon="10.6432383"><ele>252.0</ele><time>2026-04-18T13:05:13.744Z</time></trkpt><trkpt lat="43.385905" lon="10.6433533"><ele>252.0</ele><time>2026-04-18T13:05:15.743Z</time></trkpt><trkpt lat="43.3860467" lon="10.6433817"><ele>252.0</ele><time>2026-04-18T13:05:17.749Z</time></trkpt><trkpt lat="43.3861383" lon="10.6433933"><ele>252.0</ele><time>2026-04-18T13:05:18.75Z</time></trkpt><trkpt lat="43.386245" lon="10.6434217"><ele>254.0</ele><time>2026-04-18T13:05:19.747Z</time></trkpt><trkpt lat="43.386375" lon="10.643435"><ele>256.0</ele><time>2026-04-18T13:05:20.746Z</time></trkpt><trkpt lat="43.3865133" lon="10.643455"><ele>258.0</ele><time>2026-04-18T13:05:21.745Z</time></trkpt><trkpt lat="43.3866567" lon="10.6434867"><ele>260.0</ele><time>2026-04-18T13:05:22.745Z</time></trkpt><trkpt lat="43.3868117" lon="10.64351"><ele>260.0</ele><time>2026-04-18T13:05:23.748Z</time></trkpt><trkpt lat="43.3869667" lon="10.64354"><ele>260.0</ele><time>2026-04-18T13:05:24.746Z</time></trkpt><trkpt lat="43.3871183" lon="10.6435567"><ele>260.0</ele><time>2026-04-18T13:05:25.75Z</time></trkpt><trkpt lat="43.38725" lon="10.6435867"><ele>260.0</ele><time>2026-04-18T13:05:26.743Z</time></trkpt><trkpt lat="43.3873733" lon="10.6436433"><ele>260.2</ele><time>2026-04-18T13:05:27.745Z</time></trkpt><trkpt lat="43.3874783" lon="10.64366"><ele>260.4</ele><time>2026-04-18T13:05:28.752Z</time></trkpt><trkpt lat="43.3875517" lon="10.6437"><ele>260.6</ele><time>2026-04-18T13:05:29.75Z</time></trkpt><trkpt lat="43.3876367" lon="10.64367"><ele>260.8</ele><time>2026-04-18T13:05:31.745Z</time></trkpt><trkpt lat="43.38766" lon="10.6435017"><ele>261.0</ele><time>2026-04-18T13:05:33.742Z</time></trkpt><trkpt lat="43.38766" lon="10.643375"><ele>263.0</ele><time>2026-04-18T13:05:34.741Z</time></trkpt><trkpt lat="43.3876867" lon="10.643225"><ele>265.0</ele><time>2026-04-18T13:05:35.747Z</time></trkpt><trkpt lat="43.3876867" lon="10.6430533"><ele>267.0</ele><time>2026-04-18T13:05:36.744Z</time></trkpt><trkpt lat="43.3877217" lon="10.6428483"><ele>269.0</ele><time>2026-04-18T13:05:37.749Z</time></trkpt><trkpt lat="43.38772" lon="10.6426467"><ele>270.2</ele><time>2026-04-18T13:05:38.748Z</time></trkpt><trkpt lat="43.3877317" lon="10.642465"><ele>271.4</ele><time>2026-04-18T13:05:39.747Z</time></trkpt><trkpt lat="43.3877383" lon="10.64232"><ele>272.6</ele><time>2026-04-18T13:05:40.746Z</time></trkpt><trkpt lat="43.3877633" lon="10.642195"><ele>273.8</ele><time>2026-04-18T13:05:41.745Z</time></trkpt><trkpt lat="43.38777" lon="10.6420867"><ele>275.0</ele><time>2026-04-18T13:05:42.742Z</time></trkpt><trkpt lat="43.38778" lon="10.6419967"><ele>275.8</ele><time>2026-04-18T13:05:43.74Z</time></trkpt><trkpt lat="43.3878267" lon="10.6419333"><ele>276.6</ele><time>2026-04-18T13:05:44.745Z</time></trkpt><trkpt lat="43.3879267" lon="10.6418633"><ele>277.4</ele><time>2026-04-18T13:05:46.745Z</time></trkpt><trkpt lat="43.3880033" lon="10.6418767"><ele>278.2</ele><time>2026-04-18T13:05:47.744Z</time></trkpt><trkpt lat="43.38812" lon="10.6419283"><ele>279.0</ele><time>2026-04-18T13:05:48.745Z</time></trkpt><trkpt lat="43.3882617" lon="10.64197"><ele>281.0</ele><time>2026-04-18T13:05:49.746Z</time></trkpt><trkpt lat="43.3884233" lon="10.6420033"><ele>283.0</ele><time>2026-04-18T13:05:50.743Z</time></trkpt><trkpt lat="43.3885133" lon="10.6421233"><ele>285.0</ele><time>2026-04-18T13:05:51.747Z</time></trkpt><trkpt lat="43.3886283" lon="10.6421283"><ele>287.0</ele><time>2026-04-18T13:05:52.745Z</time></trkpt><trkpt lat="43.388735" lon="10.6421117"><ele>288.75</ele><time>2026-04-18T13:05:53.744Z</time></trkpt><trkpt lat="43.3888467" lon="10.6420883"><ele>290.5</ele><time>2026-04-18T13:05:54.743Z</time></trkpt><trkpt lat="43.3889683" lon="10.6420517"><ele>292.25</ele><time>2026-04-18T13:05:55.742Z</time></trkpt><trkpt lat="43.389115" lon="10.6420233"><ele>294.0</ele><time>2026-04-18T13:05:56.744Z</time></trkpt><trkpt lat="43.389255" lon="10.6419617"><ele>297.75</ele><time>2026-04-18T13:05:57.746Z</time></trkpt><trkpt lat="43.3894233" lon="10.6419467"><ele>301.5</ele><time>2026-04-18T13:05:58.747Z</time></trkpt><trkpt lat="43.3895783" lon="10.6419483"><ele>305.25</ele><time>2026-04-18T13:05:59.748Z</time></trkpt><trkpt lat="43.389675" lon="10.641905"><ele>309.0</ele><time>2026-04-18T13:06:00.748Z</time></trkpt><trkpt lat="43.3897467" lon="10.6418333"><ele>310.25</ele><time>2026-04-18T13:06:01.746Z</time></trkpt><trkpt lat="43.38981" lon="10.6418033"><ele>311.5</ele><time>2026-04-18T13:06:02.746Z</time></trkpt><trkpt lat="43.389955" lon="10.6418317"><ele>312.75</ele><time>2026-04-18T13:06:03.745Z</time></trkpt><trkpt lat="43.3901383" lon="10.6418983"><ele>314.0</ele><time>2026-04-18T13:06:04.743Z</time></trkpt><trkpt lat="43.390285" lon="10.6419817"><ele>314.0</ele><time>2026-04-18T13:06:05.742Z</time></trkpt><trkpt lat="43.390345" lon="10.641945"><ele>314.0</ele><time>2026-04-18T13:06:06.747Z</time></trkpt><trkpt lat="43.3905033" lon="10.6420117"><ele>314.0</ele><time>2026-04-18T13:06:07.744Z</time></trkpt><trkpt lat="43.3906133" lon="10.6420533"><ele>314.0</ele><time>2026-04-18T13:06:08.745Z</time></trkpt><trkpt lat="43.390695" lon="10.6420317"><ele>314.0</ele><time>2026-04-18T13:06:09.742Z</time></trkpt><trkpt lat="43.3907833" lon="10.6419733"><ele>314.59999999999997</ele><time>2026-04-18T13:06:10.742Z</time></trkpt><trkpt lat="43.3908683" lon="10.641915"><ele>315.2</ele><time>2026-04-18T13:06:11.742Z</time></trkpt><trkpt lat="43.3909667" lon="10.6418717"><ele>315.79999999999995</ele><time>2026-04-18T13:06:12.745Z</time></trkpt><trkpt lat="43.3910417" lon="10.641795"><ele>316.4</ele><time>2026-04-18T13:06:13.748Z</time></trkpt><trkpt lat="43.3911333" lon="10.6417583"><ele>317.0</ele><time>2026-04-18T13:06:14.749Z</time></trkpt><trkpt lat="43.3912283" lon="10.6417533"><ele>317.0</ele><time>2026-04-18T13:06:15.746Z</time></trkpt><trkpt lat="43.391305" lon="10.6418317"><ele>317.0</ele><time>2026-04-18T13:06:16.745Z</time></trkpt><trkpt lat="43.39136" lon="10.6419017"><ele>317.0</ele><time>2026-04-18T13:06:17.745Z</time></trkpt><trkpt lat="43.3914333" lon="10.64196"><ele>317.0</ele><time>2026-04-18T13:06:18.743Z</time></trkpt><trkpt lat="43.3915217" lon="10.6419767"><ele>317.0</ele><time>2026-04-18T13:06:19.745Z</time></trkpt><trkpt lat="43.39163" lon="10.6419733"><ele>317.75</ele><time>2026-04-18T13:06:20.744Z</time></trkpt><trkpt lat="43.3917483" lon="10.641985"><ele>318.5</ele><time>2026-04-18T13:06:21.744Z</time></trkpt><trkpt lat="43.3918833" lon="10.641955"><ele>319.25</ele><time>2026-04-18T13:06:22.742Z</time></trkpt><trkpt lat="43.3920333" lon="10.6419633"><ele>320.0</ele><time>2026-04-18T13:06:23.744Z</time></trkpt><trkpt lat="43.3921717" lon="10.6419617"><ele>322.0</ele><time>2026-04-18T13:06:24.749Z</time></trkpt><trkpt lat="43.3922917" lon="10.6419617"><ele>324.0</ele><time>2026-04-18T13:06:25.748Z</time></trkpt><trkpt lat="43.3923767" lon="10.641905"><ele>326.0</ele><time>2026-04-18T13:06:26.745Z</time></trkpt><trkpt lat="43.3924617" lon="10.641875"><ele>328.0</ele><time>2026-04-18T13:06:27.747Z</time></trkpt><trkpt lat="43.3925417" lon="10.641825"><ele>330.0</ele><time>2026-04-18T13:06:28.744Z</time></trkpt><trkpt lat="43.3925933" lon="10.6417283"><ele>330.0</ele><time>2026-04-18T13:06:29.743Z</time></trkpt><trkpt lat="43.3926317" lon="10.6416117"><ele>330.0</ele><time>2026-04-18T13:06:30.747Z</time></trkpt><trkpt lat="43.392685" lon="10.6414717"><ele>330.0</ele><time>2026-04-18T13:06:31.742Z</time></trkpt><trkpt lat="43.3927083" lon="10.6413017"><ele>330.0</ele><time>2026-04-18T13:06:32.749Z</time></trkpt><trkpt lat="43.392705" lon="10.6411167"><ele>332.25</ele><time>2026-04-18T13:06:33.746Z</time></trkpt><trkpt lat="43.3928133" lon="10.64092"><ele>334.5</ele><time>2026-04-18T13:06:34.744Z</time></trkpt><trkpt lat="43.392835" lon="10.6407517"><ele>336.75</ele><time>2026-04-18T13:06:35.743Z</time></trkpt><trkpt lat="43.39286" lon="10.6406167"><ele>339.0</ele><time>2026-04-18T13:06:36.741Z</time></trkpt><trkpt lat="43.3929317" lon="10.6404967"><ele>339.0</ele><time>2026-04-18T13:06:37.742Z</time></trkpt><trkpt lat="43.3929767" lon="10.640415"><ele>339.0</ele><time>2026-04-18T13:06:38.749Z</time></trkpt><trkpt lat="43.3930367" lon="10.6403"><ele>339.0</ele><time>2026-04-18T13:06:40.744Z</time></trkpt><trkpt lat="43.393135" lon="10.6403117"><ele>339.0</ele><time>2026-04-18T13:06:41.743Z</time></trkpt><trkpt lat="43.39321" lon="10.6403533"><ele>339.0</ele><time>2026-04-18T13:06:42.745Z</time></trkpt><trkpt lat="43.3933183" lon="10.64046"><ele>342.6666666666667</ele><time>2026-04-18T13:06:44.75Z</time></trkpt><trkpt lat="43.3934467" lon="10.6406317"><ele>346.33333333333337</ele><time>2026-04-18T13:06:45.746Z</time></trkpt><trkpt lat="43.3935583" lon="10.6407917"><ele>350.0</ele><time>2026-04-18T13:06:46.749Z</time></trkpt><trkpt lat="43.39365" lon="10.6409483"><ele>350.0</ele><time>2026-04-18T13:06:47.747Z</time></trkpt><trkpt lat="43.3937217" lon="10.64108"><ele>350.0</ele><time>2026-04-18T13:06:48.746Z</time></trkpt><trkpt lat="43.3937833" lon="10.6411717"><ele>350.0</ele><time>2026-04-18T13:06:49.743Z</time></trkpt><trkpt lat="43.3938467" lon="10.6412267"><ele>350.0</ele><time>2026-04-18T13:06:50.742Z</time></trkpt><trkpt lat="43.3939117" lon="10.6412567"><ele>350.0</ele><time>2026-04-18T13:06:51.744Z</time></trkpt><trkpt lat="43.3939867" lon="10.6412817"><ele>350.0</ele><time>2026-04-18T13:06:52.745Z</time></trkpt><trkpt lat="43.3940767" lon="10.641295"><ele>351.0</ele><time>2026-04-18T13:06:53.749Z</time></trkpt><trkpt lat="43.3941917" lon="10.64127"><ele>352.0</ele><time>2026-04-18T13:06:54.745Z</time></trkpt><trkpt lat="43.3943383" lon="10.6412267"><ele>353.0</ele><time>2026-04-18T13:06:55.747Z</time></trkpt><trkpt lat="43.39449" lon="10.64118"><ele>354.0</ele><time>2026-04-18T13:06:56.744Z</time></trkpt><trkpt lat="43.3946367" lon="10.6411417"><ele>361.6666666666667</ele><time>2026-04-18T13:06:57.744Z</time></trkpt><trkpt lat="43.3947883" lon="10.6410983"><ele>369.33333333333337</ele><time>2026-04-18T13:06:58.742Z</time></trkpt><trkpt lat="43.3949467" lon="10.6410467"><ele>377.0</ele><time>2026-04-18T13:06:59.743Z</time></trkpt><trkpt lat="43.3951183" lon="10.6410117"><ele>377.0</ele><time>2026-04-18T13:07:00.748Z</time></trkpt><trkpt lat="43.3952967" lon="10.6409917"><ele>377.0</ele><time>2026-04-18T13:07:01.75Z</time></trkpt><trkpt lat="43.3954733" lon="10.6409733"><ele>377.0</ele><time>2026-04-18T13:07:02.747Z</time></trkpt><trkpt lat="43.39564" lon="10.6409483"><ele>377.25</ele><time>2026-04-18T13:07:03.745Z</time></trkpt><trkpt lat="43.3957883" lon="10.6409333"><ele>377.5</ele><time>2026-04-18T13:07:04.745Z</time></trkpt><trkpt lat="43.3959233" lon="10.6409217"><ele>377.75</ele><time>2026-04-18T13:07:05.744Z</time></trkpt><trkpt lat="43.396045" lon="10.6409067"><ele>378.0</ele><time>2026-04-18T13:07:06.744Z</time></trkpt><trkpt lat="43.3961733" lon="10.6408717"><ele>378.0</ele><time>2026-04-18T13:07:07.745Z</time></trkpt><trkpt lat="43.3962983" lon="10.6408217"><ele>378.0</ele><time>2026-04-18T13:07:08.744Z</time></trkpt><trkpt lat="43.39642" lon="10.6407717"><ele>378.0</ele><time>2026-04-18T13:07:09.744Z</time></trkpt><trkpt lat="43.3965333" lon="10.6407267"><ele>378.0</ele><time>2026-04-18T13:07:10.743Z</time></trkpt><trkpt lat="43.396635" lon="10.6407017"><ele>377.25</ele><time>2026-04-18T13:07:11.742Z</time></trkpt><trkpt lat="43.3967283" lon="10.6407017"><ele>376.5</ele><time>2026-04-18T13:07:12.743Z</time></trkpt><trkpt lat="43.396845" lon="10.6407283"><ele>375.75</ele><time>2026-04-18T13:07:13.743Z</time></trkpt><trkpt lat="43.39697" lon="10.6407783"><ele>375.0</ele><time>2026-04-18T13:07:14.743Z</time></trkpt><trkpt lat="43.3970733" lon="10.6408217"><ele>375.25</ele><time>2026-04-18T13:07:15.746Z</time></trkpt><trkpt lat="43.3971867" lon="10.64086"><ele>375.5</ele><time>2026-04-18T13:07:16.746Z</time></trkpt><trkpt lat="43.3973017" lon="10.64089"><ele>375.75</ele><time>2026-04-18T13:07:17.746Z</time></trkpt><trkpt lat="43.3974133" lon="10.6409117"><ele>376.0</ele><time>2026-04-18T13:07:18.744Z</time></trkpt><trkpt lat="43.3975383" lon="10.6409133"><ele>376.0</ele><time>2026-04-18T13:07:19.744Z</time></trkpt><trkpt lat="43.39766" lon="10.6408933"><ele>376.0</ele><time>2026-04-18T13:07:20.747Z</time></trkpt><trkpt lat="43.397785" lon="10.6408467"><ele>376.0</ele><time>2026-04-18T13:07:21.746Z</time></trkpt><trkpt lat="43.3979117" lon="10.6407717"><ele>376.0</ele><time>2026-04-18T13:07:22.744Z</time></trkpt><trkpt lat="43.398025" lon="10.64069"><ele>376.5</ele><time>2026-04-18T13:07:23.741Z</time></trkpt><trkpt lat="43.3981467" lon="10.6406167"><ele>377.0</ele><time>2026-04-18T13:07:24.746Z</time></trkpt><trkpt lat="43.3982767" lon="10.6405717"><ele>377.5</ele><time>2026-04-18T13:07:25.742Z</time></trkpt><trkpt lat="43.3984167" lon="10.6405567"><ele>378.0</ele><time>2026-04-18T13:07:26.745Z</time></trkpt><trkpt lat="43.3985583" lon="10.6405433"><ele>378.0</ele><time>2026-04-18T13:07:27.743Z</time></trkpt><trkpt lat="43.3986967" lon="10.640545"><ele>378.0</ele><time>2026-04-18T13:07:28.742Z</time></trkpt><trkpt lat="43.398835" lon="10.6405633"><ele>378.0</ele><time>2026-04-18T13:07:29.744Z</time></trkpt><trkpt lat="43.3989817" lon="10.640605"><ele>378.0</ele><time>2026-04-18T13:07:30.745Z</time></trkpt><trkpt lat="43.3991183" lon="10.64066"><ele>380.0</ele><time>2026-04-18T13:07:31.748Z</time></trkpt><trkpt lat="43.3992417" lon="10.640715"><ele>382.0</ele><time>2026-04-18T13:07:32.749Z</time></trkpt><trkpt lat="43.3993517" lon="10.6407883"><ele>384.0</ele><time>2026-04-18T13:07:33.747Z</time></trkpt><trkpt lat="43.3994517" lon="10.640875"><ele>386.0</ele><time>2026-04-18T13:07:34.745Z</time></trkpt><trkpt lat="43.39954" lon="10.6409583"><ele>385.99999999999994</ele><time>2026-04-18T13:07:35.747Z</time></trkpt><trkpt lat="43.3996183" lon="10.6410267"><ele>386.0</ele><time>2026-04-18T13:07:36.744Z</time></trkpt><trkpt lat="43.39969" lon="10.64107"><ele>386.0</ele><time>2026-04-18T13:07:37.747Z</time></trkpt><trkpt lat="43.3997533" lon="10.6410917"><ele>386.0</ele><time>2026-04-18T13:07:38.751Z</time></trkpt><trkpt lat="43.399845" lon="10.6410667"><ele>385.99999999999994</ele><time>2026-04-18T13:07:40.742Z</time></trkpt><trkpt lat="43.3999067" lon="10.6410317"><ele>386.0</ele><time>2026-04-18T13:07:43.747Z</time></trkpt><trkpt lat="43.3997967" lon="10.64098"><ele>385.99999999999994</ele><time>2026-04-18T13:08:28.742Z</time></trkpt><trkpt lat="43.39974" lon="10.640935"><ele>386.0</ele><time>2026-04-18T13:08:29.745Z</time></trkpt><trkpt lat="43.3996867" lon="10.6408417"><ele>386.0</ele><time>2026-04-18T13:08:30.743Z</time></trkpt><trkpt lat="43.39963" lon="10.640775"><ele>386.0</ele><time>2026-04-18T13:08:31.746Z</time></trkpt><trkpt lat="43.3995733" lon="10.6406833"><ele>385.99999999999994</ele><time>2026-04-18T13:08:32.746Z</time></trkpt><trkpt lat="43.3995383" lon="10.6405683"><ele>386.0</ele><time>2026-04-18T13:08:33.741Z</time></trkpt><trkpt lat="43.39954" lon="10.6404283"><ele>388.20000000000005</ele><time>2026-04-18T13:08:34.742Z</time></trkpt><trkpt lat="43.399555" lon="10.6402933"><ele>390.40000000000003</ele><time>2026-04-18T13:08:35.745Z</time></trkpt><trkpt lat="43.3995567" lon="10.6401583"><ele>392.6</ele><time>2026-04-18T13:08:36.743Z</time></trkpt><trkpt lat="43.3995217" lon="10.6400233"><ele>394.8</ele><time>2026-04-18T13:08:37.746Z</time></trkpt><trkpt lat="43.39949" lon="10.6398567"><ele>397.0</ele><time>2026-04-18T13:08:38.747Z</time></trkpt><trkpt lat="43.3994883" lon="10.6396933"><ele>397.0</ele><time>2026-04-18T13:08:39.748Z</time></trkpt><trkpt lat="43.3995117" lon="10.6395467"><ele>397.0</ele><time>2026-04-18T13:08:40.744Z</time></trkpt><trkpt lat="43.399445" lon="10.6393817"><ele>397.0</ele><time>2026-04-18T13:08:41.741Z</time></trkpt><trkpt lat="43.399385" lon="10.639215"><ele>397.0</ele><time>2026-04-18T13:08:42.741Z</time></trkpt><trkpt lat="43.3993017" lon="10.6390383"><ele>400.75</ele><time>2026-04-18T13:08:43.742Z</time></trkpt><trkpt lat="43.3992" lon="10.638885"><ele>404.5</ele><time>2026-04-18T13:08:44.742Z</time></trkpt><trkpt lat="43.3991183" lon="10.6387517"><ele>408.25</ele><time>2026-04-18T13:08:45.745Z</time></trkpt><trkpt lat="43.3990283" lon="10.6386317"><ele>412.0</ele><time>2026-04-18T13:08:46.742Z</time></trkpt><trkpt lat="43.3989433" lon="10.6385217"><ele>414.40000000000003</ele><time>2026-04-18T13:08:47.75Z</time></trkpt><trkpt lat="43.3988917" lon="10.638395"><ele>416.8</ele><time>2026-04-18T13:08:48.743Z</time></trkpt><trkpt lat="43.3988733" lon="10.6382633"><ele>419.2</ele><time>2026-04-18T13:08:49.748Z</time></trkpt><trkpt lat="43.3988483" lon="10.6381067"><ele>421.6</ele><time>2026-04-18T13:08:50.745Z</time></trkpt><trkpt lat="43.398875" lon="10.6379767"><ele>424.0</ele><time>2026-04-18T13:08:51.745Z</time></trkpt><trkpt lat="43.3988783" lon="10.6378283"><ele>424.75</ele><time>2026-04-18T13:08:52.744Z</time></trkpt><trkpt lat="43.398875" lon="10.63769"><ele>425.5</ele><time>2026-04-18T13:08:53.745Z</time></trkpt><trkpt lat="43.3988333" lon="10.6375333"><ele>426.25</ele><time>2026-04-18T13:08:54.744Z</time></trkpt><trkpt lat="43.3987917" lon="10.6373617"><ele>427.0</ele><time>2026-04-18T13:08:55.74Z</time></trkpt><trkpt lat="43.3987583" lon="10.6372167"><ele>428.0</ele><time>2026-04-18T13:08:56.746Z</time></trkpt><trkpt lat="43.3986967" lon="10.63708"><ele>429.00000000000006</ele><time>2026-04-18T13:08:57.743Z</time></trkpt><trkpt lat="43.3986533" lon="10.6369733"><ele>430.00000000000006</ele><time>2026-04-18T13:08:58.744Z</time></trkpt><trkpt lat="43.3985933" lon="10.6368867"><ele>431.0</ele><time>2026-04-18T13:08:59.741Z</time></trkpt><trkpt lat="43.3985333" lon="10.63679"><ele>432.0</ele><time>2026-04-18T13:09:00.744Z</time></trkpt><trkpt lat="43.398405" lon="10.636725"><ele>434.75</ele><time>2026-04-18T13:09:01.744Z</time></trkpt><trkpt lat="43.3982967" lon="10.6366167"><ele>437.5</ele><time>2026-04-18T13:09:02.744Z</time></trkpt><trkpt lat="43.398165" lon="10.636535"><ele>440.25</ele><time>2026-04-18T13:09:03.745Z</time></trkpt><trkpt lat="43.39805" lon="10.6364433"><ele>443.0</ele><time>2026-04-18T13:09:04.743Z</time></trkpt><trkpt lat="43.3979567" lon="10.636365"><ele>444.0</ele><time>2026-04-18T13:09:05.744Z</time></trkpt><trkpt lat="43.3978817" lon="10.6362917"><ele>444.99999999999994</ele><time>2026-04-18T13:09:06.745Z</time></trkpt><trkpt lat="43.3978067" lon="10.6361933"><ele>445.99999999999994</ele><time>2026-04-18T13:09:07.742Z</time></trkpt><trkpt lat="43.3977317" lon="10.63608"><ele>447.0</ele><time>2026-04-18T13:09:08.745Z</time></trkpt><trkpt lat="43.397655" lon="10.6359383"><ele>448.0</ele><time>2026-04-18T13:09:09.746Z</time></trkpt><trkpt lat="43.3975667" lon="10.63578"><ele>450.5</ele><time>2026-04-18T13:09:10.742Z</time></trkpt><trkpt lat="43.3974917" lon="10.635635"><ele>453.0</ele><time>2026-04-18T13:09:11.744Z</time></trkpt><trkpt lat="43.39743" lon="10.6355"><ele>455.5</ele><time>2026-04-18T13:09:12.743Z</time></trkpt><trkpt lat="43.3973867" lon="10.6353667"><ele>458.0</ele><time>2026-04-18T13:09:13.749Z</time></trkpt><trkpt lat="43.3973567" lon="10.63522"><ele>460.5</ele><time>2026-04-18T13:09:14.754Z</time></trkpt><trkpt lat="43.3973433" lon="10.63504"><ele>463.0</ele><time>2026-04-18T13:09:15.746Z</time></trkpt><trkpt lat="43.3973417" lon="10.63484"><ele>465.5</ele><time>2026-04-18T13:09:16.744Z</time></trkpt><trkpt lat="43.39734" lon="10.6346467"><ele>468.0</ele><time>2026-04-18T13:09:17.745Z</time></trkpt><trkpt lat="43.397345" lon="10.63447"><ele>468.33333333333337</ele><time>2026-04-18T13:09:18.744Z</time></trkpt><trkpt lat="43.3973617" lon="10.6342983"><ele>468.6666666666667</ele><time>2026-04-18T13:09:19.744Z</time></trkpt><trkpt lat="43.3973933" lon="10.6341"><ele>469.0</ele><time>2026-04-18T13:09:20.748Z</time></trkpt><trkpt lat="43.3974433" lon="10.6338633"><ele>468.0</ele><time>2026-04-18T13:09:21.745Z</time></trkpt><trkpt lat="43.3974983" lon="10.63361"><ele>467.0</ele><time>2026-04-18T13:09:22.743Z</time></trkpt><trkpt lat="43.3975483" lon="10.6333533"><ele>466.0</ele><time>2026-04-18T13:09:23.745Z</time></trkpt><trkpt lat="43.3975917" lon="10.6331133"><ele>466.0</ele><time>2026-04-18T13:09:24.744Z</time></trkpt><trkpt lat="43.397635" lon="10.6328867"><ele>466.0</ele><time>2026-04-18T13:09:25.75Z</time></trkpt><trkpt lat="43.397675" lon="10.6326817"><ele>466.0</ele><time>2026-04-18T13:09:26.746Z</time></trkpt><trkpt lat="43.3977133" lon="10.6324917"><ele>466.5</ele><time>2026-04-18T13:09:27.741Z</time></trkpt><trkpt lat="43.3977467" lon="10.6323167"><ele>467.0</ele><time>2026-04-18T13:09:28.742Z</time></trkpt><trkpt lat="43.3977783" lon="10.632155"><ele>467.5</ele><time>2026-04-18T13:09:29.741Z</time></trkpt><trkpt lat="43.3978083" lon="10.63201"><ele>468.0</ele><time>2026-04-18T13:09:30.745Z</time></trkpt><trkpt lat="43.397835" lon="10.631885"><ele>468.59999999999997</ele><time>2026-04-18T13:09:31.743Z</time></trkpt><trkpt lat="43.3978683" lon="10.6317617"><ele>469.19999999999993</ele><time>2026-04-18T13:09:32.751Z</time></trkpt><trkpt lat="43.3979267" lon="10.6316333"><ele>469.8</ele><time>2026-04-18T13:09:33.743Z</time></trkpt><trkpt lat="43.3979933" lon="10.631505"><ele>470.4</ele><time>2026-04-18T13:09:34.744Z</time></trkpt><trkpt lat="43.3980617" lon="10.6313617"><ele>471.0</ele><time>2026-04-18T13:09:35.744Z</time></trkpt><trkpt lat="43.398125" lon="10.6312183"><ele>472.6</ele><time>2026-04-18T13:09:36.749Z</time></trkpt><trkpt lat="43.3981717" lon="10.6310883"><ele>474.20000000000005</ele><time>2026-04-18T13:09:37.745Z</time></trkpt><trkpt lat="43.398205" lon="10.6309583"><ele>475.79999999999995</ele><time>2026-04-18T13:09:38.745Z</time></trkpt><trkpt lat="43.3982167" lon="10.6308217"><ele>477.4</ele><time>2026-04-18T13:09:39.746Z</time></trkpt><trkpt lat="43.3982117" lon="10.6306767"><ele>479.0</ele><time>2026-04-18T13:09:40.743Z</time></trkpt><trkpt lat="43.39819" lon="10.630525"><ele>479.0</ele><time>2026-04-18T13:09:41.741Z</time></trkpt><trkpt lat="43.3981567" lon="10.6303667"><ele>479.0</ele><time>2026-04-18T13:09:42.742Z</time></trkpt><trkpt lat="43.3981283" lon="10.6302033"><ele>479.0</ele><time>2026-04-18T13:09:43.743Z</time></trkpt><trkpt lat="43.3981217" lon="10.63003"><ele>479.0</ele><time>2026-04-18T13:09:44.745Z</time></trkpt><trkpt lat="43.3981283" lon="10.62984"><ele>483.0</ele><time>2026-04-18T13:09:45.746Z</time></trkpt><trkpt lat="43.39813" lon="10.6296083"><ele>487.0</ele><time>2026-04-18T13:09:46.746Z</time></trkpt><trkpt lat="43.3981333" lon="10.62935"><ele>491.0</ele><time>2026-04-18T13:09:47.744Z</time></trkpt><trkpt lat="43.3981433" lon="10.6290733"><ele>492.3333333333333</ele><time>2026-04-18T13:09:48.747Z</time></trkpt><trkpt lat="43.3981467" lon="10.6287967"><ele>493.66666666666663</ele><time>2026-04-18T13:09:49.747Z</time></trkpt><trkpt lat="43.3981517" lon="10.6285483"><ele>495.0</ele><time>2026-04-18T13:09:50.748Z</time></trkpt><trkpt lat="43.3981567" lon="10.628325"><ele>495.5</ele><time>2026-04-18T13:09:51.744Z</time></trkpt><trkpt lat="43.39816" lon="10.6281233"><ele>496.0</ele><time>2026-04-18T13:09:52.745Z</time></trkpt><trkpt lat="43.3981533" lon="10.62795"><ele>496.5</ele><time>2026-04-18T13:09:53.745Z</time></trkpt><trkpt lat="43.3981517" lon="10.6278033"><ele>497.0</ele><time>2026-04-18T13:09:54.742Z</time></trkpt><trkpt lat="43.3981417" lon="10.62767"><ele>497.8</ele><time>2026-04-18T13:09:55.742Z</time></trkpt><trkpt lat="43.39812" lon="10.6275483"><ele>498.6</ele><time>2026-04-18T13:09:56.743Z</time></trkpt><trkpt lat="43.3980817" lon="10.627435"><ele>499.40000000000003</ele><time>2026-04-18T13:09:57.743Z</time></trkpt><trkpt lat="43.3980283" lon="10.6273067"><ele>500.20000000000005</ele><time>2026-04-18T13:09:58.745Z</time></trkpt><trkpt lat="43.3979817" lon="10.6271733"><ele>501.0</ele><time>2026-04-18T13:09:59.748Z</time></trkpt><trkpt lat="43.397955" lon="10.6270533"><ele>502.6</ele><time>2026-04-18T13:10:00.747Z</time></trkpt><trkpt lat="43.3979417" lon="10.6269433"><ele>504.20000000000005</ele><time>2026-04-18T13:10:01.746Z</time></trkpt><trkpt lat="43.3979467" lon="10.6268417"><ele>505.79999999999995</ele><time>2026-04-18T13:10:02.747Z</time></trkpt><trkpt lat="43.397985" lon="10.62674"><ele>507.4</ele><time>2026-04-18T13:10:03.746Z</time></trkpt><trkpt lat="43.3980567" lon="10.6266467"><ele>509.0</ele><time>2026-04-18T13:10:04.745Z</time></trkpt><trkpt lat="43.3981567" lon="10.6265467"><ele>509.4</ele><time>2026-04-18T13:10:05.745Z</time></trkpt><trkpt lat="43.39826" lon="10.626445"><ele>509.79999999999995</ele><time>2026-04-18T13:10:06.743Z</time></trkpt><trkpt lat="43.3983583" lon="10.6263483"><ele>510.20000000000005</ele><time>2026-04-18T13:10:07.746Z</time></trkpt><trkpt lat="43.3984433" lon="10.6262683"><ele>510.6</ele><time>2026-04-18T13:10:08.752Z</time></trkpt><trkpt lat="43.3985067" lon="10.626195"><ele>511.0</ele><time>2026-04-18T13:10:09.745Z</time></trkpt><trkpt lat="43.3985583" lon="10.6261083"><ele>512.8333333333334</ele><time>2026-04-18T13:10:10.743Z</time></trkpt><trkpt lat="43.3985867" lon="10.6260267"><ele>514.6666666666667</ele><time>2026-04-18T13:10:11.745Z</time></trkpt><trkpt lat="43.398585" lon="10.6259317"><ele>516.5</ele><time>2026-04-18T13:10:13.747Z</time></trkpt><trkpt lat="43.3985367" lon="10.6258217"><ele>518.3333333333334</ele><time>2026-04-18T13:10:16.742Z</time></trkpt><trkpt lat="43.3984983" lon="10.62568"><ele>520.1666666666666</ele><time>2026-04-18T13:10:18.747Z</time></trkpt><trkpt lat="43.398475" lon="10.625595"><ele>522.0</ele><time>2026-04-18T13:10:19.743Z</time></trkpt><trkpt lat="43.398455" lon="10.6255"><ele>522.0</ele><time>2026-04-18T13:10:20.745Z</time></trkpt><trkpt lat="43.3984317" lon="10.6254"><ele>522.0</ele><time>2026-04-18T13:10:21.743Z</time></trkpt><trkpt lat="43.3984" lon="10.6252883"><ele>522.0</ele><time>2026-04-18T13:10:22.746Z</time></trkpt><trkpt lat="43.3983617" lon="10.62517"><ele>522.0</ele><time>2026-04-18T13:10:23.746Z</time></trkpt><trkpt lat="43.3983217" lon="10.6250567"><ele>522.0</ele><time>2026-04-18T13:10:24.743Z</time></trkpt><trkpt lat="43.3982867" lon="10.6249567"><ele>522.0</ele><time>2026-04-18T13:10:25.748Z</time></trkpt><trkpt lat="43.3982433" lon="10.624815"><ele>523.0</ele><time>2026-04-18T13:10:27.742Z</time></trkpt><trkpt lat="43.398225" lon="10.6247167"><ele>524.0</ele><time>2026-04-18T13:10:29.745Z</time></trkpt><trkpt lat="43.3982283" lon="10.6246267"><ele>525.0</ele><time>2026-04-18T13:10:32.746Z</time></trkpt><trkpt lat="43.39817" lon="10.6245467"><ele>526.0</ele><time>2026-04-18T13:17:57.743Z</time></trkpt><trkpt lat="43.398125" lon="10.6244233"><ele>527.0</ele><time>2026-04-18T13:17:59.741Z</time></trkpt><trkpt lat="43.3980917" lon="10.6242817"><ele>528.0</ele><time>2026-04-18T13:18:01.746Z</time></trkpt><trkpt lat="43.39806" lon="10.6241233"><ele>528.5714285714286</ele><time>2026-04-18T13:18:03.749Z</time></trkpt><trkpt lat="43.3980417" lon="10.6240117"><ele>529.1428571428571</ele><time>2026-04-18T13:18:05.742Z</time></trkpt><trkpt lat="43.3980267" lon="10.6239183"><ele>529.7142857142858</ele><time>2026-04-18T13:18:07.742Z</time></trkpt><trkpt lat="43.39802" lon="10.6238183"><ele>530.2857142857142</ele><time>2026-04-18T13:18:09.747Z</time></trkpt><trkpt lat="43.3980317" lon="10.6237283"><ele>530.8571428571429</ele><time>2026-04-18T13:18:11.743Z</time></trkpt><trkpt lat="43.3980567" lon="10.623645"><ele>531.4285714285714</ele><time>2026-04-18T13:18:13.747Z</time></trkpt><trkpt lat="43.3981183" lon="10.6235517"><ele>532.0</ele><time>2026-04-18T13:18:16.743Z</time></trkpt><trkpt lat="43.3981733" lon="10.6235017"><ele>532.4</ele><time>2026-04-18T13:18:18.745Z</time></trkpt><trkpt lat="43.3982383" lon="10.623475"><ele>532.8000000000001</ele><time>2026-04-18T13:18:21.747Z</time></trkpt><trkpt lat="43.3982383" lon="10.623345"><ele>533.2</ele><time>2026-04-18T13:23:45.746Z</time></trkpt><trkpt lat="43.39829" lon="10.6231933"><ele>533.6</ele><time>2026-04-18T13:23:47.75Z</time></trkpt><trkpt lat="43.398345" lon="10.6230833"><ele>534.0</ele><time>2026-04-18T13:23:48.744Z</time></trkpt><trkpt lat="43.39839" lon="10.6229483"><ele>534.5</ele><time>2026-04-18T13:23:49.749Z</time></trkpt><trkpt lat="43.3984167" lon="10.6227983"><ele>535.0</ele><time>2026-04-18T13:23:50.742Z</time></trkpt><trkpt lat="43.3984267" lon="10.6226283"><ele>535.5</ele><time>2026-04-18T13:23:51.742Z</time></trkpt><trkpt lat="43.3984317" lon="10.6224617"><ele>536.0</ele><time>2026-04-18T13:23:52.742Z</time></trkpt><trkpt lat="43.3984417" lon="10.6223233"><ele>536.0</ele><time>2026-04-18T13:23:53.743Z</time></trkpt><trkpt lat="43.39847" lon="10.6221917"><ele>536.0</ele><time>2026-04-18T13:23:54.745Z</time></trkpt><trkpt lat="43.3985167" lon="10.62205"><ele>536.0</ele><time>2026-04-18T13:23:55.748Z</time></trkpt><trkpt lat="43.3985817" lon="10.6219133"><ele>536.0</ele><time>2026-04-18T13:23:56.745Z</time></trkpt><trkpt lat="43.3986533" lon="10.6217917"><ele>536.0</ele><time>2026-04-18T13:23:57.752Z</time></trkpt><trkpt lat="43.3987067" lon="10.6216717"><ele>536.0</ele><time>2026-04-18T13:23:58.744Z</time></trkpt><trkpt lat="43.3987383" lon="10.6215433"><ele>536.0</ele><time>2026-04-18T13:23:59.748Z</time></trkpt><trkpt lat="43.3987433" lon="10.6214067"><ele>536.0</ele><time>2026-04-18T13:24:00.743Z</time></trkpt><trkpt lat="43.39874" lon="10.6212583"><ele>536.0</ele><time>2026-04-18T13:24:01.744Z</time></trkpt><trkpt lat="43.3987433" lon="10.6211133"><ele>536.0</ele><time>2026-04-18T13:24:02.745Z</time></trkpt><trkpt lat="43.3987633" lon="10.6209667"><ele>536.25</ele><time>2026-04-18T13:24:03.743Z</time></trkpt><trkpt lat="43.3988" lon="10.6208233"><ele>536.5</ele><time>2026-04-18T13:24:04.741Z</time></trkpt><trkpt lat="43.3988617" lon="10.6206733"><ele>536.75</ele><time>2026-04-18T13:24:05.746Z</time></trkpt><trkpt lat="43.39896" lon="10.6205017"><ele>537.0</ele><time>2026-04-18T13:24:06.749Z</time></trkpt><trkpt lat="43.39906" lon="10.6203267"><ele>535.6666666666666</ele><time>2026-04-18T13:24:07.745Z</time></trkpt><trkpt lat="43.3991517" lon="10.62015"><ele>534.3333333333333</ele><time>2026-04-18T13:24:08.747Z</time></trkpt><trkpt lat="43.3992317" lon="10.61997"><ele>533.0</ele><time>2026-04-18T13:24:09.74Z</time></trkpt><trkpt lat="43.3993033" lon="10.6198"><ele>533.0</ele><time>2026-04-18T13:24:10.745Z</time></trkpt><trkpt lat="43.3993683" lon="10.6196383"><ele>533.0</ele><time>2026-04-18T13:24:11.743Z</time></trkpt><trkpt lat="43.3994167" lon="10.61948"><ele>533.0</ele><time>2026-04-18T13:24:12.748Z</time></trkpt><trkpt lat="43.3994467" lon="10.6193183"><ele>533.0</ele><time>2026-04-18T13:24:13.743Z</time></trkpt><trkpt lat="43.399465" lon="10.6191417"><ele>532.8</ele><time>2026-04-18T13:24:14.747Z</time></trkpt><trkpt lat="43.3994783" lon="10.618965"><ele>532.5999999999999</ele><time>2026-04-18T13:24:15.744Z</time></trkpt><trkpt lat="43.3994883" lon="10.618795"><ele>532.4000000000001</ele><time>2026-04-18T13:24:16.742Z</time></trkpt><trkpt lat="43.3994983" lon="10.6186483"><ele>532.2</ele><time>2026-04-18T13:24:17.746Z</time></trkpt><trkpt lat="43.3995017" lon="10.6185517"><ele>532.0</ele><time>2026-04-18T13:24:18.741Z</time></trkpt><trkpt lat="43.399515" lon="10.6184067"><ele>532.0</ele><time>2026-04-18T13:24:20.748Z</time></trkpt><trkpt lat="43.3995317" lon="10.6182133"><ele>532.0</ele><time>2026-04-18T13:24:22.744Z</time></trkpt><trkpt lat="43.3995383" lon="10.6180817"><ele>532.0</ele><time>2026-04-18T13:24:23.744Z</time></trkpt><trkpt lat="43.3995583" lon="10.6179"><ele>532.0</ele><time>2026-04-18T13:24:24.751Z</time></trkpt><trkpt lat="43.399605" lon="10.6176917"><ele>532.6666666666667</ele><time>2026-04-18T13:24:25.746Z</time></trkpt><trkpt lat="43.39966" lon="10.61746"><ele>533.3333333333334</ele><time>2026-04-18T13:24:26.749Z</time></trkpt><trkpt lat="43.39971" lon="10.6172367"><ele>534.0</ele><time>2026-04-18T13:24:27.742Z</time></trkpt><trkpt lat="43.39975" lon="10.6170617"><ele>535.6</ele><time>2026-04-18T13:24:28.742Z</time></trkpt><trkpt lat="43.3997883" lon="10.616925"><ele>537.2</ele><time>2026-04-18T13:24:29.748Z</time></trkpt><trkpt lat="43.3998233" lon="10.61682"><ele>538.8000000000001</ele><time>2026-04-18T13:24:30.744Z</time></trkpt><trkpt lat="43.3998583" lon="10.6167417"><ele>540.4</ele><time>2026-04-18T13:24:31.745Z</time></trkpt><trkpt lat="43.3999233" lon="10.6166233"><ele>542.0</ele><time>2026-04-18T13:24:33.744Z</time></trkpt><trkpt lat="43.3999683" lon="10.6165133"><ele>542.0</ele><time>2026-04-18T13:24:35.745Z</time></trkpt><trkpt lat="43.400005" lon="10.616395"><ele>542.0</ele><time>2026-04-18T13:24:37.745Z</time></trkpt><trkpt lat="43.4000667" lon="10.61626"><ele>542.0</ele><time>2026-04-18T13:24:39.743Z</time></trkpt><trkpt lat="43.40014" lon="10.6161817"><ele>542.0</ele><time>2026-04-18T13:24:41.741Z</time></trkpt><trkpt lat="43.4002417" lon="10.61615"><ele>542.0</ele><time>2026-04-18T13:24:43.741Z</time></trkpt><trkpt lat="43.4003133" lon="10.616165"><ele>542.0</ele><time>2026-04-18T13:24:45.746Z</time></trkpt><trkpt lat="43.4002467" lon="10.6161217"><ele>542.0</ele><time>2026-04-18T13:24:49.748Z</time></trkpt><trkpt lat="43.4001933" lon="10.6161683"><ele>542.0</ele><time>2026-04-18T13:24:50.745Z</time></trkpt><trkpt lat="43.4001367" lon="10.6162217"><ele>542.0</ele><time>2026-04-18T13:24:51.748Z</time></trkpt><trkpt lat="43.4000867" lon="10.6162883"><ele>542.0</ele><time>2026-04-18T13:24:52.747Z</time></trkpt><trkpt lat="43.4000467" lon="10.6163733"><ele>542.0</ele><time>2026-04-18T13:24:53.748Z</time></trkpt><trkpt lat="43.4000083" lon="10.616475"><ele>542.0</ele><time>2026-04-18T13:24:54.744Z</time></trkpt><trkpt lat="43.399975" lon="10.6165817"><ele>542.0</ele><time>2026-04-18T13:24:55.742Z</time></trkpt><trkpt lat="43.3999383" lon="10.6166817"><ele>542.0</ele><time>2026-04-18T13:24:56.741Z</time></trkpt><trkpt lat="43.3998967" lon="10.61677"><ele>542.0</ele><time>2026-04-18T13:24:57.744Z</time></trkpt><trkpt lat="43.399855" lon="10.6168567"><ele>542.0</ele><time>2026-04-18T13:24:58.748Z</time></trkpt><trkpt lat="43.3998167" lon="10.61695"><ele>542.0</ele><time>2026-04-18T13:24:59.746Z</time></trkpt><trkpt lat="43.3997717" lon="10.6170483"><ele>542.0</ele><time>2026-04-18T13:25:00.744Z</time></trkpt><trkpt lat="43.39974" lon="10.6171633"><ele>540.8000000000001</ele><time>2026-04-18T13:25:01.749Z</time></trkpt><trkpt lat="43.3997133" lon="10.6173017"><ele>539.6</ele><time>2026-04-18T13:25:02.751Z</time></trkpt><trkpt lat="43.39968" lon="10.61744"><ele>538.4000000000001</ele><time>2026-04-18T13:25:03.749Z</time></trkpt><trkpt lat="43.3996583" lon="10.6175683"><ele>537.2</ele><time>2026-04-18T13:25:04.748Z</time></trkpt><trkpt lat="43.3996233" lon="10.6176883"><ele>536.0</ele><time>2026-04-18T13:25:05.747Z</time></trkpt><trkpt lat="43.399585" lon="10.617805"><ele>535.2</ele><time>2026-04-18T13:25:06.746Z</time></trkpt><trkpt lat="43.3995533" lon="10.617925"><ele>534.4000000000001</ele><time>2026-04-18T13:25:07.744Z</time></trkpt><trkpt lat="43.3995333" lon="10.6180383"><ele>533.6</ele><time>2026-04-18T13:25:08.747Z</time></trkpt><trkpt lat="43.39953" lon="10.6181367"><ele>532.8000000000001</ele><time>2026-04-18T13:25:09.745Z</time></trkpt><trkpt lat="43.3995367" lon="10.6182967"><ele>532.0</ele><time>2026-04-18T13:25:11.75Z</time></trkpt><trkpt lat="43.3995383" lon="10.618425"><ele>532.0</ele><time>2026-04-18T13:25:13.745Z</time></trkpt><trkpt lat="43.3995533" lon="10.61851"><ele>532.0</ele><time>2026-04-18T13:25:16.743Z</time></trkpt><trkpt lat="43.3996133" lon="10.6185683"><ele>532.0</ele><time>2026-04-18T13:25:18.747Z</time></trkpt><trkpt lat="43.3997167" lon="10.6186383"><ele>532.0</ele><time>2026-04-18T13:25:20.745Z</time></trkpt><trkpt lat="43.39982" lon="10.6187233"><ele>532.0</ele><time>2026-04-18T13:25:22.744Z</time></trkpt><trkpt lat="43.3999183" lon="10.6187883"><ele>532.8333333333334</ele><time>2026-04-18T13:25:24.749Z</time></trkpt><trkpt lat="43.3999967" lon="10.61885"><ele>533.6666666666667</ele><time>2026-04-18T13:25:26.745Z</time></trkpt><trkpt lat="43.400055" lon="10.61891"><ele>534.5</ele><time>2026-04-18T13:25:39.743Z</time></trkpt><trkpt lat="43.4000033" lon="10.618845"><ele>535.3333333333334</ele><time>2026-04-18T13:25:46.743Z</time></trkpt><trkpt lat="43.3999367" lon="10.6187983"><ele>536.1666666666666</ele><time>2026-04-18T13:25:47.744Z</time></trkpt><trkpt lat="43.3998467" lon="10.6187317"><ele>537.0</ele><time>2026-04-18T13:25:48.75Z</time></trkpt><trkpt lat="43.3997633" lon="10.6186533"><ele>536.6666666666666</ele><time>2026-04-18T13:25:49.743Z</time></trkpt><trkpt lat="43.399685" lon="10.6185933"><ele>536.3333333333334</ele><time>2026-04-18T13:25:50.747Z</time></trkpt><trkpt lat="43.39962" lon="10.6185467"><ele>536.0</ele><time>2026-04-18T13:25:51.746Z</time></trkpt><trkpt lat="43.3995433" lon="10.6185583"><ele>535.6666666666667</ele><time>2026-04-18T13:25:53.745Z</time></trkpt><trkpt lat="43.3995" lon="10.6186483"><ele>535.3333333333334</ele><time>2026-04-18T13:25:55.746Z</time></trkpt><trkpt lat="43.3994733" lon="10.6187583"><ele>535.0</ele><time>2026-04-18T13:25:57.75Z</time></trkpt><trkpt lat="43.3995317" lon="10.6186983"><ele>535.3333333333334</ele><time>2026-04-18T13:33:17.743Z</time></trkpt><trkpt lat="43.3995483" lon="10.6186"><ele>535.6666666666667</ele><time>2026-04-18T13:33:19.742Z</time></trkpt><trkpt lat="43.3996067" lon="10.618565"><ele>536.0</ele><time>2026-04-18T13:33:21.743Z</time></trkpt><trkpt lat="43.399665" lon="10.61861"><ele>536.3333333333334</ele><time>2026-04-18T13:33:22.746Z</time></trkpt><trkpt lat="43.3997417" lon="10.61869"><ele>536.6666666666666</ele><time>2026-04-18T13:33:23.741Z</time></trkpt><trkpt lat="43.399825" lon="10.61874"><ele>537.0</ele><time>2026-04-18T13:33:24.743Z</time></trkpt><trkpt lat="43.3999233" lon="10.61879"><ele>537.0</ele><time>2026-04-18T13:33:25.742Z</time></trkpt><trkpt lat="43.4000433" lon="10.6188883"><ele>537.0</ele><time>2026-04-18T13:33:26.746Z</time></trkpt><trkpt lat="43.4001617" lon="10.61899"><ele>537.0</ele><time>2026-04-18T13:33:27.742Z</time></trkpt><trkpt lat="43.4002733" lon="10.61909"><ele>537.0</ele><time>2026-04-18T13:33:28.747Z</time></trkpt><trkpt lat="43.40038" lon="10.61918"><ele>537.0</ele><time>2026-04-18T13:33:29.746Z</time></trkpt><trkpt lat="43.4004983" lon="10.6192517"><ele>537.0</ele><time>2026-04-18T13:33:30.747Z</time></trkpt><trkpt lat="43.4006217" lon="10.6192917"><ele>537.0</ele><time>2026-04-18T13:33:31.747Z</time></trkpt><trkpt lat="43.40075" lon="10.619305"><ele>537.0</ele><time>2026-04-18T13:33:32.744Z</time></trkpt><trkpt lat="43.4008717" lon="10.6193133"><ele>535.4</ele><time>2026-04-18T13:33:33.741Z</time></trkpt><trkpt lat="43.4009833" lon="10.6193"><ele>533.8000000000001</ele><time>2026-04-18T13:33:34.745Z</time></trkpt><trkpt lat="43.401085" lon="10.6192717"><ele>532.2</ele><time>2026-04-18T13:33:35.744Z</time></trkpt><trkpt lat="43.4011783" lon="10.619215"><ele>530.6</ele><time>2026-04-18T13:33:36.751Z</time></trkpt><trkpt lat="43.401265" lon="10.6191767"><ele>529.0</ele><time>2026-04-18T13:33:37.746Z</time></trkpt><trkpt lat="43.4013533" lon="10.619175"><ele>527.5</ele><time>2026-04-18T13:33:38.745Z</time></trkpt><trkpt lat="43.4014567" lon="10.6192217"><ele>526.0</ele><time>2026-04-18T13:33:39.746Z</time></trkpt><trkpt lat="43.4015617" lon="10.619305"><ele>524.5</ele><time>2026-04-18T13:33:40.748Z</time></trkpt><trkpt lat="43.4016767" lon="10.6193983"><ele>523.0</ele><time>2026-04-18T13:33:41.749Z</time></trkpt><trkpt lat="43.4017967" lon="10.619485"><ele>523.0</ele><time>2026-04-18T13:33:42.742Z</time></trkpt><trkpt lat="43.4019217" lon="10.6195667"><ele>523.0</ele><time>2026-04-18T13:33:43.745Z</time></trkpt><trkpt lat="43.40205" lon="10.6196417"><ele>523.0</ele><time>2026-04-18T13:33:44.746Z</time></trkpt><trkpt lat="43.40217" lon="10.61971"><ele>523.0</ele><time>2026-04-18T13:33:45.746Z</time></trkpt><trkpt lat="43.4022867" lon="10.6197917"><ele>517.25</ele><time>2026-04-18T13:33:46.743Z</time></trkpt><trkpt lat="43.4024017" lon="10.6199017"><ele>511.5</ele><time>2026-04-18T13:33:47.742Z</time></trkpt><trkpt lat="43.4025067" lon="10.620035"><ele>505.75</ele><time>2026-04-18T13:33:48.743Z</time></trkpt><trkpt lat="43.4026017" lon="10.6201817"><ele>500.0</ele><time>2026-04-18T13:33:49.743Z</time></trkpt><trkpt lat="43.4026867" lon="10.6203367"><ele>499.5</ele><time>2026-04-18T13:33:50.747Z</time></trkpt><trkpt lat="43.4027533" lon="10.6204917"><ele>499.0</ele><time>2026-04-18T13:33:51.742Z</time></trkpt><trkpt lat="43.40282" lon="10.6206367"><ele>498.5</ele><time>2026-04-18T13:33:52.743Z</time></trkpt><trkpt lat="43.40288" lon="10.6207767"><ele>498.0</ele><time>2026-04-18T13:33:53.745Z</time></trkpt><trkpt lat="43.4029217" lon="10.620925"><ele>498.0</ele><time>2026-04-18T13:33:54.744Z</time></trkpt><trkpt lat="43.4029367" lon="10.6211033"><ele>498.0</ele><time>2026-04-18T13:33:55.743Z</time></trkpt><trkpt lat="43.4029433" lon="10.621315"><ele>498.0</ele><time>2026-04-18T13:33:56.743Z</time></trkpt><trkpt lat="43.40296" lon="10.6215533"><ele>496.33333333333337</ele><time>2026-04-18T13:33:57.742Z</time></trkpt><trkpt lat="43.4029717" lon="10.6217933"><ele>494.6666666666667</ele><time>2026-04-18T13:33:58.749Z</time></trkpt><trkpt lat="43.4029883" lon="10.6220267"><ele>493.0</ele><time>2026-04-18T13:33:59.743Z</time></trkpt><trkpt lat="43.4029917" lon="10.6222517"><ele>492.33333333333337</ele><time>2026-04-18T13:34:00.74Z</time></trkpt><trkpt lat="43.402965" lon="10.6224633"><ele>491.66666666666663</ele><time>2026-04-18T13:34:01.743Z</time></trkpt><trkpt lat="43.4029233" lon="10.6226617"><ele>491.0</ele><time>2026-04-18T13:34:02.743Z</time></trkpt><trkpt lat="43.4028483" lon="10.6228467"><ele>490.75</ele><time>2026-04-18T13:34:03.742Z</time></trkpt><trkpt lat="43.4027783" lon="10.623025"><ele>490.5</ele><time>2026-04-18T13:34:04.743Z</time></trkpt><trkpt lat="43.4027333" lon="10.6232133"><ele>490.25</ele><time>2026-04-18T13:34:05.744Z</time></trkpt><trkpt lat="43.4027267" lon="10.6234033"><ele>490.0</ele><time>2026-04-18T13:34:06.744Z</time></trkpt><trkpt lat="43.4027533" lon="10.6235867"><ele>490.0</ele><time>2026-04-18T13:34:07.746Z</time></trkpt><trkpt lat="43.4028" lon="10.62376"><ele>490.0</ele><time>2026-04-18T13:34:08.745Z</time></trkpt><trkpt lat="43.4028367" lon="10.6239317"><ele>490.0</ele><time>2026-04-18T13:34:09.742Z</time></trkpt><trkpt lat="43.4028683" lon="10.6241017"><ele>490.0</ele><time>2026-04-18T13:34:10.747Z</time></trkpt><trkpt lat="43.4028967" lon="10.6242733"><ele>490.0</ele><time>2026-04-18T13:34:11.741Z</time></trkpt><trkpt lat="43.4029383" lon="10.6244483"><ele>490.0</ele><time>2026-04-18T13:34:12.748Z</time></trkpt><trkpt lat="43.402995" lon="10.62464"><ele>490.0</ele><time>2026-04-18T13:34:13.748Z</time></trkpt><trkpt lat="43.40308" lon="10.6248233"><ele>490.0</ele><time>2026-04-18T13:34:14.754Z</time></trkpt><trkpt lat="43.4031467" lon="10.625005"><ele>490.75</ele><time>2026-04-18T13:34:15.746Z</time></trkpt><trkpt lat="43.4031867" lon="10.6251833"><ele>491.5</ele><time>2026-04-18T13:34:16.745Z</time></trkpt><trkpt lat="43.4032233" lon="10.6253683"><ele>492.25</ele><time>2026-04-18T13:34:17.742Z</time></trkpt><trkpt lat="43.4032933" lon="10.6255283"><ele>493.0</ele><time>2026-04-18T13:34:18.746Z</time></trkpt><trkpt lat="43.40338" lon="10.6256767"><ele>488.25</ele><time>2026-04-18T13:34:19.744Z</time></trkpt><trkpt lat="43.4034683" lon="10.625835"><ele>483.5</ele><time>2026-04-18T13:34:20.742Z</time></trkpt><trkpt lat="43.40356" lon="10.6259883"><ele>478.75</ele><time>2026-04-18T13:34:21.745Z</time></trkpt><trkpt lat="43.4036533" lon="10.6261383"><ele>474.0</ele><time>2026-04-18T13:34:22.742Z</time></trkpt><trkpt lat="43.4037467" lon="10.626295"><ele>476.25</ele><time>2026-04-18T13:34:23.743Z</time></trkpt><trkpt lat="43.4038283" lon="10.6264683"><ele>478.5</ele><time>2026-04-18T13:34:24.748Z</time></trkpt><trkpt lat="43.4039133" lon="10.62663"><ele>480.75</ele><time>2026-04-18T13:34:25.739Z</time></trkpt><trkpt lat="43.4039933" lon="10.626795"><ele>483.0</ele><time>2026-04-18T13:34:26.743Z</time></trkpt><trkpt lat="43.4041" lon="10.6269433"><ele>478.0</ele><time>2026-04-18T13:34:27.747Z</time></trkpt><trkpt lat="43.404215" lon="10.627085"><ele>473.0</ele><time>2026-04-18T13:34:28.744Z</time></trkpt><trkpt lat="43.4043167" lon="10.62721"><ele>468.0</ele><time>2026-04-18T13:34:29.744Z</time></trkpt><trkpt lat="43.4044117" lon="10.627325"><ele>463.0</ele><time>2026-04-18T13:34:30.744Z</time></trkpt><trkpt lat="43.404525" lon="10.6274117"><ele>463.0</ele><time>2026-04-18T13:34:31.74Z</time></trkpt><trkpt lat="43.40465" lon="10.6274483"><ele>463.0</ele><time>2026-04-18T13:34:32.746Z</time></trkpt><trkpt lat="43.404905" lon="10.6274067"><ele>463.0</ele><time>2026-04-18T13:34:34.223Z</time></trkpt><trkpt lat="43.4050467" lon="10.627405"><ele>465.0</ele><time>2026-04-18T13:34:35.471Z</time></trkpt><trkpt lat="43.4053267" lon="10.6275567"><ele>467.0</ele><time>2026-04-18T13:34:37.741Z</time></trkpt><trkpt lat="43.4054183" lon="10.6276733"><ele>469.0</ele><time>2026-04-18T13:34:38.755Z</time></trkpt><trkpt lat="43.4054733" lon="10.627845"><ele>465.79999999999995</ele><time>2026-04-18T13:34:39.745Z</time></trkpt><trkpt lat="43.4055117" lon="10.6280133"><ele>462.59999999999997</ele><time>2026-04-18T13:34:40.74Z</time></trkpt><trkpt lat="43.4055517" lon="10.6281633"><ele>459.4</ele><time>2026-04-18T13:34:41.745Z</time></trkpt><trkpt lat="43.4056" lon="10.62829"><ele>456.2</ele><time>2026-04-18T13:34:42.747Z</time></trkpt><trkpt lat="43.4056517" lon="10.6283767"><ele>453.0</ele><time>2026-04-18T13:34:43.744Z</time></trkpt><trkpt lat="43.4057317" lon="10.6284483"><ele>453.0</ele><time>2026-04-18T13:34:45.746Z</time></trkpt><trkpt lat="43.405815" lon="10.62848"><ele>452.99999999999994</ele><time>2026-04-18T13:34:47.749Z</time></trkpt><trkpt lat="43.4058767" lon="10.6285"><ele>452.99999999999994</ele><time>2026-04-18T13:34:48.744Z</time></trkpt><trkpt lat="43.4059683" lon="10.6285333"><ele>453.0</ele><time>2026-04-18T13:34:49.752Z</time></trkpt><trkpt lat="43.4060817" lon="10.6285667"><ele>453.0</ele><time>2026-04-18T13:34:50.746Z</time></trkpt><trkpt lat="43.4062017" lon="10.6286"><ele>453.0</ele><time>2026-04-18T13:34:51.749Z</time></trkpt><trkpt lat="43.4063183" lon="10.6286333"><ele>453.0</ele><time>2026-04-18T13:34:52.746Z</time></trkpt><trkpt lat="43.406425" lon="10.628675"><ele>453.0</ele><time>2026-04-18T13:34:53.747Z</time></trkpt><trkpt lat="43.4065267" lon="10.6287267"><ele>453.0</ele><time>2026-04-18T13:34:54.747Z</time></trkpt><trkpt lat="43.4066217" lon="10.6288317"><ele>448.66666666666663</ele><time>2026-04-18T13:34:55.742Z</time></trkpt><trkpt lat="43.4067167" lon="10.6289783"><ele>444.3333333333333</ele><time>2026-04-18T13:34:56.742Z</time></trkpt><trkpt lat="43.4068167" lon="10.6291683"><ele>440.0</ele><time>2026-04-18T13:34:57.745Z</time></trkpt><trkpt lat="43.4069267" lon="10.6293633"><ele>441.0</ele><time>2026-04-18T13:34:58.745Z</time></trkpt><trkpt lat="43.4070367" lon="10.6295433"><ele>442.0</ele><time>2026-04-18T13:34:59.748Z</time></trkpt><trkpt lat="43.40715" lon="10.6297033"><ele>443.0</ele><time>2026-04-18T13:35:00.746Z</time></trkpt><trkpt lat="43.40724" lon="10.629895"><ele>438.66666666666663</ele><time>2026-04-18T13:35:01.743Z</time></trkpt><trkpt lat="43.4073383" lon="10.630065"><ele>434.33333333333337</ele><time>2026-04-18T13:35:02.743Z</time></trkpt><trkpt lat="43.4074317" lon="10.6302283"><ele>430.0</ele><time>2026-04-18T13:35:03.744Z</time></trkpt><trkpt lat="43.4075183" lon="10.6304"><ele>430.0</ele><time>2026-04-18T13:35:04.747Z</time></trkpt><trkpt lat="43.4076083" lon="10.6305617"><ele>430.0</ele><time>2026-04-18T13:35:05.748Z</time></trkpt><trkpt lat="43.4077" lon="10.6307083"><ele>430.0</ele><time>2026-04-18T13:35:06.747Z</time></trkpt><trkpt lat="43.40778" lon="10.63085"><ele>430.0</ele><time>2026-04-18T13:35:07.745Z</time></trkpt><trkpt lat="43.4078533" lon="10.6309783"><ele>430.0</ele><time>2026-04-18T13:35:08.745Z</time></trkpt><trkpt lat="43.4079183" lon="10.6311133"><ele>430.0</ele><time>2026-04-18T13:35:09.744Z</time></trkpt><trkpt lat="43.40799" lon="10.63123"><ele>430.0</ele><time>2026-04-18T13:35:10.745Z</time></trkpt><trkpt lat="43.40809" lon="10.6313367"><ele>430.0</ele><time>2026-04-18T13:35:11.747Z</time></trkpt><trkpt lat="43.4082183" lon="10.6314217"><ele>427.5</ele><time>2026-04-18T13:35:12.745Z</time></trkpt><trkpt lat="43.4083533" lon="10.6314967"><ele>425.0</ele><time>2026-04-18T13:35:13.746Z</time></trkpt><trkpt lat="43.4084767" lon="10.6315683"><ele>422.5</ele><time>2026-04-18T13:35:14.746Z</time></trkpt><trkpt lat="43.4085917" lon="10.6316417"><ele>420.0</ele><time>2026-04-18T13:35:15.742Z</time></trkpt><trkpt lat="43.4086983" lon="10.6317117"><ele>420.0</ele><time>2026-04-18T13:35:16.745Z</time></trkpt><trkpt lat="43.4088133" lon="10.6317483"><ele>420.0</ele><time>2026-04-18T13:35:17.746Z</time></trkpt><trkpt lat="43.4089383" lon="10.6317467"><ele>420.0</ele><time>2026-04-18T13:35:18.745Z</time></trkpt><trkpt lat="43.4090733" lon="10.6317117"><ele>420.0</ele><time>2026-04-18T13:35:19.747Z</time></trkpt><trkpt lat="43.4092033" lon="10.6316633"><ele>417.4</ele><time>2026-04-18T13:35:20.746Z</time></trkpt><trkpt lat="43.409325" lon="10.6316267"><ele>414.8</ele><time>2026-04-18T13:35:21.751Z</time></trkpt><trkpt lat="43.4094367" lon="10.6316017"><ele>412.20000000000005</ele><time>2026-04-18T13:35:22.749Z</time></trkpt><trkpt lat="43.4095417" lon="10.63158"><ele>409.6</ele><time>2026-04-18T13:35:23.75Z</time></trkpt><trkpt lat="43.409635" lon="10.631555"><ele>407.0</ele><time>2026-04-18T13:35:24.742Z</time></trkpt><trkpt lat="43.40972" lon="10.63154"><ele>406.20000000000005</ele><time>2026-04-18T13:35:25.746Z</time></trkpt><trkpt lat="43.409805" lon="10.6315417"><ele>405.4</ele><time>2026-04-18T13:35:26.746Z</time></trkpt><trkpt lat="43.4098817" lon="10.6315833"><ele>404.6</ele><time>2026-04-18T13:35:27.746Z</time></trkpt><trkpt lat="43.4099567" lon="10.6316867"><ele>403.79999999999995</ele><time>2026-04-18T13:35:28.751Z</time></trkpt><trkpt lat="43.4100167" lon="10.6318283"><ele>403.0</ele><time>2026-04-18T13:35:29.751Z</time></trkpt><trkpt lat="43.4100717" lon="10.63199"><ele>403.0</ele><time>2026-04-18T13:35:30.747Z</time></trkpt><trkpt lat="43.4101283" lon="10.6321433"><ele>403.0</ele><time>2026-04-18T13:35:31.747Z</time></trkpt><trkpt lat="43.4101867" lon="10.6322817"><ele>403.0</ele><time>2026-04-18T13:35:32.757Z</time></trkpt><trkpt lat="43.41025" lon="10.6324083"><ele>403.0</ele><time>2026-04-18T13:35:33.75Z</time></trkpt><trkpt lat="43.4103267" lon="10.6325133"><ele>403.0</ele><time>2026-04-18T13:35:34.747Z</time></trkpt><trkpt lat="43.41043" lon="10.6325867"><ele>403.0</ele><time>2026-04-18T13:35:35.751Z</time></trkpt><trkpt lat="43.410545" lon="10.6326433"><ele>403.0</ele><time>2026-04-18T13:35:36.748Z</time></trkpt><trkpt lat="43.4106683" lon="10.63268"><ele>403.0</ele><time>2026-04-18T13:35:37.749Z</time></trkpt><trkpt lat="43.410785" lon="10.6327233"><ele>398.75</ele><time>2026-04-18T13:35:38.77Z</time></trkpt><trkpt lat="43.4109" lon="10.6327833"><ele>394.5</ele><time>2026-04-18T13:35:39.746Z</time></trkpt><trkpt lat="43.4110017" lon="10.632875"><ele>390.25</ele><time>2026-04-18T13:35:40.748Z</time></trkpt><trkpt lat="43.4110783" lon="10.6330083"><ele>386.0</ele><time>2026-04-18T13:35:41.748Z</time></trkpt><trkpt lat="43.411135" lon="10.63317"><ele>386.0</ele><time>2026-04-18T13:35:42.747Z</time></trkpt><trkpt lat="43.41118" lon="10.6333583"><ele>386.0</ele><time>2026-04-18T13:35:43.745Z</time></trkpt><trkpt lat="43.41123" lon="10.6335383"><ele>386.0</ele><time>2026-04-18T13:35:44.764Z</time></trkpt><trkpt lat="43.41128" lon="10.63369"><ele>386.0</ele><time>2026-04-18T13:35:45.75Z</time></trkpt><trkpt lat="43.411335" lon="10.6338333"><ele>384.75</ele><time>2026-04-18T13:35:46.745Z</time></trkpt><trkpt lat="43.4113717" lon="10.6339933"><ele>383.5</ele><time>2026-04-18T13:35:47.768Z</time></trkpt><trkpt lat="43.4113967" lon="10.63417"><ele>382.25</ele><time>2026-04-18T13:35:48.75Z</time></trkpt><trkpt lat="43.41144" lon="10.6343433"><ele>381.0</ele><time>2026-04-18T13:35:49.751Z</time></trkpt><trkpt lat="43.4115067" lon="10.6345133"><ele>381.0</ele><time>2026-04-18T13:35:50.747Z</time></trkpt><trkpt lat="43.4115917" lon="10.6346883"><ele>381.0</ele><time>2026-04-18T13:35:51.756Z</time></trkpt><trkpt lat="43.4116617" lon="10.6348633"><ele>381.0</ele><time>2026-04-18T13:35:52.752Z</time></trkpt><trkpt lat="43.4117233" lon="10.6350183"><ele>381.0</ele><time>2026-04-18T13:35:53.755Z</time></trkpt><trkpt lat="43.4117833" lon="10.6351433"><ele>381.0</ele><time>2026-04-18T13:35:54.746Z</time></trkpt><trkpt lat="43.41184" lon="10.6352517"><ele>381.0</ele><time>2026-04-18T13:35:55.748Z</time></trkpt><trkpt lat="43.411875" lon="10.635365"><ele>381.0</ele><time>2026-04-18T13:35:56.749Z</time></trkpt><trkpt lat="43.4118917" lon="10.635495"><ele>381.0</ele><time>2026-04-18T13:35:57.756Z</time></trkpt><trkpt lat="43.411895" lon="10.635635"><ele>381.0</ele><time>2026-04-18T13:35:58.749Z</time></trkpt><trkpt lat="43.4119083" lon="10.63578"><ele>381.6</ele><time>2026-04-18T13:35:59.755Z</time></trkpt><trkpt lat="43.4119417" lon="10.6359183"><ele>382.20000000000005</ele><time>2026-04-18T13:36:00.753Z</time></trkpt><trkpt lat="43.4119783" lon="10.6360517"><ele>382.79999999999995</ele><time>2026-04-18T13:36:01.748Z</time></trkpt><trkpt lat="43.4120117" lon="10.63619"><ele>383.4</ele><time>2026-04-18T13:36:02.746Z</time></trkpt><trkpt lat="43.4120633" lon="10.6363267"><ele>384.0</ele><time>2026-04-18T13:36:03.75Z</time></trkpt><trkpt lat="43.4121317" lon="10.6364433"><ele>381.5</ele><time>2026-04-18T13:36:04.748Z</time></trkpt><trkpt lat="43.4122067" lon="10.636565"><ele>379.0</ele><time>2026-04-18T13:36:05.753Z</time></trkpt><trkpt lat="43.4122933" lon="10.636685"><ele>376.5</ele><time>2026-04-18T13:36:06.746Z</time></trkpt><trkpt lat="43.412375" lon="10.6368167"><ele>374.0</ele><time>2026-04-18T13:36:07.743Z</time></trkpt><trkpt lat="43.4124683" lon="10.63695"><ele>373.0</ele><time>2026-04-18T13:36:08.753Z</time></trkpt><trkpt lat="43.4125633" lon="10.6370983"><ele>372.0</ele><time>2026-04-18T13:36:09.749Z</time></trkpt><trkpt lat="43.4126567" lon="10.637245"><ele>371.0</ele><time>2026-04-18T13:36:10.761Z</time></trkpt><trkpt lat="43.4127467" lon="10.6373883"><ele>370.0</ele><time>2026-04-18T13:36:11.748Z</time></trkpt><trkpt lat="43.4128283" lon="10.6375217"><ele>370.0</ele><time>2026-04-18T13:36:12.748Z</time></trkpt><trkpt lat="43.4129083" lon="10.6376317"><ele>370.0</ele><time>2026-04-18T13:36:13.749Z</time></trkpt><trkpt lat="43.41298" lon="10.6377117"><ele>370.0</ele><time>2026-04-18T13:36:14.759Z</time></trkpt><trkpt lat="43.41305" lon="10.6377533"><ele>370.0</ele><time>2026-04-18T13:36:15.753Z</time></trkpt><trkpt lat="43.4131167" lon="10.6377683"><ele>370.0</ele><time>2026-04-18T13:36:16.749Z</time></trkpt><trkpt lat="43.4132383" lon="10.6377467"><ele>368.8</ele><time>2026-04-18T13:36:18.751Z</time></trkpt><trkpt lat="43.41331" lon="10.637755"><ele>367.6</ele><time>2026-04-18T13:36:19.766Z</time></trkpt><trkpt lat="43.4133833" lon="10.6378"><ele>366.4</ele><time>2026-04-18T13:36:20.754Z</time></trkpt><trkpt lat="43.4134767" lon="10.6378583"><ele>365.2</ele><time>2026-04-18T13:36:21.75Z</time></trkpt><trkpt lat="43.4135917" lon="10.6378883"><ele>364.0</ele><time>2026-04-18T13:36:22.746Z</time></trkpt><trkpt lat="43.413695" lon="10.6379567"><ele>364.25</ele><time>2026-04-18T13:36:23.756Z</time></trkpt><trkpt lat="43.4137967" lon="10.6380567"><ele>364.5</ele><time>2026-04-18T13:36:24.76Z</time></trkpt><trkpt lat="43.4138983" lon="10.6381533"><ele>364.75</ele><time>2026-04-18T13:36:25.747Z</time></trkpt><trkpt lat="43.4140033" lon="10.6382383"><ele>365.0</ele><time>2026-04-18T13:36:26.747Z</time></trkpt><trkpt lat="43.4141167" lon="10.638295"><ele>365.0</ele><time>2026-04-18T13:36:27.75Z</time></trkpt><trkpt lat="43.4142267" lon="10.6383433"><ele>365.0</ele><time>2026-04-18T13:36:28.747Z</time></trkpt><trkpt lat="43.4143183" lon="10.6384233"><ele>365.0</ele><time>2026-04-18T13:36:29.752Z</time></trkpt><trkpt lat="43.4144017" lon="10.6385317"><ele>365.0</ele><time>2026-04-18T13:36:30.75Z</time></trkpt><trkpt lat="43.4144667" lon="10.6386633"><ele>363.5</ele><time>2026-04-18T13:36:31.747Z</time></trkpt><trkpt lat="43.4145483" lon="10.63877"><ele>362.0</ele><time>2026-04-18T13:36:32.756Z</time></trkpt><trkpt lat="43.4146567" lon="10.6388667"><ele>360.5</ele><time>2026-04-18T13:36:33.753Z</time></trkpt><trkpt lat="43.414785" lon="10.6389667"><ele>359.0</ele><time>2026-04-18T13:36:34.746Z</time></trkpt><trkpt lat="43.4149117" lon="10.63908"><ele>359.0</ele><time>2026-04-18T13:36:35.75Z</time></trkpt><trkpt lat="43.4150467" lon="10.6391717"><ele>359.0</ele><time>2026-04-18T13:36:36.751Z</time></trkpt><trkpt lat="43.4151617" lon="10.6392733"><ele>359.0</ele><time>2026-04-18T13:36:37.752Z</time></trkpt><trkpt lat="43.415265" lon="10.6393833"><ele>359.0</ele><time>2026-04-18T13:36:38.759Z</time></trkpt><trkpt lat="43.41536" lon="10.6395017"><ele>360.5</ele><time>2026-04-18T13:36:39.749Z</time></trkpt><trkpt lat="43.41545" lon="10.6396283"><ele>362.0</ele><time>2026-04-18T13:36:40.75Z</time></trkpt><trkpt lat="43.4155383" lon="10.6397567"><ele>363.5</ele><time>2026-04-18T13:36:41.747Z</time></trkpt><trkpt lat="43.4156483" lon="10.6398517"><ele>365.0</ele><time>2026-04-18T13:36:42.744Z</time></trkpt><trkpt lat="43.415775" lon="10.63992"><ele>365.0</ele><time>2026-04-18T13:36:43.796Z</time></trkpt><trkpt lat="43.41589" lon="10.6399867"><ele>365.0</ele><time>2026-04-18T13:36:44.763Z</time></trkpt><trkpt lat="43.4160033" lon="10.6400633"><ele>365.0</ele><time>2026-04-18T13:36:45.755Z</time></trkpt><trkpt lat="43.4161167" lon="10.6401167"><ele>365.0</ele><time>2026-04-18T13:36:46.763Z</time></trkpt><trkpt lat="43.4162283" lon="10.6401433"><ele>365.6</ele><time>2026-04-18T13:36:47.758Z</time></trkpt><trkpt lat="43.4163383" lon="10.640175"><ele>366.2</ele><time>2026-04-18T13:36:48.764Z</time></trkpt><trkpt lat="43.4164483" lon="10.6401983"><ele>366.79999999999995</ele><time>2026-04-18T13:36:49.767Z</time></trkpt><trkpt lat="43.4165483" lon="10.64023"><ele>367.4</ele><time>2026-04-18T13:36:50.763Z</time></trkpt><trkpt lat="43.4166333" lon="10.6402867"><ele>368.0</ele><time>2026-04-18T13:36:51.747Z</time></trkpt><trkpt lat="43.416715" lon="10.6403967"><ele>370.25</ele><time>2026-04-18T13:36:52.745Z</time></trkpt><trkpt lat="43.4168117" lon="10.640525"><ele>372.5</ele><time>2026-04-18T13:36:53.747Z</time></trkpt><trkpt lat="43.4169183" lon="10.6406433"><ele>374.75</ele><time>2026-04-18T13:36:54.751Z</time></trkpt><trkpt lat="43.4170283" lon="10.6407633"><ele>377.0</ele><time>2026-04-18T13:36:55.755Z</time></trkpt><trkpt lat="43.41714" lon="10.64089"><ele>373.33333333333337</ele><time>2026-04-18T13:36:56.747Z</time></trkpt><trkpt lat="43.4172617" lon="10.6410233"><ele>369.6666666666667</ele><time>2026-04-18T13:36:57.751Z</time></trkpt><trkpt lat="43.4173733" lon="10.6411583"><ele>366.0</ele><time>2026-04-18T13:36:58.754Z</time></trkpt><trkpt lat="43.417475" lon="10.6413017"><ele>365.75</ele><time>2026-04-18T13:36:59.756Z</time></trkpt><trkpt lat="43.417575" lon="10.641435"><ele>365.5</ele><time>2026-04-18T13:37:00.755Z</time></trkpt><trkpt lat="43.4176717" lon="10.6415533"><ele>365.25</ele><time>2026-04-18T13:37:01.754Z</time></trkpt><trkpt lat="43.417765" lon="10.64167"><ele>365.0</ele><time>2026-04-18T13:37:02.751Z</time></trkpt><trkpt lat="43.4178383" lon="10.6417967"><ele>365.0</ele><time>2026-04-18T13:37:03.742Z</time></trkpt><trkpt lat="43.417905" lon="10.641935"><ele>365.0</ele><time>2026-04-18T13:37:04.747Z</time></trkpt><trkpt lat="43.417995" lon="10.6420467"><ele>365.0</ele><time>2026-04-18T13:37:05.751Z</time></trkpt><trkpt lat="43.4180933" lon="10.6421517"><ele>365.0</ele><time>2026-04-18T13:37:06.748Z</time></trkpt><trkpt lat="43.4181967" lon="10.64224"><ele>365.6</ele><time>2026-04-18T13:37:07.75Z</time></trkpt><trkpt lat="43.41829" lon="10.6423283"><ele>366.2</ele><time>2026-04-18T13:37:08.752Z</time></trkpt><trkpt lat="43.41837" lon="10.642445"><ele>366.79999999999995</ele><time>2026-04-18T13:37:09.759Z</time></trkpt><trkpt lat="43.4184467" lon="10.6425433"><ele>367.4</ele><time>2026-04-18T13:37:10.753Z</time></trkpt><trkpt lat="43.41854" lon="10.6425817"><ele>368.0</ele><time>2026-04-18T13:37:11.749Z</time></trkpt><trkpt lat="43.41867" lon="10.6426783"><ele>368.0</ele><time>2026-04-18T13:37:12.75Z</time></trkpt><trkpt lat="43.4187983" lon="10.6427617"><ele>368.0</ele><time>2026-04-18T13:37:13.745Z</time></trkpt><trkpt lat="43.4189333" lon="10.6428433"><ele>368.0</ele><time>2026-04-18T13:37:14.748Z</time></trkpt><trkpt lat="43.419055" lon="10.6429983"><ele>370.6666666666667</ele><time>2026-04-18T13:37:15.753Z</time></trkpt><trkpt lat="43.4191967" lon="10.6431383"><ele>373.3333333333333</ele><time>2026-04-18T13:37:16.749Z</time></trkpt><trkpt lat="43.4193283" lon="10.64326"><ele>376.0</ele><time>2026-04-18T13:37:17.751Z</time></trkpt><trkpt lat="43.4194533" lon="10.6433167"><ele>376.0</ele><time>2026-04-18T13:37:18.75Z</time></trkpt><trkpt lat="43.419555" lon="10.6432533"><ele>376.0</ele><time>2026-04-18T13:37:19.752Z</time></trkpt><trkpt lat="43.4196283" lon="10.6432533"><ele>376.0</ele><time>2026-04-18T13:37:20.751Z</time></trkpt><trkpt lat="43.4197183" lon="10.6433767"><ele>376.0</ele><time>2026-04-18T13:37:21.752Z</time></trkpt><trkpt lat="43.4198017" lon="10.6434833"><ele>376.0</ele><time>2026-04-18T13:37:22.751Z</time></trkpt><trkpt lat="43.4198917" lon="10.6436617"><ele>377.0</ele><time>2026-04-18T13:37:23.745Z</time></trkpt><trkpt lat="43.4199683" lon="10.6438367"><ele>378.0</ele><time>2026-04-18T13:37:24.751Z</time></trkpt><trkpt lat="43.4200617" lon="10.6439683"><ele>379.0</ele><time>2026-04-18T13:37:25.746Z</time></trkpt><trkpt lat="43.4201617" lon="10.6440867"><ele>380.0</ele><time>2026-04-18T13:37:26.757Z</time></trkpt><trkpt lat="43.4202633" lon="10.644235"><ele>380.0</ele><time>2026-04-18T13:37:27.745Z</time></trkpt><trkpt lat="43.4203717" lon="10.6443633"><ele>380.0</ele><time>2026-04-18T13:37:28.749Z</time></trkpt><trkpt lat="43.4204833" lon="10.6444717"><ele>380.0</ele><time>2026-04-18T13:37:29.749Z</time></trkpt><trkpt lat="43.4205983" lon="10.6445617"><ele>380.0</ele><time>2026-04-18T13:37:30.762Z</time></trkpt><trkpt lat="43.4207167" lon="10.6446467"><ele>378.25</ele><time>2026-04-18T13:37:31.744Z</time></trkpt><trkpt lat="43.4208333" lon="10.64475"><ele>376.5</ele><time>2026-04-18T13:37:32.748Z</time></trkpt><trkpt lat="43.420945" lon="10.6448683"><ele>374.75</ele><time>2026-04-18T13:37:33.752Z</time></trkpt><trkpt lat="43.421055" lon="10.6449983"><ele>373.0</ele><time>2026-04-18T13:37:34.748Z</time></trkpt><trkpt lat="43.4211733" lon="10.6451283"><ele>373.0</ele><time>2026-04-18T13:37:35.745Z</time></trkpt><trkpt lat="43.421295" lon="10.64526"><ele>373.0</ele><time>2026-04-18T13:37:36.748Z</time></trkpt><trkpt lat="43.4214133" lon="10.6453833"><ele>373.0</ele><time>2026-04-18T13:37:37.744Z</time></trkpt><trkpt lat="43.4215383" lon="10.6454933"><ele>371.5</ele><time>2026-04-18T13:37:38.756Z</time></trkpt><trkpt lat="43.4216567" lon="10.64559"><ele>370.0</ele><time>2026-04-18T13:37:39.749Z</time></trkpt><trkpt lat="43.4217667" lon="10.6456633"><ele>368.5</ele><time>2026-04-18T13:37:40.765Z</time></trkpt><trkpt lat="43.42187" lon="10.6457317"><ele>367.0</ele><time>2026-04-18T13:37:41.748Z</time></trkpt><trkpt lat="43.4219683" lon="10.6457917"><ele>367.0</ele><time>2026-04-18T13:37:42.752Z</time></trkpt><trkpt lat="43.4220683" lon="10.6458483"><ele>367.0</ele><time>2026-04-18T13:37:43.751Z</time></trkpt><trkpt lat="43.4221683" lon="10.645905"><ele>367.0</ele><time>2026-04-18T13:37:44.754Z</time></trkpt><trkpt lat="43.422275" lon="10.6459533"><ele>367.0</ele><time>2026-04-18T13:37:45.745Z</time></trkpt><trkpt lat="43.4223867" lon="10.6459883"><ele>367.0</ele><time>2026-04-18T13:37:46.752Z</time></trkpt><trkpt lat="43.4224933" lon="10.64605"><ele>361.25</ele><time>2026-04-18T13:37:47.747Z</time></trkpt><trkpt lat="43.4225933" lon="10.6461333"><ele>355.5</ele><time>2026-04-18T13:37:48.759Z</time></trkpt><trkpt lat="43.422695" lon="10.6462217"><ele>349.75</ele><time>2026-04-18T13:37:49.747Z</time></trkpt><trkpt lat="43.4228033" lon="10.6463033"><ele>344.0</ele><time>2026-04-18T13:37:50.75Z</time></trkpt><trkpt lat="43.42292" lon="10.646375"><ele>344.5</ele><time>2026-04-18T13:37:51.749Z</time></trkpt><trkpt lat="43.4230383" lon="10.6464417"><ele>345.0</ele><time>2026-04-18T13:37:52.752Z</time></trkpt><trkpt lat="43.423155" lon="10.646525"><ele>345.5</ele><time>2026-04-18T13:37:53.744Z</time></trkpt><trkpt lat="43.423275" lon="10.64661"><ele>346.0</ele><time>2026-04-18T13:37:54.748Z</time></trkpt><trkpt lat="43.4234067" lon="10.64668"><ele>346.0</ele><time>2026-04-18T13:37:55.747Z</time></trkpt><trkpt lat="43.4235367" lon="10.646755"><ele>346.0</ele><time>2026-04-18T13:37:56.755Z</time></trkpt><trkpt lat="43.4236617" lon="10.6468267"><ele>346.0</ele><time>2026-04-18T13:37:57.755Z</time></trkpt><trkpt lat="43.4237917" lon="10.64687"><ele>346.0</ele><time>2026-04-18T13:37:58.747Z</time></trkpt><trkpt lat="43.4239167" lon="10.6469167"><ele>339.5</ele><time>2026-04-18T13:37:59.749Z</time></trkpt><trkpt lat="43.4240283" lon="10.6469683"><ele>333.0</ele><time>2026-04-18T13:38:00.752Z</time></trkpt><trkpt lat="43.4241283" lon="10.647035"><ele>326.5</ele><time>2026-04-18T13:38:01.755Z</time></trkpt><trkpt lat="43.4242217" lon="10.64714"><ele>320.0</ele><time>2026-04-18T13:38:02.748Z</time></trkpt><trkpt lat="43.42431" lon="10.64724"><ele>320.0</ele><time>2026-04-18T13:38:03.748Z</time></trkpt><trkpt lat="43.4244017" lon="10.6473433"><ele>320.0</ele><time>2026-04-18T13:38:04.748Z</time></trkpt><trkpt lat="43.424485" lon="10.64744"><ele>320.0</ele><time>2026-04-18T13:38:05.745Z</time></trkpt><trkpt lat="43.42457" lon="10.6475383"><ele>320.0</ele><time>2026-04-18T13:38:06.751Z</time></trkpt><trkpt lat="43.42466" lon="10.6476417"><ele>319.75</ele><time>2026-04-18T13:38:07.751Z</time></trkpt><trkpt lat="43.4247517" lon="10.64774"><ele>319.5</ele><time>2026-04-18T13:38:08.756Z</time></trkpt><trkpt lat="43.424835" lon="10.6478467"><ele>319.25</ele><time>2026-04-18T13:38:09.752Z</time></trkpt><trkpt lat="43.4248983" lon="10.6479733"><ele>319.0</ele><time>2026-04-18T13:38:10.743Z</time></trkpt><trkpt lat="43.4249333" lon="10.6481367"><ele>315.75</ele><time>2026-04-18T13:38:11.763Z</time></trkpt><trkpt lat="43.42493" lon="10.6483317"><ele>312.5</ele><time>2026-04-18T13:38:12.753Z</time></trkpt><trkpt lat="43.4249333" lon="10.6485283"><ele>309.25</ele><time>2026-04-18T13:38:13.757Z</time></trkpt><trkpt lat="43.4249317" lon="10.6487117"><ele>306.0</ele><time>2026-04-18T13:38:14.749Z</time></trkpt><trkpt lat="43.42495" lon="10.6488733"><ele>305.5</ele><time>2026-04-18T13:38:15.75Z</time></trkpt><trkpt lat="43.4249833" lon="10.64902"><ele>305.0</ele><time>2026-04-18T13:38:16.747Z</time></trkpt><trkpt lat="43.4250417" lon="10.6491583"><ele>304.5</ele><time>2026-04-18T13:38:17.752Z</time></trkpt><trkpt lat="43.4251233" lon="10.6492817"><ele>304.0</ele><time>2026-04-18T13:38:18.75Z</time></trkpt><trkpt lat="43.4252033" lon="10.6493783"><ele>303.4</ele><time>2026-04-18T13:38:19.764Z</time></trkpt><trkpt lat="43.4252733" lon="10.6494717"><ele>302.79999999999995</ele><time>2026-04-18T13:38:20.745Z</time></trkpt><trkpt lat="43.4253333" lon="10.64956"><ele>302.20000000000005</ele><time>2026-04-18T13:38:21.747Z</time></trkpt><trkpt lat="43.425385" lon="10.649655"><ele>301.6</ele><time>2026-04-18T13:38:22.748Z</time></trkpt><trkpt lat="43.4254267" lon="10.6497717"><ele>301.0</ele><time>2026-04-18T13:38:23.747Z</time></trkpt><trkpt lat="43.4254367" lon="10.6499067"><ele>301.0</ele><time>2026-04-18T13:38:24.749Z</time></trkpt><trkpt lat="43.425405" lon="10.6500467"><ele>301.0</ele><time>2026-04-18T13:38:25.753Z</time></trkpt><trkpt lat="43.4253717" lon="10.6501883"><ele>301.0</ele><time>2026-04-18T13:38:26.753Z</time></trkpt><trkpt lat="43.4253583" lon="10.6503367"><ele>301.0</ele><time>2026-04-18T13:38:27.748Z</time></trkpt><trkpt lat="43.42536" lon="10.6505033"><ele>301.0</ele><time>2026-04-18T13:38:28.747Z</time></trkpt><trkpt lat="43.4253633" lon="10.6506733"><ele>298.2</ele><time>2026-04-18T13:38:29.747Z</time></trkpt><trkpt lat="43.4253867" lon="10.65083"><ele>295.40000000000003</ele><time>2026-04-18T13:38:30.752Z</time></trkpt><trkpt lat="43.4254133" lon="10.6509733"><ele>292.6</ele><time>2026-04-18T13:38:31.75Z</time></trkpt><trkpt lat="43.4254383" lon="10.6511017"><ele>289.8</ele><time>2026-04-18T13:38:32.749Z</time></trkpt><trkpt lat="43.42548" lon="10.6512167"><ele>287.0</ele><time>2026-04-18T13:38:33.75Z</time></trkpt><trkpt lat="43.42554" lon="10.6513167"><ele>283.4</ele><time>2026-04-18T13:38:34.753Z</time></trkpt><trkpt lat="43.42561" lon="10.6514"><ele>279.79999999999995</ele><time>2026-04-18T13:38:35.744Z</time></trkpt><trkpt lat="43.4256933" lon="10.6514633"><ele>276.2</ele><time>2026-04-18T13:38:36.74Z</time></trkpt><trkpt lat="43.42578" lon="10.6515283"><ele>272.59999999999997</ele><time>2026-04-18T13:38:37.747Z</time></trkpt><trkpt lat="43.42587" lon="10.6515883"><ele>269.0</ele><time>2026-04-18T13:38:38.751Z</time></trkpt><trkpt lat="43.4259567" lon="10.6516517"><ele>269.0</ele><time>2026-04-18T13:38:39.745Z</time></trkpt><trkpt lat="43.4260367" lon="10.6517133"><ele>269.0</ele><time>2026-04-18T13:38:40.745Z</time></trkpt><trkpt lat="43.42612" lon="10.651775"><ele>269.0</ele><time>2026-04-18T13:38:41.751Z</time></trkpt><trkpt lat="43.4261867" lon="10.6518733"><ele>269.0</ele><time>2026-04-18T13:38:42.746Z</time></trkpt><trkpt lat="43.4262567" lon="10.6519783"><ele>269.0</ele><time>2026-04-18T13:38:43.746Z</time></trkpt><trkpt lat="43.42633" lon="10.6520983"><ele>265.59999999999997</ele><time>2026-04-18T13:38:44.741Z</time></trkpt><trkpt lat="43.4264117" lon="10.6521833"><ele>262.2</ele><time>2026-04-18T13:38:45.747Z</time></trkpt><trkpt lat="43.426495" lon="10.6522583"><ele>258.79999999999995</ele><time>2026-04-18T13:38:46.743Z</time></trkpt><trkpt lat="43.4265817" lon="10.6523233"><ele>255.39999999999998</ele><time>2026-04-18T13:38:47.75Z</time></trkpt><trkpt lat="43.42668" lon="10.652365"><ele>252.0</ele><time>2026-04-18T13:38:48.746Z</time></trkpt><trkpt lat="43.4267783" lon="10.6523883"><ele>252.0</ele><time>2026-04-18T13:38:49.746Z</time></trkpt><trkpt lat="43.42688" lon="10.6523917"><ele>252.0</ele><time>2026-04-18T13:38:50.752Z</time></trkpt><trkpt lat="43.4269817" lon="10.6524067"><ele>252.0</ele><time>2026-04-18T13:38:51.743Z</time></trkpt><trkpt lat="43.42708" lon="10.6524467"><ele>252.0</ele><time>2026-04-18T13:38:52.741Z</time></trkpt><trkpt lat="43.4271783" lon="10.6524967"><ele>252.0</ele><time>2026-04-18T13:38:53.743Z</time></trkpt><trkpt lat="43.4272767" lon="10.6525517"><ele>250.0</ele><time>2026-04-18T13:38:54.743Z</time></trkpt><trkpt lat="43.4273733" lon="10.6526067"><ele>248.0</ele><time>2026-04-18T13:38:55.744Z</time></trkpt><trkpt lat="43.42746" lon="10.652675"><ele>246.0</ele><time>2026-04-18T13:38:56.745Z</time></trkpt><trkpt lat="43.4275383" lon="10.652755"><ele>244.0</ele><time>2026-04-18T13:38:57.742Z</time></trkpt><trkpt lat="43.4276" lon="10.65285"><ele>242.0</ele><time>2026-04-18T13:38:58.746Z</time></trkpt><trkpt lat="43.4276367" lon="10.6529667"><ele>240.39999999999998</ele><time>2026-04-18T13:38:59.742Z</time></trkpt><trkpt lat="43.4276417" lon="10.6531"><ele>238.79999999999998</ele><time>2026-04-18T13:39:00.744Z</time></trkpt><trkpt lat="43.427635" lon="10.6532283"><ele>237.2</ele><time>2026-04-18T13:39:01.743Z</time></trkpt><trkpt lat="43.42762" lon="10.653355"><ele>235.6</ele><time>2026-04-18T13:39:02.743Z</time></trkpt><trkpt lat="43.427585" lon="10.6534733"><ele>234.0</ele><time>2026-04-18T13:39:03.744Z</time></trkpt><trkpt lat="43.427535" lon="10.6535867"><ele>231.6</ele><time>2026-04-18T13:39:04.74Z</time></trkpt><trkpt lat="43.4274767" lon="10.6536933"><ele>229.2</ele><time>2026-04-18T13:39:05.746Z</time></trkpt><trkpt lat="43.4274083" lon="10.6537933"><ele>226.79999999999998</ele><time>2026-04-18T13:39:06.746Z</time></trkpt><trkpt lat="43.4273417" lon="10.6538983"><ele>224.39999999999998</ele><time>2026-04-18T13:39:07.745Z</time></trkpt><trkpt lat="43.4272933" lon="10.6540133"><ele>222.0</ele><time>2026-04-18T13:39:08.744Z</time></trkpt><trkpt lat="43.4272383" lon="10.6541083"><ele>222.0</ele><time>2026-04-18T13:39:09.742Z</time></trkpt><trkpt lat="43.4272" lon="10.65421"><ele>222.0</ele><time>2026-04-18T13:39:10.743Z</time></trkpt><trkpt lat="43.4271883" lon="10.6543283"><ele>222.0</ele><time>2026-04-18T13:39:11.745Z</time></trkpt><trkpt lat="43.4271933" lon="10.6544433"><ele>222.0</ele><time>2026-04-18T13:39:12.746Z</time></trkpt><trkpt lat="43.427215" lon="10.6545567"><ele>222.0</ele><time>2026-04-18T13:39:13.741Z</time></trkpt><trkpt lat="43.427265" lon="10.654665"><ele>222.0</ele><time>2026-04-18T13:39:14.748Z</time></trkpt><trkpt lat="43.427335" lon="10.65476"><ele>219.6</ele><time>2026-04-18T13:39:15.742Z</time></trkpt><trkpt lat="43.4274283" lon="10.6548283"><ele>217.2</ele><time>2026-04-18T13:39:16.741Z</time></trkpt><trkpt lat="43.42753" lon="10.6548817"><ele>214.8</ele><time>2026-04-18T13:39:17.742Z</time></trkpt><trkpt lat="43.4276333" lon="10.6549417"><ele>212.4</ele><time>2026-04-18T13:39:18.743Z</time></trkpt><trkpt lat="43.4277417" lon="10.6550067"><ele>210.0</ele><time>2026-04-18T13:39:19.741Z</time></trkpt><trkpt lat="43.4278583" lon="10.655065"><ele>210.0</ele><time>2026-04-18T13:39:20.744Z</time></trkpt><trkpt lat="43.4279733" lon="10.65515"><ele>210.0</ele><time>2026-04-18T13:39:21.743Z</time></trkpt><trkpt lat="43.428095" lon="10.6552233"><ele>210.0</ele><time>2026-04-18T13:39:22.744Z</time></trkpt><trkpt lat="43.4282033" lon="10.65532"><ele>210.0</ele><time>2026-04-18T13:39:23.748Z</time></trkpt><trkpt lat="43.42831" lon="10.6554167"><ele>206.0</ele><time>2026-04-18T13:39:24.749Z</time></trkpt><trkpt lat="43.4284083" lon="10.6555317"><ele>202.0</ele><time>2026-04-18T13:39:25.745Z</time></trkpt><trkpt lat="43.4284933" lon="10.655655"><ele>198.0</ele><time>2026-04-18T13:39:26.746Z</time></trkpt><trkpt lat="43.4285583" lon="10.6557833"><ele>194.0</ele><time>2026-04-18T13:39:27.749Z</time></trkpt><trkpt lat="43.4286167" lon="10.6558967"><ele>194.0</ele><time>2026-04-18T13:39:28.749Z</time></trkpt><trkpt lat="43.4286767" lon="10.655995"><ele>194.0</ele><time>2026-04-18T13:39:29.741Z</time></trkpt><trkpt lat="43.4287433" lon="10.6560817"><ele>194.0</ele><time>2026-04-18T13:39:30.744Z</time></trkpt><trkpt lat="43.4288283" lon="10.6561433"><ele>194.0</ele><time>2026-04-18T13:39:31.746Z</time></trkpt><trkpt lat="43.4289233" lon="10.6561883"><ele>194.0</ele><time>2026-04-18T13:39:32.75Z</time></trkpt><trkpt lat="43.4290317" lon="10.6562117"><ele>192.33333333333334</ele><time>2026-04-18T13:39:33.747Z</time></trkpt><trkpt lat="43.4291317" lon="10.656235"><ele>190.66666666666669</ele><time>2026-04-18T13:39:34.744Z</time></trkpt><trkpt lat="43.4292067" lon="10.6562683"><ele>189.0</ele><time>2026-04-18T13:39:35.743Z</time></trkpt><trkpt lat="43.429265" lon="10.6563217"><ele>187.33333333333334</ele><time>2026-04-18T13:39:36.748Z</time></trkpt><trkpt lat="43.4293183" lon="10.6563883"><ele>185.66666666666669</ele><time>2026-04-18T13:39:37.743Z</time></trkpt><trkpt lat="43.429375" lon="10.6564567"><ele>184.0</ele><time>2026-04-18T13:39:38.747Z</time></trkpt><trkpt lat="43.4294233" lon="10.6565167"><ele>184.0</ele><time>2026-04-18T13:39:39.745Z</time></trkpt><trkpt lat="43.4295117" lon="10.6566067"><ele>184.0</ele><time>2026-04-18T13:39:41.745Z</time></trkpt><trkpt lat="43.429565" lon="10.6566633"><ele>184.0</ele><time>2026-04-18T13:39:42.743Z</time></trkpt><trkpt lat="43.42965" lon="10.65672"><ele>184.0</ele><time>2026-04-18T13:39:43.743Z</time></trkpt><trkpt lat="43.4297533" lon="10.65679"><ele>184.0</ele><time>2026-04-18T13:39:44.745Z</time></trkpt><trkpt lat="43.429875" lon="10.656855"><ele>184.0</ele><time>2026-04-18T13:39:45.749Z</time></trkpt><trkpt lat="43.43" lon="10.6569317"><ele>184.0</ele><time>2026-04-18T13:39:46.75Z</time></trkpt><trkpt lat="43.4301183" lon="10.6570167"><ele>184.0</ele><time>2026-04-18T13:39:47.747Z</time></trkpt><trkpt lat="43.4302367" lon="10.6571033"><ele>184.0</ele><time>2026-04-18T13:39:48.748Z</time></trkpt><trkpt lat="43.4303617" lon="10.6571817"><ele>183.5</ele><time>2026-04-18T13:39:49.749Z</time></trkpt><trkpt lat="43.4304883" lon="10.6572667"><ele>183.0</ele><time>2026-04-18T13:39:50.751Z</time></trkpt><trkpt lat="43.4306183" lon="10.6573583"><ele>182.5</ele><time>2026-04-18T13:39:51.753Z</time></trkpt><trkpt lat="43.4307517" lon="10.657445"><ele>182.0</ele><time>2026-04-18T13:39:52.748Z</time></trkpt><trkpt lat="43.4308867" lon="10.657535"><ele>182.0</ele><time>2026-04-18T13:39:53.748Z</time></trkpt><trkpt lat="43.43102" lon="10.6576283"><ele>182.0</ele><time>2026-04-18T13:39:54.753Z</time></trkpt><trkpt lat="43.4311533" lon="10.65773"><ele>182.0</ele><time>2026-04-18T13:39:55.75Z</time></trkpt><trkpt lat="43.4312983" lon="10.6578333"><ele>181.66666666666666</ele><time>2026-04-18T13:39:56.753Z</time></trkpt><trkpt lat="43.431455" lon="10.6579333"><ele>181.33333333333334</ele><time>2026-04-18T13:39:57.751Z</time></trkpt><trkpt lat="43.43161" lon="10.6580283"><ele>181.0</ele><time>2026-04-18T13:39:58.755Z</time></trkpt><trkpt lat="43.43176" lon="10.6581267"><ele>181.0</ele><time>2026-04-18T13:39:59.746Z</time></trkpt><trkpt lat="43.4319067" lon="10.658225"><ele>181.0</ele><time>2026-04-18T13:40:00.755Z</time></trkpt><trkpt lat="43.4320433" lon="10.6583167"><ele>181.0</ele><time>2026-04-18T13:40:01.749Z</time></trkpt><trkpt lat="43.4321783" lon="10.6584083"><ele>180.75</ele><time>2026-04-18T13:40:02.751Z</time></trkpt><trkpt lat="43.4323133" lon="10.658495"><ele>180.5</ele><time>2026-04-18T13:40:03.75Z</time></trkpt><trkpt lat="43.4324467" lon="10.65858"><ele>180.25</ele><time>2026-04-18T13:40:04.75Z</time></trkpt><trkpt lat="43.4325667" lon="10.6586667"><ele>180.0</ele><time>2026-04-18T13:40:05.75Z</time></trkpt><trkpt lat="43.43268" lon="10.6587467"><ele>179.5</ele><time>2026-04-18T13:40:06.747Z</time></trkpt><trkpt lat="43.4327883" lon="10.65882"><ele>179.0</ele><time>2026-04-18T13:40:07.746Z</time></trkpt><trkpt lat="43.4328917" lon="10.6589133"><ele>178.5</ele><time>2026-04-18T13:40:08.751Z</time></trkpt><trkpt lat="43.432985" lon="10.6590267"><ele>178.0</ele><time>2026-04-18T13:40:09.746Z</time></trkpt><trkpt lat="43.4330567" lon="10.6591583"><ele>177.75</ele><time>2026-04-18T13:40:10.746Z</time></trkpt><trkpt lat="43.4331183" lon="10.659295"><ele>177.5</ele><time>2026-04-18T13:40:11.748Z</time></trkpt><trkpt lat="43.4331833" lon="10.65942"><ele>177.25</ele><time>2026-04-18T13:40:12.745Z</time></trkpt><trkpt lat="43.4332633" lon="10.6595317"><ele>177.0</ele><time>2026-04-18T13:40:13.746Z</time></trkpt><trkpt lat="43.4333683" lon="10.6596183"><ele>177.0</ele><time>2026-04-18T13:40:14.76Z</time></trkpt><trkpt lat="43.4334917" lon="10.6596833"><ele>177.0</ele><time>2026-04-18T13:40:15.745Z</time></trkpt><trkpt lat="43.4336233" lon="10.6597183"><ele>177.0</ele><time>2026-04-18T13:40:16.746Z</time></trkpt><trkpt lat="43.4337783" lon="10.6597567"><ele>177.0</ele><time>2026-04-18T13:40:17.751Z</time></trkpt><trkpt lat="43.4339367" lon="10.6598017"><ele>178.0</ele><time>2026-04-18T13:40:18.748Z</time></trkpt><trkpt lat="43.434095" lon="10.6598583"><ele>179.0</ele><time>2026-04-18T13:40:19.754Z</time></trkpt><trkpt lat="43.434255" lon="10.659925"><ele>180.0</ele><time>2026-04-18T13:40:20.746Z</time></trkpt><trkpt lat="43.4344233" lon="10.6599967"><ele>180.0</ele><time>2026-04-18T13:40:21.747Z</time></trkpt><trkpt lat="43.4346067" lon="10.6600783"><ele>180.0</ele><time>2026-04-18T13:40:22.749Z</time></trkpt><trkpt lat="43.4348033" lon="10.6601867"><ele>180.0</ele><time>2026-04-18T13:40:23.754Z</time></trkpt><trkpt lat="43.434995" lon="10.6603283"><ele>179.0</ele><time>2026-04-18T13:40:24.748Z</time></trkpt><trkpt lat="43.435175" lon="10.66047"><ele>178.0</ele><time>2026-04-18T13:40:25.748Z</time></trkpt><trkpt lat="43.4353467" lon="10.6605967"><ele>177.0</ele><time>2026-04-18T13:40:26.75Z</time></trkpt><trkpt lat="43.43551" lon="10.660725"><ele>177.0</ele><time>2026-04-18T13:40:27.746Z</time></trkpt><trkpt lat="43.4356667" lon="10.6608433"><ele>177.0</ele><time>2026-04-18T13:40:28.75Z</time></trkpt><trkpt lat="43.4358017" lon="10.6609533"><ele>177.0</ele><time>2026-04-18T13:40:29.749Z</time></trkpt><trkpt lat="43.4359433" lon="10.6610717"><ele>175.33333333333334</ele><time>2026-04-18T13:40:30.757Z</time></trkpt><trkpt lat="43.4360983" lon="10.66119"><ele>173.66666666666669</ele><time>2026-04-18T13:40:31.748Z</time></trkpt><trkpt lat="43.4362517" lon="10.6613117"><ele>172.0</ele><time>2026-04-18T13:40:32.747Z</time></trkpt><trkpt lat="43.43641" lon="10.6614333"><ele>172.0</ele><time>2026-04-18T13:40:33.753Z</time></trkpt><trkpt lat="43.4365767" lon="10.6615533"><ele>172.0</ele><time>2026-04-18T13:40:34.752Z</time></trkpt><trkpt lat="43.4367467" lon="10.6616633"><ele>172.0</ele><time>2026-04-18T13:40:35.755Z</time></trkpt><trkpt lat="43.4369233" lon="10.6617517"><ele>172.0</ele><time>2026-04-18T13:40:36.746Z</time></trkpt><trkpt lat="43.4371067" lon="10.6618333"><ele>172.0</ele><time>2026-04-18T13:40:37.748Z</time></trkpt><trkpt lat="43.4373" lon="10.66189"><ele>172.0</ele><time>2026-04-18T13:40:38.755Z</time></trkpt><trkpt lat="43.4374783" lon="10.6619617"><ele>171.33333333333334</ele><time>2026-04-18T13:40:39.747Z</time></trkpt><trkpt lat="43.4376517" lon="10.66203"><ele>170.66666666666666</ele><time>2026-04-18T13:40:40.746Z</time></trkpt><trkpt lat="43.4378217" lon="10.662085"><ele>170.0</ele><time>2026-04-18T13:40:41.746Z</time></trkpt><trkpt lat="43.4379867" lon="10.66215"><ele>170.0</ele><time>2026-04-18T13:40:42.749Z</time></trkpt><trkpt lat="43.4381433" lon="10.6622133"><ele>170.0</ele><time>2026-04-18T13:40:43.748Z</time></trkpt><trkpt lat="43.4383033" lon="10.6622733"><ele>170.0</ele><time>2026-04-18T13:40:44.752Z</time></trkpt><trkpt lat="43.43846" lon="10.66234"><ele>170.0</ele><time>2026-04-18T13:40:45.748Z</time></trkpt><trkpt lat="43.4386233" lon="10.66241"><ele>170.0</ele><time>2026-04-18T13:40:46.749Z</time></trkpt><trkpt lat="43.4387817" lon="10.6625117"><ele>170.0</ele><time>2026-04-18T13:40:47.755Z</time></trkpt><trkpt lat="43.4389333" lon="10.6626533"><ele>169.66666666666666</ele><time>2026-04-18T13:40:48.756Z</time></trkpt><trkpt lat="43.4390983" lon="10.6628167"><ele>169.33333333333334</ele><time>2026-04-18T13:40:49.754Z</time></trkpt><trkpt lat="43.4392567" lon="10.6630033"><ele>169.0</ele><time>2026-04-18T13:40:50.749Z</time></trkpt><trkpt lat="43.4394017" lon="10.663205"><ele>169.0</ele><time>2026-04-18T13:40:51.749Z</time></trkpt><trkpt lat="43.4395433" lon="10.663395"><ele>169.0</ele><time>2026-04-18T13:40:52.75Z</time></trkpt><trkpt lat="43.4396817" lon="10.6635717"><ele>169.0</ele><time>2026-04-18T13:40:53.749Z</time></trkpt><trkpt lat="43.4398217" lon="10.6637483"><ele>167.66666666666669</ele><time>2026-04-18T13:40:54.753Z</time></trkpt><trkpt lat="43.439955" lon="10.6639283"><ele>166.33333333333334</ele><time>2026-04-18T13:40:55.76Z</time></trkpt><trkpt lat="43.44008" lon="10.6641017"><ele>165.0</ele><time>2026-04-18T13:40:56.751Z</time></trkpt><trkpt lat="43.440215" lon="10.66425"><ele>165.0</ele><time>2026-04-18T13:40:57.748Z</time></trkpt><trkpt lat="43.4403533" lon="10.6643917"><ele>165.0</ele><time>2026-04-18T13:40:58.746Z</time></trkpt><trkpt lat="43.4405067" lon="10.664515"><ele>165.0</ele><time>2026-04-18T13:40:59.746Z</time></trkpt><trkpt lat="43.44067" lon="10.664625"><ele>164.0</ele><time>2026-04-18T13:41:00.751Z</time></trkpt><trkpt lat="43.4408483" lon="10.6647067"><ele>163.0</ele><time>2026-04-18T13:41:01.763Z</time></trkpt><trkpt lat="43.4410317" lon="10.6647683"><ele>162.0</ele><time>2026-04-18T13:41:02.79Z</time></trkpt><trkpt lat="43.4412167" lon="10.664835"><ele>161.66666666666666</ele><time>2026-04-18T13:41:03.757Z</time></trkpt><trkpt lat="43.4414017" lon="10.6648817"><ele>161.33333333333331</ele><time>2026-04-18T13:41:04.756Z</time></trkpt><trkpt lat="43.4415833" lon="10.66494"><ele>161.0</ele><time>2026-04-18T13:41:05.76Z</time></trkpt><trkpt lat="43.441765" lon="10.665"><ele>161.0</ele><time>2026-04-18T13:41:06.746Z</time></trkpt><trkpt lat="43.4419483" lon="10.665055"><ele>161.0</ele><time>2026-04-18T13:41:07.771Z</time></trkpt><trkpt lat="43.4421333" lon="10.66511"><ele>161.0</ele><time>2026-04-18T13:41:08.758Z</time></trkpt><trkpt lat="43.4423183" lon="10.6651683"><ele>160.33333333333331</ele><time>2026-04-18T13:41:09.752Z</time></trkpt><trkpt lat="43.442505" lon="10.6652183"><ele>159.66666666666666</ele><time>2026-04-18T13:41:10.749Z</time></trkpt><trkpt lat="43.44269" lon="10.66527"><ele>159.0</ele><time>2026-04-18T13:41:11.748Z</time></trkpt><trkpt lat="43.442875" lon="10.66532"><ele>158.33333333333334</ele><time>2026-04-18T13:41:12.75Z</time></trkpt><trkpt lat="43.44306" lon="10.6653783"><ele>157.66666666666669</ele><time>2026-04-18T13:41:13.748Z</time></trkpt><trkpt lat="43.4432417" lon="10.6654283"><ele>157.0</ele><time>2026-04-18T13:41:14.752Z</time></trkpt><trkpt lat="43.4434183" lon="10.6654817"><ele>157.0</ele><time>2026-04-18T13:41:15.748Z</time></trkpt><trkpt lat="43.4435883" lon="10.6655367"><ele>157.0</ele><time>2026-04-18T13:41:16.75Z</time></trkpt><trkpt lat="43.443755" lon="10.6655967"><ele>157.0</ele><time>2026-04-18T13:41:17.751Z</time></trkpt><trkpt lat="43.443925" lon="10.6656617"><ele>157.0</ele><time>2026-04-18T13:41:18.748Z</time></trkpt><trkpt lat="43.4440967" lon="10.6657283"><ele>157.0</ele><time>2026-04-18T13:41:19.751Z</time></trkpt><trkpt lat="43.4442667" lon="10.665805"><ele>157.0</ele><time>2026-04-18T13:41:20.755Z</time></trkpt><trkpt lat="43.44444" lon="10.6658883"><ele>157.0</ele><time>2026-04-18T13:41:21.75Z</time></trkpt><trkpt lat="43.4446183" lon="10.66597"><ele>157.0</ele><time>2026-04-18T13:41:22.762Z</time></trkpt><trkpt lat="43.4448083" lon="10.6660483"><ele>157.0</ele><time>2026-04-18T13:41:23.753Z</time></trkpt><trkpt lat="43.4450117" lon="10.66613"><ele>155.0</ele><time>2026-04-18T13:41:24.751Z</time></trkpt><trkpt lat="43.4452217" lon="10.666225"><ele>153.0</ele><time>2026-04-18T13:41:25.752Z</time></trkpt><trkpt lat="43.4454433" lon="10.6663233"><ele>153.0</ele><time>2026-04-18T13:41:26.752Z</time></trkpt><trkpt lat="43.44566" lon="10.666415"><ele>153.0</ele><time>2026-04-18T13:41:27.752Z</time></trkpt><trkpt lat="43.4458667" lon="10.66651"><ele>153.0</ele><time>2026-04-18T13:41:28.756Z</time></trkpt><trkpt lat="43.4460667" lon="10.666585"><ele>153.0</ele><time>2026-04-18T13:41:29.747Z</time></trkpt><trkpt lat="43.4462583" lon="10.6666633"><ele>153.0</ele><time>2026-04-18T13:41:30.752Z</time></trkpt><trkpt lat="43.446445" lon="10.6667467"><ele>153.0</ele><time>2026-04-18T13:41:31.751Z</time></trkpt><trkpt lat="43.4466367" lon="10.6668317"><ele>152.33333333333334</ele><time>2026-04-18T13:41:32.768Z</time></trkpt><trkpt lat="43.4468383" lon="10.66691"><ele>151.66666666666669</ele><time>2026-04-18T13:41:33.753Z</time></trkpt><trkpt lat="43.4470533" lon="10.66699"><ele>151.0</ele><time>2026-04-18T13:41:34.753Z</time></trkpt><trkpt lat="43.4472833" lon="10.66708"><ele>150.5</ele><time>2026-04-18T13:41:35.761Z</time></trkpt><trkpt lat="43.4475133" lon="10.6671917"><ele>150.0</ele><time>2026-04-18T13:41:36.765Z</time></trkpt><trkpt lat="43.447745" lon="10.667265"><ele>150.0</ele><time>2026-04-18T13:41:37.75Z</time></trkpt><trkpt lat="43.4479617" lon="10.66736"><ele>150.0</ele><time>2026-04-18T13:41:38.755Z</time></trkpt><trkpt lat="43.4481683" lon="10.6674333"><ele>150.0</ele><time>2026-04-18T13:41:39.763Z</time></trkpt><trkpt lat="43.4483633" lon="10.66751"><ele>150.0</ele><time>2026-04-18T13:41:40.756Z</time></trkpt><trkpt lat="43.4485517" lon="10.6675717"><ele>150.0</ele><time>2026-04-18T13:41:41.758Z</time></trkpt><trkpt lat="43.448735" lon="10.6676167"><ele>150.0</ele><time>2026-04-18T13:41:42.755Z</time></trkpt><trkpt lat="43.4489183" lon="10.6676467"><ele>150.33333333333334</ele><time>2026-04-18T13:41:43.759Z</time></trkpt><trkpt lat="43.4491033" lon="10.6676567"><ele>150.66666666666669</ele><time>2026-04-18T13:41:44.755Z</time></trkpt><trkpt lat="43.4492867" lon="10.6676517"><ele>151.0</ele><time>2026-04-18T13:41:45.757Z</time></trkpt><trkpt lat="43.4494683" lon="10.6676183"><ele>150.33333333333334</ele><time>2026-04-18T13:41:46.751Z</time></trkpt><trkpt lat="43.4496367" lon="10.667555"><ele>149.66666666666666</ele><time>2026-04-18T13:41:47.749Z</time></trkpt><trkpt lat="43.4497933" lon="10.6674683"><ele>149.0</ele><time>2026-04-18T13:41:48.747Z</time></trkpt><trkpt lat="43.4499467" lon="10.667395"><ele>149.0</ele><time>2026-04-18T13:41:49.754Z</time></trkpt><trkpt lat="43.4500917" lon="10.6673283"><ele>149.0</ele><time>2026-04-18T13:41:50.755Z</time></trkpt><trkpt lat="43.45023" lon="10.6672767"><ele>149.0</ele><time>2026-04-18T13:41:51.747Z</time></trkpt><trkpt lat="43.4503667" lon="10.6672517"><ele>149.0</ele><time>2026-04-18T13:41:52.769Z</time></trkpt><trkpt lat="43.4505033" lon="10.66725"><ele>149.0</ele><time>2026-04-18T13:41:53.75Z</time></trkpt><trkpt lat="43.4506467" lon="10.6672767"><ele>149.0</ele><time>2026-04-18T13:41:54.751Z</time></trkpt><trkpt lat="43.4508183" lon="10.6673033"><ele>149.0</ele><time>2026-04-18T13:41:55.768Z</time></trkpt><trkpt lat="43.451005" lon="10.6673467"><ele>149.0</ele><time>2026-04-18T13:41:56.762Z</time></trkpt><trkpt lat="43.4512" lon="10.6673967"><ele>149.0</ele><time>2026-04-18T13:41:57.763Z</time></trkpt><trkpt lat="43.4513917" lon="10.6674433"><ele>149.0</ele><time>2026-04-18T13:41:58.751Z</time></trkpt><trkpt lat="43.451575" lon="10.6674917"><ele>149.66666666666666</ele><time>2026-04-18T13:41:59.75Z</time></trkpt><trkpt lat="43.4517533" lon="10.6675267"><ele>150.33333333333334</ele><time>2026-04-18T13:42:00.758Z</time></trkpt><trkpt lat="43.45193" lon="10.6675633"><ele>151.0</ele><time>2026-04-18T13:42:01.752Z</time></trkpt><trkpt lat="43.4521033" lon="10.6675883"><ele>150.33333333333334</ele><time>2026-04-18T13:42:02.75Z</time></trkpt><trkpt lat="43.4522733" lon="10.6676017"><ele>149.66666666666666</ele><time>2026-04-18T13:42:03.748Z</time></trkpt><trkpt lat="43.4524517" lon="10.6676067"><ele>149.0</ele><time>2026-04-18T13:42:04.748Z</time></trkpt><trkpt lat="43.4526367" lon="10.6676117"><ele>149.0</ele><time>2026-04-18T13:42:05.749Z</time></trkpt><trkpt lat="43.452835" lon="10.667605"><ele>149.0</ele><time>2026-04-18T13:42:06.757Z</time></trkpt><trkpt lat="43.4530317" lon="10.6675967"><ele>149.0</ele><time>2026-04-18T13:42:07.762Z</time></trkpt><trkpt lat="43.4532233" lon="10.6676033"><ele>148.66666666666666</ele><time>2026-04-18T13:42:08.754Z</time></trkpt><trkpt lat="43.4534083" lon="10.6676183"><ele>148.33333333333334</ele><time>2026-04-18T13:42:09.757Z</time></trkpt><trkpt lat="43.4535933" lon="10.66764"><ele>148.0</ele><time>2026-04-18T13:42:10.755Z</time></trkpt><trkpt lat="43.4537817" lon="10.667665"><ele>147.0</ele><time>2026-04-18T13:42:11.768Z</time></trkpt><trkpt lat="43.4539783" lon="10.66769"><ele>146.0</ele><time>2026-04-18T13:42:12.751Z</time></trkpt><trkpt lat="43.454185" lon="10.66773"><ele>145.0</ele><time>2026-04-18T13:42:13.748Z</time></trkpt><trkpt lat="43.4543983" lon="10.6677767"><ele>144.66666666666669</ele><time>2026-04-18T13:42:14.755Z</time></trkpt><trkpt lat="43.4546067" lon="10.6678117"><ele>144.33333333333334</ele><time>2026-04-18T13:42:15.75Z</time></trkpt><trkpt lat="43.4548067" lon="10.6678467"><ele>144.0</ele><time>2026-04-18T13:42:16.751Z</time></trkpt><trkpt lat="43.455" lon="10.6678817"><ele>144.0</ele><time>2026-04-18T13:42:17.753Z</time></trkpt><trkpt lat="43.4551867" lon="10.6679133"><ele>144.0</ele><time>2026-04-18T13:42:18.751Z</time></trkpt><trkpt lat="43.4553733" lon="10.6679433"><ele>144.0</ele><time>2026-04-18T13:42:19.756Z</time></trkpt><trkpt lat="43.4555683" lon="10.66798"><ele>143.66666666666666</ele><time>2026-04-18T13:42:20.747Z</time></trkpt><trkpt lat="43.4557717" lon="10.6680483"><ele>143.33333333333331</ele><time>2026-04-18T13:42:21.752Z</time></trkpt><trkpt lat="43.455975" lon="10.6681633"><ele>143.0</ele><time>2026-04-18T13:42:22.742Z</time></trkpt><trkpt lat="43.4561767" lon="10.6682983"><ele>142.66666666666666</ele><time>2026-04-18T13:42:23.748Z</time></trkpt><trkpt lat="43.4563717" lon="10.6684383"><ele>142.33333333333334</ele><time>2026-04-18T13:42:24.75Z</time></trkpt><trkpt lat="43.45656" lon="10.6685667"><ele>142.0</ele><time>2026-04-18T13:42:25.753Z</time></trkpt><trkpt lat="43.4567483" lon="10.66869"><ele>141.66666666666669</ele><time>2026-04-18T13:42:26.752Z</time></trkpt><trkpt lat="43.4569367" lon="10.668815"><ele>141.33333333333334</ele><time>2026-04-18T13:42:27.755Z</time></trkpt><trkpt lat="43.4571233" lon="10.6689483"><ele>141.0</ele><time>2026-04-18T13:42:28.746Z</time></trkpt><trkpt lat="43.4573167" lon="10.6690917"><ele>140.5</ele><time>2026-04-18T13:42:29.751Z</time></trkpt><trkpt lat="43.457515" lon="10.6692417"><ele>140.0</ele><time>2026-04-18T13:42:30.752Z</time></trkpt><trkpt lat="43.4577183" lon="10.6693883"><ele>139.5</ele><time>2026-04-18T13:42:31.752Z</time></trkpt><trkpt lat="43.4579233" lon="10.6695417"><ele>139.0</ele><time>2026-04-18T13:42:32.756Z</time></trkpt><trkpt lat="43.458135" lon="10.6696867"><ele>139.0</ele><time>2026-04-18T13:42:33.76Z</time></trkpt><trkpt lat="43.4583483" lon="10.6698383"><ele>139.0</ele><time>2026-04-18T13:42:34.745Z</time></trkpt><trkpt lat="43.45856" lon="10.6699967"><ele>139.0</ele><time>2026-04-18T13:42:35.753Z</time></trkpt><trkpt lat="43.458775" lon="10.67015"><ele>139.0</ele><time>2026-04-18T13:42:36.755Z</time></trkpt><trkpt lat="43.4589917" lon="10.670305"><ele>137.0</ele><time>2026-04-18T13:42:37.752Z</time></trkpt><trkpt lat="43.4592117" lon="10.6704583"><ele>135.0</ele><time>2026-04-18T13:42:38.75Z</time></trkpt><trkpt lat="43.4594233" lon="10.6706233"><ele>136.0</ele><time>2026-04-18T13:42:39.752Z</time></trkpt><trkpt lat="43.4596383" lon="10.67079"><ele>137.0</ele><time>2026-04-18T13:42:40.748Z</time></trkpt><trkpt lat="43.4598583" lon="10.6709483"><ele>135.0</ele><time>2026-04-18T13:42:41.752Z</time></trkpt><trkpt lat="43.46008" lon="10.6711117"><ele>133.0</ele><time>2026-04-18T13:42:42.75Z</time></trkpt><trkpt lat="43.4603" lon="10.6712767"><ele>132.5</ele><time>2026-04-18T13:42:43.755Z</time></trkpt><trkpt lat="43.4605233" lon="10.6714367"><ele>132.0</ele><time>2026-04-18T13:42:44.753Z</time></trkpt><trkpt lat="43.4607467" lon="10.6716017"><ele>132.0</ele><time>2026-04-18T13:42:45.752Z</time></trkpt><trkpt lat="43.4609683" lon="10.67176"><ele>132.0</ele><time>2026-04-18T13:42:46.753Z</time></trkpt><trkpt lat="43.46119" lon="10.6719167"><ele>131.5</ele><time>2026-04-18T13:42:47.747Z</time></trkpt><trkpt lat="43.4614083" lon="10.6720733"><ele>131.0</ele><time>2026-04-18T13:42:48.749Z</time></trkpt><trkpt lat="43.461625" lon="10.6722333"><ele>131.0</ele><time>2026-04-18T13:42:49.75Z</time></trkpt><trkpt lat="43.46184" lon="10.6723833"><ele>131.0</ele><time>2026-04-18T13:42:50.752Z</time></trkpt><trkpt lat="43.4620417" lon="10.6725367"><ele>130.66666666666666</ele><time>2026-04-18T13:42:51.749Z</time></trkpt><trkpt lat="43.46224" lon="10.6726733"><ele>130.33333333333334</ele><time>2026-04-18T13:42:52.752Z</time></trkpt><trkpt lat="43.4624317" lon="10.672815"><ele>130.0</ele><time>2026-04-18T13:42:53.756Z</time></trkpt><trkpt lat="43.4626317" lon="10.6729467"><ele>130.0</ele><time>2026-04-18T13:42:54.75Z</time></trkpt><trkpt lat="43.4628333" lon="10.67309"><ele>130.0</ele><time>2026-04-18T13:42:55.752Z</time></trkpt><trkpt lat="43.46304" lon="10.6732433"><ele>131.0</ele><time>2026-04-18T13:42:56.754Z</time></trkpt><trkpt lat="43.4632533" lon="10.6734"><ele>132.0</ele><time>2026-04-18T13:42:57.753Z</time></trkpt><trkpt lat="43.463475" lon="10.673555"><ele>130.0</ele><time>2026-04-18T13:42:58.755Z</time></trkpt><trkpt lat="43.4636983" lon="10.6737167"><ele>128.0</ele><time>2026-04-18T13:42:59.762Z</time></trkpt><trkpt lat="43.4639217" lon="10.673875"><ele>128.0</ele><time>2026-04-18T13:43:00.75Z</time></trkpt><trkpt lat="43.4641367" lon="10.6740233"><ele>128.0</ele><time>2026-04-18T13:43:01.755Z</time></trkpt><trkpt lat="43.4643433" lon="10.6741767"><ele>128.0</ele><time>2026-04-18T13:43:02.754Z</time></trkpt><trkpt lat="43.464545" lon="10.6743383"><ele>128.0</ele><time>2026-04-18T13:43:03.75Z</time></trkpt><trkpt lat="43.4647367" lon="10.6745267"><ele>127.0</ele><time>2026-04-18T13:43:04.76Z</time></trkpt><trkpt lat="43.46492" lon="10.674735"><ele>126.0</ele><time>2026-04-18T13:43:05.747Z</time></trkpt><trkpt lat="43.465095" lon="10.6749583"><ele>126.0</ele><time>2026-04-18T13:43:06.756Z</time></trkpt><trkpt lat="43.4652533" lon="10.675205"><ele>126.0</ele><time>2026-04-18T13:43:07.748Z</time></trkpt><trkpt lat="43.4653883" lon="10.6754767"><ele>128.0</ele><time>2026-04-18T13:43:08.75Z</time></trkpt><trkpt lat="43.4655133" lon="10.6757617"><ele>130.0</ele><time>2026-04-18T13:43:09.747Z</time></trkpt><trkpt lat="43.4656333" lon="10.6760517"><ele>129.0</ele><time>2026-04-18T13:43:10.748Z</time></trkpt><trkpt lat="43.4657417" lon="10.6763483"><ele>128.0</ele><time>2026-04-18T13:43:11.751Z</time></trkpt><trkpt lat="43.46586" lon="10.67664"><ele>128.0</ele><time>2026-04-18T13:43:12.754Z</time></trkpt><trkpt lat="43.4659767" lon="10.6769317"><ele>128.0</ele><time>2026-04-18T13:43:13.75Z</time></trkpt><trkpt lat="43.46609" lon="10.677225"><ele>128.5</ele><time>2026-04-18T13:43:14.755Z</time></trkpt><trkpt lat="43.466205" lon="10.6775183"><ele>129.0</ele><time>2026-04-18T13:43:15.746Z</time></trkpt><trkpt lat="43.466315" lon="10.677815"><ele>129.0</ele><time>2026-04-18T13:43:16.747Z</time></trkpt><trkpt lat="43.466425" lon="10.67811"><ele>129.0</ele><time>2026-04-18T13:43:17.755Z</time></trkpt><trkpt lat="43.466535" lon="10.6784067"><ele>125.0</ele><time>2026-04-18T13:43:18.75Z</time></trkpt><trkpt lat="43.46664" lon="10.6787017"><ele>121.0</ele><time>2026-04-18T13:43:19.747Z</time></trkpt><trkpt lat="43.4667617" lon="10.6789733"><ele>121.0</ele><time>2026-04-18T13:43:20.765Z</time></trkpt><trkpt lat="43.4668933" lon="10.6792233"><ele>121.0</ele><time>2026-04-18T13:43:21.754Z</time></trkpt><trkpt lat="43.467025" lon="10.6794717"><ele>121.0</ele><time>2026-04-18T13:43:22.751Z</time></trkpt><trkpt lat="43.46716" lon="10.6797167"><ele>121.0</ele><time>2026-04-18T13:43:23.752Z</time></trkpt><trkpt lat="43.4672967" lon="10.6799517"><ele>121.0</ele><time>2026-04-18T13:43:24.747Z</time></trkpt><trkpt lat="43.4674267" lon="10.68018"><ele>121.0</ele><time>2026-04-18T13:43:25.753Z</time></trkpt><trkpt lat="43.467555" lon="10.6804033"><ele>120.33333333333334</ele><time>2026-04-18T13:43:26.752Z</time></trkpt><trkpt lat="43.4676883" lon="10.6806233"><ele>119.66666666666666</ele><time>2026-04-18T13:43:27.751Z</time></trkpt><trkpt lat="43.467815" lon="10.6808467"><ele>119.0</ele><time>2026-04-18T13:43:28.748Z</time></trkpt><trkpt lat="43.4679417" lon="10.6810667"><ele>121.33333333333333</ele><time>2026-04-18T13:43:29.75Z</time></trkpt><trkpt lat="43.4680633" lon="10.6812817"><ele>123.66666666666666</ele><time>2026-04-18T13:43:30.753Z</time></trkpt><trkpt lat="43.4681883" lon="10.6814917"><ele>126.0</ele><time>2026-04-18T13:43:31.748Z</time></trkpt><trkpt lat="43.468315" lon="10.6817017"><ele>126.0</ele><time>2026-04-18T13:43:32.755Z</time></trkpt><trkpt lat="43.46843" lon="10.6819133"><ele>126.0</ele><time>2026-04-18T13:43:33.752Z</time></trkpt><trkpt lat="43.468545" lon="10.6821017"><ele>126.0</ele><time>2026-04-18T13:43:34.752Z</time></trkpt><trkpt lat="43.468635" lon="10.6823"><ele>124.66666666666666</ele><time>2026-04-18T13:43:35.75Z</time></trkpt><trkpt lat="43.46871" lon="10.6824967"><ele>123.33333333333333</ele><time>2026-04-18T13:43:36.75Z</time></trkpt><trkpt lat="43.468755" lon="10.6827033"><ele>122.0</ele><time>2026-04-18T13:43:37.754Z</time></trkpt><trkpt lat="43.46876" lon="10.6829417"><ele>121.33333333333333</ele><time>2026-04-18T13:43:38.758Z</time></trkpt><trkpt lat="43.4687467" lon="10.683185"><ele>120.66666666666666</ele><time>2026-04-18T13:43:39.75Z</time></trkpt><trkpt lat="43.4687083" lon="10.6834217"><ele>120.0</ele><time>2026-04-18T13:43:40.746Z</time></trkpt><trkpt lat="43.4686967" lon="10.6836483"><ele>119.0</ele><time>2026-04-18T13:43:41.746Z</time></trkpt><trkpt lat="43.4687083" lon="10.68386"><ele>118.0</ele><time>2026-04-18T13:43:42.754Z</time></trkpt><trkpt lat="43.46876" lon="10.6840567"><ele>117.0</ele><time>2026-04-18T13:43:43.754Z</time></trkpt><trkpt lat="43.4688383" lon="10.6842383"><ele>117.0</ele><time>2026-04-18T13:43:44.751Z</time></trkpt><trkpt lat="43.4689533" lon="10.6843983"><ele>117.0</ele><time>2026-04-18T13:43:45.751Z</time></trkpt><trkpt lat="43.469095" lon="10.6845433"><ele>117.0</ele><time>2026-04-18T13:43:46.748Z</time></trkpt><trkpt lat="43.4692583" lon="10.6846933"><ele>117.0</ele><time>2026-04-18T13:43:47.754Z</time></trkpt><trkpt lat="43.46945" lon="10.6848517"><ele>117.0</ele><time>2026-04-18T13:43:48.75Z</time></trkpt><trkpt lat="43.469645" lon="10.68502"><ele>115.0</ele><time>2026-04-18T13:43:49.753Z</time></trkpt><trkpt lat="43.469845" lon="10.6851967"><ele>113.0</ele><time>2026-04-18T13:43:50.751Z</time></trkpt><trkpt lat="43.47006" lon="10.68538"><ele>113.0</ele><time>2026-04-18T13:43:51.759Z</time></trkpt><trkpt lat="43.4702883" lon="10.685545"><ele>113.0</ele><time>2026-04-18T13:43:52.759Z</time></trkpt><trkpt lat="43.470515" lon="10.6857017"><ele>113.5</ele><time>2026-04-18T13:43:53.755Z</time></trkpt><trkpt lat="43.4707333" lon="10.68584"><ele>114.0</ele><time>2026-04-18T13:43:54.757Z</time></trkpt><trkpt lat="43.47095" lon="10.685975"><ele>113.5</ele><time>2026-04-18T13:43:55.75Z</time></trkpt><trkpt lat="43.4711633" lon="10.6861317"><ele>113.0</ele><time>2026-04-18T13:43:56.754Z</time></trkpt><trkpt lat="43.47137" lon="10.68632"><ele>113.0</ele><time>2026-04-18T13:43:57.75Z</time></trkpt><trkpt lat="43.4715667" lon="10.6865417"><ele>113.0</ele><time>2026-04-18T13:43:58.747Z</time></trkpt><trkpt lat="43.4717417" lon="10.6867733"><ele>112.0</ele><time>2026-04-18T13:43:59.747Z</time></trkpt><trkpt lat="43.4718967" lon="10.6870117"><ele>111.0</ele><time>2026-04-18T13:44:00.748Z</time></trkpt><trkpt lat="43.4720367" lon="10.6872533"><ele>110.66666666666666</ele><time>2026-04-18T13:44:01.75Z</time></trkpt><trkpt lat="43.4721667" lon="10.6875017"><ele>110.33333333333333</ele><time>2026-04-18T13:44:02.755Z</time></trkpt><trkpt lat="43.47229" lon="10.6877617"><ele>110.0</ele><time>2026-04-18T13:44:03.75Z</time></trkpt><trkpt lat="43.4724133" lon="10.6880267"><ele>110.0</ele><time>2026-04-18T13:44:04.751Z</time></trkpt><trkpt lat="43.472535" lon="10.6883017"><ele>110.0</ele><time>2026-04-18T13:44:05.747Z</time></trkpt><trkpt lat="43.472655" lon="10.68858"><ele>109.33333333333333</ele><time>2026-04-18T13:44:06.743Z</time></trkpt><trkpt lat="43.4727667" lon="10.6888517"><ele>108.66666666666666</ele><time>2026-04-18T13:44:07.75Z</time></trkpt><trkpt lat="43.472865" lon="10.6891217"><ele>108.0</ele><time>2026-04-18T13:44:08.75Z</time></trkpt><trkpt lat="43.47296" lon="10.6893933"><ele>109.33333333333334</ele><time>2026-04-18T13:44:09.751Z</time></trkpt><trkpt lat="43.473065" lon="10.6896617"><ele>110.66666666666667</ele><time>2026-04-18T13:44:10.748Z</time></trkpt><trkpt lat="43.4731667" lon="10.689935"><ele>112.0</ele><time>2026-04-18T13:44:11.751Z</time></trkpt><trkpt lat="43.473275" lon="10.690205"><ele>110.0</ele><time>2026-04-18T13:44:12.757Z</time></trkpt><trkpt lat="43.4733783" lon="10.69048"><ele>108.0</ele><time>2026-04-18T13:44:13.75Z</time></trkpt><trkpt lat="43.4734883" lon="10.690755"><ele>108.0</ele><time>2026-04-18T13:44:14.748Z</time></trkpt><trkpt lat="43.4735967" lon="10.6910333"><ele>108.0</ele><time>2026-04-18T13:44:15.747Z</time></trkpt><trkpt lat="43.473705" lon="10.6913167"><ele>111.5</ele><time>2026-04-18T13:44:16.747Z</time></trkpt><trkpt lat="43.473815" lon="10.6916033"><ele>115.0</ele><time>2026-04-18T13:44:17.753Z</time></trkpt><trkpt lat="43.4739233" lon="10.6918983"><ele>112.0</ele><time>2026-04-18T13:44:18.751Z</time></trkpt><trkpt lat="43.4740333" lon="10.6921983"><ele>109.0</ele><time>2026-04-18T13:44:19.749Z</time></trkpt><trkpt lat="43.4741483" lon="10.6925"><ele>107.5</ele><time>2026-04-18T13:44:20.754Z</time></trkpt><trkpt lat="43.4742633" lon="10.6928083"><ele>106.0</ele><time>2026-04-18T13:44:21.75Z</time></trkpt><trkpt lat="43.47438" lon="10.69312"><ele>106.0</ele><time>2026-04-18T13:44:22.749Z</time></trkpt><trkpt lat="43.474495" lon="10.693435"><ele>106.0</ele><time>2026-04-18T13:44:23.757Z</time></trkpt><trkpt lat="43.4746083" lon="10.6937533"><ele>108.5</ele><time>2026-04-18T13:44:24.748Z</time></trkpt><trkpt lat="43.4747283" lon="10.69407"><ele>111.0</ele><time>2026-04-18T13:44:25.747Z</time></trkpt><trkpt lat="43.4748567" lon="10.6943817"><ele>107.5</ele><time>2026-04-18T13:44:26.748Z</time></trkpt><trkpt lat="43.4749967" lon="10.6946883"><ele>104.0</ele><time>2026-04-18T13:44:27.747Z</time></trkpt><trkpt lat="43.475155" lon="10.69499"><ele>105.0</ele><time>2026-04-18T13:44:28.745Z</time></trkpt><trkpt lat="43.4753183" lon="10.6953083"><ele>106.0</ele><time>2026-04-18T13:44:29.751Z</time></trkpt><trkpt lat="43.4754933" lon="10.6956333"><ele>106.0</ele><time>2026-04-18T13:44:30.749Z</time></trkpt><trkpt lat="43.4756867" lon="10.69594"><ele>106.0</ele><time>2026-04-18T13:44:31.747Z</time></trkpt><trkpt lat="43.47585" lon="10.6962583"><ele>104.0</ele><time>2026-04-18T13:44:32.751Z</time></trkpt><trkpt lat="43.4760133" lon="10.6965567"><ele>102.0</ele><time>2026-04-18T13:44:33.754Z</time></trkpt><trkpt lat="43.4761767" lon="10.6968417"><ele>101.0</ele><time>2026-04-18T13:44:34.758Z</time></trkpt><trkpt lat="43.4763467" lon="10.697115"><ele>100.0</ele><time>2026-04-18T13:44:35.754Z</time></trkpt><trkpt lat="43.4765317" lon="10.6973567"><ele>100.0</ele><time>2026-04-18T13:44:36.748Z</time></trkpt><trkpt lat="43.476705" lon="10.6975783"><ele>100.0</ele><time>2026-04-18T13:44:37.747Z</time></trkpt><trkpt lat="43.4768667" lon="10.6977867"><ele>99.0</ele><time>2026-04-18T13:44:38.753Z</time></trkpt><trkpt lat="43.477025" lon="10.69798"><ele>98.0</ele><time>2026-04-18T13:44:39.764Z</time></trkpt><trkpt lat="43.4771783" lon="10.6981667"><ele>97.0</ele><time>2026-04-18T13:44:40.754Z</time></trkpt><trkpt lat="43.4773217" lon="10.6983517"><ele>96.66666666666667</ele><time>2026-04-18T13:44:41.75Z</time></trkpt><trkpt lat="43.47746" lon="10.69853"><ele>96.33333333333334</ele><time>2026-04-18T13:44:42.751Z</time></trkpt><trkpt lat="43.4775917" lon="10.6987017"><ele>96.0</ele><time>2026-04-18T13:44:43.748Z</time></trkpt><trkpt lat="43.4777233" lon="10.698865"><ele>96.33333333333334</ele><time>2026-04-18T13:44:44.756Z</time></trkpt><trkpt lat="43.47785" lon="10.6990233"><ele>96.66666666666667</ele><time>2026-04-18T13:44:45.751Z</time></trkpt><trkpt lat="43.47797" lon="10.6991783"><ele>97.0</ele><time>2026-04-18T13:44:46.752Z</time></trkpt><trkpt lat="43.47809" lon="10.6993267"><ele>96.66666666666667</ele><time>2026-04-18T13:44:47.748Z</time></trkpt><trkpt lat="43.4782033" lon="10.6994717"><ele>96.33333333333334</ele><time>2026-04-18T13:44:48.749Z</time></trkpt><trkpt lat="43.4783167" lon="10.69961"><ele>96.0</ele><time>2026-04-18T13:44:49.752Z</time></trkpt><trkpt lat="43.478425" lon="10.69975"><ele>96.0</ele><time>2026-04-18T13:44:50.755Z</time></trkpt><trkpt lat="43.4785317" lon="10.6998817"><ele>96.0</ele><time>2026-04-18T13:44:51.753Z</time></trkpt><trkpt lat="43.47863" lon="10.70001"><ele>96.0</ele><time>2026-04-18T13:44:52.743Z</time></trkpt><trkpt lat="43.47872" lon="10.7001217"><ele>96.0</ele><time>2026-04-18T13:44:53.747Z</time></trkpt><trkpt lat="43.4788" lon="10.700225"><ele>95.5</ele><time>2026-04-18T13:44:54.746Z</time></trkpt><trkpt lat="43.4788733" lon="10.70032"><ele>95.0</ele><time>2026-04-18T13:44:55.75Z</time></trkpt><trkpt lat="43.4789383" lon="10.7004083"><ele>94.5</ele><time>2026-04-18T13:44:56.754Z</time></trkpt><trkpt lat="43.4789967" lon="10.700485"><ele>94.0</ele><time>2026-04-18T13:44:57.75Z</time></trkpt><trkpt lat="43.4790517" lon="10.700555"><ele>93.5</ele><time>2026-04-18T13:44:58.746Z</time></trkpt><trkpt lat="43.4791067" lon="10.70062"><ele>93.0</ele><time>2026-04-18T13:44:59.748Z</time></trkpt><trkpt lat="43.47915" lon="10.7006867"><ele>93.0</ele><time>2026-04-18T13:45:00.752Z</time></trkpt><trkpt lat="43.4792033" lon="10.7007583"><ele>93.0</ele><time>2026-04-18T13:45:02.746Z</time></trkpt><trkpt lat="43.4791583" lon="10.70061"><ele>93.0</ele><time>2026-04-18T13:45:17.758Z</time></trkpt><trkpt lat="43.4790967" lon="10.700525"><ele>93.0</ele><time>2026-04-18T13:45:18.743Z</time></trkpt><trkpt lat="43.479015" lon="10.700435"><ele>93.0</ele><time>2026-04-18T13:45:19.751Z</time></trkpt><trkpt lat="43.478925" lon="10.7003217"><ele>93.25</ele><time>2026-04-18T13:45:20.749Z</time></trkpt><trkpt lat="43.4788233" lon="10.7001917"><ele>93.5</ele><time>2026-04-18T13:45:21.75Z</time></trkpt><trkpt lat="43.4787167" lon="10.7000533"><ele>93.75</ele><time>2026-04-18T13:45:22.746Z</time></trkpt><trkpt lat="43.4786017" lon="10.6999033"><ele>94.0</ele><time>2026-04-18T13:45:23.745Z</time></trkpt><trkpt lat="43.4784733" lon="10.69974"><ele>94.66666666666666</ele><time>2026-04-18T13:45:24.751Z</time></trkpt><trkpt lat="43.4783367" lon="10.6995633"><ele>95.33333333333333</ele><time>2026-04-18T13:45:25.749Z</time></trkpt><trkpt lat="43.478195" lon="10.69939"><ele>96.0</ele><time>2026-04-18T13:45:26.759Z</time></trkpt><trkpt lat="43.4780567" lon="10.69922"><ele>95.5</ele><time>2026-04-18T13:45:27.751Z</time></trkpt><trkpt lat="43.47793" lon="10.6990633"><ele>95.0</ele><time>2026-04-18T13:45:28.753Z</time></trkpt><trkpt lat="43.47782" lon="10.6989333"><ele>94.5</ele><time>2026-04-18T13:45:29.756Z</time></trkpt><trkpt lat="43.4777333" lon="10.69883"><ele>94.0</ele><time>2026-04-18T13:45:30.744Z</time></trkpt><trkpt lat="43.477665" lon="10.69875"><ele>94.0</ele><time>2026-04-18T13:45:31.748Z</time></trkpt><trkpt lat="43.4776167" lon="10.6986833"><ele>94.0</ele><time>2026-04-18T13:45:32.761Z</time></trkpt><trkpt lat="43.4775683" lon="10.6985633"><ele>94.0</ele><time>2026-04-18T13:45:34.748Z</time></trkpt><trkpt lat="43.4775983" lon="10.6984383"><ele>94.0</ele><time>2026-04-18T13:45:36.747Z</time></trkpt><trkpt lat="43.477645" lon="10.69836"><ele>94.0</ele><time>2026-04-18T13:45:37.751Z</time></trkpt><trkpt lat="43.4777067" lon="10.6982633"><ele>94.0</ele><time>2026-04-18T13:45:38.752Z</time></trkpt><trkpt lat="43.4778067" lon="10.698165"><ele>94.66666666666666</ele><time>2026-04-18T13:45:39.751Z</time></trkpt><trkpt lat="43.477925" lon="10.6980517"><ele>95.33333333333333</ele><time>2026-04-18T13:45:40.75Z</time></trkpt><trkpt lat="43.478055" lon="10.6979333"><ele>96.0</ele><time>2026-04-18T13:45:41.75Z</time></trkpt><trkpt lat="43.478195" lon="10.6978183"><ele>96.66666666666666</ele><time>2026-04-18T13:45:42.747Z</time></trkpt><trkpt lat="43.4783433" lon="10.6976867"><ele>97.33333333333333</ele><time>2026-04-18T13:45:43.753Z</time></trkpt><trkpt lat="43.4784933" lon="10.6975617"><ele>98.0</ele><time>2026-04-18T13:45:44.746Z</time></trkpt><trkpt lat="43.478625" lon="10.69743"><ele>98.0</ele><time>2026-04-18T13:45:45.747Z</time></trkpt><trkpt lat="43.4787433" lon="10.6972867"><ele>98.0</ele><time>2026-04-18T13:45:46.746Z</time></trkpt><trkpt lat="43.4788283" lon="10.6970783"><ele>98.0</ele><time>2026-04-18T13:45:47.754Z</time></trkpt><trkpt lat="43.4788967" lon="10.696825"><ele>100.0</ele><time>2026-04-18T13:45:48.754Z</time></trkpt><trkpt lat="43.478935" lon="10.696545"><ele>102.0</ele><time>2026-04-18T13:45:49.747Z</time></trkpt><trkpt lat="43.4789867" lon="10.6962917"><ele>104.0</ele><time>2026-04-18T13:45:50.755Z</time></trkpt><trkpt lat="43.47904" lon="10.6960517"><ele>104.33333333333333</ele><time>2026-04-18T13:45:51.749Z</time></trkpt><trkpt lat="43.4790933" lon="10.6958217"><ele>104.66666666666666</ele><time>2026-04-18T13:45:52.753Z</time></trkpt><trkpt lat="43.479155" lon="10.6956033"><ele>105.0</ele><time>2026-04-18T13:45:53.75Z</time></trkpt><trkpt lat="43.4792233" lon="10.6954067"><ele>104.5</ele><time>2026-04-18T13:45:54.747Z</time></trkpt><trkpt lat="43.479295" lon="10.69523"><ele>104.0</ele><time>2026-04-18T13:45:55.756Z</time></trkpt><trkpt lat="43.47937" lon="10.6950633"><ele>103.5</ele><time>2026-04-18T13:45:56.755Z</time></trkpt><trkpt lat="43.4794483" lon="10.6948983"><ele>103.0</ele><time>2026-04-18T13:45:57.75Z</time></trkpt><trkpt lat="43.479535" lon="10.694725"><ele>104.33333333333334</ele><time>2026-04-18T13:45:58.747Z</time></trkpt><trkpt lat="43.47965" lon="10.69454"><ele>105.66666666666666</ele><time>2026-04-18T13:45:59.747Z</time></trkpt><trkpt lat="43.479785" lon="10.6943483"><ele>107.0</ele><time>2026-04-18T13:46:00.752Z</time></trkpt><trkpt lat="43.4799317" lon="10.69416"><ele>107.0</ele><time>2026-04-18T13:46:01.754Z</time></trkpt><trkpt lat="43.4800783" lon="10.6940017"><ele>107.0</ele><time>2026-04-18T13:46:02.754Z</time></trkpt><trkpt lat="43.4802217" lon="10.6938833"><ele>107.0</ele><time>2026-04-18T13:46:03.748Z</time></trkpt><trkpt lat="43.4803667" lon="10.693795"><ele>106.66666666666666</ele><time>2026-04-18T13:46:04.754Z</time></trkpt><trkpt lat="43.480515" lon="10.6937133"><ele>106.33333333333334</ele><time>2026-04-18T13:46:05.758Z</time></trkpt><trkpt lat="43.4806483" lon="10.6935617"><ele>106.0</ele><time>2026-04-18T13:46:06.751Z</time></trkpt><trkpt lat="43.48077" lon="10.69336"><ele>106.0</ele><time>2026-04-18T13:46:07.757Z</time></trkpt><trkpt lat="43.4808717" lon="10.6931083"><ele>106.0</ele><time>2026-04-18T13:46:08.756Z</time></trkpt><trkpt lat="43.480955" lon="10.6928283"><ele>106.0</ele><time>2026-04-18T13:46:09.752Z</time></trkpt><trkpt lat="43.4810217" lon="10.6925167"><ele>106.5</ele><time>2026-04-18T13:46:10.749Z</time></trkpt><trkpt lat="43.4810383" lon="10.6921933"><ele>107.0</ele><time>2026-04-18T13:46:11.752Z</time></trkpt><trkpt lat="43.4810583" lon="10.691895"><ele>107.0</ele><time>2026-04-18T13:46:12.758Z</time></trkpt><trkpt lat="43.4810983" lon="10.69162"><ele>107.0</ele><time>2026-04-18T13:46:13.751Z</time></trkpt><trkpt lat="43.4811533" lon="10.69135"><ele>107.0</ele><time>2026-04-18T13:46:14.751Z</time></trkpt><trkpt lat="43.4812167" lon="10.6910783"><ele>108.33333333333333</ele><time>2026-04-18T13:46:15.745Z</time></trkpt><trkpt lat="43.48128" lon="10.6908067"><ele>109.66666666666666</ele><time>2026-04-18T13:46:16.749Z</time></trkpt><trkpt lat="43.4813333" lon="10.69054"><ele>111.0</ele><time>2026-04-18T13:46:17.749Z</time></trkpt><trkpt lat="43.4813783" lon="10.6902817"><ele>111.0</ele><time>2026-04-18T13:46:18.75Z</time></trkpt><trkpt lat="43.4814183" lon="10.6900117"><ele>111.0</ele><time>2026-04-18T13:46:19.753Z</time></trkpt><trkpt lat="43.481435" lon="10.6897267"><ele>111.0</ele><time>2026-04-18T13:46:20.748Z</time></trkpt><trkpt lat="43.4814283" lon="10.6894283"><ele>112.5</ele><time>2026-04-18T13:46:21.754Z</time></trkpt><trkpt lat="43.4814083" lon="10.689115"><ele>114.0</ele><time>2026-04-18T13:46:22.755Z</time></trkpt><trkpt lat="43.4813833" lon="10.6888"><ele>115.33333333333334</ele><time>2026-04-18T13:46:23.749Z</time></trkpt><trkpt lat="43.4813633" lon="10.6884967"><ele>116.66666666666667</ele><time>2026-04-18T13:46:24.756Z</time></trkpt><trkpt lat="43.481345" lon="10.6882083"><ele>118.0</ele><time>2026-04-18T13:46:25.749Z</time></trkpt><trkpt lat="43.48135" lon="10.6879217"><ele>117.66666666666667</ele><time>2026-04-18T13:46:26.759Z</time></trkpt><trkpt lat="43.48138" lon="10.687625"><ele>117.33333333333334</ele><time>2026-04-18T13:46:27.753Z</time></trkpt><trkpt lat="43.481435" lon="10.68732"><ele>117.0</ele><time>2026-04-18T13:46:28.749Z</time></trkpt><trkpt lat="43.481495" lon="10.6869967"><ele>115.5</ele><time>2026-04-18T13:46:29.75Z</time></trkpt><trkpt lat="43.4815533" lon="10.6866783"><ele>114.0</ele><time>2026-04-18T13:46:30.75Z</time></trkpt><trkpt lat="43.4815983" lon="10.68639"><ele>114.0</ele><time>2026-04-18T13:46:31.751Z</time></trkpt><trkpt lat="43.481655" lon="10.686145"><ele>114.0</ele><time>2026-04-18T13:46:32.748Z</time></trkpt><trkpt lat="43.4817067" lon="10.68593"><ele>114.0</ele><time>2026-04-18T13:46:33.753Z</time></trkpt><trkpt lat="43.4817467" lon="10.6857083"><ele>113.66666666666666</ele><time>2026-04-18T13:46:34.75Z</time></trkpt><trkpt lat="43.4817367" lon="10.6854633"><ele>113.33333333333333</ele><time>2026-04-18T13:46:35.749Z</time></trkpt><trkpt lat="43.4816917" lon="10.6852083"><ele>113.0</ele><time>2026-04-18T13:46:36.753Z</time></trkpt><trkpt lat="43.4816367" lon="10.6849433"><ele>113.66666666666666</ele><time>2026-04-18T13:46:37.753Z</time></trkpt><trkpt lat="43.48159" lon="10.68468"><ele>114.33333333333334</ele><time>2026-04-18T13:46:38.749Z</time></trkpt><trkpt lat="43.4815333" lon="10.6844283"><ele>115.0</ele><time>2026-04-18T13:46:39.752Z</time></trkpt><trkpt lat="43.48148" lon="10.68419"><ele>115.33333333333334</ele><time>2026-04-18T13:46:40.748Z</time></trkpt><trkpt lat="43.481405" lon="10.68397"><ele>115.66666666666666</ele><time>2026-04-18T13:46:41.75Z</time></trkpt><trkpt lat="43.4813267" lon="10.6837717"><ele>116.0</ele><time>2026-04-18T13:46:42.748Z</time></trkpt><trkpt lat="43.4812433" lon="10.6835833"><ele>116.0</ele><time>2026-04-18T13:46:43.746Z</time></trkpt><trkpt lat="43.4811667" lon="10.6833867"><ele>116.0</ele><time>2026-04-18T13:46:44.751Z</time></trkpt><trkpt lat="43.4811217" lon="10.6831633"><ele>116.0</ele><time>2026-04-18T13:46:45.746Z</time></trkpt><trkpt lat="43.481115" lon="10.682915"><ele>116.66666666666666</ele><time>2026-04-18T13:46:46.744Z</time></trkpt><trkpt lat="43.4811333" lon="10.6826367"><ele>117.33333333333334</ele><time>2026-04-18T13:46:47.746Z</time></trkpt><trkpt lat="43.481155" lon="10.6823467"><ele>118.0</ele><time>2026-04-18T13:46:48.743Z</time></trkpt><trkpt lat="43.4811633" lon="10.68204"><ele>118.33333333333334</ele><time>2026-04-18T13:46:49.743Z</time></trkpt><trkpt lat="43.4811817" lon="10.6817333"><ele>118.66666666666666</ele><time>2026-04-18T13:46:50.748Z</time></trkpt><trkpt lat="43.4811967" lon="10.681435"><ele>119.0</ele><time>2026-04-18T13:46:51.757Z</time></trkpt><trkpt lat="43.4812133" lon="10.6811467"><ele>119.33333333333333</ele><time>2026-04-18T13:46:52.748Z</time></trkpt><trkpt lat="43.48123" lon="10.6808617"><ele>119.66666666666666</ele><time>2026-04-18T13:46:53.747Z</time></trkpt><trkpt lat="43.48126" lon="10.6805717"><ele>120.0</ele><time>2026-04-18T13:46:54.745Z</time></trkpt><trkpt lat="43.481285" lon="10.6802583"><ele>120.5</ele><time>2026-04-18T13:46:55.751Z</time></trkpt><trkpt lat="43.481315" lon="10.679935"><ele>121.0</ele><time>2026-04-18T13:46:56.746Z</time></trkpt><trkpt lat="43.4813317" lon="10.6795933"><ele>122.0</ele><time>2026-04-18T13:46:57.745Z</time></trkpt><trkpt lat="43.4813483" lon="10.6792583"><ele>123.0</ele><time>2026-04-18T13:46:58.744Z</time></trkpt><trkpt lat="43.481365" lon="10.67895"><ele>123.0</ele><time>2026-04-18T13:46:59.744Z</time></trkpt><trkpt lat="43.4813833" lon="10.67867"><ele>123.0</ele><time>2026-04-18T13:47:00.745Z</time></trkpt><trkpt lat="43.4814033" lon="10.6784117"><ele>123.0</ele><time>2026-04-18T13:47:01.744Z</time></trkpt><trkpt lat="43.4814367" lon="10.6781517"><ele>123.66666666666666</ele><time>2026-04-18T13:47:02.75Z</time></trkpt><trkpt lat="43.4814917" lon="10.6778867"><ele>124.33333333333333</ele><time>2026-04-18T13:47:03.749Z</time></trkpt><trkpt lat="43.4815633" lon="10.67761"><ele>125.0</ele><time>2026-04-18T13:47:04.748Z</time></trkpt><trkpt lat="43.48166" lon="10.67733"><ele>126.0</ele><time>2026-04-18T13:47:05.748Z</time></trkpt><trkpt lat="43.4817433" lon="10.67703"><ele>127.0</ele><time>2026-04-18T13:47:06.749Z</time></trkpt><trkpt lat="43.4818233" lon="10.6767117"><ele>128.5</ele><time>2026-04-18T13:47:07.743Z</time></trkpt><trkpt lat="43.4819183" lon="10.6764017"><ele>130.0</ele><time>2026-04-18T13:47:08.751Z</time></trkpt><trkpt lat="43.4820067" lon="10.676105"><ele>130.66666666666669</ele><time>2026-04-18T13:47:09.751Z</time></trkpt><trkpt lat="43.48209" lon="10.675825"><ele>131.33333333333334</ele><time>2026-04-18T13:47:10.749Z</time></trkpt><trkpt lat="43.4821717" lon="10.6755617"><ele>132.0</ele><time>2026-04-18T13:47:11.748Z</time></trkpt><trkpt lat="43.4822467" lon="10.675315"><ele>134.33333333333334</ele><time>2026-04-18T13:47:12.749Z</time></trkpt><trkpt lat="43.4823083" lon="10.675075"><ele>136.66666666666669</ele><time>2026-04-18T13:47:13.749Z</time></trkpt><trkpt lat="43.4823483" lon="10.67484"><ele>139.0</ele><time>2026-04-18T13:47:14.745Z</time></trkpt><trkpt lat="43.48237" lon="10.674615"><ele>138.5</ele><time>2026-04-18T13:47:15.743Z</time></trkpt><trkpt lat="43.4823567" lon="10.6744017"><ele>138.0</ele><time>2026-04-18T13:47:16.743Z</time></trkpt><trkpt lat="43.4823133" lon="10.674205"><ele>137.5</ele><time>2026-04-18T13:47:17.746Z</time></trkpt><trkpt lat="43.48225" lon="10.6740333"><ele>137.0</ele><time>2026-04-18T13:47:18.749Z</time></trkpt><trkpt lat="43.4822017" lon="10.6738967"><ele>137.0</ele><time>2026-04-18T13:47:19.747Z</time></trkpt><trkpt lat="43.4821667" lon="10.6737883"><ele>137.0</ele><time>2026-04-18T13:47:20.743Z</time></trkpt><trkpt lat="43.4821433" lon="10.6736883"><ele>137.0</ele><time>2026-04-18T13:47:21.741Z</time></trkpt><trkpt lat="43.4821417" lon="10.6735917"><ele>137.0</ele><time>2026-04-18T13:47:22.747Z</time></trkpt><trkpt lat="43.4821867" lon="10.6734467"><ele>137.0</ele><time>2026-04-18T13:47:24.75Z</time></trkpt><trkpt lat="43.482245" lon="10.6733467"><ele>137.0</ele><time>2026-04-18T13:47:26.748Z</time></trkpt><trkpt lat="43.4823" lon="10.67328"><ele>137.0</ele><time>2026-04-18T13:47:28.743Z</time></trkpt><trkpt lat="43.4822133" lon="10.6734"><ele>137.0</ele><time>2026-04-18T13:47:41.744Z</time></trkpt><trkpt lat="43.4821617" lon="10.6734817"><ele>137.0</ele><time>2026-04-18T13:47:42.741Z</time></trkpt><trkpt lat="43.4821333" lon="10.67357"><ele>137.0</ele><time>2026-04-18T13:47:43.75Z</time></trkpt><trkpt lat="43.4821167" lon="10.6737283"><ele>137.0</ele><time>2026-04-18T13:47:45.744Z</time></trkpt><trkpt lat="43.4820483" lon="10.6737867"><ele>136.6</ele><time>2026-04-18T13:47:47.742Z</time></trkpt><trkpt lat="43.4819533" lon="10.673775"><ele>136.2</ele><time>2026-04-18T13:47:49.746Z</time></trkpt><trkpt lat="43.4818833" lon="10.6737683"><ele>135.8</ele><time>2026-04-18T13:47:50.745Z</time></trkpt><trkpt lat="43.481805" lon="10.6737567"><ele>135.4</ele><time>2026-04-18T13:47:51.748Z</time></trkpt><trkpt lat="43.4817067" lon="10.6737017"><ele>135.0</ele><time>2026-04-18T13:47:52.748Z</time></trkpt><trkpt lat="43.4816117" lon="10.6736417"><ele>135.5</ele><time>2026-04-18T13:47:53.747Z</time></trkpt><trkpt lat="43.481525" lon="10.67353"><ele>136.0</ele><time>2026-04-18T13:47:54.749Z</time></trkpt><trkpt lat="43.4814483" lon="10.673385"><ele>136.5</ele><time>2026-04-18T13:47:55.741Z</time></trkpt><trkpt lat="43.481375" lon="10.67319"><ele>137.0</ele><time>2026-04-18T13:47:56.743Z</time></trkpt><trkpt lat="43.481285" lon="10.67299"><ele>139.33333333333331</ele><time>2026-04-18T13:47:57.748Z</time></trkpt><trkpt lat="43.481205" lon="10.6727633"><ele>141.66666666666666</ele><time>2026-04-18T13:47:58.748Z</time></trkpt><trkpt lat="43.4811483" lon="10.6724983"><ele>144.0</ele><time>2026-04-18T13:47:59.741Z</time></trkpt><trkpt lat="43.4810933" lon="10.6722283"><ele>144.0</ele><time>2026-04-18T13:48:00.742Z</time></trkpt><trkpt lat="43.4810367" lon="10.671975"><ele>144.0</ele><time>2026-04-18T13:48:01.744Z</time></trkpt><trkpt lat="43.4809717" lon="10.6717533"><ele>144.0</ele><time>2026-04-18T13:48:02.75Z</time></trkpt><trkpt lat="43.4809133" lon="10.6715683"><ele>145.6</ele><time>2026-04-18T13:48:03.745Z</time></trkpt><trkpt lat="43.480875" lon="10.6714067"><ele>147.2</ele><time>2026-04-18T13:48:04.744Z</time></trkpt><trkpt lat="43.4808533" lon="10.671255"><ele>148.79999999999998</ele><time>2026-04-18T13:48:05.745Z</time></trkpt><trkpt lat="43.4808383" lon="10.6711133"><ele>150.4</ele><time>2026-04-18T13:48:06.745Z</time></trkpt><trkpt lat="43.48085" lon="10.670985"><ele>152.0</ele><time>2026-04-18T13:48:07.742Z</time></trkpt><trkpt lat="43.4808783" lon="10.6708567"><ele>153.2</ele><time>2026-04-18T13:48:08.743Z</time></trkpt><trkpt lat="43.480915" lon="10.6707233"><ele>154.39999999999998</ele><time>2026-04-18T13:48:09.746Z</time></trkpt><trkpt lat="43.4809333" lon="10.6705967"><ele>155.60000000000002</ele><time>2026-04-18T13:48:10.745Z</time></trkpt><trkpt lat="43.480935" lon="10.6704667"><ele>156.8</ele><time>2026-04-18T13:48:11.744Z</time></trkpt><trkpt lat="43.4809133" lon="10.6703333"><ele>158.0</ele><time>2026-04-18T13:48:12.748Z</time></trkpt><trkpt lat="43.480855" lon="10.6702"><ele>158.0</ele><time>2026-04-18T13:48:13.744Z</time></trkpt><trkpt lat="43.4807667" lon="10.6700683"><ele>158.0</ele><time>2026-04-18T13:48:14.743Z</time></trkpt><trkpt lat="43.4806567" lon="10.669915"><ele>158.0</ele><time>2026-04-18T13:48:15.742Z</time></trkpt><trkpt lat="43.4805433" lon="10.6697367"><ele>158.0</ele><time>2026-04-18T13:48:16.741Z</time></trkpt><trkpt lat="43.4804217" lon="10.6695433"><ele>158.0</ele><time>2026-04-18T13:48:17.745Z</time></trkpt><trkpt lat="43.480305" lon="10.6693383"><ele>158.0</ele><time>2026-04-18T13:48:18.745Z</time></trkpt><trkpt lat="43.4801867" lon="10.6691467"><ele>157.0</ele><time>2026-04-18T13:48:19.745Z</time></trkpt><trkpt lat="43.480085" lon="10.668955"><ele>156.0</ele><time>2026-04-18T13:48:20.748Z</time></trkpt><trkpt lat="43.480005" lon="10.6687683"><ele>155.0</ele><time>2026-04-18T13:48:21.741Z</time></trkpt><trkpt lat="43.4799317" lon="10.6686"><ele>155.25</ele><time>2026-04-18T13:48:22.742Z</time></trkpt><trkpt lat="43.47985" lon="10.66846"><ele>155.5</ele><time>2026-04-18T13:48:23.747Z</time></trkpt><trkpt lat="43.4797567" lon="10.6683467"><ele>155.75</ele><time>2026-04-18T13:48:24.747Z</time></trkpt><trkpt lat="43.47965" lon="10.6682967"><ele>156.0</ele><time>2026-04-18T13:48:25.744Z</time></trkpt><trkpt lat="43.4795483" lon="10.6683017"><ele>156.0</ele><time>2026-04-18T13:48:26.74Z</time></trkpt><trkpt lat="43.4794517" lon="10.66836"><ele>156.0</ele><time>2026-04-18T13:48:27.741Z</time></trkpt><trkpt lat="43.4793667" lon="10.6684383"><ele>156.0</ele><time>2026-04-18T13:48:28.748Z</time></trkpt><trkpt lat="43.4792817" lon="10.6685067"><ele>156.0</ele><time>2026-04-18T13:48:29.744Z</time></trkpt><trkpt lat="43.4791933" lon="10.6685583"><ele>156.0</ele><time>2026-04-18T13:48:30.744Z</time></trkpt><trkpt lat="43.4790983" lon="10.6685817"><ele>156.0</ele><time>2026-04-18T13:48:31.745Z</time></trkpt><trkpt lat="43.4789933" lon="10.668575"><ele>156.0</ele><time>2026-04-18T13:48:32.74Z</time></trkpt><trkpt lat="43.47888" lon="10.6685617"><ele>156.0</ele><time>2026-04-18T13:48:33.745Z</time></trkpt><trkpt lat="43.4787467" lon="10.6685717"><ele>156.0</ele><time>2026-04-18T13:48:34.74Z</time></trkpt><trkpt lat="43.4785917" lon="10.6685117"><ele>156.0</ele><time>2026-04-18T13:48:35.748Z</time></trkpt><trkpt lat="43.478425" lon="10.6684567"><ele>156.0</ele><time>2026-04-18T13:48:36.748Z</time></trkpt><trkpt lat="43.4782467" lon="10.668425"><ele>156.0</ele><time>2026-04-18T13:48:37.744Z</time></trkpt><trkpt lat="43.4780833" lon="10.6683833"><ele>156.0</ele><time>2026-04-18T13:48:38.741Z</time></trkpt><trkpt lat="43.4779383" lon="10.6683667"><ele>156.0</ele><time>2026-04-18T13:48:39.746Z</time></trkpt><trkpt lat="43.4777833" lon="10.6683883"><ele>156.0</ele><time>2026-04-18T13:48:40.747Z</time></trkpt><trkpt lat="43.4776183" lon="10.6684367"><ele>156.0</ele><time>2026-04-18T13:48:41.748Z</time></trkpt><trkpt lat="43.4774433" lon="10.6684867"><ele>156.0</ele><time>2026-04-18T13:48:42.742Z</time></trkpt><trkpt lat="43.4772483" lon="10.6685367"><ele>156.0</ele><time>2026-04-18T13:48:43.743Z</time></trkpt><trkpt lat="43.4770333" lon="10.6685883"><ele>154.33333333333334</ele><time>2026-04-18T13:48:44.745Z</time></trkpt><trkpt lat="43.4768133" lon="10.6686433"><ele>152.66666666666669</ele><time>2026-04-18T13:48:45.748Z</time></trkpt><trkpt lat="43.4766033" lon="10.6687067"><ele>151.0</ele><time>2026-04-18T13:48:46.741Z</time></trkpt><trkpt lat="43.4764067" lon="10.6687633"><ele>152.66666666666669</ele><time>2026-04-18T13:48:47.747Z</time></trkpt><trkpt lat="43.4762167" lon="10.6688233"><ele>154.33333333333334</ele><time>2026-04-18T13:48:48.747Z</time></trkpt><trkpt lat="43.4760417" lon="10.6688717"><ele>156.0</ele><time>2026-04-18T13:48:49.747Z</time></trkpt><trkpt lat="43.4758817" lon="10.6689183"><ele>156.0</ele><time>2026-04-18T13:48:50.751Z</time></trkpt><trkpt lat="43.4757367" lon="10.668955"><ele>156.0</ele><time>2026-04-18T13:48:51.755Z</time></trkpt><trkpt lat="43.4756033" lon="10.6689917"><ele>156.0</ele><time>2026-04-18T13:48:52.744Z</time></trkpt><trkpt lat="43.4754767" lon="10.6690117"><ele>156.0</ele><time>2026-04-18T13:48:53.742Z</time></trkpt><trkpt lat="43.4753583" lon="10.6690167"><ele>158.75</ele><time>2026-04-18T13:48:54.743Z</time></trkpt><trkpt lat="43.4752517" lon="10.6689733"><ele>161.5</ele><time>2026-04-18T13:48:55.745Z</time></trkpt><trkpt lat="43.47516" lon="10.66887"><ele>164.25</ele><time>2026-04-18T13:48:56.744Z</time></trkpt><trkpt lat="43.4750567" lon="10.66877"><ele>167.0</ele><time>2026-04-18T13:48:57.744Z</time></trkpt><trkpt lat="43.4749633" lon="10.6686433"><ele>166.75</ele><time>2026-04-18T13:48:58.742Z</time></trkpt><trkpt lat="43.4748633" lon="10.6685483"><ele>166.5</ele><time>2026-04-18T13:48:59.743Z</time></trkpt><trkpt lat="43.474745" lon="10.6684733"><ele>166.25</ele><time>2026-04-18T13:49:00.745Z</time></trkpt><trkpt lat="43.474605" lon="10.6684017"><ele>166.0</ele><time>2026-04-18T13:49:01.748Z</time></trkpt><trkpt lat="43.474445" lon="10.6683367"><ele>167.66666666666669</ele><time>2026-04-18T13:49:02.749Z</time></trkpt><trkpt lat="43.47427" lon="10.6682583"><ele>169.33333333333334</ele><time>2026-04-18T13:49:03.743Z</time></trkpt><trkpt lat="43.4740867" lon="10.6681417"><ele>171.0</ele><time>2026-04-18T13:49:04.743Z</time></trkpt><trkpt lat="43.473885" lon="10.6680517"><ele>172.33333333333334</ele><time>2026-04-18T13:49:05.744Z</time></trkpt><trkpt lat="43.4736917" lon="10.66794"><ele>173.66666666666669</ele><time>2026-04-18T13:49:06.749Z</time></trkpt><trkpt lat="43.4735267" lon="10.667865"><ele>175.0</ele><time>2026-04-18T13:49:07.75Z</time></trkpt><trkpt lat="43.4733933" lon="10.6677917"><ele>176.25</ele><time>2026-04-18T13:49:08.746Z</time></trkpt><trkpt lat="43.47328" lon="10.6677117"><ele>177.5</ele><time>2026-04-18T13:49:09.748Z</time></trkpt><trkpt lat="43.4731783" lon="10.6676"><ele>178.75</ele><time>2026-04-18T13:49:10.746Z</time></trkpt><trkpt lat="43.4731067" lon="10.6674417"><ele>180.0</ele><time>2026-04-18T13:49:11.747Z</time></trkpt><trkpt lat="43.4730433" lon="10.66729"><ele>180.0</ele><time>2026-04-18T13:49:12.745Z</time></trkpt><trkpt lat="43.4729767" lon="10.6671733"><ele>180.0</ele><time>2026-04-18T13:49:13.746Z</time></trkpt><trkpt lat="43.4729167" lon="10.6670533"><ele>180.0</ele><time>2026-04-18T13:49:14.744Z</time></trkpt><trkpt lat="43.4728283" lon="10.6669433"><ele>180.0</ele><time>2026-04-18T13:49:15.744Z</time></trkpt><trkpt lat="43.4727183" lon="10.6668317"><ele>182.33333333333334</ele><time>2026-04-18T13:49:16.741Z</time></trkpt><trkpt lat="43.47257" lon="10.6667283"><ele>184.66666666666669</ele><time>2026-04-18T13:49:17.74Z</time></trkpt><trkpt lat="43.4723917" lon="10.6666267"><ele>187.0</ele><time>2026-04-18T13:49:18.742Z</time></trkpt><trkpt lat="43.4722117" lon="10.6664883"><ele>186.5</ele><time>2026-04-18T13:49:19.742Z</time></trkpt><trkpt lat="43.4720183" lon="10.6663433"><ele>186.0</ele><time>2026-04-18T13:49:20.744Z</time></trkpt><trkpt lat="43.4718167" lon="10.6661733"><ele>189.0</ele><time>2026-04-18T13:49:21.747Z</time></trkpt><trkpt lat="43.4716083" lon="10.66601"><ele>192.0</ele><time>2026-04-18T13:49:22.753Z</time></trkpt><trkpt lat="43.471415" lon="10.6658267"><ele>192.66666666666669</ele><time>2026-04-18T13:49:23.748Z</time></trkpt><trkpt lat="43.4712317" lon="10.66569"><ele>193.33333333333334</ele><time>2026-04-18T13:49:24.741Z</time></trkpt><trkpt lat="43.47107" lon="10.66556"><ele>194.0</ele><time>2026-04-18T13:49:25.743Z</time></trkpt><trkpt lat="43.47093" lon="10.6654483"><ele>194.0</ele><time>2026-04-18T13:49:26.748Z</time></trkpt><trkpt lat="43.4708117" lon="10.6653583"><ele>194.0</ele><time>2026-04-18T13:49:27.747Z</time></trkpt><trkpt lat="43.4707133" lon="10.6652667"><ele>194.0</ele><time>2026-04-18T13:49:28.744Z</time></trkpt><trkpt lat="43.4706283" lon="10.6651483"><ele>194.0</ele><time>2026-04-18T13:49:29.743Z</time></trkpt><trkpt lat="43.4705567" lon="10.6649867"><ele>195.75</ele><time>2026-04-18T13:49:30.743Z</time></trkpt><trkpt lat="43.4704867" lon="10.6648083"><ele>197.5</ele><time>2026-04-18T13:49:31.745Z</time></trkpt><trkpt lat="43.47041" lon="10.664635"><ele>199.25</ele><time>2026-04-18T13:49:32.746Z</time></trkpt><trkpt lat="43.4703333" lon="10.6644833"><ele>201.0</ele><time>2026-04-18T13:49:33.745Z</time></trkpt><trkpt lat="43.47028" lon="10.6643383"><ele>205.5</ele><time>2026-04-18T13:49:34.746Z</time></trkpt><trkpt lat="43.470255" lon="10.664185"><ele>210.0</ele><time>2026-04-18T13:49:35.742Z</time></trkpt><trkpt lat="43.47026" lon="10.66401"><ele>214.5</ele><time>2026-04-18T13:49:36.743Z</time></trkpt><trkpt lat="43.470285" lon="10.663815"><ele>219.0</ele><time>2026-04-18T13:49:37.746Z</time></trkpt><trkpt lat="43.4702917" lon="10.6636183"><ele>220.0</ele><time>2026-04-18T13:49:38.742Z</time></trkpt><trkpt lat="43.4702767" lon="10.66344"><ele>220.99999999999997</ele><time>2026-04-18T13:49:39.74Z</time></trkpt><trkpt lat="43.4702583" lon="10.66329"><ele>221.99999999999997</ele><time>2026-04-18T13:49:40.745Z</time></trkpt><trkpt lat="43.470225" lon="10.66316"><ele>223.0</ele><time>2026-04-18T13:49:41.742Z</time></trkpt><trkpt lat="43.4701583" lon="10.6630483"><ele>224.0</ele><time>2026-04-18T13:49:42.745Z</time></trkpt><trkpt lat="43.470075" lon="10.6629467"><ele>224.0</ele><time>2026-04-18T13:49:43.743Z</time></trkpt><trkpt lat="43.46998" lon="10.6628333"><ele>224.0</ele><time>2026-04-18T13:49:44.745Z</time></trkpt><trkpt lat="43.4698817" lon="10.6627083"><ele>224.0</ele><time>2026-04-18T13:49:45.746Z</time></trkpt><trkpt lat="43.4697667" lon="10.6625767"><ele>224.0</ele><time>2026-04-18T13:49:46.745Z</time></trkpt><trkpt lat="43.4696433" lon="10.6624317"><ele>226.5</ele><time>2026-04-18T13:49:47.746Z</time></trkpt><trkpt lat="43.46952" lon="10.6622833"><ele>229.0</ele><time>2026-04-18T13:49:48.742Z</time></trkpt><trkpt lat="43.469415" lon="10.6621433"><ele>231.5</ele><time>2026-04-18T13:49:49.74Z</time></trkpt><trkpt lat="43.4693283" lon="10.6620067"><ele>234.0</ele><time>2026-04-18T13:49:50.742Z</time></trkpt><trkpt lat="43.4692433" lon="10.6618633"><ele>234.0</ele><time>2026-04-18T13:49:51.744Z</time></trkpt><trkpt lat="43.4691617" lon="10.66169"><ele>234.0</ele><time>2026-04-18T13:49:52.745Z</time></trkpt><trkpt lat="43.4690917" lon="10.6614983"><ele>234.0</ele><time>2026-04-18T13:49:53.746Z</time></trkpt><trkpt lat="43.4690133" lon="10.6613283"><ele>234.0</ele><time>2026-04-18T13:49:54.742Z</time></trkpt><trkpt lat="43.4689517" lon="10.6611683"><ele>234.0</ele><time>2026-04-18T13:49:55.743Z</time></trkpt><trkpt lat="43.4688867" lon="10.6610217"><ele>234.0</ele><time>2026-04-18T13:49:56.744Z</time></trkpt><trkpt lat="43.468825" lon="10.660885"><ele>234.0</ele><time>2026-04-18T13:49:57.749Z</time></trkpt><trkpt lat="43.4687667" lon="10.6607567"><ele>234.39999999999998</ele><time>2026-04-18T13:49:58.745Z</time></trkpt><trkpt lat="43.468695" lon="10.6606467"><ele>234.79999999999998</ele><time>2026-04-18T13:49:59.746Z</time></trkpt><trkpt lat="43.46862" lon="10.660535"><ele>235.20000000000002</ele><time>2026-04-18T13:50:00.745Z</time></trkpt><trkpt lat="43.4685433" lon="10.6604317"><ele>235.60000000000002</ele><time>2026-04-18T13:50:01.743Z</time></trkpt><trkpt lat="43.4684817" lon="10.6603267"><ele>236.0</ele><time>2026-04-18T13:50:02.745Z</time></trkpt><trkpt lat="43.4684233" lon="10.6602383"><ele>237.33333333333334</ele><time>2026-04-18T13:50:03.744Z</time></trkpt><trkpt lat="43.468375" lon="10.6601567"><ele>238.66666666666669</ele><time>2026-04-18T13:50:04.745Z</time></trkpt><trkpt lat="43.4683317" lon="10.6600867"><ele>240.0</ele><time>2026-04-18T13:50:05.747Z</time></trkpt><trkpt lat="43.4682617" lon="10.6599883"><ele>241.33333333333331</ele><time>2026-04-18T13:50:07.743Z</time></trkpt><trkpt lat="43.468195" lon="10.6598917"><ele>242.66666666666666</ele><time>2026-04-18T13:50:16.742Z</time></trkpt><trkpt lat="43.4681217" lon="10.65979"><ele>244.0</ele><time>2026-04-18T13:50:17.744Z</time></trkpt><trkpt lat="43.4680483" lon="10.6596783"><ele>244.0</ele><time>2026-04-18T13:50:18.745Z</time></trkpt><trkpt lat="43.4679617" lon="10.6595583"><ele>244.0</ele><time>2026-04-18T13:50:19.745Z</time></trkpt><trkpt lat="43.4678583" lon="10.6594233"><ele>244.0</ele><time>2026-04-18T13:50:20.743Z</time></trkpt><trkpt lat="43.4677483" lon="10.6592733"><ele>244.0</ele><time>2026-04-18T13:50:21.745Z</time></trkpt><trkpt lat="43.4676317" lon="10.659125"><ele>248.33333333333331</ele><time>2026-04-18T13:50:22.741Z</time></trkpt><trkpt lat="43.4675067" lon="10.658965"><ele>252.66666666666669</ele><time>2026-04-18T13:50:23.742Z</time></trkpt><trkpt lat="43.4673683" lon="10.6587967"><ele>257.0</ele><time>2026-04-18T13:50:24.744Z</time></trkpt><trkpt lat="43.4672083" lon="10.65865"><ele>261.33333333333337</ele><time>2026-04-18T13:50:25.745Z</time></trkpt><trkpt lat="43.467065" lon="10.6584917"><ele>265.6666666666667</ele><time>2026-04-18T13:50:26.751Z</time></trkpt><trkpt lat="43.4669333" lon="10.6583433"><ele>270.0</ele><time>2026-04-18T13:50:27.746Z</time></trkpt><trkpt lat="43.4668067" lon="10.6582"><ele>270.0</ele><time>2026-04-18T13:50:28.742Z</time></trkpt><trkpt lat="43.4666917" lon="10.65806"><ele>270.0</ele><time>2026-04-18T13:50:29.742Z</time></trkpt><trkpt lat="43.46658" lon="10.6579517"><ele>270.0</ele><time>2026-04-18T13:50:30.748Z</time></trkpt><trkpt lat="43.466485" lon="10.657845"><ele>270.0</ele><time>2026-04-18T13:50:31.743Z</time></trkpt><trkpt lat="43.4664033" lon="10.6577517"><ele>270.8</ele><time>2026-04-18T13:50:32.744Z</time></trkpt><trkpt lat="43.4663317" lon="10.6576583"><ele>271.6</ele><time>2026-04-18T13:50:33.745Z</time></trkpt><trkpt lat="43.4662733" lon="10.6575483"><ele>272.4</ele><time>2026-04-18T13:50:34.742Z</time></trkpt><trkpt lat="43.4662367" lon="10.6574033"><ele>273.2</ele><time>2026-04-18T13:50:35.741Z</time></trkpt><trkpt lat="43.4662033" lon="10.6572283"><ele>274.0</ele><time>2026-04-18T13:50:36.748Z</time></trkpt><trkpt lat="43.46615" lon="10.65704"><ele>276.3333333333333</ele><time>2026-04-18T13:50:37.742Z</time></trkpt><trkpt lat="43.46609" lon="10.6568317"><ele>278.6666666666667</ele><time>2026-04-18T13:50:38.748Z</time></trkpt><trkpt lat="43.4660533" lon="10.6566033"><ele>281.0</ele><time>2026-04-18T13:50:39.745Z</time></trkpt><trkpt lat="43.4659367" lon="10.6564167"><ele>281.0</ele><time>2026-04-18T13:50:40.742Z</time></trkpt><trkpt lat="43.4658983" lon="10.6561733"><ele>281.0</ele><time>2026-04-18T13:50:41.745Z</time></trkpt><trkpt lat="43.4658533" lon="10.655925"><ele>281.0</ele><time>2026-04-18T13:50:42.745Z</time></trkpt><trkpt lat="43.465805" lon="10.6556783"><ele>283.0</ele><time>2026-04-18T13:50:43.746Z</time></trkpt><trkpt lat="43.4657433" lon="10.6554317"><ele>285.0</ele><time>2026-04-18T13:50:44.746Z</time></trkpt><trkpt lat="43.465705" lon="10.6551783"><ele>287.0</ele><time>2026-04-18T13:50:45.746Z</time></trkpt><trkpt lat="43.46565" lon="10.6549383"><ele>288.33333333333337</ele><time>2026-04-18T13:50:46.742Z</time></trkpt><trkpt lat="43.4655833" lon="10.6546983"><ele>289.6666666666667</ele><time>2026-04-18T13:50:47.75Z</time></trkpt><trkpt lat="43.46553" lon="10.6544483"><ele>291.0</ele><time>2026-04-18T13:50:48.743Z</time></trkpt><trkpt lat="43.46547" lon="10.6541933"><ele>293.3333333333333</ele><time>2026-04-18T13:50:49.744Z</time></trkpt><trkpt lat="43.4653933" lon="10.6539383"><ele>295.66666666666663</ele><time>2026-04-18T13:50:50.747Z</time></trkpt><trkpt lat="43.4653367" lon="10.6536883"><ele>298.0</ele><time>2026-04-18T13:50:51.743Z</time></trkpt><trkpt lat="43.4652817" lon="10.65346"><ele>299.0</ele><time>2026-04-18T13:50:52.754Z</time></trkpt><trkpt lat="43.4652167" lon="10.6532467"><ele>300.0</ele><time>2026-04-18T13:50:53.744Z</time></trkpt><trkpt lat="43.4651767" lon="10.6530483"><ele>301.0</ele><time>2026-04-18T13:50:54.744Z</time></trkpt><trkpt lat="43.4651217" lon="10.6528733"><ele>301.75</ele><time>2026-04-18T13:50:55.742Z</time></trkpt><trkpt lat="43.4650783" lon="10.6527033"><ele>302.5</ele><time>2026-04-18T13:50:56.747Z</time></trkpt><trkpt lat="43.4650633" lon="10.6525333"><ele>303.25</ele><time>2026-04-18T13:50:57.743Z</time></trkpt><trkpt lat="43.46508" lon="10.6523617"><ele>304.0</ele><time>2026-04-18T13:50:58.745Z</time></trkpt><trkpt lat="43.4651267" lon="10.6521733"><ele>304.66666666666663</ele><time>2026-04-18T13:50:59.742Z</time></trkpt><trkpt lat="43.4651717" lon="10.651955"><ele>305.3333333333333</ele><time>2026-04-18T13:51:00.743Z</time></trkpt><trkpt lat="43.4652067" lon="10.6517067"><ele>306.0</ele><time>2026-04-18T13:51:01.744Z</time></trkpt><trkpt lat="43.465235" lon="10.651455"><ele>306.0</ele><time>2026-04-18T13:51:02.749Z</time></trkpt><trkpt lat="43.4652733" lon="10.6512333"><ele>306.0</ele><time>2026-04-18T13:51:03.748Z</time></trkpt><trkpt lat="43.46529" lon="10.6510233"><ele>306.0</ele><time>2026-04-18T13:51:04.746Z</time></trkpt><trkpt lat="43.46532" lon="10.6508367"><ele>306.25</ele><time>2026-04-18T13:51:05.743Z</time></trkpt><trkpt lat="43.465325" lon="10.6506467"><ele>306.5</ele><time>2026-04-18T13:51:06.742Z</time></trkpt><trkpt lat="43.4653633" lon="10.650495"><ele>306.75</ele><time>2026-04-18T13:51:07.744Z</time></trkpt><trkpt lat="43.4653667" lon="10.6503433"><ele>307.0</ele><time>2026-04-18T13:51:08.743Z</time></trkpt><trkpt lat="43.46536" lon="10.6501983"><ele>307.0</ele><time>2026-04-18T13:51:09.743Z</time></trkpt><trkpt lat="43.4653867" lon="10.6500683"><ele>307.0</ele><time>2026-04-18T13:51:10.745Z</time></trkpt><trkpt lat="43.4654233" lon="10.6499167"><ele>307.0</ele><time>2026-04-18T13:51:11.746Z</time></trkpt><trkpt lat="43.4654567" lon="10.6497483"><ele>307.0</ele><time>2026-04-18T13:51:12.743Z</time></trkpt><trkpt lat="43.4654883" lon="10.6495783"><ele>307.0</ele><time>2026-04-18T13:51:13.741Z</time></trkpt><trkpt lat="43.4655233" lon="10.649395"><ele>307.0</ele><time>2026-04-18T13:51:14.743Z</time></trkpt><trkpt lat="43.4655783" lon="10.6491833"><ele>307.0</ele><time>2026-04-18T13:51:15.744Z</time></trkpt><trkpt lat="43.4656267" lon="10.6489433"><ele>307.0</ele><time>2026-04-18T13:51:16.745Z</time></trkpt><trkpt lat="43.46565" lon="10.6486917"><ele>307.0</ele><time>2026-04-18T13:51:17.747Z</time></trkpt><trkpt lat="43.4657067" lon="10.648465"><ele>307.0</ele><time>2026-04-18T13:51:18.746Z</time></trkpt><trkpt lat="43.4657417" lon="10.64823"><ele>303.0</ele><time>2026-04-18T13:51:19.747Z</time></trkpt><trkpt lat="43.4657817" lon="10.6479983"><ele>299.0</ele><time>2026-04-18T13:51:20.744Z</time></trkpt><trkpt lat="43.4658117" lon="10.647765"><ele>295.0</ele><time>2026-04-18T13:51:21.743Z</time></trkpt><trkpt lat="43.4658367" lon="10.6475233"><ele>292.66666666666663</ele><time>2026-04-18T13:51:22.74Z</time></trkpt><trkpt lat="43.4658867" lon="10.64728"><ele>290.3333333333333</ele><time>2026-04-18T13:51:23.751Z</time></trkpt><trkpt lat="43.4659217" lon="10.6470317"><ele>288.0</ele><time>2026-04-18T13:51:24.745Z</time></trkpt><trkpt lat="43.4659517" lon="10.6467967"><ele>288.0</ele><time>2026-04-18T13:51:25.745Z</time></trkpt><trkpt lat="43.46597" lon="10.6465583"><ele>288.0</ele><time>2026-04-18T13:51:26.747Z</time></trkpt><trkpt lat="43.4660017" lon="10.64632"><ele>288.0</ele><time>2026-04-18T13:51:27.745Z</time></trkpt><trkpt lat="43.4660433" lon="10.646075"><ele>288.0</ele><time>2026-04-18T13:51:28.747Z</time></trkpt><trkpt lat="43.4660917" lon="10.6458233"><ele>288.0</ele><time>2026-04-18T13:51:29.745Z</time></trkpt><trkpt lat="43.466125" lon="10.64556"><ele>288.0</ele><time>2026-04-18T13:51:30.747Z</time></trkpt><trkpt lat="43.4661933" lon="10.6453233"><ele>288.3333333333333</ele><time>2026-04-18T13:51:31.751Z</time></trkpt><trkpt lat="43.4662467" lon="10.6451017"><ele>288.66666666666663</ele><time>2026-04-18T13:51:32.744Z</time></trkpt><trkpt lat="43.4663083" lon="10.6448983"><ele>289.0</ele><time>2026-04-18T13:51:33.745Z</time></trkpt><trkpt lat="43.4663617" lon="10.644695"><ele>290.3333333333333</ele><time>2026-04-18T13:51:34.744Z</time></trkpt><trkpt lat="43.466435" lon="10.6444833"><ele>291.6666666666667</ele><time>2026-04-18T13:51:35.744Z</time></trkpt><trkpt lat="43.4665317" lon="10.6442667"><ele>293.0</ele><time>2026-04-18T13:51:36.748Z</time></trkpt><trkpt lat="43.46662" lon="10.6440533"><ele>294.0</ele><time>2026-04-18T13:51:37.744Z</time></trkpt><trkpt lat="43.4666783" lon="10.643845"><ele>295.0</ele><time>2026-04-18T13:51:38.744Z</time></trkpt><trkpt lat="43.4667533" lon="10.6436683"><ele>296.0</ele><time>2026-04-18T13:51:39.741Z</time></trkpt><trkpt lat="43.4668183" lon="10.643505"><ele>297.0</ele><time>2026-04-18T13:51:40.742Z</time></trkpt><trkpt lat="43.46686" lon="10.6433467"><ele>297.8333333333333</ele><time>2026-04-18T13:51:41.744Z</time></trkpt><trkpt lat="43.4668917" lon="10.643205"><ele>298.6666666666667</ele><time>2026-04-18T13:51:42.742Z</time></trkpt><trkpt lat="43.4669283" lon="10.6430917"><ele>299.5</ele><time>2026-04-18T13:51:43.746Z</time></trkpt><trkpt lat="43.46695" lon="10.64299"><ele>300.33333333333337</ele><time>2026-04-18T13:51:44.744Z</time></trkpt><trkpt lat="43.466945" lon="10.6428883"><ele>301.1666666666667</ele><time>2026-04-18T13:51:45.744Z</time></trkpt><trkpt lat="43.4669267" lon="10.6427867"><ele>302.0</ele><time>2026-04-18T13:51:46.748Z</time></trkpt><trkpt lat="43.46692" lon="10.6426967"><ele>303.2</ele><time>2026-04-18T13:51:47.742Z</time></trkpt><trkpt lat="43.4670017" lon="10.64258"><ele>304.4</ele><time>2026-04-18T13:51:49.749Z</time></trkpt><trkpt lat="43.4670617" lon="10.6424833"><ele>305.6</ele><time>2026-04-18T13:51:50.753Z</time></trkpt><trkpt lat="43.4671417" lon="10.6423917"><ele>306.8</ele><time>2026-04-18T13:51:51.747Z</time></trkpt><trkpt lat="43.4672233" lon="10.6422833"><ele>308.0</ele><time>2026-04-18T13:51:52.745Z</time></trkpt><trkpt lat="43.4673067" lon="10.6421633"><ele>309.0</ele><time>2026-04-18T13:51:53.743Z</time></trkpt><trkpt lat="43.46739" lon="10.641985"><ele>310.0</ele><time>2026-04-18T13:51:54.742Z</time></trkpt><trkpt lat="43.4674817" lon="10.64184"><ele>311.0</ele><time>2026-04-18T13:51:55.742Z</time></trkpt><trkpt lat="43.467565" lon="10.6416917"><ele>312.0</ele><time>2026-04-18T13:51:56.748Z</time></trkpt><trkpt lat="43.467645" lon="10.641515"><ele>313.75</ele><time>2026-04-18T13:51:57.748Z</time></trkpt><trkpt lat="43.4677083" lon="10.6413317"><ele>315.5</ele><time>2026-04-18T13:51:58.748Z</time></trkpt><trkpt lat="43.46776" lon="10.6411717"><ele>317.25</ele><time>2026-04-18T13:51:59.744Z</time></trkpt><trkpt lat="43.4678083" lon="10.6410283"><ele>319.0</ele><time>2026-04-18T13:52:00.743Z</time></trkpt><trkpt lat="43.4678517" lon="10.640875"><ele>320.25</ele><time>2026-04-18T13:52:01.745Z</time></trkpt><trkpt lat="43.4679" lon="10.64072"><ele>321.5</ele><time>2026-04-18T13:52:02.748Z</time></trkpt><trkpt lat="43.467955" lon="10.6405683"><ele>322.75</ele><time>2026-04-18T13:52:03.745Z</time></trkpt><trkpt lat="43.4680117" lon="10.64043"><ele>324.0</ele><time>2026-04-18T13:52:04.743Z</time></trkpt><trkpt lat="43.4680633" lon="10.6403033"><ele>325.6</ele><time>2026-04-18T13:52:05.748Z</time></trkpt><trkpt lat="43.4681233" lon="10.640185"><ele>327.2</ele><time>2026-04-18T13:52:06.743Z</time></trkpt><trkpt lat="43.468195" lon="10.6400833"><ele>328.8</ele><time>2026-04-18T13:52:07.743Z</time></trkpt><trkpt lat="43.468275" lon="10.63999"><ele>330.40000000000003</ele><time>2026-04-18T13:52:08.746Z</time></trkpt><trkpt lat="43.4683717" lon="10.63992"><ele>332.0</ele><time>2026-04-18T13:52:09.743Z</time></trkpt><trkpt lat="43.4684767" lon="10.63986"><ele>332.0</ele><time>2026-04-18T13:52:10.745Z</time></trkpt><trkpt lat="43.4685633" lon="10.6398167"><ele>332.0</ele><time>2026-04-18T13:52:11.745Z</time></trkpt><trkpt lat="43.4686417" lon="10.6397867"><ele>332.0</ele><time>2026-04-18T13:52:12.741Z</time></trkpt><trkpt lat="43.468705" lon="10.6397533"><ele>332.0</ele><time>2026-04-18T13:52:13.744Z</time></trkpt><trkpt lat="43.468795" lon="10.6397083"><ele>332.0</ele><time>2026-04-18T13:52:15.742Z</time></trkpt><trkpt lat="43.4688767" lon="10.6396633"><ele>332.0</ele><time>2026-04-18T13:52:17.742Z</time></trkpt><trkpt lat="43.4689683" lon="10.6396083"><ele>332.1666666666667</ele><time>2026-04-18T13:52:19.747Z</time></trkpt><trkpt lat="43.46907" lon="10.6395417"><ele>332.33333333333337</ele><time>2026-04-18T13:52:21.747Z</time></trkpt><trkpt lat="43.469175" lon="10.63944"><ele>332.5</ele><time>2026-04-18T13:52:23.745Z</time></trkpt><trkpt lat="43.4692267" lon="10.639385"><ele>332.6666666666667</ele><time>2026-04-18T13:52:24.745Z</time></trkpt><trkpt lat="43.469275" lon="10.6393283"><ele>332.8333333333333</ele><time>2026-04-18T13:52:25.748Z</time></trkpt><trkpt lat="43.469325" lon="10.63927"><ele>333.0</ele><time>2026-04-18T13:52:26.748Z</time></trkpt><trkpt lat="43.4693733" lon="10.6392133"><ele>333.0</ele><time>2026-04-18T13:52:27.75Z</time></trkpt><trkpt lat="43.4694183" lon="10.6391483"><ele>333.0</ele><time>2026-04-18T13:52:28.744Z</time></trkpt><trkpt lat="43.4694567" lon="10.639075"><ele>333.0</ele><time>2026-04-18T13:52:29.746Z</time></trkpt><trkpt lat="43.4694833" lon="10.638995"><ele>333.0</ele><time>2026-04-18T13:52:30.745Z</time></trkpt><trkpt lat="43.4695017" lon="10.63891"><ele>333.0</ele><time>2026-04-18T13:52:31.742Z</time></trkpt><trkpt lat="43.4695133" lon="10.63882"><ele>333.0</ele><time>2026-04-18T13:52:32.743Z</time></trkpt><trkpt lat="43.4695283" lon="10.638735"><ele>333.0</ele><time>2026-04-18T13:52:33.743Z</time></trkpt><trkpt lat="43.4695717" lon="10.6385767"><ele>332.0</ele><time>2026-04-18T13:52:35.745Z</time></trkpt><trkpt lat="43.4696017" lon="10.6384983"><ele>331.0</ele><time>2026-04-18T13:52:36.74Z</time></trkpt><trkpt lat="43.46964" lon="10.6384283"><ele>330.0</ele><time>2026-04-18T13:52:37.745Z</time></trkpt><trkpt lat="43.469685" lon="10.6383667"><ele>329.0</ele><time>2026-04-18T13:52:38.743Z</time></trkpt><trkpt lat="43.469775" lon="10.6382533"><ele>328.0</ele><time>2026-04-18T13:52:40.745Z</time></trkpt><trkpt lat="43.4698833" lon="10.6381683"><ele>327.0</ele><time>2026-04-18T13:52:42.752Z</time></trkpt><trkpt lat="43.4699483" lon="10.6381183"><ele>330.0</ele><time>2026-04-18T13:52:43.748Z</time></trkpt><trkpt lat="43.47002" lon="10.6380667"><ele>333.0</ele><time>2026-04-18T13:52:44.746Z</time></trkpt><trkpt lat="43.4701017" lon="10.6380167"><ele>336.0</ele><time>2026-04-18T13:52:45.743Z</time></trkpt><trkpt lat="43.47018" lon="10.6379733"><ele>339.0</ele><time>2026-04-18T13:52:46.741Z</time></trkpt><trkpt lat="43.4702583" lon="10.6379383"><ele>342.0</ele><time>2026-04-18T13:52:47.743Z</time></trkpt><trkpt lat="43.4703417" lon="10.6378967"><ele>345.0</ele><time>2026-04-18T13:52:48.744Z</time></trkpt><trkpt lat="43.4704267" lon="10.637855"><ele>345.3333333333333</ele><time>2026-04-18T13:52:49.748Z</time></trkpt><trkpt lat="43.47051" lon="10.6378117"><ele>345.6666666666667</ele><time>2026-04-18T13:52:50.749Z</time></trkpt><trkpt lat="43.4705967" lon="10.6377667"><ele>346.0</ele><time>2026-04-18T13:52:51.745Z</time></trkpt><trkpt lat="43.4706783" lon="10.6377267"><ele>346.33333333333337</ele><time>2026-04-18T13:52:52.74Z</time></trkpt><trkpt lat="43.4707633" lon="10.6376883"><ele>346.6666666666667</ele><time>2026-04-18T13:52:53.743Z</time></trkpt><trkpt lat="43.470845" lon="10.6376367"><ele>347.0</ele><time>2026-04-18T13:52:54.75Z</time></trkpt><trkpt lat="43.4709217" lon="10.63757"><ele>346.8</ele><time>2026-04-18T13:52:55.752Z</time></trkpt><trkpt lat="43.471" lon="10.637495"><ele>346.6</ele><time>2026-04-18T13:52:56.746Z</time></trkpt><trkpt lat="43.4710817" lon="10.6374167"><ele>346.40000000000003</ele><time>2026-04-18T13:52:57.746Z</time></trkpt><trkpt lat="43.4711667" lon="10.637335"><ele>346.20000000000005</ele><time>2026-04-18T13:52:58.747Z</time></trkpt><trkpt lat="43.4712567" lon="10.6372417"><ele>346.0</ele><time>2026-04-18T13:52:59.743Z</time></trkpt><trkpt lat="43.4713617" lon="10.637145"><ele>346.0</ele><time>2026-04-18T13:53:00.742Z</time></trkpt><trkpt lat="43.471475" lon="10.6370483"><ele>346.0</ele><time>2026-04-18T13:53:01.746Z</time></trkpt><trkpt lat="43.4715883" lon="10.6369583"><ele>346.0</ele><time>2026-04-18T13:53:02.748Z</time></trkpt><trkpt lat="43.4716933" lon="10.6368783"><ele>346.0</ele><time>2026-04-18T13:53:03.744Z</time></trkpt><trkpt lat="43.4717917" lon="10.6368033"><ele>347.5</ele><time>2026-04-18T13:53:04.741Z</time></trkpt><trkpt lat="43.471885" lon="10.63673"><ele>349.0</ele><time>2026-04-18T13:53:05.753Z</time></trkpt><trkpt lat="43.471985" lon="10.6366533"><ele>350.5</ele><time>2026-04-18T13:53:06.747Z</time></trkpt><trkpt lat="43.4721017" lon="10.6365617"><ele>352.0</ele><time>2026-04-18T13:53:07.746Z</time></trkpt><trkpt lat="43.4722267" lon="10.6364583"><ele>352.0</ele><time>2026-04-18T13:53:08.745Z</time></trkpt><trkpt lat="43.472335" lon="10.6363633"><ele>352.0</ele><time>2026-04-18T13:53:09.743Z</time></trkpt><trkpt lat="43.4724183" lon="10.6362917"><ele>352.0</ele><time>2026-04-18T13:53:10.742Z</time></trkpt><trkpt lat="43.4724817" lon="10.6362333"><ele>352.0</ele><time>2026-04-18T13:53:11.745Z</time></trkpt><trkpt lat="43.4725617" lon="10.63614"><ele>352.0</ele><time>2026-04-18T13:53:13.745Z</time></trkpt><trkpt lat="43.4725433" lon="10.6360533"><ele>352.0</ele><time>2026-04-18T13:53:17.743Z</time></trkpt><trkpt lat="43.4724683" lon="10.6360767"><ele>352.0</ele><time>2026-04-18T13:53:20.748Z</time></trkpt><trkpt lat="43.4723817" lon="10.6361283"><ele>352.0</ele><time>2026-04-18T13:53:46.744Z</time></trkpt><trkpt lat="43.472305" lon="10.63615"><ele>352.0</ele><time>2026-04-18T13:53:47.743Z</time></trkpt><trkpt lat="43.472215" lon="10.636155"><ele>352.0</ele><time>2026-04-18T13:53:48.746Z</time></trkpt><trkpt lat="43.4721217" lon="10.6361383"><ele>352.0</ele><time>2026-04-18T13:53:49.741Z</time></trkpt><trkpt lat="43.4720183" lon="10.636085"><ele>354.0</ele><time>2026-04-18T13:53:50.747Z</time></trkpt><trkpt lat="43.4719217" lon="10.6359917"><ele>356.0</ele><time>2026-04-18T13:53:51.746Z</time></trkpt><trkpt lat="43.4718283" lon="10.6358567"><ele>358.0</ele><time>2026-04-18T13:53:52.747Z</time></trkpt><trkpt lat="43.4717317" lon="10.6356733"><ele>360.0</ele><time>2026-04-18T13:53:53.744Z</time></trkpt><trkpt lat="43.471635" lon="10.63545"><ele>361.0</ele><time>2026-04-18T13:53:54.744Z</time></trkpt><trkpt lat="43.471535" lon="10.6351967"><ele>362.0</ele><time>2026-04-18T13:53:55.745Z</time></trkpt><trkpt lat="43.47143" lon="10.6349167"><ele>363.0</ele><time>2026-04-18T13:53:56.75Z</time></trkpt><trkpt lat="43.47132" lon="10.6346367"><ele>359.3333333333333</ele><time>2026-04-18T13:53:57.746Z</time></trkpt><trkpt lat="43.47121" lon="10.63437"><ele>355.66666666666663</ele><time>2026-04-18T13:53:58.741Z</time></trkpt><trkpt lat="43.47111" lon="10.6341167"><ele>352.0</ele><time>2026-04-18T13:53:59.746Z</time></trkpt><trkpt lat="43.4710133" lon="10.6338633"><ele>354.3333333333333</ele><time>2026-04-18T13:54:00.746Z</time></trkpt><trkpt lat="43.4709233" lon="10.6336183"><ele>356.6666666666667</ele><time>2026-04-18T13:54:01.748Z</time></trkpt><trkpt lat="43.4708417" lon="10.6333967"><ele>359.0</ele><time>2026-04-18T13:54:02.749Z</time></trkpt><trkpt lat="43.470755" lon="10.63319"><ele>359.0</ele><time>2026-04-18T13:54:03.747Z</time></trkpt><trkpt lat="43.4706467" lon="10.632995"><ele>359.0</ele><time>2026-04-18T13:54:04.741Z</time></trkpt><trkpt lat="43.47051" lon="10.6328017"><ele>359.0</ele><time>2026-04-18T13:54:05.745Z</time></trkpt><trkpt lat="43.4703667" lon="10.6326183"><ele>356.33333333333337</ele><time>2026-04-18T13:54:06.744Z</time></trkpt><trkpt lat="43.47024" lon="10.6324533"><ele>353.6666666666667</ele><time>2026-04-18T13:54:07.742Z</time></trkpt><trkpt lat="43.4701267" lon="10.6323"><ele>351.0</ele><time>2026-04-18T13:54:08.743Z</time></trkpt><trkpt lat="43.47" lon="10.6321633"><ele>351.0</ele><time>2026-04-18T13:54:09.742Z</time></trkpt><trkpt lat="43.4698667" lon="10.6320467"><ele>351.0</ele><time>2026-04-18T13:54:10.744Z</time></trkpt><trkpt lat="43.4697317" lon="10.6319683"><ele>351.0</ele><time>2026-04-18T13:54:11.746Z</time></trkpt><trkpt lat="43.46961" lon="10.6319133"><ele>351.0</ele><time>2026-04-18T13:54:12.743Z</time></trkpt><trkpt lat="43.4695083" lon="10.6318567"><ele>350.6</ele><time>2026-04-18T13:54:13.745Z</time></trkpt><trkpt lat="43.4694333" lon="10.6317733"><ele>350.20000000000005</ele><time>2026-04-18T13:54:14.744Z</time></trkpt><trkpt lat="43.469395" lon="10.6316567"><ele>349.79999999999995</ele><time>2026-04-18T13:54:15.742Z</time></trkpt><trkpt lat="43.4693867" lon="10.6315"><ele>349.4</ele><time>2026-04-18T13:54:16.742Z</time></trkpt><trkpt lat="43.46937" lon="10.6313017"><ele>349.0</ele><time>2026-04-18T13:54:17.742Z</time></trkpt><trkpt lat="43.469325" lon="10.6310983"><ele>349.0</ele><time>2026-04-18T13:54:18.745Z</time></trkpt><trkpt lat="43.469275" lon="10.6309183"><ele>349.0</ele><time>2026-04-18T13:54:19.748Z</time></trkpt><trkpt lat="43.469235" lon="10.6307633"><ele>349.0</ele><time>2026-04-18T13:54:20.744Z</time></trkpt><trkpt lat="43.4692167" lon="10.6306133"><ele>349.0</ele><time>2026-04-18T13:54:21.748Z</time></trkpt><trkpt lat="43.4692317" lon="10.630475"><ele>349.0</ele><time>2026-04-18T13:54:22.74Z</time></trkpt><trkpt lat="43.4692883" lon="10.630345"><ele>349.0</ele><time>2026-04-18T13:54:23.742Z</time></trkpt><trkpt lat="43.4693617" lon="10.63022"><ele>349.0</ele><time>2026-04-18T13:54:24.742Z</time></trkpt><trkpt lat="43.4694317" lon="10.6300967"><ele>349.0</ele><time>2026-04-18T13:54:25.743Z</time></trkpt><trkpt lat="43.4694733" lon="10.629955"><ele>350.66666666666663</ele><time>2026-04-18T13:54:26.745Z</time></trkpt><trkpt lat="43.4694983" lon="10.6298233"><ele>352.3333333333333</ele><time>2026-04-18T13:54:27.745Z</time></trkpt><trkpt lat="43.46949" lon="10.62971"><ele>354.0</ele><time>2026-04-18T13:54:28.743Z</time></trkpt><trkpt lat="43.469465" lon="10.629615"><ele>355.6666666666667</ele><time>2026-04-18T13:54:29.741Z</time></trkpt><trkpt lat="43.4694183" lon="10.6295467"><ele>357.33333333333337</ele><time>2026-04-18T13:54:30.75Z</time></trkpt><trkpt lat="43.4693317" lon="10.6295083"><ele>359.0</ele><time>2026-04-18T13:54:31.747Z</time></trkpt><trkpt lat="43.469255" lon="10.6295033"><ele>359.0</ele><time>2026-04-18T13:54:32.747Z</time></trkpt><trkpt lat="43.4691033" lon="10.6296383"><ele>359.0</ele><time>2026-04-18T13:54:33.744Z</time></trkpt><trkpt lat="43.4689767" lon="10.6297333"><ele>359.0</ele><time>2026-04-18T13:54:34.747Z</time></trkpt><trkpt lat="43.46885" lon="10.62984"><ele>360.6666666666667</ele><time>2026-04-18T13:54:35.747Z</time></trkpt><trkpt lat="43.468725" lon="10.62996"><ele>362.3333333333333</ele><time>2026-04-18T13:54:36.747Z</time></trkpt><trkpt lat="43.4686133" lon="10.6301333"><ele>364.0</ele><time>2026-04-18T13:54:37.745Z</time></trkpt><trkpt lat="43.4685267" lon="10.63034"><ele>364.0</ele><time>2026-04-18T13:54:38.749Z</time></trkpt><trkpt lat="43.468485" lon="10.6305683"><ele>364.0</ele><time>2026-04-18T13:54:39.744Z</time></trkpt><trkpt lat="43.4684483" lon="10.6307883"><ele>364.0</ele><time>2026-04-18T13:54:40.746Z</time></trkpt><trkpt lat="43.468395" lon="10.6309733"><ele>364.0</ele><time>2026-04-18T13:54:41.743Z</time></trkpt><trkpt lat="43.4683217" lon="10.63111"><ele>364.0</ele><time>2026-04-18T13:54:42.749Z</time></trkpt><trkpt lat="43.468235" lon="10.6311983"><ele>364.0</ele><time>2026-04-18T13:54:43.746Z</time></trkpt><trkpt lat="43.4681367" lon="10.63123"><ele>364.0</ele><time>2026-04-18T13:54:44.745Z</time></trkpt><trkpt lat="43.46802" lon="10.6312"><ele>364.3333333333333</ele><time>2026-04-18T13:54:45.746Z</time></trkpt><trkpt lat="43.4678767" lon="10.6311267"><ele>364.6666666666667</ele><time>2026-04-18T13:54:46.748Z</time></trkpt><trkpt lat="43.4677133" lon="10.6310367"><ele>365.0</ele><time>2026-04-18T13:54:47.747Z</time></trkpt><trkpt lat="43.4675417" lon="10.63096"><ele>365.0</ele><time>2026-04-18T13:54:48.744Z</time></trkpt><trkpt lat="43.4673783" lon="10.6308883"><ele>365.0</ele><time>2026-04-18T13:54:49.742Z</time></trkpt><trkpt lat="43.4672217" lon="10.6308317"><ele>365.0</ele><time>2026-04-18T13:54:50.742Z</time></trkpt><trkpt lat="43.467065" lon="10.6308017"><ele>364.6666666666667</ele><time>2026-04-18T13:54:51.743Z</time></trkpt><trkpt lat="43.466915" lon="10.6308117"><ele>364.3333333333333</ele><time>2026-04-18T13:54:52.746Z</time></trkpt><trkpt lat="43.4667617" lon="10.6308683"><ele>364.0</ele><time>2026-04-18T13:54:53.743Z</time></trkpt><trkpt lat="43.46661" lon="10.6309417"><ele>364.0</ele><time>2026-04-18T13:54:54.744Z</time></trkpt><trkpt lat="43.466475" lon="10.630985"><ele>364.0</ele><time>2026-04-18T13:54:55.74Z</time></trkpt><trkpt lat="43.46635" lon="10.6309733"><ele>364.0</ele><time>2026-04-18T13:54:56.745Z</time></trkpt><trkpt lat="43.4662383" lon="10.63092"><ele>364.0</ele><time>2026-04-18T13:54:57.745Z</time></trkpt><trkpt lat="43.4661483" lon="10.630845"><ele>363.8333333333333</ele><time>2026-04-18T13:54:58.743Z</time></trkpt><trkpt lat="43.46609" lon="10.630785"><ele>363.66666666666663</ele><time>2026-04-18T13:54:59.743Z</time></trkpt><trkpt lat="43.46606" lon="10.6306067"><ele>363.5</ele><time>2026-04-18T13:55:09.742Z</time></trkpt><trkpt lat="43.4660467" lon="10.630505"><ele>363.3333333333333</ele><time>2026-04-18T13:55:10.746Z</time></trkpt><trkpt lat="43.4660433" lon="10.6304033"><ele>363.1666666666667</ele><time>2026-04-18T13:55:11.746Z</time></trkpt><trkpt lat="43.46605" lon="10.6303"><ele>363.0</ele><time>2026-04-18T13:55:12.743Z</time></trkpt><trkpt lat="43.4660567" lon="10.6301917"><ele>363.4</ele><time>2026-04-18T13:55:13.745Z</time></trkpt><trkpt lat="43.4660533" lon="10.63008"><ele>363.79999999999995</ele><time>2026-04-18T13:55:14.749Z</time></trkpt><trkpt lat="43.46604" lon="10.62997"><ele>364.2</ele><time>2026-04-18T13:55:15.744Z</time></trkpt><trkpt lat="43.466005" lon="10.6298567"><ele>364.6</ele><time>2026-04-18T13:55:16.746Z</time></trkpt><trkpt lat="43.46595" lon="10.6297417"><ele>365.0</ele><time>2026-04-18T13:55:17.745Z</time></trkpt><trkpt lat="43.4658667" lon="10.6296083"><ele>368.5</ele><time>2026-04-18T13:55:18.741Z</time></trkpt><trkpt lat="43.4657733" lon="10.6294683"><ele>372.0</ele><time>2026-04-18T13:55:19.743Z</time></trkpt><trkpt lat="43.4656833" lon="10.6293383"><ele>375.5</ele><time>2026-04-18T13:55:20.745Z</time></trkpt><trkpt lat="43.465585" lon="10.6292183"><ele>379.0</ele><time>2026-04-18T13:55:21.743Z</time></trkpt><trkpt lat="43.46548" lon="10.6291083"><ele>376.0</ele><time>2026-04-18T13:55:22.746Z</time></trkpt><trkpt lat="43.4653783" lon="10.6290083"><ele>373.0</ele><time>2026-04-18T13:55:23.744Z</time></trkpt><trkpt lat="43.465285" lon="10.628885"><ele>370.0</ele><time>2026-04-18T13:55:24.744Z</time></trkpt><trkpt lat="43.4652033" lon="10.6287433"><ele>367.0</ele><time>2026-04-18T13:55:25.748Z</time></trkpt><trkpt lat="43.4651317" lon="10.6286167"><ele>367.0</ele><time>2026-04-18T13:55:26.742Z</time></trkpt><trkpt lat="43.465075" lon="10.6285117"><ele>367.0</ele><time>2026-04-18T13:55:27.743Z</time></trkpt><trkpt lat="43.4650367" lon="10.628415"><ele>367.0</ele><time>2026-04-18T13:55:28.746Z</time></trkpt><trkpt lat="43.4650267" lon="10.6283117"><ele>367.0</ele><time>2026-04-18T13:55:29.743Z</time></trkpt><trkpt lat="43.4650383" lon="10.62821"><ele>367.0</ele><time>2026-04-18T13:55:30.746Z</time></trkpt><trkpt lat="43.46508" lon="10.62809"><ele>367.0</ele><time>2026-04-18T13:55:31.743Z</time></trkpt><trkpt lat="43.46516" lon="10.6279333"><ele>367.8</ele><time>2026-04-18T13:55:32.749Z</time></trkpt><trkpt lat="43.465245" lon="10.6277867"><ele>368.6</ele><time>2026-04-18T13:55:33.744Z</time></trkpt><trkpt lat="43.46533" lon="10.6276633"><ele>369.40000000000003</ele><time>2026-04-18T13:55:34.75Z</time></trkpt><trkpt lat="43.465405" lon="10.6275683"><ele>370.20000000000005</ele><time>2026-04-18T13:55:35.746Z</time></trkpt><trkpt lat="43.4654617" lon="10.6274883"><ele>371.0</ele><time>2026-04-18T13:55:36.744Z</time></trkpt><trkpt lat="43.465505" lon="10.6274167"><ele>371.0</ele><time>2026-04-18T13:55:37.744Z</time></trkpt><trkpt lat="43.4655533" lon="10.62732"><ele>371.0</ele><time>2026-04-18T13:55:39.747Z</time></trkpt><trkpt lat="43.465435" lon="10.6271967"><ele>371.0</ele><time>2026-04-18T13:55:41.746Z</time></trkpt><trkpt lat="43.46532" lon="10.6271583"><ele>371.0</ele><time>2026-04-18T13:55:42.746Z</time></trkpt><trkpt lat="43.465155" lon="10.62712"><ele>371.0</ele><time>2026-04-18T13:55:43.742Z</time></trkpt><trkpt lat="43.4650133" lon="10.6270883"><ele>371.0</ele><time>2026-04-18T13:55:44.744Z</time></trkpt><trkpt lat="43.4648967" lon="10.62706"><ele>371.0</ele><time>2026-04-18T13:55:45.742Z</time></trkpt><trkpt lat="43.4648" lon="10.6270183"><ele>371.0</ele><time>2026-04-18T13:55:46.744Z</time></trkpt><trkpt lat="43.464705" lon="10.6269467"><ele>369.20000000000005</ele><time>2026-04-18T13:55:47.744Z</time></trkpt><trkpt lat="43.4646167" lon="10.6268467"><ele>367.40000000000003</ele><time>2026-04-18T13:55:48.744Z</time></trkpt><trkpt lat="43.4645433" lon="10.626745"><ele>365.6</ele><time>2026-04-18T13:55:49.752Z</time></trkpt><trkpt lat="43.4644933" lon="10.6266367"><ele>363.8</ele><time>2026-04-18T13:55:50.746Z</time></trkpt><trkpt lat="43.4644617" lon="10.6265"><ele>362.0</ele><time>2026-04-18T13:55:51.746Z</time></trkpt><trkpt lat="43.4644483" lon="10.6263383"><ele>362.0</ele><time>2026-04-18T13:55:52.746Z</time></trkpt><trkpt lat="43.4644433" lon="10.6261867"><ele>362.0</ele><time>2026-04-18T13:55:53.742Z</time></trkpt><trkpt lat="43.4644517" lon="10.6260533"><ele>362.0</ele><time>2026-04-18T13:55:54.751Z</time></trkpt><trkpt lat="43.4644817" lon="10.6259267"><ele>362.0</ele><time>2026-04-18T13:55:55.741Z</time></trkpt><trkpt lat="43.4645367" lon="10.6257917"><ele>362.0</ele><time>2026-04-18T13:55:56.745Z</time></trkpt><trkpt lat="43.464615" lon="10.6256567"><ele>369.0</ele><time>2026-04-18T13:55:57.745Z</time></trkpt><trkpt lat="43.46469" lon="10.62553"><ele>376.0</ele><time>2026-04-18T13:55:58.743Z</time></trkpt><trkpt lat="43.4647333" lon="10.625415"><ele>383.0</ele><time>2026-04-18T13:55:59.744Z</time></trkpt><trkpt lat="43.4647583" lon="10.6253083"><ele>390.0</ele><time>2026-04-18T13:56:00.742Z</time></trkpt><trkpt lat="43.464765" lon="10.6251967"><ele>397.0</ele><time>2026-04-18T13:56:01.747Z</time></trkpt><trkpt lat="43.4647617" lon="10.6250867"><ele>397.0</ele><time>2026-04-18T13:56:02.75Z</time></trkpt><trkpt lat="43.4647633" lon="10.624975"><ele>397.0</ele><time>2026-04-18T13:56:03.746Z</time></trkpt><trkpt lat="43.4647833" lon="10.6248617"><ele>397.0</ele><time>2026-04-18T13:56:04.746Z</time></trkpt><trkpt lat="43.464835" lon="10.62475"><ele>397.0</ele><time>2026-04-18T13:56:05.745Z</time></trkpt><trkpt lat="43.464925" lon="10.62462"><ele>397.0</ele><time>2026-04-18T13:56:06.747Z</time></trkpt><trkpt lat="43.4650317" lon="10.62447"><ele>393.75</ele><time>2026-04-18T13:56:07.741Z</time></trkpt><trkpt lat="43.4651283" lon="10.624305"><ele>390.5</ele><time>2026-04-18T13:56:08.744Z</time></trkpt><trkpt lat="43.4652083" lon="10.6241317"><ele>387.25</ele><time>2026-04-18T13:56:09.744Z</time></trkpt><trkpt lat="43.4652767" lon="10.62396"><ele>384.0</ele><time>2026-04-18T13:56:10.745Z</time></trkpt><trkpt lat="43.465345" lon="10.6238067"><ele>384.0</ele><time>2026-04-18T13:56:11.742Z</time></trkpt><trkpt lat="43.4654283" lon="10.6236533"><ele>384.0</ele><time>2026-04-18T13:56:12.741Z</time></trkpt><trkpt lat="43.46551" lon="10.623495"><ele>384.0</ele><time>2026-04-18T13:56:13.744Z</time></trkpt><trkpt lat="43.4655817" lon="10.62334"><ele>384.0</ele><time>2026-04-18T13:56:14.743Z</time></trkpt><trkpt lat="43.4656483" lon="10.623205"><ele>387.2</ele><time>2026-04-18T13:56:15.747Z</time></trkpt><trkpt lat="43.4657117" lon="10.6231"><ele>390.4</ele><time>2026-04-18T13:56:16.747Z</time></trkpt><trkpt lat="43.4657717" lon="10.6230283"><ele>393.6</ele><time>2026-04-18T13:56:17.748Z</time></trkpt><trkpt lat="43.46584" lon="10.622975"><ele>396.8</ele><time>2026-04-18T13:56:18.749Z</time></trkpt><trkpt lat="43.4659133" lon="10.6229217"><ele>400.0</ele><time>2026-04-18T13:56:19.746Z</time></trkpt><trkpt lat="43.466025" lon="10.6229367"><ele>400.0</ele><time>2026-04-18T13:56:20.749Z</time></trkpt><trkpt lat="43.4661233" lon="10.6229133"><ele>400.0</ele><time>2026-04-18T13:56:21.746Z</time></trkpt><trkpt lat="43.46623" lon="10.6228533"><ele>400.0</ele><time>2026-04-18T13:56:22.743Z</time></trkpt><trkpt lat="43.4663333" lon="10.622755"><ele>400.0</ele><time>2026-04-18T13:56:23.749Z</time></trkpt><trkpt lat="43.4664167" lon="10.6226617"><ele>400.0</ele><time>2026-04-18T13:56:24.744Z</time></trkpt><trkpt lat="43.4664733" lon="10.62256"><ele>400.6</ele><time>2026-04-18T13:56:25.747Z</time></trkpt><trkpt lat="43.4665017" lon="10.62244"><ele>401.2</ele><time>2026-04-18T13:56:26.746Z</time></trkpt><trkpt lat="43.4665083" lon="10.6223033"><ele>401.79999999999995</ele><time>2026-04-18T13:56:27.744Z</time></trkpt><trkpt lat="43.466505" lon="10.62217"><ele>402.4</ele><time>2026-04-18T13:56:28.744Z</time></trkpt><trkpt lat="43.4665033" lon="10.62202"><ele>403.0</ele><time>2026-04-18T13:56:29.749Z</time></trkpt><trkpt lat="43.466515" lon="10.6218617"><ele>403.00000000000006</ele><time>2026-04-18T13:56:30.746Z</time></trkpt><trkpt lat="43.4665383" lon="10.6217183"><ele>403.0</ele><time>2026-04-18T13:56:31.744Z</time></trkpt><trkpt lat="43.4665667" lon="10.6216083"><ele>403.0</ele><time>2026-04-18T13:56:32.746Z</time></trkpt><trkpt lat="43.4665967" lon="10.6215267"><ele>403.0</ele><time>2026-04-18T13:56:33.744Z</time></trkpt><trkpt lat="43.466645" lon="10.6214567"><ele>403.00000000000006</ele><time>2026-04-18T13:56:34.755Z</time></trkpt><trkpt lat="43.4667083" lon="10.6213983"><ele>403.0</ele><time>2026-04-18T13:56:35.746Z</time></trkpt><trkpt lat="43.4667733" lon="10.621335"><ele>403.00000000000006</ele><time>2026-04-18T13:56:36.744Z</time></trkpt><trkpt lat="43.4668333" lon="10.6212717"><ele>403.0</ele><time>2026-04-18T13:56:37.743Z</time></trkpt><trkpt lat="43.466885" lon="10.621205"><ele>403.0</ele><time>2026-04-18T13:56:38.745Z</time></trkpt><trkpt lat="43.466925" lon="10.62112"><ele>403.0</ele><time>2026-04-18T13:56:39.745Z</time></trkpt><trkpt lat="43.466945" lon="10.621025"><ele>403.00000000000006</ele><time>2026-04-18T13:56:40.747Z</time></trkpt><trkpt lat="43.4669383" lon="10.620915"><ele>403.0</ele><time>2026-04-18T13:56:41.745Z</time></trkpt><trkpt lat="43.4669083" lon="10.6208067"><ele>403.59999999999997</ele><time>2026-04-18T13:56:42.744Z</time></trkpt><trkpt lat="43.4668583" lon="10.6206983"><ele>404.2</ele><time>2026-04-18T13:56:43.746Z</time></trkpt><trkpt lat="43.46678" lon="10.6205783"><ele>404.8</ele><time>2026-04-18T13:56:44.749Z</time></trkpt><trkpt lat="43.4667133" lon="10.6204717"><ele>405.4</ele><time>2026-04-18T13:56:45.745Z</time></trkpt><trkpt lat="43.46668" lon="10.620395"><ele>406.0</ele><time>2026-04-18T13:56:46.743Z</time></trkpt><trkpt lat="43.46666" lon="10.62029"><ele>406.0</ele><time>2026-04-18T13:56:47.742Z</time></trkpt><trkpt lat="43.466645" lon="10.6201733"><ele>406.0</ele><time>2026-04-18T13:56:48.742Z</time></trkpt><trkpt lat="43.4666667" lon="10.61999"><ele>406.0</ele><time>2026-04-18T13:56:49.742Z</time></trkpt><trkpt lat="43.4666867" lon="10.6198283"><ele>406.0</ele><time>2026-04-18T13:56:50.742Z</time></trkpt><trkpt lat="43.466705" lon="10.6197033"><ele>406.0</ele><time>2026-04-18T13:56:51.741Z</time></trkpt><trkpt lat="43.4667133" lon="10.6196133"><ele>406.0</ele><time>2026-04-18T13:56:52.748Z</time></trkpt><trkpt lat="43.46672" lon="10.6195167"><ele>406.0</ele><time>2026-04-18T13:56:54.744Z</time></trkpt><trkpt lat="43.4666933" lon="10.6193783"><ele>406.0</ele><time>2026-04-18T13:57:09.744Z</time></trkpt><trkpt lat="43.4666683" lon="10.6192"><ele>406.0</ele><time>2026-04-18T13:57:11.75Z</time></trkpt><trkpt lat="43.4666633" lon="10.6191033"><ele>406.0</ele><time>2026-04-18T13:57:12.746Z</time></trkpt><trkpt lat="43.4666667" lon="10.6189883"><ele>407.00000000000006</ele><time>2026-04-18T13:57:13.743Z</time></trkpt><trkpt lat="43.4666683" lon="10.6188683"><ele>408.0</ele><time>2026-04-18T13:57:14.744Z</time></trkpt><trkpt lat="43.4666567" lon="10.618755"><ele>409.0</ele><time>2026-04-18T13:57:15.743Z</time></trkpt><trkpt lat="43.4666283" lon="10.618645"><ele>410.0</ele><time>2026-04-18T13:57:16.743Z</time></trkpt><trkpt lat="43.4665783" lon="10.6185417"><ele>411.00000000000006</ele><time>2026-04-18T13:57:17.747Z</time></trkpt><trkpt lat="43.46652" lon="10.6184283"><ele>412.0</ele><time>2026-04-18T13:57:18.745Z</time></trkpt><trkpt lat="43.466455" lon="10.6183033"><ele>412.5</ele><time>2026-04-18T13:57:19.743Z</time></trkpt><trkpt lat="43.4663867" lon="10.6181717"><ele>413.0</ele><time>2026-04-18T13:57:20.744Z</time></trkpt><trkpt lat="43.4663133" lon="10.6180367"><ele>413.5</ele><time>2026-04-18T13:57:21.741Z</time></trkpt><trkpt lat="43.46624" lon="10.6178983"><ele>414.0</ele><time>2026-04-18T13:57:22.754Z</time></trkpt><trkpt lat="43.4661767" lon="10.617745"><ele>414.0</ele><time>2026-04-18T13:57:23.743Z</time></trkpt><trkpt lat="43.4661133" lon="10.617565"><ele>414.0</ele><time>2026-04-18T13:57:24.751Z</time></trkpt><trkpt lat="43.4660383" lon="10.6173683"><ele>414.0</ele><time>2026-04-18T13:57:25.744Z</time></trkpt><trkpt lat="43.4659583" lon="10.617175"><ele>414.0</ele><time>2026-04-18T13:57:26.744Z</time></trkpt><trkpt lat="43.4658883" lon="10.6169933"><ele>414.0</ele><time>2026-04-18T13:57:27.743Z</time></trkpt><trkpt lat="43.4658283" lon="10.6168183"><ele>414.0</ele><time>2026-04-18T13:57:28.743Z</time></trkpt><trkpt lat="43.4657817" lon="10.6166267"><ele>414.0</ele><time>2026-04-18T13:57:29.743Z</time></trkpt><trkpt lat="43.46573" lon="10.616425"><ele>418.5</ele><time>2026-04-18T13:57:30.743Z</time></trkpt><trkpt lat="43.465675" lon="10.6162267"><ele>423.0</ele><time>2026-04-18T13:57:31.739Z</time></trkpt><trkpt lat="43.4656267" lon="10.6160567"><ele>427.5</ele><time>2026-04-18T13:57:32.745Z</time></trkpt><trkpt lat="43.4655883" lon="10.6159333"><ele>432.0</ele><time>2026-04-18T13:57:33.744Z</time></trkpt><trkpt lat="43.46556" lon="10.6158333"><ele>433.5</ele><time>2026-04-18T13:57:34.742Z</time></trkpt><trkpt lat="43.4655483" lon="10.6157333"><ele>435.0</ele><time>2026-04-18T13:57:35.743Z</time></trkpt><trkpt lat="43.4655517" lon="10.6156283"><ele>436.5</ele><time>2026-04-18T13:57:36.744Z</time></trkpt><trkpt lat="43.4655917" lon="10.615515"><ele>438.0</ele><time>2026-04-18T13:57:37.743Z</time></trkpt><trkpt lat="43.4656483" lon="10.6154067"><ele>439.5</ele><time>2026-04-18T13:57:38.744Z</time></trkpt><trkpt lat="43.4656967" lon="10.6152917"><ele>441.0</ele><time>2026-04-18T13:57:39.745Z</time></trkpt><trkpt lat="43.4657317" lon="10.6151683"><ele>441.20000000000005</ele><time>2026-04-18T13:57:40.743Z</time></trkpt><trkpt lat="43.4657567" lon="10.6150217"><ele>441.40000000000003</ele><time>2026-04-18T13:57:41.742Z</time></trkpt><trkpt lat="43.46578" lon="10.614885"><ele>441.6</ele><time>2026-04-18T13:57:42.742Z</time></trkpt><trkpt lat="43.4658117" lon="10.6147567"><ele>441.8</ele><time>2026-04-18T13:57:43.742Z</time></trkpt><trkpt lat="43.4658583" lon="10.6146233"><ele>442.0</ele><time>2026-04-18T13:57:44.746Z</time></trkpt><trkpt lat="43.4659283" lon="10.6144683"><ele>444.25</ele><time>2026-04-18T13:57:45.744Z</time></trkpt><trkpt lat="43.4660067" lon="10.6143017"><ele>446.5</ele><time>2026-04-18T13:57:46.742Z</time></trkpt><trkpt lat="43.4660867" lon="10.6141467"><ele>448.75</ele><time>2026-04-18T13:57:47.741Z</time></trkpt><trkpt lat="43.4661483" lon="10.6140217"><ele>451.0</ele><time>2026-04-18T13:57:48.743Z</time></trkpt><trkpt lat="43.4661967" lon="10.6139133"><ele>451.0</ele><time>2026-04-18T13:57:49.741Z</time></trkpt><trkpt lat="43.4662183" lon="10.6138033"><ele>451.0</ele><time>2026-04-18T13:57:50.742Z</time></trkpt><trkpt lat="43.46623" lon="10.6136983"><ele>451.0</ele><time>2026-04-18T13:57:51.745Z</time></trkpt><trkpt lat="43.4662333" lon="10.6136083"><ele>451.0</ele><time>2026-04-18T13:57:52.747Z</time></trkpt><trkpt lat="43.466165" lon="10.6134717"><ele>451.0</ele><time>2026-04-18T13:57:54.742Z</time></trkpt><trkpt lat="43.4660633" lon="10.613425"><ele>451.0</ele><time>2026-04-18T13:57:56.741Z</time></trkpt><trkpt lat="43.4659583" lon="10.6134883"><ele>451.0</ele><time>2026-04-18T13:57:58.743Z</time></trkpt><trkpt lat="43.465895" lon="10.613585"><ele>451.0</ele><time>2026-04-18T13:57:59.745Z</time></trkpt><trkpt lat="43.4658183" lon="10.6137383"><ele>451.0</ele><time>2026-04-18T13:58:00.743Z</time></trkpt><trkpt lat="43.4657267" lon="10.6139033"><ele>451.0</ele><time>2026-04-18T13:58:01.745Z</time></trkpt><trkpt lat="43.4656167" lon="10.6140867"><ele>451.0</ele><time>2026-04-18T13:58:02.744Z</time></trkpt><trkpt lat="43.465505" lon="10.6142483"><ele>451.0</ele><time>2026-04-18T13:58:03.743Z</time></trkpt><trkpt lat="43.465405" lon="10.614425"><ele>456.33333333333337</ele><time>2026-04-18T13:58:04.743Z</time></trkpt><trkpt lat="43.46531" lon="10.6146"><ele>461.66666666666663</ele><time>2026-04-18T13:58:05.741Z</time></trkpt><trkpt lat="43.4652133" lon="10.6147633"><ele>467.0</ele><time>2026-04-18T13:58:06.743Z</time></trkpt><trkpt lat="43.4651083" lon="10.6149083"><ele>467.0</ele><time>2026-04-18T13:58:07.742Z</time></trkpt><trkpt lat="43.46501" lon="10.6150367"><ele>467.0</ele><time>2026-04-18T13:58:08.745Z</time></trkpt><trkpt lat="43.4649267" lon="10.6151767"><ele>467.0</ele><time>2026-04-18T13:58:09.74Z</time></trkpt><trkpt lat="43.4648533" lon="10.6153167"><ele>467.0</ele><time>2026-04-18T13:58:10.742Z</time></trkpt><trkpt lat="43.46478" lon="10.6154767"><ele>468.75</ele><time>2026-04-18T13:58:11.743Z</time></trkpt><trkpt lat="43.4647033" lon="10.615605"><ele>470.5</ele><time>2026-04-18T13:58:12.745Z</time></trkpt><trkpt lat="43.4646333" lon="10.6157533"><ele>472.25</ele><time>2026-04-18T13:58:13.748Z</time></trkpt><trkpt lat="43.464565" lon="10.61589"><ele>474.0</ele><time>2026-04-18T13:58:14.751Z</time></trkpt><trkpt lat="43.4644933" lon="10.6160033"><ele>474.0</ele><time>2026-04-18T13:58:15.745Z</time></trkpt><trkpt lat="43.46443" lon="10.6161233"><ele>474.0</ele><time>2026-04-18T13:58:16.747Z</time></trkpt><trkpt lat="43.464375" lon="10.616245"><ele>474.0</ele><time>2026-04-18T13:58:17.743Z</time></trkpt><trkpt lat="43.4643417" lon="10.6163633"><ele>474.0</ele><time>2026-04-18T13:58:18.743Z</time></trkpt><trkpt lat="43.464315" lon="10.6165033"><ele>474.0</ele><time>2026-04-18T13:58:19.741Z</time></trkpt><trkpt lat="43.464285" lon="10.616615"><ele>471.1666666666667</ele><time>2026-04-18T13:58:20.745Z</time></trkpt><trkpt lat="43.464255" lon="10.6167083"><ele>468.33333333333337</ele><time>2026-04-18T13:58:21.742Z</time></trkpt><trkpt lat="43.4642233" lon="10.61679"><ele>465.5</ele><time>2026-04-18T13:58:22.746Z</time></trkpt><trkpt lat="43.4641683" lon="10.6168483"><ele>462.6666666666667</ele><time>2026-04-18T13:58:24.742Z</time></trkpt><trkpt lat="43.4641167" lon="10.6167583"><ele>459.83333333333337</ele><time>2026-04-18T13:58:59.743Z</time></trkpt><trkpt lat="43.4640767" lon="10.6166433"><ele>457.0</ele><time>2026-04-18T13:59:02.745Z</time></trkpt><trkpt lat="43.4640333" lon="10.6164683"><ele>457.0</ele><time>2026-04-18T13:59:04.741Z</time></trkpt><trkpt lat="43.4640067" lon="10.6163583"><ele>457.00000000000006</ele><time>2026-04-18T13:59:05.745Z</time></trkpt><trkpt lat="43.4639717" lon="10.6162467"><ele>457.00000000000006</ele><time>2026-04-18T13:59:06.742Z</time></trkpt><trkpt lat="43.4639267" lon="10.61613"><ele>457.0</ele><time>2026-04-18T13:59:07.744Z</time></trkpt><trkpt lat="43.463865" lon="10.616"><ele>457.0</ele><time>2026-04-18T13:59:08.745Z</time></trkpt><trkpt lat="43.4637933" lon="10.61587"><ele>460.20000000000005</ele><time>2026-04-18T13:59:09.743Z</time></trkpt><trkpt lat="43.4637183" lon="10.6157467"><ele>463.40000000000003</ele><time>2026-04-18T13:59:10.746Z</time></trkpt><trkpt lat="43.4636367" lon="10.6156317"><ele>466.59999999999997</ele><time>2026-04-18T13:59:11.746Z</time></trkpt><trkpt lat="43.46356" lon="10.6155183"><ele>469.79999999999995</ele><time>2026-04-18T13:59:12.749Z</time></trkpt><trkpt lat="43.4635" lon="10.6154133"><ele>473.0</ele><time>2026-04-18T13:59:13.748Z</time></trkpt><trkpt lat="43.4634567" lon="10.6153333"><ele>472.99999999999994</ele><time>2026-04-18T13:59:14.751Z</time></trkpt><trkpt lat="43.46338" lon="10.6152017"><ele>473.0</ele><time>2026-04-18T13:59:16.745Z</time></trkpt><trkpt lat="43.4633133" lon="10.6151383"><ele>473.0</ele><time>2026-04-18T13:59:18.746Z</time></trkpt><trkpt lat="43.4632383" lon="10.6151383"><ele>473.0</ele><time>2026-04-18T13:59:20.747Z</time></trkpt><trkpt lat="43.4631933" lon="10.6152583"><ele>472.99999999999994</ele><time>2026-04-18T13:59:23.745Z</time></trkpt><trkpt lat="43.4632" lon="10.6153583"><ele>473.0</ele><time>2026-04-18T13:59:25.746Z</time></trkpt><trkpt lat="43.4632167" lon="10.615235"><ele>473.0</ele><time>2026-04-18T13:59:33.748Z</time></trkpt><trkpt lat="43.4632533" lon="10.6151433"><ele>472.99999999999994</ele><time>2026-04-18T13:59:36.745Z</time></trkpt><trkpt lat="43.4633267" lon="10.6151533"><ele>472.99999999999994</ele><time>2026-04-18T13:59:38.748Z</time></trkpt><trkpt lat="43.4633967" lon="10.615285"><ele>473.0</ele><time>2026-04-18T13:59:40.746Z</time></trkpt><trkpt lat="43.4634683" lon="10.6154333"><ele>473.0</ele><time>2026-04-18T13:59:41.744Z</time></trkpt><trkpt lat="43.463545" lon="10.6155817"><ele>473.0</ele><time>2026-04-18T13:59:42.746Z</time></trkpt><trkpt lat="43.4636267" lon="10.6157183"><ele>473.0</ele><time>2026-04-18T13:59:43.746Z</time></trkpt><trkpt lat="43.4637033" lon="10.6158517"><ele>473.0</ele><time>2026-04-18T13:59:44.744Z</time></trkpt><trkpt lat="43.4637733" lon="10.615965"><ele>473.0</ele><time>2026-04-18T13:59:45.747Z</time></trkpt><trkpt lat="43.4638383" lon="10.616075"><ele>469.79999999999995</ele><time>2026-04-18T13:59:46.742Z</time></trkpt><trkpt lat="43.4638867" lon="10.61619"><ele>466.59999999999997</ele><time>2026-04-18T13:59:47.745Z</time></trkpt><trkpt lat="43.4639367" lon="10.6163333"><ele>463.40000000000003</ele><time>2026-04-18T13:59:48.744Z</time></trkpt><trkpt lat="43.4639783" lon="10.616465"><ele>460.20000000000005</ele><time>2026-04-18T13:59:49.742Z</time></trkpt><trkpt lat="43.46401" lon="10.6165783"><ele>457.0</ele><time>2026-04-18T13:59:50.743Z</time></trkpt><trkpt lat="43.4640467" lon="10.616715"><ele>457.00000000000006</ele><time>2026-04-18T13:59:52.743Z</time></trkpt><trkpt lat="43.46412" lon="10.6166817"><ele>457.0</ele><time>2026-04-18T13:59:57.745Z</time></trkpt><trkpt lat="43.4641417" lon="10.6165883"><ele>457.0</ele><time>2026-04-18T13:59:59.746Z</time></trkpt><trkpt lat="43.46416" lon="10.6164767"><ele>457.0</ele><time>2026-04-18T14:00:01.741Z</time></trkpt><trkpt lat="43.46418" lon="10.6163517"><ele>457.00000000000006</ele><time>2026-04-18T14:00:03.741Z</time></trkpt><trkpt lat="43.4641917" lon="10.616205"><ele>457.0</ele><time>2026-04-18T14:00:05.742Z</time></trkpt><trkpt lat="43.4641967" lon="10.6160517"><ele>459.83333333333337</ele><time>2026-04-18T14:00:07.748Z</time></trkpt><trkpt lat="43.46418" lon="10.6159183"><ele>462.6666666666667</ele><time>2026-04-18T14:00:09.746Z</time></trkpt><trkpt lat="43.4641433" lon="10.6158167"><ele>465.5</ele><time>2026-04-18T14:00:11.746Z</time></trkpt><trkpt lat="43.464115" lon="10.61571"><ele>468.33333333333337</ele><time>2026-04-18T14:00:13.745Z</time></trkpt><trkpt lat="43.4641133" lon="10.6156"><ele>471.1666666666667</ele><time>2026-04-18T14:00:15.747Z</time></trkpt><trkpt lat="43.46413" lon="10.6154717"><ele>474.0</ele><time>2026-04-18T14:00:17.743Z</time></trkpt><trkpt lat="43.4641417" lon="10.615385"><ele>477.5</ele><time>2026-04-18T14:00:18.75Z</time></trkpt><trkpt lat="43.4641633" lon="10.6153"><ele>481.0</ele><time>2026-04-18T14:00:19.746Z</time></trkpt><trkpt lat="43.4641883" lon="10.6152133"><ele>484.5</ele><time>2026-04-18T14:00:20.749Z</time></trkpt><trkpt lat="43.4642083" lon="10.61513"><ele>488.0</ele><time>2026-04-18T14:00:21.744Z</time></trkpt><trkpt lat="43.4642433" lon="10.6149817"><ele>491.5</ele><time>2026-04-18T14:00:23.747Z</time></trkpt><trkpt lat="43.4642883" lon="10.61486"><ele>495.0</ele><time>2026-04-18T14:00:25.742Z</time></trkpt><trkpt lat="43.4643167" lon="10.614715"><ele>495.0</ele><time>2026-04-18T14:00:27.743Z</time></trkpt><trkpt lat="43.4643633" lon="10.6145633"><ele>495.0</ele><time>2026-04-18T14:00:29.75Z</time></trkpt><trkpt lat="43.4644" lon="10.6144317"><ele>495.0</ele><time>2026-04-18T14:00:31.745Z</time></trkpt><trkpt lat="43.464415" lon="10.6142783"><ele>495.0</ele><time>2026-04-18T14:00:33.749Z</time></trkpt><trkpt lat="43.46442" lon="10.6141917"><ele>495.0</ele><time>2026-04-18T14:00:34.744Z</time></trkpt><trkpt lat="43.464425" lon="10.6141033"><ele>498.0</ele><time>2026-04-18T14:00:35.744Z</time></trkpt><trkpt lat="43.4644567" lon="10.6139233"><ele>501.0</ele><time>2026-04-18T14:00:37.746Z</time></trkpt><trkpt lat="43.464475" lon="10.6138317"><ele>504.0</ele><time>2026-04-18T14:00:38.745Z</time></trkpt><trkpt lat="43.4644933" lon="10.6137383"><ele>507.0</ele><time>2026-04-18T14:00:39.746Z</time></trkpt><trkpt lat="43.4645167" lon="10.61365"><ele>510.0</ele><time>2026-04-18T14:00:40.745Z</time></trkpt><trkpt lat="43.4645517" lon="10.6134867"><ele>510.5</ele><time>2026-04-18T14:00:42.744Z</time></trkpt><trkpt lat="43.46458" lon="10.6134083"><ele>511.0</ele><time>2026-04-18T14:00:43.743Z</time></trkpt><trkpt lat="43.4646383" lon="10.6132867"><ele>511.5</ele><time>2026-04-18T14:00:45.744Z</time></trkpt><trkpt lat="43.46467" lon="10.6131783"><ele>512.0</ele><time>2026-04-18T14:00:47.746Z</time></trkpt><trkpt lat="43.4646617" lon="10.6130567"><ele>512.5</ele><time>2026-04-18T14:00:49.744Z</time></trkpt><trkpt lat="43.464655" lon="10.612945"><ele>513.0</ele><time>2026-04-18T14:00:51.746Z</time></trkpt><trkpt lat="43.464645" lon="10.61284"><ele>515.8</ele><time>2026-04-18T14:00:53.743Z</time></trkpt><trkpt lat="43.4646183" lon="10.61274"><ele>518.5999999999999</ele><time>2026-04-18T14:00:55.744Z</time></trkpt><trkpt lat="43.4645917" lon="10.6126567"><ele>521.4000000000001</ele><time>2026-04-18T14:00:57.744Z</time></trkpt><trkpt lat="43.4645917" lon="10.6125317"><ele>524.2</ele><time>2026-04-18T14:00:59.743Z</time></trkpt><trkpt lat="43.4645883" lon="10.6123417"><ele>527.0</ele><time>2026-04-18T14:01:01.745Z</time></trkpt><trkpt lat="43.4645933" lon="10.61223"><ele>527.5</ele><time>2026-04-18T14:01:02.744Z</time></trkpt><trkpt lat="43.4646033" lon="10.612115"><ele>528.0</ele><time>2026-04-18T14:01:03.749Z</time></trkpt><trkpt lat="43.464605" lon="10.6119967"><ele>528.5</ele><time>2026-04-18T14:01:04.748Z</time></trkpt><trkpt lat="43.4645933" lon="10.6118767"><ele>529.0</ele><time>2026-04-18T14:01:05.746Z</time></trkpt><trkpt lat="43.4645917" lon="10.611775"><ele>529.5</ele><time>2026-04-18T14:01:06.746Z</time></trkpt><trkpt lat="43.4645933" lon="10.6116783"><ele>530.0</ele><time>2026-04-18T14:01:07.753Z</time></trkpt><trkpt lat="43.4646084" lon="10.6115266"><ele>533.0</ele><time>2026-04-18T14:01:09.748Z</time></trkpt><trkpt lat="43.4646198" lon="10.6113834"><ele>536.0</ele><time>2026-04-18T14:01:11.744Z</time></trkpt><trkpt lat="43.4646274" lon="10.6112439"><ele>539.0</ele><time>2026-04-18T14:01:13.752Z</time></trkpt><trkpt lat="43.4646458" lon="10.6111265"><ele>542.0</ele><time>2026-04-18T14:01:15.748Z</time></trkpt><trkpt lat="43.4646988" lon="10.6110187"><ele>545.0</ele><time>2026-04-18T14:01:17.745Z</time></trkpt><trkpt lat="43.464791" lon="10.6108769"><ele>547.5</ele><time>2026-04-18T14:01:19.746Z</time></trkpt><trkpt lat="43.4648379" lon="10.6107937"><ele>550.0</ele><time>2026-04-18T14:01:20.745Z</time></trkpt><trkpt lat="43.4648797" lon="10.6107191"><ele>552.5</ele><time>2026-04-18T14:01:21.745Z</time></trkpt><trkpt lat="43.464922" lon="10.6106547"><ele>555.0</ele><time>2026-04-18T14:01:22.748Z</time></trkpt><trkpt lat="43.4649684" lon="10.6105665"><ele>557.5</ele><time>2026-04-18T14:01:24.745Z</time></trkpt><trkpt lat="43.4649633" lon="10.6104333"><ele>560.0</ele><time>2026-04-18T14:02:11.749Z</time></trkpt><trkpt lat="43.4650267" lon="10.61029"><ele>560.6666666666666</ele><time>2026-04-18T14:02:13.742Z</time></trkpt><trkpt lat="43.465055" lon="10.6102067"><ele>561.3333333333333</ele><time>2026-04-18T14:02:14.743Z</time></trkpt><trkpt lat="43.4650817" lon="10.61011"><ele>562.0</ele><time>2026-04-18T14:02:15.747Z</time></trkpt><trkpt lat="43.4651067" lon="10.61"><ele>562.6666666666666</ele><time>2026-04-18T14:02:16.741Z</time></trkpt><trkpt lat="43.4651433" lon="10.6098783"><ele>563.3333333333334</ele><time>2026-04-18T14:02:17.741Z</time></trkpt><trkpt lat="43.4651983" lon="10.609745"><ele>564.0</ele><time>2026-04-18T14:02:18.741Z</time></trkpt><trkpt lat="43.4652617" lon="10.6096117"><ele>564.1666666666666</ele><time>2026-04-18T14:02:19.742Z</time></trkpt><trkpt lat="43.4653267" lon="10.60949"><ele>564.3333333333334</ele><time>2026-04-18T14:02:20.746Z</time></trkpt><trkpt lat="43.4653783" lon="10.6093883"><ele>564.5</ele><time>2026-04-18T14:02:21.744Z</time></trkpt><trkpt lat="43.465435" lon="10.6092783"><ele>564.6666666666667</ele><time>2026-04-18T14:02:22.745Z</time></trkpt><trkpt lat="43.4654833" lon="10.6091867"><ele>564.8333333333334</ele><time>2026-04-18T14:02:23.744Z</time></trkpt><trkpt lat="43.4655267" lon="10.6091133"><ele>565.0</ele><time>2026-04-18T14:02:24.743Z</time></trkpt><trkpt lat="43.4655883" lon="10.6090033"><ele>566.6666666666667</ele><time>2026-04-18T14:02:26.746Z</time></trkpt><trkpt lat="43.46559" lon="10.6089083"><ele>568.3333333333334</ele><time>2026-04-18T14:02:28.745Z</time></trkpt><trkpt lat="43.4655683" lon="10.60879"><ele>570.0</ele><time>2026-04-18T14:02:30.746Z</time></trkpt><trkpt lat="43.4656017" lon="10.6086883"><ele>571.6666666666666</ele><time>2026-04-18T14:02:32.741Z</time></trkpt><trkpt lat="43.4657067" lon="10.6085933"><ele>573.3333333333333</ele><time>2026-04-18T14:02:34.74Z</time></trkpt><trkpt lat="43.4657867" lon="10.608565"><ele>575.0</ele><time>2026-04-18T14:02:35.75Z</time></trkpt><trkpt lat="43.46587" lon="10.6085483"><ele>575.1666666666666</ele><time>2026-04-18T14:02:36.743Z</time></trkpt><trkpt lat="43.4659467" lon="10.6085417"><ele>575.3333333333333</ele><time>2026-04-18T14:02:37.746Z</time></trkpt><trkpt lat="43.46601" lon="10.608535"><ele>575.5</ele><time>2026-04-18T14:02:38.752Z</time></trkpt><trkpt lat="43.4660783" lon="10.6085133"><ele>575.6666666666666</ele><time>2026-04-18T14:02:40.743Z</time></trkpt><trkpt lat="43.4661517" lon="10.6085567"><ele>575.8333333333334</ele><time>2026-04-18T14:05:48.743Z</time></trkpt><trkpt lat="43.4662633" lon="10.6085717"><ele>576.0</ele><time>2026-04-18T14:05:50.746Z</time></trkpt><trkpt lat="43.4663267" lon="10.608565"><ele>576.4</ele><time>2026-04-18T14:05:51.742Z</time></trkpt><trkpt lat="43.4664417" lon="10.6085283"><ele>576.8</ele><time>2026-04-18T14:05:53.744Z</time></trkpt><trkpt lat="43.466545" lon="10.6084167"><ele>577.1999999999999</ele><time>2026-04-18T14:05:55.744Z</time></trkpt><trkpt lat="43.4665933" lon="10.608335"><ele>577.6</ele><time>2026-04-18T14:05:56.747Z</time></trkpt><trkpt lat="43.4666383" lon="10.608265"><ele>578.0</ele><time>2026-04-18T14:05:57.743Z</time></trkpt><trkpt lat="43.46672" lon="10.6081417"><ele>578.0</ele><time>2026-04-18T14:05:59.744Z</time></trkpt><trkpt lat="43.4667983" lon="10.608015"><ele>578.0</ele><time>2026-04-18T14:06:01.745Z</time></trkpt><trkpt lat="43.466845" lon="10.6079033"><ele>578.0</ele><time>2026-04-18T14:06:03.744Z</time></trkpt><trkpt lat="43.4668867" lon="10.6078117"><ele>578.0</ele><time>2026-04-18T14:06:05.748Z</time></trkpt><trkpt lat="43.46691" lon="10.6077283"><ele>578.0</ele><time>2026-04-18T14:07:25.744Z</time></trkpt><trkpt lat="43.466955" lon="10.6076317"><ele>578.0</ele><time>2026-04-18T14:07:28.745Z</time></trkpt><trkpt lat="43.46702" lon="10.6075717"><ele>577.5</ele><time>2026-04-18T14:07:31.745Z</time></trkpt><trkpt lat="43.46711" lon="10.6075617"><ele>577.0</ele><time>2026-04-18T14:07:34.742Z</time></trkpt><trkpt lat="43.4671667" lon="10.607495"><ele>576.5</ele><time>2026-04-18T14:07:36.747Z</time></trkpt><trkpt lat="43.46727" lon="10.6073933"><ele>576.0</ele><time>2026-04-18T14:07:38.743Z</time></trkpt><trkpt lat="43.4673283" lon="10.6073367"><ele>575.5</ele><time>2026-04-18T14:07:39.745Z</time></trkpt><trkpt lat="43.467375" lon="10.6072733"><ele>575.0</ele><time>2026-04-18T14:07:40.748Z</time></trkpt><trkpt lat="43.46746" lon="10.60717"><ele>574.8333333333333</ele><time>2026-04-18T14:07:42.745Z</time></trkpt><trkpt lat="43.46754" lon="10.6071133"><ele>574.6666666666666</ele><time>2026-04-18T14:07:44.751Z</time></trkpt><trkpt lat="43.4676517" lon="10.6070483"><ele>574.5</ele><time>2026-04-18T14:07:46.746Z</time></trkpt><trkpt lat="43.467715" lon="10.60701"><ele>574.3333333333334</ele><time>2026-04-18T14:07:47.742Z</time></trkpt><trkpt lat="43.4677833" lon="10.6069683"><ele>574.1666666666667</ele><time>2026-04-18T14:07:48.747Z</time></trkpt><trkpt lat="43.4678467" lon="10.6069133"><ele>574.0</ele><time>2026-04-18T14:07:49.745Z</time></trkpt><trkpt lat="43.4679183" lon="10.6068567"><ele>574.6666666666667</ele><time>2026-04-18T14:07:50.744Z</time></trkpt><trkpt lat="43.4679783" lon="10.6067867"><ele>575.3333333333334</ele><time>2026-04-18T14:07:51.742Z</time></trkpt><trkpt lat="43.4680283" lon="10.6067067"><ele>576.0</ele><time>2026-04-18T14:07:52.744Z</time></trkpt><trkpt lat="43.4680633" lon="10.606625"><ele>576.6666666666666</ele><time>2026-04-18T14:07:53.745Z</time></trkpt><trkpt lat="43.46807" lon="10.6065017"><ele>577.3333333333333</ele><time>2026-04-18T14:07:54.746Z</time></trkpt><trkpt lat="43.4680883" lon="10.6064033"><ele>578.0</ele><time>2026-04-18T14:07:55.745Z</time></trkpt><trkpt lat="43.4680883" lon="10.6062517"><ele>578.75</ele><time>2026-04-18T14:07:56.748Z</time></trkpt><trkpt lat="43.4680967" lon="10.606095"><ele>579.5</ele><time>2026-04-18T14:07:57.746Z</time></trkpt><trkpt lat="43.4681117" lon="10.6059367"><ele>580.25</ele><time>2026-04-18T14:07:58.743Z</time></trkpt><trkpt lat="43.46812" lon="10.6057733"><ele>581.0</ele><time>2026-04-18T14:07:59.743Z</time></trkpt><trkpt lat="43.468125" lon="10.6056167"><ele>581.0</ele><time>2026-04-18T14:08:00.744Z</time></trkpt><trkpt lat="43.4681167" lon="10.6054617"><ele>581.0</ele><time>2026-04-18T14:08:01.746Z</time></trkpt><trkpt lat="43.4680983" lon="10.6053183"><ele>581.0</ele><time>2026-04-18T14:08:02.744Z</time></trkpt><trkpt lat="43.468075" lon="10.60517"><ele>581.0</ele><time>2026-04-18T14:08:03.744Z</time></trkpt><trkpt lat="43.46806" lon="10.6050283"><ele>581.0</ele><time>2026-04-18T14:08:04.748Z</time></trkpt><trkpt lat="43.4680567" lon="10.60491"><ele>581.1666666666666</ele><time>2026-04-18T14:08:05.746Z</time></trkpt><trkpt lat="43.4680583" lon="10.6047883"><ele>581.3333333333333</ele><time>2026-04-18T14:08:06.744Z</time></trkpt><trkpt lat="43.4680717" lon="10.6046633"><ele>581.5</ele><time>2026-04-18T14:08:07.745Z</time></trkpt><trkpt lat="43.468085" lon="10.6045517"><ele>581.6666666666666</ele><time>2026-04-18T14:08:08.751Z</time></trkpt><trkpt lat="43.4681033" lon="10.604465"><ele>581.8333333333334</ele><time>2026-04-18T14:08:09.743Z</time></trkpt><trkpt lat="43.46816" lon="10.60435"><ele>582.0</ele><time>2026-04-18T14:08:11.742Z</time></trkpt><trkpt lat="43.4682417" lon="10.6042567"><ele>581.6666666666666</ele><time>2026-04-18T14:08:13.743Z</time></trkpt><trkpt lat="43.4683067" lon="10.6042083"><ele>581.3333333333334</ele><time>2026-04-18T14:08:14.744Z</time></trkpt><trkpt lat="43.4683717" lon="10.6041567"><ele>581.0</ele><time>2026-04-18T14:08:15.742Z</time></trkpt><trkpt lat="43.4684267" lon="10.6041067"><ele>580.6666666666667</ele><time>2026-04-18T14:08:16.744Z</time></trkpt><trkpt lat="43.4684967" lon="10.60399"><ele>580.3333333333334</ele><time>2026-04-18T14:08:18.744Z</time></trkpt><trkpt lat="43.4685133" lon="10.603905"><ele>580.0</ele><time>2026-04-18T14:08:19.745Z</time></trkpt><trkpt lat="43.46851" lon="10.6037883"><ele>580.0</ele><time>2026-04-18T14:08:20.744Z</time></trkpt><trkpt lat="43.46848" lon="10.60364"><ele>580.0</ele><time>2026-04-18T14:08:21.742Z</time></trkpt><trkpt lat="43.4684533" lon="10.6034883"><ele>580.0</ele><time>2026-04-18T14:08:22.742Z</time></trkpt><trkpt lat="43.46842" lon="10.6033433"><ele>580.0</ele><time>2026-04-18T14:08:23.743Z</time></trkpt><trkpt lat="43.4683917" lon="10.6032117"><ele>580.0</ele><time>2026-04-18T14:08:24.744Z</time></trkpt><trkpt lat="43.468365" lon="10.6031017"><ele>580.0</ele><time>2026-04-18T14:08:25.75Z</time></trkpt><trkpt lat="43.4683417" lon="10.603005"><ele>580.0</ele><time>2026-04-18T14:08:26.745Z</time></trkpt><trkpt lat="43.46832" lon="10.6028583"><ele>580.0</ele><time>2026-04-18T14:08:28.746Z</time></trkpt><trkpt lat="43.4683833" lon="10.602805"><ele>580.0</ele><time>2026-04-18T14:08:39.745Z</time></trkpt><trkpt lat="43.468465" lon="10.6028533"><ele>580.0</ele><time>2026-04-18T14:08:41.743Z</time></trkpt><trkpt lat="43.4685767" lon="10.6029183"><ele>580.0</ele><time>2026-04-18T14:08:43.744Z</time></trkpt><trkpt lat="43.4686433" lon="10.6029633"><ele>580.0</ele><time>2026-04-18T14:08:44.747Z</time></trkpt><trkpt lat="43.4687433" lon="10.6030333"><ele>580.0</ele><time>2026-04-18T14:08:46.743Z</time></trkpt><trkpt lat="43.4688617" lon="10.60311"><ele>580.0</ele><time>2026-04-18T14:08:48.744Z</time></trkpt><trkpt lat="43.468935" lon="10.60316"><ele>580.0</ele><time>2026-04-18T14:08:49.74Z</time></trkpt><trkpt lat="43.4690167" lon="10.6032183"><ele>582.25</ele><time>2026-04-18T14:08:50.746Z</time></trkpt><trkpt lat="43.4691033" lon="10.6032933"><ele>584.5</ele><time>2026-04-18T14:08:51.745Z</time></trkpt><trkpt lat="43.4692317" lon="10.6034"><ele>586.75</ele><time>2026-04-18T14:08:52.744Z</time></trkpt><trkpt lat="43.4693433" lon="10.6034833"><ele>589.0</ele><time>2026-04-18T14:08:53.744Z</time></trkpt><trkpt lat="43.469445" lon="10.60357"><ele>589.0</ele><time>2026-04-18T14:08:54.747Z</time></trkpt><trkpt lat="43.46956" lon="10.6036617"><ele>589.0</ele><time>2026-04-18T14:08:55.747Z</time></trkpt><trkpt lat="43.4696733" lon="10.60375"><ele>589.0</ele><time>2026-04-18T14:08:56.748Z</time></trkpt><trkpt lat="43.4697917" lon="10.60385"><ele>589.0</ele><time>2026-04-18T14:08:57.747Z</time></trkpt><trkpt lat="43.4698517" lon="10.6039217"><ele>587.75</ele><time>2026-04-18T14:08:58.747Z</time></trkpt><trkpt lat="43.4699533" lon="10.6039867"><ele>586.5</ele><time>2026-04-18T14:08:59.744Z</time></trkpt><trkpt lat="43.4700883" lon="10.6040383"><ele>585.25</ele><time>2026-04-18T14:09:00.742Z</time></trkpt><trkpt lat="43.4702233" lon="10.6040783"><ele>584.0</ele><time>2026-04-18T14:09:01.751Z</time></trkpt><trkpt lat="43.470355" lon="10.60412"><ele>583.0</ele><time>2026-04-18T14:09:02.746Z</time></trkpt><trkpt lat="43.4704817" lon="10.604155"><ele>582.0</ele><time>2026-04-18T14:09:03.745Z</time></trkpt><trkpt lat="43.4706067" lon="10.60417"><ele>581.0</ele><time>2026-04-18T14:09:04.744Z</time></trkpt><trkpt lat="43.4707367" lon="10.60417"><ele>580.0</ele><time>2026-04-18T14:09:05.744Z</time></trkpt><trkpt lat="43.4708583" lon="10.6041533"><ele>580.0</ele><time>2026-04-18T14:09:06.745Z</time></trkpt><trkpt lat="43.470975" lon="10.6041467"><ele>580.0</ele><time>2026-04-18T14:09:07.748Z</time></trkpt><trkpt lat="43.47109" lon="10.6041567"><ele>580.0</ele><time>2026-04-18T14:09:08.748Z</time></trkpt><trkpt lat="43.4712117" lon="10.60419"><ele>580.0</ele><time>2026-04-18T14:09:09.746Z</time></trkpt><trkpt lat="43.47133" lon="10.6042283"><ele>580.4</ele><time>2026-04-18T14:09:10.743Z</time></trkpt><trkpt lat="43.4714417" lon="10.604255"><ele>580.8</ele><time>2026-04-18T14:09:11.747Z</time></trkpt><trkpt lat="43.4715267" lon="10.6042667"><ele>581.2</ele><time>2026-04-18T14:09:12.746Z</time></trkpt><trkpt lat="43.47162" lon="10.60426"><ele>581.6</ele><time>2026-04-18T14:09:13.748Z</time></trkpt><trkpt lat="43.4717317" lon="10.604225"><ele>582.0</ele><time>2026-04-18T14:09:14.748Z</time></trkpt><trkpt lat="43.47183" lon="10.6041717"><ele>582.0</ele><time>2026-04-18T14:09:15.745Z</time></trkpt><trkpt lat="43.4719233" lon="10.60414"><ele>582.0</ele><time>2026-04-18T14:09:16.745Z</time></trkpt><trkpt lat="43.47202" lon="10.6041333"><ele>582.0</ele><time>2026-04-18T14:09:17.742Z</time></trkpt><trkpt lat="43.47211" lon="10.6041617"><ele>582.0</ele><time>2026-04-18T14:09:18.744Z</time></trkpt><trkpt lat="43.472195" lon="10.6042383"><ele>582.0</ele><time>2026-04-18T14:09:19.743Z</time></trkpt><trkpt lat="43.4722667" lon="10.6043767"><ele>583.3333333333334</ele><time>2026-04-18T14:09:20.743Z</time></trkpt><trkpt lat="43.4723367" lon="10.60455"><ele>584.6666666666667</ele><time>2026-04-18T14:09:21.744Z</time></trkpt><trkpt lat="43.472405" lon="10.6047467"><ele>586.0</ele><time>2026-04-18T14:09:22.748Z</time></trkpt><trkpt lat="43.4724717" lon="10.6049633"><ele>586.0</ele><time>2026-04-18T14:09:23.752Z</time></trkpt><trkpt lat="43.4725317" lon="10.6051817"><ele>586.0</ele><time>2026-04-18T14:09:24.747Z</time></trkpt><trkpt lat="43.4725733" lon="10.6053617"><ele>586.0</ele><time>2026-04-18T14:09:25.744Z</time></trkpt><trkpt lat="43.4726217" lon="10.6055067"><ele>586.0</ele><time>2026-04-18T14:09:26.744Z</time></trkpt><trkpt lat="43.47267" lon="10.605625"><ele>586.5</ele><time>2026-04-18T14:09:27.747Z</time></trkpt><trkpt lat="43.4727383" lon="10.6057333"><ele>587.0</ele><time>2026-04-18T14:09:28.746Z</time></trkpt><trkpt lat="43.4728233" lon="10.6058333"><ele>587.5</ele><time>2026-04-18T14:09:29.748Z</time></trkpt><trkpt lat="43.4729283" lon="10.605935"><ele>588.0</ele><time>2026-04-18T14:09:30.744Z</time></trkpt><trkpt lat="43.473025" lon="10.6060383"><ele>588.0</ele><time>2026-04-18T14:09:31.744Z</time></trkpt><trkpt lat="43.47312" lon="10.6061117"><ele>588.0</ele><time>2026-04-18T14:09:32.746Z</time></trkpt><trkpt lat="43.4732017" lon="10.606175"><ele>588.0</ele><time>2026-04-18T14:09:33.742Z</time></trkpt><trkpt lat="43.4732733" lon="10.6062283"><ele>588.0</ele><time>2026-04-18T14:09:34.748Z</time></trkpt><trkpt lat="43.47334" lon="10.606265"><ele>588.0</ele><time>2026-04-18T14:09:35.743Z</time></trkpt><trkpt lat="43.473405" lon="10.6062967"><ele>588.0</ele><time>2026-04-18T14:09:36.747Z</time></trkpt><trkpt lat="43.4734733" lon="10.6062917"><ele>587.0</ele><time>2026-04-18T14:09:37.747Z</time></trkpt><trkpt lat="43.47355" lon="10.6062883"><ele>586.0</ele><time>2026-04-18T14:09:38.745Z</time></trkpt><trkpt lat="43.4736183" lon="10.606245"><ele>585.0</ele><time>2026-04-18T14:09:39.748Z</time></trkpt><trkpt lat="43.4737067" lon="10.60622"><ele>584.0</ele><time>2026-04-18T14:09:40.744Z</time></trkpt><trkpt lat="43.4738067" lon="10.6062067"><ele>583.0</ele><time>2026-04-18T14:09:41.744Z</time></trkpt><trkpt lat="43.4739133" lon="10.6062117"><ele>582.0</ele><time>2026-04-18T14:09:42.748Z</time></trkpt><trkpt lat="43.4740283" lon="10.6062167"><ele>581.0</ele><time>2026-04-18T14:09:43.744Z</time></trkpt><trkpt lat="43.474115" lon="10.6062067"><ele>580.0</ele><time>2026-04-18T14:09:44.743Z</time></trkpt><trkpt lat="43.4742383" lon="10.6061967"><ele>579.0</ele><time>2026-04-18T14:09:45.744Z</time></trkpt><trkpt lat="43.4743617" lon="10.6061783"><ele>578.0</ele><time>2026-04-18T14:09:46.748Z</time></trkpt><trkpt lat="43.4744833" lon="10.6061617"><ele>577.5</ele><time>2026-04-18T14:09:47.743Z</time></trkpt><trkpt lat="43.474615" lon="10.60616"><ele>577.0</ele><time>2026-04-18T14:09:48.744Z</time></trkpt><trkpt lat="43.4747417" lon="10.6061683"><ele>576.5</ele><time>2026-04-18T14:09:49.746Z</time></trkpt><trkpt lat="43.47486" lon="10.6061933"><ele>576.0</ele><time>2026-04-18T14:09:50.749Z</time></trkpt><trkpt lat="43.474975" lon="10.6062267"><ele>576.0</ele><time>2026-04-18T14:09:51.746Z</time></trkpt><trkpt lat="43.4750717" lon="10.6062633"><ele>576.0</ele><time>2026-04-18T14:09:52.746Z</time></trkpt><trkpt lat="43.4751517" lon="10.6063083"><ele>576.0</ele><time>2026-04-18T14:09:53.744Z</time></trkpt><trkpt lat="43.4752217" lon="10.606345"><ele>576.0</ele><time>2026-04-18T14:09:54.752Z</time></trkpt><trkpt lat="43.475315" lon="10.6064167"><ele>576.0</ele><time>2026-04-18T14:09:56.747Z</time></trkpt><trkpt lat="43.47529" lon="10.60632"><ele>576.0</ele><time>2026-04-18T14:10:26.748Z</time></trkpt><trkpt lat="43.4752333" lon="10.6061667"><ele>575.6666666666666</ele><time>2026-04-18T14:10:34.742Z</time></trkpt><trkpt lat="43.4751983" lon="10.6060817"><ele>575.3333333333334</ele><time>2026-04-18T14:10:37.745Z</time></trkpt><trkpt lat="43.4751417" lon="10.6059533"><ele>575.0</ele><time>2026-04-18T14:10:40.746Z</time></trkpt><trkpt lat="43.4751083" lon="10.60584"><ele>574.6666666666667</ele><time>2026-04-18T14:10:42.751Z</time></trkpt><trkpt lat="43.4750783" lon="10.6057483"><ele>574.3333333333334</ele><time>2026-04-18T14:10:45.742Z</time></trkpt><trkpt lat="43.4750267" lon="10.605665"><ele>574.0</ele><time>2026-04-18T14:10:48.749Z</time></trkpt><trkpt lat="43.474995" lon="10.605575"><ele>574.0</ele><time>2026-04-18T14:10:50.743Z</time></trkpt><trkpt lat="43.4749583" lon="10.60543"><ele>574.0</ele><time>2026-04-18T14:10:52.749Z</time></trkpt><trkpt lat="43.4749383" lon="10.6053283"><ele>574.0</ele><time>2026-04-18T14:10:54.745Z</time></trkpt><trkpt lat="43.4749033" lon="10.6051767"><ele>574.0</ele><time>2026-04-18T14:11:15.741Z</time></trkpt><trkpt lat="43.474885" lon="10.6050033"><ele>574.0</ele><time>2026-04-18T14:11:17.746Z</time></trkpt><trkpt lat="43.4748667" lon="10.6049167"><ele>574.6</ele><time>2026-04-18T14:11:18.751Z</time></trkpt><trkpt lat="43.4748183" lon="10.6047667"><ele>575.2</ele><time>2026-04-18T14:11:20.745Z</time></trkpt><trkpt lat="43.4748067" lon="10.6046"><ele>575.8000000000001</ele><time>2026-04-18T14:11:22.741Z</time></trkpt><trkpt lat="43.4748167" lon="10.60449"><ele>576.4</ele><time>2026-04-18T14:11:23.748Z</time></trkpt><trkpt lat="43.4748117" lon="10.60437"><ele>577.0</ele><time>2026-04-18T14:11:24.745Z</time></trkpt><trkpt lat="43.47481" lon="10.60425"><ele>577.1666666666667</ele><time>2026-04-18T14:11:25.743Z</time></trkpt><trkpt lat="43.4748133" lon="10.6041383"><ele>577.3333333333334</ele><time>2026-04-18T14:11:26.746Z</time></trkpt><trkpt lat="43.4748267" lon="10.6040283"><ele>577.5</ele><time>2026-04-18T14:11:27.742Z</time></trkpt><trkpt lat="43.4748517" lon="10.6039167"><ele>577.6666666666666</ele><time>2026-04-18T14:11:28.741Z</time></trkpt><trkpt lat="43.4748683" lon="10.6038217"><ele>577.8333333333333</ele><time>2026-04-18T14:11:29.742Z</time></trkpt><trkpt lat="43.4748967" lon="10.6036733"><ele>578.0</ele><time>2026-04-18T14:11:31.745Z</time></trkpt><trkpt lat="43.47494" lon="10.6035383"><ele>578.0</ele><time>2026-04-18T14:11:33.743Z</time></trkpt><trkpt lat="43.4750183" lon="10.6034333"><ele>578.0</ele><time>2026-04-18T14:11:35.748Z</time></trkpt><trkpt lat="43.4751367" lon="10.60338"><ele>578.0</ele><time>2026-04-18T14:11:37.742Z</time></trkpt><trkpt lat="43.475235" lon="10.6033617"><ele>578.0</ele><time>2026-04-18T14:11:39.745Z</time></trkpt><trkpt lat="43.4753433" lon="10.6033667"><ele>578.0</ele><time>2026-04-18T14:12:13.744Z</time></trkpt><trkpt lat="43.47543" lon="10.603365"><ele>577.4</ele><time>2026-04-18T14:12:14.744Z</time></trkpt><trkpt lat="43.4755217" lon="10.603355"><ele>576.8</ele><time>2026-04-18T14:12:15.751Z</time></trkpt><trkpt lat="43.47562" lon="10.6033417"><ele>576.2</ele><time>2026-04-18T14:12:16.744Z</time></trkpt><trkpt lat="43.4757167" lon="10.60334"><ele>575.6</ele><time>2026-04-18T14:12:17.744Z</time></trkpt><trkpt lat="43.475815" lon="10.6033533"><ele>575.0</ele><time>2026-04-18T14:12:18.751Z</time></trkpt><trkpt lat="43.4759067" lon="10.6033767"><ele>575.0</ele><time>2026-04-18T14:12:19.743Z</time></trkpt><trkpt lat="43.475995" lon="10.6034133"><ele>575.0</ele><time>2026-04-18T14:12:20.746Z</time></trkpt><trkpt lat="43.4760783" lon="10.60347"><ele>575.0</ele><time>2026-04-18T14:12:21.743Z</time></trkpt><trkpt lat="43.4761517" lon="10.60354"><ele>575.0</ele><time>2026-04-18T14:12:22.747Z</time></trkpt><trkpt lat="43.4762217" lon="10.60362"><ele>575.0</ele><time>2026-04-18T14:12:23.747Z</time></trkpt><trkpt lat="43.4762917" lon="10.6036967"><ele>573.8333333333333</ele><time>2026-04-18T14:12:24.743Z</time></trkpt><trkpt lat="43.476365" lon="10.6037633"><ele>572.6666666666666</ele><time>2026-04-18T14:12:25.748Z</time></trkpt><trkpt lat="43.4764417" lon="10.6038117"><ele>571.5</ele><time>2026-04-18T14:12:26.743Z</time></trkpt><trkpt lat="43.4765233" lon="10.6038417"><ele>570.3333333333334</ele><time>2026-04-18T14:12:27.743Z</time></trkpt><trkpt lat="43.476615" lon="10.6038567"><ele>569.1666666666667</ele><time>2026-04-18T14:12:28.743Z</time></trkpt><trkpt lat="43.4767133" lon="10.60386"><ele>568.0</ele><time>2026-04-18T14:12:29.745Z</time></trkpt><trkpt lat="43.4767867" lon="10.603835"><ele>568.0</ele><time>2026-04-18T14:12:30.744Z</time></trkpt><trkpt lat="43.4769" lon="10.60378"><ele>568.0</ele><time>2026-04-18T14:12:31.744Z</time></trkpt><trkpt lat="43.477005" lon="10.60372"><ele>568.0</ele><time>2026-04-18T14:12:32.743Z</time></trkpt><trkpt lat="43.47711" lon="10.6036717"><ele>568.0</ele><time>2026-04-18T14:12:33.743Z</time></trkpt><trkpt lat="43.477215" lon="10.60364"><ele>566.1999999999999</ele><time>2026-04-18T14:12:34.743Z</time></trkpt><trkpt lat="43.477315" lon="10.6036133"><ele>564.4</ele><time>2026-04-18T14:12:35.746Z</time></trkpt><trkpt lat="43.4774133" lon="10.6035867"><ele>562.5999999999999</ele><time>2026-04-18T14:12:36.752Z</time></trkpt><trkpt lat="43.477505" lon="10.6035383"><ele>560.8</ele><time>2026-04-18T14:12:37.745Z</time></trkpt><trkpt lat="43.4775917" lon="10.603475"><ele>559.0</ele><time>2026-04-18T14:12:38.743Z</time></trkpt><trkpt lat="43.4776717" lon="10.6033867"><ele>559.0</ele><time>2026-04-18T14:12:39.74Z</time></trkpt><trkpt lat="43.4777533" lon="10.6032867"><ele>559.0</ele><time>2026-04-18T14:12:40.741Z</time></trkpt><trkpt lat="43.4778317" lon="10.6031833"><ele>559.0</ele><time>2026-04-18T14:12:41.741Z</time></trkpt><trkpt lat="43.4779117" lon="10.6030817"><ele>559.0</ele><time>2026-04-18T14:12:42.744Z</time></trkpt><trkpt lat="43.4779917" lon="10.6029833"><ele>559.0</ele><time>2026-04-18T14:12:43.747Z</time></trkpt><trkpt lat="43.4780667" lon="10.6028767"><ele>556.6</ele><time>2026-04-18T14:12:44.743Z</time></trkpt><trkpt lat="43.4781367" lon="10.6027667"><ele>554.2</ele><time>2026-04-18T14:12:45.747Z</time></trkpt><trkpt lat="43.4781917" lon="10.6026483"><ele>551.8000000000001</ele><time>2026-04-18T14:12:46.742Z</time></trkpt><trkpt lat="43.4782317" lon="10.6025133"><ele>549.4</ele><time>2026-04-18T14:12:47.746Z</time></trkpt><trkpt lat="43.478275" lon="10.6023767"><ele>547.0</ele><time>2026-04-18T14:12:48.744Z</time></trkpt><trkpt lat="43.4783267" lon="10.6022333"><ele>547.0</ele><time>2026-04-18T14:12:49.75Z</time></trkpt><trkpt lat="43.4784033" lon="10.6021017"><ele>547.0</ele><time>2026-04-18T14:12:50.743Z</time></trkpt><trkpt lat="43.4784817" lon="10.6019783"><ele>547.0</ele><time>2026-04-18T14:12:51.746Z</time></trkpt><trkpt lat="43.4785683" lon="10.601885"><ele>547.0</ele><time>2026-04-18T14:12:52.747Z</time></trkpt><trkpt lat="43.4786467" lon="10.6017967"><ele>546.6</ele><time>2026-04-18T14:12:53.745Z</time></trkpt><trkpt lat="43.478725" lon="10.6017283"><ele>546.2</ele><time>2026-04-18T14:12:54.746Z</time></trkpt><trkpt lat="43.4788117" lon="10.6016917"><ele>545.8</ele><time>2026-04-18T14:12:55.746Z</time></trkpt><trkpt lat="43.4789017" lon="10.6016883"><ele>545.4</ele><time>2026-04-18T14:12:56.744Z</time></trkpt><trkpt lat="43.4789933" lon="10.601695"><ele>545.0</ele><time>2026-04-18T14:12:57.742Z</time></trkpt><trkpt lat="43.4790883" lon="10.6017317"><ele>544.6</ele><time>2026-04-18T14:12:58.747Z</time></trkpt><trkpt lat="43.4791783" lon="10.6017367"><ele>544.2</ele><time>2026-04-18T14:12:59.743Z</time></trkpt><trkpt lat="43.4792633" lon="10.6017117"><ele>543.8</ele><time>2026-04-18T14:13:00.74Z</time></trkpt><trkpt lat="43.47934" lon="10.6016633"><ele>543.4</ele><time>2026-04-18T14:13:01.749Z</time></trkpt><trkpt lat="43.47943" lon="10.601575"><ele>543.0</ele><time>2026-04-18T14:13:02.748Z</time></trkpt><trkpt lat="43.47952" lon="10.6014867"><ele>540.75</ele><time>2026-04-18T14:13:03.742Z</time></trkpt><trkpt lat="43.47963" lon="10.601345"><ele>538.5</ele><time>2026-04-18T14:13:04.745Z</time></trkpt><trkpt lat="43.47973" lon="10.6012117"><ele>536.25</ele><time>2026-04-18T14:13:05.746Z</time></trkpt><trkpt lat="43.479825" lon="10.601125"><ele>534.0</ele><time>2026-04-18T14:13:06.742Z</time></trkpt><trkpt lat="43.47991" lon="10.6010417"><ele>534.0</ele><time>2026-04-18T14:13:07.741Z</time></trkpt><trkpt lat="43.4799483" lon="10.6009117"><ele>534.0</ele><time>2026-04-18T14:13:08.742Z</time></trkpt><trkpt lat="43.48" lon="10.6007533"><ele>534.0</ele><time>2026-04-18T14:13:09.744Z</time></trkpt><trkpt lat="43.4800317" lon="10.6005683"><ele>534.0</ele><time>2026-04-18T14:13:10.749Z</time></trkpt><trkpt lat="43.4800533" lon="10.6003933"><ele>533.0</ele><time>2026-04-18T14:13:11.743Z</time></trkpt><trkpt lat="43.4800767" lon="10.6002467"><ele>532.0</ele><time>2026-04-18T14:13:12.745Z</time></trkpt><trkpt lat="43.48014" lon="10.6001067"><ele>531.0</ele><time>2026-04-18T14:13:13.744Z</time></trkpt><trkpt lat="43.480195" lon="10.5999517"><ele>530.0</ele><time>2026-04-18T14:13:14.744Z</time></trkpt><trkpt lat="43.4802567" lon="10.599815"><ele>530.0</ele><time>2026-04-18T14:13:15.743Z</time></trkpt><trkpt lat="43.48036" lon="10.5997233"><ele>530.0</ele><time>2026-04-18T14:13:16.742Z</time></trkpt><trkpt lat="43.4804833" lon="10.5996667"><ele>530.0</ele><time>2026-04-18T14:13:17.749Z</time></trkpt><trkpt lat="43.4806017" lon="10.5996067"><ele>530.0</ele><time>2026-04-18T14:13:18.745Z</time></trkpt><trkpt lat="43.4807333" lon="10.5995633"><ele>529.0</ele><time>2026-04-18T14:13:19.747Z</time></trkpt><trkpt lat="43.4808717" lon="10.5995233"><ele>528.0</ele><time>2026-04-18T14:13:20.745Z</time></trkpt><trkpt lat="43.4810083" lon="10.5994683"><ele>527.0</ele><time>2026-04-18T14:13:21.746Z</time></trkpt><trkpt lat="43.4811383" lon="10.5994183"><ele>526.0</ele><time>2026-04-18T14:13:22.745Z</time></trkpt><trkpt lat="43.4812867" lon="10.599415"><ele>522.5</ele><time>2026-04-18T14:13:23.744Z</time></trkpt><trkpt lat="43.48142" lon="10.5993917"><ele>519.0</ele><time>2026-04-18T14:13:24.747Z</time></trkpt><trkpt lat="43.4815583" lon="10.5993767"><ele>515.5</ele><time>2026-04-18T14:13:25.745Z</time></trkpt><trkpt lat="43.4816983" lon="10.599395"><ele>512.0</ele><time>2026-04-18T14:13:26.747Z</time></trkpt><trkpt lat="43.4818367" lon="10.599385"><ele>512.0</ele><time>2026-04-18T14:13:27.742Z</time></trkpt><trkpt lat="43.481975" lon="10.599365"><ele>512.0</ele><time>2026-04-18T14:13:28.746Z</time></trkpt><trkpt lat="43.4821083" lon="10.5993417"><ele>512.0</ele><time>2026-04-18T14:13:29.746Z</time></trkpt><trkpt lat="43.4822433" lon="10.5993733"><ele>512.0</ele><time>2026-04-18T14:13:30.743Z</time></trkpt><trkpt lat="43.4781917" lon="10.6026483"><ele>520.75</ele><time>2026-04-18T14:12:46.742Z</time></trkpt><trkpt lat="43.4782317" lon="10.6025133"><ele>529.5</ele><time>2026-04-18T14:12:47.746Z</time></trkpt><trkpt lat="43.478275" lon="10.6023767"><ele>538.25</ele><time>2026-04-18T14:12:48.744Z</time></trkpt><trkpt lat="43.4783267" lon="10.6022333"><ele>547.0</ele><time>2026-04-18T14:12:49.75Z</time></trkpt><trkpt lat="43.4784033" lon="10.6021017"><ele>546.6</ele><time>2026-04-18T14:12:50.743Z</time></trkpt><trkpt lat="43.4784817" lon="10.6019783"><ele>546.2</ele><time>2026-04-18T14:12:51.746Z</time></trkpt><trkpt lat="43.4785683" lon="10.601885"><ele>545.8</ele><time>2026-04-18T14:12:52.747Z</time></trkpt><trkpt lat="43.4786467" lon="10.6017967"><ele>545.4</ele><time>2026-04-18T14:12:53.745Z</time></trkpt><trkpt lat="43.478725" lon="10.6017283"><ele>545.0</ele><time>2026-04-18T14:12:54.746Z</time></trkpt><trkpt lat="43.4788117" lon="10.6016917"><ele>544.6</ele><time>2026-04-18T14:12:55.746Z</time></trkpt><trkpt lat="43.4789017" lon="10.6016883"><ele>544.2</ele><time>2026-04-18T14:12:56.744Z</time></trkpt><trkpt lat="43.4789933" lon="10.601695"><ele>543.8</ele><time>2026-04-18T14:12:57.742Z</time></trkpt><trkpt lat="43.4790883" lon="10.6017317"><ele>543.4</ele><time>2026-04-18T14:12:58.747Z</time></trkpt><trkpt lat="43.4791783" lon="10.6017367"><ele>543.0</ele><time>2026-04-18T14:12:59.743Z</time></trkpt><trkpt lat="43.4792633" lon="10.6017117"><ele>543.0</ele><time>2026-04-18T14:13:00.74Z</time></trkpt><trkpt lat="43.47934" lon="10.6016633"><ele>543.0</ele><time>2026-04-18T14:13:01.749Z</time></trkpt><trkpt lat="43.47943" lon="10.601575"><ele>543.0</ele><time>2026-04-18T14:13:02.748Z</time></trkpt><trkpt lat="43.47952" lon="10.6014867"><ele>543.0</ele><time>2026-04-18T14:13:03.742Z</time></trkpt><trkpt lat="43.47963" lon="10.601345"><ele>540.75</ele><time>2026-04-18T14:13:04.745Z</time></trkpt><trkpt lat="43.47973" lon="10.6012117"><ele>538.5</ele><time>2026-04-18T14:13:05.746Z</time></trkpt><trkpt lat="43.479825" lon="10.601125"><ele>536.25</ele><time>2026-04-18T14:13:06.742Z</time></trkpt><trkpt lat="43.47991" lon="10.6010417"><ele>534.0</ele><time>2026-04-18T14:13:07.741Z</time></trkpt><trkpt lat="43.4799483" lon="10.6009117"><ele>534.0</ele><time>2026-04-18T14:13:08.742Z</time></trkpt><trkpt lat="43.48" lon="10.6007533"><ele>534.0</ele><time>2026-04-18T14:13:09.744Z</time></trkpt><trkpt lat="43.4800317" lon="10.6005683"><ele>534.0</ele><time>2026-04-18T14:13:10.749Z</time></trkpt><trkpt lat="43.4800533" lon="10.6003933"><ele>534.0</ele><time>2026-04-18T14:13:11.743Z</time></trkpt><trkpt lat="43.4800767" lon="10.6002467"><ele>533.0</ele><time>2026-04-18T14:13:12.745Z</time></trkpt><trkpt lat="43.48014" lon="10.6001067"><ele>532.0</ele><time>2026-04-18T14:13:13.744Z</time></trkpt><trkpt lat="43.480195" lon="10.5999517"><ele>531.0</ele><time>2026-04-18T14:13:14.744Z</time></trkpt><trkpt lat="43.4802567" lon="10.599815"><ele>530.0</ele><time>2026-04-18T14:13:15.743Z</time></trkpt><trkpt lat="43.48036" lon="10.5997233"><ele>529.0</ele><time>2026-04-18T14:13:16.742Z</time></trkpt><trkpt lat="43.4804833" lon="10.5996667"><ele>528.0</ele><time>2026-04-18T14:13:17.749Z</time></trkpt><trkpt lat="43.4806017" lon="10.5996067"><ele>527.0</ele><time>2026-04-18T14:13:18.745Z</time></trkpt><trkpt lat="43.4807333" lon="10.5995633"><ele>526.0</ele><time>2026-04-18T14:13:19.747Z</time></trkpt><trkpt lat="43.4808717" lon="10.5995233"><ele>525.25</ele><time>2026-04-18T14:13:20.745Z</time></trkpt><trkpt lat="43.4810083" lon="10.5994683"><ele>524.5</ele><time>2026-04-18T14:13:21.746Z</time></trkpt><trkpt lat="43.4811383" lon="10.5994183"><ele>523.75</ele><time>2026-04-18T14:13:22.745Z</time></trkpt><trkpt lat="43.4812867" lon="10.599415"><ele>523.0</ele><time>2026-04-18T14:13:23.744Z</time></trkpt><trkpt lat="43.48142" lon="10.5993917"><ele>520.25</ele><time>2026-04-18T14:13:24.747Z</time></trkpt><trkpt lat="43.4815583" lon="10.5993767"><ele>517.5</ele><time>2026-04-18T14:13:25.745Z</time></trkpt><trkpt lat="43.4816983" lon="10.599395"><ele>514.75</ele><time>2026-04-18T14:13:26.747Z</time></trkpt><trkpt lat="43.4818367" lon="10.599385"><ele>512.0</ele><time>2026-04-18T14:13:27.742Z</time></trkpt><trkpt lat="43.481975" lon="10.599365"><ele>508.0</ele><time>2026-04-18T14:13:28.746Z</time></trkpt><trkpt lat="43.4821083" lon="10.5993417"><ele>504.0</ele><time>2026-04-18T14:13:29.746Z</time></trkpt><trkpt lat="43.4822433" lon="10.5993733"><ele>500.0</ele><time>2026-04-18T14:13:30.743Z</time></trkpt><trkpt lat="43.4823833" lon="10.5994033"><ele>496.0</ele><time>2026-04-18T14:13:31.745Z</time></trkpt><trkpt lat="43.482515" lon="10.5994217"><ele>496.33333333333337</ele><time>2026-04-18T14:13:32.742Z</time></trkpt><trkpt lat="43.4826983" lon="10.5995117"><ele>496.66666666666663</ele><time>2026-04-18T14:13:33.742Z</time></trkpt><trkpt lat="43.48289" lon="10.5997017"><ele>497.0</ele><time>2026-04-18T14:13:34.745Z</time></trkpt><trkpt lat="43.4830717" lon="10.599785"><ele>497.0</ele><time>2026-04-18T14:13:35.745Z</time></trkpt><trkpt lat="43.4832333" lon="10.5998333"><ele>497.0</ele><time>2026-04-18T14:13:36.746Z</time></trkpt><trkpt lat="43.4833883" lon="10.599965"><ele>497.0</ele><time>2026-04-18T14:13:37.749Z</time></trkpt><trkpt lat="43.4835467" lon="10.6000317"><ele>497.0</ele><time>2026-04-18T14:13:38.749Z</time></trkpt><trkpt lat="43.4837067" lon="10.60009"><ele>497.0</ele><time>2026-04-18T14:13:39.748Z</time></trkpt><trkpt lat="43.48387" lon="10.6001067"><ele>497.0</ele><time>2026-04-18T14:13:40.744Z</time></trkpt><trkpt lat="43.4840367" lon="10.6000833"><ele>499.0</ele><time>2026-04-18T14:13:41.746Z</time></trkpt><trkpt lat="43.4842017" lon="10.6000467"><ele>501.0</ele><time>2026-04-18T14:13:42.742Z</time></trkpt><trkpt lat="43.4843817" lon="10.60001"><ele>503.0</ele><time>2026-04-18T14:13:43.742Z</time></trkpt><trkpt lat="43.4845783" lon="10.600005"><ele>503.66666666666663</ele><time>2026-04-18T14:13:44.741Z</time></trkpt><trkpt lat="43.48476" lon="10.6"><ele>504.33333333333337</ele><time>2026-04-18T14:13:45.741Z</time></trkpt><trkpt lat="43.4849283" lon="10.5999833"><ele>505.0</ele><time>2026-04-18T14:13:46.746Z</time></trkpt><trkpt lat="43.4850783" lon="10.5999433"><ele>505.0</ele><time>2026-04-18T14:13:47.746Z</time></trkpt><trkpt lat="43.4852283" lon="10.5999017"><ele>505.0</ele><time>2026-04-18T14:13:48.744Z</time></trkpt><trkpt lat="43.4853733" lon="10.5998233"><ele>505.0</ele><time>2026-04-18T14:13:49.742Z</time></trkpt><trkpt lat="43.4855117" lon="10.59976"><ele>505.5</ele><time>2026-04-18T14:13:50.752Z</time></trkpt><trkpt lat="43.485635" lon="10.5996767"><ele>506.0</ele><time>2026-04-18T14:13:51.746Z</time></trkpt><trkpt lat="43.485755" lon="10.599615"><ele>506.5</ele><time>2026-04-18T14:13:52.745Z</time></trkpt><trkpt lat="43.4858833" lon="10.5996033"><ele>507.0</ele><time>2026-04-18T14:13:53.744Z</time></trkpt><trkpt lat="43.486035" lon="10.599605"><ele>507.0</ele><time>2026-04-18T14:13:54.743Z</time></trkpt><trkpt lat="43.4861967" lon="10.5996183"><ele>507.0</ele><time>2026-04-18T14:13:55.744Z</time></trkpt><trkpt lat="43.4863483" lon="10.5996467"><ele>507.0</ele><time>2026-04-18T14:13:56.745Z</time></trkpt><trkpt lat="43.4864933" lon="10.5996967"><ele>505.75</ele><time>2026-04-18T14:13:57.744Z</time></trkpt><trkpt lat="43.4866217" lon="10.59973"><ele>504.5</ele><time>2026-04-18T14:13:58.746Z</time></trkpt><trkpt lat="43.48674" lon="10.5997267"><ele>503.25</ele><time>2026-04-18T14:13:59.746Z</time></trkpt><trkpt lat="43.4868567" lon="10.5996983"><ele>502.0</ele><time>2026-04-18T14:14:00.742Z</time></trkpt><trkpt lat="43.4869683" lon="10.599655"><ele>502.0</ele><time>2026-04-18T14:14:01.746Z</time></trkpt><trkpt lat="43.487085" lon="10.5995633"><ele>502.0</ele><time>2026-04-18T14:14:02.744Z</time></trkpt><trkpt lat="43.487205" lon="10.5994783"><ele>502.0</ele><time>2026-04-18T14:14:03.747Z</time></trkpt><trkpt lat="43.4873033" lon="10.59931"><ele>502.0</ele><time>2026-04-18T14:14:04.744Z</time></trkpt><trkpt lat="43.4874183" lon="10.5991467"><ele>500.0</ele><time>2026-04-18T14:14:05.747Z</time></trkpt><trkpt lat="43.48753" lon="10.59901"><ele>498.0</ele><time>2026-04-18T14:14:06.747Z</time></trkpt><trkpt lat="43.48761" lon="10.59886"><ele>496.0</ele><time>2026-04-18T14:14:07.744Z</time></trkpt><trkpt lat="43.4877017" lon="10.59874"><ele>494.0</ele><time>2026-04-18T14:14:08.748Z</time></trkpt><trkpt lat="43.4877517" lon="10.59859"><ele>493.75</ele><time>2026-04-18T14:14:09.743Z</time></trkpt><trkpt lat="43.487795" lon="10.5984283"><ele>493.5</ele><time>2026-04-18T14:14:10.74Z</time></trkpt><trkpt lat="43.4878467" lon="10.5982767"><ele>493.25</ele><time>2026-04-18T14:14:11.742Z</time></trkpt><trkpt lat="43.487915" lon="10.5981217"><ele>493.0</ele><time>2026-04-18T14:14:12.743Z</time></trkpt><trkpt lat="43.48799" lon="10.5979517"><ele>493.5</ele><time>2026-04-18T14:14:13.748Z</time></trkpt><trkpt lat="43.4880833" lon="10.5978"><ele>494.0</ele><time>2026-04-18T14:14:14.747Z</time></trkpt><trkpt lat="43.48819" lon="10.5976783"><ele>494.5</ele><time>2026-04-18T14:14:15.742Z</time></trkpt><trkpt lat="43.4882883" lon="10.5975683"><ele>495.0</ele><time>2026-04-18T14:14:16.744Z</time></trkpt><trkpt lat="43.4883617" lon="10.5974433"><ele>495.0</ele><time>2026-04-18T14:14:17.743Z</time></trkpt><trkpt lat="43.4884317" lon="10.5973217"><ele>495.0</ele><time>2026-04-18T14:14:18.742Z</time></trkpt><trkpt lat="43.4884783" lon="10.597165"><ele>495.0</ele><time>2026-04-18T14:14:19.748Z</time></trkpt><trkpt lat="43.4885333" lon="10.5969967"><ele>495.0</ele><time>2026-04-18T14:14:20.746Z</time></trkpt><trkpt lat="43.4886083" lon="10.5968383"><ele>494.25</ele><time>2026-04-18T14:14:21.744Z</time></trkpt><trkpt lat="43.4886917" lon="10.59669"><ele>493.5</ele><time>2026-04-18T14:14:22.743Z</time></trkpt><trkpt lat="43.4887717" lon="10.596565"><ele>492.75</ele><time>2026-04-18T14:14:23.742Z</time></trkpt><trkpt lat="43.4888567" lon="10.5964733"><ele>492.0</ele><time>2026-04-18T14:14:24.743Z</time></trkpt><trkpt lat="43.4889333" lon="10.5963867"><ele>492.0</ele><time>2026-04-18T14:14:25.743Z</time></trkpt><trkpt lat="43.489035" lon="10.5963683"><ele>492.00000000000006</ele><time>2026-04-18T14:14:26.743Z</time></trkpt><trkpt lat="43.4891383" lon="10.5963933"><ele>492.00000000000006</ele><time>2026-04-18T14:14:27.747Z</time></trkpt><trkpt lat="43.489245" lon="10.5964383"><ele>492.0</ele><time>2026-04-18T14:14:28.744Z</time></trkpt><trkpt lat="43.4893683" lon="10.5964933"><ele>492.0</ele><time>2026-04-18T14:14:29.745Z</time></trkpt><trkpt lat="43.4894917" lon="10.5965383"><ele>492.0</ele><time>2026-04-18T14:14:30.748Z</time></trkpt><trkpt lat="43.489605" lon="10.5965483"><ele>492.00000000000006</ele><time>2026-04-18T14:14:31.749Z</time></trkpt><trkpt lat="43.489715" lon="10.5965633"><ele>492.00000000000006</ele><time>2026-04-18T14:14:32.746Z</time></trkpt><trkpt lat="43.4898267" lon="10.596575"><ele>492.0</ele><time>2026-04-18T14:14:33.746Z</time></trkpt><trkpt lat="43.489935" lon="10.59656"><ele>492.0</ele><time>2026-04-18T14:14:34.745Z</time></trkpt><trkpt lat="43.49005" lon="10.596525"><ele>492.0</ele><time>2026-04-18T14:14:35.742Z</time></trkpt><trkpt lat="43.4901783" lon="10.5964783"><ele>492.0</ele><time>2026-04-18T14:14:36.745Z</time></trkpt><trkpt lat="43.490295" lon="10.596395"><ele>492.0</ele><time>2026-04-18T14:14:37.744Z</time></trkpt><trkpt lat="43.4904133" lon="10.5963583"><ele>492.0</ele><time>2026-04-18T14:14:38.745Z</time></trkpt><trkpt lat="43.4905333" lon="10.596345"><ele>491.5</ele><time>2026-04-18T14:14:39.747Z</time></trkpt><trkpt lat="43.4906733" lon="10.5963567"><ele>491.0</ele><time>2026-04-18T14:14:40.747Z</time></trkpt><trkpt lat="43.49082" lon="10.5963767"><ele>490.5</ele><time>2026-04-18T14:14:41.747Z</time></trkpt><trkpt lat="43.4909517" lon="10.5963833"><ele>490.0</ele><time>2026-04-18T14:14:42.743Z</time></trkpt><trkpt lat="43.4910733" lon="10.5963767"><ele>490.0</ele><time>2026-04-18T14:14:43.741Z</time></trkpt><trkpt lat="43.4911883" lon="10.5963433"><ele>490.0</ele><time>2026-04-18T14:14:44.909Z</time></trkpt><trkpt lat="43.4913617" lon="10.5963633"><ele>490.0</ele><time>2026-04-18T14:14:46.189Z</time></trkpt><trkpt lat="43.4915267" lon="10.5964467"><ele>489.2</ele><time>2026-04-18T14:14:47.745Z</time></trkpt><trkpt lat="43.4916317" lon="10.5965067"><ele>488.4</ele><time>2026-04-18T14:14:48.742Z</time></trkpt><trkpt lat="43.4917233" lon="10.5965667"><ele>487.6</ele><time>2026-04-18T14:14:49.744Z</time></trkpt><trkpt lat="43.4917917" lon="10.596635"><ele>486.8</ele><time>2026-04-18T14:14:50.748Z</time></trkpt><trkpt lat="43.4918433" lon="10.5967"><ele>486.0</ele><time>2026-04-18T14:14:51.743Z</time></trkpt><trkpt lat="43.4918883" lon="10.5968"><ele>486.0</ele><time>2026-04-18T14:14:53.746Z</time></trkpt><trkpt lat="43.4918933" lon="10.5969183"><ele>486.0</ele><time>2026-04-18T14:15:21.743Z</time></trkpt><trkpt lat="43.4919083" lon="10.5971067"><ele>486.0</ele><time>2026-04-18T14:15:55.743Z</time></trkpt><trkpt lat="43.4919067" lon="10.5972033"><ele>486.0</ele><time>2026-04-18T14:15:57.745Z</time></trkpt><trkpt lat="43.491895" lon="10.5970783"><ele>486.0</ele><time>2026-04-18T14:16:05.746Z</time></trkpt><trkpt lat="43.4918883" lon="10.596985"><ele>486.0</ele><time>2026-04-18T14:16:06.743Z</time></trkpt><trkpt lat="43.4918867" lon="10.596855"><ele>486.0</ele><time>2026-04-18T14:16:08.746Z</time></trkpt><trkpt lat="43.49186" lon="10.59677"><ele>486.0</ele><time>2026-04-18T14:16:10.748Z</time></trkpt><trkpt lat="43.4917683" lon="10.5966717"><ele>486.0</ele><time>2026-04-18T14:16:12.747Z</time></trkpt><trkpt lat="43.4917083" lon="10.596625"><ele>486.0</ele><time>2026-04-18T14:16:13.746Z</time></trkpt><trkpt lat="43.4916417" lon="10.596585"><ele>486.0</ele><time>2026-04-18T14:16:14.745Z</time></trkpt><trkpt lat="43.4915733" lon="10.5965383"><ele>486.0</ele><time>2026-04-18T14:16:15.742Z</time></trkpt><trkpt lat="43.4915083" lon="10.5964983"><ele>486.0</ele><time>2026-04-18T14:16:16.748Z</time></trkpt><trkpt lat="43.4914467" lon="10.5964467"><ele>486.0</ele><time>2026-04-18T14:16:17.745Z</time></trkpt><trkpt lat="43.4913867" lon="10.596405"><ele>486.0</ele><time>2026-04-18T14:16:18.746Z</time></trkpt><trkpt lat="43.491325" lon="10.5963717"><ele>486.0</ele><time>2026-04-18T14:16:19.75Z</time></trkpt><trkpt lat="43.4912567" lon="10.5963583"><ele>486.0</ele><time>2026-04-18T14:16:20.741Z</time></trkpt><trkpt lat="43.4911833" lon="10.5963467"><ele>486.0</ele><time>2026-04-18T14:16:21.747Z</time></trkpt><trkpt lat="43.4910983" lon="10.5963417"><ele>486.6666666666667</ele><time>2026-04-18T14:16:22.742Z</time></trkpt><trkpt lat="43.4910083" lon="10.5963333"><ele>487.33333333333337</ele><time>2026-04-18T14:16:23.746Z</time></trkpt><trkpt lat="43.4909217" lon="10.5963267"><ele>488.0</ele><time>2026-04-18T14:16:24.746Z</time></trkpt><trkpt lat="43.4908433" lon="10.5963167"><ele>488.6666666666667</ele><time>2026-04-18T14:16:25.746Z</time></trkpt><trkpt lat="43.4907733" lon="10.596295"><ele>489.33333333333337</ele><time>2026-04-18T14:16:26.748Z</time></trkpt><trkpt lat="43.4907" lon="10.5962833"><ele>490.0</ele><time>2026-04-18T14:16:27.748Z</time></trkpt><trkpt lat="43.4906267" lon="10.5962783"><ele>490.00000000000006</ele><time>2026-04-18T14:16:28.742Z</time></trkpt><trkpt lat="43.4905633" lon="10.5962667"><ele>490.0</ele><time>2026-04-18T14:16:29.741Z</time></trkpt><trkpt lat="43.4904717" lon="10.5962283"><ele>490.0</ele><time>2026-04-18T14:16:31.743Z</time></trkpt><trkpt lat="43.4905067" lon="10.5963083"><ele>490.0</ele><time>2026-04-18T14:16:39.743Z</time></trkpt><trkpt lat="43.4906033" lon="10.5962767"><ele>490.00000000000006</ele><time>2026-04-18T14:16:42.743Z</time></trkpt><trkpt lat="43.49068" lon="10.5962117"><ele>490.0</ele><time>2026-04-18T14:16:44.746Z</time></trkpt><trkpt lat="43.49076" lon="10.596165"><ele>490.00000000000006</ele><time>2026-04-18T14:16:46.743Z</time></trkpt><trkpt lat="43.490835" lon="10.5961267"><ele>490.0</ele><time>2026-04-18T14:16:48.747Z</time></trkpt><trkpt lat="43.49089" lon="10.5960367"><ele>490.0</ele><time>2026-04-18T14:20:45.741Z</time></trkpt><trkpt lat="43.4909417" lon="10.5961433"><ele>490.0</ele><time>2026-04-18T14:20:47.74Z</time></trkpt><trkpt lat="43.4910017" lon="10.5961917"><ele>490.00000000000006</ele><time>2026-04-18T14:20:49.75Z</time></trkpt><trkpt lat="43.4910683" lon="10.59621"><ele>490.0</ele><time>2026-04-18T14:20:51.747Z</time></trkpt><trkpt lat="43.4911367" lon="10.5962367"><ele>490.00000000000006</ele><time>2026-04-18T14:20:53.745Z</time></trkpt><trkpt lat="43.491195" lon="10.5962717"><ele>490.0</ele><time>2026-04-18T14:20:55.743Z</time></trkpt><trkpt lat="43.4912567" lon="10.5963167"><ele>490.0</ele><time>2026-04-18T14:20:57.742Z</time></trkpt><trkpt lat="43.4913867" lon="10.5963617"><ele>490.0</ele><time>2026-04-18T14:20:59.742Z</time></trkpt><trkpt lat="43.4914517" lon="10.5964017"><ele>490.00000000000006</ele><time>2026-04-18T14:21:00.744Z</time></trkpt><trkpt lat="43.4915083" lon="10.596445"><ele>490.0</ele><time>2026-04-18T14:21:01.747Z</time></trkpt><trkpt lat="43.49161" lon="10.5965283"><ele>489.33333333333337</ele><time>2026-04-18T14:21:03.743Z</time></trkpt><trkpt lat="43.4916867" lon="10.596595"><ele>488.6666666666667</ele><time>2026-04-18T14:21:05.747Z</time></trkpt><trkpt lat="43.49175" lon="10.596655"><ele>488.0</ele><time>2026-04-18T14:21:07.743Z</time></trkpt><trkpt lat="43.49182" lon="10.596715"><ele>487.33333333333337</ele><time>2026-04-18T14:21:09.742Z</time></trkpt><trkpt lat="43.49186" lon="10.5967867"><ele>486.6666666666667</ele><time>2026-04-18T14:21:11.741Z</time></trkpt><trkpt lat="43.49187" lon="10.5968867"><ele>486.0</ele><time>2026-04-18T14:21:13.743Z</time></trkpt><trkpt lat="43.4919017" lon="10.596985"><ele>485.25</ele><time>2026-04-18T14:21:15.746Z</time></trkpt><trkpt lat="43.4919183" lon="10.5971717"><ele>484.5</ele><time>2026-04-18T14:21:23.742Z</time></trkpt><trkpt lat="43.4919467" lon="10.5972883"><ele>483.75</ele><time>2026-04-18T14:21:24.742Z</time></trkpt><trkpt lat="43.4919733" lon="10.597435"><ele>483.0</ele><time>2026-04-18T14:21:25.742Z</time></trkpt><trkpt lat="43.4920083" lon="10.597605"><ele>483.0</ele><time>2026-04-18T14:21:26.742Z</time></trkpt><trkpt lat="43.4920367" lon="10.5977583"><ele>482.99999999999994</ele><time>2026-04-18T14:21:27.747Z</time></trkpt><trkpt lat="43.4920533" lon="10.59788"><ele>482.99999999999994</ele><time>2026-04-18T14:21:28.745Z</time></trkpt><trkpt lat="43.4920617" lon="10.5979783"><ele>483.0</ele><time>2026-04-18T14:21:29.743Z</time></trkpt><trkpt lat="43.4920667" lon="10.5981033"><ele>483.0</ele><time>2026-04-18T14:21:31.742Z</time></trkpt><trkpt lat="43.4920767" lon="10.5982317"><ele>481.5</ele><time>2026-04-18T14:21:34.74Z</time></trkpt><trkpt lat="43.4920717" lon="10.5983483"><ele>480.0</ele><time>2026-04-18T14:21:36.74Z</time></trkpt><trkpt lat="43.4920433" lon="10.5984867"><ele>478.5</ele><time>2026-04-18T14:21:38.746Z</time></trkpt><trkpt lat="43.4920233" lon="10.5985817"><ele>477.0</ele><time>2026-04-18T14:21:39.744Z</time></trkpt><trkpt lat="43.4920017" lon="10.5986767"><ele>475.5</ele><time>2026-04-18T14:21:40.747Z</time></trkpt><trkpt lat="43.491985" lon="10.5987783"><ele>474.0</ele><time>2026-04-18T14:21:41.743Z</time></trkpt><trkpt lat="43.491975" lon="10.59887"><ele>473.1428571428571</ele><time>2026-04-18T14:21:42.743Z</time></trkpt><trkpt lat="43.4919683" lon="10.5989567"><ele>472.2857142857143</ele><time>2026-04-18T14:21:43.74Z</time></trkpt><trkpt lat="43.4919583" lon="10.5991067"><ele>471.42857142857144</ele><time>2026-04-18T14:21:45.744Z</time></trkpt><trkpt lat="43.4919717" lon="10.5991917"><ele>470.57142857142856</ele><time>2026-04-18T14:21:46.741Z</time></trkpt><trkpt lat="43.4919767" lon="10.5992833"><ele>469.7142857142858</ele><time>2026-04-18T14:21:47.742Z</time></trkpt><trkpt lat="43.49198" lon="10.5993817"><ele>468.8571428571429</ele><time>2026-04-18T14:21:48.741Z</time></trkpt><trkpt lat="43.491975" lon="10.599485"><ele>468.0</ele><time>2026-04-18T14:21:49.746Z</time></trkpt><trkpt lat="43.4919633" lon="10.5995817"><ele>467.8333333333333</ele><time>2026-04-18T14:21:50.745Z</time></trkpt><trkpt lat="43.491975" lon="10.5996683"><ele>467.66666666666663</ele><time>2026-04-18T14:21:51.745Z</time></trkpt><trkpt lat="43.4919967" lon="10.599755"><ele>467.5</ele><time>2026-04-18T14:21:52.74Z</time></trkpt><trkpt lat="43.49207" lon="10.5999033"><ele>467.3333333333333</ele><time>2026-04-18T14:21:54.744Z</time></trkpt><trkpt lat="43.4921217" lon="10.5999617"><ele>467.16666666666663</ele><time>2026-04-18T14:21:55.743Z</time></trkpt><trkpt lat="43.4921817" lon="10.6000033"><ele>467.0</ele><time>2026-04-18T14:21:56.745Z</time></trkpt><trkpt lat="43.4922967" lon="10.6000617"><ele>467.0</ele><time>2026-04-18T14:21:58.746Z</time></trkpt><trkpt lat="43.4923833" lon="10.6001517"><ele>467.00000000000006</ele><time>2026-04-18T14:22:00.746Z</time></trkpt><trkpt lat="43.4924217" lon="10.600255"><ele>467.00000000000006</ele><time>2026-04-18T14:22:02.744Z</time></trkpt><trkpt lat="43.4924867" lon="10.6003517"><ele>467.0</ele><time>2026-04-18T14:22:04.743Z</time></trkpt><trkpt lat="43.4925617" lon="10.6004417"><ele>467.0</ele><time>2026-04-18T14:22:06.742Z</time></trkpt><trkpt lat="43.4926483" lon="10.6005267"><ele>466.66666666666663</ele><time>2026-04-18T14:22:08.745Z</time></trkpt><trkpt lat="43.49274" lon="10.6005917"><ele>466.3333333333333</ele><time>2026-04-18T14:22:10.744Z</time></trkpt><trkpt lat="43.4928533" lon="10.6005733"><ele>466.0</ele><time>2026-04-18T14:22:12.744Z</time></trkpt><trkpt lat="43.4929217" lon="10.6005433"><ele>465.66666666666663</ele><time>2026-04-18T14:22:13.74Z</time></trkpt><trkpt lat="43.4929883" lon="10.6005217"><ele>465.3333333333333</ele><time>2026-04-18T14:22:14.745Z</time></trkpt><trkpt lat="43.4930567" lon="10.60051"><ele>465.0</ele><time>2026-04-18T14:22:15.74Z</time></trkpt><trkpt lat="43.4931283" lon="10.6005067"><ele>465.0</ele><time>2026-04-18T14:22:16.742Z</time></trkpt><trkpt lat="43.4932033" lon="10.6005017"><ele>465.0</ele><time>2026-04-18T14:22:17.743Z</time></trkpt><trkpt lat="43.493285" lon="10.6004867"><ele>465.0</ele><time>2026-04-18T14:22:18.748Z</time></trkpt><trkpt lat="43.49336" lon="10.6004717"><ele>465.0</ele><time>2026-04-18T14:22:19.746Z</time></trkpt><trkpt lat="43.4934317" lon="10.6005"><ele>465.0</ele><time>2026-04-18T14:22:20.744Z</time></trkpt><trkpt lat="43.4935017" lon="10.6005183"><ele>465.0</ele><time>2026-04-18T14:22:21.744Z</time></trkpt><trkpt lat="43.4935767" lon="10.6005617"><ele>465.0</ele><time>2026-04-18T14:22:22.741Z</time></trkpt><trkpt lat="43.493665" lon="10.6006317"><ele>465.0</ele><time>2026-04-18T14:22:23.742Z</time></trkpt><trkpt lat="43.4937817" lon="10.600725"><ele>465.0</ele><time>2026-04-18T14:22:24.74Z</time></trkpt><trkpt lat="43.4939167" lon="10.6008117"><ele>465.0</ele><time>2026-04-18T14:22:25.74Z</time></trkpt><trkpt lat="43.4940383" lon="10.6009117"><ele>464.6</ele><time>2026-04-18T14:22:26.744Z</time></trkpt><trkpt lat="43.4941583" lon="10.6009983"><ele>464.2</ele><time>2026-04-18T14:22:27.749Z</time></trkpt><trkpt lat="43.49425" lon="10.6011117"><ele>463.79999999999995</ele><time>2026-04-18T14:22:28.745Z</time></trkpt><trkpt lat="43.4943333" lon="10.6011667"><ele>463.4</ele><time>2026-04-18T14:22:29.741Z</time></trkpt><trkpt lat="43.494405" lon="10.6011767"><ele>463.0</ele><time>2026-04-18T14:22:30.741Z</time></trkpt><trkpt lat="43.4945" lon="10.6011317"><ele>461.0</ele><time>2026-04-18T14:22:32.747Z</time></trkpt><trkpt lat="43.4945683" lon="10.6010567"><ele>458.99999999999994</ele><time>2026-04-18T14:22:33.741Z</time></trkpt><trkpt lat="43.4946333" lon="10.60096"><ele>456.99999999999994</ele><time>2026-04-18T14:22:34.743Z</time></trkpt><trkpt lat="43.4947083" lon="10.6009033"><ele>455.0</ele><time>2026-04-18T14:22:35.741Z</time></trkpt><trkpt lat="43.494795" lon="10.600865"><ele>453.0</ele><time>2026-04-18T14:22:36.742Z</time></trkpt><trkpt lat="43.494895" lon="10.6008483"><ele>450.75</ele><time>2026-04-18T14:22:37.745Z</time></trkpt><trkpt lat="43.4949983" lon="10.6008617"><ele>448.5</ele><time>2026-04-18T14:22:38.744Z</time></trkpt><trkpt lat="43.4951183" lon="10.6008833"><ele>446.25</ele><time>2026-04-18T14:22:39.743Z</time></trkpt><trkpt lat="43.4952567" lon="10.6009483"><ele>444.0</ele><time>2026-04-18T14:22:40.739Z</time></trkpt><trkpt lat="43.4954367" lon="10.601025"><ele>443.0</ele><time>2026-04-18T14:22:41.741Z</time></trkpt><trkpt lat="43.4956317" lon="10.6011067"><ele>442.0</ele><time>2026-04-18T14:22:42.743Z</time></trkpt><trkpt lat="43.4958133" lon="10.6011933"><ele>441.0</ele><time>2026-04-18T14:22:43.744Z</time></trkpt><trkpt lat="43.4959867" lon="10.6012483"><ele>441.0</ele><time>2026-04-18T14:22:44.747Z</time></trkpt><trkpt lat="43.4961433" lon="10.6012783"><ele>441.0</ele><time>2026-04-18T14:22:45.743Z</time></trkpt><trkpt lat="43.49628" lon="10.60131"><ele>441.0</ele><time>2026-04-18T14:22:46.745Z</time></trkpt><trkpt lat="43.4963983" lon="10.6013417"><ele>441.0</ele><time>2026-04-18T14:22:47.747Z</time></trkpt><trkpt lat="43.4964983" lon="10.6013767"><ele>439.5</ele><time>2026-04-18T14:22:48.743Z</time></trkpt><trkpt lat="43.49658" lon="10.6014133"><ele>438.0</ele><time>2026-04-18T14:22:49.747Z</time></trkpt><trkpt lat="43.4966417" lon="10.60145"><ele>436.5</ele><time>2026-04-18T14:22:50.741Z</time></trkpt><trkpt lat="43.4966817" lon="10.6015183"><ele>435.0</ele><time>2026-04-18T14:22:51.741Z</time></trkpt><trkpt lat="43.496695" lon="10.60164"><ele>433.5</ele><time>2026-04-18T14:22:52.745Z</time></trkpt><trkpt lat="43.49669" lon="10.6018033"><ele>432.0</ele><time>2026-04-18T14:22:53.746Z</time></trkpt><trkpt lat="43.4966983" lon="10.6019617"><ele>432.25</ele><time>2026-04-18T14:22:54.745Z</time></trkpt><trkpt lat="43.49673" lon="10.6021133"><ele>432.5</ele><time>2026-04-18T14:22:55.744Z</time></trkpt><trkpt lat="43.4967967" lon="10.6022683"><ele>432.75</ele><time>2026-04-18T14:22:56.746Z</time></trkpt><trkpt lat="43.4968817" lon="10.60242"><ele>433.0</ele><time>2026-04-18T14:22:57.742Z</time></trkpt><trkpt lat="43.4969367" lon="10.602565"><ele>433.00000000000006</ele><time>2026-04-18T14:22:58.742Z</time></trkpt><trkpt lat="43.4969917" lon="10.60269"><ele>433.0</ele><time>2026-04-18T14:22:59.743Z</time></trkpt><trkpt lat="43.4970567" lon="10.6027833"><ele>433.0</ele><time>2026-04-18T14:23:00.744Z</time></trkpt><trkpt lat="43.4971067" lon="10.6028683"><ele>433.0</ele><time>2026-04-18T14:23:01.741Z</time></trkpt><trkpt lat="43.4971533" lon="10.60294"><ele>433.00000000000006</ele><time>2026-04-18T14:23:02.745Z</time></trkpt><trkpt lat="43.4971867" lon="10.6030583"><ele>433.0</ele><time>2026-04-18T14:23:04.743Z</time></trkpt><trkpt lat="43.4972067" lon="10.6031583"><ele>433.0</ele><time>2026-04-18T14:23:52.747Z</time></trkpt><trkpt lat="43.4971583" lon="10.6029617"><ele>433.0</ele><time>2026-04-18T14:24:00.75Z</time></trkpt><trkpt lat="43.4970883" lon="10.6028167"><ele>433.0</ele><time>2026-04-18T14:24:01.741Z</time></trkpt><trkpt lat="43.4970083" lon="10.6026583"><ele>433.0</ele><time>2026-04-18T14:24:02.744Z</time></trkpt><trkpt lat="43.4969417" lon="10.6025017"><ele>433.0</ele><time>2026-04-18T14:24:03.744Z</time></trkpt><trkpt lat="43.496865" lon="10.6023483"><ele>433.0</ele><time>2026-04-18T14:24:04.744Z</time></trkpt><trkpt lat="43.4968067" lon="10.6022083"><ele>433.0</ele><time>2026-04-18T14:24:05.745Z</time></trkpt><trkpt lat="43.4967583" lon="10.602055"><ele>433.0</ele><time>2026-04-18T14:24:06.744Z</time></trkpt><trkpt lat="43.4967267" lon="10.6019033"><ele>432.83333333333337</ele><time>2026-04-18T14:24:07.743Z</time></trkpt><trkpt lat="43.4967083" lon="10.60176"><ele>432.6666666666667</ele><time>2026-04-18T14:24:08.742Z</time></trkpt><trkpt lat="43.496695" lon="10.6016333"><ele>432.5</ele><time>2026-04-18T14:24:09.743Z</time></trkpt><trkpt lat="43.49667" lon="10.6015233"><ele>432.33333333333337</ele><time>2026-04-18T14:24:10.742Z</time></trkpt><trkpt lat="43.496635" lon="10.6014417"><ele>432.1666666666667</ele><time>2026-04-18T14:24:11.743Z</time></trkpt><trkpt lat="43.4965833" lon="10.60138"><ele>432.0</ele><time>2026-04-18T14:24:12.742Z</time></trkpt><trkpt lat="43.4964933" lon="10.6013383"><ele>432.0</ele><time>2026-04-18T14:24:13.74Z</time></trkpt><trkpt lat="43.49638" lon="10.6012933"><ele>432.0</ele><time>2026-04-18T14:24:14.741Z</time></trkpt><trkpt lat="43.49621" lon="10.601245"><ele>432.0</ele><time>2026-04-18T14:24:15.742Z</time></trkpt><trkpt lat="43.496015" lon="10.6012033"><ele>433.33333333333337</ele><time>2026-04-18T14:24:16.743Z</time></trkpt><trkpt lat="43.49581" lon="10.6011467"><ele>434.6666666666667</ele><time>2026-04-18T14:24:17.744Z</time></trkpt><trkpt lat="43.4956033" lon="10.6010767"><ele>436.0</ele><time>2026-04-18T14:24:18.747Z</time></trkpt><trkpt lat="43.4954233" lon="10.6010067"><ele>438.0</ele><time>2026-04-18T14:24:19.746Z</time></trkpt><trkpt lat="43.4952683" lon="10.6009483"><ele>440.0</ele><time>2026-04-18T14:24:20.745Z</time></trkpt><trkpt lat="43.4951283" lon="10.6009033"><ele>442.0</ele><time>2026-04-18T14:24:21.743Z</time></trkpt><trkpt lat="43.4950067" lon="10.600875"><ele>444.0</ele><time>2026-04-18T14:24:22.746Z</time></trkpt><trkpt lat="43.4948917" lon="10.6008683"><ele>444.0</ele><time>2026-04-18T14:24:23.744Z</time></trkpt><trkpt lat="43.4947883" lon="10.6008783"><ele>444.0</ele><time>2026-04-18T14:24:24.746Z</time></trkpt><trkpt lat="43.494695" lon="10.6009183"><ele>444.0</ele><time>2026-04-18T14:24:25.745Z</time></trkpt><trkpt lat="43.4946133" lon="10.6009817"><ele>444.0</ele><time>2026-04-18T14:24:26.741Z</time></trkpt><trkpt lat="43.4945367" lon="10.6010633"><ele>444.0</ele><time>2026-04-18T14:24:27.744Z</time></trkpt><trkpt lat="43.4944717" lon="10.6011333"><ele>445.5</ele><time>2026-04-18T14:24:28.749Z</time></trkpt><trkpt lat="43.49441" lon="10.60119"><ele>447.0</ele><time>2026-04-18T14:24:29.746Z</time></trkpt><trkpt lat="43.49434" lon="10.6012133"><ele>448.5</ele><time>2026-04-18T14:24:30.745Z</time></trkpt><trkpt lat="43.4942667" lon="10.6011983"><ele>450.0</ele><time>2026-04-18T14:24:31.743Z</time></trkpt><trkpt lat="43.49419" lon="10.6011533"><ele>451.5</ele><time>2026-04-18T14:24:32.743Z</time></trkpt><trkpt lat="43.4941083" lon="10.601095"><ele>453.0</ele><time>2026-04-18T14:24:33.743Z</time></trkpt><trkpt lat="43.4940183" lon="10.6009933"><ele>453.0</ele><time>2026-04-18T14:24:34.742Z</time></trkpt><trkpt lat="43.493925" lon="10.6008967"><ele>453.0</ele><time>2026-04-18T14:24:35.741Z</time></trkpt><trkpt lat="43.4938333" lon="10.60081"><ele>453.0</ele><time>2026-04-18T14:24:36.747Z</time></trkpt><trkpt lat="43.4937383" lon="10.600725"><ele>453.0</ele><time>2026-04-18T14:24:37.745Z</time></trkpt><trkpt lat="43.4936467" lon="10.6006433"><ele>456.0</ele><time>2026-04-18T14:24:38.745Z</time></trkpt><trkpt lat="43.4935583" lon="10.6005717"><ele>459.0</ele><time>2026-04-18T14:24:39.744Z</time></trkpt><trkpt lat="43.49347" lon="10.6005217"><ele>462.0</ele><time>2026-04-18T14:24:40.742Z</time></trkpt><trkpt lat="43.4933567" lon="10.6005067"><ele>465.0</ele><time>2026-04-18T14:24:41.742Z</time></trkpt><trkpt lat="43.4932183" lon="10.6005083"><ele>465.0</ele><time>2026-04-18T14:24:42.741Z</time></trkpt><trkpt lat="43.493075" lon="10.6005233"><ele>465.0</ele><time>2026-04-18T14:24:43.742Z</time></trkpt><trkpt lat="43.4929483" lon="10.6005483"><ele>465.0</ele><time>2026-04-18T14:24:44.744Z</time></trkpt><trkpt lat="43.4928567" lon="10.6005767"><ele>465.0</ele><time>2026-04-18T14:24:45.748Z</time></trkpt><trkpt lat="43.4927767" lon="10.6005933"><ele>465.0</ele><time>2026-04-18T14:24:46.746Z</time></trkpt><trkpt lat="43.492705" lon="10.600595"><ele>464.6</ele><time>2026-04-18T14:24:47.742Z</time></trkpt><trkpt lat="43.4926433" lon="10.6005617"><ele>464.2</ele><time>2026-04-18T14:24:48.741Z</time></trkpt><trkpt lat="43.4925583" lon="10.6004733"><ele>463.79999999999995</ele><time>2026-04-18T14:24:50.745Z</time></trkpt><trkpt lat="43.4925367" lon="10.6005933"><ele>463.4</ele><time>2026-04-18T14:25:22.754Z</time></trkpt><trkpt lat="43.492605" lon="10.6007383"><ele>463.0</ele><time>2026-04-18T14:25:24.747Z</time></trkpt><trkpt lat="43.4926783" lon="10.600835"><ele>463.0</ele><time>2026-04-18T14:25:25.747Z</time></trkpt><trkpt lat="43.492785" lon="10.6009483"><ele>463.0</ele><time>2026-04-18T14:25:26.743Z</time></trkpt><trkpt lat="43.4928667" lon="10.6010583"><ele>463.0</ele><time>2026-04-18T14:25:27.74Z</time></trkpt><trkpt lat="43.4929467" lon="10.6011567"><ele>463.0</ele><time>2026-04-18T14:25:28.744Z</time></trkpt><trkpt lat="43.4930467" lon="10.6012233"><ele>463.75</ele><time>2026-04-18T14:25:29.75Z</time></trkpt><trkpt lat="43.493145" lon="10.6012833"><ele>464.5</ele><time>2026-04-18T14:25:30.744Z</time></trkpt><trkpt lat="43.4932467" lon="10.6013417"><ele>465.25</ele><time>2026-04-18T14:25:31.747Z</time></trkpt><trkpt lat="43.4933467" lon="10.6014333"><ele>466.0</ele><time>2026-04-18T14:25:32.746Z</time></trkpt><trkpt lat="43.4934317" lon="10.601565"><ele>466.0</ele><time>2026-04-18T14:25:33.744Z</time></trkpt><trkpt lat="43.493525" lon="10.60167"><ele>466.0</ele><time>2026-04-18T14:25:34.742Z</time></trkpt><trkpt lat="43.4935983" lon="10.6017783"><ele>466.0</ele><time>2026-04-18T14:25:35.743Z</time></trkpt><trkpt lat="43.493655" lon="10.601875"><ele>466.0</ele><time>2026-04-18T14:25:36.741Z</time></trkpt><trkpt lat="43.4936983" lon="10.6019417"><ele>466.0</ele><time>2026-04-18T14:25:37.741Z</time></trkpt><trkpt lat="43.49378" lon="10.6020267"><ele>466.83333333333337</ele><time>2026-04-18T14:25:53.743Z</time></trkpt><trkpt lat="43.493855" lon="10.60203"><ele>467.6666666666667</ele><time>2026-04-18T14:25:56.747Z</time></trkpt><trkpt lat="43.493785" lon="10.6020433"><ele>468.5</ele><time>2026-04-18T14:26:28.742Z</time></trkpt><trkpt lat="43.49378" lon="10.6021367"><ele>469.33333333333337</ele><time>2026-04-18T14:26:31.745Z</time></trkpt><trkpt lat="43.4937967" lon="10.6022867"><ele>470.1666666666667</ele><time>2026-04-18T14:26:33.74Z</time></trkpt><trkpt lat="43.4937983" lon="10.6023983"><ele>471.0</ele><time>2026-04-18T14:26:34.742Z</time></trkpt><trkpt lat="43.4938083" lon="10.6025183"><ele>471.0</ele><time>2026-04-18T14:26:35.746Z</time></trkpt><trkpt lat="43.4938183" lon="10.6026383"><ele>471.0</ele><time>2026-04-18T14:26:36.743Z</time></trkpt><trkpt lat="43.49383" lon="10.602755"><ele>471.0</ele><time>2026-04-18T14:26:37.749Z</time></trkpt><trkpt lat="43.4938367" lon="10.6028733"><ele>471.0</ele><time>2026-04-18T14:26:38.745Z</time></trkpt><trkpt lat="43.49387" lon="10.602975"><ele>471.0</ele><time>2026-04-18T14:26:39.745Z</time></trkpt><trkpt lat="43.4939233" lon="10.60307"><ele>471.0</ele><time>2026-04-18T14:26:40.744Z</time></trkpt><trkpt lat="43.4939917" lon="10.60317"><ele>470.6</ele><time>2026-04-18T14:26:41.746Z</time></trkpt><trkpt lat="43.4940367" lon="10.6032767"><ele>470.20000000000005</ele><time>2026-04-18T14:26:42.742Z</time></trkpt><trkpt lat="43.494095" lon="10.6033733"><ele>469.79999999999995</ele><time>2026-04-18T14:26:43.742Z</time></trkpt><trkpt lat="43.4941533" lon="10.6034683"><ele>469.4</ele><time>2026-04-18T14:26:44.743Z</time></trkpt><trkpt lat="43.4942083" lon="10.6035667"><ele>469.0</ele><time>2026-04-18T14:26:45.741Z</time></trkpt><trkpt lat="43.4942717" lon="10.6036567"><ele>469.00000000000006</ele><time>2026-04-18T14:26:46.743Z</time></trkpt><trkpt lat="43.4943367" lon="10.6037483"><ele>469.0</ele><time>2026-04-18T14:26:47.744Z</time></trkpt><trkpt lat="43.4943983" lon="10.603835"><ele>469.0</ele><time>2026-04-18T14:26:48.743Z</time></trkpt><trkpt lat="43.4944467" lon="10.6039267"><ele>469.0</ele><time>2026-04-18T14:26:49.739Z</time></trkpt><trkpt lat="43.4945117" lon="10.6039917"><ele>469.00000000000006</ele><time>2026-04-18T14:26:50.742Z</time></trkpt><trkpt lat="43.4945783" lon="10.604045"><ele>469.0</ele><time>2026-04-18T14:26:51.741Z</time></trkpt><trkpt lat="43.4946417" lon="10.6040983"><ele>469.00000000000006</ele><time>2026-04-18T14:26:52.739Z</time></trkpt><trkpt lat="43.4947" lon="10.6041417"><ele>469.0</ele><time>2026-04-18T14:26:53.744Z</time></trkpt><trkpt lat="43.4947733" lon="10.6041533"><ele>469.0</ele><time>2026-04-18T14:26:55.742Z</time></trkpt><trkpt lat="43.4948583" lon="10.6040983"><ele>469.0</ele><time>2026-04-18T14:26:58.74Z</time></trkpt><trkpt lat="43.49497" lon="10.6040783"><ele>469.00000000000006</ele><time>2026-04-18T14:27:00.75Z</time></trkpt><trkpt lat="43.4950383" lon="10.6040667"><ele>469.0</ele><time>2026-04-18T14:27:01.751Z</time></trkpt><trkpt lat="43.49511" lon="10.6040883"><ele>469.0</ele><time>2026-04-18T14:27:02.747Z</time></trkpt><trkpt lat="43.4951883" lon="10.6041133"><ele>469.0</ele><time>2026-04-18T14:27:03.744Z</time></trkpt><trkpt lat="43.49526" lon="10.6041767"><ele>469.0</ele><time>2026-04-18T14:27:04.749Z</time></trkpt><trkpt lat="43.4953133" lon="10.604275"><ele>469.0</ele><time>2026-04-18T14:27:05.742Z</time></trkpt><trkpt lat="43.4953517" lon="10.60439"><ele>469.0</ele><time>2026-04-18T14:27:06.748Z</time></trkpt><trkpt lat="43.495385" lon="10.6045283"><ele>466.75</ele><time>2026-04-18T14:27:07.752Z</time></trkpt><trkpt lat="43.4954217" lon="10.6046933"><ele>464.5</ele><time>2026-04-18T14:27:08.747Z</time></trkpt><trkpt lat="43.495425" lon="10.6048933"><ele>462.25</ele><time>2026-04-18T14:27:09.747Z</time></trkpt><trkpt lat="43.49545" lon="10.605085"><ele>460.0</ele><time>2026-04-18T14:27:10.745Z</time></trkpt><trkpt lat="43.4954683" lon="10.6052617"><ele>461.25</ele><time>2026-04-18T14:27:11.746Z</time></trkpt><trkpt lat="43.4954983" lon="10.605425"><ele>462.5</ele><time>2026-04-18T14:27:12.744Z</time></trkpt><trkpt lat="43.495545" lon="10.6055833"><ele>463.75</ele><time>2026-04-18T14:27:13.747Z</time></trkpt><trkpt lat="43.4955967" lon="10.6057367"><ele>465.0</ele><time>2026-04-18T14:27:14.744Z</time></trkpt><trkpt lat="43.4956517" lon="10.6058733"><ele>465.0</ele><time>2026-04-18T14:27:15.745Z</time></trkpt><trkpt lat="43.49572" lon="10.6059917"><ele>465.0</ele><time>2026-04-18T14:27:16.747Z</time></trkpt><trkpt lat="43.49575" lon="10.6061"><ele>465.0</ele><time>2026-04-18T14:27:17.748Z</time></trkpt><trkpt lat="43.4957683" lon="10.606185"><ele>465.0</ele><time>2026-04-18T14:27:18.745Z</time></trkpt><trkpt lat="43.4957783" lon="10.60631"><ele>465.0</ele><time>2026-04-18T14:27:20.747Z</time></trkpt><trkpt lat="43.4957833" lon="10.6064267"><ele>465.0</ele><time>2026-04-18T14:27:22.744Z</time></trkpt><trkpt lat="43.495765" lon="10.6065567"><ele>465.5</ele><time>2026-04-18T14:27:24.744Z</time></trkpt><trkpt lat="43.4957233" lon="10.6066833"><ele>466.0</ele><time>2026-04-18T14:27:26.744Z</time></trkpt><trkpt lat="43.495735" lon="10.60677"><ele>466.5</ele><time>2026-04-18T14:27:28.743Z</time></trkpt><trkpt lat="43.495835" lon="10.6067933"><ele>467.0</ele><time>2026-04-18T14:27:42.747Z</time></trkpt><trkpt lat="43.4959" lon="10.6067917"><ele>467.5</ele><time>2026-04-18T14:27:43.744Z</time></trkpt><trkpt lat="43.4959833" lon="10.6068033"><ele>468.0</ele><time>2026-04-18T14:27:44.745Z</time></trkpt><trkpt lat="43.49608" lon="10.6068083"><ele>468.0</ele><time>2026-04-18T14:27:45.743Z</time></trkpt><trkpt lat="43.4961733" lon="10.6068017"><ele>467.99999999999994</ele><time>2026-04-18T14:27:46.74Z</time></trkpt><trkpt lat="43.4962517" lon="10.6068217"><ele>467.99999999999994</ele><time>2026-04-18T14:27:47.74Z</time></trkpt><trkpt lat="43.4963517" lon="10.6068567"><ele>468.0</ele><time>2026-04-18T14:27:49.745Z</time></trkpt><trkpt lat="43.496405" lon="10.6069483"><ele>468.0</ele><time>2026-04-18T14:27:51.741Z</time></trkpt><trkpt lat="43.496415" lon="10.6070967"><ele>467.79999999999995</ele><time>2026-04-18T14:27:53.747Z</time></trkpt><trkpt lat="43.4963933" lon="10.6072617"><ele>467.59999999999997</ele><time>2026-04-18T14:27:55.744Z</time></trkpt><trkpt lat="43.4963867" lon="10.6073967"><ele>467.40000000000003</ele><time>2026-04-18T14:27:57.747Z</time></trkpt><trkpt lat="43.4963817" lon="10.60754"><ele>467.20000000000005</ele><time>2026-04-18T14:27:59.742Z</time></trkpt><trkpt lat="43.4963983" lon="10.60768"><ele>467.0</ele><time>2026-04-18T14:28:01.75Z</time></trkpt><trkpt lat="43.4964" lon="10.60781"><ele>468.40000000000003</ele><time>2026-04-18T14:28:03.744Z</time></trkpt><trkpt lat="43.496395" lon="10.6079633"><ele>469.80000000000007</ele><time>2026-04-18T14:28:05.744Z</time></trkpt><trkpt lat="43.4963683" lon="10.6081033"><ele>471.2</ele><time>2026-04-18T14:28:07.742Z</time></trkpt><trkpt lat="43.4963117" lon="10.6082583"><ele>472.6</ele><time>2026-04-18T14:28:09.742Z</time></trkpt><trkpt lat="43.49626" lon="10.6083333"><ele>474.0</ele><time>2026-04-18T14:28:10.741Z</time></trkpt><trkpt lat="43.49622" lon="10.6084017"><ele>472.0</ele><time>2026-04-18T14:28:11.744Z</time></trkpt><trkpt lat="43.4961533" lon="10.6085183"><ele>470.0</ele><time>2026-04-18T14:28:13.744Z</time></trkpt><trkpt lat="43.4961017" lon="10.6086233"><ele>468.0</ele><time>2026-04-18T14:28:15.742Z</time></trkpt><trkpt lat="43.4960917" lon="10.6087667"><ele>466.0</ele><time>2026-04-18T14:28:17.741Z</time></trkpt><trkpt lat="43.4960767" lon="10.6088517"><ele>464.0</ele><time>2026-04-18T14:28:18.743Z</time></trkpt><trkpt lat="43.49606" lon="10.6089367"><ele>462.0</ele><time>2026-04-18T14:28:19.743Z</time></trkpt><trkpt lat="43.4960383" lon="10.6090233"><ele>462.0</ele><time>2026-04-18T14:28:20.744Z</time></trkpt><trkpt lat="43.495995" lon="10.609175"><ele>462.00000000000006</ele><time>2026-04-18T14:28:22.744Z</time></trkpt><trkpt lat="43.4959633" lon="10.6093183"><ele>462.00000000000006</ele><time>2026-04-18T14:28:24.75Z</time></trkpt><trkpt lat="43.4959567" lon="10.609435"><ele>462.0</ele><time>2026-04-18T14:28:26.744Z</time></trkpt><trkpt lat="43.4959683" lon="10.6095533"><ele>462.0</ele><time>2026-04-18T14:28:28.742Z</time></trkpt><trkpt lat="43.4960183" lon="10.6096767"><ele>460.0</ele><time>2026-04-18T14:28:30.741Z</time></trkpt><trkpt lat="43.4960867" lon="10.6098183"><ele>458.00000000000006</ele><time>2026-04-18T14:28:32.747Z</time></trkpt><trkpt lat="43.4961417" lon="10.60988"><ele>456.00000000000006</ele><time>2026-04-18T14:28:33.747Z</time></trkpt><trkpt lat="43.49623" lon="10.6100167"><ele>454.0</ele><time>2026-04-18T14:28:35.746Z</time></trkpt><trkpt lat="43.49629" lon="10.6100867"><ele>452.0</ele><time>2026-04-18T14:28:36.744Z</time></trkpt><trkpt lat="43.4963433" lon="10.6101517"><ele>452.14285714285717</ele><time>2026-04-18T14:28:37.741Z</time></trkpt><trkpt lat="43.4964033" lon="10.6102083"><ele>452.2857142857142</ele><time>2026-04-18T14:28:38.743Z</time></trkpt><trkpt lat="43.49645" lon="10.610275"><ele>452.4285714285714</ele><time>2026-04-18T14:28:39.742Z</time></trkpt><trkpt lat="43.49649" lon="10.6103533"><ele>452.57142857142856</ele><time>2026-04-18T14:28:40.741Z</time></trkpt><trkpt lat="43.4965283" lon="10.6104317"><ele>452.71428571428567</ele><time>2026-04-18T14:28:41.745Z</time></trkpt><trkpt lat="43.49657" lon="10.6105067"><ele>452.8571428571428</ele><time>2026-04-18T14:28:42.752Z</time></trkpt><trkpt lat="43.4966017" lon="10.61059"><ele>452.99999999999994</ele><time>2026-04-18T14:28:43.746Z</time></trkpt><trkpt lat="43.49664" lon="10.6106717"><ele>453.0</ele><time>2026-04-18T14:28:44.748Z</time></trkpt><trkpt lat="43.4966833" lon="10.6107383"><ele>453.0</ele><time>2026-04-18T14:28:45.743Z</time></trkpt><trkpt lat="43.4967283" lon="10.6108183"><ele>453.0</ele><time>2026-04-18T14:28:46.744Z</time></trkpt><trkpt lat="43.4967833" lon="10.6108983"><ele>453.0</ele><time>2026-04-18T14:28:47.746Z</time></trkpt><trkpt lat="43.4968333" lon="10.61099"><ele>453.0</ele><time>2026-04-18T14:28:48.755Z</time></trkpt><trkpt lat="43.4968817" lon="10.6110867"><ele>453.0</ele><time>2026-04-18T14:28:49.746Z</time></trkpt><trkpt lat="43.496935" lon="10.611155"><ele>449.79999999999995</ele><time>2026-04-18T14:28:50.749Z</time></trkpt><trkpt lat="43.4969633" lon="10.6112517"><ele>446.59999999999997</ele><time>2026-04-18T14:28:51.745Z</time></trkpt><trkpt lat="43.49698" lon="10.6113467"><ele>443.40000000000003</ele><time>2026-04-18T14:28:52.745Z</time></trkpt><trkpt lat="43.4970033" lon="10.61143"><ele>440.20000000000005</ele><time>2026-04-18T14:28:53.745Z</time></trkpt><trkpt lat="43.4970217" lon="10.6116033"><ele>437.0</ele><time>2026-04-18T14:28:55.746Z</time></trkpt><trkpt lat="43.49702" lon="10.6117667"><ele>437.0</ele><time>2026-04-18T14:28:57.744Z</time></trkpt><trkpt lat="43.497005" lon="10.611925"><ele>437.00000000000006</ele><time>2026-04-18T14:28:59.741Z</time></trkpt><trkpt lat="43.4970267" lon="10.6120867"><ele>437.00000000000006</ele><time>2026-04-18T14:29:01.743Z</time></trkpt><trkpt lat="43.49706" lon="10.612165"><ele>437.0</ele><time>2026-04-18T14:29:02.746Z</time></trkpt><trkpt lat="43.49709" lon="10.612245"><ele>437.0</ele><time>2026-04-18T14:29:03.747Z</time></trkpt><trkpt lat="43.4971517" lon="10.6123883"><ele>436.66666666666663</ele><time>2026-04-18T14:29:05.745Z</time></trkpt><trkpt lat="43.4972233" lon="10.612525"><ele>436.3333333333333</ele><time>2026-04-18T14:29:07.748Z</time></trkpt><trkpt lat="43.49727" lon="10.61259"><ele>436.0</ele><time>2026-04-18T14:29:08.744Z</time></trkpt><trkpt lat="43.4973267" lon="10.6126417"><ele>435.66666666666663</ele><time>2026-04-18T14:29:09.748Z</time></trkpt><trkpt lat="43.4973917" lon="10.6126967"><ele>435.3333333333333</ele><time>2026-04-18T14:29:10.745Z</time></trkpt><trkpt lat="43.497465" lon="10.61275"><ele>435.0</ele><time>2026-04-18T14:29:11.743Z</time></trkpt><trkpt lat="43.4975267" lon="10.6128333"><ele>433.0</ele><time>2026-04-18T14:29:12.743Z</time></trkpt><trkpt lat="43.497595" lon="10.61291"><ele>431.0</ele><time>2026-04-18T14:29:13.742Z</time></trkpt><trkpt lat="43.49766" lon="10.6129917"><ele>429.0</ele><time>2026-04-18T14:29:14.747Z</time></trkpt><trkpt lat="43.4977183" lon="10.613065"><ele>427.0</ele><time>2026-04-18T14:29:15.744Z</time></trkpt><trkpt lat="43.4977633" lon="10.613135"><ele>425.0</ele><time>2026-04-18T14:29:16.743Z</time></trkpt><trkpt lat="43.4978633" lon="10.61322"><ele>423.0</ele><time>2026-04-18T14:29:18.741Z</time></trkpt><trkpt lat="43.4979917" lon="10.613355"><ele>422.5</ele><time>2026-04-18T14:30:08.749Z</time></trkpt><trkpt lat="43.4980517" lon="10.6134317"><ele>422.0</ele><time>2026-04-18T14:30:09.749Z</time></trkpt><trkpt lat="43.4980933" lon="10.6135183"><ele>421.5</ele><time>2026-04-18T14:30:10.741Z</time></trkpt><trkpt lat="43.4981517" lon="10.613595"><ele>421.0</ele><time>2026-04-18T14:30:11.742Z</time></trkpt><trkpt lat="43.4981867" lon="10.6136833"><ele>420.5</ele><time>2026-04-18T14:30:12.745Z</time></trkpt><trkpt lat="43.4982083" lon="10.6137867"><ele>420.0</ele><time>2026-04-18T14:30:13.743Z</time></trkpt><trkpt lat="43.4982467" lon="10.61388"><ele>420.0</ele><time>2026-04-18T14:30:14.743Z</time></trkpt><trkpt lat="43.4982683" lon="10.6139933"><ele>420.0</ele><time>2026-04-18T14:30:15.747Z</time></trkpt><trkpt lat="43.498295" lon="10.6141017"><ele>420.0</ele><time>2026-04-18T14:30:16.742Z</time></trkpt><trkpt lat="43.498335" lon="10.6142083"><ele>420.0</ele><time>2026-04-18T14:30:17.741Z</time></trkpt><trkpt lat="43.498385" lon="10.6143067"><ele>420.0</ele><time>2026-04-18T14:30:18.741Z</time></trkpt><trkpt lat="43.4984183" lon="10.6144183"><ele>420.0</ele><time>2026-04-18T14:30:19.746Z</time></trkpt><trkpt lat="43.4984483" lon="10.61452"><ele>420.0</ele><time>2026-04-18T14:30:20.746Z</time></trkpt><trkpt lat="43.4984817" lon="10.6146167"><ele>420.0</ele><time>2026-04-18T14:30:21.745Z</time></trkpt><trkpt lat="43.4985067" lon="10.6147167"><ele>420.0</ele><time>2026-04-18T14:30:22.744Z</time></trkpt><trkpt lat="43.4985267" lon="10.6148183"><ele>420.0</ele><time>2026-04-18T14:30:23.743Z</time></trkpt><trkpt lat="43.4985617" lon="10.6149017"><ele>420.0</ele><time>2026-04-18T14:30:24.742Z</time></trkpt><trkpt lat="43.49862" lon="10.615045"><ele>420.0</ele><time>2026-04-18T14:30:26.747Z</time></trkpt><trkpt lat="43.4986783" lon="10.6150833"><ele>420.0</ele><time>2026-04-18T14:30:27.741Z</time></trkpt><trkpt lat="43.49874" lon="10.615115"><ele>420.0</ele><time>2026-04-18T14:30:28.742Z</time></trkpt><trkpt lat="43.4988083" lon="10.6151183"><ele>420.0</ele><time>2026-04-18T14:30:29.741Z</time></trkpt><trkpt lat="43.4989183" lon="10.6151167"><ele>420.0</ele><time>2026-04-18T14:30:31.74Z</time></trkpt><trkpt lat="43.49903" lon="10.6151417"><ele>420.0</ele><time>2026-04-18T14:30:33.748Z</time></trkpt><trkpt lat="43.4991383" lon="10.6152417"><ele>417.6666666666667</ele><time>2026-04-18T14:30:35.747Z</time></trkpt><trkpt lat="43.4991667" lon="10.61533"><ele>415.33333333333337</ele><time>2026-04-18T14:30:36.744Z</time></trkpt><trkpt lat="43.49919" lon="10.6154783"><ele>413.0</ele><time>2026-04-18T14:30:38.741Z</time></trkpt><trkpt lat="43.4991683" lon="10.615565"><ele>410.6666666666667</ele><time>2026-04-18T14:30:39.748Z</time></trkpt><trkpt lat="43.4991333" lon="10.6156517"><ele>408.33333333333337</ele><time>2026-04-18T14:30:40.746Z</time></trkpt><trkpt lat="43.4990933" lon="10.6157383"><ele>406.0</ele><time>2026-04-18T14:30:41.748Z</time></trkpt><trkpt lat="43.499055" lon="10.6158283"><ele>406.00000000000006</ele><time>2026-04-18T14:30:42.746Z</time></trkpt><trkpt lat="43.49903" lon="10.6159167"><ele>406.0</ele><time>2026-04-18T14:30:43.741Z</time></trkpt><trkpt lat="43.4989667" lon="10.6160333"><ele>406.0</ele><time>2026-04-18T14:30:45.741Z</time></trkpt><trkpt lat="43.499015" lon="10.616135"><ele>406.0</ele><time>2026-04-18T14:30:48.744Z</time></trkpt><trkpt lat="43.4990867" lon="10.6161833"><ele>406.00000000000006</ele><time>2026-04-18T14:30:51.745Z</time></trkpt><trkpt lat="43.49915" lon="10.6162267"><ele>406.0</ele><time>2026-04-18T14:30:58.747Z</time></trkpt><trkpt lat="43.4992217" lon="10.6162633"><ele>404.25</ele><time>2026-04-18T14:30:59.747Z</time></trkpt><trkpt lat="43.499345" lon="10.6162817"><ele>402.5</ele><time>2026-04-18T14:31:00.745Z</time></trkpt><trkpt lat="43.4994617" lon="10.61631"><ele>400.75</ele><time>2026-04-18T14:31:01.743Z</time></trkpt><trkpt lat="43.4995817" lon="10.6163417"><ele>399.0</ele><time>2026-04-18T14:31:02.744Z</time></trkpt><trkpt lat="43.4996733" lon="10.616315"><ele>399.0</ele><time>2026-04-18T14:31:03.743Z</time></trkpt><trkpt lat="43.499765" lon="10.6163533"><ele>399.0</ele><time>2026-04-18T14:31:04.743Z</time></trkpt><trkpt lat="43.4998567" lon="10.6163767"><ele>399.0</ele><time>2026-04-18T14:31:05.748Z</time></trkpt><trkpt lat="43.49993" lon="10.61638"><ele>399.0</ele><time>2026-04-18T14:31:06.746Z</time></trkpt><trkpt lat="43.499995" lon="10.6163533"><ele>399.0</ele><time>2026-04-18T14:31:07.752Z</time></trkpt><trkpt lat="43.5000567" lon="10.6163117"><ele>399.0</ele><time>2026-04-18T14:31:08.752Z</time></trkpt><trkpt lat="43.500115" lon="10.6162733"><ele>399.0</ele><time>2026-04-18T14:31:09.743Z</time></trkpt><trkpt lat="43.5001617" lon="10.6162117"><ele>399.0</ele><time>2026-04-18T14:31:10.746Z</time></trkpt><trkpt lat="43.5002167" lon="10.6161633"><ele>399.0</ele><time>2026-04-18T14:31:11.744Z</time></trkpt><trkpt lat="43.50028" lon="10.6161367"><ele>399.0</ele><time>2026-04-18T14:31:12.743Z</time></trkpt><trkpt lat="43.5003433" lon="10.6161117"><ele>399.0</ele><time>2026-04-18T14:31:13.743Z</time></trkpt><trkpt lat="43.500455" lon="10.6161383"><ele>399.0</ele><time>2026-04-18T14:31:15.742Z</time></trkpt><trkpt lat="43.5005667" lon="10.6162383"><ele>396.8333333333333</ele><time>2026-04-18T14:31:17.741Z</time></trkpt><trkpt lat="43.5006317" lon="10.6162833"><ele>394.66666666666663</ele><time>2026-04-18T14:31:18.745Z</time></trkpt><trkpt lat="43.5006967" lon="10.616305"><ele>392.5</ele><time>2026-04-18T14:31:19.746Z</time></trkpt><trkpt lat="43.50076" lon="10.6163183"><ele>390.3333333333333</ele><time>2026-04-18T14:31:20.744Z</time></trkpt><trkpt lat="43.5008367" lon="10.6163167"><ele>388.16666666666663</ele><time>2026-04-18T14:31:21.742Z</time></trkpt><trkpt lat="43.5009233" lon="10.6163067"><ele>386.0</ele><time>2026-04-18T14:31:22.74Z</time></trkpt><trkpt lat="43.501015" lon="10.6162833"><ele>386.0</ele><time>2026-04-18T14:31:23.745Z</time></trkpt><trkpt lat="43.5010967" lon="10.616265"><ele>386.0</ele><time>2026-04-18T14:31:24.74Z</time></trkpt><trkpt lat="43.5011733" lon="10.61625"><ele>386.0</ele><time>2026-04-18T14:31:25.744Z</time></trkpt><trkpt lat="43.5012667" lon="10.6161783"><ele>386.0</ele><time>2026-04-18T14:31:27.741Z</time></trkpt><trkpt lat="43.50136" lon="10.61606"><ele>386.0</ele><time>2026-04-18T14:31:29.74Z</time></trkpt><trkpt lat="43.5014083" lon="10.6159767"><ele>387.8</ele><time>2026-04-18T14:31:30.745Z</time></trkpt><trkpt lat="43.5014517" lon="10.6159"><ele>389.6</ele><time>2026-04-18T14:31:31.745Z</time></trkpt><trkpt lat="43.5015033" lon="10.6158417"><ele>391.4</ele><time>2026-04-18T14:31:32.748Z</time></trkpt><trkpt lat="43.50159" lon="10.6157533"><ele>393.2</ele><time>2026-04-18T14:31:34.744Z</time></trkpt><trkpt lat="43.50169" lon="10.615685"><ele>395.0</ele><time>2026-04-18T14:31:36.742Z</time></trkpt><trkpt lat="43.50181" lon="10.6156667"><ele>394.99999999999994</ele><time>2026-04-18T14:31:38.747Z</time></trkpt><trkpt lat="43.5018783" lon="10.6156683"><ele>395.0</ele><time>2026-04-18T14:31:39.745Z</time></trkpt><trkpt lat="43.5019433" lon="10.61568"><ele>395.0</ele><time>2026-04-18T14:31:40.743Z</time></trkpt><trkpt lat="43.5020767" lon="10.6156383"><ele>395.0</ele><time>2026-04-18T14:31:42.743Z</time></trkpt><trkpt lat="43.5021583" lon="10.61564"><ele>394.99999999999994</ele><time>2026-04-18T14:31:43.741Z</time></trkpt><trkpt lat="43.5022267" lon="10.615625"><ele>395.0</ele><time>2026-04-18T14:31:44.744Z</time></trkpt><trkpt lat="43.5022883" lon="10.615645"><ele>394.0</ele><time>2026-04-18T14:31:45.744Z</time></trkpt><trkpt lat="43.5023483" lon="10.6156917"><ele>393.0</ele><time>2026-04-18T14:31:46.744Z</time></trkpt><trkpt lat="43.502415" lon="10.6157233"><ele>392.0</ele><time>2026-04-18T14:31:47.745Z</time></trkpt><trkpt lat="43.5024833" lon="10.615785"><ele>391.0</ele><time>2026-04-18T14:31:48.744Z</time></trkpt><trkpt lat="43.5025483" lon="10.6158517"><ele>390.0</ele><time>2026-04-18T14:31:49.741Z</time></trkpt><trkpt lat="43.5026117" lon="10.6159067"><ele>389.0</ele><time>2026-04-18T14:31:50.742Z</time></trkpt><trkpt lat="43.5026783" lon="10.615915"><ele>388.0</ele><time>2026-04-18T14:31:51.745Z</time></trkpt><trkpt lat="43.5027867" lon="10.6158867"><ele>388.00000000000006</ele><time>2026-04-18T14:31:53.743Z</time></trkpt><trkpt lat="43.5028417" lon="10.615835"><ele>388.0</ele><time>2026-04-18T14:31:54.743Z</time></trkpt><trkpt lat="43.5029033" lon="10.6157683"><ele>388.0</ele><time>2026-04-18T14:31:55.741Z</time></trkpt><trkpt lat="43.5029517" lon="10.6156717"><ele>388.0</ele><time>2026-04-18T14:31:56.742Z</time></trkpt><trkpt lat="43.5030083" lon="10.61559"><ele>388.00000000000006</ele><time>2026-04-18T14:31:57.741Z</time></trkpt><trkpt lat="43.5030767" lon="10.6155467"><ele>388.0</ele><time>2026-04-18T14:31:58.745Z</time></trkpt><trkpt lat="43.50314" lon="10.615515"><ele>386.79999999999995</ele><time>2026-04-18T14:31:59.744Z</time></trkpt><trkpt lat="43.5032033" lon="10.6155"><ele>385.6</ele><time>2026-04-18T14:32:00.749Z</time></trkpt><trkpt lat="43.5033067" lon="10.6154467"><ele>384.4</ele><time>2026-04-18T14:32:02.745Z</time></trkpt><trkpt lat="43.5033933" lon="10.61534"><ele>383.20000000000005</ele><time>2026-04-18T14:32:04.744Z</time></trkpt><trkpt lat="43.503455" lon="10.6151617"><ele>382.0</ele><time>2026-04-18T14:32:06.746Z</time></trkpt><trkpt lat="43.5035017" lon="10.61506"><ele>382.0</ele><time>2026-04-18T14:32:07.743Z</time></trkpt><trkpt lat="43.5035267" lon="10.6149667"><ele>382.0</ele><time>2026-04-18T14:32:08.745Z</time></trkpt><trkpt lat="43.5035717" lon="10.6148933"><ele>382.0</ele><time>2026-04-18T14:32:09.742Z</time></trkpt><trkpt lat="43.5036233" lon="10.6148333"><ele>382.0</ele><time>2026-04-18T14:32:10.744Z</time></trkpt><trkpt lat="43.5036833" lon="10.614805"><ele>382.0</ele><time>2026-04-18T14:32:11.746Z</time></trkpt><trkpt lat="43.5038117" lon="10.6147433"><ele>382.0</ele><time>2026-04-18T14:32:13.745Z</time></trkpt><trkpt lat="43.503885" lon="10.6147167"><ele>379.7142857142857</ele><time>2026-04-18T14:32:14.746Z</time></trkpt><trkpt lat="43.5039617" lon="10.6146883"><ele>377.4285714285714</ele><time>2026-04-18T14:32:15.741Z</time></trkpt><trkpt lat="43.5040367" lon="10.6146767"><ele>375.1428571428571</ele><time>2026-04-18T14:32:16.745Z</time></trkpt><trkpt lat="43.504105" lon="10.6146883"><ele>372.8571428571429</ele><time>2026-04-18T14:32:17.742Z</time></trkpt><trkpt lat="43.504175" lon="10.6147267"><ele>370.57142857142856</ele><time>2026-04-18T14:32:18.742Z</time></trkpt><trkpt lat="43.5042333" lon="10.6147667"><ele>368.2857142857143</ele><time>2026-04-18T14:32:19.745Z</time></trkpt><trkpt lat="43.5042833" lon="10.614825"><ele>366.0</ele><time>2026-04-18T14:32:20.747Z</time></trkpt><trkpt lat="43.5043633" lon="10.6149367"><ele>366.0</ele><time>2026-04-18T14:32:22.746Z</time></trkpt><trkpt lat="43.5044433" lon="10.615"><ele>366.0</ele><time>2026-04-18T14:32:24.745Z</time></trkpt><trkpt lat="43.5045483" lon="10.6150533"><ele>366.0</ele><time>2026-04-18T14:32:26.744Z</time></trkpt><trkpt lat="43.5046583" lon="10.6151183"><ele>366.0</ele><time>2026-04-18T14:32:28.741Z</time></trkpt><trkpt lat="43.5047633" lon="10.6151783"><ele>366.0</ele><time>2026-04-18T14:32:30.751Z</time></trkpt><trkpt lat="43.5048633" lon="10.6151933"><ele>362.6</ele><time>2026-04-18T14:32:32.746Z</time></trkpt><trkpt lat="43.504955" lon="10.615195"><ele>359.20000000000005</ele><time>2026-04-18T14:32:34.75Z</time></trkpt><trkpt lat="43.5050417" lon="10.61518"><ele>355.79999999999995</ele><time>2026-04-18T14:32:36.747Z</time></trkpt><trkpt lat="43.5051333" lon="10.61516"><ele>352.4</ele><time>2026-04-18T14:32:38.746Z</time></trkpt><trkpt lat="43.505215" lon="10.6151567"><ele>349.0</ele><time>2026-04-18T14:32:40.743Z</time></trkpt><trkpt lat="43.50532" lon="10.61506"><ele>349.0</ele><time>2026-04-18T14:32:42.746Z</time></trkpt><trkpt lat="43.5053733" lon="10.6150033"><ele>349.0</ele><time>2026-04-18T14:32:43.746Z</time></trkpt><trkpt lat="43.50543" lon="10.6149383"><ele>349.0</ele><time>2026-04-18T14:32:44.744Z</time></trkpt><trkpt lat="43.5054783" lon="10.6148683"><ele>349.0</ele><time>2026-04-18T14:32:45.747Z</time></trkpt><trkpt lat="43.5055817" lon="10.6148"><ele>349.0</ele><time>2026-04-18T14:32:47.746Z</time></trkpt><trkpt lat="43.5056933" lon="10.6148067"><ele>349.0</ele><time>2026-04-18T14:32:49.74Z</time></trkpt><trkpt lat="43.5058" lon="10.614875"><ele>346.16666666666663</ele><time>2026-04-18T14:32:51.746Z</time></trkpt><trkpt lat="43.5058917" lon="10.6149583"><ele>343.3333333333333</ele><time>2026-04-18T14:32:53.748Z</time></trkpt><trkpt lat="43.5059767" lon="10.6149767"><ele>340.5</ele><time>2026-04-18T14:32:55.746Z</time></trkpt><trkpt lat="43.506045" lon="10.6149483"><ele>337.6666666666667</ele><time>2026-04-18T14:32:57.743Z</time></trkpt><trkpt lat="43.5061117" lon="10.6149833"><ele>334.83333333333337</ele><time>2026-04-18T14:33:00.747Z</time></trkpt><trkpt lat="43.5061683" lon="10.61504"><ele>332.0</ele><time>2026-04-18T14:33:29.744Z</time></trkpt><trkpt lat="43.506215" lon="10.6151083"><ele>332.0</ele><time>2026-04-18T14:33:30.744Z</time></trkpt><trkpt lat="43.5062717" lon="10.6152517"><ele>332.0</ele><time>2026-04-18T14:33:31.748Z</time></trkpt><trkpt lat="43.506335" lon="10.6153933"><ele>332.0</ele><time>2026-04-18T14:33:32.746Z</time></trkpt><trkpt lat="43.5064067" lon="10.6155317"><ele>332.0</ele><time>2026-04-18T14:33:33.742Z</time></trkpt><trkpt lat="43.506485" lon="10.61567"><ele>330.5</ele><time>2026-04-18T14:33:34.744Z</time></trkpt><trkpt lat="43.50656" lon="10.6157833"><ele>329.0</ele><time>2026-04-18T14:33:35.747Z</time></trkpt><trkpt lat="43.506635" lon="10.6158783"><ele>327.5</ele><time>2026-04-18T14:33:36.747Z</time></trkpt><trkpt lat="43.5067" lon="10.61595"><ele>326.0</ele><time>2026-04-18T14:33:37.745Z</time></trkpt><trkpt lat="43.5067617" lon="10.6159983"><ele>324.5</ele><time>2026-04-18T14:33:38.743Z</time></trkpt><trkpt lat="43.506835" lon="10.6160217"><ele>323.0</ele><time>2026-04-18T14:33:39.743Z</time></trkpt><trkpt lat="43.5069333" lon="10.6160183"><ele>323.0</ele><time>2026-04-18T14:33:40.747Z</time></trkpt><trkpt lat="43.50704" lon="10.6159983"><ele>323.0</ele><time>2026-04-18T14:33:41.744Z</time></trkpt><trkpt lat="43.5071417" lon="10.6159833"><ele>323.0</ele><time>2026-04-18T14:33:42.744Z</time></trkpt><trkpt lat="43.5072417" lon="10.6159717"><ele>323.0</ele><time>2026-04-18T14:33:43.743Z</time></trkpt><trkpt lat="43.50734" lon="10.6159567"><ele>323.0</ele><time>2026-04-18T14:33:44.742Z</time></trkpt><trkpt lat="43.5074467" lon="10.615925"><ele>321.25</ele><time>2026-04-18T14:33:45.741Z</time></trkpt><trkpt lat="43.50757" lon="10.6158617"><ele>319.5</ele><time>2026-04-18T14:33:46.74Z</time></trkpt><trkpt lat="43.50771" lon="10.6157733"><ele>317.75</ele><time>2026-04-18T14:33:47.741Z</time></trkpt><trkpt lat="43.5078433" lon="10.6156983"><ele>316.0</ele><time>2026-04-18T14:33:48.744Z</time></trkpt><trkpt lat="43.5079633" lon="10.6156467"><ele>314.0</ele><time>2026-04-18T14:33:49.745Z</time></trkpt><trkpt lat="43.508065" lon="10.6156133"><ele>312.0</ele><time>2026-04-18T14:33:50.745Z</time></trkpt><trkpt lat="43.5081567" lon="10.61558"><ele>310.0</ele><time>2026-04-18T14:33:51.742Z</time></trkpt><trkpt lat="43.5082383" lon="10.6155383"><ele>308.0</ele><time>2026-04-18T14:33:52.742Z</time></trkpt><trkpt lat="43.508315" lon="10.6154917"><ele>306.0</ele><time>2026-04-18T14:33:53.746Z</time></trkpt><trkpt lat="43.50839" lon="10.6154367"><ele>306.0</ele><time>2026-04-18T14:33:54.741Z</time></trkpt><trkpt lat="43.5084633" lon="10.61536"><ele>306.0</ele><time>2026-04-18T14:33:55.744Z</time></trkpt><trkpt lat="43.5085217" lon="10.6152767"><ele>306.0</ele><time>2026-04-18T14:33:56.745Z</time></trkpt><trkpt lat="43.5085717" lon="10.61521"><ele>306.0</ele><time>2026-04-18T14:33:57.741Z</time></trkpt><trkpt lat="43.50865" lon="10.615135"><ele>306.0</ele><time>2026-04-18T14:33:59.745Z</time></trkpt><trkpt lat="43.50873" lon="10.61519"><ele>306.0</ele><time>2026-04-18T14:34:01.743Z</time></trkpt><trkpt lat="43.5087767" lon="10.6152733"><ele>303.6</ele><time>2026-04-18T14:34:02.74Z</time></trkpt><trkpt lat="43.508815" lon="10.61538"><ele>301.20000000000005</ele><time>2026-04-18T14:34:03.744Z</time></trkpt><trkpt lat="43.50885" lon="10.6155083"><ele>298.79999999999995</ele><time>2026-04-18T14:34:04.742Z</time></trkpt><trkpt lat="43.5088833" lon="10.615645"><ele>296.4</ele><time>2026-04-18T14:34:05.744Z</time></trkpt><trkpt lat="43.50892" lon="10.6157833"><ele>294.0</ele><time>2026-04-18T14:34:06.742Z</time></trkpt><trkpt lat="43.5089583" lon="10.6159117"><ele>294.0</ele><time>2026-04-18T14:34:07.743Z</time></trkpt><trkpt lat="43.5089917" lon="10.6160217"><ele>294.0</ele><time>2026-04-18T14:34:08.749Z</time></trkpt><trkpt lat="43.5090167" lon="10.6161083"><ele>294.0</ele><time>2026-04-18T14:34:09.744Z</time></trkpt><trkpt lat="43.5090367" lon="10.616245"><ele>294.0</ele><time>2026-04-18T14:34:11.742Z</time></trkpt><trkpt lat="43.50895" lon="10.6163717"><ele>294.0</ele><time>2026-04-18T14:34:13.743Z</time></trkpt><trkpt lat="43.5088883" lon="10.6164367"><ele>293.5</ele><time>2026-04-18T14:34:14.742Z</time></trkpt><trkpt lat="43.508825" lon="10.61651"><ele>293.0</ele><time>2026-04-18T14:34:15.742Z</time></trkpt><trkpt lat="43.5087433" lon="10.6166133"><ele>292.5</ele><time>2026-04-18T14:34:16.74Z</time></trkpt><trkpt lat="43.5086367" lon="10.61674"><ele>292.0</ele><time>2026-04-18T14:34:17.739Z</time></trkpt><trkpt lat="43.5085383" lon="10.6168667"><ele>291.25</ele><time>2026-04-18T14:34:18.742Z</time></trkpt><trkpt lat="43.5084517" lon="10.616985"><ele>290.5</ele><time>2026-04-18T14:34:19.738Z</time></trkpt><trkpt lat="43.5083733" lon="10.6170967"><ele>289.75</ele><time>2026-04-18T14:34:20.741Z</time></trkpt><trkpt lat="43.50831" lon="10.617215"><ele>289.0</ele><time>2026-04-18T14:34:21.749Z</time></trkpt><trkpt lat="43.508245" lon="10.6173633"><ele>289.0</ele><time>2026-04-18T14:34:22.746Z</time></trkpt><trkpt lat="43.508185" lon="10.6175317"><ele>289.0</ele><time>2026-04-18T14:34:23.748Z</time></trkpt><trkpt lat="43.50813" lon="10.6176967"><ele>289.0</ele><time>2026-04-18T14:34:24.743Z</time></trkpt><trkpt lat="43.50807" lon="10.6178517"><ele>289.0</ele><time>2026-04-18T14:34:25.744Z</time></trkpt><trkpt lat="43.5080067" lon="10.6179983"><ele>288.2</ele><time>2026-04-18T14:34:26.742Z</time></trkpt><trkpt lat="43.507945" lon="10.6181367"><ele>287.4</ele><time>2026-04-18T14:34:27.74Z</time></trkpt><trkpt lat="43.5078783" lon="10.6182617"><ele>286.6</ele><time>2026-04-18T14:34:28.743Z</time></trkpt><trkpt lat="43.5078117" lon="10.618375"><ele>285.8</ele><time>2026-04-18T14:34:29.748Z</time></trkpt><trkpt lat="43.5077417" lon="10.618485"><ele>285.0</ele><time>2026-04-18T14:34:30.743Z</time></trkpt><trkpt lat="43.5076583" lon="10.6185767"><ele>285.0</ele><time>2026-04-18T14:34:31.749Z</time></trkpt><trkpt lat="43.5075733" lon="10.61865"><ele>285.0</ele><time>2026-04-18T14:34:32.743Z</time></trkpt><trkpt lat="43.5074783" lon="10.6187017"><ele>285.0</ele><time>2026-04-18T14:34:33.743Z</time></trkpt><trkpt lat="43.5073783" lon="10.61874"><ele>285.0</ele><time>2026-04-18T14:34:34.744Z</time></trkpt><trkpt lat="43.50728" lon="10.6187933"><ele>285.0</ele><time>2026-04-18T14:34:35.745Z</time></trkpt><trkpt lat="43.50718" lon="10.618865"><ele>285.8</ele><time>2026-04-18T14:34:36.749Z</time></trkpt><trkpt lat="43.5070883" lon="10.6189517"><ele>286.6</ele><time>2026-04-18T14:34:37.743Z</time></trkpt><trkpt lat="43.5070217" lon="10.6190467"><ele>287.4</ele><time>2026-04-18T14:34:38.743Z</time></trkpt><trkpt lat="43.5069567" lon="10.6191233"><ele>288.2</ele><time>2026-04-18T14:34:39.745Z</time></trkpt><trkpt lat="43.50689" lon="10.61918"><ele>289.0</ele><time>2026-04-18T14:34:40.743Z</time></trkpt><trkpt lat="43.506815" lon="10.6192233"><ele>289.0</ele><time>2026-04-18T14:34:41.741Z</time></trkpt><trkpt lat="43.5067317" lon="10.6192667"><ele>289.0</ele><time>2026-04-18T14:34:42.749Z</time></trkpt><trkpt lat="43.5066483" lon="10.6192967"><ele>289.0</ele><time>2026-04-18T14:34:43.746Z</time></trkpt><trkpt lat="43.5065583" lon="10.6193083"><ele>289.0</ele><time>2026-04-18T14:34:44.743Z</time></trkpt><trkpt lat="43.5064567" lon="10.6193067"><ele>289.0</ele><time>2026-04-18T14:34:45.742Z</time></trkpt><trkpt lat="43.5063517" lon="10.6193083"><ele>291.2</ele><time>2026-04-18T14:34:46.744Z</time></trkpt><trkpt lat="43.5062383" lon="10.6193267"><ele>293.4</ele><time>2026-04-18T14:34:47.743Z</time></trkpt><trkpt lat="43.5061233" lon="10.6193583"><ele>295.6</ele><time>2026-04-18T14:34:48.744Z</time></trkpt><trkpt lat="43.5060183" lon="10.6193983"><ele>297.8</ele><time>2026-04-18T14:34:49.741Z</time></trkpt><trkpt lat="43.505925" lon="10.6194333"><ele>300.0</ele><time>2026-04-18T14:34:50.741Z</time></trkpt><trkpt lat="43.5058317" lon="10.6194583"><ele>300.0</ele><time>2026-04-18T14:34:51.743Z</time></trkpt><trkpt lat="43.5057417" lon="10.6194717"><ele>300.0</ele><time>2026-04-18T14:34:52.742Z</time></trkpt><trkpt lat="43.505635" lon="10.61946"><ele>300.0</ele><time>2026-04-18T14:34:53.746Z</time></trkpt><trkpt lat="43.5055167" lon="10.6194283"><ele>300.0</ele><time>2026-04-18T14:34:54.743Z</time></trkpt><trkpt lat="43.5054133" lon="10.619385"><ele>300.0</ele><time>2026-04-18T14:34:55.739Z</time></trkpt><trkpt lat="43.5053267" lon="10.61935"><ele>301.5</ele><time>2026-04-18T14:34:56.741Z</time></trkpt><trkpt lat="43.5052583" lon="10.6193367"><ele>303.0</ele><time>2026-04-18T14:34:57.741Z</time></trkpt><trkpt lat="43.505155" lon="10.6193983"><ele>304.5</ele><time>2026-04-18T14:34:59.744Z</time></trkpt><trkpt lat="43.5051117" lon="10.6194767"><ele>306.0</ele><time>2026-04-18T14:35:00.746Z</time></trkpt><trkpt lat="43.5050733" lon="10.6195967"><ele>307.5</ele><time>2026-04-18T14:35:01.741Z</time></trkpt><trkpt lat="43.5050317" lon="10.6196983"><ele>309.0</ele><time>2026-04-18T14:35:02.751Z</time></trkpt><trkpt lat="43.505" lon="10.6197767"><ele>309.0</ele><time>2026-04-18T14:35:03.746Z</time></trkpt><trkpt lat="43.5049533" lon="10.619865"><ele>309.0</ele><time>2026-04-18T14:35:04.747Z</time></trkpt><trkpt lat="43.5048917" lon="10.61995"><ele>309.0</ele><time>2026-04-18T14:35:05.742Z</time></trkpt><trkpt lat="43.50483" lon="10.6200217"><ele>309.0</ele><time>2026-04-18T14:35:06.742Z</time></trkpt><trkpt lat="43.504775" lon="10.62008"><ele>309.0</ele><time>2026-04-18T14:35:07.744Z</time></trkpt><trkpt lat="43.5046917" lon="10.62015"><ele>309.0</ele><time>2026-04-18T14:35:09.741Z</time></trkpt><trkpt lat="43.5046283" lon="10.6201533"><ele>309.4</ele><time>2026-04-18T14:35:11.743Z</time></trkpt><trkpt lat="43.5045583" lon="10.6201117"><ele>309.79999999999995</ele><time>2026-04-18T14:35:13.741Z</time></trkpt><trkpt lat="43.50451" lon="10.6200367"><ele>310.20000000000005</ele><time>2026-04-18T14:35:15.744Z</time></trkpt><trkpt lat="43.5044667" lon="10.61992"><ele>310.6</ele><time>2026-04-18T14:35:17.744Z</time></trkpt><trkpt lat="43.5044133" lon="10.619775"><ele>311.0</ele><time>2026-04-18T14:35:19.745Z</time></trkpt><trkpt lat="43.504365" lon="10.6196217"><ele>311.0</ele><time>2026-04-18T14:35:21.743Z</time></trkpt><trkpt lat="43.504335" lon="10.6194883"><ele>311.0</ele><time>2026-04-18T14:35:23.745Z</time></trkpt><trkpt lat="43.5043483" lon="10.619355"><ele>311.0</ele><time>2026-04-18T14:35:25.744Z</time></trkpt><trkpt lat="43.504425" lon="10.6192267"><ele>311.0</ele><time>2026-04-18T14:35:27.745Z</time></trkpt><trkpt lat="43.5044633" lon="10.6191567"><ele>311.0</ele><time>2026-04-18T14:35:28.74Z</time></trkpt><trkpt lat="43.5045483" lon="10.6190333"><ele>311.2</ele><time>2026-04-18T14:35:30.743Z</time></trkpt><trkpt lat="43.5046217" lon="10.6189517"><ele>311.40000000000003</ele><time>2026-04-18T14:35:32.746Z</time></trkpt><trkpt lat="43.5046933" lon="10.6188933"><ele>311.6</ele><time>2026-04-18T14:35:45.746Z</time></trkpt><trkpt lat="43.50477" lon="10.618815"><ele>311.8</ele><time>2026-04-18T14:35:47.744Z</time></trkpt><trkpt lat="43.5048233" lon="10.6187067"><ele>312.0</ele><time>2026-04-18T14:35:49.744Z</time></trkpt><trkpt lat="43.5048367" lon="10.6185683"><ele>318.0</ele><time>2026-04-18T14:35:51.748Z</time></trkpt><trkpt lat="43.5048383" lon="10.61845"><ele>318.0</ele><time>2026-04-18T14:35:53.743Z</time></trkpt><trkpt lat="43.5047933" lon="10.61837"><ele>318.0</ele><time>2026-04-18T14:35:55.742Z</time></trkpt><trkpt lat="43.5046833" lon="10.6183583"><ele>318.0</ele><time>2026-04-18T14:35:57.746Z</time></trkpt><trkpt lat="43.5046033" lon="10.6183567"><ele>318.0</ele><time>2026-04-18T14:35:59.749Z</time></trkpt><trkpt lat="43.5046033" lon="10.6183567"><ele>318.0</ele><time>2026-04-18T14:35:59.749Z</time></trkpt><trkpt lat="43.5046033" lon="10.6183567"><ele>318.0</ele><time>2026-04-18T14:35:59.749Z</time></trkpt></trkseg></trk></gpx>